<?xml version='1.0' encoding='UTF-8' standalone='yes' ?>
<gpx xmlns="http://www.topografix.com/GPX/1/1" xmlns:geotracker="http://ilyabogdanovich.com/gpx/extensions/geotracker" xmlns:xsi="http://www.w3.org/2001/XMLSchema-instance" xsi:schemaLocation="http://www.topografix.com/GPX/1/1 http://www.topografix.com/GPX/1/1/gpx.xsd" version="1.1" creator="Enregistré par Geo Tracker pour Android de Ilya Bogdanovich">
  <metadata>
    <name>Menestreau-10Kms1</name>
    <time>2022-01-20T07:54:42Z</time>
  </metadata>
  <trk>
    <name>Menestreau-10Kms1</name>
    <extensions>
      <geotracker:meta>
        <geotracker:length>10107.19</geotracker:length>
        <geotracker:duration>9281000</geotracker:duration>
        <geotracker:creationtime>2022-01-20T07:54:42Z</geotracker:creationtime>
        <geotracker:activity>0</geotracker:activity>
      </geotracker:meta>
    </extensions>
    <trkseg>
      <trkpt lat="47.696545" lon="2.0247192">
        <ele>157</ele>
        <time>2022-01-20T07:54:42Z</time>
      </trkpt>
      <trkpt lat="47.696545" lon="2.0247192">
        <ele>157</ele>
        <time>2022-01-20T07:54:43Z</time>
      </trkpt>
      <trkpt lat="47.6965" lon="2.0247505">
        <ele>161</ele>
        <time>2022-01-20T07:54:44Z</time>
      </trkpt>
      <trkpt lat="47.696484" lon="2.024752">
        <ele>162</ele>
        <time>2022-01-20T07:54:46Z</time>
      </trkpt>
      <trkpt lat="47.69647" lon="2.02477">
        <ele>161</ele>
        <time>2022-01-20T07:54:48Z</time>
      </trkpt>
      <trkpt lat="47.69647" lon="2.02477">
        <ele>161</ele>
        <time>2022-01-20T07:54:49Z</time>
      </trkpt>
      <trkpt lat="47.69647" lon="2.02477">
        <ele>161</ele>
        <time>2022-01-20T07:54:50Z</time>
      </trkpt>
      <trkpt lat="47.69647" lon="2.02477">
        <ele>161</ele>
        <time>2022-01-20T07:54:51Z</time>
      </trkpt>
      <trkpt lat="47.69647" lon="2.02477">
        <ele>161</ele>
        <time>2022-01-20T07:54:52Z</time>
      </trkpt>
      <trkpt lat="47.69647" lon="2.02477">
        <ele>161</ele>
        <time>2022-01-20T07:54:53Z</time>
      </trkpt>
      <trkpt lat="47.69647" lon="2.02477">
        <ele>161</ele>
        <time>2022-01-20T07:54:53Z</time>
      </trkpt>
    </trkseg>
    <trkseg>
      <trkpt lat="47.69647" lon="2.02477">
        <ele>161</ele>
        <time>2022-01-20T07:54:53Z</time>
      </trkpt>
      <trkpt lat="47.696503" lon="2.0246859">
        <ele>161</ele>
        <time>2022-01-20T07:59:19Z</time>
      </trkpt>
      <trkpt lat="47.6965" lon="2.0246596">
        <ele>162</ele>
        <time>2022-01-20T07:59:21Z</time>
      </trkpt>
      <trkpt lat="47.696495" lon="2.0246334">
        <ele>161</ele>
        <time>2022-01-20T07:59:23Z</time>
      </trkpt>
      <trkpt lat="47.696495" lon="2.0246003">
        <ele>161</ele>
        <time>2022-01-20T07:59:25Z</time>
      </trkpt>
      <trkpt lat="47.69649" lon="2.0245738">
        <ele>161</ele>
        <time>2022-01-20T07:59:27Z</time>
      </trkpt>
      <trkpt lat="47.69649" lon="2.024558">
        <ele>161</ele>
        <time>2022-01-20T07:59:28Z</time>
      </trkpt>
      <trkpt lat="47.69649" lon="2.024545">
        <ele>161</ele>
        <time>2022-01-20T07:59:29Z</time>
      </trkpt>
      <trkpt lat="47.69649" lon="2.0245304">
        <ele>161</ele>
        <time>2022-01-20T07:59:30Z</time>
      </trkpt>
      <trkpt lat="47.69649" lon="2.0245154">
        <ele>161</ele>
        <time>2022-01-20T07:59:31Z</time>
      </trkpt>
      <trkpt lat="47.69649" lon="2.0245156">
        <ele>161</ele>
        <time>2022-01-20T07:59:32Z</time>
      </trkpt>
      <trkpt lat="47.69649" lon="2.0245156">
        <ele>161</ele>
        <time>2022-01-20T07:59:33Z</time>
      </trkpt>
      <trkpt lat="47.69649" lon="2.0245156">
        <ele>161</ele>
        <time>2022-01-20T07:59:34Z</time>
      </trkpt>
      <trkpt lat="47.69649" lon="2.0245156">
        <ele>161</ele>
        <time>2022-01-20T07:59:35Z</time>
      </trkpt>
      <trkpt lat="47.69649" lon="2.0245156">
        <ele>161</ele>
        <time>2022-01-20T07:59:35Z</time>
      </trkpt>
    </trkseg>
    <trkseg>
      <trkpt lat="47.69649" lon="2.0245156">
        <ele>161</ele>
        <time>2022-01-20T07:59:35Z</time>
      </trkpt>
      <trkpt lat="47.696484" lon="2.0244534">
        <ele>161</ele>
        <time>2022-01-20T07:59:45Z</time>
      </trkpt>
      <trkpt lat="47.696487" lon="2.0244403">
        <ele>162</ele>
        <time>2022-01-20T07:59:46Z</time>
      </trkpt>
      <trkpt lat="47.696487" lon="2.0244217">
        <ele>162</ele>
        <time>2022-01-20T07:59:47Z</time>
      </trkpt>
      <trkpt lat="47.696487" lon="2.0244055">
        <ele>161</ele>
        <time>2022-01-20T07:59:48Z</time>
      </trkpt>
      <trkpt lat="47.696487" lon="2.0243714">
        <ele>161</ele>
        <time>2022-01-20T07:59:50Z</time>
      </trkpt>
      <trkpt lat="47.696476" lon="2.0243232">
        <ele>160</ele>
        <time>2022-01-20T07:59:52Z</time>
      </trkpt>
      <trkpt lat="47.696465" lon="2.0242817">
        <ele>159</ele>
        <time>2022-01-20T07:59:54Z</time>
      </trkpt>
      <trkpt lat="47.69646" lon="2.0242565">
        <ele>159</ele>
        <time>2022-01-20T07:59:55Z</time>
      </trkpt>
      <trkpt lat="47.69646" lon="2.0242364">
        <ele>159</ele>
        <time>2022-01-20T07:59:56Z</time>
      </trkpt>
      <trkpt lat="47.69646" lon="2.0242183">
        <ele>159</ele>
        <time>2022-01-20T07:59:57Z</time>
      </trkpt>
      <trkpt lat="47.69646" lon="2.0242016">
        <ele>159</ele>
        <time>2022-01-20T07:59:58Z</time>
      </trkpt>
      <trkpt lat="47.69646" lon="2.0241818">
        <ele>159</ele>
        <time>2022-01-20T07:59:59Z</time>
      </trkpt>
      <trkpt lat="47.696457" lon="2.0241647">
        <ele>159</ele>
        <time>2022-01-20T08:00:00Z</time>
      </trkpt>
      <trkpt lat="47.696453" lon="2.0241456">
        <ele>158</ele>
        <time>2022-01-20T08:00:01Z</time>
      </trkpt>
      <trkpt lat="47.696453" lon="2.0241284">
        <ele>158</ele>
        <time>2022-01-20T08:00:02Z</time>
      </trkpt>
      <trkpt lat="47.69645" lon="2.0241115">
        <ele>159</ele>
        <time>2022-01-20T08:00:03Z</time>
      </trkpt>
      <trkpt lat="47.69645" lon="2.0240972">
        <ele>159</ele>
        <time>2022-01-20T08:00:04Z</time>
      </trkpt>
      <trkpt lat="47.69645" lon="2.0240743">
        <ele>159</ele>
        <time>2022-01-20T08:00:05Z</time>
      </trkpt>
      <trkpt lat="47.69644" lon="2.0240576">
        <ele>159</ele>
        <time>2022-01-20T08:00:06Z</time>
      </trkpt>
      <trkpt lat="47.696438" lon="2.024039">
        <ele>159</ele>
        <time>2022-01-20T08:00:07Z</time>
      </trkpt>
      <trkpt lat="47.696434" lon="2.0240233">
        <ele>159</ele>
        <time>2022-01-20T08:00:08Z</time>
      </trkpt>
      <trkpt lat="47.696434" lon="2.0240066">
        <ele>159</ele>
        <time>2022-01-20T08:00:09Z</time>
      </trkpt>
      <trkpt lat="47.696434" lon="2.0239885">
        <ele>159</ele>
        <time>2022-01-20T08:00:10Z</time>
      </trkpt>
      <trkpt lat="47.69643" lon="2.023967">
        <ele>159</ele>
        <time>2022-01-20T08:00:11Z</time>
      </trkpt>
      <trkpt lat="47.696426" lon="2.0239487">
        <ele>159</ele>
        <time>2022-01-20T08:00:12Z</time>
      </trkpt>
      <trkpt lat="47.696434" lon="2.0239112">
        <ele>159</ele>
        <time>2022-01-20T08:00:14Z</time>
      </trkpt>
      <trkpt lat="47.696453" lon="2.0238922">
        <ele>160</ele>
        <time>2022-01-20T08:00:16Z</time>
      </trkpt>
      <trkpt lat="47.696465" lon="2.0238848">
        <ele>160</ele>
        <time>2022-01-20T08:00:17Z</time>
      </trkpt>
      <trkpt lat="47.696476" lon="2.02388">
        <ele>161</ele>
        <time>2022-01-20T08:00:18Z</time>
      </trkpt>
      <trkpt lat="47.696487" lon="2.0238764">
        <ele>161</ele>
        <time>2022-01-20T08:00:19Z</time>
      </trkpt>
      <trkpt lat="47.6965" lon="2.0238738">
        <ele>161</ele>
        <time>2022-01-20T08:00:20Z</time>
      </trkpt>
      <trkpt lat="47.69651" lon="2.023869">
        <ele>161</ele>
        <time>2022-01-20T08:00:21Z</time>
      </trkpt>
      <trkpt lat="47.69652" lon="2.0238647">
        <ele>161</ele>
        <time>2022-01-20T08:00:22Z</time>
      </trkpt>
      <trkpt lat="47.69654" lon="2.0238607">
        <ele>161</ele>
        <time>2022-01-20T08:00:23Z</time>
      </trkpt>
      <trkpt lat="47.696552" lon="2.0238566">
        <ele>161</ele>
        <time>2022-01-20T08:00:24Z</time>
      </trkpt>
      <trkpt lat="47.69656" lon="2.0238497">
        <ele>161</ele>
        <time>2022-01-20T08:00:25Z</time>
      </trkpt>
      <trkpt lat="47.696568" lon="2.0238452">
        <ele>161</ele>
        <time>2022-01-20T08:00:26Z</time>
      </trkpt>
      <trkpt lat="47.69658" lon="2.023841">
        <ele>161</ele>
        <time>2022-01-20T08:00:27Z</time>
      </trkpt>
      <trkpt lat="47.69659" lon="2.0238347">
        <ele>160</ele>
        <time>2022-01-20T08:00:28Z</time>
      </trkpt>
      <trkpt lat="47.696606" lon="2.0238295">
        <ele>160</ele>
        <time>2022-01-20T08:00:29Z</time>
      </trkpt>
      <trkpt lat="47.696613" lon="2.0238273">
        <ele>160</ele>
        <time>2022-01-20T08:00:30Z</time>
      </trkpt>
      <trkpt lat="47.69663" lon="2.0238245">
        <ele>160</ele>
        <time>2022-01-20T08:00:31Z</time>
      </trkpt>
      <trkpt lat="47.696636" lon="2.023818">
        <ele>160</ele>
        <time>2022-01-20T08:00:32Z</time>
      </trkpt>
      <trkpt lat="47.696648" lon="2.0238202">
        <ele>160</ele>
        <time>2022-01-20T08:00:33Z</time>
      </trkpt>
      <trkpt lat="47.69666" lon="2.0238206">
        <ele>160</ele>
        <time>2022-01-20T08:00:34Z</time>
      </trkpt>
      <trkpt lat="47.696674" lon="2.0238228">
        <ele>159</ele>
        <time>2022-01-20T08:00:35Z</time>
      </trkpt>
      <trkpt lat="47.696686" lon="2.0238266">
        <ele>159</ele>
        <time>2022-01-20T08:00:36Z</time>
      </trkpt>
      <trkpt lat="47.696697" lon="2.023822">
        <ele>160</ele>
        <time>2022-01-20T08:00:37Z</time>
      </trkpt>
      <trkpt lat="47.69671" lon="2.0238152">
        <ele>160</ele>
        <time>2022-01-20T08:00:38Z</time>
      </trkpt>
      <trkpt lat="47.696724" lon="2.0238104">
        <ele>160</ele>
        <time>2022-01-20T08:00:39Z</time>
      </trkpt>
      <trkpt lat="47.696735" lon="2.0238078">
        <ele>160</ele>
        <time>2022-01-20T08:00:40Z</time>
      </trkpt>
      <trkpt lat="47.696754" lon="2.0238059">
        <ele>160</ele>
        <time>2022-01-20T08:00:42Z</time>
      </trkpt>
      <trkpt lat="47.696766" lon="2.0238018">
        <ele>160</ele>
        <time>2022-01-20T08:00:43Z</time>
      </trkpt>
      <trkpt lat="47.69678" lon="2.0238001">
        <ele>160</ele>
        <time>2022-01-20T08:00:44Z</time>
      </trkpt>
      <trkpt lat="47.696796" lon="2.0237956">
        <ele>160</ele>
        <time>2022-01-20T08:00:45Z</time>
      </trkpt>
      <trkpt lat="47.696808" lon="2.0237892">
        <ele>160</ele>
        <time>2022-01-20T08:00:46Z</time>
      </trkpt>
      <trkpt lat="47.69682" lon="2.0237837">
        <ele>159</ele>
        <time>2022-01-20T08:00:47Z</time>
      </trkpt>
      <trkpt lat="47.69683" lon="2.0237808">
        <ele>159</ele>
        <time>2022-01-20T08:00:48Z</time>
      </trkpt>
      <trkpt lat="47.696842" lon="2.0237763">
        <ele>159</ele>
        <time>2022-01-20T08:00:49Z</time>
      </trkpt>
      <trkpt lat="47.69685" lon="2.0237691">
        <ele>159</ele>
        <time>2022-01-20T08:00:50Z</time>
      </trkpt>
      <trkpt lat="47.696865" lon="2.0237613">
        <ele>159</ele>
        <time>2022-01-20T08:00:51Z</time>
      </trkpt>
      <trkpt lat="47.696877" lon="2.023756">
        <ele>159</ele>
        <time>2022-01-20T08:00:52Z</time>
      </trkpt>
      <trkpt lat="47.69689" lon="2.0237513">
        <ele>159</ele>
        <time>2022-01-20T08:00:53Z</time>
      </trkpt>
      <trkpt lat="47.696915" lon="2.0237494">
        <ele>158</ele>
        <time>2022-01-20T08:00:55Z</time>
      </trkpt>
      <trkpt lat="47.69693" lon="2.0237458">
        <ele>158</ele>
        <time>2022-01-20T08:00:56Z</time>
      </trkpt>
      <trkpt lat="47.69694" lon="2.0237403">
        <ele>159</ele>
        <time>2022-01-20T08:00:57Z</time>
      </trkpt>
      <trkpt lat="47.696953" lon="2.0237362">
        <ele>158</ele>
        <time>2022-01-20T08:00:58Z</time>
      </trkpt>
      <trkpt lat="47.696964" lon="2.0237303">
        <ele>158</ele>
        <time>2022-01-20T08:00:59Z</time>
      </trkpt>
      <trkpt lat="47.69697" lon="2.0237265">
        <ele>158</ele>
        <time>2022-01-20T08:01:00Z</time>
      </trkpt>
      <trkpt lat="47.696983" lon="2.0237257">
        <ele>158</ele>
        <time>2022-01-20T08:01:01Z</time>
      </trkpt>
      <trkpt lat="47.696995" lon="2.0237274">
        <ele>158</ele>
        <time>2022-01-20T08:01:02Z</time>
      </trkpt>
      <trkpt lat="47.697006" lon="2.023724">
        <ele>159</ele>
        <time>2022-01-20T08:01:03Z</time>
      </trkpt>
      <trkpt lat="47.697018" lon="2.0237236">
        <ele>159</ele>
        <time>2022-01-20T08:01:04Z</time>
      </trkpt>
      <trkpt lat="47.69703" lon="2.0237243">
        <ele>158</ele>
        <time>2022-01-20T08:01:05Z</time>
      </trkpt>
      <trkpt lat="47.69704" lon="2.0237248">
        <ele>158</ele>
        <time>2022-01-20T08:01:06Z</time>
      </trkpt>
      <trkpt lat="47.697052" lon="2.0237236">
        <ele>159</ele>
        <time>2022-01-20T08:01:07Z</time>
      </trkpt>
      <trkpt lat="47.69706" lon="2.0237198">
        <ele>158</ele>
        <time>2022-01-20T08:01:08Z</time>
      </trkpt>
      <trkpt lat="47.69707" lon="2.0237188">
        <ele>158</ele>
        <time>2022-01-20T08:01:09Z</time>
      </trkpt>
      <trkpt lat="47.69708" lon="2.023719">
        <ele>158</ele>
        <time>2022-01-20T08:01:10Z</time>
      </trkpt>
      <trkpt lat="47.69709" lon="2.0237174">
        <ele>158</ele>
        <time>2022-01-20T08:01:11Z</time>
      </trkpt>
      <trkpt lat="47.697098" lon="2.023723">
        <ele>158</ele>
        <time>2022-01-20T08:01:12Z</time>
      </trkpt>
      <trkpt lat="47.69711" lon="2.0237222">
        <ele>158</ele>
        <time>2022-01-20T08:01:13Z</time>
      </trkpt>
      <trkpt lat="47.69712" lon="2.023725">
        <ele>158</ele>
        <time>2022-01-20T08:01:14Z</time>
      </trkpt>
      <trkpt lat="47.697132" lon="2.0237272">
        <ele>158</ele>
        <time>2022-01-20T08:01:15Z</time>
      </trkpt>
      <trkpt lat="47.69714" lon="2.0237296">
        <ele>158</ele>
        <time>2022-01-20T08:01:16Z</time>
      </trkpt>
      <trkpt lat="47.69715" lon="2.0237243">
        <ele>158</ele>
        <time>2022-01-20T08:01:17Z</time>
      </trkpt>
      <trkpt lat="47.69716" lon="2.0237186">
        <ele>158</ele>
        <time>2022-01-20T08:01:18Z</time>
      </trkpt>
      <trkpt lat="47.697166" lon="2.023719">
        <ele>158</ele>
        <time>2022-01-20T08:01:19Z</time>
      </trkpt>
      <trkpt lat="47.697178" lon="2.0237143">
        <ele>158</ele>
        <time>2022-01-20T08:01:20Z</time>
      </trkpt>
      <trkpt lat="47.69719" lon="2.023714">
        <ele>157</ele>
        <time>2022-01-20T08:01:21Z</time>
      </trkpt>
      <trkpt lat="47.6972" lon="2.02371">
        <ele>157</ele>
        <time>2022-01-20T08:01:22Z</time>
      </trkpt>
      <trkpt lat="47.697212" lon="2.0237076">
        <ele>157</ele>
        <time>2022-01-20T08:01:23Z</time>
      </trkpt>
      <trkpt lat="47.69722" lon="2.0237043">
        <ele>157</ele>
        <time>2022-01-20T08:01:24Z</time>
      </trkpt>
      <trkpt lat="47.697227" lon="2.0237038">
        <ele>157</ele>
        <time>2022-01-20T08:01:25Z</time>
      </trkpt>
      <trkpt lat="47.697235" lon="2.0237036">
        <ele>157</ele>
        <time>2022-01-20T08:01:26Z</time>
      </trkpt>
      <trkpt lat="47.697247" lon="2.0237007">
        <ele>157</ele>
        <time>2022-01-20T08:01:27Z</time>
      </trkpt>
      <trkpt lat="47.697258" lon="2.0236971">
        <ele>157</ele>
        <time>2022-01-20T08:01:28Z</time>
      </trkpt>
      <trkpt lat="47.69727" lon="2.023695">
        <ele>157</ele>
        <time>2022-01-20T08:01:29Z</time>
      </trkpt>
      <trkpt lat="47.69728" lon="2.0236883">
        <ele>157</ele>
        <time>2022-01-20T08:01:30Z</time>
      </trkpt>
      <trkpt lat="47.697292" lon="2.0236876">
        <ele>157</ele>
        <time>2022-01-20T08:01:31Z</time>
      </trkpt>
      <trkpt lat="47.697308" lon="2.0236847">
        <ele>157</ele>
        <time>2022-01-20T08:01:32Z</time>
      </trkpt>
      <trkpt lat="47.697315" lon="2.0236855">
        <ele>156</ele>
        <time>2022-01-20T08:01:33Z</time>
      </trkpt>
      <trkpt lat="47.697327" lon="2.0236914">
        <ele>156</ele>
        <time>2022-01-20T08:01:34Z</time>
      </trkpt>
      <trkpt lat="47.69734" lon="2.0236945">
        <ele>156</ele>
        <time>2022-01-20T08:01:35Z</time>
      </trkpt>
      <trkpt lat="47.69735" lon="2.0236926">
        <ele>156</ele>
        <time>2022-01-20T08:01:36Z</time>
      </trkpt>
      <trkpt lat="47.697365" lon="2.023689">
        <ele>156</ele>
        <time>2022-01-20T08:01:37Z</time>
      </trkpt>
      <trkpt lat="47.697376" lon="2.0236876">
        <ele>157</ele>
        <time>2022-01-20T08:01:38Z</time>
      </trkpt>
      <trkpt lat="47.69739" lon="2.0236824">
        <ele>157</ele>
        <time>2022-01-20T08:01:39Z</time>
      </trkpt>
      <trkpt lat="47.697407" lon="2.0236802">
        <ele>157</ele>
        <time>2022-01-20T08:01:40Z</time>
      </trkpt>
      <trkpt lat="47.697426" lon="2.0236933">
        <ele>156</ele>
        <time>2022-01-20T08:01:42Z</time>
      </trkpt>
      <trkpt lat="47.697433" lon="2.0236988">
        <ele>156</ele>
        <time>2022-01-20T08:01:43Z</time>
      </trkpt>
      <trkpt lat="47.69744" lon="2.0237007">
        <ele>156</ele>
        <time>2022-01-20T08:01:44Z</time>
      </trkpt>
      <trkpt lat="47.69745" lon="2.0237043">
        <ele>156</ele>
        <time>2022-01-20T08:01:45Z</time>
      </trkpt>
      <trkpt lat="47.697456" lon="2.023704">
        <ele>156</ele>
        <time>2022-01-20T08:01:46Z</time>
      </trkpt>
      <trkpt lat="47.697468" lon="2.0237014">
        <ele>156</ele>
        <time>2022-01-20T08:01:47Z</time>
      </trkpt>
      <trkpt lat="47.69748" lon="2.0237017">
        <ele>156</ele>
        <time>2022-01-20T08:01:48Z</time>
      </trkpt>
      <trkpt lat="47.69749" lon="2.023697">
        <ele>156</ele>
        <time>2022-01-20T08:01:49Z</time>
      </trkpt>
      <trkpt lat="47.697506" lon="2.0236974">
        <ele>156</ele>
        <time>2022-01-20T08:01:50Z</time>
      </trkpt>
      <trkpt lat="47.697517" lon="2.023691">
        <ele>156</ele>
        <time>2022-01-20T08:01:51Z</time>
      </trkpt>
      <trkpt lat="47.69753" lon="2.0236847">
        <ele>156</ele>
        <time>2022-01-20T08:01:52Z</time>
      </trkpt>
      <trkpt lat="47.69754" lon="2.0236857">
        <ele>156</ele>
        <time>2022-01-20T08:01:53Z</time>
      </trkpt>
      <trkpt lat="47.697556" lon="2.0236819">
        <ele>156</ele>
        <time>2022-01-20T08:01:54Z</time>
      </trkpt>
      <trkpt lat="47.697567" lon="2.0236795">
        <ele>156</ele>
        <time>2022-01-20T08:01:55Z</time>
      </trkpt>
      <trkpt lat="47.69758" lon="2.0236776">
        <ele>156</ele>
        <time>2022-01-20T08:01:56Z</time>
      </trkpt>
      <trkpt lat="47.697586" lon="2.0236742">
        <ele>156</ele>
        <time>2022-01-20T08:01:57Z</time>
      </trkpt>
      <trkpt lat="47.697594" lon="2.0236742">
        <ele>156</ele>
        <time>2022-01-20T08:01:58Z</time>
      </trkpt>
      <trkpt lat="47.697605" lon="2.0236797">
        <ele>156</ele>
        <time>2022-01-20T08:01:59Z</time>
      </trkpt>
      <trkpt lat="47.697613" lon="2.0236864">
        <ele>156</ele>
        <time>2022-01-20T08:02:00Z</time>
      </trkpt>
      <trkpt lat="47.69762" lon="2.0236907">
        <ele>156</ele>
        <time>2022-01-20T08:02:01Z</time>
      </trkpt>
      <trkpt lat="47.697628" lon="2.0236895">
        <ele>156</ele>
        <time>2022-01-20T08:02:02Z</time>
      </trkpt>
      <trkpt lat="47.69764" lon="2.023685">
        <ele>156</ele>
        <time>2022-01-20T08:02:03Z</time>
      </trkpt>
      <trkpt lat="47.697647" lon="2.023679">
        <ele>156</ele>
        <time>2022-01-20T08:02:04Z</time>
      </trkpt>
      <trkpt lat="47.69766" lon="2.023671">
        <ele>155</ele>
        <time>2022-01-20T08:02:05Z</time>
      </trkpt>
      <trkpt lat="47.69767" lon="2.0236654">
        <ele>155</ele>
        <time>2022-01-20T08:02:06Z</time>
      </trkpt>
      <trkpt lat="47.69768" lon="2.0236638">
        <ele>155</ele>
        <time>2022-01-20T08:02:07Z</time>
      </trkpt>
      <trkpt lat="47.697697" lon="2.0236614">
        <ele>155</ele>
        <time>2022-01-20T08:02:08Z</time>
      </trkpt>
      <trkpt lat="47.69771" lon="2.0236578">
        <ele>155</ele>
        <time>2022-01-20T08:02:09Z</time>
      </trkpt>
      <trkpt lat="47.69772" lon="2.0236514">
        <ele>155</ele>
        <time>2022-01-20T08:02:10Z</time>
      </trkpt>
      <trkpt lat="47.697735" lon="2.0236485">
        <ele>155</ele>
        <time>2022-01-20T08:02:11Z</time>
      </trkpt>
      <trkpt lat="47.69775" lon="2.0236409">
        <ele>156</ele>
        <time>2022-01-20T08:02:12Z</time>
      </trkpt>
      <trkpt lat="47.69776" lon="2.0236318">
        <ele>157</ele>
        <time>2022-01-20T08:02:13Z</time>
      </trkpt>
      <trkpt lat="47.69777" lon="2.0236216">
        <ele>157</ele>
        <time>2022-01-20T08:02:14Z</time>
      </trkpt>
      <trkpt lat="47.69778" lon="2.0236144">
        <ele>157</ele>
        <time>2022-01-20T08:02:15Z</time>
      </trkpt>
      <trkpt lat="47.697792" lon="2.0236108">
        <ele>157</ele>
        <time>2022-01-20T08:02:16Z</time>
      </trkpt>
      <trkpt lat="47.697803" lon="2.0236087">
        <ele>157</ele>
        <time>2022-01-20T08:02:17Z</time>
      </trkpt>
      <trkpt lat="47.697815" lon="2.0236027">
        <ele>157</ele>
        <time>2022-01-20T08:02:18Z</time>
      </trkpt>
      <trkpt lat="47.69783" lon="2.0236034">
        <ele>157</ele>
        <time>2022-01-20T08:02:19Z</time>
      </trkpt>
      <trkpt lat="47.697845" lon="2.0236042">
        <ele>157</ele>
        <time>2022-01-20T08:02:20Z</time>
      </trkpt>
      <trkpt lat="47.697857" lon="2.023605">
        <ele>157</ele>
        <time>2022-01-20T08:02:21Z</time>
      </trkpt>
      <trkpt lat="47.697872" lon="2.0236042">
        <ele>157</ele>
        <time>2022-01-20T08:02:22Z</time>
      </trkpt>
      <trkpt lat="47.697884" lon="2.0236022">
        <ele>158</ele>
        <time>2022-01-20T08:02:23Z</time>
      </trkpt>
      <trkpt lat="47.697895" lon="2.0236063">
        <ele>158</ele>
        <time>2022-01-20T08:02:24Z</time>
      </trkpt>
      <trkpt lat="47.697906" lon="2.0236087">
        <ele>158</ele>
        <time>2022-01-20T08:02:25Z</time>
      </trkpt>
      <trkpt lat="47.697918" lon="2.0236075">
        <ele>158</ele>
        <time>2022-01-20T08:02:26Z</time>
      </trkpt>
      <trkpt lat="47.69793" lon="2.0236106">
        <ele>158</ele>
        <time>2022-01-20T08:02:27Z</time>
      </trkpt>
      <trkpt lat="47.69794" lon="2.023617">
        <ele>159</ele>
        <time>2022-01-20T08:02:28Z</time>
      </trkpt>
      <trkpt lat="47.697956" lon="2.0236182">
        <ele>159</ele>
        <time>2022-01-20T08:02:29Z</time>
      </trkpt>
      <trkpt lat="47.69797" lon="2.023635">
        <ele>160</ele>
        <time>2022-01-20T08:02:30Z</time>
      </trkpt>
      <trkpt lat="47.697975" lon="2.02364">
        <ele>160</ele>
        <time>2022-01-20T08:02:31Z</time>
      </trkpt>
      <trkpt lat="47.697987" lon="2.0236475">
        <ele>160</ele>
        <time>2022-01-20T08:02:32Z</time>
      </trkpt>
      <trkpt lat="47.698" lon="2.0236516">
        <ele>160</ele>
        <time>2022-01-20T08:02:33Z</time>
      </trkpt>
      <trkpt lat="47.698013" lon="2.0236492">
        <ele>160</ele>
        <time>2022-01-20T08:02:34Z</time>
      </trkpt>
      <trkpt lat="47.698025" lon="2.023645">
        <ele>160</ele>
        <time>2022-01-20T08:02:35Z</time>
      </trkpt>
      <trkpt lat="47.698036" lon="2.0236442">
        <ele>161</ele>
        <time>2022-01-20T08:02:36Z</time>
      </trkpt>
      <trkpt lat="47.698048" lon="2.0236466">
        <ele>161</ele>
        <time>2022-01-20T08:02:37Z</time>
      </trkpt>
      <trkpt lat="47.698063" lon="2.023647">
        <ele>162</ele>
        <time>2022-01-20T08:02:38Z</time>
      </trkpt>
      <trkpt lat="47.69808" lon="2.0236547">
        <ele>162</ele>
        <time>2022-01-20T08:02:39Z</time>
      </trkpt>
      <trkpt lat="47.69809" lon="2.023661">
        <ele>162</ele>
        <time>2022-01-20T08:02:40Z</time>
      </trkpt>
      <trkpt lat="47.698093" lon="2.0236738">
        <ele>161</ele>
        <time>2022-01-20T08:02:41Z</time>
      </trkpt>
      <trkpt lat="47.6981" lon="2.0236838">
        <ele>161</ele>
        <time>2022-01-20T08:02:42Z</time>
      </trkpt>
      <trkpt lat="47.698105" lon="2.0236933">
        <ele>161</ele>
        <time>2022-01-20T08:02:43Z</time>
      </trkpt>
      <trkpt lat="47.69811" lon="2.0237079">
        <ele>161</ele>
        <time>2022-01-20T08:02:44Z</time>
      </trkpt>
      <trkpt lat="47.69811" lon="2.0237193">
        <ele>160</ele>
        <time>2022-01-20T08:02:45Z</time>
      </trkpt>
      <trkpt lat="47.69811" lon="2.0237272">
        <ele>160</ele>
        <time>2022-01-20T08:02:46Z</time>
      </trkpt>
      <trkpt lat="47.698112" lon="2.023743">
        <ele>160</ele>
        <time>2022-01-20T08:02:47Z</time>
      </trkpt>
      <trkpt lat="47.698116" lon="2.023752">
        <ele>160</ele>
        <time>2022-01-20T08:02:48Z</time>
      </trkpt>
      <trkpt lat="47.698116" lon="2.0237608">
        <ele>160</ele>
        <time>2022-01-20T08:02:49Z</time>
      </trkpt>
      <trkpt lat="47.698116" lon="2.023762">
        <ele>160</ele>
        <time>2022-01-20T08:02:50Z</time>
      </trkpt>
      <trkpt lat="47.698112" lon="2.0237691">
        <ele>160</ele>
        <time>2022-01-20T08:02:51Z</time>
      </trkpt>
      <trkpt lat="47.698105" lon="2.0237775">
        <ele>159</ele>
        <time>2022-01-20T08:02:52Z</time>
      </trkpt>
      <trkpt lat="47.6981" lon="2.023789">
        <ele>159</ele>
        <time>2022-01-20T08:02:53Z</time>
      </trkpt>
      <trkpt lat="47.698097" lon="2.0237987">
        <ele>159</ele>
        <time>2022-01-20T08:02:54Z</time>
      </trkpt>
      <trkpt lat="47.698097" lon="2.0237985">
        <ele>159</ele>
        <time>2022-01-20T08:02:55Z</time>
      </trkpt>
      <trkpt lat="47.698093" lon="2.0238001">
        <ele>159</ele>
        <time>2022-01-20T08:02:56Z</time>
      </trkpt>
      <trkpt lat="47.698086" lon="2.023805">
        <ele>160</ele>
        <time>2022-01-20T08:02:57Z</time>
      </trkpt>
      <trkpt lat="47.69808" lon="2.023811">
        <ele>159</ele>
        <time>2022-01-20T08:02:58Z</time>
      </trkpt>
      <trkpt lat="47.69807" lon="2.0238123">
        <ele>159</ele>
        <time>2022-01-20T08:02:59Z</time>
      </trkpt>
      <trkpt lat="47.698063" lon="2.0238204">
        <ele>159</ele>
        <time>2022-01-20T08:03:00Z</time>
      </trkpt>
      <trkpt lat="47.698063" lon="2.023832">
        <ele>159</ele>
        <time>2022-01-20T08:03:01Z</time>
      </trkpt>
      <trkpt lat="47.698055" lon="2.0238392">
        <ele>159</ele>
        <time>2022-01-20T08:03:02Z</time>
      </trkpt>
      <trkpt lat="47.69805" lon="2.0238402">
        <ele>159</ele>
        <time>2022-01-20T08:03:03Z</time>
      </trkpt>
      <trkpt lat="47.698048" lon="2.023839">
        <ele>158</ele>
        <time>2022-01-20T08:03:04Z</time>
      </trkpt>
      <trkpt lat="47.69804" lon="2.023841">
        <ele>158</ele>
        <time>2022-01-20T08:03:05Z</time>
      </trkpt>
      <trkpt lat="47.698036" lon="2.0238419">
        <ele>158</ele>
        <time>2022-01-20T08:03:06Z</time>
      </trkpt>
      <trkpt lat="47.698036" lon="2.0238419">
        <ele>158</ele>
        <time>2022-01-20T08:03:07Z</time>
      </trkpt>
      <trkpt lat="47.698025" lon="2.0238538">
        <ele>158</ele>
        <time>2022-01-20T08:03:08Z</time>
      </trkpt>
      <trkpt lat="47.698025" lon="2.0238612">
        <ele>159</ele>
        <time>2022-01-20T08:03:09Z</time>
      </trkpt>
      <trkpt lat="47.698017" lon="2.0238738">
        <ele>159</ele>
        <time>2022-01-20T08:03:10Z</time>
      </trkpt>
      <trkpt lat="47.698017" lon="2.0238874">
        <ele>159</ele>
        <time>2022-01-20T08:03:11Z</time>
      </trkpt>
      <trkpt lat="47.698013" lon="2.023898">
        <ele>158</ele>
        <time>2022-01-20T08:03:12Z</time>
      </trkpt>
      <trkpt lat="47.69801" lon="2.0239124">
        <ele>158</ele>
        <time>2022-01-20T08:03:13Z</time>
      </trkpt>
      <trkpt lat="47.69801" lon="2.0239227">
        <ele>158</ele>
        <time>2022-01-20T08:03:14Z</time>
      </trkpt>
      <trkpt lat="47.698006" lon="2.0239282">
        <ele>157</ele>
        <time>2022-01-20T08:03:15Z</time>
      </trkpt>
      <trkpt lat="47.697998" lon="2.023937">
        <ele>157</ele>
        <time>2022-01-20T08:03:16Z</time>
      </trkpt>
      <trkpt lat="47.69799" lon="2.0239475">
        <ele>157</ele>
        <time>2022-01-20T08:03:17Z</time>
      </trkpt>
      <trkpt lat="47.697983" lon="2.0239608">
        <ele>157</ele>
        <time>2022-01-20T08:03:18Z</time>
      </trkpt>
      <trkpt lat="47.69798" lon="2.0239687">
        <ele>157</ele>
        <time>2022-01-20T08:03:19Z</time>
      </trkpt>
      <trkpt lat="47.697975" lon="2.0239775">
        <ele>157</ele>
        <time>2022-01-20T08:03:20Z</time>
      </trkpt>
      <trkpt lat="47.69797" lon="2.0239873">
        <ele>157</ele>
        <time>2022-01-20T08:03:21Z</time>
      </trkpt>
      <trkpt lat="47.69796" lon="2.024004">
        <ele>157</ele>
        <time>2022-01-20T08:03:22Z</time>
      </trkpt>
      <trkpt lat="47.697956" lon="2.024016">
        <ele>158</ele>
        <time>2022-01-20T08:03:23Z</time>
      </trkpt>
      <trkpt lat="47.69795" lon="2.024027">
        <ele>157</ele>
        <time>2022-01-20T08:03:24Z</time>
      </trkpt>
      <trkpt lat="47.697945" lon="2.024036">
        <ele>157</ele>
        <time>2022-01-20T08:03:25Z</time>
      </trkpt>
      <trkpt lat="47.69794" lon="2.0240488">
        <ele>156</ele>
        <time>2022-01-20T08:03:26Z</time>
      </trkpt>
      <trkpt lat="47.697933" lon="2.0240598">
        <ele>156</ele>
        <time>2022-01-20T08:03:27Z</time>
      </trkpt>
      <trkpt lat="47.69792" lon="2.0240698">
        <ele>155</ele>
        <time>2022-01-20T08:03:28Z</time>
      </trkpt>
      <trkpt lat="47.69791" lon="2.0240786">
        <ele>155</ele>
        <time>2022-01-20T08:03:29Z</time>
      </trkpt>
      <trkpt lat="47.697903" lon="2.024093">
        <ele>155</ele>
        <time>2022-01-20T08:03:30Z</time>
      </trkpt>
      <trkpt lat="47.697895" lon="2.0241039">
        <ele>155</ele>
        <time>2022-01-20T08:03:31Z</time>
      </trkpt>
      <trkpt lat="47.69789" lon="2.024113">
        <ele>155</ele>
        <time>2022-01-20T08:03:32Z</time>
      </trkpt>
      <trkpt lat="47.697884" lon="2.0241208">
        <ele>155</ele>
        <time>2022-01-20T08:03:33Z</time>
      </trkpt>
      <trkpt lat="47.697876" lon="2.0241346">
        <ele>155</ele>
        <time>2022-01-20T08:03:34Z</time>
      </trkpt>
      <trkpt lat="47.69787" lon="2.0241487">
        <ele>155</ele>
        <time>2022-01-20T08:03:35Z</time>
      </trkpt>
      <trkpt lat="47.69786" lon="2.0241613">
        <ele>155</ele>
        <time>2022-01-20T08:03:36Z</time>
      </trkpt>
      <trkpt lat="47.697857" lon="2.02418">
        <ele>155</ele>
        <time>2022-01-20T08:03:37Z</time>
      </trkpt>
      <trkpt lat="47.69785" lon="2.0242023">
        <ele>154</ele>
        <time>2022-01-20T08:03:38Z</time>
      </trkpt>
      <trkpt lat="47.69785" lon="2.0242195">
        <ele>154</ele>
        <time>2022-01-20T08:03:39Z</time>
      </trkpt>
      <trkpt lat="47.69784" lon="2.0242329">
        <ele>154</ele>
        <time>2022-01-20T08:03:40Z</time>
      </trkpt>
      <trkpt lat="47.697834" lon="2.0242438">
        <ele>153</ele>
        <time>2022-01-20T08:03:41Z</time>
      </trkpt>
      <trkpt lat="47.697826" lon="2.0242567">
        <ele>153</ele>
        <time>2022-01-20T08:03:42Z</time>
      </trkpt>
      <trkpt lat="47.69782" lon="2.024266">
        <ele>153</ele>
        <time>2022-01-20T08:03:43Z</time>
      </trkpt>
      <trkpt lat="47.697807" lon="2.0242734">
        <ele>153</ele>
        <time>2022-01-20T08:03:44Z</time>
      </trkpt>
      <trkpt lat="47.6978" lon="2.0242856">
        <ele>153</ele>
        <time>2022-01-20T08:03:45Z</time>
      </trkpt>
      <trkpt lat="47.697792" lon="2.0243018">
        <ele>154</ele>
        <time>2022-01-20T08:03:46Z</time>
      </trkpt>
      <trkpt lat="47.69779" lon="2.0243173">
        <ele>154</ele>
        <time>2022-01-20T08:03:47Z</time>
      </trkpt>
      <trkpt lat="47.697773" lon="2.0243258">
        <ele>155</ele>
        <time>2022-01-20T08:03:48Z</time>
      </trkpt>
      <trkpt lat="47.697765" lon="2.0243413">
        <ele>155</ele>
        <time>2022-01-20T08:03:49Z</time>
      </trkpt>
      <trkpt lat="47.697754" lon="2.0243533">
        <ele>155</ele>
        <time>2022-01-20T08:03:50Z</time>
      </trkpt>
      <trkpt lat="47.697746" lon="2.0243645">
        <ele>155</ele>
        <time>2022-01-20T08:03:51Z</time>
      </trkpt>
      <trkpt lat="47.697746" lon="2.0243628">
        <ele>154</ele>
        <time>2022-01-20T08:03:52Z</time>
      </trkpt>
      <trkpt lat="47.697742" lon="2.0243714">
        <ele>154</ele>
        <time>2022-01-20T08:03:53Z</time>
      </trkpt>
      <trkpt lat="47.69774" lon="2.0243807">
        <ele>154</ele>
        <time>2022-01-20T08:03:54Z</time>
      </trkpt>
      <trkpt lat="47.697735" lon="2.024396">
        <ele>154</ele>
        <time>2022-01-20T08:03:55Z</time>
      </trkpt>
      <trkpt lat="47.69773" lon="2.0244155">
        <ele>154</ele>
        <time>2022-01-20T08:03:56Z</time>
      </trkpt>
      <trkpt lat="47.697723" lon="2.0244322">
        <ele>154</ele>
        <time>2022-01-20T08:03:57Z</time>
      </trkpt>
      <trkpt lat="47.69772" lon="2.024446">
        <ele>154</ele>
        <time>2022-01-20T08:03:58Z</time>
      </trkpt>
      <trkpt lat="47.69771" lon="2.0244646">
        <ele>154</ele>
        <time>2022-01-20T08:03:59Z</time>
      </trkpt>
      <trkpt lat="47.69771" lon="2.0244622">
        <ele>154</ele>
        <time>2022-01-20T08:04:00Z</time>
      </trkpt>
      <trkpt lat="47.697704" lon="2.0244665">
        <ele>153</ele>
        <time>2022-01-20T08:04:01Z</time>
      </trkpt>
      <trkpt lat="47.697697" lon="2.0244775">
        <ele>153</ele>
        <time>2022-01-20T08:04:02Z</time>
      </trkpt>
      <trkpt lat="47.697693" lon="2.0244973">
        <ele>154</ele>
        <time>2022-01-20T08:04:03Z</time>
      </trkpt>
      <trkpt lat="47.69769" lon="2.0245173">
        <ele>154</ele>
        <time>2022-01-20T08:04:04Z</time>
      </trkpt>
      <trkpt lat="47.697685" lon="2.0245292">
        <ele>155</ele>
        <time>2022-01-20T08:04:05Z</time>
      </trkpt>
      <trkpt lat="47.69768" lon="2.024545">
        <ele>155</ele>
        <time>2022-01-20T08:04:06Z</time>
      </trkpt>
      <trkpt lat="47.697674" lon="2.0245593">
        <ele>155</ele>
        <time>2022-01-20T08:04:07Z</time>
      </trkpt>
      <trkpt lat="47.69767" lon="2.0245736">
        <ele>155</ele>
        <time>2022-01-20T08:04:08Z</time>
      </trkpt>
      <trkpt lat="47.697662" lon="2.024589">
        <ele>155</ele>
        <time>2022-01-20T08:04:09Z</time>
      </trkpt>
      <trkpt lat="47.69765" lon="2.0246086">
        <ele>155</ele>
        <time>2022-01-20T08:04:10Z</time>
      </trkpt>
      <trkpt lat="47.69764" lon="2.024627">
        <ele>155</ele>
        <time>2022-01-20T08:04:11Z</time>
      </trkpt>
      <trkpt lat="47.69764" lon="2.0246255">
        <ele>155</ele>
        <time>2022-01-20T08:04:12Z</time>
      </trkpt>
      <trkpt lat="47.69763" lon="2.0246313">
        <ele>154</ele>
        <time>2022-01-20T08:04:13Z</time>
      </trkpt>
      <trkpt lat="47.697624" lon="2.02464">
        <ele>154</ele>
        <time>2022-01-20T08:04:14Z</time>
      </trkpt>
      <trkpt lat="47.69762" lon="2.024655">
        <ele>154</ele>
        <time>2022-01-20T08:04:15Z</time>
      </trkpt>
      <trkpt lat="47.697613" lon="2.0246644">
        <ele>154</ele>
        <time>2022-01-20T08:04:16Z</time>
      </trkpt>
      <trkpt lat="47.6976" lon="2.024679">
        <ele>153</ele>
        <time>2022-01-20T08:04:17Z</time>
      </trkpt>
      <trkpt lat="47.697594" lon="2.0246925">
        <ele>153</ele>
        <time>2022-01-20T08:04:18Z</time>
      </trkpt>
      <trkpt lat="47.697586" lon="2.0247047">
        <ele>153</ele>
        <time>2022-01-20T08:04:19Z</time>
      </trkpt>
      <trkpt lat="47.69758" lon="2.0247204">
        <ele>153</ele>
        <time>2022-01-20T08:04:20Z</time>
      </trkpt>
      <trkpt lat="47.697567" lon="2.0247333">
        <ele>152</ele>
        <time>2022-01-20T08:04:21Z</time>
      </trkpt>
      <trkpt lat="47.697556" lon="2.0247505">
        <ele>152</ele>
        <time>2022-01-20T08:04:22Z</time>
      </trkpt>
      <trkpt lat="47.697548" lon="2.0247664">
        <ele>152</ele>
        <time>2022-01-20T08:04:23Z</time>
      </trkpt>
      <trkpt lat="47.697536" lon="2.024784">
        <ele>152</ele>
        <time>2022-01-20T08:04:24Z</time>
      </trkpt>
      <trkpt lat="47.69753" lon="2.024797">
        <ele>152</ele>
        <time>2022-01-20T08:04:25Z</time>
      </trkpt>
      <trkpt lat="47.697517" lon="2.0248115">
        <ele>152</ele>
        <time>2022-01-20T08:04:26Z</time>
      </trkpt>
      <trkpt lat="47.69751" lon="2.0248268">
        <ele>152</ele>
        <time>2022-01-20T08:04:27Z</time>
      </trkpt>
      <trkpt lat="47.69751" lon="2.0248427">
        <ele>152</ele>
        <time>2022-01-20T08:04:28Z</time>
      </trkpt>
      <trkpt lat="47.6975" lon="2.0248563">
        <ele>152</ele>
        <time>2022-01-20T08:04:29Z</time>
      </trkpt>
      <trkpt lat="47.69749" lon="2.0248687">
        <ele>151</ele>
        <time>2022-01-20T08:04:30Z</time>
      </trkpt>
      <trkpt lat="47.697483" lon="2.0248818">
        <ele>151</ele>
        <time>2022-01-20T08:04:31Z</time>
      </trkpt>
      <trkpt lat="47.69747" lon="2.0248954">
        <ele>151</ele>
        <time>2022-01-20T08:04:32Z</time>
      </trkpt>
      <trkpt lat="47.697468" lon="2.024907">
        <ele>151</ele>
        <time>2022-01-20T08:04:33Z</time>
      </trkpt>
      <trkpt lat="47.69746" lon="2.0249221">
        <ele>151</ele>
        <time>2022-01-20T08:04:34Z</time>
      </trkpt>
      <trkpt lat="47.697453" lon="2.024935">
        <ele>150</ele>
        <time>2022-01-20T08:04:35Z</time>
      </trkpt>
      <trkpt lat="47.69745" lon="2.0249524">
        <ele>150</ele>
        <time>2022-01-20T08:04:36Z</time>
      </trkpt>
      <trkpt lat="47.697445" lon="2.0249672">
        <ele>151</ele>
        <time>2022-01-20T08:04:37Z</time>
      </trkpt>
      <trkpt lat="47.69744" lon="2.0249774">
        <ele>151</ele>
        <time>2022-01-20T08:04:38Z</time>
      </trkpt>
      <trkpt lat="47.69743" lon="2.0249867">
        <ele>151</ele>
        <time>2022-01-20T08:04:39Z</time>
      </trkpt>
      <trkpt lat="47.697426" lon="2.0249982">
        <ele>151</ele>
        <time>2022-01-20T08:04:40Z</time>
      </trkpt>
      <trkpt lat="47.69742" lon="2.0250096">
        <ele>151</ele>
        <time>2022-01-20T08:04:41Z</time>
      </trkpt>
      <trkpt lat="47.69741" lon="2.0250208">
        <ele>151</ele>
        <time>2022-01-20T08:04:42Z</time>
      </trkpt>
      <trkpt lat="47.697403" lon="2.0250375">
        <ele>151</ele>
        <time>2022-01-20T08:04:43Z</time>
      </trkpt>
      <trkpt lat="47.6974" lon="2.0250516">
        <ele>151</ele>
        <time>2022-01-20T08:04:44Z</time>
      </trkpt>
      <trkpt lat="47.69739" lon="2.0250638">
        <ele>150</ele>
        <time>2022-01-20T08:04:45Z</time>
      </trkpt>
      <trkpt lat="47.697388" lon="2.0250742">
        <ele>150</ele>
        <time>2022-01-20T08:04:46Z</time>
      </trkpt>
      <trkpt lat="47.697384" lon="2.0250866">
        <ele>150</ele>
        <time>2022-01-20T08:04:47Z</time>
      </trkpt>
      <trkpt lat="47.69738" lon="2.025096">
        <ele>151</ele>
        <time>2022-01-20T08:04:48Z</time>
      </trkpt>
      <trkpt lat="47.697372" lon="2.0251079">
        <ele>151</ele>
        <time>2022-01-20T08:04:49Z</time>
      </trkpt>
      <trkpt lat="47.697365" lon="2.0251207">
        <ele>150</ele>
        <time>2022-01-20T08:04:50Z</time>
      </trkpt>
      <trkpt lat="47.697357" lon="2.0251372">
        <ele>150</ele>
        <time>2022-01-20T08:04:51Z</time>
      </trkpt>
      <trkpt lat="47.69735" lon="2.0251484">
        <ele>150</ele>
        <time>2022-01-20T08:04:52Z</time>
      </trkpt>
      <trkpt lat="47.697342" lon="2.0251603">
        <ele>151</ele>
        <time>2022-01-20T08:04:53Z</time>
      </trkpt>
      <trkpt lat="47.69734" lon="2.025171">
        <ele>151</ele>
        <time>2022-01-20T08:04:54Z</time>
      </trkpt>
      <trkpt lat="47.697334" lon="2.0251803">
        <ele>150</ele>
        <time>2022-01-20T08:04:55Z</time>
      </trkpt>
      <trkpt lat="47.697327" lon="2.025193">
        <ele>150</ele>
        <time>2022-01-20T08:04:56Z</time>
      </trkpt>
      <trkpt lat="47.69732" lon="2.025209">
        <ele>150</ele>
        <time>2022-01-20T08:04:57Z</time>
      </trkpt>
      <trkpt lat="47.697315" lon="2.0252228">
        <ele>150</ele>
        <time>2022-01-20T08:04:58Z</time>
      </trkpt>
      <trkpt lat="47.69731" lon="2.0252388">
        <ele>150</ele>
        <time>2022-01-20T08:04:59Z</time>
      </trkpt>
      <trkpt lat="47.69731" lon="2.0252557">
        <ele>150</ele>
        <time>2022-01-20T08:05:00Z</time>
      </trkpt>
      <trkpt lat="47.697308" lon="2.0252674">
        <ele>149</ele>
        <time>2022-01-20T08:05:01Z</time>
      </trkpt>
      <trkpt lat="47.697304" lon="2.0252776">
        <ele>149</ele>
        <time>2022-01-20T08:05:02Z</time>
      </trkpt>
      <trkpt lat="47.697296" lon="2.0252943">
        <ele>149</ele>
        <time>2022-01-20T08:05:03Z</time>
      </trkpt>
      <trkpt lat="47.69729" lon="2.0253098">
        <ele>149</ele>
        <time>2022-01-20T08:05:04Z</time>
      </trkpt>
      <trkpt lat="47.697285" lon="2.0253232">
        <ele>149</ele>
        <time>2022-01-20T08:05:05Z</time>
      </trkpt>
      <trkpt lat="47.697277" lon="2.0253372">
        <ele>149</ele>
        <time>2022-01-20T08:05:06Z</time>
      </trkpt>
      <trkpt lat="47.69727" lon="2.025354">
        <ele>149</ele>
        <time>2022-01-20T08:05:07Z</time>
      </trkpt>
      <trkpt lat="47.697258" lon="2.0253706">
        <ele>149</ele>
        <time>2022-01-20T08:05:08Z</time>
      </trkpt>
      <trkpt lat="47.69725" lon="2.025385">
        <ele>148</ele>
        <time>2022-01-20T08:05:09Z</time>
      </trkpt>
      <trkpt lat="47.697243" lon="2.0253992">
        <ele>148</ele>
        <time>2022-01-20T08:05:10Z</time>
      </trkpt>
      <trkpt lat="47.697235" lon="2.0254123">
        <ele>149</ele>
        <time>2022-01-20T08:05:11Z</time>
      </trkpt>
      <trkpt lat="47.697227" lon="2.0254257">
        <ele>148</ele>
        <time>2022-01-20T08:05:12Z</time>
      </trkpt>
      <trkpt lat="47.69722" lon="2.0254338">
        <ele>148</ele>
        <time>2022-01-20T08:05:13Z</time>
      </trkpt>
      <trkpt lat="47.697212" lon="2.0254421">
        <ele>148</ele>
        <time>2022-01-20T08:05:14Z</time>
      </trkpt>
      <trkpt lat="47.697205" lon="2.025454">
        <ele>148</ele>
        <time>2022-01-20T08:05:15Z</time>
      </trkpt>
      <trkpt lat="47.697193" lon="2.025467">
        <ele>148</ele>
        <time>2022-01-20T08:05:16Z</time>
      </trkpt>
      <trkpt lat="47.69718" lon="2.0254784">
        <ele>147</ele>
        <time>2022-01-20T08:05:17Z</time>
      </trkpt>
      <trkpt lat="47.697174" lon="2.0254884">
        <ele>147</ele>
        <time>2022-01-20T08:05:18Z</time>
      </trkpt>
      <trkpt lat="47.697166" lon="2.025497">
        <ele>147</ele>
        <time>2022-01-20T08:05:19Z</time>
      </trkpt>
      <trkpt lat="47.697163" lon="2.0255015">
        <ele>147</ele>
        <time>2022-01-20T08:05:20Z</time>
      </trkpt>
      <trkpt lat="47.697155" lon="2.025507">
        <ele>147</ele>
        <time>2022-01-20T08:05:21Z</time>
      </trkpt>
      <trkpt lat="47.697147" lon="2.0255187">
        <ele>147</ele>
        <time>2022-01-20T08:05:22Z</time>
      </trkpt>
      <trkpt lat="47.69714" lon="2.0255308">
        <ele>148</ele>
        <time>2022-01-20T08:05:23Z</time>
      </trkpt>
      <trkpt lat="47.697132" lon="2.0255451">
        <ele>148</ele>
        <time>2022-01-20T08:05:24Z</time>
      </trkpt>
      <trkpt lat="47.69713" lon="2.0255556">
        <ele>149</ele>
        <time>2022-01-20T08:05:25Z</time>
      </trkpt>
      <trkpt lat="47.69712" lon="2.0255654">
        <ele>149</ele>
        <time>2022-01-20T08:05:26Z</time>
      </trkpt>
      <trkpt lat="47.697113" lon="2.0255747">
        <ele>149</ele>
        <time>2022-01-20T08:05:27Z</time>
      </trkpt>
      <trkpt lat="47.697105" lon="2.0255873">
        <ele>149</ele>
        <time>2022-01-20T08:05:28Z</time>
      </trkpt>
      <trkpt lat="47.6971" lon="2.0255969">
        <ele>149</ele>
        <time>2022-01-20T08:05:29Z</time>
      </trkpt>
      <trkpt lat="47.697098" lon="2.0256085">
        <ele>149</ele>
        <time>2022-01-20T08:05:30Z</time>
      </trkpt>
      <trkpt lat="47.69709" lon="2.0256217">
        <ele>149</ele>
        <time>2022-01-20T08:05:31Z</time>
      </trkpt>
      <trkpt lat="47.69708" lon="2.025638">
        <ele>149</ele>
        <time>2022-01-20T08:05:32Z</time>
      </trkpt>
      <trkpt lat="47.697067" lon="2.025653">
        <ele>149</ele>
        <time>2022-01-20T08:05:33Z</time>
      </trkpt>
      <trkpt lat="47.69706" lon="2.0256653">
        <ele>149</ele>
        <time>2022-01-20T08:05:34Z</time>
      </trkpt>
      <trkpt lat="47.697056" lon="2.0256772">
        <ele>149</ele>
        <time>2022-01-20T08:05:35Z</time>
      </trkpt>
      <trkpt lat="47.69705" lon="2.02569">
        <ele>148</ele>
        <time>2022-01-20T08:05:36Z</time>
      </trkpt>
      <trkpt lat="47.697044" lon="2.0257034">
        <ele>148</ele>
        <time>2022-01-20T08:05:37Z</time>
      </trkpt>
      <trkpt lat="47.697037" lon="2.0257149">
        <ele>148</ele>
        <time>2022-01-20T08:05:38Z</time>
      </trkpt>
      <trkpt lat="47.697033" lon="2.0257225">
        <ele>148</ele>
        <time>2022-01-20T08:05:39Z</time>
      </trkpt>
      <trkpt lat="47.697025" lon="2.025728">
        <ele>148</ele>
        <time>2022-01-20T08:05:40Z</time>
      </trkpt>
      <trkpt lat="47.697014" lon="2.025738">
        <ele>148</ele>
        <time>2022-01-20T08:05:41Z</time>
      </trkpt>
      <trkpt lat="47.697006" lon="2.0257516">
        <ele>148</ele>
        <time>2022-01-20T08:05:42Z</time>
      </trkpt>
      <trkpt lat="47.697" lon="2.0257611">
        <ele>148</ele>
        <time>2022-01-20T08:05:43Z</time>
      </trkpt>
      <trkpt lat="47.69699" lon="2.0257704">
        <ele>148</ele>
        <time>2022-01-20T08:05:44Z</time>
      </trkpt>
      <trkpt lat="47.696983" lon="2.0257826">
        <ele>148</ele>
        <time>2022-01-20T08:05:45Z</time>
      </trkpt>
      <trkpt lat="47.69697" lon="2.025794">
        <ele>148</ele>
        <time>2022-01-20T08:05:46Z</time>
      </trkpt>
      <trkpt lat="47.69696" lon="2.0258017">
        <ele>149</ele>
        <time>2022-01-20T08:05:47Z</time>
      </trkpt>
      <trkpt lat="47.696953" lon="2.02581">
        <ele>148</ele>
        <time>2022-01-20T08:05:48Z</time>
      </trkpt>
      <trkpt lat="47.696945" lon="2.0258179">
        <ele>148</ele>
        <time>2022-01-20T08:05:49Z</time>
      </trkpt>
      <trkpt lat="47.69694" lon="2.0258315">
        <ele>148</ele>
        <time>2022-01-20T08:05:50Z</time>
      </trkpt>
      <trkpt lat="47.696934" lon="2.0258467">
        <ele>148</ele>
        <time>2022-01-20T08:05:51Z</time>
      </trkpt>
      <trkpt lat="47.696926" lon="2.025863">
        <ele>148</ele>
        <time>2022-01-20T08:05:52Z</time>
      </trkpt>
      <trkpt lat="47.696915" lon="2.0258749">
        <ele>148</ele>
        <time>2022-01-20T08:05:53Z</time>
      </trkpt>
      <trkpt lat="47.696907" lon="2.025888">
        <ele>148</ele>
        <time>2022-01-20T08:05:54Z</time>
      </trkpt>
      <trkpt lat="47.696896" lon="2.0259013">
        <ele>148</ele>
        <time>2022-01-20T08:05:55Z</time>
      </trkpt>
      <trkpt lat="47.696888" lon="2.0259182">
        <ele>148</ele>
        <time>2022-01-20T08:05:56Z</time>
      </trkpt>
      <trkpt lat="47.69688" lon="2.0259397">
        <ele>148</ele>
        <time>2022-01-20T08:05:57Z</time>
      </trkpt>
      <trkpt lat="47.696873" lon="2.0259604">
        <ele>148</ele>
        <time>2022-01-20T08:05:58Z</time>
      </trkpt>
      <trkpt lat="47.696865" lon="2.0259793">
        <ele>148</ele>
        <time>2022-01-20T08:05:59Z</time>
      </trkpt>
      <trkpt lat="47.696857" lon="2.026">
        <ele>148</ele>
        <time>2022-01-20T08:06:00Z</time>
      </trkpt>
      <trkpt lat="47.69685" lon="2.026018">
        <ele>148</ele>
        <time>2022-01-20T08:06:01Z</time>
      </trkpt>
      <trkpt lat="47.696842" lon="2.0260365">
        <ele>148</ele>
        <time>2022-01-20T08:06:02Z</time>
      </trkpt>
      <trkpt lat="47.696835" lon="2.0260544">
        <ele>148</ele>
        <time>2022-01-20T08:06:03Z</time>
      </trkpt>
      <trkpt lat="47.696827" lon="2.026069">
        <ele>148</ele>
        <time>2022-01-20T08:06:04Z</time>
      </trkpt>
      <trkpt lat="47.696823" lon="2.0260835">
        <ele>148</ele>
        <time>2022-01-20T08:06:05Z</time>
      </trkpt>
      <trkpt lat="47.696815" lon="2.0261006">
        <ele>148</ele>
        <time>2022-01-20T08:06:06Z</time>
      </trkpt>
      <trkpt lat="47.696808" lon="2.026119">
        <ele>149</ele>
        <time>2022-01-20T08:06:07Z</time>
      </trkpt>
      <trkpt lat="47.6968" lon="2.0261428">
        <ele>149</ele>
        <time>2022-01-20T08:06:08Z</time>
      </trkpt>
      <trkpt lat="47.696796" lon="2.026162">
        <ele>149</ele>
        <time>2022-01-20T08:06:09Z</time>
      </trkpt>
      <trkpt lat="47.69679" lon="2.0261772">
        <ele>149</ele>
        <time>2022-01-20T08:06:10Z</time>
      </trkpt>
      <trkpt lat="47.69678" lon="2.0261893">
        <ele>149</ele>
        <time>2022-01-20T08:06:11Z</time>
      </trkpt>
      <trkpt lat="47.696777" lon="2.0262008">
        <ele>149</ele>
        <time>2022-01-20T08:06:12Z</time>
      </trkpt>
      <trkpt lat="47.696766" lon="2.0262158">
        <ele>149</ele>
        <time>2022-01-20T08:06:13Z</time>
      </trkpt>
      <trkpt lat="47.69675" lon="2.0262313">
        <ele>150</ele>
        <time>2022-01-20T08:06:14Z</time>
      </trkpt>
      <trkpt lat="47.69674" lon="2.026244">
        <ele>150</ele>
        <time>2022-01-20T08:06:15Z</time>
      </trkpt>
      <trkpt lat="47.69673" lon="2.0262566">
        <ele>150</ele>
        <time>2022-01-20T08:06:16Z</time>
      </trkpt>
      <trkpt lat="47.696724" lon="2.0262692">
        <ele>150</ele>
        <time>2022-01-20T08:06:17Z</time>
      </trkpt>
      <trkpt lat="47.696712" lon="2.0262809">
        <ele>151</ele>
        <time>2022-01-20T08:06:18Z</time>
      </trkpt>
      <trkpt lat="47.69671" lon="2.0262942">
        <ele>151</ele>
        <time>2022-01-20T08:06:19Z</time>
      </trkpt>
      <trkpt lat="47.696697" lon="2.0263066">
        <ele>151</ele>
        <time>2022-01-20T08:06:20Z</time>
      </trkpt>
      <trkpt lat="47.696686" lon="2.0263138">
        <ele>151</ele>
        <time>2022-01-20T08:06:21Z</time>
      </trkpt>
      <trkpt lat="47.69668" lon="2.0263202">
        <ele>151</ele>
        <time>2022-01-20T08:06:22Z</time>
      </trkpt>
      <trkpt lat="47.696667" lon="2.0263324">
        <ele>151</ele>
        <time>2022-01-20T08:06:23Z</time>
      </trkpt>
      <trkpt lat="47.69666" lon="2.0263436">
        <ele>151</ele>
        <time>2022-01-20T08:06:24Z</time>
      </trkpt>
      <trkpt lat="47.69665" lon="2.0263615">
        <ele>151</ele>
        <time>2022-01-20T08:06:25Z</time>
      </trkpt>
      <trkpt lat="47.696648" lon="2.026374">
        <ele>151</ele>
        <time>2022-01-20T08:06:26Z</time>
      </trkpt>
      <trkpt lat="47.69664" lon="2.0263853">
        <ele>151</ele>
        <time>2022-01-20T08:06:27Z</time>
      </trkpt>
      <trkpt lat="47.69663" lon="2.026396">
        <ele>151</ele>
        <time>2022-01-20T08:06:28Z</time>
      </trkpt>
      <trkpt lat="47.69662" lon="2.0264041">
        <ele>151</ele>
        <time>2022-01-20T08:06:29Z</time>
      </trkpt>
      <trkpt lat="47.696613" lon="2.0264165">
        <ele>151</ele>
        <time>2022-01-20T08:06:30Z</time>
      </trkpt>
      <trkpt lat="47.69661" lon="2.0264292">
        <ele>151</ele>
        <time>2022-01-20T08:06:31Z</time>
      </trkpt>
      <trkpt lat="47.696598" lon="2.02644">
        <ele>151</ele>
        <time>2022-01-20T08:06:32Z</time>
      </trkpt>
      <trkpt lat="47.69659" lon="2.0264502">
        <ele>151</ele>
        <time>2022-01-20T08:06:33Z</time>
      </trkpt>
      <trkpt lat="47.696583" lon="2.0264688">
        <ele>151</ele>
        <time>2022-01-20T08:06:34Z</time>
      </trkpt>
      <trkpt lat="47.69658" lon="2.0264814">
        <ele>150</ele>
        <time>2022-01-20T08:06:35Z</time>
      </trkpt>
      <trkpt lat="47.696568" lon="2.0264883">
        <ele>151</ele>
        <time>2022-01-20T08:06:36Z</time>
      </trkpt>
      <trkpt lat="47.69656" lon="2.0264971">
        <ele>151</ele>
        <time>2022-01-20T08:06:37Z</time>
      </trkpt>
      <trkpt lat="47.69655" lon="2.0265064">
        <ele>151</ele>
        <time>2022-01-20T08:06:38Z</time>
      </trkpt>
      <trkpt lat="47.69654" lon="2.0265162">
        <ele>151</ele>
        <time>2022-01-20T08:06:39Z</time>
      </trkpt>
      <trkpt lat="47.696533" lon="2.02653">
        <ele>151</ele>
        <time>2022-01-20T08:06:40Z</time>
      </trkpt>
      <trkpt lat="47.69652" lon="2.0265396">
        <ele>151</ele>
        <time>2022-01-20T08:06:41Z</time>
      </trkpt>
      <trkpt lat="47.696514" lon="2.0265453">
        <ele>151</ele>
        <time>2022-01-20T08:06:42Z</time>
      </trkpt>
      <trkpt lat="47.696503" lon="2.0265536">
        <ele>151</ele>
        <time>2022-01-20T08:06:43Z</time>
      </trkpt>
      <trkpt lat="47.69649" lon="2.0265625">
        <ele>151</ele>
        <time>2022-01-20T08:06:44Z</time>
      </trkpt>
      <trkpt lat="47.696484" lon="2.0265749">
        <ele>151</ele>
        <time>2022-01-20T08:06:45Z</time>
      </trkpt>
      <trkpt lat="47.696476" lon="2.0265887">
        <ele>150</ele>
        <time>2022-01-20T08:06:46Z</time>
      </trkpt>
      <trkpt lat="47.696465" lon="2.0266008">
        <ele>150</ele>
        <time>2022-01-20T08:06:47Z</time>
      </trkpt>
      <trkpt lat="47.696453" lon="2.02661">
        <ele>150</ele>
        <time>2022-01-20T08:06:48Z</time>
      </trkpt>
      <trkpt lat="47.69644" lon="2.0266213">
        <ele>150</ele>
        <time>2022-01-20T08:06:49Z</time>
      </trkpt>
      <trkpt lat="47.69643" lon="2.0266278">
        <ele>150</ele>
        <time>2022-01-20T08:06:50Z</time>
      </trkpt>
      <trkpt lat="47.69642" lon="2.0266366">
        <ele>151</ele>
        <time>2022-01-20T08:06:51Z</time>
      </trkpt>
      <trkpt lat="47.69641" lon="2.0266488">
        <ele>151</ele>
        <time>2022-01-20T08:06:52Z</time>
      </trkpt>
      <trkpt lat="47.6964" lon="2.026662">
        <ele>151</ele>
        <time>2022-01-20T08:06:53Z</time>
      </trkpt>
      <trkpt lat="47.69639" lon="2.0266736">
        <ele>151</ele>
        <time>2022-01-20T08:06:54Z</time>
      </trkpt>
      <trkpt lat="47.69638" lon="2.026683">
        <ele>150</ele>
        <time>2022-01-20T08:06:55Z</time>
      </trkpt>
      <trkpt lat="47.696377" lon="2.0266936">
        <ele>150</ele>
        <time>2022-01-20T08:06:56Z</time>
      </trkpt>
      <trkpt lat="47.69637" lon="2.026706">
        <ele>150</ele>
        <time>2022-01-20T08:06:57Z</time>
      </trkpt>
      <trkpt lat="47.696365" lon="2.0267181">
        <ele>150</ele>
        <time>2022-01-20T08:06:58Z</time>
      </trkpt>
      <trkpt lat="47.696358" lon="2.0267313">
        <ele>150</ele>
        <time>2022-01-20T08:06:59Z</time>
      </trkpt>
      <trkpt lat="47.69635" lon="2.0267453">
        <ele>150</ele>
        <time>2022-01-20T08:07:00Z</time>
      </trkpt>
      <trkpt lat="47.696346" lon="2.026759">
        <ele>150</ele>
        <time>2022-01-20T08:07:01Z</time>
      </trkpt>
      <trkpt lat="47.696342" lon="2.0267746">
        <ele>150</ele>
        <time>2022-01-20T08:07:02Z</time>
      </trkpt>
      <trkpt lat="47.696335" lon="2.0267909">
        <ele>150</ele>
        <time>2022-01-20T08:07:03Z</time>
      </trkpt>
      <trkpt lat="47.696327" lon="2.0268073">
        <ele>150</ele>
        <time>2022-01-20T08:07:04Z</time>
      </trkpt>
      <trkpt lat="47.69632" lon="2.0268157">
        <ele>150</ele>
        <time>2022-01-20T08:07:05Z</time>
      </trkpt>
      <trkpt lat="47.696316" lon="2.026826">
        <ele>150</ele>
        <time>2022-01-20T08:07:06Z</time>
      </trkpt>
      <trkpt lat="47.69631" lon="2.0268402">
        <ele>150</ele>
        <time>2022-01-20T08:07:07Z</time>
      </trkpt>
      <trkpt lat="47.696304" lon="2.0268555">
        <ele>150</ele>
        <time>2022-01-20T08:07:08Z</time>
      </trkpt>
      <trkpt lat="47.696297" lon="2.02687">
        <ele>150</ele>
        <time>2022-01-20T08:07:09Z</time>
      </trkpt>
      <trkpt lat="47.69629" lon="2.026882">
        <ele>149</ele>
        <time>2022-01-20T08:07:10Z</time>
      </trkpt>
      <trkpt lat="47.69628" lon="2.0268924">
        <ele>150</ele>
        <time>2022-01-20T08:07:11Z</time>
      </trkpt>
      <trkpt lat="47.696274" lon="2.0269055">
        <ele>150</ele>
        <time>2022-01-20T08:07:12Z</time>
      </trkpt>
      <trkpt lat="47.696262" lon="2.026918">
        <ele>150</ele>
        <time>2022-01-20T08:07:13Z</time>
      </trkpt>
      <trkpt lat="47.69625" lon="2.026931">
        <ele>150</ele>
        <time>2022-01-20T08:07:14Z</time>
      </trkpt>
      <trkpt lat="47.696243" lon="2.0269449">
        <ele>150</ele>
        <time>2022-01-20T08:07:15Z</time>
      </trkpt>
      <trkpt lat="47.69623" lon="2.026958">
        <ele>150</ele>
        <time>2022-01-20T08:07:16Z</time>
      </trkpt>
      <trkpt lat="47.69622" lon="2.026974">
        <ele>150</ele>
        <time>2022-01-20T08:07:17Z</time>
      </trkpt>
      <trkpt lat="47.69621" lon="2.0269883">
        <ele>150</ele>
        <time>2022-01-20T08:07:18Z</time>
      </trkpt>
      <trkpt lat="47.6962" lon="2.0269995">
        <ele>150</ele>
        <time>2022-01-20T08:07:19Z</time>
      </trkpt>
      <trkpt lat="47.696194" lon="2.0270112">
        <ele>150</ele>
        <time>2022-01-20T08:07:20Z</time>
      </trkpt>
      <trkpt lat="47.696182" lon="2.0270271">
        <ele>149</ele>
        <time>2022-01-20T08:07:21Z</time>
      </trkpt>
      <trkpt lat="47.696175" lon="2.027045">
        <ele>149</ele>
        <time>2022-01-20T08:07:22Z</time>
      </trkpt>
      <trkpt lat="47.696163" lon="2.0270655">
        <ele>149</ele>
        <time>2022-01-20T08:07:23Z</time>
      </trkpt>
      <trkpt lat="47.696156" lon="2.0270836">
        <ele>149</ele>
        <time>2022-01-20T08:07:24Z</time>
      </trkpt>
      <trkpt lat="47.696148" lon="2.0270934">
        <ele>149</ele>
        <time>2022-01-20T08:07:25Z</time>
      </trkpt>
      <trkpt lat="47.696136" lon="2.027103">
        <ele>149</ele>
        <time>2022-01-20T08:07:26Z</time>
      </trkpt>
      <trkpt lat="47.69613" lon="2.0271065">
        <ele>150</ele>
        <time>2022-01-20T08:07:27Z</time>
      </trkpt>
      <trkpt lat="47.696117" lon="2.0271099">
        <ele>150</ele>
        <time>2022-01-20T08:07:28Z</time>
      </trkpt>
      <trkpt lat="47.696106" lon="2.02712">
        <ele>150</ele>
        <time>2022-01-20T08:07:29Z</time>
      </trkpt>
      <trkpt lat="47.6961" lon="2.0271285">
        <ele>150</ele>
        <time>2022-01-20T08:07:30Z</time>
      </trkpt>
      <trkpt lat="47.69609" lon="2.0271375">
        <ele>149</ele>
        <time>2022-01-20T08:07:31Z</time>
      </trkpt>
      <trkpt lat="47.696083" lon="2.0271513">
        <ele>149</ele>
        <time>2022-01-20T08:07:32Z</time>
      </trkpt>
      <trkpt lat="47.69607" lon="2.0271637">
        <ele>149</ele>
        <time>2022-01-20T08:07:33Z</time>
      </trkpt>
      <trkpt lat="47.696068" lon="2.027181">
        <ele>149</ele>
        <time>2022-01-20T08:07:34Z</time>
      </trkpt>
      <trkpt lat="47.69606" lon="2.027193">
        <ele>149</ele>
        <time>2022-01-20T08:07:35Z</time>
      </trkpt>
      <trkpt lat="47.696053" lon="2.027209">
        <ele>149</ele>
        <time>2022-01-20T08:07:36Z</time>
      </trkpt>
      <trkpt lat="47.696045" lon="2.0272212">
        <ele>149</ele>
        <time>2022-01-20T08:07:37Z</time>
      </trkpt>
      <trkpt lat="47.696033" lon="2.0272355">
        <ele>149</ele>
        <time>2022-01-20T08:07:38Z</time>
      </trkpt>
      <trkpt lat="47.69603" lon="2.0272515">
        <ele>149</ele>
        <time>2022-01-20T08:07:39Z</time>
      </trkpt>
      <trkpt lat="47.69602" lon="2.0272686">
        <ele>150</ele>
        <time>2022-01-20T08:07:40Z</time>
      </trkpt>
      <trkpt lat="47.69601" lon="2.0272853">
        <ele>150</ele>
        <time>2022-01-20T08:07:41Z</time>
      </trkpt>
      <trkpt lat="47.696003" lon="2.0273023">
        <ele>150</ele>
        <time>2022-01-20T08:07:42Z</time>
      </trkpt>
      <trkpt lat="47.695995" lon="2.0273175">
        <ele>150</ele>
        <time>2022-01-20T08:07:43Z</time>
      </trkpt>
      <trkpt lat="47.695988" lon="2.027331">
        <ele>150</ele>
        <time>2022-01-20T08:07:44Z</time>
      </trkpt>
      <trkpt lat="47.695976" lon="2.0273442">
        <ele>150</ele>
        <time>2022-01-20T08:07:45Z</time>
      </trkpt>
      <trkpt lat="47.695972" lon="2.0273545">
        <ele>150</ele>
        <time>2022-01-20T08:07:46Z</time>
      </trkpt>
      <trkpt lat="47.69597" lon="2.0273647">
        <ele>150</ele>
        <time>2022-01-20T08:07:47Z</time>
      </trkpt>
      <trkpt lat="47.695965" lon="2.0273778">
        <ele>150</ele>
        <time>2022-01-20T08:07:48Z</time>
      </trkpt>
      <trkpt lat="47.695957" lon="2.0273964">
        <ele>150</ele>
        <time>2022-01-20T08:07:49Z</time>
      </trkpt>
      <trkpt lat="47.69595" lon="2.0274086">
        <ele>151</ele>
        <time>2022-01-20T08:07:50Z</time>
      </trkpt>
      <trkpt lat="47.695942" lon="2.0274205">
        <ele>151</ele>
        <time>2022-01-20T08:07:51Z</time>
      </trkpt>
      <trkpt lat="47.69594" lon="2.0274332">
        <ele>151</ele>
        <time>2022-01-20T08:07:52Z</time>
      </trkpt>
      <trkpt lat="47.69593" lon="2.0274494">
        <ele>151</ele>
        <time>2022-01-20T08:07:53Z</time>
      </trkpt>
      <trkpt lat="47.695927" lon="2.0274684">
        <ele>150</ele>
        <time>2022-01-20T08:07:54Z</time>
      </trkpt>
      <trkpt lat="47.695923" lon="2.027486">
        <ele>150</ele>
        <time>2022-01-20T08:07:55Z</time>
      </trkpt>
      <trkpt lat="47.695915" lon="2.027505">
        <ele>150</ele>
        <time>2022-01-20T08:07:56Z</time>
      </trkpt>
      <trkpt lat="47.695908" lon="2.0275216">
        <ele>150</ele>
        <time>2022-01-20T08:07:57Z</time>
      </trkpt>
      <trkpt lat="47.695896" lon="2.0275397">
        <ele>150</ele>
        <time>2022-01-20T08:07:58Z</time>
      </trkpt>
      <trkpt lat="47.695892" lon="2.0275586">
        <ele>150</ele>
        <time>2022-01-20T08:07:59Z</time>
      </trkpt>
      <trkpt lat="47.69589" lon="2.0275722">
        <ele>150</ele>
        <time>2022-01-20T08:08:00Z</time>
      </trkpt>
      <trkpt lat="47.69588" lon="2.0275843">
        <ele>150</ele>
        <time>2022-01-20T08:08:01Z</time>
      </trkpt>
      <trkpt lat="47.695873" lon="2.0275977">
        <ele>150</ele>
        <time>2022-01-20T08:08:02Z</time>
      </trkpt>
      <trkpt lat="47.695866" lon="2.027611">
        <ele>149</ele>
        <time>2022-01-20T08:08:03Z</time>
      </trkpt>
      <trkpt lat="47.695858" lon="2.027624">
        <ele>149</ele>
        <time>2022-01-20T08:08:04Z</time>
      </trkpt>
      <trkpt lat="47.69585" lon="2.0276387">
        <ele>149</ele>
        <time>2022-01-20T08:08:05Z</time>
      </trkpt>
      <trkpt lat="47.695847" lon="2.0276551">
        <ele>149</ele>
        <time>2022-01-20T08:08:06Z</time>
      </trkpt>
      <trkpt lat="47.695843" lon="2.0276723">
        <ele>149</ele>
        <time>2022-01-20T08:08:07Z</time>
      </trkpt>
      <trkpt lat="47.695835" lon="2.0276859">
        <ele>148</ele>
        <time>2022-01-20T08:08:08Z</time>
      </trkpt>
      <trkpt lat="47.695827" lon="2.027699">
        <ele>148</ele>
        <time>2022-01-20T08:08:09Z</time>
      </trkpt>
      <trkpt lat="47.695824" lon="2.0277107">
        <ele>148</ele>
        <time>2022-01-20T08:08:10Z</time>
      </trkpt>
      <trkpt lat="47.695816" lon="2.0277267">
        <ele>148</ele>
        <time>2022-01-20T08:08:11Z</time>
      </trkpt>
      <trkpt lat="47.695812" lon="2.0277474">
        <ele>148</ele>
        <time>2022-01-20T08:08:12Z</time>
      </trkpt>
      <trkpt lat="47.695812" lon="2.027771">
        <ele>148</ele>
        <time>2022-01-20T08:08:13Z</time>
      </trkpt>
      <trkpt lat="47.69581" lon="2.027791">
        <ele>148</ele>
        <time>2022-01-20T08:08:14Z</time>
      </trkpt>
      <trkpt lat="47.6958" lon="2.0278044">
        <ele>148</ele>
        <time>2022-01-20T08:08:15Z</time>
      </trkpt>
      <trkpt lat="47.695797" lon="2.0278208">
        <ele>148</ele>
        <time>2022-01-20T08:08:16Z</time>
      </trkpt>
      <trkpt lat="47.695793" lon="2.0278316">
        <ele>147</ele>
        <time>2022-01-20T08:08:17Z</time>
      </trkpt>
      <trkpt lat="47.69579" lon="2.027845">
        <ele>148</ele>
        <time>2022-01-20T08:08:18Z</time>
      </trkpt>
      <trkpt lat="47.695786" lon="2.0278585">
        <ele>148</ele>
        <time>2022-01-20T08:08:19Z</time>
      </trkpt>
      <trkpt lat="47.69578" lon="2.0278728">
        <ele>148</ele>
        <time>2022-01-20T08:08:20Z</time>
      </trkpt>
      <trkpt lat="47.695774" lon="2.0278869">
        <ele>148</ele>
        <time>2022-01-20T08:08:21Z</time>
      </trkpt>
      <trkpt lat="47.69577" lon="2.0279033">
        <ele>148</ele>
        <time>2022-01-20T08:08:22Z</time>
      </trkpt>
      <trkpt lat="47.695766" lon="2.0279198">
        <ele>147</ele>
        <time>2022-01-20T08:08:23Z</time>
      </trkpt>
      <trkpt lat="47.695763" lon="2.0279372">
        <ele>147</ele>
        <time>2022-01-20T08:08:24Z</time>
      </trkpt>
      <trkpt lat="47.695763" lon="2.0279531">
        <ele>148</ele>
        <time>2022-01-20T08:08:25Z</time>
      </trkpt>
      <trkpt lat="47.69576" lon="2.027971">
        <ele>148</ele>
        <time>2022-01-20T08:08:26Z</time>
      </trkpt>
      <trkpt lat="47.69575" lon="2.0279827">
        <ele>148</ele>
        <time>2022-01-20T08:08:27Z</time>
      </trkpt>
      <trkpt lat="47.695744" lon="2.027996">
        <ele>148</ele>
        <time>2022-01-20T08:08:28Z</time>
      </trkpt>
      <trkpt lat="47.69574" lon="2.0280092">
        <ele>147</ele>
        <time>2022-01-20T08:08:29Z</time>
      </trkpt>
      <trkpt lat="47.695736" lon="2.028025">
        <ele>147</ele>
        <time>2022-01-20T08:08:30Z</time>
      </trkpt>
      <trkpt lat="47.695732" lon="2.0280395">
        <ele>148</ele>
        <time>2022-01-20T08:08:31Z</time>
      </trkpt>
      <trkpt lat="47.695724" lon="2.028058">
        <ele>147</ele>
        <time>2022-01-20T08:08:32Z</time>
      </trkpt>
      <trkpt lat="47.695717" lon="2.0280774">
        <ele>147</ele>
        <time>2022-01-20T08:08:33Z</time>
      </trkpt>
      <trkpt lat="47.69571" lon="2.0280907">
        <ele>147</ele>
        <time>2022-01-20T08:08:34Z</time>
      </trkpt>
      <trkpt lat="47.695705" lon="2.0281024">
        <ele>147</ele>
        <time>2022-01-20T08:08:35Z</time>
      </trkpt>
      <trkpt lat="47.695698" lon="2.0281122">
        <ele>147</ele>
        <time>2022-01-20T08:08:36Z</time>
      </trkpt>
      <trkpt lat="47.69569" lon="2.028128">
        <ele>147</ele>
        <time>2022-01-20T08:08:37Z</time>
      </trkpt>
      <trkpt lat="47.695686" lon="2.0281467">
        <ele>147</ele>
        <time>2022-01-20T08:08:38Z</time>
      </trkpt>
      <trkpt lat="47.69568" lon="2.0281627">
        <ele>147</ele>
        <time>2022-01-20T08:08:39Z</time>
      </trkpt>
      <trkpt lat="47.695675" lon="2.0281773">
        <ele>148</ele>
        <time>2022-01-20T08:08:40Z</time>
      </trkpt>
      <trkpt lat="47.695667" lon="2.0281897">
        <ele>148</ele>
        <time>2022-01-20T08:08:41Z</time>
      </trkpt>
      <trkpt lat="47.69566" lon="2.0282013">
        <ele>149</ele>
        <time>2022-01-20T08:08:42Z</time>
      </trkpt>
      <trkpt lat="47.695652" lon="2.0282125">
        <ele>149</ele>
        <time>2022-01-20T08:08:43Z</time>
      </trkpt>
      <trkpt lat="47.695644" lon="2.0282226">
        <ele>149</ele>
        <time>2022-01-20T08:08:44Z</time>
      </trkpt>
      <trkpt lat="47.695637" lon="2.0282362">
        <ele>149</ele>
        <time>2022-01-20T08:08:45Z</time>
      </trkpt>
      <trkpt lat="47.695633" lon="2.028251">
        <ele>149</ele>
        <time>2022-01-20T08:08:46Z</time>
      </trkpt>
      <trkpt lat="47.695625" lon="2.0282636">
        <ele>150</ele>
        <time>2022-01-20T08:08:47Z</time>
      </trkpt>
      <trkpt lat="47.69562" lon="2.0282776">
        <ele>150</ele>
        <time>2022-01-20T08:08:48Z</time>
      </trkpt>
      <trkpt lat="47.695614" lon="2.0282946">
        <ele>150</ele>
        <time>2022-01-20T08:08:49Z</time>
      </trkpt>
      <trkpt lat="47.695606" lon="2.02831">
        <ele>150</ele>
        <time>2022-01-20T08:08:50Z</time>
      </trkpt>
      <trkpt lat="47.6956" lon="2.0283253">
        <ele>149</ele>
        <time>2022-01-20T08:08:51Z</time>
      </trkpt>
      <trkpt lat="47.695595" lon="2.0283406">
        <ele>149</ele>
        <time>2022-01-20T08:08:52Z</time>
      </trkpt>
      <trkpt lat="47.69559" lon="2.0283537">
        <ele>149</ele>
        <time>2022-01-20T08:08:53Z</time>
      </trkpt>
      <trkpt lat="47.695587" lon="2.0283647">
        <ele>149</ele>
        <time>2022-01-20T08:08:54Z</time>
      </trkpt>
      <trkpt lat="47.695587" lon="2.028376">
        <ele>148</ele>
        <time>2022-01-20T08:08:55Z</time>
      </trkpt>
      <trkpt lat="47.695587" lon="2.0283878">
        <ele>148</ele>
        <time>2022-01-20T08:08:56Z</time>
      </trkpt>
      <trkpt lat="47.69558" lon="2.028399">
        <ele>148</ele>
        <time>2022-01-20T08:08:57Z</time>
      </trkpt>
      <trkpt lat="47.695576" lon="2.0284114">
        <ele>148</ele>
        <time>2022-01-20T08:08:58Z</time>
      </trkpt>
      <trkpt lat="47.695568" lon="2.028425">
        <ele>148</ele>
        <time>2022-01-20T08:08:59Z</time>
      </trkpt>
      <trkpt lat="47.69556" lon="2.0284379">
        <ele>149</ele>
        <time>2022-01-20T08:09:00Z</time>
      </trkpt>
      <trkpt lat="47.695553" lon="2.0284503">
        <ele>149</ele>
        <time>2022-01-20T08:09:01Z</time>
      </trkpt>
      <trkpt lat="47.69555" lon="2.028461">
        <ele>149</ele>
        <time>2022-01-20T08:09:02Z</time>
      </trkpt>
      <trkpt lat="47.695545" lon="2.0284736">
        <ele>148</ele>
        <time>2022-01-20T08:09:03Z</time>
      </trkpt>
      <trkpt lat="47.69554" lon="2.0284827">
        <ele>148</ele>
        <time>2022-01-20T08:09:04Z</time>
      </trkpt>
      <trkpt lat="47.695538" lon="2.0284927">
        <ele>148</ele>
        <time>2022-01-20T08:09:05Z</time>
      </trkpt>
      <trkpt lat="47.69553" lon="2.0285017">
        <ele>148</ele>
        <time>2022-01-20T08:09:06Z</time>
      </trkpt>
      <trkpt lat="47.695522" lon="2.0285122">
        <ele>148</ele>
        <time>2022-01-20T08:09:07Z</time>
      </trkpt>
      <trkpt lat="47.695515" lon="2.028526">
        <ele>148</ele>
        <time>2022-01-20T08:09:08Z</time>
      </trkpt>
      <trkpt lat="47.69551" lon="2.0285368">
        <ele>148</ele>
        <time>2022-01-20T08:09:09Z</time>
      </trkpt>
      <trkpt lat="47.695507" lon="2.0285518">
        <ele>148</ele>
        <time>2022-01-20T08:09:10Z</time>
      </trkpt>
      <trkpt lat="47.695503" lon="2.0285666">
        <ele>148</ele>
        <time>2022-01-20T08:09:11Z</time>
      </trkpt>
      <trkpt lat="47.6955" lon="2.0285792">
        <ele>148</ele>
        <time>2022-01-20T08:09:12Z</time>
      </trkpt>
      <trkpt lat="47.69549" lon="2.0285907">
        <ele>148</ele>
        <time>2022-01-20T08:09:13Z</time>
      </trkpt>
      <trkpt lat="47.695484" lon="2.0286005">
        <ele>148</ele>
        <time>2022-01-20T08:09:14Z</time>
      </trkpt>
      <trkpt lat="47.69548" lon="2.0286157">
        <ele>148</ele>
        <time>2022-01-20T08:09:15Z</time>
      </trkpt>
      <trkpt lat="47.695477" lon="2.0286272">
        <ele>147</ele>
        <time>2022-01-20T08:09:16Z</time>
      </trkpt>
      <trkpt lat="47.695473" lon="2.0286365">
        <ele>147</ele>
        <time>2022-01-20T08:09:17Z</time>
      </trkpt>
      <trkpt lat="47.695465" lon="2.028645">
        <ele>147</ele>
        <time>2022-01-20T08:09:18Z</time>
      </trkpt>
      <trkpt lat="47.69546" lon="2.0286548">
        <ele>147</ele>
        <time>2022-01-20T08:09:19Z</time>
      </trkpt>
      <trkpt lat="47.695457" lon="2.028668">
        <ele>147</ele>
        <time>2022-01-20T08:09:20Z</time>
      </trkpt>
      <trkpt lat="47.695446" lon="2.0286808">
        <ele>147</ele>
        <time>2022-01-20T08:09:21Z</time>
      </trkpt>
      <trkpt lat="47.695442" lon="2.0286975">
        <ele>146</ele>
        <time>2022-01-20T08:09:22Z</time>
      </trkpt>
      <trkpt lat="47.695435" lon="2.0287075">
        <ele>146</ele>
        <time>2022-01-20T08:09:23Z</time>
      </trkpt>
      <trkpt lat="47.695423" lon="2.0287232">
        <ele>146</ele>
        <time>2022-01-20T08:09:24Z</time>
      </trkpt>
      <trkpt lat="47.69541" lon="2.0287397">
        <ele>146</ele>
        <time>2022-01-20T08:09:25Z</time>
      </trkpt>
      <trkpt lat="47.695404" lon="2.0287483">
        <ele>146</ele>
        <time>2022-01-20T08:09:26Z</time>
      </trkpt>
      <trkpt lat="47.695396" lon="2.0287595">
        <ele>146</ele>
        <time>2022-01-20T08:09:27Z</time>
      </trkpt>
      <trkpt lat="47.69539" lon="2.0287704">
        <ele>146</ele>
        <time>2022-01-20T08:09:28Z</time>
      </trkpt>
      <trkpt lat="47.695374" lon="2.028782">
        <ele>146</ele>
        <time>2022-01-20T08:09:29Z</time>
      </trkpt>
      <trkpt lat="47.69537" lon="2.028796">
        <ele>146</ele>
        <time>2022-01-20T08:09:30Z</time>
      </trkpt>
      <trkpt lat="47.69536" lon="2.0288093">
        <ele>146</ele>
        <time>2022-01-20T08:09:31Z</time>
      </trkpt>
      <trkpt lat="47.69535" lon="2.0288196">
        <ele>146</ele>
        <time>2022-01-20T08:09:32Z</time>
      </trkpt>
      <trkpt lat="47.695343" lon="2.0288308">
        <ele>146</ele>
        <time>2022-01-20T08:09:33Z</time>
      </trkpt>
      <trkpt lat="47.69533" lon="2.028843">
        <ele>147</ele>
        <time>2022-01-20T08:09:34Z</time>
      </trkpt>
      <trkpt lat="47.69532" lon="2.028855">
        <ele>147</ele>
        <time>2022-01-20T08:09:35Z</time>
      </trkpt>
      <trkpt lat="47.695316" lon="2.0288644">
        <ele>147</ele>
        <time>2022-01-20T08:09:36Z</time>
      </trkpt>
      <trkpt lat="47.69531" lon="2.0288758">
        <ele>147</ele>
        <time>2022-01-20T08:09:37Z</time>
      </trkpt>
      <trkpt lat="47.6953" lon="2.0288928">
        <ele>146</ele>
        <time>2022-01-20T08:09:38Z</time>
      </trkpt>
      <trkpt lat="47.695293" lon="2.0289032">
        <ele>146</ele>
        <time>2022-01-20T08:09:39Z</time>
      </trkpt>
      <trkpt lat="47.695282" lon="2.028915">
        <ele>146</ele>
        <time>2022-01-20T08:09:40Z</time>
      </trkpt>
      <trkpt lat="47.69527" lon="2.028925">
        <ele>147</ele>
        <time>2022-01-20T08:09:41Z</time>
      </trkpt>
      <trkpt lat="47.695263" lon="2.0289366">
        <ele>147</ele>
        <time>2022-01-20T08:09:42Z</time>
      </trkpt>
      <trkpt lat="47.69526" lon="2.0289469">
        <ele>147</ele>
        <time>2022-01-20T08:09:43Z</time>
      </trkpt>
      <trkpt lat="47.69525" lon="2.0289533">
        <ele>147</ele>
        <time>2022-01-20T08:09:44Z</time>
      </trkpt>
      <trkpt lat="47.695244" lon="2.0289595">
        <ele>147</ele>
        <time>2022-01-20T08:09:45Z</time>
      </trkpt>
      <trkpt lat="47.695236" lon="2.0289698">
        <ele>146</ele>
        <time>2022-01-20T08:09:46Z</time>
      </trkpt>
      <trkpt lat="47.69523" lon="2.0289805">
        <ele>147</ele>
        <time>2022-01-20T08:09:47Z</time>
      </trkpt>
      <trkpt lat="47.69522" lon="2.0289917">
        <ele>147</ele>
        <time>2022-01-20T08:09:48Z</time>
      </trkpt>
      <trkpt lat="47.695213" lon="2.0290017">
        <ele>147</ele>
        <time>2022-01-20T08:09:49Z</time>
      </trkpt>
      <trkpt lat="47.695206" lon="2.0290132">
        <ele>148</ele>
        <time>2022-01-20T08:09:50Z</time>
      </trkpt>
      <trkpt lat="47.695194" lon="2.0290232">
        <ele>148</ele>
        <time>2022-01-20T08:09:51Z</time>
      </trkpt>
      <trkpt lat="47.695183" lon="2.029033">
        <ele>148</ele>
        <time>2022-01-20T08:09:52Z</time>
      </trkpt>
      <trkpt lat="47.695175" lon="2.0290427">
        <ele>148</ele>
        <time>2022-01-20T08:09:53Z</time>
      </trkpt>
      <trkpt lat="47.69517" lon="2.0290596">
        <ele>148</ele>
        <time>2022-01-20T08:09:54Z</time>
      </trkpt>
      <trkpt lat="47.695164" lon="2.0290735">
        <ele>148</ele>
        <time>2022-01-20T08:09:55Z</time>
      </trkpt>
      <trkpt lat="47.69516" lon="2.029083">
        <ele>148</ele>
        <time>2022-01-20T08:09:56Z</time>
      </trkpt>
      <trkpt lat="47.695152" lon="2.0290947">
        <ele>148</ele>
        <time>2022-01-20T08:09:57Z</time>
      </trkpt>
      <trkpt lat="47.69515" lon="2.0291061">
        <ele>148</ele>
        <time>2022-01-20T08:09:58Z</time>
      </trkpt>
      <trkpt lat="47.695145" lon="2.0291164">
        <ele>148</ele>
        <time>2022-01-20T08:09:59Z</time>
      </trkpt>
      <trkpt lat="47.695145" lon="2.0291164">
        <ele>148</ele>
        <time>2022-01-20T08:10:00Z</time>
      </trkpt>
      <trkpt lat="47.69513" lon="2.0291286">
        <ele>148</ele>
        <time>2022-01-20T08:10:01Z</time>
      </trkpt>
      <trkpt lat="47.695118" lon="2.0291374">
        <ele>147</ele>
        <time>2022-01-20T08:10:02Z</time>
      </trkpt>
      <trkpt lat="47.695107" lon="2.029146">
        <ele>147</ele>
        <time>2022-01-20T08:10:03Z</time>
      </trkpt>
      <trkpt lat="47.695103" lon="2.0291567">
        <ele>147</ele>
        <time>2022-01-20T08:10:04Z</time>
      </trkpt>
      <trkpt lat="47.6951" lon="2.029165">
        <ele>147</ele>
        <time>2022-01-20T08:10:05Z</time>
      </trkpt>
      <trkpt lat="47.695095" lon="2.0291727">
        <ele>147</ele>
        <time>2022-01-20T08:10:06Z</time>
      </trkpt>
      <trkpt lat="47.695087" lon="2.0291781">
        <ele>147</ele>
        <time>2022-01-20T08:10:07Z</time>
      </trkpt>
      <trkpt lat="47.69508" lon="2.029181">
        <ele>148</ele>
        <time>2022-01-20T08:10:08Z</time>
      </trkpt>
      <trkpt lat="47.69508" lon="2.029181">
        <ele>148</ele>
        <time>2022-01-20T08:10:09Z</time>
      </trkpt>
      <trkpt lat="47.69508" lon="2.029181">
        <ele>148</ele>
        <time>2022-01-20T08:10:10Z</time>
      </trkpt>
      <trkpt lat="47.695065" lon="2.0292053">
        <ele>148</ele>
        <time>2022-01-20T08:10:11Z</time>
      </trkpt>
      <trkpt lat="47.695057" lon="2.0292125">
        <ele>147</ele>
        <time>2022-01-20T08:10:12Z</time>
      </trkpt>
      <trkpt lat="47.69505" lon="2.0292244">
        <ele>147</ele>
        <time>2022-01-20T08:10:13Z</time>
      </trkpt>
      <trkpt lat="47.695045" lon="2.029237">
        <ele>147</ele>
        <time>2022-01-20T08:10:14Z</time>
      </trkpt>
      <trkpt lat="47.695038" lon="2.0292454">
        <ele>147</ele>
        <time>2022-01-20T08:10:15Z</time>
      </trkpt>
      <trkpt lat="47.69503" lon="2.029252">
        <ele>147</ele>
        <time>2022-01-20T08:10:16Z</time>
      </trkpt>
      <trkpt lat="47.69502" lon="2.0292609">
        <ele>148</ele>
        <time>2022-01-20T08:10:17Z</time>
      </trkpt>
      <trkpt lat="47.69502" lon="2.0292609">
        <ele>148</ele>
        <time>2022-01-20T08:10:18Z</time>
      </trkpt>
      <trkpt lat="47.695007" lon="2.0292854">
        <ele>148</ele>
        <time>2022-01-20T08:10:19Z</time>
      </trkpt>
      <trkpt lat="47.694996" lon="2.0293007">
        <ele>148</ele>
        <time>2022-01-20T08:10:20Z</time>
      </trkpt>
      <trkpt lat="47.69498" lon="2.029315">
        <ele>147</ele>
        <time>2022-01-20T08:10:21Z</time>
      </trkpt>
      <trkpt lat="47.694973" lon="2.0293183">
        <ele>146</ele>
        <time>2022-01-20T08:10:22Z</time>
      </trkpt>
      <trkpt lat="47.694965" lon="2.029324">
        <ele>146</ele>
        <time>2022-01-20T08:10:23Z</time>
      </trkpt>
      <trkpt lat="47.69495" lon="2.0293338">
        <ele>145</ele>
        <time>2022-01-20T08:10:24Z</time>
      </trkpt>
      <trkpt lat="47.694942" lon="2.0293431">
        <ele>145</ele>
        <time>2022-01-20T08:10:25Z</time>
      </trkpt>
      <trkpt lat="47.694927" lon="2.029356">
        <ele>144</ele>
        <time>2022-01-20T08:10:26Z</time>
      </trkpt>
      <trkpt lat="47.694916" lon="2.0293612">
        <ele>144</ele>
        <time>2022-01-20T08:10:27Z</time>
      </trkpt>
      <trkpt lat="47.694904" lon="2.0293698">
        <ele>144</ele>
        <time>2022-01-20T08:10:28Z</time>
      </trkpt>
      <trkpt lat="47.694897" lon="2.02938">
        <ele>144</ele>
        <time>2022-01-20T08:10:29Z</time>
      </trkpt>
      <trkpt lat="47.69489" lon="2.0293913">
        <ele>144</ele>
        <time>2022-01-20T08:10:30Z</time>
      </trkpt>
      <trkpt lat="47.694885" lon="2.029405">
        <ele>144</ele>
        <time>2022-01-20T08:10:31Z</time>
      </trkpt>
      <trkpt lat="47.694878" lon="2.0294194">
        <ele>144</ele>
        <time>2022-01-20T08:10:32Z</time>
      </trkpt>
      <trkpt lat="47.69487" lon="2.029433">
        <ele>144</ele>
        <time>2022-01-20T08:10:33Z</time>
      </trkpt>
      <trkpt lat="47.69486" lon="2.029451">
        <ele>144</ele>
        <time>2022-01-20T08:10:34Z</time>
      </trkpt>
      <trkpt lat="47.69485" lon="2.029468">
        <ele>143</ele>
        <time>2022-01-20T08:10:35Z</time>
      </trkpt>
      <trkpt lat="47.69484" lon="2.0294852">
        <ele>143</ele>
        <time>2022-01-20T08:10:36Z</time>
      </trkpt>
      <trkpt lat="47.694828" lon="2.029499">
        <ele>143</ele>
        <time>2022-01-20T08:10:37Z</time>
      </trkpt>
      <trkpt lat="47.694817" lon="2.0295076">
        <ele>143</ele>
        <time>2022-01-20T08:10:38Z</time>
      </trkpt>
      <trkpt lat="47.69481" lon="2.0295215">
        <ele>143</ele>
        <time>2022-01-20T08:10:39Z</time>
      </trkpt>
      <trkpt lat="47.6948" lon="2.029533">
        <ele>143</ele>
        <time>2022-01-20T08:10:40Z</time>
      </trkpt>
      <trkpt lat="47.694794" lon="2.0295496">
        <ele>143</ele>
        <time>2022-01-20T08:10:41Z</time>
      </trkpt>
      <trkpt lat="47.694786" lon="2.029561">
        <ele>143</ele>
        <time>2022-01-20T08:10:42Z</time>
      </trkpt>
      <trkpt lat="47.69478" lon="2.0295703">
        <ele>143</ele>
        <time>2022-01-20T08:10:43Z</time>
      </trkpt>
      <trkpt lat="47.694767" lon="2.0295835">
        <ele>143</ele>
        <time>2022-01-20T08:10:44Z</time>
      </trkpt>
      <trkpt lat="47.694756" lon="2.0295968">
        <ele>143</ele>
        <time>2022-01-20T08:10:45Z</time>
      </trkpt>
      <trkpt lat="47.694744" lon="2.0296106">
        <ele>143</ele>
        <time>2022-01-20T08:10:46Z</time>
      </trkpt>
      <trkpt lat="47.694736" lon="2.029624">
        <ele>143</ele>
        <time>2022-01-20T08:10:47Z</time>
      </trkpt>
      <trkpt lat="47.694725" lon="2.029639">
        <ele>142</ele>
        <time>2022-01-20T08:10:48Z</time>
      </trkpt>
      <trkpt lat="47.694714" lon="2.029657">
        <ele>142</ele>
        <time>2022-01-20T08:10:49Z</time>
      </trkpt>
      <trkpt lat="47.69471" lon="2.0296705">
        <ele>142</ele>
        <time>2022-01-20T08:10:50Z</time>
      </trkpt>
      <trkpt lat="47.694706" lon="2.0296867">
        <ele>141</ele>
        <time>2022-01-20T08:10:51Z</time>
      </trkpt>
      <trkpt lat="47.694695" lon="2.029702">
        <ele>141</ele>
        <time>2022-01-20T08:10:52Z</time>
      </trkpt>
      <trkpt lat="47.694687" lon="2.0297143">
        <ele>141</ele>
        <time>2022-01-20T08:10:53Z</time>
      </trkpt>
      <trkpt lat="47.694675" lon="2.0297232">
        <ele>141</ele>
        <time>2022-01-20T08:10:54Z</time>
      </trkpt>
      <trkpt lat="47.694664" lon="2.0297315">
        <ele>141</ele>
        <time>2022-01-20T08:10:55Z</time>
      </trkpt>
      <trkpt lat="47.69465" lon="2.0297403">
        <ele>141</ele>
        <time>2022-01-20T08:10:56Z</time>
      </trkpt>
      <trkpt lat="47.69464" lon="2.0297492">
        <ele>141</ele>
        <time>2022-01-20T08:10:57Z</time>
      </trkpt>
      <trkpt lat="47.694633" lon="2.0297573">
        <ele>141</ele>
        <time>2022-01-20T08:10:58Z</time>
      </trkpt>
      <trkpt lat="47.694626" lon="2.0297687">
        <ele>141</ele>
        <time>2022-01-20T08:10:59Z</time>
      </trkpt>
      <trkpt lat="47.69462" lon="2.0297813">
        <ele>142</ele>
        <time>2022-01-20T08:11:00Z</time>
      </trkpt>
      <trkpt lat="47.69461" lon="2.0297964">
        <ele>142</ele>
        <time>2022-01-20T08:11:01Z</time>
      </trkpt>
      <trkpt lat="47.6946" lon="2.0298107">
        <ele>142</ele>
        <time>2022-01-20T08:11:02Z</time>
      </trkpt>
      <trkpt lat="47.69459" lon="2.0298197">
        <ele>142</ele>
        <time>2022-01-20T08:11:03Z</time>
      </trkpt>
      <trkpt lat="47.694588" lon="2.0298302">
        <ele>142</ele>
        <time>2022-01-20T08:11:04Z</time>
      </trkpt>
      <trkpt lat="47.69458" lon="2.0298388">
        <ele>142</ele>
        <time>2022-01-20T08:11:05Z</time>
      </trkpt>
      <trkpt lat="47.694572" lon="2.0298445">
        <ele>141</ele>
        <time>2022-01-20T08:11:06Z</time>
      </trkpt>
      <trkpt lat="47.694565" lon="2.0298514">
        <ele>141</ele>
        <time>2022-01-20T08:11:07Z</time>
      </trkpt>
      <trkpt lat="47.694557" lon="2.0298576">
        <ele>141</ele>
        <time>2022-01-20T08:11:08Z</time>
      </trkpt>
      <trkpt lat="47.694553" lon="2.0298662">
        <ele>142</ele>
        <time>2022-01-20T08:11:09Z</time>
      </trkpt>
      <trkpt lat="47.694546" lon="2.02988">
        <ele>142</ele>
        <time>2022-01-20T08:11:10Z</time>
      </trkpt>
      <trkpt lat="47.694534" lon="2.0298877">
        <ele>142</ele>
        <time>2022-01-20T08:11:11Z</time>
      </trkpt>
      <trkpt lat="47.694523" lon="2.0298975">
        <ele>143</ele>
        <time>2022-01-20T08:11:12Z</time>
      </trkpt>
      <trkpt lat="47.694515" lon="2.0299022">
        <ele>143</ele>
        <time>2022-01-20T08:11:13Z</time>
      </trkpt>
      <trkpt lat="47.694508" lon="2.0299106">
        <ele>143</ele>
        <time>2022-01-20T08:11:14Z</time>
      </trkpt>
      <trkpt lat="47.694508" lon="2.029919">
        <ele>144</ele>
        <time>2022-01-20T08:11:15Z</time>
      </trkpt>
      <trkpt lat="47.694504" lon="2.0299277">
        <ele>144</ele>
        <time>2022-01-20T08:11:16Z</time>
      </trkpt>
      <trkpt lat="47.694496" lon="2.0299404">
        <ele>144</ele>
        <time>2022-01-20T08:11:17Z</time>
      </trkpt>
      <trkpt lat="47.69449" lon="2.0299487">
        <ele>144</ele>
        <time>2022-01-20T08:11:18Z</time>
      </trkpt>
      <trkpt lat="47.69448" lon="2.0299537">
        <ele>144</ele>
        <time>2022-01-20T08:11:19Z</time>
      </trkpt>
      <trkpt lat="47.694477" lon="2.029954">
        <ele>144</ele>
        <time>2022-01-20T08:11:20Z</time>
      </trkpt>
      <trkpt lat="47.694473" lon="2.0299575">
        <ele>143</ele>
        <time>2022-01-20T08:11:21Z</time>
      </trkpt>
      <trkpt lat="47.694466" lon="2.0299635">
        <ele>143</ele>
        <time>2022-01-20T08:11:22Z</time>
      </trkpt>
      <trkpt lat="47.694458" lon="2.029974">
        <ele>143</ele>
        <time>2022-01-20T08:11:23Z</time>
      </trkpt>
      <trkpt lat="47.694447" lon="2.0299814">
        <ele>143</ele>
        <time>2022-01-20T08:11:24Z</time>
      </trkpt>
      <trkpt lat="47.69444" lon="2.0299933">
        <ele>143</ele>
        <time>2022-01-20T08:11:25Z</time>
      </trkpt>
      <trkpt lat="47.69443" lon="2.0300055">
        <ele>143</ele>
        <time>2022-01-20T08:11:26Z</time>
      </trkpt>
      <trkpt lat="47.694424" lon="2.0300133">
        <ele>143</ele>
        <time>2022-01-20T08:11:27Z</time>
      </trkpt>
      <trkpt lat="47.694416" lon="2.0300236">
        <ele>143</ele>
        <time>2022-01-20T08:11:28Z</time>
      </trkpt>
      <trkpt lat="47.694405" lon="2.0300379">
        <ele>143</ele>
        <time>2022-01-20T08:11:29Z</time>
      </trkpt>
      <trkpt lat="47.694397" lon="2.0300589">
        <ele>143</ele>
        <time>2022-01-20T08:11:30Z</time>
      </trkpt>
      <trkpt lat="47.694386" lon="2.030078">
        <ele>143</ele>
        <time>2022-01-20T08:11:31Z</time>
      </trkpt>
      <trkpt lat="47.694378" lon="2.0300927">
        <ele>142</ele>
        <time>2022-01-20T08:11:32Z</time>
      </trkpt>
      <trkpt lat="47.694366" lon="2.0301077">
        <ele>141</ele>
        <time>2022-01-20T08:11:33Z</time>
      </trkpt>
      <trkpt lat="47.694355" lon="2.0301235">
        <ele>141</ele>
        <time>2022-01-20T08:11:34Z</time>
      </trkpt>
      <trkpt lat="47.694344" lon="2.0301428">
        <ele>141</ele>
        <time>2022-01-20T08:11:35Z</time>
      </trkpt>
      <trkpt lat="47.694332" lon="2.0301585">
        <ele>141</ele>
        <time>2022-01-20T08:11:36Z</time>
      </trkpt>
      <trkpt lat="47.69432" lon="2.030175">
        <ele>141</ele>
        <time>2022-01-20T08:11:37Z</time>
      </trkpt>
      <trkpt lat="47.69431" lon="2.030184">
        <ele>141</ele>
        <time>2022-01-20T08:11:38Z</time>
      </trkpt>
      <trkpt lat="47.694294" lon="2.0301957">
        <ele>141</ele>
        <time>2022-01-20T08:11:39Z</time>
      </trkpt>
      <trkpt lat="47.694283" lon="2.0302095">
        <ele>142</ele>
        <time>2022-01-20T08:11:40Z</time>
      </trkpt>
      <trkpt lat="47.69427" lon="2.0302207">
        <ele>142</ele>
        <time>2022-01-20T08:11:41Z</time>
      </trkpt>
      <trkpt lat="47.694267" lon="2.0302305">
        <ele>142</ele>
        <time>2022-01-20T08:11:42Z</time>
      </trkpt>
      <trkpt lat="47.694256" lon="2.0302377">
        <ele>142</ele>
        <time>2022-01-20T08:11:43Z</time>
      </trkpt>
      <trkpt lat="47.694244" lon="2.0302489">
        <ele>142</ele>
        <time>2022-01-20T08:11:44Z</time>
      </trkpt>
      <trkpt lat="47.694237" lon="2.0302582">
        <ele>142</ele>
        <time>2022-01-20T08:11:45Z</time>
      </trkpt>
      <trkpt lat="47.694225" lon="2.0302699">
        <ele>142</ele>
        <time>2022-01-20T08:11:46Z</time>
      </trkpt>
      <trkpt lat="47.694214" lon="2.0302877">
        <ele>142</ele>
        <time>2022-01-20T08:11:47Z</time>
      </trkpt>
      <trkpt lat="47.69421" lon="2.030302">
        <ele>142</ele>
        <time>2022-01-20T08:11:48Z</time>
      </trkpt>
      <trkpt lat="47.6942" lon="2.0303133">
        <ele>142</ele>
        <time>2022-01-20T08:11:49Z</time>
      </trkpt>
      <trkpt lat="47.69419" lon="2.0303257">
        <ele>142</ele>
        <time>2022-01-20T08:11:50Z</time>
      </trkpt>
      <trkpt lat="47.694183" lon="2.0303361">
        <ele>143</ele>
        <time>2022-01-20T08:11:51Z</time>
      </trkpt>
      <trkpt lat="47.694176" lon="2.0303483">
        <ele>143</ele>
        <time>2022-01-20T08:11:52Z</time>
      </trkpt>
      <trkpt lat="47.694164" lon="2.0303597">
        <ele>142</ele>
        <time>2022-01-20T08:11:53Z</time>
      </trkpt>
      <trkpt lat="47.694157" lon="2.030372">
        <ele>143</ele>
        <time>2022-01-20T08:11:54Z</time>
      </trkpt>
      <trkpt lat="47.694145" lon="2.0303853">
        <ele>143</ele>
        <time>2022-01-20T08:11:55Z</time>
      </trkpt>
      <trkpt lat="47.694138" lon="2.0303938">
        <ele>143</ele>
        <time>2022-01-20T08:11:56Z</time>
      </trkpt>
      <trkpt lat="47.69413" lon="2.0304072">
        <ele>142</ele>
        <time>2022-01-20T08:11:57Z</time>
      </trkpt>
      <trkpt lat="47.694122" lon="2.0304186">
        <ele>142</ele>
        <time>2022-01-20T08:11:58Z</time>
      </trkpt>
      <trkpt lat="47.69411" lon="2.0304337">
        <ele>142</ele>
        <time>2022-01-20T08:11:59Z</time>
      </trkpt>
      <trkpt lat="47.694107" lon="2.0304475">
        <ele>142</ele>
        <time>2022-01-20T08:12:00Z</time>
      </trkpt>
      <trkpt lat="47.694096" lon="2.03046">
        <ele>142</ele>
        <time>2022-01-20T08:12:01Z</time>
      </trkpt>
      <trkpt lat="47.694084" lon="2.0304673">
        <ele>142</ele>
        <time>2022-01-20T08:12:02Z</time>
      </trkpt>
      <trkpt lat="47.69408" lon="2.0304754">
        <ele>142</ele>
        <time>2022-01-20T08:12:03Z</time>
      </trkpt>
      <trkpt lat="47.694073" lon="2.030482">
        <ele>142</ele>
        <time>2022-01-20T08:12:04Z</time>
      </trkpt>
      <trkpt lat="47.69407" lon="2.0304906">
        <ele>142</ele>
        <time>2022-01-20T08:12:05Z</time>
      </trkpt>
      <trkpt lat="47.694065" lon="2.030504">
        <ele>142</ele>
        <time>2022-01-20T08:12:06Z</time>
      </trkpt>
      <trkpt lat="47.694057" lon="2.0305185">
        <ele>142</ele>
        <time>2022-01-20T08:12:07Z</time>
      </trkpt>
      <trkpt lat="47.694057" lon="2.030533">
        <ele>142</ele>
        <time>2022-01-20T08:12:08Z</time>
      </trkpt>
      <trkpt lat="47.694054" lon="2.030551">
        <ele>142</ele>
        <time>2022-01-20T08:12:09Z</time>
      </trkpt>
      <trkpt lat="47.69405" lon="2.0305667">
        <ele>143</ele>
        <time>2022-01-20T08:12:10Z</time>
      </trkpt>
      <trkpt lat="47.694042" lon="2.03058">
        <ele>142</ele>
        <time>2022-01-20T08:12:11Z</time>
      </trkpt>
      <trkpt lat="47.694035" lon="2.0305922">
        <ele>142</ele>
        <time>2022-01-20T08:12:12Z</time>
      </trkpt>
      <trkpt lat="47.69403" lon="2.0306025">
        <ele>142</ele>
        <time>2022-01-20T08:12:13Z</time>
      </trkpt>
      <trkpt lat="47.694027" lon="2.0306115">
        <ele>142</ele>
        <time>2022-01-20T08:12:14Z</time>
      </trkpt>
      <trkpt lat="47.694023" lon="2.030619">
        <ele>143</ele>
        <time>2022-01-20T08:12:15Z</time>
      </trkpt>
      <trkpt lat="47.69401" lon="2.0306294">
        <ele>143</ele>
        <time>2022-01-20T08:12:16Z</time>
      </trkpt>
      <trkpt lat="47.694" lon="2.030642">
        <ele>143</ele>
        <time>2022-01-20T08:12:17Z</time>
      </trkpt>
      <trkpt lat="47.693996" lon="2.0306582">
        <ele>143</ele>
        <time>2022-01-20T08:12:18Z</time>
      </trkpt>
      <trkpt lat="47.693985" lon="2.0306733">
        <ele>143</ele>
        <time>2022-01-20T08:12:19Z</time>
      </trkpt>
      <trkpt lat="47.693977" lon="2.0306914">
        <ele>143</ele>
        <time>2022-01-20T08:12:20Z</time>
      </trkpt>
      <trkpt lat="47.693966" lon="2.0307102">
        <ele>143</ele>
        <time>2022-01-20T08:12:21Z</time>
      </trkpt>
      <trkpt lat="47.693954" lon="2.0307274">
        <ele>143</ele>
        <time>2022-01-20T08:12:22Z</time>
      </trkpt>
      <trkpt lat="47.69394" lon="2.0307395">
        <ele>143</ele>
        <time>2022-01-20T08:12:23Z</time>
      </trkpt>
      <trkpt lat="47.69393" lon="2.0307465">
        <ele>143</ele>
        <time>2022-01-20T08:12:24Z</time>
      </trkpt>
      <trkpt lat="47.693924" lon="2.0307553">
        <ele>144</ele>
        <time>2022-01-20T08:12:25Z</time>
      </trkpt>
      <trkpt lat="47.693916" lon="2.0307634">
        <ele>145</ele>
        <time>2022-01-20T08:12:26Z</time>
      </trkpt>
      <trkpt lat="47.693905" lon="2.030766">
        <ele>145</ele>
        <time>2022-01-20T08:12:27Z</time>
      </trkpt>
      <trkpt lat="47.693897" lon="2.0307634">
        <ele>145</ele>
        <time>2022-01-20T08:12:28Z</time>
      </trkpt>
      <trkpt lat="47.693886" lon="2.0307643">
        <ele>145</ele>
        <time>2022-01-20T08:12:29Z</time>
      </trkpt>
      <trkpt lat="47.693874" lon="2.0307732">
        <ele>145</ele>
        <time>2022-01-20T08:12:30Z</time>
      </trkpt>
      <trkpt lat="47.69386" lon="2.0307813">
        <ele>145</ele>
        <time>2022-01-20T08:12:31Z</time>
      </trkpt>
      <trkpt lat="47.69385" lon="2.0307891">
        <ele>145</ele>
        <time>2022-01-20T08:12:32Z</time>
      </trkpt>
      <trkpt lat="47.69384" lon="2.030797">
        <ele>145</ele>
        <time>2022-01-20T08:12:33Z</time>
      </trkpt>
      <trkpt lat="47.693832" lon="2.0308073">
        <ele>145</ele>
        <time>2022-01-20T08:12:34Z</time>
      </trkpt>
      <trkpt lat="47.693832" lon="2.0308063">
        <ele>145</ele>
        <time>2022-01-20T08:12:35Z</time>
      </trkpt>
      <trkpt lat="47.693825" lon="2.0308118">
        <ele>145</ele>
        <time>2022-01-20T08:12:36Z</time>
      </trkpt>
      <trkpt lat="47.693813" lon="2.030819">
        <ele>146</ele>
        <time>2022-01-20T08:12:37Z</time>
      </trkpt>
      <trkpt lat="47.693806" lon="2.0308282">
        <ele>146</ele>
        <time>2022-01-20T08:12:38Z</time>
      </trkpt>
      <trkpt lat="47.693794" lon="2.0308404">
        <ele>146</ele>
        <time>2022-01-20T08:12:39Z</time>
      </trkpt>
      <trkpt lat="47.693783" lon="2.030851">
        <ele>147</ele>
        <time>2022-01-20T08:12:40Z</time>
      </trkpt>
      <trkpt lat="47.693775" lon="2.0308614">
        <ele>147</ele>
        <time>2022-01-20T08:12:41Z</time>
      </trkpt>
      <trkpt lat="47.693768" lon="2.030874">
        <ele>147</ele>
        <time>2022-01-20T08:12:42Z</time>
      </trkpt>
      <trkpt lat="47.69376" lon="2.0308886">
        <ele>147</ele>
        <time>2022-01-20T08:12:43Z</time>
      </trkpt>
      <trkpt lat="47.69375" lon="2.0309007">
        <ele>147</ele>
        <time>2022-01-20T08:12:45Z</time>
      </trkpt>
      <trkpt lat="47.693733" lon="2.0309098">
        <ele>146</ele>
        <time>2022-01-20T08:12:46Z</time>
      </trkpt>
      <trkpt lat="47.69373" lon="2.030921">
        <ele>146</ele>
        <time>2022-01-20T08:12:47Z</time>
      </trkpt>
      <trkpt lat="47.693726" lon="2.030931">
        <ele>146</ele>
        <time>2022-01-20T08:12:48Z</time>
      </trkpt>
      <trkpt lat="47.693718" lon="2.030943">
        <ele>146</ele>
        <time>2022-01-20T08:12:49Z</time>
      </trkpt>
      <trkpt lat="47.693707" lon="2.0309556">
        <ele>146</ele>
        <time>2022-01-20T08:12:50Z</time>
      </trkpt>
      <trkpt lat="47.693707" lon="2.0309627">
        <ele>146</ele>
        <time>2022-01-20T08:12:51Z</time>
      </trkpt>
      <trkpt lat="47.6937" lon="2.030971">
        <ele>147</ele>
        <time>2022-01-20T08:12:52Z</time>
      </trkpt>
      <trkpt lat="47.69369" lon="2.030978">
        <ele>148</ele>
        <time>2022-01-20T08:12:53Z</time>
      </trkpt>
      <trkpt lat="47.693684" lon="2.0309868">
        <ele>148</ele>
        <time>2022-01-20T08:12:54Z</time>
      </trkpt>
      <trkpt lat="47.69368" lon="2.0310004">
        <ele>148</ele>
        <time>2022-01-20T08:12:55Z</time>
      </trkpt>
      <trkpt lat="47.693672" lon="2.0310125">
        <ele>148</ele>
        <time>2022-01-20T08:12:56Z</time>
      </trkpt>
      <trkpt lat="47.693672" lon="2.031023">
        <ele>147</ele>
        <time>2022-01-20T08:12:57Z</time>
      </trkpt>
      <trkpt lat="47.693665" lon="2.031034">
        <ele>148</ele>
        <time>2022-01-20T08:12:58Z</time>
      </trkpt>
      <trkpt lat="47.693657" lon="2.0310388">
        <ele>148</ele>
        <time>2022-01-20T08:12:59Z</time>
      </trkpt>
      <trkpt lat="47.69365" lon="2.0310438">
        <ele>148</ele>
        <time>2022-01-20T08:13:00Z</time>
      </trkpt>
      <trkpt lat="47.69364" lon="2.0310504">
        <ele>148</ele>
        <time>2022-01-20T08:13:01Z</time>
      </trkpt>
      <trkpt lat="47.69363" lon="2.0310664">
        <ele>148</ele>
        <time>2022-01-20T08:13:02Z</time>
      </trkpt>
      <trkpt lat="47.69363" lon="2.0310664">
        <ele>148</ele>
        <time>2022-01-20T08:13:02Z</time>
      </trkpt>
      <trkpt lat="47.69362" lon="2.0310798">
        <ele>148</ele>
        <time>2022-01-20T08:13:04Z</time>
      </trkpt>
      <trkpt lat="47.6936" lon="2.0310936">
        <ele>148</ele>
        <time>2022-01-20T08:13:05Z</time>
      </trkpt>
      <trkpt lat="47.69359" lon="2.031103">
        <ele>148</ele>
        <time>2022-01-20T08:13:06Z</time>
      </trkpt>
      <trkpt lat="47.693577" lon="2.0311143">
        <ele>148</ele>
        <time>2022-01-20T08:13:07Z</time>
      </trkpt>
      <trkpt lat="47.69357" lon="2.0311189">
        <ele>148</ele>
        <time>2022-01-20T08:13:08Z</time>
      </trkpt>
      <trkpt lat="47.693554" lon="2.0311255">
        <ele>148</ele>
        <time>2022-01-20T08:13:09Z</time>
      </trkpt>
      <trkpt lat="47.693535" lon="2.0311425">
        <ele>148</ele>
        <time>2022-01-20T08:13:10Z</time>
      </trkpt>
      <trkpt lat="47.693535" lon="2.0311425">
        <ele>148</ele>
        <time>2022-01-20T08:13:10Z</time>
      </trkpt>
      <trkpt lat="47.693535" lon="2.0311425">
        <ele>148</ele>
        <time>2022-01-20T08:13:12Z</time>
      </trkpt>
      <trkpt lat="47.693535" lon="2.0311425">
        <ele>148</ele>
        <time>2022-01-20T08:13:12Z</time>
      </trkpt>
      <trkpt lat="47.693516" lon="2.0311663">
        <ele>148</ele>
        <time>2022-01-20T08:13:14Z</time>
      </trkpt>
      <trkpt lat="47.693512" lon="2.0311809">
        <ele>147</ele>
        <time>2022-01-20T08:13:15Z</time>
      </trkpt>
      <trkpt lat="47.693493" lon="2.0312028">
        <ele>146</ele>
        <time>2022-01-20T08:13:16Z</time>
      </trkpt>
      <trkpt lat="47.69349" lon="2.0312152">
        <ele>147</ele>
        <time>2022-01-20T08:13:17Z</time>
      </trkpt>
      <trkpt lat="47.693478" lon="2.0312257">
        <ele>146</ele>
        <time>2022-01-20T08:13:18Z</time>
      </trkpt>
      <trkpt lat="47.693478" lon="2.0312257">
        <ele>146</ele>
        <time>2022-01-20T08:13:18Z</time>
      </trkpt>
      <trkpt lat="47.693462" lon="2.0312355">
        <ele>146</ele>
        <time>2022-01-20T08:13:20Z</time>
      </trkpt>
      <trkpt lat="47.693447" lon="2.0312424">
        <ele>147</ele>
        <time>2022-01-20T08:13:21Z</time>
      </trkpt>
      <trkpt lat="47.69343" lon="2.0312603">
        <ele>147</ele>
        <time>2022-01-20T08:13:22Z</time>
      </trkpt>
      <trkpt lat="47.69343" lon="2.0312603">
        <ele>147</ele>
        <time>2022-01-20T08:13:22Z</time>
      </trkpt>
      <trkpt lat="47.69342" lon="2.031259">
        <ele>148</ele>
        <time>2022-01-20T08:13:24Z</time>
      </trkpt>
      <trkpt lat="47.69342" lon="2.031259">
        <ele>148</ele>
        <time>2022-01-20T08:13:24Z</time>
      </trkpt>
      <trkpt lat="47.693413" lon="2.031258">
        <ele>148</ele>
        <time>2022-01-20T08:13:26Z</time>
      </trkpt>
      <trkpt lat="47.693413" lon="2.031258">
        <ele>148</ele>
        <time>2022-01-20T08:13:27Z</time>
      </trkpt>
      <trkpt lat="47.693398" lon="2.0312593">
        <ele>148</ele>
        <time>2022-01-20T08:13:28Z</time>
      </trkpt>
      <trkpt lat="47.69339" lon="2.0312684">
        <ele>148</ele>
        <time>2022-01-20T08:13:29Z</time>
      </trkpt>
      <trkpt lat="47.693386" lon="2.0312757">
        <ele>147</ele>
        <time>2022-01-20T08:13:30Z</time>
      </trkpt>
      <trkpt lat="47.693382" lon="2.0312889">
        <ele>148</ele>
        <time>2022-01-20T08:13:31Z</time>
      </trkpt>
      <trkpt lat="47.693375" lon="2.0312965">
        <ele>148</ele>
        <time>2022-01-20T08:13:32Z</time>
      </trkpt>
      <trkpt lat="47.693363" lon="2.0313025">
        <ele>148</ele>
        <time>2022-01-20T08:13:33Z</time>
      </trkpt>
      <trkpt lat="47.693356" lon="2.0313048">
        <ele>148</ele>
        <time>2022-01-20T08:13:34Z</time>
      </trkpt>
      <trkpt lat="47.693348" lon="2.0313056">
        <ele>148</ele>
        <time>2022-01-20T08:13:35Z</time>
      </trkpt>
      <trkpt lat="47.69334" lon="2.0313058">
        <ele>148</ele>
        <time>2022-01-20T08:13:36Z</time>
      </trkpt>
      <trkpt lat="47.693333" lon="2.03131">
        <ele>148</ele>
        <time>2022-01-20T08:13:37Z</time>
      </trkpt>
      <trkpt lat="47.693325" lon="2.0313187">
        <ele>148</ele>
        <time>2022-01-20T08:13:38Z</time>
      </trkpt>
      <trkpt lat="47.693317" lon="2.031328">
        <ele>148</ele>
        <time>2022-01-20T08:13:39Z</time>
      </trkpt>
      <trkpt lat="47.69331" lon="2.0313365">
        <ele>147</ele>
        <time>2022-01-20T08:13:40Z</time>
      </trkpt>
      <trkpt lat="47.6933" lon="2.03134">
        <ele>147</ele>
        <time>2022-01-20T08:13:41Z</time>
      </trkpt>
      <trkpt lat="47.693287" lon="2.0313468">
        <ele>147</ele>
        <time>2022-01-20T08:13:42Z</time>
      </trkpt>
      <trkpt lat="47.69328" lon="2.0313551">
        <ele>147</ele>
        <time>2022-01-20T08:13:43Z</time>
      </trkpt>
      <trkpt lat="47.693264" lon="2.0313606">
        <ele>147</ele>
        <time>2022-01-20T08:13:44Z</time>
      </trkpt>
      <trkpt lat="47.693253" lon="2.03137">
        <ele>147</ele>
        <time>2022-01-20T08:13:45Z</time>
      </trkpt>
      <trkpt lat="47.693245" lon="2.0313768">
        <ele>147</ele>
        <time>2022-01-20T08:13:46Z</time>
      </trkpt>
      <trkpt lat="47.693233" lon="2.031382">
        <ele>147</ele>
        <time>2022-01-20T08:13:47Z</time>
      </trkpt>
      <trkpt lat="47.693233" lon="2.031382">
        <ele>147</ele>
        <time>2022-01-20T08:13:48Z</time>
      </trkpt>
      <trkpt lat="47.69322" lon="2.0313973">
        <ele>147</ele>
        <time>2022-01-20T08:13:49Z</time>
      </trkpt>
      <trkpt lat="47.693214" lon="2.031403">
        <ele>148</ele>
        <time>2022-01-20T08:13:50Z</time>
      </trkpt>
      <trkpt lat="47.693203" lon="2.0314207">
        <ele>148</ele>
        <time>2022-01-20T08:13:51Z</time>
      </trkpt>
      <trkpt lat="47.693195" lon="2.0314248">
        <ele>148</ele>
        <time>2022-01-20T08:13:52Z</time>
      </trkpt>
      <trkpt lat="47.693184" lon="2.0314317">
        <ele>148</ele>
        <time>2022-01-20T08:13:53Z</time>
      </trkpt>
      <trkpt lat="47.693176" lon="2.0314405">
        <ele>147</ele>
        <time>2022-01-20T08:13:54Z</time>
      </trkpt>
      <trkpt lat="47.69317" lon="2.0314488">
        <ele>148</ele>
        <time>2022-01-20T08:13:55Z</time>
      </trkpt>
      <trkpt lat="47.693157" lon="2.0314555">
        <ele>148</ele>
        <time>2022-01-20T08:13:56Z</time>
      </trkpt>
      <trkpt lat="47.693146" lon="2.0314589">
        <ele>148</ele>
        <time>2022-01-20T08:13:57Z</time>
      </trkpt>
      <trkpt lat="47.693134" lon="2.0314715">
        <ele>147</ele>
        <time>2022-01-20T08:13:58Z</time>
      </trkpt>
      <trkpt lat="47.693123" lon="2.031475">
        <ele>148</ele>
        <time>2022-01-20T08:13:59Z</time>
      </trkpt>
      <trkpt lat="47.69311" lon="2.0314822">
        <ele>148</ele>
        <time>2022-01-20T08:14:00Z</time>
      </trkpt>
      <trkpt lat="47.693104" lon="2.0314908">
        <ele>148</ele>
        <time>2022-01-20T08:14:01Z</time>
      </trkpt>
      <trkpt lat="47.693092" lon="2.031505">
        <ele>148</ele>
        <time>2022-01-20T08:14:02Z</time>
      </trkpt>
      <trkpt lat="47.693085" lon="2.031518">
        <ele>148</ele>
        <time>2022-01-20T08:14:03Z</time>
      </trkpt>
      <trkpt lat="47.693073" lon="2.031529">
        <ele>147</ele>
        <time>2022-01-20T08:14:04Z</time>
      </trkpt>
      <trkpt lat="47.693058" lon="2.031535">
        <ele>147</ele>
        <time>2022-01-20T08:14:05Z</time>
      </trkpt>
      <trkpt lat="47.69305" lon="2.031539">
        <ele>147</ele>
        <time>2022-01-20T08:14:06Z</time>
      </trkpt>
      <trkpt lat="47.693043" lon="2.031546">
        <ele>147</ele>
        <time>2022-01-20T08:14:07Z</time>
      </trkpt>
      <trkpt lat="47.693035" lon="2.031561">
        <ele>147</ele>
        <time>2022-01-20T08:14:08Z</time>
      </trkpt>
      <trkpt lat="47.693027" lon="2.0315714">
        <ele>147</ele>
        <time>2022-01-20T08:14:09Z</time>
      </trkpt>
      <trkpt lat="47.693016" lon="2.0315812">
        <ele>147</ele>
        <time>2022-01-20T08:14:10Z</time>
      </trkpt>
      <trkpt lat="47.69301" lon="2.0315905">
        <ele>147</ele>
        <time>2022-01-20T08:14:11Z</time>
      </trkpt>
      <trkpt lat="47.693" lon="2.0315971">
        <ele>148</ele>
        <time>2022-01-20T08:14:12Z</time>
      </trkpt>
      <trkpt lat="47.69299" lon="2.0316021">
        <ele>148</ele>
        <time>2022-01-20T08:14:13Z</time>
      </trkpt>
      <trkpt lat="47.692986" lon="2.0316072">
        <ele>148</ele>
        <time>2022-01-20T08:14:14Z</time>
      </trkpt>
      <trkpt lat="47.692978" lon="2.0316083">
        <ele>149</ele>
        <time>2022-01-20T08:14:15Z</time>
      </trkpt>
      <trkpt lat="47.69297" lon="2.0316103">
        <ele>148</ele>
        <time>2022-01-20T08:14:16Z</time>
      </trkpt>
      <trkpt lat="47.692963" lon="2.031613">
        <ele>148</ele>
        <time>2022-01-20T08:14:17Z</time>
      </trkpt>
      <trkpt lat="47.692963" lon="2.0316234">
        <ele>148</ele>
        <time>2022-01-20T08:14:18Z</time>
      </trkpt>
      <trkpt lat="47.692963" lon="2.0316234">
        <ele>148</ele>
        <time>2022-01-20T08:14:19Z</time>
      </trkpt>
      <trkpt lat="47.692963" lon="2.0316234">
        <ele>148</ele>
        <time>2022-01-20T08:14:20Z</time>
      </trkpt>
      <trkpt lat="47.692963" lon="2.0316234">
        <ele>148</ele>
        <time>2022-01-20T08:14:21Z</time>
      </trkpt>
      <trkpt lat="47.692963" lon="2.0316234">
        <ele>148</ele>
        <time>2022-01-20T08:14:22Z</time>
      </trkpt>
      <trkpt lat="47.692963" lon="2.0316234">
        <ele>148</ele>
        <time>2022-01-20T08:14:23Z</time>
      </trkpt>
      <trkpt lat="47.692947" lon="2.03165">
        <ele>146</ele>
        <time>2022-01-20T08:14:24Z</time>
      </trkpt>
      <trkpt lat="47.692947" lon="2.03165">
        <ele>146</ele>
        <time>2022-01-20T08:14:24Z</time>
      </trkpt>
    </trkseg>
    <trkseg>
      <trkpt lat="47.692947" lon="2.03165">
        <ele>146</ele>
        <time>2022-01-20T08:14:24Z</time>
      </trkpt>
      <trkpt lat="47.69292" lon="2.0317018">
        <ele>146</ele>
        <time>2022-01-20T08:14:33Z</time>
      </trkpt>
      <trkpt lat="47.69292" lon="2.0317018">
        <ele>146</ele>
        <time>2022-01-20T08:14:34Z</time>
      </trkpt>
      <trkpt lat="47.692913" lon="2.0317166">
        <ele>147</ele>
        <time>2022-01-20T08:14:35Z</time>
      </trkpt>
      <trkpt lat="47.69291" lon="2.0317223">
        <ele>147</ele>
        <time>2022-01-20T08:14:36Z</time>
      </trkpt>
      <trkpt lat="47.69291" lon="2.0317295">
        <ele>147</ele>
        <time>2022-01-20T08:14:37Z</time>
      </trkpt>
      <trkpt lat="47.69291" lon="2.031737">
        <ele>147</ele>
        <time>2022-01-20T08:14:38Z</time>
      </trkpt>
      <trkpt lat="47.69291" lon="2.031737">
        <ele>147</ele>
        <time>2022-01-20T08:14:39Z</time>
      </trkpt>
      <trkpt lat="47.692905" lon="2.0317576">
        <ele>147</ele>
        <time>2022-01-20T08:14:40Z</time>
      </trkpt>
      <trkpt lat="47.6929" lon="2.0317707">
        <ele>147</ele>
        <time>2022-01-20T08:14:41Z</time>
      </trkpt>
      <trkpt lat="47.692894" lon="2.0317838">
        <ele>147</ele>
        <time>2022-01-20T08:14:42Z</time>
      </trkpt>
      <trkpt lat="47.69289" lon="2.0317886">
        <ele>147</ele>
        <time>2022-01-20T08:14:43Z</time>
      </trkpt>
      <trkpt lat="47.692886" lon="2.03179">
        <ele>146</ele>
        <time>2022-01-20T08:14:44Z</time>
      </trkpt>
      <trkpt lat="47.69288" lon="2.031791">
        <ele>147</ele>
        <time>2022-01-20T08:14:45Z</time>
      </trkpt>
      <trkpt lat="47.692875" lon="2.03179">
        <ele>147</ele>
        <time>2022-01-20T08:14:46Z</time>
      </trkpt>
      <trkpt lat="47.692875" lon="2.03179">
        <ele>147</ele>
        <time>2022-01-20T08:14:47Z</time>
      </trkpt>
      <trkpt lat="47.692875" lon="2.03179">
        <ele>147</ele>
        <time>2022-01-20T08:14:48Z</time>
      </trkpt>
      <trkpt lat="47.692856" lon="2.0317981">
        <ele>148</ele>
        <time>2022-01-20T08:14:49Z</time>
      </trkpt>
      <trkpt lat="47.692852" lon="2.0318065">
        <ele>148</ele>
        <time>2022-01-20T08:14:50Z</time>
      </trkpt>
      <trkpt lat="47.692844" lon="2.031815">
        <ele>148</ele>
        <time>2022-01-20T08:14:51Z</time>
      </trkpt>
      <trkpt lat="47.69284" lon="2.0318234">
        <ele>148</ele>
        <time>2022-01-20T08:14:52Z</time>
      </trkpt>
      <trkpt lat="47.692833" lon="2.031829">
        <ele>147</ele>
        <time>2022-01-20T08:14:53Z</time>
      </trkpt>
      <trkpt lat="47.692825" lon="2.0318375">
        <ele>147</ele>
        <time>2022-01-20T08:14:54Z</time>
      </trkpt>
      <trkpt lat="47.692814" lon="2.0318446">
        <ele>147</ele>
        <time>2022-01-20T08:14:55Z</time>
      </trkpt>
      <trkpt lat="47.692802" lon="2.0318456">
        <ele>147</ele>
        <time>2022-01-20T08:14:56Z</time>
      </trkpt>
      <trkpt lat="47.692795" lon="2.0318444">
        <ele>148</ele>
        <time>2022-01-20T08:14:57Z</time>
      </trkpt>
      <trkpt lat="47.692783" lon="2.0318506">
        <ele>148</ele>
        <time>2022-01-20T08:14:58Z</time>
      </trkpt>
      <trkpt lat="47.692772" lon="2.0318525">
        <ele>148</ele>
        <time>2022-01-20T08:14:59Z</time>
      </trkpt>
      <trkpt lat="47.692764" lon="2.03186">
        <ele>148</ele>
        <time>2022-01-20T08:15:00Z</time>
      </trkpt>
      <trkpt lat="47.69276" lon="2.0318627">
        <ele>148</ele>
        <time>2022-01-20T08:15:01Z</time>
      </trkpt>
      <trkpt lat="47.692757" lon="2.031866">
        <ele>149</ele>
        <time>2022-01-20T08:15:02Z</time>
      </trkpt>
      <trkpt lat="47.692757" lon="2.0318677">
        <ele>149</ele>
        <time>2022-01-20T08:15:03Z</time>
      </trkpt>
      <trkpt lat="47.692757" lon="2.0318677">
        <ele>149</ele>
        <time>2022-01-20T08:15:04Z</time>
      </trkpt>
      <trkpt lat="47.692757" lon="2.0318677">
        <ele>149</ele>
        <time>2022-01-20T08:15:05Z</time>
      </trkpt>
      <trkpt lat="47.69274" lon="2.0318747">
        <ele>149</ele>
        <time>2022-01-20T08:15:06Z</time>
      </trkpt>
      <trkpt lat="47.692734" lon="2.0318794">
        <ele>149</ele>
        <time>2022-01-20T08:15:07Z</time>
      </trkpt>
      <trkpt lat="47.69273" lon="2.0318775">
        <ele>148</ele>
        <time>2022-01-20T08:15:08Z</time>
      </trkpt>
      <trkpt lat="47.692722" lon="2.031873">
        <ele>148</ele>
        <time>2022-01-20T08:15:09Z</time>
      </trkpt>
      <trkpt lat="47.692715" lon="2.0318727">
        <ele>148</ele>
        <time>2022-01-20T08:15:10Z</time>
      </trkpt>
      <trkpt lat="47.692707" lon="2.0318804">
        <ele>148</ele>
        <time>2022-01-20T08:15:11Z</time>
      </trkpt>
      <trkpt lat="47.692696" lon="2.031888">
        <ele>148</ele>
        <time>2022-01-20T08:15:12Z</time>
      </trkpt>
      <trkpt lat="47.692688" lon="2.0318902">
        <ele>148</ele>
        <time>2022-01-20T08:15:13Z</time>
      </trkpt>
      <trkpt lat="47.692684" lon="2.0318947">
        <ele>148</ele>
        <time>2022-01-20T08:15:14Z</time>
      </trkpt>
      <trkpt lat="47.692677" lon="2.0319018">
        <ele>148</ele>
        <time>2022-01-20T08:15:15Z</time>
      </trkpt>
      <trkpt lat="47.69267" lon="2.0319083">
        <ele>148</ele>
        <time>2022-01-20T08:15:16Z</time>
      </trkpt>
      <trkpt lat="47.69266" lon="2.0319145">
        <ele>148</ele>
        <time>2022-01-20T08:15:17Z</time>
      </trkpt>
      <trkpt lat="47.692654" lon="2.0319202">
        <ele>148</ele>
        <time>2022-01-20T08:15:18Z</time>
      </trkpt>
      <trkpt lat="47.69265" lon="2.0319235">
        <ele>148</ele>
        <time>2022-01-20T08:15:19Z</time>
      </trkpt>
      <trkpt lat="47.692646" lon="2.031927">
        <ele>148</ele>
        <time>2022-01-20T08:15:20Z</time>
      </trkpt>
      <trkpt lat="47.692646" lon="2.031927">
        <ele>148</ele>
        <time>2022-01-20T08:15:21Z</time>
      </trkpt>
      <trkpt lat="47.692646" lon="2.031927">
        <ele>148</ele>
        <time>2022-01-20T08:15:22Z</time>
      </trkpt>
      <trkpt lat="47.692646" lon="2.031927">
        <ele>148</ele>
        <time>2022-01-20T08:15:23Z</time>
      </trkpt>
      <trkpt lat="47.692627" lon="2.0319366">
        <ele>148</ele>
        <time>2022-01-20T08:15:24Z</time>
      </trkpt>
      <trkpt lat="47.692623" lon="2.031939">
        <ele>148</ele>
        <time>2022-01-20T08:15:25Z</time>
      </trkpt>
      <trkpt lat="47.692616" lon="2.031944">
        <ele>148</ele>
        <time>2022-01-20T08:15:26Z</time>
      </trkpt>
      <trkpt lat="47.69261" lon="2.03195">
        <ele>148</ele>
        <time>2022-01-20T08:15:27Z</time>
      </trkpt>
      <trkpt lat="47.692604" lon="2.0319576">
        <ele>148</ele>
        <time>2022-01-20T08:15:28Z</time>
      </trkpt>
      <trkpt lat="47.692593" lon="2.0319672">
        <ele>148</ele>
        <time>2022-01-20T08:15:29Z</time>
      </trkpt>
      <trkpt lat="47.69259" lon="2.0319707">
        <ele>148</ele>
        <time>2022-01-20T08:15:30Z</time>
      </trkpt>
      <trkpt lat="47.69258" lon="2.0319755">
        <ele>148</ele>
        <time>2022-01-20T08:15:31Z</time>
      </trkpt>
      <trkpt lat="47.692574" lon="2.0319753">
        <ele>148</ele>
        <time>2022-01-20T08:15:32Z</time>
      </trkpt>
      <trkpt lat="47.692562" lon="2.0319734">
        <ele>149</ele>
        <time>2022-01-20T08:15:33Z</time>
      </trkpt>
      <trkpt lat="47.692554" lon="2.031972">
        <ele>149</ele>
        <time>2022-01-20T08:15:34Z</time>
      </trkpt>
      <trkpt lat="47.692543" lon="2.0319724">
        <ele>149</ele>
        <time>2022-01-20T08:15:35Z</time>
      </trkpt>
      <trkpt lat="47.692535" lon="2.0319755">
        <ele>150</ele>
        <time>2022-01-20T08:15:36Z</time>
      </trkpt>
      <trkpt lat="47.69253" lon="2.031978">
        <ele>150</ele>
        <time>2022-01-20T08:15:37Z</time>
      </trkpt>
      <trkpt lat="47.692528" lon="2.031986">
        <ele>150</ele>
        <time>2022-01-20T08:15:38Z</time>
      </trkpt>
      <trkpt lat="47.692524" lon="2.031997">
        <ele>150</ele>
        <time>2022-01-20T08:15:39Z</time>
      </trkpt>
      <trkpt lat="47.69252" lon="2.0320015">
        <ele>149</ele>
        <time>2022-01-20T08:15:40Z</time>
      </trkpt>
      <trkpt lat="47.692513" lon="2.03201">
        <ele>149</ele>
        <time>2022-01-20T08:15:41Z</time>
      </trkpt>
      <trkpt lat="47.69251" lon="2.0320141">
        <ele>149</ele>
        <time>2022-01-20T08:15:42Z</time>
      </trkpt>
      <trkpt lat="47.6925" lon="2.0320215">
        <ele>150</ele>
        <time>2022-01-20T08:15:43Z</time>
      </trkpt>
      <trkpt lat="47.692493" lon="2.0320344">
        <ele>150</ele>
        <time>2022-01-20T08:15:44Z</time>
      </trkpt>
      <trkpt lat="47.69249" lon="2.0320494">
        <ele>149</ele>
        <time>2022-01-20T08:15:45Z</time>
      </trkpt>
      <trkpt lat="47.692474" lon="2.0320656">
        <ele>149</ele>
        <time>2022-01-20T08:15:46Z</time>
      </trkpt>
      <trkpt lat="47.692463" lon="2.032075">
        <ele>150</ele>
        <time>2022-01-20T08:15:47Z</time>
      </trkpt>
      <trkpt lat="47.69245" lon="2.032083">
        <ele>150</ele>
        <time>2022-01-20T08:15:48Z</time>
      </trkpt>
      <trkpt lat="47.69244" lon="2.032093">
        <ele>150</ele>
        <time>2022-01-20T08:15:49Z</time>
      </trkpt>
      <trkpt lat="47.692425" lon="2.0321064">
        <ele>150</ele>
        <time>2022-01-20T08:15:50Z</time>
      </trkpt>
      <trkpt lat="47.692413" lon="2.0321193">
        <ele>151</ele>
        <time>2022-01-20T08:15:51Z</time>
      </trkpt>
      <trkpt lat="47.6924" lon="2.03213">
        <ele>151</ele>
        <time>2022-01-20T08:15:52Z</time>
      </trkpt>
      <trkpt lat="47.69239" lon="2.0321388">
        <ele>151</ele>
        <time>2022-01-20T08:15:53Z</time>
      </trkpt>
      <trkpt lat="47.69238" lon="2.0321474">
        <ele>151</ele>
        <time>2022-01-20T08:15:54Z</time>
      </trkpt>
      <trkpt lat="47.692368" lon="2.0321555">
        <ele>151</ele>
        <time>2022-01-20T08:15:55Z</time>
      </trkpt>
      <trkpt lat="47.692356" lon="2.032161">
        <ele>151</ele>
        <time>2022-01-20T08:15:56Z</time>
      </trkpt>
      <trkpt lat="47.692345" lon="2.032168">
        <ele>151</ele>
        <time>2022-01-20T08:15:57Z</time>
      </trkpt>
      <trkpt lat="47.692337" lon="2.0321743">
        <ele>151</ele>
        <time>2022-01-20T08:15:58Z</time>
      </trkpt>
      <trkpt lat="47.692326" lon="2.0321803">
        <ele>151</ele>
        <time>2022-01-20T08:15:59Z</time>
      </trkpt>
      <trkpt lat="47.692318" lon="2.0321913">
        <ele>151</ele>
        <time>2022-01-20T08:16:00Z</time>
      </trkpt>
      <trkpt lat="47.692307" lon="2.0321999">
        <ele>151</ele>
        <time>2022-01-20T08:16:01Z</time>
      </trkpt>
      <trkpt lat="47.692295" lon="2.0322118">
        <ele>151</ele>
        <time>2022-01-20T08:16:02Z</time>
      </trkpt>
      <trkpt lat="47.69228" lon="2.0322223">
        <ele>151</ele>
        <time>2022-01-20T08:16:03Z</time>
      </trkpt>
      <trkpt lat="47.69227" lon="2.0322254">
        <ele>151</ele>
        <time>2022-01-20T08:16:04Z</time>
      </trkpt>
      <trkpt lat="47.69226" lon="2.0322297">
        <ele>151</ele>
        <time>2022-01-20T08:16:05Z</time>
      </trkpt>
      <trkpt lat="47.692257" lon="2.0322373">
        <ele>151</ele>
        <time>2022-01-20T08:16:06Z</time>
      </trkpt>
      <trkpt lat="47.69225" lon="2.0322464">
        <ele>151</ele>
        <time>2022-01-20T08:16:07Z</time>
      </trkpt>
      <trkpt lat="47.69224" lon="2.0322514">
        <ele>151</ele>
        <time>2022-01-20T08:16:08Z</time>
      </trkpt>
      <trkpt lat="47.692234" lon="2.0322533">
        <ele>151</ele>
        <time>2022-01-20T08:16:09Z</time>
      </trkpt>
      <trkpt lat="47.692223" lon="2.0322537">
        <ele>151</ele>
        <time>2022-01-20T08:16:10Z</time>
      </trkpt>
      <trkpt lat="47.692215" lon="2.0322626">
        <ele>152</ele>
        <time>2022-01-20T08:16:11Z</time>
      </trkpt>
      <trkpt lat="47.692207" lon="2.0322723">
        <ele>152</ele>
        <time>2022-01-20T08:16:12Z</time>
      </trkpt>
      <trkpt lat="47.692204" lon="2.032277">
        <ele>152</ele>
        <time>2022-01-20T08:16:13Z</time>
      </trkpt>
      <trkpt lat="47.692196" lon="2.0322886">
        <ele>152</ele>
        <time>2022-01-20T08:16:14Z</time>
      </trkpt>
      <trkpt lat="47.692184" lon="2.0322955">
        <ele>152</ele>
        <time>2022-01-20T08:16:15Z</time>
      </trkpt>
      <trkpt lat="47.692177" lon="2.0323012">
        <ele>152</ele>
        <time>2022-01-20T08:16:16Z</time>
      </trkpt>
      <trkpt lat="47.692165" lon="2.0323124">
        <ele>152</ele>
        <time>2022-01-20T08:16:17Z</time>
      </trkpt>
      <trkpt lat="47.692158" lon="2.0323253">
        <ele>152</ele>
        <time>2022-01-20T08:16:18Z</time>
      </trkpt>
      <trkpt lat="47.69215" lon="2.0323331">
        <ele>152</ele>
        <time>2022-01-20T08:16:19Z</time>
      </trkpt>
      <trkpt lat="47.69214" lon="2.0323484">
        <ele>152</ele>
        <time>2022-01-20T08:16:20Z</time>
      </trkpt>
      <trkpt lat="47.69213" lon="2.0323572">
        <ele>152</ele>
        <time>2022-01-20T08:16:21Z</time>
      </trkpt>
      <trkpt lat="47.692123" lon="2.0323665">
        <ele>152</ele>
        <time>2022-01-20T08:16:22Z</time>
      </trkpt>
      <trkpt lat="47.692112" lon="2.0323756">
        <ele>151</ele>
        <time>2022-01-20T08:16:23Z</time>
      </trkpt>
      <trkpt lat="47.692104" lon="2.0323834">
        <ele>150</ele>
        <time>2022-01-20T08:16:24Z</time>
      </trkpt>
      <trkpt lat="47.692093" lon="2.0323963">
        <ele>150</ele>
        <time>2022-01-20T08:16:25Z</time>
      </trkpt>
      <trkpt lat="47.69208" lon="2.0324035">
        <ele>150</ele>
        <time>2022-01-20T08:16:26Z</time>
      </trkpt>
      <trkpt lat="47.69208" lon="2.0324075">
        <ele>150</ele>
        <time>2022-01-20T08:16:27Z</time>
      </trkpt>
      <trkpt lat="47.692074" lon="2.0324082">
        <ele>150</ele>
        <time>2022-01-20T08:16:28Z</time>
      </trkpt>
      <trkpt lat="47.692062" lon="2.0324051">
        <ele>151</ele>
        <time>2022-01-20T08:16:29Z</time>
      </trkpt>
      <trkpt lat="47.69205" lon="2.0324056">
        <ele>151</ele>
        <time>2022-01-20T08:16:30Z</time>
      </trkpt>
      <trkpt lat="47.692043" lon="2.0324106">
        <ele>151</ele>
        <time>2022-01-20T08:16:31Z</time>
      </trkpt>
      <trkpt lat="47.69203" lon="2.0324173">
        <ele>151</ele>
        <time>2022-01-20T08:16:32Z</time>
      </trkpt>
      <trkpt lat="47.692024" lon="2.0324233">
        <ele>151</ele>
        <time>2022-01-20T08:16:33Z</time>
      </trkpt>
      <trkpt lat="47.692013" lon="2.0324259">
        <ele>151</ele>
        <time>2022-01-20T08:16:34Z</time>
      </trkpt>
      <trkpt lat="47.692" lon="2.0324342">
        <ele>152</ele>
        <time>2022-01-20T08:16:35Z</time>
      </trkpt>
      <trkpt lat="47.69199" lon="2.032438">
        <ele>151</ele>
        <time>2022-01-20T08:16:36Z</time>
      </trkpt>
      <trkpt lat="47.691975" lon="2.032448">
        <ele>151</ele>
        <time>2022-01-20T08:16:37Z</time>
      </trkpt>
      <trkpt lat="47.69196" lon="2.032459">
        <ele>152</ele>
        <time>2022-01-20T08:16:38Z</time>
      </trkpt>
      <trkpt lat="47.691944" lon="2.0324743">
        <ele>152</ele>
        <time>2022-01-20T08:16:39Z</time>
      </trkpt>
      <trkpt lat="47.691933" lon="2.0324826">
        <ele>152</ele>
        <time>2022-01-20T08:16:40Z</time>
      </trkpt>
      <trkpt lat="47.691925" lon="2.032488">
        <ele>152</ele>
        <time>2022-01-20T08:16:41Z</time>
      </trkpt>
      <trkpt lat="47.691917" lon="2.0324955">
        <ele>152</ele>
        <time>2022-01-20T08:16:42Z</time>
      </trkpt>
      <trkpt lat="47.69191" lon="2.0325015">
        <ele>153</ele>
        <time>2022-01-20T08:16:43Z</time>
      </trkpt>
      <trkpt lat="47.691895" lon="2.032506">
        <ele>153</ele>
        <time>2022-01-20T08:16:44Z</time>
      </trkpt>
      <trkpt lat="47.691883" lon="2.03251">
        <ele>153</ele>
        <time>2022-01-20T08:16:45Z</time>
      </trkpt>
      <trkpt lat="47.691875" lon="2.0325084">
        <ele>153</ele>
        <time>2022-01-20T08:16:46Z</time>
      </trkpt>
      <trkpt lat="47.691868" lon="2.0325158">
        <ele>153</ele>
        <time>2022-01-20T08:16:47Z</time>
      </trkpt>
      <trkpt lat="47.69186" lon="2.0325263">
        <ele>154</ele>
        <time>2022-01-20T08:16:48Z</time>
      </trkpt>
      <trkpt lat="47.691853" lon="2.0325372">
        <ele>154</ele>
        <time>2022-01-20T08:16:49Z</time>
      </trkpt>
      <trkpt lat="47.691845" lon="2.0325432">
        <ele>154</ele>
        <time>2022-01-20T08:16:50Z</time>
      </trkpt>
      <trkpt lat="47.691837" lon="2.0325496">
        <ele>153</ele>
        <time>2022-01-20T08:16:51Z</time>
      </trkpt>
      <trkpt lat="47.691833" lon="2.0325577">
        <ele>153</ele>
        <time>2022-01-20T08:16:52Z</time>
      </trkpt>
      <trkpt lat="47.691822" lon="2.0325642">
        <ele>152</ele>
        <time>2022-01-20T08:16:53Z</time>
      </trkpt>
      <trkpt lat="47.691814" lon="2.0325708">
        <ele>152</ele>
        <time>2022-01-20T08:16:54Z</time>
      </trkpt>
      <trkpt lat="47.691803" lon="2.0325816">
        <ele>152</ele>
        <time>2022-01-20T08:16:55Z</time>
      </trkpt>
      <trkpt lat="47.691795" lon="2.0325897">
        <ele>151</ele>
        <time>2022-01-20T08:16:56Z</time>
      </trkpt>
      <trkpt lat="47.691788" lon="2.0325959">
        <ele>151</ele>
        <time>2022-01-20T08:16:57Z</time>
      </trkpt>
      <trkpt lat="47.691776" lon="2.0326035">
        <ele>151</ele>
        <time>2022-01-20T08:16:58Z</time>
      </trkpt>
      <trkpt lat="47.69177" lon="2.0326083">
        <ele>151</ele>
        <time>2022-01-20T08:16:59Z</time>
      </trkpt>
      <trkpt lat="47.69176" lon="2.0326188">
        <ele>150</ele>
        <time>2022-01-20T08:17:00Z</time>
      </trkpt>
      <trkpt lat="47.69175" lon="2.0326216">
        <ele>150</ele>
        <time>2022-01-20T08:17:01Z</time>
      </trkpt>
      <trkpt lat="47.691742" lon="2.032626">
        <ele>149</ele>
        <time>2022-01-20T08:17:02Z</time>
      </trkpt>
      <trkpt lat="47.691734" lon="2.0326269">
        <ele>149</ele>
        <time>2022-01-20T08:17:03Z</time>
      </trkpt>
      <trkpt lat="47.691727" lon="2.0326345">
        <ele>149</ele>
        <time>2022-01-20T08:17:04Z</time>
      </trkpt>
      <trkpt lat="47.69172" lon="2.032641">
        <ele>148</ele>
        <time>2022-01-20T08:17:05Z</time>
      </trkpt>
      <trkpt lat="47.691715" lon="2.032646">
        <ele>148</ele>
        <time>2022-01-20T08:17:06Z</time>
      </trkpt>
      <trkpt lat="47.691708" lon="2.0326474">
        <ele>148</ele>
        <time>2022-01-20T08:17:07Z</time>
      </trkpt>
      <trkpt lat="47.6917" lon="2.032656">
        <ele>148</ele>
        <time>2022-01-20T08:17:08Z</time>
      </trkpt>
      <trkpt lat="47.69169" lon="2.0326633">
        <ele>148</ele>
        <time>2022-01-20T08:17:09Z</time>
      </trkpt>
      <trkpt lat="47.69168" lon="2.0326674">
        <ele>148</ele>
        <time>2022-01-20T08:17:10Z</time>
      </trkpt>
      <trkpt lat="47.691673" lon="2.0326715">
        <ele>148</ele>
        <time>2022-01-20T08:17:11Z</time>
      </trkpt>
      <trkpt lat="47.691666" lon="2.0326705">
        <ele>148</ele>
        <time>2022-01-20T08:17:12Z</time>
      </trkpt>
      <trkpt lat="47.691658" lon="2.0326698">
        <ele>148</ele>
        <time>2022-01-20T08:17:13Z</time>
      </trkpt>
      <trkpt lat="47.69165" lon="2.0326674">
        <ele>149</ele>
        <time>2022-01-20T08:17:14Z</time>
      </trkpt>
      <trkpt lat="47.691643" lon="2.0326703">
        <ele>148</ele>
        <time>2022-01-20T08:17:15Z</time>
      </trkpt>
      <trkpt lat="47.691635" lon="2.0326824">
        <ele>148</ele>
        <time>2022-01-20T08:17:16Z</time>
      </trkpt>
      <trkpt lat="47.691628" lon="2.032689">
        <ele>148</ele>
        <time>2022-01-20T08:17:17Z</time>
      </trkpt>
      <trkpt lat="47.691616" lon="2.032702">
        <ele>148</ele>
        <time>2022-01-20T08:17:18Z</time>
      </trkpt>
      <trkpt lat="47.691605" lon="2.0327117">
        <ele>148</ele>
        <time>2022-01-20T08:17:19Z</time>
      </trkpt>
      <trkpt lat="47.69159" lon="2.0327213">
        <ele>148</ele>
        <time>2022-01-20T08:17:20Z</time>
      </trkpt>
      <trkpt lat="47.691578" lon="2.0327272">
        <ele>148</ele>
        <time>2022-01-20T08:17:21Z</time>
      </trkpt>
      <trkpt lat="47.69157" lon="2.0327303">
        <ele>148</ele>
        <time>2022-01-20T08:17:22Z</time>
      </trkpt>
      <trkpt lat="47.69156" lon="2.0327303">
        <ele>148</ele>
        <time>2022-01-20T08:17:23Z</time>
      </trkpt>
      <trkpt lat="47.691547" lon="2.0327363">
        <ele>148</ele>
        <time>2022-01-20T08:17:24Z</time>
      </trkpt>
      <trkpt lat="47.69154" lon="2.032736">
        <ele>148</ele>
        <time>2022-01-20T08:17:25Z</time>
      </trkpt>
      <trkpt lat="47.69153" lon="2.0327318">
        <ele>148</ele>
        <time>2022-01-20T08:17:26Z</time>
      </trkpt>
      <trkpt lat="47.691517" lon="2.0327306">
        <ele>147</ele>
        <time>2022-01-20T08:17:27Z</time>
      </trkpt>
      <trkpt lat="47.69151" lon="2.0327308">
        <ele>147</ele>
        <time>2022-01-20T08:17:28Z</time>
      </trkpt>
      <trkpt lat="47.691498" lon="2.032733">
        <ele>147</ele>
        <time>2022-01-20T08:17:29Z</time>
      </trkpt>
      <trkpt lat="47.69149" lon="2.0327387">
        <ele>147</ele>
        <time>2022-01-20T08:17:30Z</time>
      </trkpt>
      <trkpt lat="47.691486" lon="2.032744">
        <ele>147</ele>
        <time>2022-01-20T08:17:31Z</time>
      </trkpt>
      <trkpt lat="47.69148" lon="2.0327456">
        <ele>147</ele>
        <time>2022-01-20T08:17:32Z</time>
      </trkpt>
      <trkpt lat="47.69147" lon="2.0327501">
        <ele>147</ele>
        <time>2022-01-20T08:17:33Z</time>
      </trkpt>
      <trkpt lat="47.691463" lon="2.0327523">
        <ele>148</ele>
        <time>2022-01-20T08:17:34Z</time>
      </trkpt>
      <trkpt lat="47.69146" lon="2.0327563">
        <ele>147</ele>
        <time>2022-01-20T08:17:35Z</time>
      </trkpt>
      <trkpt lat="47.691452" lon="2.0327637">
        <ele>147</ele>
        <time>2022-01-20T08:17:36Z</time>
      </trkpt>
      <trkpt lat="47.691444" lon="2.0327704">
        <ele>147</ele>
        <time>2022-01-20T08:17:37Z</time>
      </trkpt>
      <trkpt lat="47.691433" lon="2.0327718">
        <ele>147</ele>
        <time>2022-01-20T08:17:38Z</time>
      </trkpt>
      <trkpt lat="47.69142" lon="2.0327728">
        <ele>147</ele>
        <time>2022-01-20T08:17:39Z</time>
      </trkpt>
      <trkpt lat="47.691414" lon="2.0327752">
        <ele>146</ele>
        <time>2022-01-20T08:17:40Z</time>
      </trkpt>
      <trkpt lat="47.691402" lon="2.032777">
        <ele>146</ele>
        <time>2022-01-20T08:17:41Z</time>
      </trkpt>
      <trkpt lat="47.691387" lon="2.032786">
        <ele>146</ele>
        <time>2022-01-20T08:17:42Z</time>
      </trkpt>
      <trkpt lat="47.691376" lon="2.0327966">
        <ele>146</ele>
        <time>2022-01-20T08:17:43Z</time>
      </trkpt>
      <trkpt lat="47.69137" lon="2.0328074">
        <ele>146</ele>
        <time>2022-01-20T08:17:44Z</time>
      </trkpt>
      <trkpt lat="47.69136" lon="2.0328164">
        <ele>146</ele>
        <time>2022-01-20T08:17:45Z</time>
      </trkpt>
      <trkpt lat="47.691357" lon="2.032825">
        <ele>147</ele>
        <time>2022-01-20T08:17:46Z</time>
      </trkpt>
      <trkpt lat="47.691353" lon="2.0328345">
        <ele>147</ele>
        <time>2022-01-20T08:17:47Z</time>
      </trkpt>
      <trkpt lat="47.69135" lon="2.032846">
        <ele>146</ele>
        <time>2022-01-20T08:17:48Z</time>
      </trkpt>
      <trkpt lat="47.691338" lon="2.0328581">
        <ele>146</ele>
        <time>2022-01-20T08:17:49Z</time>
      </trkpt>
      <trkpt lat="47.691334" lon="2.0328748">
        <ele>146</ele>
        <time>2022-01-20T08:17:50Z</time>
      </trkpt>
      <trkpt lat="47.691326" lon="2.0328896">
        <ele>146</ele>
        <time>2022-01-20T08:17:51Z</time>
      </trkpt>
      <trkpt lat="47.69131" lon="2.0329025">
        <ele>146</ele>
        <time>2022-01-20T08:17:52Z</time>
      </trkpt>
      <trkpt lat="47.6913" lon="2.032914">
        <ele>146</ele>
        <time>2022-01-20T08:17:53Z</time>
      </trkpt>
      <trkpt lat="47.691288" lon="2.0329275">
        <ele>146</ele>
        <time>2022-01-20T08:17:54Z</time>
      </trkpt>
      <trkpt lat="47.691273" lon="2.0329385">
        <ele>145</ele>
        <time>2022-01-20T08:17:55Z</time>
      </trkpt>
      <trkpt lat="47.69126" lon="2.0329483">
        <ele>145</ele>
        <time>2022-01-20T08:17:56Z</time>
      </trkpt>
      <trkpt lat="47.69125" lon="2.0329554">
        <ele>145</ele>
        <time>2022-01-20T08:17:57Z</time>
      </trkpt>
      <trkpt lat="47.69124" lon="2.03296">
        <ele>145</ele>
        <time>2022-01-20T08:17:58Z</time>
      </trkpt>
      <trkpt lat="47.69123" lon="2.032963">
        <ele>145</ele>
        <time>2022-01-20T08:17:59Z</time>
      </trkpt>
      <trkpt lat="47.691227" lon="2.03297">
        <ele>145</ele>
        <time>2022-01-20T08:18:00Z</time>
      </trkpt>
      <trkpt lat="47.69122" lon="2.0329814">
        <ele>145</ele>
        <time>2022-01-20T08:18:01Z</time>
      </trkpt>
      <trkpt lat="47.69121" lon="2.032988">
        <ele>145</ele>
        <time>2022-01-20T08:18:02Z</time>
      </trkpt>
      <trkpt lat="47.691204" lon="2.0329938">
        <ele>146</ele>
        <time>2022-01-20T08:18:03Z</time>
      </trkpt>
      <trkpt lat="47.691196" lon="2.0330029">
        <ele>146</ele>
        <time>2022-01-20T08:18:04Z</time>
      </trkpt>
      <trkpt lat="47.691193" lon="2.0330076">
        <ele>146</ele>
        <time>2022-01-20T08:18:05Z</time>
      </trkpt>
      <trkpt lat="47.691185" lon="2.0330133">
        <ele>146</ele>
        <time>2022-01-20T08:18:06Z</time>
      </trkpt>
      <trkpt lat="47.691177" lon="2.0330153">
        <ele>146</ele>
        <time>2022-01-20T08:18:07Z</time>
      </trkpt>
      <trkpt lat="47.69117" lon="2.0330145">
        <ele>146</ele>
        <time>2022-01-20T08:18:08Z</time>
      </trkpt>
      <trkpt lat="47.691166" lon="2.03302">
        <ele>146</ele>
        <time>2022-01-20T08:18:09Z</time>
      </trkpt>
      <trkpt lat="47.69116" lon="2.0330226">
        <ele>146</ele>
        <time>2022-01-20T08:18:10Z</time>
      </trkpt>
      <trkpt lat="47.691154" lon="2.0330257">
        <ele>146</ele>
        <time>2022-01-20T08:18:11Z</time>
      </trkpt>
      <trkpt lat="47.69115" lon="2.0330243">
        <ele>146</ele>
        <time>2022-01-20T08:18:12Z</time>
      </trkpt>
      <trkpt lat="47.691147" lon="2.0330317">
        <ele>146</ele>
        <time>2022-01-20T08:18:13Z</time>
      </trkpt>
      <trkpt lat="47.691143" lon="2.0330358">
        <ele>146</ele>
        <time>2022-01-20T08:18:14Z</time>
      </trkpt>
      <trkpt lat="47.691143" lon="2.0330358">
        <ele>146</ele>
        <time>2022-01-20T08:18:15Z</time>
      </trkpt>
      <trkpt lat="47.691143" lon="2.0330358">
        <ele>146</ele>
        <time>2022-01-20T08:18:16Z</time>
      </trkpt>
      <trkpt lat="47.69113" lon="2.0330548">
        <ele>146</ele>
        <time>2022-01-20T08:18:17Z</time>
      </trkpt>
      <trkpt lat="47.691124" lon="2.033073">
        <ele>145</ele>
        <time>2022-01-20T08:18:18Z</time>
      </trkpt>
      <trkpt lat="47.691113" lon="2.0330899">
        <ele>145</ele>
        <time>2022-01-20T08:18:19Z</time>
      </trkpt>
      <trkpt lat="47.6911" lon="2.0331001">
        <ele>144</ele>
        <time>2022-01-20T08:18:20Z</time>
      </trkpt>
      <trkpt lat="47.69109" lon="2.0331113">
        <ele>145</ele>
        <time>2022-01-20T08:18:21Z</time>
      </trkpt>
      <trkpt lat="47.691082" lon="2.0331216">
        <ele>145</ele>
        <time>2022-01-20T08:18:22Z</time>
      </trkpt>
      <trkpt lat="47.691074" lon="2.033137">
        <ele>144</ele>
        <time>2022-01-20T08:18:23Z</time>
      </trkpt>
      <trkpt lat="47.691063" lon="2.0331464">
        <ele>145</ele>
        <time>2022-01-20T08:18:24Z</time>
      </trkpt>
      <trkpt lat="47.69105" lon="2.0331588">
        <ele>145</ele>
        <time>2022-01-20T08:18:25Z</time>
      </trkpt>
      <trkpt lat="47.691044" lon="2.0331712">
        <ele>144</ele>
        <time>2022-01-20T08:18:26Z</time>
      </trkpt>
      <trkpt lat="47.691032" lon="2.0331855">
        <ele>144</ele>
        <time>2022-01-20T08:18:27Z</time>
      </trkpt>
      <trkpt lat="47.691025" lon="2.0332003">
        <ele>144</ele>
        <time>2022-01-20T08:18:28Z</time>
      </trkpt>
      <trkpt lat="47.691017" lon="2.0332136">
        <ele>144</ele>
        <time>2022-01-20T08:18:29Z</time>
      </trkpt>
      <trkpt lat="47.69101" lon="2.033226">
        <ele>144</ele>
        <time>2022-01-20T08:18:30Z</time>
      </trkpt>
      <trkpt lat="47.691" lon="2.0332322">
        <ele>144</ele>
        <time>2022-01-20T08:18:31Z</time>
      </trkpt>
      <trkpt lat="47.690994" lon="2.033237">
        <ele>144</ele>
        <time>2022-01-20T08:18:32Z</time>
      </trkpt>
      <trkpt lat="47.690987" lon="2.033246">
        <ele>144</ele>
        <time>2022-01-20T08:18:33Z</time>
      </trkpt>
      <trkpt lat="47.69098" lon="2.033254">
        <ele>144</ele>
        <time>2022-01-20T08:18:34Z</time>
      </trkpt>
      <trkpt lat="47.690968" lon="2.0332615">
        <ele>144</ele>
        <time>2022-01-20T08:18:35Z</time>
      </trkpt>
      <trkpt lat="47.69096" lon="2.033266">
        <ele>144</ele>
        <time>2022-01-20T08:18:36Z</time>
      </trkpt>
      <trkpt lat="47.69096" lon="2.033266">
        <ele>144</ele>
        <time>2022-01-20T08:18:37Z</time>
      </trkpt>
      <trkpt lat="47.690945" lon="2.033279">
        <ele>144</ele>
        <time>2022-01-20T08:18:38Z</time>
      </trkpt>
      <trkpt lat="47.690933" lon="2.0332863">
        <ele>144</ele>
        <time>2022-01-20T08:18:39Z</time>
      </trkpt>
      <trkpt lat="47.690926" lon="2.0332932">
        <ele>144</ele>
        <time>2022-01-20T08:18:40Z</time>
      </trkpt>
      <trkpt lat="47.690914" lon="2.033296">
        <ele>143</ele>
        <time>2022-01-20T08:18:41Z</time>
      </trkpt>
      <trkpt lat="47.690907" lon="2.0333035">
        <ele>143</ele>
        <time>2022-01-20T08:18:42Z</time>
      </trkpt>
      <trkpt lat="47.69089" lon="2.0333064">
        <ele>143</ele>
        <time>2022-01-20T08:18:43Z</time>
      </trkpt>
      <trkpt lat="47.690884" lon="2.0333138">
        <ele>143</ele>
        <time>2022-01-20T08:18:44Z</time>
      </trkpt>
      <trkpt lat="47.690876" lon="2.0333188">
        <ele>143</ele>
        <time>2022-01-20T08:18:45Z</time>
      </trkpt>
      <trkpt lat="47.690865" lon="2.0333247">
        <ele>143</ele>
        <time>2022-01-20T08:18:46Z</time>
      </trkpt>
      <trkpt lat="47.69086" lon="2.033334">
        <ele>143</ele>
        <time>2022-01-20T08:18:47Z</time>
      </trkpt>
      <trkpt lat="47.690857" lon="2.0333443">
        <ele>143</ele>
        <time>2022-01-20T08:18:48Z</time>
      </trkpt>
      <trkpt lat="47.69085" lon="2.033354">
        <ele>143</ele>
        <time>2022-01-20T08:18:49Z</time>
      </trkpt>
      <trkpt lat="47.69084" lon="2.0333602">
        <ele>143</ele>
        <time>2022-01-20T08:18:50Z</time>
      </trkpt>
      <trkpt lat="47.69083" lon="2.0333686">
        <ele>143</ele>
        <time>2022-01-20T08:18:51Z</time>
      </trkpt>
      <trkpt lat="47.690826" lon="2.033379">
        <ele>143</ele>
        <time>2022-01-20T08:18:52Z</time>
      </trkpt>
      <trkpt lat="47.690823" lon="2.033388">
        <ele>143</ele>
        <time>2022-01-20T08:18:53Z</time>
      </trkpt>
      <trkpt lat="47.69081" lon="2.0333943">
        <ele>143</ele>
        <time>2022-01-20T08:18:54Z</time>
      </trkpt>
      <trkpt lat="47.6908" lon="2.033401">
        <ele>143</ele>
        <time>2022-01-20T08:18:55Z</time>
      </trkpt>
      <trkpt lat="47.690792" lon="2.033407">
        <ele>143</ele>
        <time>2022-01-20T08:18:56Z</time>
      </trkpt>
      <trkpt lat="47.690784" lon="2.0334117">
        <ele>144</ele>
        <time>2022-01-20T08:18:57Z</time>
      </trkpt>
      <trkpt lat="47.690777" lon="2.033415">
        <ele>144</ele>
        <time>2022-01-20T08:18:58Z</time>
      </trkpt>
      <trkpt lat="47.69077" lon="2.0334256">
        <ele>143</ele>
        <time>2022-01-20T08:18:59Z</time>
      </trkpt>
      <trkpt lat="47.69076" lon="2.0334334">
        <ele>144</ele>
        <time>2022-01-20T08:19:00Z</time>
      </trkpt>
      <trkpt lat="47.69075" lon="2.03344">
        <ele>143</ele>
        <time>2022-01-20T08:19:01Z</time>
      </trkpt>
      <trkpt lat="47.690742" lon="2.0334415">
        <ele>143</ele>
        <time>2022-01-20T08:19:02Z</time>
      </trkpt>
      <trkpt lat="47.690735" lon="2.0334485">
        <ele>143</ele>
        <time>2022-01-20T08:19:03Z</time>
      </trkpt>
      <trkpt lat="47.690723" lon="2.0334616">
        <ele>143</ele>
        <time>2022-01-20T08:19:04Z</time>
      </trkpt>
      <trkpt lat="47.690712" lon="2.033475">
        <ele>143</ele>
        <time>2022-01-20T08:19:05Z</time>
      </trkpt>
      <trkpt lat="47.690704" lon="2.0334792">
        <ele>143</ele>
        <time>2022-01-20T08:19:06Z</time>
      </trkpt>
      <trkpt lat="47.690693" lon="2.0334818">
        <ele>143</ele>
        <time>2022-01-20T08:19:07Z</time>
      </trkpt>
      <trkpt lat="47.690685" lon="2.033488">
        <ele>143</ele>
        <time>2022-01-20T08:19:08Z</time>
      </trkpt>
      <trkpt lat="47.690678" lon="2.0334942">
        <ele>143</ele>
        <time>2022-01-20T08:19:09Z</time>
      </trkpt>
      <trkpt lat="47.69067" lon="2.033504">
        <ele>143</ele>
        <time>2022-01-20T08:19:10Z</time>
      </trkpt>
      <trkpt lat="47.690662" lon="2.033512">
        <ele>143</ele>
        <time>2022-01-20T08:19:11Z</time>
      </trkpt>
      <trkpt lat="47.69065" lon="2.0335202">
        <ele>144</ele>
        <time>2022-01-20T08:19:12Z</time>
      </trkpt>
      <trkpt lat="47.690643" lon="2.0335298">
        <ele>144</ele>
        <time>2022-01-20T08:19:13Z</time>
      </trkpt>
      <trkpt lat="47.69063" lon="2.033538">
        <ele>144</ele>
        <time>2022-01-20T08:19:14Z</time>
      </trkpt>
      <trkpt lat="47.69062" lon="2.0335467">
        <ele>144</ele>
        <time>2022-01-20T08:19:15Z</time>
      </trkpt>
      <trkpt lat="47.690613" lon="2.0335557">
        <ele>143</ele>
        <time>2022-01-20T08:19:16Z</time>
      </trkpt>
      <trkpt lat="47.6906" lon="2.033563">
        <ele>144</ele>
        <time>2022-01-20T08:19:17Z</time>
      </trkpt>
      <trkpt lat="47.690594" lon="2.0335708">
        <ele>143</ele>
        <time>2022-01-20T08:19:18Z</time>
      </trkpt>
      <trkpt lat="47.690586" lon="2.0335817">
        <ele>143</ele>
        <time>2022-01-20T08:19:19Z</time>
      </trkpt>
      <trkpt lat="47.69058" lon="2.033589">
        <ele>143</ele>
        <time>2022-01-20T08:19:20Z</time>
      </trkpt>
      <trkpt lat="47.690567" lon="2.0335975">
        <ele>143</ele>
        <time>2022-01-20T08:19:21Z</time>
      </trkpt>
      <trkpt lat="47.690556" lon="2.0336046">
        <ele>143</ele>
        <time>2022-01-20T08:19:22Z</time>
      </trkpt>
      <trkpt lat="47.690548" lon="2.0336113">
        <ele>143</ele>
        <time>2022-01-20T08:19:23Z</time>
      </trkpt>
      <trkpt lat="47.69054" lon="2.033619">
        <ele>143</ele>
        <time>2022-01-20T08:19:24Z</time>
      </trkpt>
      <trkpt lat="47.690525" lon="2.0336277">
        <ele>143</ele>
        <time>2022-01-20T08:19:25Z</time>
      </trkpt>
      <trkpt lat="47.690517" lon="2.033632">
        <ele>143</ele>
        <time>2022-01-20T08:19:26Z</time>
      </trkpt>
      <trkpt lat="47.69051" lon="2.0336316">
        <ele>143</ele>
        <time>2022-01-20T08:19:27Z</time>
      </trkpt>
      <trkpt lat="47.690506" lon="2.033636">
        <ele>144</ele>
        <time>2022-01-20T08:19:28Z</time>
      </trkpt>
      <trkpt lat="47.6905" lon="2.0336413">
        <ele>144</ele>
        <time>2022-01-20T08:19:29Z</time>
      </trkpt>
      <trkpt lat="47.6905" lon="2.0336413">
        <ele>144</ele>
        <time>2022-01-20T08:19:30Z</time>
      </trkpt>
      <trkpt lat="47.6905" lon="2.0336413">
        <ele>144</ele>
        <time>2022-01-20T08:19:31Z</time>
      </trkpt>
      <trkpt lat="47.690483" lon="2.0336618">
        <ele>144</ele>
        <time>2022-01-20T08:19:32Z</time>
      </trkpt>
      <trkpt lat="47.690475" lon="2.0336761">
        <ele>144</ele>
        <time>2022-01-20T08:19:33Z</time>
      </trkpt>
      <trkpt lat="47.69047" lon="2.033689">
        <ele>144</ele>
        <time>2022-01-20T08:19:34Z</time>
      </trkpt>
      <trkpt lat="47.690468" lon="2.0337045">
        <ele>144</ele>
        <time>2022-01-20T08:19:35Z</time>
      </trkpt>
      <trkpt lat="47.690464" lon="2.0337193">
        <ele>144</ele>
        <time>2022-01-20T08:19:36Z</time>
      </trkpt>
      <trkpt lat="47.690456" lon="2.0337353">
        <ele>144</ele>
        <time>2022-01-20T08:19:37Z</time>
      </trkpt>
      <trkpt lat="47.690453" lon="2.0337498">
        <ele>145</ele>
        <time>2022-01-20T08:19:38Z</time>
      </trkpt>
      <trkpt lat="47.69045" lon="2.0337675">
        <ele>144</ele>
        <time>2022-01-20T08:19:39Z</time>
      </trkpt>
      <trkpt lat="47.69044" lon="2.0337849">
        <ele>144</ele>
        <time>2022-01-20T08:19:40Z</time>
      </trkpt>
      <trkpt lat="47.69043" lon="2.033793">
        <ele>144</ele>
        <time>2022-01-20T08:19:41Z</time>
      </trkpt>
      <trkpt lat="47.69042" lon="2.0338068">
        <ele>143</ele>
        <time>2022-01-20T08:19:42Z</time>
      </trkpt>
      <trkpt lat="47.690403" lon="2.0338168">
        <ele>144</ele>
        <time>2022-01-20T08:19:43Z</time>
      </trkpt>
      <trkpt lat="47.69039" lon="2.0338256">
        <ele>144</ele>
        <time>2022-01-20T08:19:44Z</time>
      </trkpt>
      <trkpt lat="47.690384" lon="2.0338366">
        <ele>145</ele>
        <time>2022-01-20T08:19:45Z</time>
      </trkpt>
      <trkpt lat="47.690376" lon="2.0338497">
        <ele>145</ele>
        <time>2022-01-20T08:19:46Z</time>
      </trkpt>
      <trkpt lat="47.690365" lon="2.0338612">
        <ele>146</ele>
        <time>2022-01-20T08:19:47Z</time>
      </trkpt>
      <trkpt lat="47.690353" lon="2.033877">
        <ele>145</ele>
        <time>2022-01-20T08:19:48Z</time>
      </trkpt>
      <trkpt lat="47.69034" lon="2.033895">
        <ele>145</ele>
        <time>2022-01-20T08:19:49Z</time>
      </trkpt>
      <trkpt lat="47.69032" lon="2.0339112">
        <ele>145</ele>
        <time>2022-01-20T08:19:50Z</time>
      </trkpt>
      <trkpt lat="47.690308" lon="2.0339234">
        <ele>145</ele>
        <time>2022-01-20T08:19:51Z</time>
      </trkpt>
      <trkpt lat="47.690296" lon="2.0339334">
        <ele>145</ele>
        <time>2022-01-20T08:19:52Z</time>
      </trkpt>
      <trkpt lat="47.69029" lon="2.0339487">
        <ele>144</ele>
        <time>2022-01-20T08:19:53Z</time>
      </trkpt>
      <trkpt lat="47.69028" lon="2.033959">
        <ele>144</ele>
        <time>2022-01-20T08:19:54Z</time>
      </trkpt>
      <trkpt lat="47.690273" lon="2.0339699">
        <ele>144</ele>
        <time>2022-01-20T08:19:55Z</time>
      </trkpt>
      <trkpt lat="47.690266" lon="2.033984">
        <ele>144</ele>
        <time>2022-01-20T08:19:56Z</time>
      </trkpt>
      <trkpt lat="47.690258" lon="2.0339918">
        <ele>144</ele>
        <time>2022-01-20T08:19:57Z</time>
      </trkpt>
      <trkpt lat="47.69025" lon="2.0340006">
        <ele>144</ele>
        <time>2022-01-20T08:19:58Z</time>
      </trkpt>
      <trkpt lat="47.690243" lon="2.034009">
        <ele>145</ele>
        <time>2022-01-20T08:19:59Z</time>
      </trkpt>
      <trkpt lat="47.690235" lon="2.0340173">
        <ele>145</ele>
        <time>2022-01-20T08:20:00Z</time>
      </trkpt>
      <trkpt lat="47.690228" lon="2.0340257">
        <ele>145</ele>
        <time>2022-01-20T08:20:01Z</time>
      </trkpt>
      <trkpt lat="47.69022" lon="2.034035">
        <ele>145</ele>
        <time>2022-01-20T08:20:02Z</time>
      </trkpt>
      <trkpt lat="47.690216" lon="2.0340443">
        <ele>145</ele>
        <time>2022-01-20T08:20:03Z</time>
      </trkpt>
      <trkpt lat="47.690216" lon="2.0340512">
        <ele>146</ele>
        <time>2022-01-20T08:20:04Z</time>
      </trkpt>
      <trkpt lat="47.69021" lon="2.0340643">
        <ele>146</ele>
        <time>2022-01-20T08:20:05Z</time>
      </trkpt>
      <trkpt lat="47.6902" lon="2.034078">
        <ele>146</ele>
        <time>2022-01-20T08:20:06Z</time>
      </trkpt>
      <trkpt lat="47.690193" lon="2.0340905">
        <ele>146</ele>
        <time>2022-01-20T08:20:07Z</time>
      </trkpt>
      <trkpt lat="47.690178" lon="2.0341">
        <ele>146</ele>
        <time>2022-01-20T08:20:08Z</time>
      </trkpt>
      <trkpt lat="47.690166" lon="2.034107">
        <ele>145</ele>
        <time>2022-01-20T08:20:09Z</time>
      </trkpt>
      <trkpt lat="47.690155" lon="2.0341165">
        <ele>145</ele>
        <time>2022-01-20T08:20:10Z</time>
      </trkpt>
      <trkpt lat="47.690147" lon="2.0341237">
        <ele>145</ele>
        <time>2022-01-20T08:20:11Z</time>
      </trkpt>
      <trkpt lat="47.69014" lon="2.034127">
        <ele>145</ele>
        <time>2022-01-20T08:20:12Z</time>
      </trkpt>
      <trkpt lat="47.690132" lon="2.034132">
        <ele>145</ele>
        <time>2022-01-20T08:20:13Z</time>
      </trkpt>
      <trkpt lat="47.69013" lon="2.0341372">
        <ele>145</ele>
        <time>2022-01-20T08:20:14Z</time>
      </trkpt>
      <trkpt lat="47.69012" lon="2.034141">
        <ele>145</ele>
        <time>2022-01-20T08:20:15Z</time>
      </trkpt>
      <trkpt lat="47.69012" lon="2.034141">
        <ele>145</ele>
        <time>2022-01-20T08:20:16Z</time>
      </trkpt>
      <trkpt lat="47.69012" lon="2.034141">
        <ele>145</ele>
        <time>2022-01-20T08:20:17Z</time>
      </trkpt>
      <trkpt lat="47.690105" lon="2.034159">
        <ele>146</ele>
        <time>2022-01-20T08:20:18Z</time>
      </trkpt>
      <trkpt lat="47.690098" lon="2.0341697">
        <ele>146</ele>
        <time>2022-01-20T08:20:19Z</time>
      </trkpt>
      <trkpt lat="47.69009" lon="2.034183">
        <ele>146</ele>
        <time>2022-01-20T08:20:20Z</time>
      </trkpt>
      <trkpt lat="47.690083" lon="2.0341923">
        <ele>146</ele>
        <time>2022-01-20T08:20:21Z</time>
      </trkpt>
      <trkpt lat="47.69007" lon="2.0342035">
        <ele>145</ele>
        <time>2022-01-20T08:20:22Z</time>
      </trkpt>
      <trkpt lat="47.69006" lon="2.034217">
        <ele>146</ele>
        <time>2022-01-20T08:20:23Z</time>
      </trkpt>
      <trkpt lat="47.690044" lon="2.034231">
        <ele>146</ele>
        <time>2022-01-20T08:20:24Z</time>
      </trkpt>
      <trkpt lat="47.69004" lon="2.0342472">
        <ele>146</ele>
        <time>2022-01-20T08:20:25Z</time>
      </trkpt>
      <trkpt lat="47.690033" lon="2.0342634">
        <ele>146</ele>
        <time>2022-01-20T08:20:26Z</time>
      </trkpt>
      <trkpt lat="47.69002" lon="2.0342817">
        <ele>146</ele>
        <time>2022-01-20T08:20:27Z</time>
      </trkpt>
      <trkpt lat="47.690014" lon="2.0342925">
        <ele>147</ele>
        <time>2022-01-20T08:20:28Z</time>
      </trkpt>
      <trkpt lat="47.690006" lon="2.034304">
        <ele>147</ele>
        <time>2022-01-20T08:20:29Z</time>
      </trkpt>
      <trkpt lat="47.69" lon="2.0343142">
        <ele>147</ele>
        <time>2022-01-20T08:20:30Z</time>
      </trkpt>
      <trkpt lat="47.689995" lon="2.0343266">
        <ele>147</ele>
        <time>2022-01-20T08:20:31Z</time>
      </trkpt>
      <trkpt lat="47.689983" lon="2.0343409">
        <ele>147</ele>
        <time>2022-01-20T08:20:32Z</time>
      </trkpt>
      <trkpt lat="47.689976" lon="2.034358">
        <ele>146</ele>
        <time>2022-01-20T08:20:33Z</time>
      </trkpt>
      <trkpt lat="47.68997" lon="2.0343702">
        <ele>146</ele>
        <time>2022-01-20T08:20:34Z</time>
      </trkpt>
      <trkpt lat="47.689957" lon="2.0343864">
        <ele>146</ele>
        <time>2022-01-20T08:20:35Z</time>
      </trkpt>
      <trkpt lat="47.68995" lon="2.0343962">
        <ele>146</ele>
        <time>2022-01-20T08:20:36Z</time>
      </trkpt>
      <trkpt lat="47.689938" lon="2.0344095">
        <ele>146</ele>
        <time>2022-01-20T08:20:37Z</time>
      </trkpt>
      <trkpt lat="47.68993" lon="2.0344145">
        <ele>146</ele>
        <time>2022-01-20T08:20:38Z</time>
      </trkpt>
      <trkpt lat="47.68992" lon="2.0344214">
        <ele>146</ele>
        <time>2022-01-20T08:20:39Z</time>
      </trkpt>
      <trkpt lat="47.68991" lon="2.0344336">
        <ele>146</ele>
        <time>2022-01-20T08:20:40Z</time>
      </trkpt>
      <trkpt lat="47.689903" lon="2.0344396">
        <ele>146</ele>
        <time>2022-01-20T08:20:41Z</time>
      </trkpt>
      <trkpt lat="47.6899" lon="2.0344467">
        <ele>147</ele>
        <time>2022-01-20T08:20:42Z</time>
      </trkpt>
      <trkpt lat="47.6899" lon="2.0344481">
        <ele>146</ele>
        <time>2022-01-20T08:20:43Z</time>
      </trkpt>
      <trkpt lat="47.689896" lon="2.0344582">
        <ele>146</ele>
        <time>2022-01-20T08:20:44Z</time>
      </trkpt>
      <trkpt lat="47.68989" lon="2.0344675">
        <ele>145</ele>
        <time>2022-01-20T08:20:45Z</time>
      </trkpt>
      <trkpt lat="47.689884" lon="2.0344772">
        <ele>145</ele>
        <time>2022-01-20T08:20:46Z</time>
      </trkpt>
      <trkpt lat="47.689873" lon="2.0344894">
        <ele>145</ele>
        <time>2022-01-20T08:20:47Z</time>
      </trkpt>
      <trkpt lat="47.689865" lon="2.0345027">
        <ele>146</ele>
        <time>2022-01-20T08:20:48Z</time>
      </trkpt>
      <trkpt lat="47.68986" lon="2.034514">
        <ele>146</ele>
        <time>2022-01-20T08:20:49Z</time>
      </trkpt>
      <trkpt lat="47.689857" lon="2.0345306">
        <ele>146</ele>
        <time>2022-01-20T08:20:50Z</time>
      </trkpt>
      <trkpt lat="47.68985" lon="2.0345466">
        <ele>146</ele>
        <time>2022-01-20T08:20:51Z</time>
      </trkpt>
      <trkpt lat="47.689846" lon="2.0345557">
        <ele>145</ele>
        <time>2022-01-20T08:20:52Z</time>
      </trkpt>
      <trkpt lat="47.68984" lon="2.0345702">
        <ele>145</ele>
        <time>2022-01-20T08:20:53Z</time>
      </trkpt>
      <trkpt lat="47.68983" lon="2.034582">
        <ele>145</ele>
        <time>2022-01-20T08:20:54Z</time>
      </trkpt>
      <trkpt lat="47.68982" lon="2.0345948">
        <ele>145</ele>
        <time>2022-01-20T08:20:55Z</time>
      </trkpt>
      <trkpt lat="47.689808" lon="2.0346103">
        <ele>145</ele>
        <time>2022-01-20T08:20:56Z</time>
      </trkpt>
      <trkpt lat="47.6898" lon="2.034622">
        <ele>145</ele>
        <time>2022-01-20T08:20:57Z</time>
      </trkpt>
      <trkpt lat="47.689796" lon="2.034634">
        <ele>145</ele>
        <time>2022-01-20T08:20:58Z</time>
      </trkpt>
      <trkpt lat="47.68979" lon="2.0346446">
        <ele>145</ele>
        <time>2022-01-20T08:20:59Z</time>
      </trkpt>
      <trkpt lat="47.689777" lon="2.0346584">
        <ele>145</ele>
        <time>2022-01-20T08:21:00Z</time>
      </trkpt>
      <trkpt lat="47.689774" lon="2.034673">
        <ele>145</ele>
        <time>2022-01-20T08:21:01Z</time>
      </trkpt>
      <trkpt lat="47.689762" lon="2.0346816">
        <ele>145</ele>
        <time>2022-01-20T08:21:02Z</time>
      </trkpt>
      <trkpt lat="47.689754" lon="2.0346868">
        <ele>145</ele>
        <time>2022-01-20T08:21:03Z</time>
      </trkpt>
      <trkpt lat="47.689743" lon="2.0346937">
        <ele>144</ele>
        <time>2022-01-20T08:21:04Z</time>
      </trkpt>
      <trkpt lat="47.68974" lon="2.0347023">
        <ele>144</ele>
        <time>2022-01-20T08:21:05Z</time>
      </trkpt>
      <trkpt lat="47.689735" lon="2.0347123">
        <ele>145</ele>
        <time>2022-01-20T08:21:06Z</time>
      </trkpt>
      <trkpt lat="47.68973" lon="2.0347226">
        <ele>146</ele>
        <time>2022-01-20T08:21:07Z</time>
      </trkpt>
      <trkpt lat="47.689728" lon="2.034727">
        <ele>146</ele>
        <time>2022-01-20T08:21:08Z</time>
      </trkpt>
      <trkpt lat="47.68972" lon="2.034734">
        <ele>146</ele>
        <time>2022-01-20T08:21:09Z</time>
      </trkpt>
      <trkpt lat="47.689713" lon="2.0347378">
        <ele>146</ele>
        <time>2022-01-20T08:21:10Z</time>
      </trkpt>
      <trkpt lat="47.689705" lon="2.0347478">
        <ele>146</ele>
        <time>2022-01-20T08:21:11Z</time>
      </trkpt>
      <trkpt lat="47.689697" lon="2.0347598">
        <ele>145</ele>
        <time>2022-01-20T08:21:12Z</time>
      </trkpt>
      <trkpt lat="47.68969" lon="2.0347662">
        <ele>145</ele>
        <time>2022-01-20T08:21:13Z</time>
      </trkpt>
      <trkpt lat="47.689682" lon="2.034775">
        <ele>145</ele>
        <time>2022-01-20T08:21:14Z</time>
      </trkpt>
      <trkpt lat="47.68967" lon="2.0347824">
        <ele>145</ele>
        <time>2022-01-20T08:21:15Z</time>
      </trkpt>
      <trkpt lat="47.689667" lon="2.0347848">
        <ele>145</ele>
        <time>2022-01-20T08:21:16Z</time>
      </trkpt>
      <trkpt lat="47.68966" lon="2.0347936">
        <ele>146</ele>
        <time>2022-01-20T08:21:17Z</time>
      </trkpt>
      <trkpt lat="47.68966" lon="2.034809">
        <ele>145</ele>
        <time>2022-01-20T08:21:18Z</time>
      </trkpt>
      <trkpt lat="47.68965" lon="2.0348206">
        <ele>146</ele>
        <time>2022-01-20T08:21:19Z</time>
      </trkpt>
      <trkpt lat="47.689644" lon="2.0348356">
        <ele>146</ele>
        <time>2022-01-20T08:21:20Z</time>
      </trkpt>
      <trkpt lat="47.689632" lon="2.034845">
        <ele>146</ele>
        <time>2022-01-20T08:21:21Z</time>
      </trkpt>
      <trkpt lat="47.68963" lon="2.0348458">
        <ele>146</ele>
        <time>2022-01-20T08:21:22Z</time>
      </trkpt>
      <trkpt lat="47.689625" lon="2.0348513">
        <ele>146</ele>
        <time>2022-01-20T08:21:23Z</time>
      </trkpt>
      <trkpt lat="47.689617" lon="2.0348604">
        <ele>146</ele>
        <time>2022-01-20T08:21:24Z</time>
      </trkpt>
      <trkpt lat="47.689613" lon="2.034871">
        <ele>146</ele>
        <time>2022-01-20T08:21:25Z</time>
      </trkpt>
      <trkpt lat="47.689613" lon="2.0348825">
        <ele>147</ele>
        <time>2022-01-20T08:21:26Z</time>
      </trkpt>
      <trkpt lat="47.689613" lon="2.0349004">
        <ele>147</ele>
        <time>2022-01-20T08:21:27Z</time>
      </trkpt>
      <trkpt lat="47.689613" lon="2.034915">
        <ele>147</ele>
        <time>2022-01-20T08:21:28Z</time>
      </trkpt>
      <trkpt lat="47.68961" lon="2.0349324">
        <ele>148</ele>
        <time>2022-01-20T08:21:29Z</time>
      </trkpt>
      <trkpt lat="47.689606" lon="2.0349455">
        <ele>148</ele>
        <time>2022-01-20T08:21:30Z</time>
      </trkpt>
      <trkpt lat="47.689594" lon="2.0349555">
        <ele>148</ele>
        <time>2022-01-20T08:21:31Z</time>
      </trkpt>
      <trkpt lat="47.689587" lon="2.034961">
        <ele>148</ele>
        <time>2022-01-20T08:21:32Z</time>
      </trkpt>
      <trkpt lat="47.68958" lon="2.0349717">
        <ele>148</ele>
        <time>2022-01-20T08:21:33Z</time>
      </trkpt>
      <trkpt lat="47.68958" lon="2.034981">
        <ele>147</ele>
        <time>2022-01-20T08:21:34Z</time>
      </trkpt>
      <trkpt lat="47.68957" lon="2.0349882">
        <ele>147</ele>
        <time>2022-01-20T08:21:35Z</time>
      </trkpt>
      <trkpt lat="47.68956" lon="2.0350008">
        <ele>147</ele>
        <time>2022-01-20T08:21:36Z</time>
      </trkpt>
      <trkpt lat="47.689556" lon="2.0350108">
        <ele>147</ele>
        <time>2022-01-20T08:21:37Z</time>
      </trkpt>
      <trkpt lat="47.68955" lon="2.0350225">
        <ele>147</ele>
        <time>2022-01-20T08:21:38Z</time>
      </trkpt>
      <trkpt lat="47.68955" lon="2.0350313">
        <ele>148</ele>
        <time>2022-01-20T08:21:39Z</time>
      </trkpt>
      <trkpt lat="47.68954" lon="2.035045">
        <ele>147</ele>
        <time>2022-01-20T08:21:40Z</time>
      </trkpt>
      <trkpt lat="47.68953" lon="2.035064">
        <ele>147</ele>
        <time>2022-01-20T08:21:41Z</time>
      </trkpt>
      <trkpt lat="47.68952" lon="2.0350845">
        <ele>147</ele>
        <time>2022-01-20T08:21:42Z</time>
      </trkpt>
      <trkpt lat="47.689514" lon="2.035104">
        <ele>147</ele>
        <time>2022-01-20T08:21:43Z</time>
      </trkpt>
      <trkpt lat="47.689507" lon="2.0351133">
        <ele>147</ele>
        <time>2022-01-20T08:21:44Z</time>
      </trkpt>
      <trkpt lat="47.6895" lon="2.0351238">
        <ele>147</ele>
        <time>2022-01-20T08:21:45Z</time>
      </trkpt>
      <trkpt lat="47.689487" lon="2.0351343">
        <ele>147</ele>
        <time>2022-01-20T08:21:46Z</time>
      </trkpt>
      <trkpt lat="47.689476" lon="2.0351405">
        <ele>147</ele>
        <time>2022-01-20T08:21:47Z</time>
      </trkpt>
      <trkpt lat="47.68947" lon="2.035151">
        <ele>147</ele>
        <time>2022-01-20T08:21:48Z</time>
      </trkpt>
      <trkpt lat="47.68946" lon="2.035158">
        <ele>147</ele>
        <time>2022-01-20T08:21:49Z</time>
      </trkpt>
      <trkpt lat="47.689457" lon="2.0351682">
        <ele>147</ele>
        <time>2022-01-20T08:21:50Z</time>
      </trkpt>
      <trkpt lat="47.689453" lon="2.035176">
        <ele>148</ele>
        <time>2022-01-20T08:21:51Z</time>
      </trkpt>
      <trkpt lat="47.689445" lon="2.0351872">
        <ele>148</ele>
        <time>2022-01-20T08:21:52Z</time>
      </trkpt>
      <trkpt lat="47.689438" lon="2.0351996">
        <ele>148</ele>
        <time>2022-01-20T08:21:53Z</time>
      </trkpt>
      <trkpt lat="47.68944" lon="2.035212">
        <ele>148</ele>
        <time>2022-01-20T08:21:54Z</time>
      </trkpt>
      <trkpt lat="47.68944" lon="2.0352237">
        <ele>148</ele>
        <time>2022-01-20T08:21:55Z</time>
      </trkpt>
      <trkpt lat="47.68944" lon="2.035234">
        <ele>148</ele>
        <time>2022-01-20T08:21:56Z</time>
      </trkpt>
      <trkpt lat="47.689438" lon="2.0352495">
        <ele>148</ele>
        <time>2022-01-20T08:21:57Z</time>
      </trkpt>
      <trkpt lat="47.68943" lon="2.0352592">
        <ele>148</ele>
        <time>2022-01-20T08:21:58Z</time>
      </trkpt>
      <trkpt lat="47.689426" lon="2.0352805">
        <ele>147</ele>
        <time>2022-01-20T08:21:59Z</time>
      </trkpt>
      <trkpt lat="47.689415" lon="2.0352945">
        <ele>147</ele>
        <time>2022-01-20T08:22:00Z</time>
      </trkpt>
      <trkpt lat="47.689407" lon="2.0353098">
        <ele>147</ele>
        <time>2022-01-20T08:22:01Z</time>
      </trkpt>
      <trkpt lat="47.6894" lon="2.0353236">
        <ele>147</ele>
        <time>2022-01-20T08:22:02Z</time>
      </trkpt>
      <trkpt lat="47.6894" lon="2.035343">
        <ele>147</ele>
        <time>2022-01-20T08:22:03Z</time>
      </trkpt>
      <trkpt lat="47.689407" lon="2.0353627">
        <ele>146</ele>
        <time>2022-01-20T08:22:04Z</time>
      </trkpt>
      <trkpt lat="47.68941" lon="2.0353804">
        <ele>146</ele>
        <time>2022-01-20T08:22:05Z</time>
      </trkpt>
      <trkpt lat="47.68941" lon="2.0353997">
        <ele>146</ele>
        <time>2022-01-20T08:22:06Z</time>
      </trkpt>
      <trkpt lat="47.68941" lon="2.0354235">
        <ele>146</ele>
        <time>2022-01-20T08:22:07Z</time>
      </trkpt>
      <trkpt lat="47.6894" lon="2.035439">
        <ele>146</ele>
        <time>2022-01-20T08:22:08Z</time>
      </trkpt>
      <trkpt lat="47.689396" lon="2.0354552">
        <ele>147</ele>
        <time>2022-01-20T08:22:09Z</time>
      </trkpt>
      <trkpt lat="47.68939" lon="2.0354705">
        <ele>146</ele>
        <time>2022-01-20T08:22:10Z</time>
      </trkpt>
      <trkpt lat="47.68939" lon="2.0354826">
        <ele>147</ele>
        <time>2022-01-20T08:22:11Z</time>
      </trkpt>
      <trkpt lat="47.689384" lon="2.0355">
        <ele>147</ele>
        <time>2022-01-20T08:22:12Z</time>
      </trkpt>
      <trkpt lat="47.68939" lon="2.035519">
        <ele>147</ele>
        <time>2022-01-20T08:22:13Z</time>
      </trkpt>
      <trkpt lat="47.689384" lon="2.0355375">
        <ele>147</ele>
        <time>2022-01-20T08:22:14Z</time>
      </trkpt>
      <trkpt lat="47.689384" lon="2.035556">
        <ele>147</ele>
        <time>2022-01-20T08:22:15Z</time>
      </trkpt>
      <trkpt lat="47.68938" lon="2.0355706">
        <ele>146</ele>
        <time>2022-01-20T08:22:16Z</time>
      </trkpt>
      <trkpt lat="47.689377" lon="2.035587">
        <ele>146</ele>
        <time>2022-01-20T08:22:17Z</time>
      </trkpt>
      <trkpt lat="47.689373" lon="2.0356038">
        <ele>145</ele>
        <time>2022-01-20T08:22:18Z</time>
      </trkpt>
      <trkpt lat="47.689373" lon="2.0356236">
        <ele>145</ele>
        <time>2022-01-20T08:22:19Z</time>
      </trkpt>
      <trkpt lat="47.68937" lon="2.0356386">
        <ele>145</ele>
        <time>2022-01-20T08:22:20Z</time>
      </trkpt>
      <trkpt lat="47.68937" lon="2.0356543">
        <ele>144</ele>
        <time>2022-01-20T08:22:21Z</time>
      </trkpt>
      <trkpt lat="47.68936" lon="2.0356705">
        <ele>144</ele>
        <time>2022-01-20T08:22:22Z</time>
      </trkpt>
      <trkpt lat="47.689358" lon="2.035685">
        <ele>143</ele>
        <time>2022-01-20T08:22:23Z</time>
      </trkpt>
      <trkpt lat="47.689358" lon="2.035698">
        <ele>143</ele>
        <time>2022-01-20T08:22:24Z</time>
      </trkpt>
      <trkpt lat="47.689358" lon="2.0357149">
        <ele>143</ele>
        <time>2022-01-20T08:22:25Z</time>
      </trkpt>
      <trkpt lat="47.68936" lon="2.0357344">
        <ele>143</ele>
        <time>2022-01-20T08:22:26Z</time>
      </trkpt>
      <trkpt lat="47.68936" lon="2.035749">
        <ele>143</ele>
        <time>2022-01-20T08:22:27Z</time>
      </trkpt>
      <trkpt lat="47.68936" lon="2.0357678">
        <ele>143</ele>
        <time>2022-01-20T08:22:28Z</time>
      </trkpt>
      <trkpt lat="47.68936" lon="2.0357888">
        <ele>143</ele>
        <time>2022-01-20T08:22:29Z</time>
      </trkpt>
      <trkpt lat="47.689358" lon="2.0358083">
        <ele>143</ele>
        <time>2022-01-20T08:22:30Z</time>
      </trkpt>
      <trkpt lat="47.689354" lon="2.035824">
        <ele>143</ele>
        <time>2022-01-20T08:22:31Z</time>
      </trkpt>
      <trkpt lat="47.68935" lon="2.035837">
        <ele>144</ele>
        <time>2022-01-20T08:22:32Z</time>
      </trkpt>
      <trkpt lat="47.689346" lon="2.035853">
        <ele>144</ele>
        <time>2022-01-20T08:22:33Z</time>
      </trkpt>
      <trkpt lat="47.689346" lon="2.0358675">
        <ele>144</ele>
        <time>2022-01-20T08:22:34Z</time>
      </trkpt>
      <trkpt lat="47.689346" lon="2.0358882">
        <ele>144</ele>
        <time>2022-01-20T08:22:35Z</time>
      </trkpt>
      <trkpt lat="47.689342" lon="2.035905">
        <ele>144</ele>
        <time>2022-01-20T08:22:36Z</time>
      </trkpt>
      <trkpt lat="47.689342" lon="2.0359182">
        <ele>144</ele>
        <time>2022-01-20T08:22:37Z</time>
      </trkpt>
      <trkpt lat="47.68934" lon="2.0359342">
        <ele>144</ele>
        <time>2022-01-20T08:22:38Z</time>
      </trkpt>
      <trkpt lat="47.689342" lon="2.0359519">
        <ele>144</ele>
        <time>2022-01-20T08:22:39Z</time>
      </trkpt>
      <trkpt lat="47.689346" lon="2.0359712">
        <ele>144</ele>
        <time>2022-01-20T08:22:40Z</time>
      </trkpt>
      <trkpt lat="47.68935" lon="2.0359907">
        <ele>144</ele>
        <time>2022-01-20T08:22:41Z</time>
      </trkpt>
      <trkpt lat="47.68935" lon="2.03601">
        <ele>144</ele>
        <time>2022-01-20T08:22:42Z</time>
      </trkpt>
      <trkpt lat="47.68935" lon="2.0360281">
        <ele>144</ele>
        <time>2022-01-20T08:22:43Z</time>
      </trkpt>
      <trkpt lat="47.68935" lon="2.0360458">
        <ele>144</ele>
        <time>2022-01-20T08:22:44Z</time>
      </trkpt>
      <trkpt lat="47.68935" lon="2.036063">
        <ele>144</ele>
        <time>2022-01-20T08:22:45Z</time>
      </trkpt>
      <trkpt lat="47.689346" lon="2.0360785">
        <ele>144</ele>
        <time>2022-01-20T08:22:46Z</time>
      </trkpt>
      <trkpt lat="47.689342" lon="2.0360935">
        <ele>144</ele>
        <time>2022-01-20T08:22:47Z</time>
      </trkpt>
      <trkpt lat="47.689335" lon="2.0361075">
        <ele>144</ele>
        <time>2022-01-20T08:22:48Z</time>
      </trkpt>
      <trkpt lat="47.689327" lon="2.03612">
        <ele>144</ele>
        <time>2022-01-20T08:22:49Z</time>
      </trkpt>
      <trkpt lat="47.689323" lon="2.0361354">
        <ele>144</ele>
        <time>2022-01-20T08:22:50Z</time>
      </trkpt>
      <trkpt lat="47.68932" lon="2.0361516">
        <ele>144</ele>
        <time>2022-01-20T08:22:51Z</time>
      </trkpt>
      <trkpt lat="47.689312" lon="2.036168">
        <ele>144</ele>
        <time>2022-01-20T08:22:52Z</time>
      </trkpt>
      <trkpt lat="47.68931" lon="2.0361862">
        <ele>144</ele>
        <time>2022-01-20T08:22:53Z</time>
      </trkpt>
      <trkpt lat="47.68931" lon="2.0362008">
        <ele>145</ele>
        <time>2022-01-20T08:22:54Z</time>
      </trkpt>
      <trkpt lat="47.6893" lon="2.0362134">
        <ele>145</ele>
        <time>2022-01-20T08:22:55Z</time>
      </trkpt>
      <trkpt lat="47.689297" lon="2.036229">
        <ele>145</ele>
        <time>2022-01-20T08:22:56Z</time>
      </trkpt>
      <trkpt lat="47.689293" lon="2.036245">
        <ele>144</ele>
        <time>2022-01-20T08:22:57Z</time>
      </trkpt>
      <trkpt lat="47.68929" lon="2.03626">
        <ele>144</ele>
        <time>2022-01-20T08:22:58Z</time>
      </trkpt>
      <trkpt lat="47.68929" lon="2.0362763">
        <ele>144</ele>
        <time>2022-01-20T08:22:59Z</time>
      </trkpt>
      <trkpt lat="47.689285" lon="2.0362952">
        <ele>144</ele>
        <time>2022-01-20T08:23:00Z</time>
      </trkpt>
      <trkpt lat="47.68928" lon="2.0363126">
        <ele>144</ele>
        <time>2022-01-20T08:23:01Z</time>
      </trkpt>
      <trkpt lat="47.689278" lon="2.0363295">
        <ele>144</ele>
        <time>2022-01-20T08:23:02Z</time>
      </trkpt>
      <trkpt lat="47.689274" lon="2.0363443">
        <ele>145</ele>
        <time>2022-01-20T08:23:03Z</time>
      </trkpt>
      <trkpt lat="47.68927" lon="2.0363564">
        <ele>146</ele>
        <time>2022-01-20T08:23:04Z</time>
      </trkpt>
      <trkpt lat="47.689274" lon="2.03637">
        <ele>146</ele>
        <time>2022-01-20T08:23:05Z</time>
      </trkpt>
      <trkpt lat="47.689274" lon="2.0363817">
        <ele>145</ele>
        <time>2022-01-20T08:23:06Z</time>
      </trkpt>
      <trkpt lat="47.689278" lon="2.036393">
        <ele>145</ele>
        <time>2022-01-20T08:23:07Z</time>
      </trkpt>
      <trkpt lat="47.689278" lon="2.036393">
        <ele>145</ele>
        <time>2022-01-20T08:23:08Z</time>
      </trkpt>
      <trkpt lat="47.689274" lon="2.0364122">
        <ele>145</ele>
        <time>2022-01-20T08:23:09Z</time>
      </trkpt>
      <trkpt lat="47.689274" lon="2.0364249">
        <ele>145</ele>
        <time>2022-01-20T08:23:10Z</time>
      </trkpt>
      <trkpt lat="47.68927" lon="2.0364394">
        <ele>144</ele>
        <time>2022-01-20T08:23:11Z</time>
      </trkpt>
      <trkpt lat="47.689266" lon="2.0364506">
        <ele>145</ele>
        <time>2022-01-20T08:23:12Z</time>
      </trkpt>
      <trkpt lat="47.689262" lon="2.036466">
        <ele>145</ele>
        <time>2022-01-20T08:23:13Z</time>
      </trkpt>
      <trkpt lat="47.68926" lon="2.0364861">
        <ele>145</ele>
        <time>2022-01-20T08:23:14Z</time>
      </trkpt>
      <trkpt lat="47.689262" lon="2.0365078">
        <ele>144</ele>
        <time>2022-01-20T08:23:15Z</time>
      </trkpt>
      <trkpt lat="47.689262" lon="2.0365264">
        <ele>144</ele>
        <time>2022-01-20T08:23:16Z</time>
      </trkpt>
      <trkpt lat="47.689262" lon="2.0365422">
        <ele>145</ele>
        <time>2022-01-20T08:23:17Z</time>
      </trkpt>
      <trkpt lat="47.68926" lon="2.036555">
        <ele>144</ele>
        <time>2022-01-20T08:23:18Z</time>
      </trkpt>
      <trkpt lat="47.689255" lon="2.036566">
        <ele>145</ele>
        <time>2022-01-20T08:23:19Z</time>
      </trkpt>
      <trkpt lat="47.68925" lon="2.0365784">
        <ele>145</ele>
        <time>2022-01-20T08:23:20Z</time>
      </trkpt>
      <trkpt lat="47.68925" lon="2.036594">
        <ele>145</ele>
        <time>2022-01-20T08:23:21Z</time>
      </trkpt>
      <trkpt lat="47.689247" lon="2.0366063">
        <ele>145</ele>
        <time>2022-01-20T08:23:22Z</time>
      </trkpt>
      <trkpt lat="47.689243" lon="2.0366235">
        <ele>145</ele>
        <time>2022-01-20T08:23:23Z</time>
      </trkpt>
      <trkpt lat="47.689243" lon="2.036639">
        <ele>144</ele>
        <time>2022-01-20T08:23:24Z</time>
      </trkpt>
      <trkpt lat="47.68924" lon="2.0366554">
        <ele>144</ele>
        <time>2022-01-20T08:23:25Z</time>
      </trkpt>
      <trkpt lat="47.68924" lon="2.036673">
        <ele>144</ele>
        <time>2022-01-20T08:23:26Z</time>
      </trkpt>
      <trkpt lat="47.68924" lon="2.0366905">
        <ele>143</ele>
        <time>2022-01-20T08:23:27Z</time>
      </trkpt>
      <trkpt lat="47.68924" lon="2.036706">
        <ele>143</ele>
        <time>2022-01-20T08:23:28Z</time>
      </trkpt>
      <trkpt lat="47.68924" lon="2.0367231">
        <ele>143</ele>
        <time>2022-01-20T08:23:29Z</time>
      </trkpt>
      <trkpt lat="47.68924" lon="2.0367377">
        <ele>142</ele>
        <time>2022-01-20T08:23:30Z</time>
      </trkpt>
      <trkpt lat="47.68924" lon="2.0367513">
        <ele>142</ele>
        <time>2022-01-20T08:23:31Z</time>
      </trkpt>
      <trkpt lat="47.689236" lon="2.0367663">
        <ele>142</ele>
        <time>2022-01-20T08:23:32Z</time>
      </trkpt>
      <trkpt lat="47.689236" lon="2.036785">
        <ele>142</ele>
        <time>2022-01-20T08:23:33Z</time>
      </trkpt>
      <trkpt lat="47.68923" lon="2.036806">
        <ele>142</ele>
        <time>2022-01-20T08:23:34Z</time>
      </trkpt>
      <trkpt lat="47.68923" lon="2.0368278">
        <ele>142</ele>
        <time>2022-01-20T08:23:35Z</time>
      </trkpt>
      <trkpt lat="47.68923" lon="2.0368452">
        <ele>142</ele>
        <time>2022-01-20T08:23:36Z</time>
      </trkpt>
      <trkpt lat="47.68923" lon="2.0368626">
        <ele>143</ele>
        <time>2022-01-20T08:23:37Z</time>
      </trkpt>
      <trkpt lat="47.68923" lon="2.0368786">
        <ele>142</ele>
        <time>2022-01-20T08:23:38Z</time>
      </trkpt>
      <trkpt lat="47.689228" lon="2.036898">
        <ele>142</ele>
        <time>2022-01-20T08:23:39Z</time>
      </trkpt>
      <trkpt lat="47.689228" lon="2.0369155">
        <ele>142</ele>
        <time>2022-01-20T08:23:40Z</time>
      </trkpt>
      <trkpt lat="47.689228" lon="2.0369349">
        <ele>142</ele>
        <time>2022-01-20T08:23:41Z</time>
      </trkpt>
      <trkpt lat="47.689224" lon="2.0369525">
        <ele>142</ele>
        <time>2022-01-20T08:23:42Z</time>
      </trkpt>
      <trkpt lat="47.68922" lon="2.0369685">
        <ele>141</ele>
        <time>2022-01-20T08:23:43Z</time>
      </trkpt>
      <trkpt lat="47.68922" lon="2.036983">
        <ele>141</ele>
        <time>2022-01-20T08:23:44Z</time>
      </trkpt>
      <trkpt lat="47.68922" lon="2.0370004">
        <ele>141</ele>
        <time>2022-01-20T08:23:45Z</time>
      </trkpt>
      <trkpt lat="47.689217" lon="2.0370178">
        <ele>141</ele>
        <time>2022-01-20T08:23:46Z</time>
      </trkpt>
      <trkpt lat="47.689213" lon="2.037034">
        <ele>141</ele>
        <time>2022-01-20T08:23:47Z</time>
      </trkpt>
      <trkpt lat="47.689213" lon="2.0370476">
        <ele>141</ele>
        <time>2022-01-20T08:23:48Z</time>
      </trkpt>
      <trkpt lat="47.689213" lon="2.0370674">
        <ele>141</ele>
        <time>2022-01-20T08:23:49Z</time>
      </trkpt>
      <trkpt lat="47.68921" lon="2.0370848">
        <ele>141</ele>
        <time>2022-01-20T08:23:50Z</time>
      </trkpt>
      <trkpt lat="47.68921" lon="2.0370998">
        <ele>141</ele>
        <time>2022-01-20T08:23:51Z</time>
      </trkpt>
      <trkpt lat="47.689205" lon="2.0371172">
        <ele>141</ele>
        <time>2022-01-20T08:23:52Z</time>
      </trkpt>
      <trkpt lat="47.68921" lon="2.0371327">
        <ele>141</ele>
        <time>2022-01-20T08:23:53Z</time>
      </trkpt>
      <trkpt lat="47.68921" lon="2.0371497">
        <ele>141</ele>
        <time>2022-01-20T08:23:54Z</time>
      </trkpt>
      <trkpt lat="47.68921" lon="2.0371654">
        <ele>141</ele>
        <time>2022-01-20T08:23:55Z</time>
      </trkpt>
      <trkpt lat="47.68921" lon="2.037178">
        <ele>141</ele>
        <time>2022-01-20T08:23:56Z</time>
      </trkpt>
      <trkpt lat="47.68921" lon="2.0371954">
        <ele>142</ele>
        <time>2022-01-20T08:23:57Z</time>
      </trkpt>
      <trkpt lat="47.689205" lon="2.037216">
        <ele>143</ele>
        <time>2022-01-20T08:23:58Z</time>
      </trkpt>
      <trkpt lat="47.6892" lon="2.0372357">
        <ele>143</ele>
        <time>2022-01-20T08:23:59Z</time>
      </trkpt>
      <trkpt lat="47.689198" lon="2.0372536">
        <ele>143</ele>
        <time>2022-01-20T08:24:00Z</time>
      </trkpt>
      <trkpt lat="47.689198" lon="2.0372674">
        <ele>143</ele>
        <time>2022-01-20T08:24:01Z</time>
      </trkpt>
      <trkpt lat="47.689198" lon="2.0372863">
        <ele>143</ele>
        <time>2022-01-20T08:24:02Z</time>
      </trkpt>
      <trkpt lat="47.689194" lon="2.0373023">
        <ele>143</ele>
        <time>2022-01-20T08:24:03Z</time>
      </trkpt>
      <trkpt lat="47.689194" lon="2.0373209">
        <ele>143</ele>
        <time>2022-01-20T08:24:04Z</time>
      </trkpt>
      <trkpt lat="47.68919" lon="2.0373375">
        <ele>143</ele>
        <time>2022-01-20T08:24:05Z</time>
      </trkpt>
      <trkpt lat="47.689186" lon="2.037355">
        <ele>143</ele>
        <time>2022-01-20T08:24:06Z</time>
      </trkpt>
      <trkpt lat="47.689186" lon="2.037373">
        <ele>142</ele>
        <time>2022-01-20T08:24:07Z</time>
      </trkpt>
      <trkpt lat="47.689186" lon="2.0373874">
        <ele>142</ele>
        <time>2022-01-20T08:24:08Z</time>
      </trkpt>
      <trkpt lat="47.689182" lon="2.0374043">
        <ele>142</ele>
        <time>2022-01-20T08:24:09Z</time>
      </trkpt>
      <trkpt lat="47.689182" lon="2.037419">
        <ele>142</ele>
        <time>2022-01-20T08:24:10Z</time>
      </trkpt>
      <trkpt lat="47.689182" lon="2.0374353">
        <ele>142</ele>
        <time>2022-01-20T08:24:11Z</time>
      </trkpt>
      <trkpt lat="47.68918" lon="2.0374503">
        <ele>142</ele>
        <time>2022-01-20T08:24:12Z</time>
      </trkpt>
      <trkpt lat="47.689175" lon="2.0374677">
        <ele>142</ele>
        <time>2022-01-20T08:24:13Z</time>
      </trkpt>
      <trkpt lat="47.68918" lon="2.0374837">
        <ele>141</ele>
        <time>2022-01-20T08:24:14Z</time>
      </trkpt>
      <trkpt lat="47.689182" lon="2.0374951">
        <ele>141</ele>
        <time>2022-01-20T08:24:15Z</time>
      </trkpt>
      <trkpt lat="47.68918" lon="2.0375113">
        <ele>141</ele>
        <time>2022-01-20T08:24:16Z</time>
      </trkpt>
      <trkpt lat="47.68918" lon="2.0375307">
        <ele>141</ele>
        <time>2022-01-20T08:24:17Z</time>
      </trkpt>
      <trkpt lat="47.68918" lon="2.0375488">
        <ele>140</ele>
        <time>2022-01-20T08:24:18Z</time>
      </trkpt>
      <trkpt lat="47.689182" lon="2.0375679">
        <ele>140</ele>
        <time>2022-01-20T08:24:19Z</time>
      </trkpt>
      <trkpt lat="47.689182" lon="2.0375836">
        <ele>140</ele>
        <time>2022-01-20T08:24:20Z</time>
      </trkpt>
      <trkpt lat="47.689182" lon="2.037599">
        <ele>140</ele>
        <time>2022-01-20T08:24:21Z</time>
      </trkpt>
      <trkpt lat="47.689182" lon="2.0376177">
        <ele>140</ele>
        <time>2022-01-20T08:24:22Z</time>
      </trkpt>
      <trkpt lat="47.689186" lon="2.0376344">
        <ele>140</ele>
        <time>2022-01-20T08:24:23Z</time>
      </trkpt>
      <trkpt lat="47.689186" lon="2.0376532">
        <ele>140</ele>
        <time>2022-01-20T08:24:24Z</time>
      </trkpt>
      <trkpt lat="47.689186" lon="2.0376728">
        <ele>140</ele>
        <time>2022-01-20T08:24:25Z</time>
      </trkpt>
      <trkpt lat="47.689186" lon="2.0376909">
        <ele>141</ele>
        <time>2022-01-20T08:24:26Z</time>
      </trkpt>
      <trkpt lat="47.689186" lon="2.0377073">
        <ele>141</ele>
        <time>2022-01-20T08:24:27Z</time>
      </trkpt>
      <trkpt lat="47.689182" lon="2.0377262">
        <ele>141</ele>
        <time>2022-01-20T08:24:28Z</time>
      </trkpt>
      <trkpt lat="47.68918" lon="2.0377486">
        <ele>141</ele>
        <time>2022-01-20T08:24:29Z</time>
      </trkpt>
      <trkpt lat="47.68918" lon="2.0377717">
        <ele>141</ele>
        <time>2022-01-20T08:24:30Z</time>
      </trkpt>
      <trkpt lat="47.689175" lon="2.0377913">
        <ele>141</ele>
        <time>2022-01-20T08:24:31Z</time>
      </trkpt>
      <trkpt lat="47.68917" lon="2.037809">
        <ele>141</ele>
        <time>2022-01-20T08:24:32Z</time>
      </trkpt>
      <trkpt lat="47.68917" lon="2.037826">
        <ele>141</ele>
        <time>2022-01-20T08:24:33Z</time>
      </trkpt>
      <trkpt lat="47.68917" lon="2.0378428">
        <ele>141</ele>
        <time>2022-01-20T08:24:34Z</time>
      </trkpt>
      <trkpt lat="47.68917" lon="2.0378554">
        <ele>141</ele>
        <time>2022-01-20T08:24:35Z</time>
      </trkpt>
      <trkpt lat="47.689167" lon="2.0378664">
        <ele>141</ele>
        <time>2022-01-20T08:24:36Z</time>
      </trkpt>
      <trkpt lat="47.689167" lon="2.0378795">
        <ele>141</ele>
        <time>2022-01-20T08:24:37Z</time>
      </trkpt>
      <trkpt lat="47.689167" lon="2.0378938">
        <ele>141</ele>
        <time>2022-01-20T08:24:38Z</time>
      </trkpt>
      <trkpt lat="47.689163" lon="2.0379105">
        <ele>142</ele>
        <time>2022-01-20T08:24:39Z</time>
      </trkpt>
      <trkpt lat="47.689156" lon="2.037921">
        <ele>142</ele>
        <time>2022-01-20T08:24:40Z</time>
      </trkpt>
      <trkpt lat="47.68915" lon="2.0379364">
        <ele>142</ele>
        <time>2022-01-20T08:24:41Z</time>
      </trkpt>
      <trkpt lat="47.689148" lon="2.0379562">
        <ele>143</ele>
        <time>2022-01-20T08:24:42Z</time>
      </trkpt>
      <trkpt lat="47.689144" lon="2.037975">
        <ele>143</ele>
        <time>2022-01-20T08:24:43Z</time>
      </trkpt>
      <trkpt lat="47.689144" lon="2.037992">
        <ele>143</ele>
        <time>2022-01-20T08:24:44Z</time>
      </trkpt>
      <trkpt lat="47.689144" lon="2.0380085">
        <ele>143</ele>
        <time>2022-01-20T08:24:45Z</time>
      </trkpt>
      <trkpt lat="47.689144" lon="2.0380182">
        <ele>144</ele>
        <time>2022-01-20T08:24:46Z</time>
      </trkpt>
      <trkpt lat="47.68914" lon="2.0380316">
        <ele>144</ele>
        <time>2022-01-20T08:24:47Z</time>
      </trkpt>
      <trkpt lat="47.68914" lon="2.0380428">
        <ele>143</ele>
        <time>2022-01-20T08:24:48Z</time>
      </trkpt>
      <trkpt lat="47.68914" lon="2.038055">
        <ele>144</ele>
        <time>2022-01-20T08:24:49Z</time>
      </trkpt>
      <trkpt lat="47.689137" lon="2.0380702">
        <ele>144</ele>
        <time>2022-01-20T08:24:50Z</time>
      </trkpt>
      <trkpt lat="47.689137" lon="2.0380862">
        <ele>144</ele>
        <time>2022-01-20T08:24:51Z</time>
      </trkpt>
      <trkpt lat="47.689137" lon="2.0381">
        <ele>144</ele>
        <time>2022-01-20T08:24:52Z</time>
      </trkpt>
      <trkpt lat="47.68914" lon="2.0381122">
        <ele>145</ele>
        <time>2022-01-20T08:24:53Z</time>
      </trkpt>
      <trkpt lat="47.68914" lon="2.0381222">
        <ele>145</ele>
        <time>2022-01-20T08:24:54Z</time>
      </trkpt>
      <trkpt lat="47.689137" lon="2.0381312">
        <ele>145</ele>
        <time>2022-01-20T08:24:55Z</time>
      </trkpt>
      <trkpt lat="47.689133" lon="2.0381422">
        <ele>144</ele>
        <time>2022-01-20T08:24:56Z</time>
      </trkpt>
      <trkpt lat="47.689133" lon="2.0381422">
        <ele>144</ele>
        <time>2022-01-20T08:24:57Z</time>
      </trkpt>
      <trkpt lat="47.689125" lon="2.0381699">
        <ele>144</ele>
        <time>2022-01-20T08:24:58Z</time>
      </trkpt>
      <trkpt lat="47.68913" lon="2.0381892">
        <ele>145</ele>
        <time>2022-01-20T08:24:59Z</time>
      </trkpt>
      <trkpt lat="47.689125" lon="2.0382063">
        <ele>145</ele>
        <time>2022-01-20T08:25:00Z</time>
      </trkpt>
      <trkpt lat="47.68912" lon="2.0382218">
        <ele>145</ele>
        <time>2022-01-20T08:25:01Z</time>
      </trkpt>
      <trkpt lat="47.689117" lon="2.038235">
        <ele>144</ele>
        <time>2022-01-20T08:25:02Z</time>
      </trkpt>
      <trkpt lat="47.689114" lon="2.0382526">
        <ele>144</ele>
        <time>2022-01-20T08:25:03Z</time>
      </trkpt>
      <trkpt lat="47.68911" lon="2.0382667">
        <ele>145</ele>
        <time>2022-01-20T08:25:04Z</time>
      </trkpt>
      <trkpt lat="47.68911" lon="2.0382822">
        <ele>145</ele>
        <time>2022-01-20T08:25:05Z</time>
      </trkpt>
      <trkpt lat="47.68911" lon="2.0382965">
        <ele>145</ele>
        <time>2022-01-20T08:25:06Z</time>
      </trkpt>
      <trkpt lat="47.689106" lon="2.0383139">
        <ele>145</ele>
        <time>2022-01-20T08:25:07Z</time>
      </trkpt>
      <trkpt lat="47.689106" lon="2.0383286">
        <ele>145</ele>
        <time>2022-01-20T08:25:08Z</time>
      </trkpt>
      <trkpt lat="47.689106" lon="2.038346">
        <ele>145</ele>
        <time>2022-01-20T08:25:09Z</time>
      </trkpt>
      <trkpt lat="47.689106" lon="2.0383697">
        <ele>145</ele>
        <time>2022-01-20T08:25:10Z</time>
      </trkpt>
      <trkpt lat="47.689102" lon="2.038389">
        <ele>145</ele>
        <time>2022-01-20T08:25:11Z</time>
      </trkpt>
      <trkpt lat="47.689106" lon="2.0384073">
        <ele>144</ele>
        <time>2022-01-20T08:25:12Z</time>
      </trkpt>
      <trkpt lat="47.689106" lon="2.0384212">
        <ele>145</ele>
        <time>2022-01-20T08:25:13Z</time>
      </trkpt>
      <trkpt lat="47.689106" lon="2.0384402">
        <ele>145</ele>
        <time>2022-01-20T08:25:14Z</time>
      </trkpt>
      <trkpt lat="47.689102" lon="2.0384595">
        <ele>144</ele>
        <time>2022-01-20T08:25:15Z</time>
      </trkpt>
      <trkpt lat="47.689095" lon="2.0384758">
        <ele>144</ele>
        <time>2022-01-20T08:25:16Z</time>
      </trkpt>
      <trkpt lat="47.689095" lon="2.0384955">
        <ele>144</ele>
        <time>2022-01-20T08:25:17Z</time>
      </trkpt>
      <trkpt lat="47.68909" lon="2.0385144">
        <ele>145</ele>
        <time>2022-01-20T08:25:18Z</time>
      </trkpt>
      <trkpt lat="47.68909" lon="2.038534">
        <ele>145</ele>
        <time>2022-01-20T08:25:19Z</time>
      </trkpt>
      <trkpt lat="47.689087" lon="2.0385513">
        <ele>145</ele>
        <time>2022-01-20T08:25:20Z</time>
      </trkpt>
      <trkpt lat="47.689087" lon="2.0385723">
        <ele>145</ele>
        <time>2022-01-20T08:25:21Z</time>
      </trkpt>
      <trkpt lat="47.68909" lon="2.0385916">
        <ele>144</ele>
        <time>2022-01-20T08:25:22Z</time>
      </trkpt>
      <trkpt lat="47.689087" lon="2.0386143">
        <ele>145</ele>
        <time>2022-01-20T08:25:23Z</time>
      </trkpt>
      <trkpt lat="47.689087" lon="2.038635">
        <ele>144</ele>
        <time>2022-01-20T08:25:24Z</time>
      </trkpt>
      <trkpt lat="47.68909" lon="2.038654">
        <ele>145</ele>
        <time>2022-01-20T08:25:25Z</time>
      </trkpt>
      <trkpt lat="47.68909" lon="2.0386722">
        <ele>145</ele>
        <time>2022-01-20T08:25:26Z</time>
      </trkpt>
      <trkpt lat="47.689087" lon="2.0386918">
        <ele>145</ele>
        <time>2022-01-20T08:25:27Z</time>
      </trkpt>
      <trkpt lat="47.689087" lon="2.0387053">
        <ele>145</ele>
        <time>2022-01-20T08:25:28Z</time>
      </trkpt>
      <trkpt lat="47.689087" lon="2.0387173">
        <ele>145</ele>
        <time>2022-01-20T08:25:29Z</time>
      </trkpt>
      <trkpt lat="47.689087" lon="2.0387332">
        <ele>145</ele>
        <time>2022-01-20T08:25:30Z</time>
      </trkpt>
      <trkpt lat="47.689087" lon="2.0387495">
        <ele>145</ele>
        <time>2022-01-20T08:25:31Z</time>
      </trkpt>
      <trkpt lat="47.689087" lon="2.038768">
        <ele>145</ele>
        <time>2022-01-20T08:25:32Z</time>
      </trkpt>
      <trkpt lat="47.689087" lon="2.0387843">
        <ele>145</ele>
        <time>2022-01-20T08:25:33Z</time>
      </trkpt>
      <trkpt lat="47.689087" lon="2.038799">
        <ele>145</ele>
        <time>2022-01-20T08:25:34Z</time>
      </trkpt>
      <trkpt lat="47.689083" lon="2.0388176">
        <ele>145</ele>
        <time>2022-01-20T08:25:35Z</time>
      </trkpt>
      <trkpt lat="47.689087" lon="2.0388358">
        <ele>146</ele>
        <time>2022-01-20T08:25:36Z</time>
      </trkpt>
      <trkpt lat="47.689083" lon="2.0388546">
        <ele>145</ele>
        <time>2022-01-20T08:25:37Z</time>
      </trkpt>
      <trkpt lat="47.68908" lon="2.038872">
        <ele>145</ele>
        <time>2022-01-20T08:25:38Z</time>
      </trkpt>
      <trkpt lat="47.68908" lon="2.0388877">
        <ele>145</ele>
        <time>2022-01-20T08:25:39Z</time>
      </trkpt>
      <trkpt lat="47.689075" lon="2.0389066">
        <ele>145</ele>
        <time>2022-01-20T08:25:40Z</time>
      </trkpt>
      <trkpt lat="47.689075" lon="2.0389218">
        <ele>145</ele>
        <time>2022-01-20T08:25:41Z</time>
      </trkpt>
      <trkpt lat="47.689075" lon="2.0389423">
        <ele>145</ele>
        <time>2022-01-20T08:25:42Z</time>
      </trkpt>
      <trkpt lat="47.68907" lon="2.0389626">
        <ele>145</ele>
        <time>2022-01-20T08:25:43Z</time>
      </trkpt>
      <trkpt lat="47.68907" lon="2.0389822">
        <ele>146</ele>
        <time>2022-01-20T08:25:44Z</time>
      </trkpt>
      <trkpt lat="47.68907" lon="2.039001">
        <ele>145</ele>
        <time>2022-01-20T08:25:45Z</time>
      </trkpt>
      <trkpt lat="47.689068" lon="2.0390189">
        <ele>145</ele>
        <time>2022-01-20T08:25:46Z</time>
      </trkpt>
      <trkpt lat="47.689064" lon="2.0390337">
        <ele>146</ele>
        <time>2022-01-20T08:25:47Z</time>
      </trkpt>
      <trkpt lat="47.68906" lon="2.0390491">
        <ele>145</ele>
        <time>2022-01-20T08:25:48Z</time>
      </trkpt>
      <trkpt lat="47.689053" lon="2.039064">
        <ele>145</ele>
        <time>2022-01-20T08:25:49Z</time>
      </trkpt>
      <trkpt lat="47.68905" lon="2.0390801">
        <ele>145</ele>
        <time>2022-01-20T08:25:50Z</time>
      </trkpt>
      <trkpt lat="47.68905" lon="2.0390966">
        <ele>145</ele>
        <time>2022-01-20T08:25:51Z</time>
      </trkpt>
      <trkpt lat="47.689045" lon="2.0391145">
        <ele>145</ele>
        <time>2022-01-20T08:25:52Z</time>
      </trkpt>
      <trkpt lat="47.68904" lon="2.0391278">
        <ele>145</ele>
        <time>2022-01-20T08:25:53Z</time>
      </trkpt>
      <trkpt lat="47.689037" lon="2.039135">
        <ele>145</ele>
        <time>2022-01-20T08:25:54Z</time>
      </trkpt>
      <trkpt lat="47.689026" lon="2.0391388">
        <ele>145</ele>
        <time>2022-01-20T08:25:55Z</time>
      </trkpt>
      <trkpt lat="47.689022" lon="2.0391436">
        <ele>145</ele>
        <time>2022-01-20T08:25:56Z</time>
      </trkpt>
      <trkpt lat="47.689014" lon="2.03915">
        <ele>145</ele>
        <time>2022-01-20T08:25:57Z</time>
      </trkpt>
      <trkpt lat="47.689003" lon="2.0391567">
        <ele>145</ele>
        <time>2022-01-20T08:25:58Z</time>
      </trkpt>
      <trkpt lat="47.689" lon="2.039168">
        <ele>145</ele>
        <time>2022-01-20T08:25:59Z</time>
      </trkpt>
      <trkpt lat="47.689" lon="2.0391784">
        <ele>145</ele>
        <time>2022-01-20T08:26:00Z</time>
      </trkpt>
      <trkpt lat="47.68899" lon="2.0391912">
        <ele>145</ele>
        <time>2022-01-20T08:26:01Z</time>
      </trkpt>
      <trkpt lat="47.688984" lon="2.0391998">
        <ele>146</ele>
        <time>2022-01-20T08:26:02Z</time>
      </trkpt>
      <trkpt lat="47.688976" lon="2.0392098">
        <ele>146</ele>
        <time>2022-01-20T08:26:03Z</time>
      </trkpt>
      <trkpt lat="47.688972" lon="2.0392184">
        <ele>146</ele>
        <time>2022-01-20T08:26:04Z</time>
      </trkpt>
      <trkpt lat="47.688965" lon="2.03923">
        <ele>146</ele>
        <time>2022-01-20T08:26:05Z</time>
      </trkpt>
      <trkpt lat="47.688965" lon="2.0392418">
        <ele>147</ele>
        <time>2022-01-20T08:26:06Z</time>
      </trkpt>
      <trkpt lat="47.688957" lon="2.03925">
        <ele>147</ele>
        <time>2022-01-20T08:26:07Z</time>
      </trkpt>
      <trkpt lat="47.688946" lon="2.0392578">
        <ele>147</ele>
        <time>2022-01-20T08:26:08Z</time>
      </trkpt>
      <trkpt lat="47.68894" lon="2.0392647">
        <ele>146</ele>
        <time>2022-01-20T08:26:09Z</time>
      </trkpt>
      <trkpt lat="47.688934" lon="2.0392694">
        <ele>146</ele>
        <time>2022-01-20T08:26:10Z</time>
      </trkpt>
      <trkpt lat="47.688927" lon="2.0392785">
        <ele>146</ele>
        <time>2022-01-20T08:26:11Z</time>
      </trkpt>
      <trkpt lat="47.68892" lon="2.0392902">
        <ele>146</ele>
        <time>2022-01-20T08:26:12Z</time>
      </trkpt>
      <trkpt lat="47.688908" lon="2.039298">
        <ele>146</ele>
        <time>2022-01-20T08:26:13Z</time>
      </trkpt>
      <trkpt lat="47.6889" lon="2.0393004">
        <ele>146</ele>
        <time>2022-01-20T08:26:14Z</time>
      </trkpt>
      <trkpt lat="47.688892" lon="2.0393097">
        <ele>146</ele>
        <time>2022-01-20T08:26:15Z</time>
      </trkpt>
      <trkpt lat="47.688885" lon="2.0393174">
        <ele>146</ele>
        <time>2022-01-20T08:26:16Z</time>
      </trkpt>
      <trkpt lat="47.688877" lon="2.0393333">
        <ele>146</ele>
        <time>2022-01-20T08:26:17Z</time>
      </trkpt>
      <trkpt lat="47.688866" lon="2.0393453">
        <ele>145</ele>
        <time>2022-01-20T08:26:18Z</time>
      </trkpt>
      <trkpt lat="47.688854" lon="2.0393572">
        <ele>146</ele>
        <time>2022-01-20T08:26:19Z</time>
      </trkpt>
      <trkpt lat="47.688847" lon="2.0393724">
        <ele>145</ele>
        <time>2022-01-20T08:26:20Z</time>
      </trkpt>
      <trkpt lat="47.688835" lon="2.0393796">
        <ele>145</ele>
        <time>2022-01-20T08:26:21Z</time>
      </trkpt>
      <trkpt lat="47.688828" lon="2.039381">
        <ele>145</ele>
        <time>2022-01-20T08:26:22Z</time>
      </trkpt>
      <trkpt lat="47.688812" lon="2.039381">
        <ele>145</ele>
        <time>2022-01-20T08:26:23Z</time>
      </trkpt>
      <trkpt lat="47.6888" lon="2.0393736">
        <ele>144</ele>
        <time>2022-01-20T08:26:24Z</time>
      </trkpt>
      <trkpt lat="47.68879" lon="2.0393715">
        <ele>144</ele>
        <time>2022-01-20T08:26:25Z</time>
      </trkpt>
      <trkpt lat="47.68878" lon="2.039367">
        <ele>145</ele>
        <time>2022-01-20T08:26:26Z</time>
      </trkpt>
      <trkpt lat="47.688774" lon="2.0393686">
        <ele>145</ele>
        <time>2022-01-20T08:26:27Z</time>
      </trkpt>
      <trkpt lat="47.68877" lon="2.039372">
        <ele>145</ele>
        <time>2022-01-20T08:26:28Z</time>
      </trkpt>
      <trkpt lat="47.688766" lon="2.0393765">
        <ele>145</ele>
        <time>2022-01-20T08:26:29Z</time>
      </trkpt>
      <trkpt lat="47.688763" lon="2.0393867">
        <ele>145</ele>
        <time>2022-01-20T08:26:30Z</time>
      </trkpt>
      <trkpt lat="47.688755" lon="2.0393927">
        <ele>145</ele>
        <time>2022-01-20T08:26:31Z</time>
      </trkpt>
      <trkpt lat="47.688747" lon="2.0394015">
        <ele>144</ele>
        <time>2022-01-20T08:26:32Z</time>
      </trkpt>
      <trkpt lat="47.68874" lon="2.03941">
        <ele>144</ele>
        <time>2022-01-20T08:26:33Z</time>
      </trkpt>
      <trkpt lat="47.688732" lon="2.0394185">
        <ele>144</ele>
        <time>2022-01-20T08:26:34Z</time>
      </trkpt>
      <trkpt lat="47.688725" lon="2.0394301">
        <ele>144</ele>
        <time>2022-01-20T08:26:35Z</time>
      </trkpt>
      <trkpt lat="47.688717" lon="2.0394442">
        <ele>143</ele>
        <time>2022-01-20T08:26:36Z</time>
      </trkpt>
      <trkpt lat="47.68871" lon="2.0394597">
        <ele>143</ele>
        <time>2022-01-20T08:26:37Z</time>
      </trkpt>
      <trkpt lat="47.688705" lon="2.03948">
        <ele>143</ele>
        <time>2022-01-20T08:26:38Z</time>
      </trkpt>
      <trkpt lat="47.688698" lon="2.03949">
        <ele>142</ele>
        <time>2022-01-20T08:26:39Z</time>
      </trkpt>
      <trkpt lat="47.68869" lon="2.0395002">
        <ele>142</ele>
        <time>2022-01-20T08:26:40Z</time>
      </trkpt>
      <trkpt lat="47.688683" lon="2.0395114">
        <ele>142</ele>
        <time>2022-01-20T08:26:41Z</time>
      </trkpt>
      <trkpt lat="47.68868" lon="2.0395222">
        <ele>142</ele>
        <time>2022-01-20T08:26:42Z</time>
      </trkpt>
      <trkpt lat="47.688675" lon="2.0395348">
        <ele>142</ele>
        <time>2022-01-20T08:26:43Z</time>
      </trkpt>
      <trkpt lat="47.68867" lon="2.0395534">
        <ele>142</ele>
        <time>2022-01-20T08:26:44Z</time>
      </trkpt>
      <trkpt lat="47.688663" lon="2.0395706">
        <ele>142</ele>
        <time>2022-01-20T08:26:45Z</time>
      </trkpt>
      <trkpt lat="47.68866" lon="2.039588">
        <ele>141</ele>
        <time>2022-01-20T08:26:46Z</time>
      </trkpt>
      <trkpt lat="47.688652" lon="2.039604">
        <ele>141</ele>
        <time>2022-01-20T08:26:47Z</time>
      </trkpt>
      <trkpt lat="47.68865" lon="2.0396166">
        <ele>141</ele>
        <time>2022-01-20T08:26:48Z</time>
      </trkpt>
      <trkpt lat="47.688637" lon="2.0396252">
        <ele>141</ele>
        <time>2022-01-20T08:26:49Z</time>
      </trkpt>
      <trkpt lat="47.68863" lon="2.0396357">
        <ele>141</ele>
        <time>2022-01-20T08:26:50Z</time>
      </trkpt>
      <trkpt lat="47.688614" lon="2.039645">
        <ele>140</ele>
        <time>2022-01-20T08:26:51Z</time>
      </trkpt>
      <trkpt lat="47.6886" lon="2.0396461">
        <ele>140</ele>
        <time>2022-01-20T08:26:52Z</time>
      </trkpt>
      <trkpt lat="47.688587" lon="2.0396469">
        <ele>140</ele>
        <time>2022-01-20T08:26:53Z</time>
      </trkpt>
      <trkpt lat="47.68858" lon="2.0396478">
        <ele>139</ele>
        <time>2022-01-20T08:26:54Z</time>
      </trkpt>
      <trkpt lat="47.688572" lon="2.0396523">
        <ele>139</ele>
        <time>2022-01-20T08:26:55Z</time>
      </trkpt>
      <trkpt lat="47.68856" lon="2.039666">
        <ele>139</ele>
        <time>2022-01-20T08:26:56Z</time>
      </trkpt>
      <trkpt lat="47.688553" lon="2.0396743">
        <ele>139</ele>
        <time>2022-01-20T08:26:57Z</time>
      </trkpt>
      <trkpt lat="47.68854" lon="2.039682">
        <ele>139</ele>
        <time>2022-01-20T08:26:58Z</time>
      </trkpt>
      <trkpt lat="47.68853" lon="2.0396843">
        <ele>139</ele>
        <time>2022-01-20T08:26:59Z</time>
      </trkpt>
      <trkpt lat="47.688522" lon="2.0396893">
        <ele>139</ele>
        <time>2022-01-20T08:27:00Z</time>
      </trkpt>
      <trkpt lat="47.688507" lon="2.0396976">
        <ele>138</ele>
        <time>2022-01-20T08:27:01Z</time>
      </trkpt>
      <trkpt lat="47.688496" lon="2.0397034">
        <ele>138</ele>
        <time>2022-01-20T08:27:02Z</time>
      </trkpt>
      <trkpt lat="47.688484" lon="2.0397086">
        <ele>137</ele>
        <time>2022-01-20T08:27:03Z</time>
      </trkpt>
      <trkpt lat="47.68847" lon="2.0397222">
        <ele>138</ele>
        <time>2022-01-20T08:27:04Z</time>
      </trkpt>
      <trkpt lat="47.68846" lon="2.0397289">
        <ele>137</ele>
        <time>2022-01-20T08:27:05Z</time>
      </trkpt>
      <trkpt lat="47.688454" lon="2.0397387">
        <ele>137</ele>
        <time>2022-01-20T08:27:06Z</time>
      </trkpt>
      <trkpt lat="47.688446" lon="2.0397458">
        <ele>137</ele>
        <time>2022-01-20T08:27:07Z</time>
      </trkpt>
      <trkpt lat="47.688442" lon="2.039756">
        <ele>137</ele>
        <time>2022-01-20T08:27:08Z</time>
      </trkpt>
      <trkpt lat="47.688435" lon="2.0397623">
        <ele>138</ele>
        <time>2022-01-20T08:27:09Z</time>
      </trkpt>
      <trkpt lat="47.688427" lon="2.0397673">
        <ele>138</ele>
        <time>2022-01-20T08:27:10Z</time>
      </trkpt>
      <trkpt lat="47.68842" lon="2.0397727">
        <ele>137</ele>
        <time>2022-01-20T08:27:11Z</time>
      </trkpt>
      <trkpt lat="47.68841" lon="2.039778">
        <ele>137</ele>
        <time>2022-01-20T08:27:12Z</time>
      </trkpt>
      <trkpt lat="47.6884" lon="2.039786">
        <ele>137</ele>
        <time>2022-01-20T08:27:13Z</time>
      </trkpt>
      <trkpt lat="47.68839" lon="2.039793">
        <ele>137</ele>
        <time>2022-01-20T08:27:14Z</time>
      </trkpt>
      <trkpt lat="47.688377" lon="2.039803">
        <ele>137</ele>
        <time>2022-01-20T08:27:15Z</time>
      </trkpt>
      <trkpt lat="47.68837" lon="2.039811">
        <ele>137</ele>
        <time>2022-01-20T08:27:16Z</time>
      </trkpt>
      <trkpt lat="47.68836" lon="2.0398173">
        <ele>137</ele>
        <time>2022-01-20T08:27:17Z</time>
      </trkpt>
      <trkpt lat="47.68835" lon="2.039826">
        <ele>137</ele>
        <time>2022-01-20T08:27:18Z</time>
      </trkpt>
      <trkpt lat="47.688343" lon="2.0398326">
        <ele>137</ele>
        <time>2022-01-20T08:27:19Z</time>
      </trkpt>
      <trkpt lat="47.688335" lon="2.0398386">
        <ele>137</ele>
        <time>2022-01-20T08:27:20Z</time>
      </trkpt>
      <trkpt lat="47.68833" lon="2.0398371">
        <ele>136</ele>
        <time>2022-01-20T08:27:21Z</time>
      </trkpt>
      <trkpt lat="47.688328" lon="2.039845">
        <ele>136</ele>
        <time>2022-01-20T08:27:22Z</time>
      </trkpt>
      <trkpt lat="47.688324" lon="2.0398538">
        <ele>136</ele>
        <time>2022-01-20T08:27:23Z</time>
      </trkpt>
      <trkpt lat="47.688316" lon="2.039864">
        <ele>136</ele>
        <time>2022-01-20T08:27:24Z</time>
      </trkpt>
      <trkpt lat="47.688316" lon="2.039864">
        <ele>136</ele>
        <time>2022-01-20T08:27:25Z</time>
      </trkpt>
      <trkpt lat="47.688316" lon="2.039864">
        <ele>136</ele>
        <time>2022-01-20T08:27:26Z</time>
      </trkpt>
      <trkpt lat="47.688293" lon="2.039874">
        <ele>137</ele>
        <time>2022-01-20T08:27:27Z</time>
      </trkpt>
      <trkpt lat="47.688286" lon="2.0398796">
        <ele>137</ele>
        <time>2022-01-20T08:27:28Z</time>
      </trkpt>
      <trkpt lat="47.68828" lon="2.039885">
        <ele>137</ele>
        <time>2022-01-20T08:27:29Z</time>
      </trkpt>
      <trkpt lat="47.688267" lon="2.0398972">
        <ele>137</ele>
        <time>2022-01-20T08:27:30Z</time>
      </trkpt>
      <trkpt lat="47.688255" lon="2.0399117">
        <ele>137</ele>
        <time>2022-01-20T08:27:31Z</time>
      </trkpt>
      <trkpt lat="47.68824" lon="2.0399232">
        <ele>137</ele>
        <time>2022-01-20T08:27:32Z</time>
      </trkpt>
      <trkpt lat="47.68823" lon="2.0399313">
        <ele>137</ele>
        <time>2022-01-20T08:27:33Z</time>
      </trkpt>
      <trkpt lat="47.688217" lon="2.039943">
        <ele>137</ele>
        <time>2022-01-20T08:27:34Z</time>
      </trkpt>
      <trkpt lat="47.68821" lon="2.0399528">
        <ele>137</ele>
        <time>2022-01-20T08:27:35Z</time>
      </trkpt>
      <trkpt lat="47.688198" lon="2.0399642">
        <ele>137</ele>
        <time>2022-01-20T08:27:36Z</time>
      </trkpt>
      <trkpt lat="47.688183" lon="2.0399785">
        <ele>137</ele>
        <time>2022-01-20T08:27:37Z</time>
      </trkpt>
      <trkpt lat="47.68817" lon="2.039993">
        <ele>136</ele>
        <time>2022-01-20T08:27:38Z</time>
      </trkpt>
      <trkpt lat="47.688164" lon="2.040005">
        <ele>137</ele>
        <time>2022-01-20T08:27:39Z</time>
      </trkpt>
      <trkpt lat="47.688156" lon="2.04002">
        <ele>137</ele>
        <time>2022-01-20T08:27:40Z</time>
      </trkpt>
      <trkpt lat="47.68815" lon="2.04003">
        <ele>137</ele>
        <time>2022-01-20T08:27:41Z</time>
      </trkpt>
      <trkpt lat="47.68814" lon="2.04004">
        <ele>138</ele>
        <time>2022-01-20T08:27:42Z</time>
      </trkpt>
      <trkpt lat="47.68813" lon="2.0400572">
        <ele>138</ele>
        <time>2022-01-20T08:27:43Z</time>
      </trkpt>
      <trkpt lat="47.688118" lon="2.0400727">
        <ele>138</ele>
        <time>2022-01-20T08:27:44Z</time>
      </trkpt>
      <trkpt lat="47.68811" lon="2.0400856">
        <ele>138</ele>
        <time>2022-01-20T08:27:45Z</time>
      </trkpt>
      <trkpt lat="47.6881" lon="2.0400994">
        <ele>138</ele>
        <time>2022-01-20T08:27:46Z</time>
      </trkpt>
      <trkpt lat="47.68809" lon="2.0401099">
        <ele>138</ele>
        <time>2022-01-20T08:27:47Z</time>
      </trkpt>
      <trkpt lat="47.688084" lon="2.0401244">
        <ele>138</ele>
        <time>2022-01-20T08:27:48Z</time>
      </trkpt>
      <trkpt lat="47.688084" lon="2.0401244">
        <ele>138</ele>
        <time>2022-01-20T08:27:49Z</time>
      </trkpt>
      <trkpt lat="47.688084" lon="2.0401244">
        <ele>138</ele>
        <time>2022-01-20T08:27:50Z</time>
      </trkpt>
      <trkpt lat="47.68806" lon="2.0401626">
        <ele>138</ele>
        <time>2022-01-20T08:27:51Z</time>
      </trkpt>
      <trkpt lat="47.688057" lon="2.040172">
        <ele>138</ele>
        <time>2022-01-20T08:27:52Z</time>
      </trkpt>
      <trkpt lat="47.688046" lon="2.040183">
        <ele>138</ele>
        <time>2022-01-20T08:27:53Z</time>
      </trkpt>
      <trkpt lat="47.688034" lon="2.0401917">
        <ele>138</ele>
        <time>2022-01-20T08:27:54Z</time>
      </trkpt>
      <trkpt lat="47.688026" lon="2.0401947">
        <ele>138</ele>
        <time>2022-01-20T08:27:55Z</time>
      </trkpt>
      <trkpt lat="47.68802" lon="2.0402005">
        <ele>137</ele>
        <time>2022-01-20T08:27:56Z</time>
      </trkpt>
      <trkpt lat="47.688007" lon="2.0402079">
        <ele>138</ele>
        <time>2022-01-20T08:27:57Z</time>
      </trkpt>
      <trkpt lat="47.687996" lon="2.0402155">
        <ele>138</ele>
        <time>2022-01-20T08:27:58Z</time>
      </trkpt>
      <trkpt lat="47.687984" lon="2.0402243">
        <ele>138</ele>
        <time>2022-01-20T08:27:59Z</time>
      </trkpt>
      <trkpt lat="47.687973" lon="2.0402358">
        <ele>138</ele>
        <time>2022-01-20T08:28:00Z</time>
      </trkpt>
      <trkpt lat="47.68796" lon="2.0402517">
        <ele>138</ele>
        <time>2022-01-20T08:28:01Z</time>
      </trkpt>
      <trkpt lat="47.687954" lon="2.0402617">
        <ele>138</ele>
        <time>2022-01-20T08:28:02Z</time>
      </trkpt>
      <trkpt lat="47.68795" lon="2.040265">
        <ele>138</ele>
        <time>2022-01-20T08:28:03Z</time>
      </trkpt>
      <trkpt lat="47.687954" lon="2.040268">
        <ele>138</ele>
        <time>2022-01-20T08:28:04Z</time>
      </trkpt>
      <trkpt lat="47.68796" lon="2.0402863">
        <ele>138</ele>
        <time>2022-01-20T08:28:05Z</time>
      </trkpt>
      <trkpt lat="47.687954" lon="2.0402951">
        <ele>138</ele>
        <time>2022-01-20T08:28:06Z</time>
      </trkpt>
      <trkpt lat="47.687943" lon="2.0403032">
        <ele>138</ele>
        <time>2022-01-20T08:28:07Z</time>
      </trkpt>
      <trkpt lat="47.68793" lon="2.040305">
        <ele>138</ele>
        <time>2022-01-20T08:28:08Z</time>
      </trkpt>
      <trkpt lat="47.68792" lon="2.0403178">
        <ele>138</ele>
        <time>2022-01-20T08:28:09Z</time>
      </trkpt>
      <trkpt lat="47.687904" lon="2.0403187">
        <ele>139</ele>
        <time>2022-01-20T08:28:10Z</time>
      </trkpt>
      <trkpt lat="47.687897" lon="2.0403247">
        <ele>140</ele>
        <time>2022-01-20T08:28:11Z</time>
      </trkpt>
      <trkpt lat="47.68788" lon="2.040339">
        <ele>140</ele>
        <time>2022-01-20T08:28:12Z</time>
      </trkpt>
      <trkpt lat="47.687874" lon="2.0403535">
        <ele>139</ele>
        <time>2022-01-20T08:28:13Z</time>
      </trkpt>
      <trkpt lat="47.687862" lon="2.0403695">
        <ele>138</ele>
        <time>2022-01-20T08:28:14Z</time>
      </trkpt>
      <trkpt lat="47.687855" lon="2.0403855">
        <ele>138</ele>
        <time>2022-01-20T08:28:15Z</time>
      </trkpt>
      <trkpt lat="47.687843" lon="2.0404003">
        <ele>138</ele>
        <time>2022-01-20T08:28:16Z</time>
      </trkpt>
      <trkpt lat="47.687836" lon="2.040409">
        <ele>138</ele>
        <time>2022-01-20T08:28:17Z</time>
      </trkpt>
      <trkpt lat="47.687828" lon="2.0404172">
        <ele>138</ele>
        <time>2022-01-20T08:28:18Z</time>
      </trkpt>
      <trkpt lat="47.68782" lon="2.0404263">
        <ele>138</ele>
        <time>2022-01-20T08:28:19Z</time>
      </trkpt>
      <trkpt lat="47.687817" lon="2.040435">
        <ele>138</ele>
        <time>2022-01-20T08:28:20Z</time>
      </trkpt>
      <trkpt lat="47.687805" lon="2.0404503">
        <ele>138</ele>
        <time>2022-01-20T08:28:21Z</time>
      </trkpt>
      <trkpt lat="47.687798" lon="2.0404654">
        <ele>138</ele>
        <time>2022-01-20T08:28:22Z</time>
      </trkpt>
      <trkpt lat="47.687782" lon="2.0404782">
        <ele>137</ele>
        <time>2022-01-20T08:28:23Z</time>
      </trkpt>
      <trkpt lat="47.68778" lon="2.0404828">
        <ele>138</ele>
        <time>2022-01-20T08:28:24Z</time>
      </trkpt>
      <trkpt lat="47.68777" lon="2.040487">
        <ele>138</ele>
        <time>2022-01-20T08:28:25Z</time>
      </trkpt>
      <trkpt lat="47.687763" lon="2.0404904">
        <ele>138</ele>
        <time>2022-01-20T08:28:26Z</time>
      </trkpt>
      <trkpt lat="47.68775" lon="2.040496">
        <ele>137</ele>
        <time>2022-01-20T08:28:27Z</time>
      </trkpt>
      <trkpt lat="47.687744" lon="2.040506">
        <ele>137</ele>
        <time>2022-01-20T08:28:28Z</time>
      </trkpt>
      <trkpt lat="47.687737" lon="2.0405154">
        <ele>137</ele>
        <time>2022-01-20T08:28:29Z</time>
      </trkpt>
      <trkpt lat="47.687725" lon="2.0405254">
        <ele>137</ele>
        <time>2022-01-20T08:28:30Z</time>
      </trkpt>
      <trkpt lat="47.687717" lon="2.0405433">
        <ele>137</ele>
        <time>2022-01-20T08:28:31Z</time>
      </trkpt>
      <trkpt lat="47.68771" lon="2.0405536">
        <ele>137</ele>
        <time>2022-01-20T08:28:32Z</time>
      </trkpt>
      <trkpt lat="47.687702" lon="2.0405633">
        <ele>138</ele>
        <time>2022-01-20T08:28:33Z</time>
      </trkpt>
      <trkpt lat="47.68769" lon="2.0405767">
        <ele>138</ele>
        <time>2022-01-20T08:28:34Z</time>
      </trkpt>
      <trkpt lat="47.687687" lon="2.0405889">
        <ele>138</ele>
        <time>2022-01-20T08:28:35Z</time>
      </trkpt>
      <trkpt lat="47.687675" lon="2.0405989">
        <ele>138</ele>
        <time>2022-01-20T08:28:36Z</time>
      </trkpt>
      <trkpt lat="47.68766" lon="2.040609">
        <ele>139</ele>
        <time>2022-01-20T08:28:37Z</time>
      </trkpt>
      <trkpt lat="47.68765" lon="2.04062">
        <ele>139</ele>
        <time>2022-01-20T08:28:38Z</time>
      </trkpt>
      <trkpt lat="47.687634" lon="2.0406334">
        <ele>139</ele>
        <time>2022-01-20T08:28:39Z</time>
      </trkpt>
      <trkpt lat="47.68762" lon="2.0406415">
        <ele>139</ele>
        <time>2022-01-20T08:28:40Z</time>
      </trkpt>
      <trkpt lat="47.687607" lon="2.0406506">
        <ele>139</ele>
        <time>2022-01-20T08:28:41Z</time>
      </trkpt>
      <trkpt lat="47.68759" lon="2.0406678">
        <ele>138</ele>
        <time>2022-01-20T08:28:42Z</time>
      </trkpt>
      <trkpt lat="47.68758" lon="2.0406842">
        <ele>138</ele>
        <time>2022-01-20T08:28:43Z</time>
      </trkpt>
      <trkpt lat="47.68757" lon="2.0406988">
        <ele>137</ele>
        <time>2022-01-20T08:28:44Z</time>
      </trkpt>
      <trkpt lat="47.68756" lon="2.0407174">
        <ele>137</ele>
        <time>2022-01-20T08:28:45Z</time>
      </trkpt>
      <trkpt lat="47.68755" lon="2.04073">
        <ele>137</ele>
        <time>2022-01-20T08:28:46Z</time>
      </trkpt>
      <trkpt lat="47.68754" lon="2.0407364">
        <ele>137</ele>
        <time>2022-01-20T08:28:47Z</time>
      </trkpt>
      <trkpt lat="47.687527" lon="2.0407453">
        <ele>137</ele>
        <time>2022-01-20T08:28:48Z</time>
      </trkpt>
      <trkpt lat="47.687523" lon="2.040753">
        <ele>138</ele>
        <time>2022-01-20T08:28:49Z</time>
      </trkpt>
      <trkpt lat="47.687515" lon="2.0407608">
        <ele>137</ele>
        <time>2022-01-20T08:28:50Z</time>
      </trkpt>
      <trkpt lat="47.6875" lon="2.0407753">
        <ele>138</ele>
        <time>2022-01-20T08:28:51Z</time>
      </trkpt>
      <trkpt lat="47.687492" lon="2.040784">
        <ele>138</ele>
        <time>2022-01-20T08:28:52Z</time>
      </trkpt>
      <trkpt lat="47.68748" lon="2.040798">
        <ele>138</ele>
        <time>2022-01-20T08:28:53Z</time>
      </trkpt>
      <trkpt lat="47.68747" lon="2.040812">
        <ele>138</ele>
        <time>2022-01-20T08:28:54Z</time>
      </trkpt>
      <trkpt lat="47.687458" lon="2.04083">
        <ele>138</ele>
        <time>2022-01-20T08:28:55Z</time>
      </trkpt>
      <trkpt lat="47.68745" lon="2.0408452">
        <ele>138</ele>
        <time>2022-01-20T08:28:56Z</time>
      </trkpt>
      <trkpt lat="47.68744" lon="2.0408628">
        <ele>139</ele>
        <time>2022-01-20T08:28:57Z</time>
      </trkpt>
      <trkpt lat="47.68743" lon="2.0408728">
        <ele>139</ele>
        <time>2022-01-20T08:28:58Z</time>
      </trkpt>
      <trkpt lat="47.68742" lon="2.0408864">
        <ele>140</ele>
        <time>2022-01-20T08:28:59Z</time>
      </trkpt>
      <trkpt lat="47.68741" lon="2.0408978">
        <ele>140</ele>
        <time>2022-01-20T08:29:00Z</time>
      </trkpt>
      <trkpt lat="47.687397" lon="2.040913">
        <ele>140</ele>
        <time>2022-01-20T08:29:01Z</time>
      </trkpt>
      <trkpt lat="47.68739" lon="2.040914">
        <ele>140</ele>
        <time>2022-01-20T08:29:02Z</time>
      </trkpt>
      <trkpt lat="47.687378" lon="2.0409184">
        <ele>140</ele>
        <time>2022-01-20T08:29:03Z</time>
      </trkpt>
      <trkpt lat="47.687366" lon="2.040926">
        <ele>140</ele>
        <time>2022-01-20T08:29:04Z</time>
      </trkpt>
      <trkpt lat="47.68736" lon="2.0409334">
        <ele>140</ele>
        <time>2022-01-20T08:29:05Z</time>
      </trkpt>
      <trkpt lat="47.687347" lon="2.040946">
        <ele>140</ele>
        <time>2022-01-20T08:29:06Z</time>
      </trkpt>
      <trkpt lat="47.687336" lon="2.0409532">
        <ele>140</ele>
        <time>2022-01-20T08:29:07Z</time>
      </trkpt>
      <trkpt lat="47.68732" lon="2.0409591">
        <ele>140</ele>
        <time>2022-01-20T08:29:08Z</time>
      </trkpt>
      <trkpt lat="47.687313" lon="2.040964">
        <ele>140</ele>
        <time>2022-01-20T08:29:09Z</time>
      </trkpt>
      <trkpt lat="47.68731" lon="2.0409691">
        <ele>140</ele>
        <time>2022-01-20T08:29:10Z</time>
      </trkpt>
      <trkpt lat="47.6873" lon="2.0409725">
        <ele>140</ele>
        <time>2022-01-20T08:29:11Z</time>
      </trkpt>
      <trkpt lat="47.687294" lon="2.0409782">
        <ele>140</ele>
        <time>2022-01-20T08:29:12Z</time>
      </trkpt>
      <trkpt lat="47.687283" lon="2.0409865">
        <ele>140</ele>
        <time>2022-01-20T08:29:13Z</time>
      </trkpt>
      <trkpt lat="47.687275" lon="2.0409966">
        <ele>140</ele>
        <time>2022-01-20T08:29:14Z</time>
      </trkpt>
      <trkpt lat="47.68727" lon="2.0410016">
        <ele>140</ele>
        <time>2022-01-20T08:29:15Z</time>
      </trkpt>
      <trkpt lat="47.687267" lon="2.041005">
        <ele>140</ele>
        <time>2022-01-20T08:29:16Z</time>
      </trkpt>
      <trkpt lat="47.687256" lon="2.0410128">
        <ele>140</ele>
        <time>2022-01-20T08:29:17Z</time>
      </trkpt>
      <trkpt lat="47.687244" lon="2.041021">
        <ele>140</ele>
        <time>2022-01-20T08:29:18Z</time>
      </trkpt>
      <trkpt lat="47.687237" lon="2.0410373">
        <ele>140</ele>
        <time>2022-01-20T08:29:19Z</time>
      </trkpt>
      <trkpt lat="47.687225" lon="2.0410495">
        <ele>139</ele>
        <time>2022-01-20T08:29:20Z</time>
      </trkpt>
      <trkpt lat="47.68721" lon="2.0410619">
        <ele>139</ele>
        <time>2022-01-20T08:29:21Z</time>
      </trkpt>
      <trkpt lat="47.687195" lon="2.0410726">
        <ele>139</ele>
        <time>2022-01-20T08:29:22Z</time>
      </trkpt>
      <trkpt lat="47.687183" lon="2.0410788">
        <ele>139</ele>
        <time>2022-01-20T08:29:23Z</time>
      </trkpt>
      <trkpt lat="47.687172" lon="2.0410833">
        <ele>138</ele>
        <time>2022-01-20T08:29:24Z</time>
      </trkpt>
      <trkpt lat="47.68716" lon="2.0410903">
        <ele>138</ele>
        <time>2022-01-20T08:29:25Z</time>
      </trkpt>
      <trkpt lat="47.68715" lon="2.0410984">
        <ele>138</ele>
        <time>2022-01-20T08:29:26Z</time>
      </trkpt>
      <trkpt lat="47.687145" lon="2.0411072">
        <ele>138</ele>
        <time>2022-01-20T08:29:27Z</time>
      </trkpt>
      <trkpt lat="47.687138" lon="2.041114">
        <ele>137</ele>
        <time>2022-01-20T08:29:28Z</time>
      </trkpt>
      <trkpt lat="47.68713" lon="2.0411267">
        <ele>137</ele>
        <time>2022-01-20T08:29:29Z</time>
      </trkpt>
      <trkpt lat="47.687122" lon="2.041142">
        <ele>137</ele>
        <time>2022-01-20T08:29:30Z</time>
      </trkpt>
      <trkpt lat="47.687115" lon="2.0411553">
        <ele>137</ele>
        <time>2022-01-20T08:29:31Z</time>
      </trkpt>
      <trkpt lat="47.687103" lon="2.0411716">
        <ele>136</ele>
        <time>2022-01-20T08:29:32Z</time>
      </trkpt>
      <trkpt lat="47.6871" lon="2.0411859">
        <ele>136</ele>
        <time>2022-01-20T08:29:33Z</time>
      </trkpt>
      <trkpt lat="47.68709" lon="2.0411947">
        <ele>136</ele>
        <time>2022-01-20T08:29:34Z</time>
      </trkpt>
      <trkpt lat="47.687088" lon="2.0412025">
        <ele>136</ele>
        <time>2022-01-20T08:29:35Z</time>
      </trkpt>
      <trkpt lat="47.68708" lon="2.0412126">
        <ele>136</ele>
        <time>2022-01-20T08:29:36Z</time>
      </trkpt>
      <trkpt lat="47.68708" lon="2.0412126">
        <ele>136</ele>
        <time>2022-01-20T08:29:37Z</time>
      </trkpt>
      <trkpt lat="47.68707" lon="2.04122">
        <ele>137</ele>
        <time>2022-01-20T08:29:38Z</time>
      </trkpt>
      <trkpt lat="47.687065" lon="2.0412219">
        <ele>137</ele>
        <time>2022-01-20T08:29:39Z</time>
      </trkpt>
      <trkpt lat="47.687054" lon="2.0412276">
        <ele>137</ele>
        <time>2022-01-20T08:29:40Z</time>
      </trkpt>
      <trkpt lat="47.687042" lon="2.041235">
        <ele>137</ele>
        <time>2022-01-20T08:29:41Z</time>
      </trkpt>
      <trkpt lat="47.687035" lon="2.0412397">
        <ele>137</ele>
        <time>2022-01-20T08:29:42Z</time>
      </trkpt>
      <trkpt lat="47.687027" lon="2.0412483">
        <ele>136</ele>
        <time>2022-01-20T08:29:43Z</time>
      </trkpt>
      <trkpt lat="47.68702" lon="2.0412586">
        <ele>136</ele>
        <time>2022-01-20T08:29:44Z</time>
      </trkpt>
      <trkpt lat="47.68701" lon="2.041266">
        <ele>136</ele>
        <time>2022-01-20T08:29:45Z</time>
      </trkpt>
      <trkpt lat="47.686996" lon="2.0412734">
        <ele>136</ele>
        <time>2022-01-20T08:29:46Z</time>
      </trkpt>
      <trkpt lat="47.686985" lon="2.0412834">
        <ele>136</ele>
        <time>2022-01-20T08:29:47Z</time>
      </trkpt>
      <trkpt lat="47.686974" lon="2.0412915">
        <ele>136</ele>
        <time>2022-01-20T08:29:48Z</time>
      </trkpt>
      <trkpt lat="47.68696" lon="2.0412984">
        <ele>136</ele>
        <time>2022-01-20T08:29:49Z</time>
      </trkpt>
      <trkpt lat="47.686943" lon="2.0413036">
        <ele>136</ele>
        <time>2022-01-20T08:29:50Z</time>
      </trkpt>
      <trkpt lat="47.686924" lon="2.0413117">
        <ele>136</ele>
        <time>2022-01-20T08:29:51Z</time>
      </trkpt>
      <trkpt lat="47.686913" lon="2.041316">
        <ele>136</ele>
        <time>2022-01-20T08:29:52Z</time>
      </trkpt>
      <trkpt lat="47.6869" lon="2.0413208">
        <ele>136</ele>
        <time>2022-01-20T08:29:53Z</time>
      </trkpt>
      <trkpt lat="47.686893" lon="2.0413208">
        <ele>136</ele>
        <time>2022-01-20T08:29:54Z</time>
      </trkpt>
      <trkpt lat="47.686882" lon="2.0413246">
        <ele>136</ele>
        <time>2022-01-20T08:29:55Z</time>
      </trkpt>
      <trkpt lat="47.68687" lon="2.0413325">
        <ele>136</ele>
        <time>2022-01-20T08:29:56Z</time>
      </trkpt>
      <trkpt lat="47.686863" lon="2.0413387">
        <ele>137</ele>
        <time>2022-01-20T08:29:57Z</time>
      </trkpt>
      <trkpt lat="47.686855" lon="2.0413556">
        <ele>137</ele>
        <time>2022-01-20T08:29:58Z</time>
      </trkpt>
      <trkpt lat="47.686848" lon="2.0413654">
        <ele>137</ele>
        <time>2022-01-20T08:29:59Z</time>
      </trkpt>
      <trkpt lat="47.686836" lon="2.0413778">
        <ele>137</ele>
        <time>2022-01-20T08:30:00Z</time>
      </trkpt>
      <trkpt lat="47.68683" lon="2.041391">
        <ele>137</ele>
        <time>2022-01-20T08:30:01Z</time>
      </trkpt>
      <trkpt lat="47.68682" lon="2.0414047">
        <ele>136</ele>
        <time>2022-01-20T08:30:02Z</time>
      </trkpt>
      <trkpt lat="47.686813" lon="2.0414112">
        <ele>136</ele>
        <time>2022-01-20T08:30:03Z</time>
      </trkpt>
      <trkpt lat="47.686806" lon="2.0414183">
        <ele>136</ele>
        <time>2022-01-20T08:30:04Z</time>
      </trkpt>
      <trkpt lat="47.6868" lon="2.041426">
        <ele>136</ele>
        <time>2022-01-20T08:30:05Z</time>
      </trkpt>
      <trkpt lat="47.686787" lon="2.041437">
        <ele>136</ele>
        <time>2022-01-20T08:30:06Z</time>
      </trkpt>
      <trkpt lat="47.68678" lon="2.0414457">
        <ele>137</ele>
        <time>2022-01-20T08:30:07Z</time>
      </trkpt>
      <trkpt lat="47.68677" lon="2.0414526">
        <ele>137</ele>
        <time>2022-01-20T08:30:08Z</time>
      </trkpt>
      <trkpt lat="47.68676" lon="2.0414634">
        <ele>137</ele>
        <time>2022-01-20T08:30:09Z</time>
      </trkpt>
      <trkpt lat="47.68675" lon="2.0414686">
        <ele>137</ele>
        <time>2022-01-20T08:30:10Z</time>
      </trkpt>
      <trkpt lat="47.68674" lon="2.0414727">
        <ele>137</ele>
        <time>2022-01-20T08:30:11Z</time>
      </trkpt>
      <trkpt lat="47.68673" lon="2.0414803">
        <ele>137</ele>
        <time>2022-01-20T08:30:12Z</time>
      </trkpt>
      <trkpt lat="47.68672" lon="2.0414858">
        <ele>137</ele>
        <time>2022-01-20T08:30:13Z</time>
      </trkpt>
      <trkpt lat="47.686714" lon="2.0414927">
        <ele>137</ele>
        <time>2022-01-20T08:30:14Z</time>
      </trkpt>
      <trkpt lat="47.686707" lon="2.0415003">
        <ele>136</ele>
        <time>2022-01-20T08:30:15Z</time>
      </trkpt>
      <trkpt lat="47.686695" lon="2.0415072">
        <ele>136</ele>
        <time>2022-01-20T08:30:16Z</time>
      </trkpt>
      <trkpt lat="47.686687" lon="2.0415108">
        <ele>136</ele>
        <time>2022-01-20T08:30:17Z</time>
      </trkpt>
      <trkpt lat="47.68668" lon="2.0415163">
        <ele>136</ele>
        <time>2022-01-20T08:30:18Z</time>
      </trkpt>
      <trkpt lat="47.686672" lon="2.0415223">
        <ele>137</ele>
        <time>2022-01-20T08:30:19Z</time>
      </trkpt>
      <trkpt lat="47.686672" lon="2.0415223">
        <ele>137</ele>
        <time>2022-01-20T08:30:20Z</time>
      </trkpt>
      <trkpt lat="47.686672" lon="2.0415223">
        <ele>137</ele>
        <time>2022-01-20T08:30:21Z</time>
      </trkpt>
      <trkpt lat="47.686653" lon="2.0415406">
        <ele>137</ele>
        <time>2022-01-20T08:30:22Z</time>
      </trkpt>
      <trkpt lat="47.686646" lon="2.0415494">
        <ele>137</ele>
        <time>2022-01-20T08:30:23Z</time>
      </trkpt>
      <trkpt lat="47.686634" lon="2.0415587">
        <ele>137</ele>
        <time>2022-01-20T08:30:24Z</time>
      </trkpt>
      <trkpt lat="47.686626" lon="2.0415645">
        <ele>137</ele>
        <time>2022-01-20T08:30:25Z</time>
      </trkpt>
      <trkpt lat="47.68662" lon="2.0415733">
        <ele>137</ele>
        <time>2022-01-20T08:30:26Z</time>
      </trkpt>
      <trkpt lat="47.686607" lon="2.041584">
        <ele>137</ele>
        <time>2022-01-20T08:30:27Z</time>
      </trkpt>
      <trkpt lat="47.686596" lon="2.0415943">
        <ele>136</ele>
        <time>2022-01-20T08:30:28Z</time>
      </trkpt>
      <trkpt lat="47.68659" lon="2.0416045">
        <ele>136</ele>
        <time>2022-01-20T08:30:29Z</time>
      </trkpt>
      <trkpt lat="47.686577" lon="2.0416138">
        <ele>136</ele>
        <time>2022-01-20T08:30:30Z</time>
      </trkpt>
      <trkpt lat="47.686565" lon="2.0416286">
        <ele>136</ele>
        <time>2022-01-20T08:30:31Z</time>
      </trkpt>
      <trkpt lat="47.686558" lon="2.0416381">
        <ele>136</ele>
        <time>2022-01-20T08:30:32Z</time>
      </trkpt>
      <trkpt lat="47.68655" lon="2.0416527">
        <ele>135</ele>
        <time>2022-01-20T08:30:33Z</time>
      </trkpt>
      <trkpt lat="47.68654" lon="2.0416706">
        <ele>135</ele>
        <time>2022-01-20T08:30:34Z</time>
      </trkpt>
      <trkpt lat="47.68653" lon="2.0416853">
        <ele>135</ele>
        <time>2022-01-20T08:30:35Z</time>
      </trkpt>
      <trkpt lat="47.686527" lon="2.0417">
        <ele>135</ele>
        <time>2022-01-20T08:30:36Z</time>
      </trkpt>
      <trkpt lat="47.68652" lon="2.0417168">
        <ele>134</ele>
        <time>2022-01-20T08:30:37Z</time>
      </trkpt>
      <trkpt lat="47.686512" lon="2.0417304">
        <ele>134</ele>
        <time>2022-01-20T08:30:38Z</time>
      </trkpt>
      <trkpt lat="47.686497" lon="2.0417385">
        <ele>134</ele>
        <time>2022-01-20T08:30:39Z</time>
      </trkpt>
      <trkpt lat="47.68649" lon="2.0417492">
        <ele>134</ele>
        <time>2022-01-20T08:30:40Z</time>
      </trkpt>
      <trkpt lat="47.686478" lon="2.0417652">
        <ele>133</ele>
        <time>2022-01-20T08:30:41Z</time>
      </trkpt>
      <trkpt lat="47.68647" lon="2.0417798">
        <ele>133</ele>
        <time>2022-01-20T08:30:42Z</time>
      </trkpt>
      <trkpt lat="47.686455" lon="2.041798">
        <ele>133</ele>
        <time>2022-01-20T08:30:43Z</time>
      </trkpt>
      <trkpt lat="47.68644" lon="2.04181">
        <ele>133</ele>
        <time>2022-01-20T08:30:44Z</time>
      </trkpt>
      <trkpt lat="47.68643" lon="2.0418203">
        <ele>133</ele>
        <time>2022-01-20T08:30:45Z</time>
      </trkpt>
      <trkpt lat="47.68642" lon="2.0418274">
        <ele>133</ele>
        <time>2022-01-20T08:30:46Z</time>
      </trkpt>
      <trkpt lat="47.686413" lon="2.041832">
        <ele>133</ele>
        <time>2022-01-20T08:30:47Z</time>
      </trkpt>
      <trkpt lat="47.6864" lon="2.0418375">
        <ele>133</ele>
        <time>2022-01-20T08:30:48Z</time>
      </trkpt>
      <trkpt lat="47.68639" lon="2.0418425">
        <ele>133</ele>
        <time>2022-01-20T08:30:49Z</time>
      </trkpt>
      <trkpt lat="47.68638" lon="2.0418532">
        <ele>133</ele>
        <time>2022-01-20T08:30:50Z</time>
      </trkpt>
      <trkpt lat="47.686363" lon="2.0418653">
        <ele>133</ele>
        <time>2022-01-20T08:30:51Z</time>
      </trkpt>
      <trkpt lat="47.686348" lon="2.0418801">
        <ele>133</ele>
        <time>2022-01-20T08:30:52Z</time>
      </trkpt>
      <trkpt lat="47.68634" lon="2.0418942">
        <ele>134</ele>
        <time>2022-01-20T08:30:53Z</time>
      </trkpt>
      <trkpt lat="47.686325" lon="2.041909">
        <ele>134</ele>
        <time>2022-01-20T08:30:54Z</time>
      </trkpt>
      <trkpt lat="47.68631" lon="2.0419214">
        <ele>134</ele>
        <time>2022-01-20T08:30:55Z</time>
      </trkpt>
      <trkpt lat="47.686302" lon="2.041934">
        <ele>134</ele>
        <time>2022-01-20T08:30:56Z</time>
      </trkpt>
      <trkpt lat="47.686295" lon="2.0419424">
        <ele>135</ele>
        <time>2022-01-20T08:30:57Z</time>
      </trkpt>
      <trkpt lat="47.68628" lon="2.0419514">
        <ele>135</ele>
        <time>2022-01-20T08:30:58Z</time>
      </trkpt>
      <trkpt lat="47.686268" lon="2.041967">
        <ele>135</ele>
        <time>2022-01-20T08:30:59Z</time>
      </trkpt>
      <trkpt lat="47.68626" lon="2.041975">
        <ele>135</ele>
        <time>2022-01-20T08:31:00Z</time>
      </trkpt>
      <trkpt lat="47.68625" lon="2.0419896">
        <ele>135</ele>
        <time>2022-01-20T08:31:01Z</time>
      </trkpt>
      <trkpt lat="47.686234" lon="2.0420058">
        <ele>136</ele>
        <time>2022-01-20T08:31:02Z</time>
      </trkpt>
      <trkpt lat="47.686222" lon="2.042019">
        <ele>136</ele>
        <time>2022-01-20T08:31:03Z</time>
      </trkpt>
      <trkpt lat="47.686214" lon="2.0420327">
        <ele>136</ele>
        <time>2022-01-20T08:31:04Z</time>
      </trkpt>
      <trkpt lat="47.6862" lon="2.042042">
        <ele>136</ele>
        <time>2022-01-20T08:31:05Z</time>
      </trkpt>
      <trkpt lat="47.686184" lon="2.0420442">
        <ele>136</ele>
        <time>2022-01-20T08:31:06Z</time>
      </trkpt>
      <trkpt lat="47.68617" lon="2.0420482">
        <ele>136</ele>
        <time>2022-01-20T08:31:07Z</time>
      </trkpt>
      <trkpt lat="47.686153" lon="2.0420551">
        <ele>137</ele>
        <time>2022-01-20T08:31:08Z</time>
      </trkpt>
      <trkpt lat="47.686146" lon="2.0420642">
        <ele>137</ele>
        <time>2022-01-20T08:31:09Z</time>
      </trkpt>
      <trkpt lat="47.686134" lon="2.0420773">
        <ele>137</ele>
        <time>2022-01-20T08:31:10Z</time>
      </trkpt>
      <trkpt lat="47.686123" lon="2.0420876">
        <ele>137</ele>
        <time>2022-01-20T08:31:11Z</time>
      </trkpt>
      <trkpt lat="47.686115" lon="2.0421023">
        <ele>137</ele>
        <time>2022-01-20T08:31:12Z</time>
      </trkpt>
      <trkpt lat="47.686108" lon="2.0421124">
        <ele>137</ele>
        <time>2022-01-20T08:31:13Z</time>
      </trkpt>
      <trkpt lat="47.6861" lon="2.042123">
        <ele>137</ele>
        <time>2022-01-20T08:31:14Z</time>
      </trkpt>
      <trkpt lat="47.68609" lon="2.042132">
        <ele>137</ele>
        <time>2022-01-20T08:31:15Z</time>
      </trkpt>
      <trkpt lat="47.68608" lon="2.0421426">
        <ele>137</ele>
        <time>2022-01-20T08:31:16Z</time>
      </trkpt>
      <trkpt lat="47.686073" lon="2.0421517">
        <ele>138</ele>
        <time>2022-01-20T08:31:17Z</time>
      </trkpt>
      <trkpt lat="47.686066" lon="2.0421574">
        <ele>138</ele>
        <time>2022-01-20T08:31:18Z</time>
      </trkpt>
      <trkpt lat="47.686058" lon="2.042165">
        <ele>138</ele>
        <time>2022-01-20T08:31:19Z</time>
      </trkpt>
      <trkpt lat="47.68605" lon="2.0421824">
        <ele>139</ele>
        <time>2022-01-20T08:31:20Z</time>
      </trkpt>
      <trkpt lat="47.686035" lon="2.0422003">
        <ele>139</ele>
        <time>2022-01-20T08:31:21Z</time>
      </trkpt>
      <trkpt lat="47.68602" lon="2.0422153">
        <ele>139</ele>
        <time>2022-01-20T08:31:22Z</time>
      </trkpt>
      <trkpt lat="47.686005" lon="2.0422235">
        <ele>139</ele>
        <time>2022-01-20T08:31:23Z</time>
      </trkpt>
      <trkpt lat="47.685993" lon="2.0422235">
        <ele>139</ele>
        <time>2022-01-20T08:31:24Z</time>
      </trkpt>
      <trkpt lat="47.685986" lon="2.042227">
        <ele>139</ele>
        <time>2022-01-20T08:31:25Z</time>
      </trkpt>
      <trkpt lat="47.68598" lon="2.042231">
        <ele>139</ele>
        <time>2022-01-20T08:31:26Z</time>
      </trkpt>
      <trkpt lat="47.68597" lon="2.0422335">
        <ele>139</ele>
        <time>2022-01-20T08:31:27Z</time>
      </trkpt>
      <trkpt lat="47.68596" lon="2.0422442">
        <ele>139</ele>
        <time>2022-01-20T08:31:28Z</time>
      </trkpt>
      <trkpt lat="47.68595" lon="2.0422602">
        <ele>140</ele>
        <time>2022-01-20T08:31:29Z</time>
      </trkpt>
      <trkpt lat="47.68594" lon="2.042268">
        <ele>140</ele>
        <time>2022-01-20T08:31:30Z</time>
      </trkpt>
      <trkpt lat="47.685932" lon="2.0422707">
        <ele>140</ele>
        <time>2022-01-20T08:31:31Z</time>
      </trkpt>
      <trkpt lat="47.685925" lon="2.0422738">
        <ele>140</ele>
        <time>2022-01-20T08:31:32Z</time>
      </trkpt>
      <trkpt lat="47.685917" lon="2.0422761">
        <ele>141</ele>
        <time>2022-01-20T08:31:33Z</time>
      </trkpt>
      <trkpt lat="47.685917" lon="2.0422761">
        <ele>141</ele>
        <time>2022-01-20T08:31:34Z</time>
      </trkpt>
      <trkpt lat="47.685917" lon="2.0422761">
        <ele>141</ele>
        <time>2022-01-20T08:31:35Z</time>
      </trkpt>
      <trkpt lat="47.68591" lon="2.0422883">
        <ele>140</ele>
        <time>2022-01-20T08:31:36Z</time>
      </trkpt>
      <trkpt lat="47.68591" lon="2.0422986">
        <ele>140</ele>
        <time>2022-01-20T08:31:37Z</time>
      </trkpt>
      <trkpt lat="47.68591" lon="2.0422986">
        <ele>140</ele>
        <time>2022-01-20T08:31:38Z</time>
      </trkpt>
      <trkpt lat="47.68591" lon="2.0422988">
        <ele>140</ele>
        <time>2022-01-20T08:31:39Z</time>
      </trkpt>
      <trkpt lat="47.68591" lon="2.0422988">
        <ele>140</ele>
        <time>2022-01-20T08:31:40Z</time>
      </trkpt>
      <trkpt lat="47.68591" lon="2.0422988">
        <ele>140</ele>
        <time>2022-01-20T08:31:41Z</time>
      </trkpt>
      <trkpt lat="47.68591" lon="2.0422988">
        <ele>140</ele>
        <time>2022-01-20T08:31:41Z</time>
      </trkpt>
    </trkseg>
    <trkseg>
      <trkpt lat="47.68591" lon="2.0422988">
        <ele>140</ele>
        <time>2022-01-20T08:31:41Z</time>
      </trkpt>
      <trkpt lat="47.685818" lon="2.042373">
        <ele>140</ele>
        <time>2022-01-20T08:32:26Z</time>
      </trkpt>
      <trkpt lat="47.685806" lon="2.042374">
        <ele>140</ele>
        <time>2022-01-20T08:32:27Z</time>
      </trkpt>
      <trkpt lat="47.685795" lon="2.0423772">
        <ele>140</ele>
        <time>2022-01-20T08:32:28Z</time>
      </trkpt>
      <trkpt lat="47.685783" lon="2.0423753">
        <ele>140</ele>
        <time>2022-01-20T08:32:29Z</time>
      </trkpt>
      <trkpt lat="47.685772" lon="2.042379">
        <ele>141</ele>
        <time>2022-01-20T08:32:30Z</time>
      </trkpt>
      <trkpt lat="47.685764" lon="2.042385">
        <ele>141</ele>
        <time>2022-01-20T08:32:31Z</time>
      </trkpt>
      <trkpt lat="47.685757" lon="2.0423992">
        <ele>141</ele>
        <time>2022-01-20T08:32:32Z</time>
      </trkpt>
      <trkpt lat="47.685753" lon="2.0424118">
        <ele>141</ele>
        <time>2022-01-20T08:32:33Z</time>
      </trkpt>
      <trkpt lat="47.685745" lon="2.0424192">
        <ele>141</ele>
        <time>2022-01-20T08:32:34Z</time>
      </trkpt>
      <trkpt lat="47.685738" lon="2.042422">
        <ele>141</ele>
        <time>2022-01-20T08:32:35Z</time>
      </trkpt>
      <trkpt lat="47.68573" lon="2.0424292">
        <ele>142</ele>
        <time>2022-01-20T08:32:36Z</time>
      </trkpt>
      <trkpt lat="47.685722" lon="2.0424364">
        <ele>142</ele>
        <time>2022-01-20T08:32:37Z</time>
      </trkpt>
      <trkpt lat="47.68571" lon="2.0424378">
        <ele>142</ele>
        <time>2022-01-20T08:32:38Z</time>
      </trkpt>
      <trkpt lat="47.685696" lon="2.0424337">
        <ele>142</ele>
        <time>2022-01-20T08:32:39Z</time>
      </trkpt>
      <trkpt lat="47.685688" lon="2.0424335">
        <ele>142</ele>
        <time>2022-01-20T08:32:40Z</time>
      </trkpt>
      <trkpt lat="47.685673" lon="2.0424364">
        <ele>142</ele>
        <time>2022-01-20T08:32:41Z</time>
      </trkpt>
      <trkpt lat="47.68566" lon="2.0424361">
        <ele>142</ele>
        <time>2022-01-20T08:32:42Z</time>
      </trkpt>
      <trkpt lat="47.685654" lon="2.0424318">
        <ele>141</ele>
        <time>2022-01-20T08:32:43Z</time>
      </trkpt>
      <trkpt lat="47.685642" lon="2.042435">
        <ele>141</ele>
        <time>2022-01-20T08:32:44Z</time>
      </trkpt>
      <trkpt lat="47.68564" lon="2.042433">
        <ele>141</ele>
        <time>2022-01-20T08:32:45Z</time>
      </trkpt>
      <trkpt lat="47.68564" lon="2.0424356">
        <ele>142</ele>
        <time>2022-01-20T08:32:46Z</time>
      </trkpt>
      <trkpt lat="47.68563" lon="2.0424414">
        <ele>142</ele>
        <time>2022-01-20T08:32:47Z</time>
      </trkpt>
      <trkpt lat="47.685623" lon="2.0424392">
        <ele>142</ele>
        <time>2022-01-20T08:32:48Z</time>
      </trkpt>
      <trkpt lat="47.685623" lon="2.0424392">
        <ele>142</ele>
        <time>2022-01-20T08:32:49Z</time>
      </trkpt>
      <trkpt lat="47.685623" lon="2.0424392">
        <ele>142</ele>
        <time>2022-01-20T08:32:50Z</time>
      </trkpt>
      <trkpt lat="47.685616" lon="2.042449">
        <ele>142</ele>
        <time>2022-01-20T08:32:51Z</time>
      </trkpt>
      <trkpt lat="47.685604" lon="2.0424502">
        <ele>142</ele>
        <time>2022-01-20T08:32:52Z</time>
      </trkpt>
      <trkpt lat="47.685596" lon="2.0424497">
        <ele>142</ele>
        <time>2022-01-20T08:32:53Z</time>
      </trkpt>
      <trkpt lat="47.68559" lon="2.0424476">
        <ele>142</ele>
        <time>2022-01-20T08:32:54Z</time>
      </trkpt>
      <trkpt lat="47.68558" lon="2.0424502">
        <ele>142</ele>
        <time>2022-01-20T08:32:55Z</time>
      </trkpt>
      <trkpt lat="47.68557" lon="2.0424542">
        <ele>142</ele>
        <time>2022-01-20T08:32:56Z</time>
      </trkpt>
      <trkpt lat="47.685562" lon="2.0424573">
        <ele>142</ele>
        <time>2022-01-20T08:32:57Z</time>
      </trkpt>
      <trkpt lat="47.685555" lon="2.042461">
        <ele>142</ele>
        <time>2022-01-20T08:32:58Z</time>
      </trkpt>
      <trkpt lat="47.685543" lon="2.0424619">
        <ele>142</ele>
        <time>2022-01-20T08:32:59Z</time>
      </trkpt>
      <trkpt lat="47.685528" lon="2.0424623">
        <ele>142</ele>
        <time>2022-01-20T08:33:00Z</time>
      </trkpt>
      <trkpt lat="47.68552" lon="2.0424635">
        <ele>142</ele>
        <time>2022-01-20T08:33:01Z</time>
      </trkpt>
      <trkpt lat="47.685505" lon="2.0424664">
        <ele>143</ele>
        <time>2022-01-20T08:33:02Z</time>
      </trkpt>
      <trkpt lat="47.685493" lon="2.0424685">
        <ele>143</ele>
        <time>2022-01-20T08:33:03Z</time>
      </trkpt>
      <trkpt lat="47.685482" lon="2.0424716">
        <ele>143</ele>
        <time>2022-01-20T08:33:04Z</time>
      </trkpt>
      <trkpt lat="47.68547" lon="2.042475">
        <ele>144</ele>
        <time>2022-01-20T08:33:05Z</time>
      </trkpt>
      <trkpt lat="47.685455" lon="2.0424786">
        <ele>144</ele>
        <time>2022-01-20T08:33:06Z</time>
      </trkpt>
      <trkpt lat="47.685444" lon="2.0424824">
        <ele>143</ele>
        <time>2022-01-20T08:33:07Z</time>
      </trkpt>
      <trkpt lat="47.68543" lon="2.0424855">
        <ele>143</ele>
        <time>2022-01-20T08:33:08Z</time>
      </trkpt>
      <trkpt lat="47.685417" lon="2.0424821">
        <ele>143</ele>
        <time>2022-01-20T08:33:09Z</time>
      </trkpt>
      <trkpt lat="47.685406" lon="2.0424864">
        <ele>143</ele>
        <time>2022-01-20T08:33:10Z</time>
      </trkpt>
      <trkpt lat="47.68539" lon="2.0424898">
        <ele>142</ele>
        <time>2022-01-20T08:33:11Z</time>
      </trkpt>
      <trkpt lat="47.685375" lon="2.0424879">
        <ele>142</ele>
        <time>2022-01-20T08:33:12Z</time>
      </trkpt>
      <trkpt lat="47.68536" lon="2.042482">
        <ele>142</ele>
        <time>2022-01-20T08:33:13Z</time>
      </trkpt>
      <trkpt lat="47.68534" lon="2.0424788">
        <ele>142</ele>
        <time>2022-01-20T08:33:14Z</time>
      </trkpt>
      <trkpt lat="47.685326" lon="2.0424805">
        <ele>141</ele>
        <time>2022-01-20T08:33:15Z</time>
      </trkpt>
      <trkpt lat="47.68531" lon="2.042484">
        <ele>141</ele>
        <time>2022-01-20T08:33:16Z</time>
      </trkpt>
      <trkpt lat="47.6853" lon="2.0424843">
        <ele>141</ele>
        <time>2022-01-20T08:33:17Z</time>
      </trkpt>
      <trkpt lat="47.685287" lon="2.0424843">
        <ele>141</ele>
        <time>2022-01-20T08:33:18Z</time>
      </trkpt>
      <trkpt lat="47.685276" lon="2.0424845">
        <ele>141</ele>
        <time>2022-01-20T08:33:19Z</time>
      </trkpt>
      <trkpt lat="47.685265" lon="2.042487">
        <ele>141</ele>
        <time>2022-01-20T08:33:20Z</time>
      </trkpt>
      <trkpt lat="47.685257" lon="2.0424864">
        <ele>142</ele>
        <time>2022-01-20T08:33:21Z</time>
      </trkpt>
      <trkpt lat="47.685246" lon="2.0424888">
        <ele>142</ele>
        <time>2022-01-20T08:33:22Z</time>
      </trkpt>
      <trkpt lat="47.685238" lon="2.042489">
        <ele>142</ele>
        <time>2022-01-20T08:33:23Z</time>
      </trkpt>
      <trkpt lat="47.685226" lon="2.0424914">
        <ele>142</ele>
        <time>2022-01-20T08:33:24Z</time>
      </trkpt>
      <trkpt lat="47.685215" lon="2.042492">
        <ele>143</ele>
        <time>2022-01-20T08:33:25Z</time>
      </trkpt>
      <trkpt lat="47.685204" lon="2.0424905">
        <ele>143</ele>
        <time>2022-01-20T08:33:26Z</time>
      </trkpt>
      <trkpt lat="47.685192" lon="2.0424945">
        <ele>143</ele>
        <time>2022-01-20T08:33:27Z</time>
      </trkpt>
      <trkpt lat="47.68518" lon="2.042498">
        <ele>143</ele>
        <time>2022-01-20T08:33:28Z</time>
      </trkpt>
      <trkpt lat="47.685173" lon="2.042502">
        <ele>143</ele>
        <time>2022-01-20T08:33:29Z</time>
      </trkpt>
      <trkpt lat="47.685165" lon="2.0425084">
        <ele>143</ele>
        <time>2022-01-20T08:33:30Z</time>
      </trkpt>
      <trkpt lat="47.685158" lon="2.0425143">
        <ele>143</ele>
        <time>2022-01-20T08:33:31Z</time>
      </trkpt>
      <trkpt lat="47.685146" lon="2.0425162">
        <ele>143</ele>
        <time>2022-01-20T08:33:32Z</time>
      </trkpt>
      <trkpt lat="47.68514" lon="2.0425165">
        <ele>144</ele>
        <time>2022-01-20T08:33:33Z</time>
      </trkpt>
      <trkpt lat="47.685127" lon="2.042515">
        <ele>143</ele>
        <time>2022-01-20T08:33:34Z</time>
      </trkpt>
      <trkpt lat="47.685112" lon="2.0425136">
        <ele>143</ele>
        <time>2022-01-20T08:33:35Z</time>
      </trkpt>
      <trkpt lat="47.6851" lon="2.042513">
        <ele>143</ele>
        <time>2022-01-20T08:33:36Z</time>
      </trkpt>
      <trkpt lat="47.685085" lon="2.0425158">
        <ele>143</ele>
        <time>2022-01-20T08:33:37Z</time>
      </trkpt>
      <trkpt lat="47.685074" lon="2.042517">
        <ele>144</ele>
        <time>2022-01-20T08:33:38Z</time>
      </trkpt>
      <trkpt lat="47.685062" lon="2.042517">
        <ele>144</ele>
        <time>2022-01-20T08:33:39Z</time>
      </trkpt>
      <trkpt lat="47.68505" lon="2.0425186">
        <ele>144</ele>
        <time>2022-01-20T08:33:40Z</time>
      </trkpt>
      <trkpt lat="47.68504" lon="2.0425208">
        <ele>144</ele>
        <time>2022-01-20T08:33:41Z</time>
      </trkpt>
      <trkpt lat="47.685028" lon="2.0425255">
        <ele>144</ele>
        <time>2022-01-20T08:33:42Z</time>
      </trkpt>
      <trkpt lat="47.685017" lon="2.0425298">
        <ele>144</ele>
        <time>2022-01-20T08:33:43Z</time>
      </trkpt>
      <trkpt lat="47.685005" lon="2.0425303">
        <ele>144</ele>
        <time>2022-01-20T08:33:44Z</time>
      </trkpt>
      <trkpt lat="47.684994" lon="2.0425353">
        <ele>143</ele>
        <time>2022-01-20T08:33:45Z</time>
      </trkpt>
      <trkpt lat="47.684982" lon="2.0425355">
        <ele>144</ele>
        <time>2022-01-20T08:33:46Z</time>
      </trkpt>
      <trkpt lat="47.68497" lon="2.0425406">
        <ele>144</ele>
        <time>2022-01-20T08:33:47Z</time>
      </trkpt>
      <trkpt lat="47.68496" lon="2.0425465">
        <ele>144</ele>
        <time>2022-01-20T08:33:48Z</time>
      </trkpt>
      <trkpt lat="47.684948" lon="2.0425503">
        <ele>145</ele>
        <time>2022-01-20T08:33:49Z</time>
      </trkpt>
      <trkpt lat="47.684937" lon="2.0425518">
        <ele>145</ele>
        <time>2022-01-20T08:33:50Z</time>
      </trkpt>
      <trkpt lat="47.68492" lon="2.0425506">
        <ele>145</ele>
        <time>2022-01-20T08:33:51Z</time>
      </trkpt>
      <trkpt lat="47.68491" lon="2.0425444">
        <ele>145</ele>
        <time>2022-01-20T08:33:52Z</time>
      </trkpt>
      <trkpt lat="47.684902" lon="2.0425324">
        <ele>145</ele>
        <time>2022-01-20T08:33:53Z</time>
      </trkpt>
      <trkpt lat="47.684895" lon="2.0425293">
        <ele>145</ele>
        <time>2022-01-20T08:33:54Z</time>
      </trkpt>
      <trkpt lat="47.684883" lon="2.0425332">
        <ele>145</ele>
        <time>2022-01-20T08:33:55Z</time>
      </trkpt>
      <trkpt lat="47.68487" lon="2.0425303">
        <ele>146</ele>
        <time>2022-01-20T08:33:56Z</time>
      </trkpt>
      <trkpt lat="47.68486" lon="2.04253">
        <ele>146</ele>
        <time>2022-01-20T08:33:57Z</time>
      </trkpt>
      <trkpt lat="47.684853" lon="2.0425317">
        <ele>146</ele>
        <time>2022-01-20T08:33:58Z</time>
      </trkpt>
      <trkpt lat="47.68484" lon="2.0425322">
        <ele>146</ele>
        <time>2022-01-20T08:33:59Z</time>
      </trkpt>
      <trkpt lat="47.68483" lon="2.0425332">
        <ele>146</ele>
        <time>2022-01-20T08:34:00Z</time>
      </trkpt>
      <trkpt lat="47.684826" lon="2.042529">
        <ele>146</ele>
        <time>2022-01-20T08:34:01Z</time>
      </trkpt>
      <trkpt lat="47.68482" lon="2.0425215">
        <ele>146</ele>
        <time>2022-01-20T08:34:02Z</time>
      </trkpt>
      <trkpt lat="47.684807" lon="2.0425174">
        <ele>146</ele>
        <time>2022-01-20T08:34:03Z</time>
      </trkpt>
      <trkpt lat="47.68479" lon="2.0425205">
        <ele>146</ele>
        <time>2022-01-20T08:34:04Z</time>
      </trkpt>
      <trkpt lat="47.68478" lon="2.0425262">
        <ele>146</ele>
        <time>2022-01-20T08:34:05Z</time>
      </trkpt>
      <trkpt lat="47.684772" lon="2.042531">
        <ele>146</ele>
        <time>2022-01-20T08:34:06Z</time>
      </trkpt>
      <trkpt lat="47.68477" lon="2.0425391">
        <ele>146</ele>
        <time>2022-01-20T08:34:07Z</time>
      </trkpt>
      <trkpt lat="47.68476" lon="2.0425441">
        <ele>146</ele>
        <time>2022-01-20T08:34:08Z</time>
      </trkpt>
      <trkpt lat="47.68475" lon="2.04255">
        <ele>145</ele>
        <time>2022-01-20T08:34:09Z</time>
      </trkpt>
      <trkpt lat="47.68474" lon="2.042559">
        <ele>145</ele>
        <time>2022-01-20T08:34:10Z</time>
      </trkpt>
      <trkpt lat="47.684727" lon="2.0425646">
        <ele>145</ele>
        <time>2022-01-20T08:34:11Z</time>
      </trkpt>
      <trkpt lat="47.684708" lon="2.0425687">
        <ele>145</ele>
        <time>2022-01-20T08:34:12Z</time>
      </trkpt>
      <trkpt lat="47.684696" lon="2.0425804">
        <ele>144</ele>
        <time>2022-01-20T08:34:13Z</time>
      </trkpt>
      <trkpt lat="47.684685" lon="2.0425847">
        <ele>144</ele>
        <time>2022-01-20T08:34:14Z</time>
      </trkpt>
      <trkpt lat="47.684673" lon="2.0425885">
        <ele>144</ele>
        <time>2022-01-20T08:34:15Z</time>
      </trkpt>
      <trkpt lat="47.68466" lon="2.0425944">
        <ele>144</ele>
        <time>2022-01-20T08:34:16Z</time>
      </trkpt>
      <trkpt lat="47.684647" lon="2.0425975">
        <ele>144</ele>
        <time>2022-01-20T08:34:17Z</time>
      </trkpt>
      <trkpt lat="47.68463" lon="2.0426006">
        <ele>144</ele>
        <time>2022-01-20T08:34:18Z</time>
      </trkpt>
      <trkpt lat="47.68462" lon="2.042603">
        <ele>144</ele>
        <time>2022-01-20T08:34:19Z</time>
      </trkpt>
      <trkpt lat="47.68461" lon="2.0426023">
        <ele>144</ele>
        <time>2022-01-20T08:34:20Z</time>
      </trkpt>
      <trkpt lat="47.684597" lon="2.0426073">
        <ele>144</ele>
        <time>2022-01-20T08:34:21Z</time>
      </trkpt>
      <trkpt lat="47.684586" lon="2.042603">
        <ele>144</ele>
        <time>2022-01-20T08:34:22Z</time>
      </trkpt>
      <trkpt lat="47.684574" lon="2.042605">
        <ele>145</ele>
        <time>2022-01-20T08:34:23Z</time>
      </trkpt>
      <trkpt lat="47.684563" lon="2.0426037">
        <ele>145</ele>
        <time>2022-01-20T08:34:24Z</time>
      </trkpt>
      <trkpt lat="47.68455" lon="2.0425992">
        <ele>145</ele>
        <time>2022-01-20T08:34:25Z</time>
      </trkpt>
      <trkpt lat="47.68454" lon="2.0425954">
        <ele>145</ele>
        <time>2022-01-20T08:34:26Z</time>
      </trkpt>
      <trkpt lat="47.68453" lon="2.042596">
        <ele>145</ele>
        <time>2022-01-20T08:34:27Z</time>
      </trkpt>
      <trkpt lat="47.68451" lon="2.0426018">
        <ele>145</ele>
        <time>2022-01-20T08:34:28Z</time>
      </trkpt>
      <trkpt lat="47.684494" lon="2.042612">
        <ele>145</ele>
        <time>2022-01-20T08:34:29Z</time>
      </trkpt>
      <trkpt lat="47.68448" lon="2.0426154">
        <ele>145</ele>
        <time>2022-01-20T08:34:30Z</time>
      </trkpt>
      <trkpt lat="47.684467" lon="2.042621">
        <ele>144</ele>
        <time>2022-01-20T08:34:31Z</time>
      </trkpt>
      <trkpt lat="47.684452" lon="2.0426197">
        <ele>144</ele>
        <time>2022-01-20T08:34:32Z</time>
      </trkpt>
      <trkpt lat="47.684437" lon="2.0426197">
        <ele>144</ele>
        <time>2022-01-20T08:34:33Z</time>
      </trkpt>
      <trkpt lat="47.68442" lon="2.0426254">
        <ele>144</ele>
        <time>2022-01-20T08:34:34Z</time>
      </trkpt>
      <trkpt lat="47.68441" lon="2.0426254">
        <ele>144</ele>
        <time>2022-01-20T08:34:35Z</time>
      </trkpt>
      <trkpt lat="47.684402" lon="2.0426238">
        <ele>144</ele>
        <time>2022-01-20T08:34:36Z</time>
      </trkpt>
      <trkpt lat="47.68439" lon="2.0426254">
        <ele>144</ele>
        <time>2022-01-20T08:34:37Z</time>
      </trkpt>
      <trkpt lat="47.684383" lon="2.0426338">
        <ele>144</ele>
        <time>2022-01-20T08:34:38Z</time>
      </trkpt>
      <trkpt lat="47.684376" lon="2.0426419">
        <ele>144</ele>
        <time>2022-01-20T08:34:39Z</time>
      </trkpt>
      <trkpt lat="47.68437" lon="2.0426476">
        <ele>144</ele>
        <time>2022-01-20T08:34:40Z</time>
      </trkpt>
      <trkpt lat="47.684364" lon="2.0426693">
        <ele>143</ele>
        <time>2022-01-20T08:34:41Z</time>
      </trkpt>
      <trkpt lat="47.68436" lon="2.042688">
        <ele>143</ele>
        <time>2022-01-20T08:34:42Z</time>
      </trkpt>
      <trkpt lat="47.684357" lon="2.0427136">
        <ele>143</ele>
        <time>2022-01-20T08:34:43Z</time>
      </trkpt>
      <trkpt lat="47.684357" lon="2.0427353">
        <ele>144</ele>
        <time>2022-01-20T08:34:44Z</time>
      </trkpt>
      <trkpt lat="47.684353" lon="2.0427523">
        <ele>144</ele>
        <time>2022-01-20T08:34:45Z</time>
      </trkpt>
      <trkpt lat="47.684345" lon="2.0427744">
        <ele>144</ele>
        <time>2022-01-20T08:34:46Z</time>
      </trkpt>
      <trkpt lat="47.68434" lon="2.042792">
        <ele>143</ele>
        <time>2022-01-20T08:34:47Z</time>
      </trkpt>
      <trkpt lat="47.684338" lon="2.0428092">
        <ele>144</ele>
        <time>2022-01-20T08:34:48Z</time>
      </trkpt>
      <trkpt lat="47.68433" lon="2.042829">
        <ele>144</ele>
        <time>2022-01-20T08:34:49Z</time>
      </trkpt>
      <trkpt lat="47.684326" lon="2.042843">
        <ele>144</ele>
        <time>2022-01-20T08:34:50Z</time>
      </trkpt>
      <trkpt lat="47.684322" lon="2.0428584">
        <ele>145</ele>
        <time>2022-01-20T08:34:51Z</time>
      </trkpt>
      <trkpt lat="47.68432" lon="2.0428748">
        <ele>145</ele>
        <time>2022-01-20T08:34:52Z</time>
      </trkpt>
      <trkpt lat="47.684315" lon="2.0428874">
        <ele>145</ele>
        <time>2022-01-20T08:34:53Z</time>
      </trkpt>
      <trkpt lat="47.684315" lon="2.0429022">
        <ele>145</ele>
        <time>2022-01-20T08:34:54Z</time>
      </trkpt>
      <trkpt lat="47.68431" lon="2.0429184">
        <ele>146</ele>
        <time>2022-01-20T08:34:55Z</time>
      </trkpt>
      <trkpt lat="47.684307" lon="2.0429347">
        <ele>146</ele>
        <time>2022-01-20T08:34:56Z</time>
      </trkpt>
      <trkpt lat="47.684307" lon="2.042948">
        <ele>145</ele>
        <time>2022-01-20T08:34:57Z</time>
      </trkpt>
      <trkpt lat="47.6843" lon="2.042963">
        <ele>145</ele>
        <time>2022-01-20T08:34:58Z</time>
      </trkpt>
      <trkpt lat="47.6843" lon="2.0429745">
        <ele>145</ele>
        <time>2022-01-20T08:34:59Z</time>
      </trkpt>
      <trkpt lat="47.68429" lon="2.042994">
        <ele>145</ele>
        <time>2022-01-20T08:35:00Z</time>
      </trkpt>
      <trkpt lat="47.68429" lon="2.0430088">
        <ele>145</ele>
        <time>2022-01-20T08:35:01Z</time>
      </trkpt>
      <trkpt lat="47.68429" lon="2.0430255">
        <ele>145</ele>
        <time>2022-01-20T08:35:02Z</time>
      </trkpt>
      <trkpt lat="47.684288" lon="2.0430462">
        <ele>145</ele>
        <time>2022-01-20T08:35:03Z</time>
      </trkpt>
      <trkpt lat="47.684288" lon="2.0430686">
        <ele>145</ele>
        <time>2022-01-20T08:35:04Z</time>
      </trkpt>
      <trkpt lat="47.68428" lon="2.0430896">
        <ele>144</ele>
        <time>2022-01-20T08:35:05Z</time>
      </trkpt>
      <trkpt lat="47.68428" lon="2.0431054">
        <ele>144</ele>
        <time>2022-01-20T08:35:06Z</time>
      </trkpt>
      <trkpt lat="47.68428" lon="2.04313">
        <ele>144</ele>
        <time>2022-01-20T08:35:07Z</time>
      </trkpt>
      <trkpt lat="47.68428" lon="2.043147">
        <ele>144</ele>
        <time>2022-01-20T08:35:08Z</time>
      </trkpt>
      <trkpt lat="47.68428" lon="2.0431645">
        <ele>144</ele>
        <time>2022-01-20T08:35:09Z</time>
      </trkpt>
      <trkpt lat="47.68428" lon="2.0431802">
        <ele>144</ele>
        <time>2022-01-20T08:35:10Z</time>
      </trkpt>
      <trkpt lat="47.68428" lon="2.0431962">
        <ele>144</ele>
        <time>2022-01-20T08:35:11Z</time>
      </trkpt>
      <trkpt lat="47.68428" lon="2.0432153">
        <ele>144</ele>
        <time>2022-01-20T08:35:12Z</time>
      </trkpt>
      <trkpt lat="47.68428" lon="2.0432327">
        <ele>144</ele>
        <time>2022-01-20T08:35:13Z</time>
      </trkpt>
      <trkpt lat="47.684277" lon="2.0432496">
        <ele>145</ele>
        <time>2022-01-20T08:35:14Z</time>
      </trkpt>
      <trkpt lat="47.684273" lon="2.043268">
        <ele>145</ele>
        <time>2022-01-20T08:35:15Z</time>
      </trkpt>
      <trkpt lat="47.68427" lon="2.0432885">
        <ele>145</ele>
        <time>2022-01-20T08:35:16Z</time>
      </trkpt>
      <trkpt lat="47.68427" lon="2.043304">
        <ele>145</ele>
        <time>2022-01-20T08:35:17Z</time>
      </trkpt>
      <trkpt lat="47.68427" lon="2.0433207">
        <ele>145</ele>
        <time>2022-01-20T08:35:18Z</time>
      </trkpt>
      <trkpt lat="47.68427" lon="2.0433342">
        <ele>145</ele>
        <time>2022-01-20T08:35:19Z</time>
      </trkpt>
      <trkpt lat="47.684265" lon="2.0433497">
        <ele>145</ele>
        <time>2022-01-20T08:35:20Z</time>
      </trkpt>
      <trkpt lat="47.684265" lon="2.043369">
        <ele>145</ele>
        <time>2022-01-20T08:35:21Z</time>
      </trkpt>
      <trkpt lat="47.684258" lon="2.0433862">
        <ele>144</ele>
        <time>2022-01-20T08:35:22Z</time>
      </trkpt>
      <trkpt lat="47.684254" lon="2.043401">
        <ele>144</ele>
        <time>2022-01-20T08:35:23Z</time>
      </trkpt>
      <trkpt lat="47.684254" lon="2.043418">
        <ele>144</ele>
        <time>2022-01-20T08:35:24Z</time>
      </trkpt>
      <trkpt lat="47.684246" lon="2.043439">
        <ele>144</ele>
        <time>2022-01-20T08:35:25Z</time>
      </trkpt>
      <trkpt lat="47.684242" lon="2.043455">
        <ele>145</ele>
        <time>2022-01-20T08:35:26Z</time>
      </trkpt>
      <trkpt lat="47.68424" lon="2.043468">
        <ele>145</ele>
        <time>2022-01-20T08:35:27Z</time>
      </trkpt>
      <trkpt lat="47.68423" lon="2.0434856">
        <ele>145</ele>
        <time>2022-01-20T08:35:28Z</time>
      </trkpt>
      <trkpt lat="47.684227" lon="2.043505">
        <ele>145</ele>
        <time>2022-01-20T08:35:29Z</time>
      </trkpt>
      <trkpt lat="47.684227" lon="2.04352">
        <ele>145</ele>
        <time>2022-01-20T08:35:30Z</time>
      </trkpt>
      <trkpt lat="47.684227" lon="2.0435398">
        <ele>145</ele>
        <time>2022-01-20T08:35:31Z</time>
      </trkpt>
      <trkpt lat="47.684227" lon="2.043557">
        <ele>146</ele>
        <time>2022-01-20T08:35:32Z</time>
      </trkpt>
      <trkpt lat="47.68423" lon="2.0435765">
        <ele>146</ele>
        <time>2022-01-20T08:35:33Z</time>
      </trkpt>
      <trkpt lat="47.68424" lon="2.043593">
        <ele>146</ele>
        <time>2022-01-20T08:35:34Z</time>
      </trkpt>
      <trkpt lat="47.68424" lon="2.043609">
        <ele>145</ele>
        <time>2022-01-20T08:35:35Z</time>
      </trkpt>
      <trkpt lat="47.684235" lon="2.0436258">
        <ele>145</ele>
        <time>2022-01-20T08:35:36Z</time>
      </trkpt>
      <trkpt lat="47.684227" lon="2.0436373">
        <ele>145</ele>
        <time>2022-01-20T08:35:37Z</time>
      </trkpt>
      <trkpt lat="47.684227" lon="2.043648">
        <ele>145</ele>
        <time>2022-01-20T08:35:38Z</time>
      </trkpt>
      <trkpt lat="47.684223" lon="2.0436594">
        <ele>144</ele>
        <time>2022-01-20T08:35:39Z</time>
      </trkpt>
      <trkpt lat="47.684223" lon="2.0436702">
        <ele>144</ele>
        <time>2022-01-20T08:35:40Z</time>
      </trkpt>
      <trkpt lat="47.68422" lon="2.0436845">
        <ele>144</ele>
        <time>2022-01-20T08:35:41Z</time>
      </trkpt>
      <trkpt lat="47.684223" lon="2.0436988">
        <ele>144</ele>
        <time>2022-01-20T08:35:42Z</time>
      </trkpt>
      <trkpt lat="47.68422" lon="2.0437174">
        <ele>143</ele>
        <time>2022-01-20T08:35:43Z</time>
      </trkpt>
      <trkpt lat="47.68421" lon="2.043733">
        <ele>143</ele>
        <time>2022-01-20T08:35:44Z</time>
      </trkpt>
      <trkpt lat="47.684204" lon="2.0437505">
        <ele>143</ele>
        <time>2022-01-20T08:35:45Z</time>
      </trkpt>
      <trkpt lat="47.6842" lon="2.043764">
        <ele>143</ele>
        <time>2022-01-20T08:35:46Z</time>
      </trkpt>
      <trkpt lat="47.684193" lon="2.0437794">
        <ele>143</ele>
        <time>2022-01-20T08:35:47Z</time>
      </trkpt>
      <trkpt lat="47.684185" lon="2.043796">
        <ele>143</ele>
        <time>2022-01-20T08:35:48Z</time>
      </trkpt>
      <trkpt lat="47.68418" lon="2.043815">
        <ele>144</ele>
        <time>2022-01-20T08:35:49Z</time>
      </trkpt>
      <trkpt lat="47.684177" lon="2.0438335">
        <ele>144</ele>
        <time>2022-01-20T08:35:50Z</time>
      </trkpt>
      <trkpt lat="47.684177" lon="2.0438507">
        <ele>144</ele>
        <time>2022-01-20T08:35:51Z</time>
      </trkpt>
      <trkpt lat="47.684174" lon="2.0438683">
        <ele>144</ele>
        <time>2022-01-20T08:35:52Z</time>
      </trkpt>
      <trkpt lat="47.684174" lon="2.0438867">
        <ele>144</ele>
        <time>2022-01-20T08:35:53Z</time>
      </trkpt>
      <trkpt lat="47.68417" lon="2.0439074">
        <ele>144</ele>
        <time>2022-01-20T08:35:54Z</time>
      </trkpt>
      <trkpt lat="47.68417" lon="2.0439243">
        <ele>143</ele>
        <time>2022-01-20T08:35:55Z</time>
      </trkpt>
      <trkpt lat="47.68417" lon="2.0439425">
        <ele>144</ele>
        <time>2022-01-20T08:35:56Z</time>
      </trkpt>
      <trkpt lat="47.68417" lon="2.043962">
        <ele>144</ele>
        <time>2022-01-20T08:35:57Z</time>
      </trkpt>
      <trkpt lat="47.684166" lon="2.04398">
        <ele>144</ele>
        <time>2022-01-20T08:35:58Z</time>
      </trkpt>
      <trkpt lat="47.68416" lon="2.0440004">
        <ele>143</ele>
        <time>2022-01-20T08:35:59Z</time>
      </trkpt>
      <trkpt lat="47.684155" lon="2.04402">
        <ele>143</ele>
        <time>2022-01-20T08:36:00Z</time>
      </trkpt>
      <trkpt lat="47.684155" lon="2.044039">
        <ele>143</ele>
        <time>2022-01-20T08:36:01Z</time>
      </trkpt>
      <trkpt lat="47.684147" lon="2.0440602">
        <ele>143</ele>
        <time>2022-01-20T08:36:02Z</time>
      </trkpt>
      <trkpt lat="47.684143" lon="2.0440788">
        <ele>143</ele>
        <time>2022-01-20T08:36:03Z</time>
      </trkpt>
      <trkpt lat="47.68414" lon="2.0440936">
        <ele>143</ele>
        <time>2022-01-20T08:36:04Z</time>
      </trkpt>
      <trkpt lat="47.684135" lon="2.0441115">
        <ele>144</ele>
        <time>2022-01-20T08:36:05Z</time>
      </trkpt>
      <trkpt lat="47.68413" lon="2.0441341">
        <ele>143</ele>
        <time>2022-01-20T08:36:06Z</time>
      </trkpt>
      <trkpt lat="47.68413" lon="2.0441535">
        <ele>143</ele>
        <time>2022-01-20T08:36:07Z</time>
      </trkpt>
      <trkpt lat="47.684124" lon="2.0441718">
        <ele>143</ele>
        <time>2022-01-20T08:36:08Z</time>
      </trkpt>
      <trkpt lat="47.684124" lon="2.0441902">
        <ele>144</ele>
        <time>2022-01-20T08:36:09Z</time>
      </trkpt>
      <trkpt lat="47.684124" lon="2.0442095">
        <ele>144</ele>
        <time>2022-01-20T08:36:10Z</time>
      </trkpt>
      <trkpt lat="47.68412" lon="2.0442293">
        <ele>145</ele>
        <time>2022-01-20T08:36:11Z</time>
      </trkpt>
      <trkpt lat="47.684116" lon="2.0442493">
        <ele>145</ele>
        <time>2022-01-20T08:36:12Z</time>
      </trkpt>
      <trkpt lat="47.684113" lon="2.0442698">
        <ele>145</ele>
        <time>2022-01-20T08:36:13Z</time>
      </trkpt>
      <trkpt lat="47.684113" lon="2.0442889">
        <ele>145</ele>
        <time>2022-01-20T08:36:14Z</time>
      </trkpt>
      <trkpt lat="47.68411" lon="2.044309">
        <ele>144</ele>
        <time>2022-01-20T08:36:15Z</time>
      </trkpt>
      <trkpt lat="47.68411" lon="2.0443258">
        <ele>144</ele>
        <time>2022-01-20T08:36:16Z</time>
      </trkpt>
      <trkpt lat="47.684105" lon="2.0443435">
        <ele>144</ele>
        <time>2022-01-20T08:36:17Z</time>
      </trkpt>
      <trkpt lat="47.684105" lon="2.0443563">
        <ele>143</ele>
        <time>2022-01-20T08:36:18Z</time>
      </trkpt>
      <trkpt lat="47.684105" lon="2.0443692">
        <ele>143</ele>
        <time>2022-01-20T08:36:19Z</time>
      </trkpt>
      <trkpt lat="47.684105" lon="2.0443912">
        <ele>144</ele>
        <time>2022-01-20T08:36:20Z</time>
      </trkpt>
      <trkpt lat="47.6841" lon="2.0444136">
        <ele>143</ele>
        <time>2022-01-20T08:36:21Z</time>
      </trkpt>
      <trkpt lat="47.684097" lon="2.0444343">
        <ele>144</ele>
        <time>2022-01-20T08:36:22Z</time>
      </trkpt>
      <trkpt lat="47.684093" lon="2.0444543">
        <ele>144</ele>
        <time>2022-01-20T08:36:23Z</time>
      </trkpt>
      <trkpt lat="47.684097" lon="2.0444696">
        <ele>144</ele>
        <time>2022-01-20T08:36:24Z</time>
      </trkpt>
      <trkpt lat="47.684097" lon="2.0444877">
        <ele>144</ele>
        <time>2022-01-20T08:36:25Z</time>
      </trkpt>
      <trkpt lat="47.684093" lon="2.0445058">
        <ele>144</ele>
        <time>2022-01-20T08:36:26Z</time>
      </trkpt>
      <trkpt lat="47.68409" lon="2.04452">
        <ele>144</ele>
        <time>2022-01-20T08:36:27Z</time>
      </trkpt>
      <trkpt lat="47.684086" lon="2.0445383">
        <ele>144</ele>
        <time>2022-01-20T08:36:28Z</time>
      </trkpt>
      <trkpt lat="47.684086" lon="2.0445545">
        <ele>143</ele>
        <time>2022-01-20T08:36:29Z</time>
      </trkpt>
      <trkpt lat="47.684082" lon="2.0445719">
        <ele>143</ele>
        <time>2022-01-20T08:36:30Z</time>
      </trkpt>
      <trkpt lat="47.684074" lon="2.0445876">
        <ele>143</ele>
        <time>2022-01-20T08:36:31Z</time>
      </trkpt>
      <trkpt lat="47.684074" lon="2.0445995">
        <ele>143</ele>
        <time>2022-01-20T08:36:32Z</time>
      </trkpt>
      <trkpt lat="47.684067" lon="2.0446153">
        <ele>143</ele>
        <time>2022-01-20T08:36:33Z</time>
      </trkpt>
      <trkpt lat="47.684067" lon="2.0446332">
        <ele>143</ele>
        <time>2022-01-20T08:36:34Z</time>
      </trkpt>
      <trkpt lat="47.684067" lon="2.044654">
        <ele>143</ele>
        <time>2022-01-20T08:36:35Z</time>
      </trkpt>
      <trkpt lat="47.68407" lon="2.0446737">
        <ele>143</ele>
        <time>2022-01-20T08:36:36Z</time>
      </trkpt>
      <trkpt lat="47.68407" lon="2.0446966">
        <ele>143</ele>
        <time>2022-01-20T08:36:37Z</time>
      </trkpt>
      <trkpt lat="47.68407" lon="2.044715">
        <ele>143</ele>
        <time>2022-01-20T08:36:38Z</time>
      </trkpt>
      <trkpt lat="47.684067" lon="2.044731">
        <ele>143</ele>
        <time>2022-01-20T08:36:39Z</time>
      </trkpt>
      <trkpt lat="47.684067" lon="2.044748">
        <ele>143</ele>
        <time>2022-01-20T08:36:40Z</time>
      </trkpt>
      <trkpt lat="47.684063" lon="2.044762">
        <ele>143</ele>
        <time>2022-01-20T08:36:41Z</time>
      </trkpt>
      <trkpt lat="47.684063" lon="2.0447788">
        <ele>143</ele>
        <time>2022-01-20T08:36:42Z</time>
      </trkpt>
      <trkpt lat="47.684063" lon="2.0447953">
        <ele>142</ele>
        <time>2022-01-20T08:36:43Z</time>
      </trkpt>
      <trkpt lat="47.684063" lon="2.0448146">
        <ele>142</ele>
        <time>2022-01-20T08:36:44Z</time>
      </trkpt>
      <trkpt lat="47.684063" lon="2.044833">
        <ele>143</ele>
        <time>2022-01-20T08:36:45Z</time>
      </trkpt>
      <trkpt lat="47.684063" lon="2.0448465">
        <ele>143</ele>
        <time>2022-01-20T08:36:46Z</time>
      </trkpt>
      <trkpt lat="47.684063" lon="2.0448642">
        <ele>142</ele>
        <time>2022-01-20T08:36:47Z</time>
      </trkpt>
      <trkpt lat="47.684063" lon="2.0448828">
        <ele>142</ele>
        <time>2022-01-20T08:36:48Z</time>
      </trkpt>
      <trkpt lat="47.684063" lon="2.0449002">
        <ele>142</ele>
        <time>2022-01-20T08:36:49Z</time>
      </trkpt>
      <trkpt lat="47.684063" lon="2.0449142">
        <ele>142</ele>
        <time>2022-01-20T08:36:50Z</time>
      </trkpt>
      <trkpt lat="47.68406" lon="2.0449317">
        <ele>142</ele>
        <time>2022-01-20T08:36:51Z</time>
      </trkpt>
      <trkpt lat="47.68406" lon="2.0449448">
        <ele>141</ele>
        <time>2022-01-20T08:36:52Z</time>
      </trkpt>
      <trkpt lat="47.68406" lon="2.0449622">
        <ele>142</ele>
        <time>2022-01-20T08:36:53Z</time>
      </trkpt>
      <trkpt lat="47.684063" lon="2.0449772">
        <ele>142</ele>
        <time>2022-01-20T08:36:54Z</time>
      </trkpt>
      <trkpt lat="47.684063" lon="2.0449924">
        <ele>142</ele>
        <time>2022-01-20T08:36:55Z</time>
      </trkpt>
      <trkpt lat="47.684063" lon="2.0450075">
        <ele>142</ele>
        <time>2022-01-20T08:36:56Z</time>
      </trkpt>
      <trkpt lat="47.684063" lon="2.0450253">
        <ele>142</ele>
        <time>2022-01-20T08:36:57Z</time>
      </trkpt>
      <trkpt lat="47.684063" lon="2.0450456">
        <ele>142</ele>
        <time>2022-01-20T08:36:58Z</time>
      </trkpt>
      <trkpt lat="47.68406" lon="2.0450647">
        <ele>142</ele>
        <time>2022-01-20T08:36:59Z</time>
      </trkpt>
      <trkpt lat="47.68406" lon="2.0450788">
        <ele>142</ele>
        <time>2022-01-20T08:37:00Z</time>
      </trkpt>
      <trkpt lat="47.68406" lon="2.045095">
        <ele>141</ele>
        <time>2022-01-20T08:37:01Z</time>
      </trkpt>
      <trkpt lat="47.684055" lon="2.0451117">
        <ele>141</ele>
        <time>2022-01-20T08:37:02Z</time>
      </trkpt>
      <trkpt lat="47.68406" lon="2.0451274">
        <ele>141</ele>
        <time>2022-01-20T08:37:03Z</time>
      </trkpt>
      <trkpt lat="47.68406" lon="2.0451436">
        <ele>141</ele>
        <time>2022-01-20T08:37:04Z</time>
      </trkpt>
      <trkpt lat="47.68406" lon="2.045163">
        <ele>141</ele>
        <time>2022-01-20T08:37:05Z</time>
      </trkpt>
      <trkpt lat="47.68406" lon="2.0451798">
        <ele>141</ele>
        <time>2022-01-20T08:37:06Z</time>
      </trkpt>
      <trkpt lat="47.684063" lon="2.045198">
        <ele>141</ele>
        <time>2022-01-20T08:37:07Z</time>
      </trkpt>
      <trkpt lat="47.684067" lon="2.0452132">
        <ele>141</ele>
        <time>2022-01-20T08:37:08Z</time>
      </trkpt>
      <trkpt lat="47.684067" lon="2.0452278">
        <ele>140</ele>
        <time>2022-01-20T08:37:09Z</time>
      </trkpt>
      <trkpt lat="47.68406" lon="2.0452406">
        <ele>140</ele>
        <time>2022-01-20T08:37:10Z</time>
      </trkpt>
      <trkpt lat="47.68406" lon="2.0452535">
        <ele>139</ele>
        <time>2022-01-20T08:37:11Z</time>
      </trkpt>
      <trkpt lat="47.684055" lon="2.0452714">
        <ele>139</ele>
        <time>2022-01-20T08:37:12Z</time>
      </trkpt>
      <trkpt lat="47.68405" lon="2.0452883">
        <ele>139</ele>
        <time>2022-01-20T08:37:13Z</time>
      </trkpt>
      <trkpt lat="47.684048" lon="2.045313">
        <ele>138</ele>
        <time>2022-01-20T08:37:14Z</time>
      </trkpt>
      <trkpt lat="47.684044" lon="2.0453305">
        <ele>138</ele>
        <time>2022-01-20T08:37:15Z</time>
      </trkpt>
      <trkpt lat="47.68404" lon="2.0453515">
        <ele>139</ele>
        <time>2022-01-20T08:37:16Z</time>
      </trkpt>
      <trkpt lat="47.684036" lon="2.0453703">
        <ele>138</ele>
        <time>2022-01-20T08:37:17Z</time>
      </trkpt>
      <trkpt lat="47.684032" lon="2.0453885">
        <ele>138</ele>
        <time>2022-01-20T08:37:18Z</time>
      </trkpt>
      <trkpt lat="47.684032" lon="2.0454078">
        <ele>138</ele>
        <time>2022-01-20T08:37:19Z</time>
      </trkpt>
      <trkpt lat="47.684032" lon="2.0454261">
        <ele>138</ele>
        <time>2022-01-20T08:37:20Z</time>
      </trkpt>
      <trkpt lat="47.68403" lon="2.0454483">
        <ele>139</ele>
        <time>2022-01-20T08:37:21Z</time>
      </trkpt>
      <trkpt lat="47.68403" lon="2.045467">
        <ele>139</ele>
        <time>2022-01-20T08:37:22Z</time>
      </trkpt>
      <trkpt lat="47.68403" lon="2.045487">
        <ele>139</ele>
        <time>2022-01-20T08:37:23Z</time>
      </trkpt>
      <trkpt lat="47.68403" lon="2.0455005">
        <ele>139</ele>
        <time>2022-01-20T08:37:24Z</time>
      </trkpt>
      <trkpt lat="47.68403" lon="2.0455143">
        <ele>139</ele>
        <time>2022-01-20T08:37:25Z</time>
      </trkpt>
      <trkpt lat="47.684025" lon="2.0455315">
        <ele>139</ele>
        <time>2022-01-20T08:37:26Z</time>
      </trkpt>
      <trkpt lat="47.684025" lon="2.0455475">
        <ele>139</ele>
        <time>2022-01-20T08:37:27Z</time>
      </trkpt>
      <trkpt lat="47.684025" lon="2.0455635">
        <ele>140</ele>
        <time>2022-01-20T08:37:28Z</time>
      </trkpt>
      <trkpt lat="47.68403" lon="2.0455766">
        <ele>139</ele>
        <time>2022-01-20T08:37:29Z</time>
      </trkpt>
      <trkpt lat="47.68403" lon="2.0455885">
        <ele>139</ele>
        <time>2022-01-20T08:37:30Z</time>
      </trkpt>
      <trkpt lat="47.684025" lon="2.0456054">
        <ele>140</ele>
        <time>2022-01-20T08:37:31Z</time>
      </trkpt>
      <trkpt lat="47.684025" lon="2.0456207">
        <ele>140</ele>
        <time>2022-01-20T08:37:32Z</time>
      </trkpt>
      <trkpt lat="47.68402" lon="2.0456367">
        <ele>140</ele>
        <time>2022-01-20T08:37:33Z</time>
      </trkpt>
      <trkpt lat="47.684017" lon="2.0456576">
        <ele>140</ele>
        <time>2022-01-20T08:37:34Z</time>
      </trkpt>
      <trkpt lat="47.684017" lon="2.0456748">
        <ele>140</ele>
        <time>2022-01-20T08:37:35Z</time>
      </trkpt>
      <trkpt lat="47.684013" lon="2.045691">
        <ele>140</ele>
        <time>2022-01-20T08:37:36Z</time>
      </trkpt>
      <trkpt lat="47.684017" lon="2.0457153">
        <ele>140</ele>
        <time>2022-01-20T08:37:37Z</time>
      </trkpt>
      <trkpt lat="47.684017" lon="2.0457392">
        <ele>140</ele>
        <time>2022-01-20T08:37:38Z</time>
      </trkpt>
      <trkpt lat="47.684017" lon="2.0457616">
        <ele>140</ele>
        <time>2022-01-20T08:37:39Z</time>
      </trkpt>
      <trkpt lat="47.68401" lon="2.0457804">
        <ele>140</ele>
        <time>2022-01-20T08:37:40Z</time>
      </trkpt>
      <trkpt lat="47.684002" lon="2.045802">
        <ele>140</ele>
        <time>2022-01-20T08:37:41Z</time>
      </trkpt>
      <trkpt lat="47.683994" lon="2.0458221">
        <ele>140</ele>
        <time>2022-01-20T08:37:42Z</time>
      </trkpt>
      <trkpt lat="47.683983" lon="2.045846">
        <ele>140</ele>
        <time>2022-01-20T08:37:43Z</time>
      </trkpt>
      <trkpt lat="47.683975" lon="2.0458696">
        <ele>140</ele>
        <time>2022-01-20T08:37:44Z</time>
      </trkpt>
      <trkpt lat="47.683968" lon="2.045889">
        <ele>140</ele>
        <time>2022-01-20T08:37:45Z</time>
      </trkpt>
      <trkpt lat="47.683964" lon="2.0459054">
        <ele>140</ele>
        <time>2022-01-20T08:37:46Z</time>
      </trkpt>
      <trkpt lat="47.683956" lon="2.0459201">
        <ele>140</ele>
        <time>2022-01-20T08:37:47Z</time>
      </trkpt>
      <trkpt lat="47.683952" lon="2.045935">
        <ele>140</ele>
        <time>2022-01-20T08:37:48Z</time>
      </trkpt>
      <trkpt lat="47.683945" lon="2.0459511">
        <ele>140</ele>
        <time>2022-01-20T08:37:49Z</time>
      </trkpt>
      <trkpt lat="47.683933" lon="2.0459692">
        <ele>140</ele>
        <time>2022-01-20T08:37:50Z</time>
      </trkpt>
      <trkpt lat="47.683926" lon="2.0459857">
        <ele>140</ele>
        <time>2022-01-20T08:37:51Z</time>
      </trkpt>
      <trkpt lat="47.683918" lon="2.046">
        <ele>141</ele>
        <time>2022-01-20T08:37:52Z</time>
      </trkpt>
      <trkpt lat="47.68391" lon="2.046014">
        <ele>141</ele>
        <time>2022-01-20T08:37:53Z</time>
      </trkpt>
      <trkpt lat="47.683903" lon="2.0460334">
        <ele>142</ele>
        <time>2022-01-20T08:37:54Z</time>
      </trkpt>
      <trkpt lat="47.683895" lon="2.0460436">
        <ele>142</ele>
        <time>2022-01-20T08:37:55Z</time>
      </trkpt>
      <trkpt lat="47.683884" lon="2.0460515">
        <ele>142</ele>
        <time>2022-01-20T08:37:56Z</time>
      </trkpt>
      <trkpt lat="47.683876" lon="2.0460591">
        <ele>142</ele>
        <time>2022-01-20T08:37:57Z</time>
      </trkpt>
      <trkpt lat="47.683865" lon="2.0460641">
        <ele>141</ele>
        <time>2022-01-20T08:37:58Z</time>
      </trkpt>
      <trkpt lat="47.683857" lon="2.0460744">
        <ele>142</ele>
        <time>2022-01-20T08:37:59Z</time>
      </trkpt>
      <trkpt lat="47.68385" lon="2.0460846">
        <ele>142</ele>
        <time>2022-01-20T08:38:00Z</time>
      </trkpt>
      <trkpt lat="47.683838" lon="2.046092">
        <ele>142</ele>
        <time>2022-01-20T08:38:01Z</time>
      </trkpt>
      <trkpt lat="47.683826" lon="2.0460992">
        <ele>142</ele>
        <time>2022-01-20T08:38:02Z</time>
      </trkpt>
      <trkpt lat="47.683815" lon="2.046101">
        <ele>142</ele>
        <time>2022-01-20T08:38:03Z</time>
      </trkpt>
      <trkpt lat="47.683804" lon="2.0461094">
        <ele>142</ele>
        <time>2022-01-20T08:38:04Z</time>
      </trkpt>
      <trkpt lat="47.683792" lon="2.0461185">
        <ele>142</ele>
        <time>2022-01-20T08:38:05Z</time>
      </trkpt>
      <trkpt lat="47.68378" lon="2.0461257">
        <ele>142</ele>
        <time>2022-01-20T08:38:06Z</time>
      </trkpt>
      <trkpt lat="47.68377" lon="2.0461318">
        <ele>142</ele>
        <time>2022-01-20T08:38:07Z</time>
      </trkpt>
      <trkpt lat="47.683758" lon="2.046142">
        <ele>142</ele>
        <time>2022-01-20T08:38:08Z</time>
      </trkpt>
      <trkpt lat="47.68375" lon="2.0461497">
        <ele>142</ele>
        <time>2022-01-20T08:38:09Z</time>
      </trkpt>
      <trkpt lat="47.68374" lon="2.0461557">
        <ele>142</ele>
        <time>2022-01-20T08:38:10Z</time>
      </trkpt>
      <trkpt lat="47.683727" lon="2.0461576">
        <ele>142</ele>
        <time>2022-01-20T08:38:11Z</time>
      </trkpt>
      <trkpt lat="47.683712" lon="2.0461593">
        <ele>142</ele>
        <time>2022-01-20T08:38:12Z</time>
      </trkpt>
      <trkpt lat="47.683704" lon="2.0461657">
        <ele>143</ele>
        <time>2022-01-20T08:38:13Z</time>
      </trkpt>
      <trkpt lat="47.683697" lon="2.0461683">
        <ele>143</ele>
        <time>2022-01-20T08:38:14Z</time>
      </trkpt>
      <trkpt lat="47.683693" lon="2.0461671">
        <ele>144</ele>
        <time>2022-01-20T08:38:15Z</time>
      </trkpt>
      <trkpt lat="47.68368" lon="2.0461652">
        <ele>144</ele>
        <time>2022-01-20T08:38:16Z</time>
      </trkpt>
      <trkpt lat="47.68367" lon="2.046164">
        <ele>144</ele>
        <time>2022-01-20T08:38:17Z</time>
      </trkpt>
      <trkpt lat="47.683662" lon="2.0461674">
        <ele>144</ele>
        <time>2022-01-20T08:38:18Z</time>
      </trkpt>
      <trkpt lat="47.68365" lon="2.0461676">
        <ele>144</ele>
        <time>2022-01-20T08:38:19Z</time>
      </trkpt>
      <trkpt lat="47.68364" lon="2.0461743">
        <ele>145</ele>
        <time>2022-01-20T08:38:20Z</time>
      </trkpt>
      <trkpt lat="47.683628" lon="2.0461767">
        <ele>144</ele>
        <time>2022-01-20T08:38:21Z</time>
      </trkpt>
      <trkpt lat="47.683617" lon="2.0461807">
        <ele>144</ele>
        <time>2022-01-20T08:38:22Z</time>
      </trkpt>
      <trkpt lat="47.683605" lon="2.0461829">
        <ele>144</ele>
        <time>2022-01-20T08:38:23Z</time>
      </trkpt>
      <trkpt lat="47.683594" lon="2.0461848">
        <ele>144</ele>
        <time>2022-01-20T08:38:24Z</time>
      </trkpt>
      <trkpt lat="47.683582" lon="2.046188">
        <ele>144</ele>
        <time>2022-01-20T08:38:25Z</time>
      </trkpt>
      <trkpt lat="47.68357" lon="2.0461924">
        <ele>144</ele>
        <time>2022-01-20T08:38:26Z</time>
      </trkpt>
      <trkpt lat="47.683556" lon="2.046199">
        <ele>144</ele>
        <time>2022-01-20T08:38:27Z</time>
      </trkpt>
      <trkpt lat="47.683544" lon="2.0462058">
        <ele>145</ele>
        <time>2022-01-20T08:38:28Z</time>
      </trkpt>
      <trkpt lat="47.68353" lon="2.0462115">
        <ele>144</ele>
        <time>2022-01-20T08:38:29Z</time>
      </trkpt>
      <trkpt lat="47.683517" lon="2.0462146">
        <ele>144</ele>
        <time>2022-01-20T08:38:30Z</time>
      </trkpt>
      <trkpt lat="47.683502" lon="2.046216">
        <ele>144</ele>
        <time>2022-01-20T08:38:31Z</time>
      </trkpt>
      <trkpt lat="47.683487" lon="2.046226">
        <ele>144</ele>
        <time>2022-01-20T08:38:32Z</time>
      </trkpt>
      <trkpt lat="47.68347" lon="2.0462308">
        <ele>144</ele>
        <time>2022-01-20T08:38:33Z</time>
      </trkpt>
      <trkpt lat="47.68346" lon="2.0462325">
        <ele>144</ele>
        <time>2022-01-20T08:38:34Z</time>
      </trkpt>
      <trkpt lat="47.683445" lon="2.0462356">
        <ele>144</ele>
        <time>2022-01-20T08:38:35Z</time>
      </trkpt>
      <trkpt lat="47.683434" lon="2.0462356">
        <ele>144</ele>
        <time>2022-01-20T08:38:36Z</time>
      </trkpt>
      <trkpt lat="47.68342" lon="2.0462391">
        <ele>144</ele>
        <time>2022-01-20T08:38:37Z</time>
      </trkpt>
      <trkpt lat="47.683407" lon="2.0462456">
        <ele>145</ele>
        <time>2022-01-20T08:38:38Z</time>
      </trkpt>
      <trkpt lat="47.683395" lon="2.046252">
        <ele>145</ele>
        <time>2022-01-20T08:38:39Z</time>
      </trkpt>
      <trkpt lat="47.68338" lon="2.046253">
        <ele>145</ele>
        <time>2022-01-20T08:38:40Z</time>
      </trkpt>
      <trkpt lat="47.683372" lon="2.046253">
        <ele>145</ele>
        <time>2022-01-20T08:38:41Z</time>
      </trkpt>
      <trkpt lat="47.68336" lon="2.0462546">
        <ele>145</ele>
        <time>2022-01-20T08:38:42Z</time>
      </trkpt>
      <trkpt lat="47.683346" lon="2.046257">
        <ele>145</ele>
        <time>2022-01-20T08:38:43Z</time>
      </trkpt>
      <trkpt lat="47.68333" lon="2.0462592">
        <ele>146</ele>
        <time>2022-01-20T08:38:44Z</time>
      </trkpt>
      <trkpt lat="47.68332" lon="2.0462608">
        <ele>146</ele>
        <time>2022-01-20T08:38:45Z</time>
      </trkpt>
      <trkpt lat="47.683304" lon="2.0462637">
        <ele>146</ele>
        <time>2022-01-20T08:38:46Z</time>
      </trkpt>
      <trkpt lat="47.683292" lon="2.0462728">
        <ele>146</ele>
        <time>2022-01-20T08:38:47Z</time>
      </trkpt>
      <trkpt lat="47.683277" lon="2.0462773">
        <ele>145</ele>
        <time>2022-01-20T08:38:48Z</time>
      </trkpt>
      <trkpt lat="47.683266" lon="2.0462859">
        <ele>145</ele>
        <time>2022-01-20T08:38:49Z</time>
      </trkpt>
      <trkpt lat="47.683258" lon="2.0462906">
        <ele>145</ele>
        <time>2022-01-20T08:38:50Z</time>
      </trkpt>
      <trkpt lat="47.683247" lon="2.0462956">
        <ele>145</ele>
        <time>2022-01-20T08:38:51Z</time>
      </trkpt>
      <trkpt lat="47.683235" lon="2.0463">
        <ele>145</ele>
        <time>2022-01-20T08:38:52Z</time>
      </trkpt>
      <trkpt lat="47.68322" lon="2.046306">
        <ele>145</ele>
        <time>2022-01-20T08:38:53Z</time>
      </trkpt>
      <trkpt lat="47.683212" lon="2.0463138">
        <ele>145</ele>
        <time>2022-01-20T08:38:54Z</time>
      </trkpt>
      <trkpt lat="47.6832" lon="2.0463235">
        <ele>145</ele>
        <time>2022-01-20T08:38:55Z</time>
      </trkpt>
      <trkpt lat="47.683193" lon="2.0463328">
        <ele>145</ele>
        <time>2022-01-20T08:38:56Z</time>
      </trkpt>
      <trkpt lat="47.683186" lon="2.0463395">
        <ele>144</ele>
        <time>2022-01-20T08:38:57Z</time>
      </trkpt>
      <trkpt lat="47.683178" lon="2.0463493">
        <ele>145</ele>
        <time>2022-01-20T08:38:58Z</time>
      </trkpt>
      <trkpt lat="47.683174" lon="2.0463603">
        <ele>145</ele>
        <time>2022-01-20T08:38:59Z</time>
      </trkpt>
      <trkpt lat="47.683167" lon="2.0463748">
        <ele>145</ele>
        <time>2022-01-20T08:39:00Z</time>
      </trkpt>
      <trkpt lat="47.68316" lon="2.0463912">
        <ele>145</ele>
        <time>2022-01-20T08:39:01Z</time>
      </trkpt>
      <trkpt lat="47.683155" lon="2.0464103">
        <ele>144</ele>
        <time>2022-01-20T08:39:02Z</time>
      </trkpt>
      <trkpt lat="47.68315" lon="2.0464315">
        <ele>144</ele>
        <time>2022-01-20T08:39:03Z</time>
      </trkpt>
      <trkpt lat="47.68315" lon="2.0464478">
        <ele>144</ele>
        <time>2022-01-20T08:39:04Z</time>
      </trkpt>
      <trkpt lat="47.68315" lon="2.0464623">
        <ele>144</ele>
        <time>2022-01-20T08:39:05Z</time>
      </trkpt>
      <trkpt lat="47.683147" lon="2.0464792">
        <ele>144</ele>
        <time>2022-01-20T08:39:06Z</time>
      </trkpt>
      <trkpt lat="47.683144" lon="2.0464988">
        <ele>144</ele>
        <time>2022-01-20T08:39:07Z</time>
      </trkpt>
      <trkpt lat="47.68314" lon="2.0465147">
        <ele>144</ele>
        <time>2022-01-20T08:39:08Z</time>
      </trkpt>
      <trkpt lat="47.683144" lon="2.0465202">
        <ele>143</ele>
        <time>2022-01-20T08:39:09Z</time>
      </trkpt>
      <trkpt lat="47.683144" lon="2.0465362">
        <ele>143</ele>
        <time>2022-01-20T08:39:10Z</time>
      </trkpt>
      <trkpt lat="47.683147" lon="2.0465534">
        <ele>144</ele>
        <time>2022-01-20T08:39:11Z</time>
      </trkpt>
      <trkpt lat="47.68315" lon="2.046572">
        <ele>144</ele>
        <time>2022-01-20T08:39:12Z</time>
      </trkpt>
      <trkpt lat="47.683147" lon="2.0465894">
        <ele>144</ele>
        <time>2022-01-20T08:39:13Z</time>
      </trkpt>
      <trkpt lat="47.68315" lon="2.0466058">
        <ele>143</ele>
        <time>2022-01-20T08:39:14Z</time>
      </trkpt>
      <trkpt lat="47.683155" lon="2.046618">
        <ele>143</ele>
        <time>2022-01-20T08:39:15Z</time>
      </trkpt>
      <trkpt lat="47.683163" lon="2.0466292">
        <ele>143</ele>
        <time>2022-01-20T08:39:16Z</time>
      </trkpt>
      <trkpt lat="47.68317" lon="2.0466406">
        <ele>143</ele>
        <time>2022-01-20T08:39:17Z</time>
      </trkpt>
      <trkpt lat="47.683174" lon="2.0466528">
        <ele>143</ele>
        <time>2022-01-20T08:39:18Z</time>
      </trkpt>
      <trkpt lat="47.683178" lon="2.046667">
        <ele>143</ele>
        <time>2022-01-20T08:39:19Z</time>
      </trkpt>
      <trkpt lat="47.68318" lon="2.0466821">
        <ele>143</ele>
        <time>2022-01-20T08:39:20Z</time>
      </trkpt>
      <trkpt lat="47.68318" lon="2.0466971">
        <ele>143</ele>
        <time>2022-01-20T08:39:21Z</time>
      </trkpt>
      <trkpt lat="47.683186" lon="2.0467174">
        <ele>143</ele>
        <time>2022-01-20T08:39:22Z</time>
      </trkpt>
      <trkpt lat="47.683186" lon="2.0467362">
        <ele>143</ele>
        <time>2022-01-20T08:39:23Z</time>
      </trkpt>
      <trkpt lat="47.68319" lon="2.0467536">
        <ele>144</ele>
        <time>2022-01-20T08:39:24Z</time>
      </trkpt>
      <trkpt lat="47.68319" lon="2.0467677">
        <ele>144</ele>
        <time>2022-01-20T08:39:25Z</time>
      </trkpt>
      <trkpt lat="47.683197" lon="2.0467849">
        <ele>143</ele>
        <time>2022-01-20T08:39:26Z</time>
      </trkpt>
      <trkpt lat="47.6832" lon="2.0468004">
        <ele>143</ele>
        <time>2022-01-20T08:39:27Z</time>
      </trkpt>
      <trkpt lat="47.683205" lon="2.0468159">
        <ele>143</ele>
        <time>2022-01-20T08:39:28Z</time>
      </trkpt>
      <trkpt lat="47.68321" lon="2.046832">
        <ele>142</ele>
        <time>2022-01-20T08:39:29Z</time>
      </trkpt>
      <trkpt lat="47.683212" lon="2.0468473">
        <ele>142</ele>
        <time>2022-01-20T08:39:30Z</time>
      </trkpt>
      <trkpt lat="47.68322" lon="2.046863">
        <ele>142</ele>
        <time>2022-01-20T08:39:31Z</time>
      </trkpt>
      <trkpt lat="47.683224" lon="2.0468786">
        <ele>142</ele>
        <time>2022-01-20T08:39:32Z</time>
      </trkpt>
      <trkpt lat="47.683228" lon="2.0468974">
        <ele>142</ele>
        <time>2022-01-20T08:39:33Z</time>
      </trkpt>
      <trkpt lat="47.68323" lon="2.046918">
        <ele>142</ele>
        <time>2022-01-20T08:39:34Z</time>
      </trkpt>
      <trkpt lat="47.68323" lon="2.046939">
        <ele>142</ele>
        <time>2022-01-20T08:39:35Z</time>
      </trkpt>
      <trkpt lat="47.68323" lon="2.0469577">
        <ele>143</ele>
        <time>2022-01-20T08:39:36Z</time>
      </trkpt>
      <trkpt lat="47.683228" lon="2.0469713">
        <ele>142</ele>
        <time>2022-01-20T08:39:37Z</time>
      </trkpt>
      <trkpt lat="47.683228" lon="2.0469928">
        <ele>142</ele>
        <time>2022-01-20T08:39:38Z</time>
      </trkpt>
      <trkpt lat="47.683224" lon="2.0470138">
        <ele>142</ele>
        <time>2022-01-20T08:39:39Z</time>
      </trkpt>
      <trkpt lat="47.683224" lon="2.0470324">
        <ele>143</ele>
        <time>2022-01-20T08:39:40Z</time>
      </trkpt>
      <trkpt lat="47.68322" lon="2.0470512">
        <ele>143</ele>
        <time>2022-01-20T08:39:41Z</time>
      </trkpt>
      <trkpt lat="47.683224" lon="2.0470684">
        <ele>143</ele>
        <time>2022-01-20T08:39:42Z</time>
      </trkpt>
      <trkpt lat="47.683224" lon="2.0470865">
        <ele>143</ele>
        <time>2022-01-20T08:39:43Z</time>
      </trkpt>
      <trkpt lat="47.683224" lon="2.0471082">
        <ele>143</ele>
        <time>2022-01-20T08:39:44Z</time>
      </trkpt>
      <trkpt lat="47.683216" lon="2.0471253">
        <ele>144</ele>
        <time>2022-01-20T08:39:45Z</time>
      </trkpt>
      <trkpt lat="47.683216" lon="2.0471413">
        <ele>144</ele>
        <time>2022-01-20T08:39:46Z</time>
      </trkpt>
      <trkpt lat="47.683216" lon="2.047157">
        <ele>144</ele>
        <time>2022-01-20T08:39:47Z</time>
      </trkpt>
      <trkpt lat="47.683216" lon="2.0471735">
        <ele>145</ele>
        <time>2022-01-20T08:39:48Z</time>
      </trkpt>
      <trkpt lat="47.683216" lon="2.0471904">
        <ele>145</ele>
        <time>2022-01-20T08:39:49Z</time>
      </trkpt>
      <trkpt lat="47.683216" lon="2.047208">
        <ele>145</ele>
        <time>2022-01-20T08:39:50Z</time>
      </trkpt>
      <trkpt lat="47.68322" lon="2.0472221">
        <ele>145</ele>
        <time>2022-01-20T08:39:51Z</time>
      </trkpt>
      <trkpt lat="47.68322" lon="2.0472403">
        <ele>145</ele>
        <time>2022-01-20T08:39:52Z</time>
      </trkpt>
      <trkpt lat="47.68322" lon="2.0472615">
        <ele>145</ele>
        <time>2022-01-20T08:39:53Z</time>
      </trkpt>
      <trkpt lat="47.68322" lon="2.0472806">
        <ele>146</ele>
        <time>2022-01-20T08:39:54Z</time>
      </trkpt>
      <trkpt lat="47.68322" lon="2.047294">
        <ele>145</ele>
        <time>2022-01-20T08:39:55Z</time>
      </trkpt>
      <trkpt lat="47.68322" lon="2.0473108">
        <ele>145</ele>
        <time>2022-01-20T08:39:56Z</time>
      </trkpt>
      <trkpt lat="47.68322" lon="2.0473328">
        <ele>145</ele>
        <time>2022-01-20T08:39:57Z</time>
      </trkpt>
      <trkpt lat="47.683224" lon="2.0473547">
        <ele>145</ele>
        <time>2022-01-20T08:39:58Z</time>
      </trkpt>
      <trkpt lat="47.683224" lon="2.0473754">
        <ele>146</ele>
        <time>2022-01-20T08:39:59Z</time>
      </trkpt>
      <trkpt lat="47.683228" lon="2.0473933">
        <ele>146</ele>
        <time>2022-01-20T08:40:00Z</time>
      </trkpt>
      <trkpt lat="47.68323" lon="2.0474105">
        <ele>146</ele>
        <time>2022-01-20T08:40:01Z</time>
      </trkpt>
      <trkpt lat="47.68323" lon="2.0474267">
        <ele>147</ele>
        <time>2022-01-20T08:40:02Z</time>
      </trkpt>
      <trkpt lat="47.683235" lon="2.047442">
        <ele>147</ele>
        <time>2022-01-20T08:40:03Z</time>
      </trkpt>
      <trkpt lat="47.68324" lon="2.0474572">
        <ele>147</ele>
        <time>2022-01-20T08:40:04Z</time>
      </trkpt>
      <trkpt lat="47.683247" lon="2.0474803">
        <ele>147</ele>
        <time>2022-01-20T08:40:05Z</time>
      </trkpt>
      <trkpt lat="47.68325" lon="2.0475">
        <ele>147</ele>
        <time>2022-01-20T08:40:06Z</time>
      </trkpt>
      <trkpt lat="47.683254" lon="2.0475225">
        <ele>147</ele>
        <time>2022-01-20T08:40:07Z</time>
      </trkpt>
      <trkpt lat="47.683254" lon="2.0475395">
        <ele>147</ele>
        <time>2022-01-20T08:40:08Z</time>
      </trkpt>
      <trkpt lat="47.68326" lon="2.0475547">
        <ele>147</ele>
        <time>2022-01-20T08:40:09Z</time>
      </trkpt>
      <trkpt lat="47.683266" lon="2.0475698">
        <ele>148</ele>
        <time>2022-01-20T08:40:10Z</time>
      </trkpt>
      <trkpt lat="47.68327" lon="2.047585">
        <ele>148</ele>
        <time>2022-01-20T08:40:11Z</time>
      </trkpt>
      <trkpt lat="47.683273" lon="2.047601">
        <ele>148</ele>
        <time>2022-01-20T08:40:12Z</time>
      </trkpt>
      <trkpt lat="47.683277" lon="2.0476177">
        <ele>148</ele>
        <time>2022-01-20T08:40:13Z</time>
      </trkpt>
      <trkpt lat="47.683285" lon="2.047632">
        <ele>148</ele>
        <time>2022-01-20T08:40:14Z</time>
      </trkpt>
      <trkpt lat="47.683285" lon="2.0476482">
        <ele>148</ele>
        <time>2022-01-20T08:40:15Z</time>
      </trkpt>
      <trkpt lat="47.683285" lon="2.0476656">
        <ele>148</ele>
        <time>2022-01-20T08:40:16Z</time>
      </trkpt>
      <trkpt lat="47.68329" lon="2.0476856">
        <ele>148</ele>
        <time>2022-01-20T08:40:17Z</time>
      </trkpt>
      <trkpt lat="47.68329" lon="2.0477037">
        <ele>148</ele>
        <time>2022-01-20T08:40:18Z</time>
      </trkpt>
      <trkpt lat="47.68329" lon="2.0477207">
        <ele>148</ele>
        <time>2022-01-20T08:40:19Z</time>
      </trkpt>
      <trkpt lat="47.68329" lon="2.0477362">
        <ele>148</ele>
        <time>2022-01-20T08:40:20Z</time>
      </trkpt>
      <trkpt lat="47.68329" lon="2.0477529">
        <ele>148</ele>
        <time>2022-01-20T08:40:21Z</time>
      </trkpt>
      <trkpt lat="47.683292" lon="2.047765">
        <ele>148</ele>
        <time>2022-01-20T08:40:22Z</time>
      </trkpt>
      <trkpt lat="47.683292" lon="2.0477762">
        <ele>147</ele>
        <time>2022-01-20T08:40:23Z</time>
      </trkpt>
      <trkpt lat="47.683296" lon="2.0477884">
        <ele>148</ele>
        <time>2022-01-20T08:40:24Z</time>
      </trkpt>
      <trkpt lat="47.6833" lon="2.047803">
        <ele>148</ele>
        <time>2022-01-20T08:40:25Z</time>
      </trkpt>
      <trkpt lat="47.683308" lon="2.0478177">
        <ele>148</ele>
        <time>2022-01-20T08:40:26Z</time>
      </trkpt>
      <trkpt lat="47.68331" lon="2.0478365">
        <ele>148</ele>
        <time>2022-01-20T08:40:27Z</time>
      </trkpt>
      <trkpt lat="47.683315" lon="2.0478547">
        <ele>149</ele>
        <time>2022-01-20T08:40:28Z</time>
      </trkpt>
      <trkpt lat="47.683315" lon="2.047872">
        <ele>149</ele>
        <time>2022-01-20T08:40:29Z</time>
      </trkpt>
      <trkpt lat="47.683315" lon="2.0478868">
        <ele>149</ele>
        <time>2022-01-20T08:40:30Z</time>
      </trkpt>
      <trkpt lat="47.683315" lon="2.047902">
        <ele>149</ele>
        <time>2022-01-20T08:40:31Z</time>
      </trkpt>
      <trkpt lat="47.683315" lon="2.0479178">
        <ele>149</ele>
        <time>2022-01-20T08:40:32Z</time>
      </trkpt>
      <trkpt lat="47.68332" lon="2.0479357">
        <ele>149</ele>
        <time>2022-01-20T08:40:33Z</time>
      </trkpt>
      <trkpt lat="47.68332" lon="2.0479548">
        <ele>149</ele>
        <time>2022-01-20T08:40:34Z</time>
      </trkpt>
      <trkpt lat="47.68332" lon="2.0479743">
        <ele>149</ele>
        <time>2022-01-20T08:40:35Z</time>
      </trkpt>
      <trkpt lat="47.68332" lon="2.0479903">
        <ele>149</ele>
        <time>2022-01-20T08:40:36Z</time>
      </trkpt>
      <trkpt lat="47.68332" lon="2.0480042">
        <ele>149</ele>
        <time>2022-01-20T08:40:37Z</time>
      </trkpt>
      <trkpt lat="47.683323" lon="2.04802">
        <ele>149</ele>
        <time>2022-01-20T08:40:38Z</time>
      </trkpt>
      <trkpt lat="47.683323" lon="2.048034">
        <ele>149</ele>
        <time>2022-01-20T08:40:39Z</time>
      </trkpt>
      <trkpt lat="47.68333" lon="2.0480494">
        <ele>149</ele>
        <time>2022-01-20T08:40:40Z</time>
      </trkpt>
      <trkpt lat="47.683334" lon="2.048064">
        <ele>150</ele>
        <time>2022-01-20T08:40:41Z</time>
      </trkpt>
      <trkpt lat="47.683334" lon="2.0480669">
        <ele>150</ele>
        <time>2022-01-20T08:40:42Z</time>
      </trkpt>
      <trkpt lat="47.683342" lon="2.0480697">
        <ele>150</ele>
        <time>2022-01-20T08:40:43Z</time>
      </trkpt>
      <trkpt lat="47.683342" lon="2.0480778">
        <ele>150</ele>
        <time>2022-01-20T08:40:44Z</time>
      </trkpt>
      <trkpt lat="47.683342" lon="2.0480924">
        <ele>150</ele>
        <time>2022-01-20T08:40:45Z</time>
      </trkpt>
      <trkpt lat="47.68334" lon="2.048104">
        <ele>150</ele>
        <time>2022-01-20T08:40:46Z</time>
      </trkpt>
      <trkpt lat="47.68334" lon="2.048116">
        <ele>150</ele>
        <time>2022-01-20T08:40:47Z</time>
      </trkpt>
      <trkpt lat="47.68333" lon="2.0481284">
        <ele>150</ele>
        <time>2022-01-20T08:40:48Z</time>
      </trkpt>
      <trkpt lat="47.68333" lon="2.0481434">
        <ele>150</ele>
        <time>2022-01-20T08:40:49Z</time>
      </trkpt>
      <trkpt lat="47.683334" lon="2.048157">
        <ele>150</ele>
        <time>2022-01-20T08:40:50Z</time>
      </trkpt>
      <trkpt lat="47.683334" lon="2.0481756">
        <ele>150</ele>
        <time>2022-01-20T08:40:51Z</time>
      </trkpt>
      <trkpt lat="47.683334" lon="2.0481966">
        <ele>150</ele>
        <time>2022-01-20T08:40:52Z</time>
      </trkpt>
      <trkpt lat="47.68333" lon="2.0482166">
        <ele>150</ele>
        <time>2022-01-20T08:40:53Z</time>
      </trkpt>
      <trkpt lat="47.68333" lon="2.0482335">
        <ele>150</ele>
        <time>2022-01-20T08:40:54Z</time>
      </trkpt>
      <trkpt lat="47.68333" lon="2.048254">
        <ele>150</ele>
        <time>2022-01-20T08:40:55Z</time>
      </trkpt>
      <trkpt lat="47.68333" lon="2.0482752">
        <ele>150</ele>
        <time>2022-01-20T08:40:56Z</time>
      </trkpt>
      <trkpt lat="47.68333" lon="2.0482893">
        <ele>150</ele>
        <time>2022-01-20T08:40:57Z</time>
      </trkpt>
      <trkpt lat="47.68333" lon="2.048306">
        <ele>150</ele>
        <time>2022-01-20T08:40:58Z</time>
      </trkpt>
      <trkpt lat="47.68333" lon="2.0483224">
        <ele>150</ele>
        <time>2022-01-20T08:40:59Z</time>
      </trkpt>
      <trkpt lat="47.68333" lon="2.0483422">
        <ele>149</ele>
        <time>2022-01-20T08:41:00Z</time>
      </trkpt>
      <trkpt lat="47.68333" lon="2.048361">
        <ele>149</ele>
        <time>2022-01-20T08:41:01Z</time>
      </trkpt>
      <trkpt lat="47.683323" lon="2.0483801">
        <ele>149</ele>
        <time>2022-01-20T08:41:02Z</time>
      </trkpt>
      <trkpt lat="47.683323" lon="2.0483973">
        <ele>149</ele>
        <time>2022-01-20T08:41:03Z</time>
      </trkpt>
      <trkpt lat="47.68332" lon="2.0484166">
        <ele>149</ele>
        <time>2022-01-20T08:41:04Z</time>
      </trkpt>
      <trkpt lat="47.68332" lon="2.0484357">
        <ele>149</ele>
        <time>2022-01-20T08:41:05Z</time>
      </trkpt>
      <trkpt lat="47.68332" lon="2.0484579">
        <ele>149</ele>
        <time>2022-01-20T08:41:06Z</time>
      </trkpt>
      <trkpt lat="47.683315" lon="2.0484776">
        <ele>148</ele>
        <time>2022-01-20T08:41:07Z</time>
      </trkpt>
      <trkpt lat="47.68331" lon="2.0484943">
        <ele>148</ele>
        <time>2022-01-20T08:41:08Z</time>
      </trkpt>
      <trkpt lat="47.68331" lon="2.048512">
        <ele>148</ele>
        <time>2022-01-20T08:41:09Z</time>
      </trkpt>
      <trkpt lat="47.683308" lon="2.048529">
        <ele>148</ele>
        <time>2022-01-20T08:41:10Z</time>
      </trkpt>
      <trkpt lat="47.683304" lon="2.0485466">
        <ele>148</ele>
        <time>2022-01-20T08:41:11Z</time>
      </trkpt>
      <trkpt lat="47.6833" lon="2.0485618">
        <ele>148</ele>
        <time>2022-01-20T08:41:12Z</time>
      </trkpt>
      <trkpt lat="47.683296" lon="2.048573">
        <ele>148</ele>
        <time>2022-01-20T08:41:13Z</time>
      </trkpt>
      <trkpt lat="47.683292" lon="2.0485907">
        <ele>148</ele>
        <time>2022-01-20T08:41:14Z</time>
      </trkpt>
      <trkpt lat="47.68329" lon="2.0486064">
        <ele>148</ele>
        <time>2022-01-20T08:41:15Z</time>
      </trkpt>
      <trkpt lat="47.683285" lon="2.0486212">
        <ele>147</ele>
        <time>2022-01-20T08:41:16Z</time>
      </trkpt>
      <trkpt lat="47.683285" lon="2.0486357">
        <ele>147</ele>
        <time>2022-01-20T08:41:17Z</time>
      </trkpt>
      <trkpt lat="47.68328" lon="2.0486531">
        <ele>146</ele>
        <time>2022-01-20T08:41:18Z</time>
      </trkpt>
      <trkpt lat="47.683277" lon="2.0486686">
        <ele>146</ele>
        <time>2022-01-20T08:41:19Z</time>
      </trkpt>
      <trkpt lat="47.683273" lon="2.0486865">
        <ele>146</ele>
        <time>2022-01-20T08:41:20Z</time>
      </trkpt>
      <trkpt lat="47.683266" lon="2.048704">
        <ele>146</ele>
        <time>2022-01-20T08:41:21Z</time>
      </trkpt>
      <trkpt lat="47.68326" lon="2.0487185">
        <ele>146</ele>
        <time>2022-01-20T08:41:22Z</time>
      </trkpt>
      <trkpt lat="47.683254" lon="2.0487356">
        <ele>146</ele>
        <time>2022-01-20T08:41:23Z</time>
      </trkpt>
      <trkpt lat="47.68325" lon="2.0487485">
        <ele>146</ele>
        <time>2022-01-20T08:41:24Z</time>
      </trkpt>
      <trkpt lat="47.683247" lon="2.0487633">
        <ele>146</ele>
        <time>2022-01-20T08:41:25Z</time>
      </trkpt>
      <trkpt lat="47.68324" lon="2.048783">
        <ele>146</ele>
        <time>2022-01-20T08:41:26Z</time>
      </trkpt>
      <trkpt lat="47.683235" lon="2.0488017">
        <ele>145</ele>
        <time>2022-01-20T08:41:27Z</time>
      </trkpt>
      <trkpt lat="47.683228" lon="2.0488155">
        <ele>145</ele>
        <time>2022-01-20T08:41:28Z</time>
      </trkpt>
      <trkpt lat="47.683224" lon="2.0488315">
        <ele>145</ele>
        <time>2022-01-20T08:41:29Z</time>
      </trkpt>
      <trkpt lat="47.683216" lon="2.0488486">
        <ele>145</ele>
        <time>2022-01-20T08:41:30Z</time>
      </trkpt>
      <trkpt lat="47.683212" lon="2.0488656">
        <ele>145</ele>
        <time>2022-01-20T08:41:31Z</time>
      </trkpt>
      <trkpt lat="47.68321" lon="2.048881">
        <ele>145</ele>
        <time>2022-01-20T08:41:32Z</time>
      </trkpt>
      <trkpt lat="47.683205" lon="2.048898">
        <ele>145</ele>
        <time>2022-01-20T08:41:33Z</time>
      </trkpt>
      <trkpt lat="47.6832" lon="2.0489109">
        <ele>144</ele>
        <time>2022-01-20T08:41:34Z</time>
      </trkpt>
      <trkpt lat="47.683197" lon="2.048929">
        <ele>144</ele>
        <time>2022-01-20T08:41:35Z</time>
      </trkpt>
      <trkpt lat="47.683197" lon="2.0489476">
        <ele>144</ele>
        <time>2022-01-20T08:41:36Z</time>
      </trkpt>
      <trkpt lat="47.68319" lon="2.0489614">
        <ele>143</ele>
        <time>2022-01-20T08:41:37Z</time>
      </trkpt>
      <trkpt lat="47.68319" lon="2.0489776">
        <ele>143</ele>
        <time>2022-01-20T08:41:38Z</time>
      </trkpt>
      <trkpt lat="47.683186" lon="2.04899">
        <ele>143</ele>
        <time>2022-01-20T08:41:39Z</time>
      </trkpt>
      <trkpt lat="47.683178" lon="2.0489986">
        <ele>143</ele>
        <time>2022-01-20T08:41:40Z</time>
      </trkpt>
      <trkpt lat="47.68317" lon="2.0490081">
        <ele>143</ele>
        <time>2022-01-20T08:41:41Z</time>
      </trkpt>
      <trkpt lat="47.683163" lon="2.0490155">
        <ele>143</ele>
        <time>2022-01-20T08:41:42Z</time>
      </trkpt>
      <trkpt lat="47.68316" lon="2.0490272">
        <ele>143</ele>
        <time>2022-01-20T08:41:43Z</time>
      </trkpt>
      <trkpt lat="47.68316" lon="2.049043">
        <ele>143</ele>
        <time>2022-01-20T08:41:44Z</time>
      </trkpt>
      <trkpt lat="47.68315" lon="2.0490599">
        <ele>143</ele>
        <time>2022-01-20T08:41:45Z</time>
      </trkpt>
      <trkpt lat="47.68315" lon="2.049078">
        <ele>143</ele>
        <time>2022-01-20T08:41:46Z</time>
      </trkpt>
      <trkpt lat="47.683147" lon="2.049096">
        <ele>143</ele>
        <time>2022-01-20T08:41:47Z</time>
      </trkpt>
      <trkpt lat="47.683144" lon="2.0491173">
        <ele>143</ele>
        <time>2022-01-20T08:41:48Z</time>
      </trkpt>
      <trkpt lat="47.68314" lon="2.0491378">
        <ele>142</ele>
        <time>2022-01-20T08:41:49Z</time>
      </trkpt>
      <trkpt lat="47.683136" lon="2.0491524">
        <ele>142</ele>
        <time>2022-01-20T08:41:50Z</time>
      </trkpt>
      <trkpt lat="47.683125" lon="2.049164">
        <ele>142</ele>
        <time>2022-01-20T08:41:51Z</time>
      </trkpt>
      <trkpt lat="47.683117" lon="2.0491765">
        <ele>143</ele>
        <time>2022-01-20T08:41:52Z</time>
      </trkpt>
      <trkpt lat="47.68311" lon="2.0491848">
        <ele>143</ele>
        <time>2022-01-20T08:41:53Z</time>
      </trkpt>
      <trkpt lat="47.683105" lon="2.0491986">
        <ele>143</ele>
        <time>2022-01-20T08:41:54Z</time>
      </trkpt>
      <trkpt lat="47.683098" lon="2.049212">
        <ele>143</ele>
        <time>2022-01-20T08:41:55Z</time>
      </trkpt>
      <trkpt lat="47.68309" lon="2.0492206">
        <ele>143</ele>
        <time>2022-01-20T08:41:56Z</time>
      </trkpt>
      <trkpt lat="47.683086" lon="2.0492332">
        <ele>143</ele>
        <time>2022-01-20T08:41:57Z</time>
      </trkpt>
      <trkpt lat="47.683083" lon="2.0492473">
        <ele>143</ele>
        <time>2022-01-20T08:41:58Z</time>
      </trkpt>
      <trkpt lat="47.68308" lon="2.0492651">
        <ele>142</ele>
        <time>2022-01-20T08:41:59Z</time>
      </trkpt>
      <trkpt lat="47.68307" lon="2.0492775">
        <ele>141</ele>
        <time>2022-01-20T08:42:00Z</time>
      </trkpt>
      <trkpt lat="47.683067" lon="2.0492826">
        <ele>141</ele>
        <time>2022-01-20T08:42:01Z</time>
      </trkpt>
      <trkpt lat="47.68306" lon="2.0492914">
        <ele>141</ele>
        <time>2022-01-20T08:42:02Z</time>
      </trkpt>
      <trkpt lat="47.683056" lon="2.0493038">
        <ele>140</ele>
        <time>2022-01-20T08:42:03Z</time>
      </trkpt>
      <trkpt lat="47.683056" lon="2.0493138">
        <ele>140</ele>
        <time>2022-01-20T08:42:04Z</time>
      </trkpt>
      <trkpt lat="47.683052" lon="2.0493288">
        <ele>140</ele>
        <time>2022-01-20T08:42:05Z</time>
      </trkpt>
      <trkpt lat="47.68305" lon="2.0493474">
        <ele>140</ele>
        <time>2022-01-20T08:42:06Z</time>
      </trkpt>
      <trkpt lat="47.68305" lon="2.0493677">
        <ele>140</ele>
        <time>2022-01-20T08:42:07Z</time>
      </trkpt>
      <trkpt lat="47.68305" lon="2.0493884">
        <ele>139</ele>
        <time>2022-01-20T08:42:08Z</time>
      </trkpt>
      <trkpt lat="47.68305" lon="2.0494087">
        <ele>139</ele>
        <time>2022-01-20T08:42:09Z</time>
      </trkpt>
      <trkpt lat="47.683044" lon="2.0494285">
        <ele>139</ele>
        <time>2022-01-20T08:42:10Z</time>
      </trkpt>
      <trkpt lat="47.683044" lon="2.0494432">
        <ele>138</ele>
        <time>2022-01-20T08:42:11Z</time>
      </trkpt>
      <trkpt lat="47.683037" lon="2.0494654">
        <ele>138</ele>
        <time>2022-01-20T08:42:12Z</time>
      </trkpt>
      <trkpt lat="47.683033" lon="2.0494847">
        <ele>138</ele>
        <time>2022-01-20T08:42:13Z</time>
      </trkpt>
      <trkpt lat="47.68303" lon="2.0494971">
        <ele>138</ele>
        <time>2022-01-20T08:42:14Z</time>
      </trkpt>
      <trkpt lat="47.68302" lon="2.0495126">
        <ele>138</ele>
        <time>2022-01-20T08:42:15Z</time>
      </trkpt>
      <trkpt lat="47.683018" lon="2.0495293">
        <ele>138</ele>
        <time>2022-01-20T08:42:16Z</time>
      </trkpt>
      <trkpt lat="47.683014" lon="2.0495446">
        <ele>137</ele>
        <time>2022-01-20T08:42:17Z</time>
      </trkpt>
      <trkpt lat="47.68301" lon="2.0495608">
        <ele>137</ele>
        <time>2022-01-20T08:42:18Z</time>
      </trkpt>
      <trkpt lat="47.683006" lon="2.0495768">
        <ele>136</ele>
        <time>2022-01-20T08:42:19Z</time>
      </trkpt>
      <trkpt lat="47.683002" lon="2.0495927">
        <ele>135</ele>
        <time>2022-01-20T08:42:20Z</time>
      </trkpt>
      <trkpt lat="47.683" lon="2.0496068">
        <ele>135</ele>
        <time>2022-01-20T08:42:21Z</time>
      </trkpt>
      <trkpt lat="47.682995" lon="2.0496204">
        <ele>135</ele>
        <time>2022-01-20T08:42:22Z</time>
      </trkpt>
      <trkpt lat="47.68299" lon="2.0496356">
        <ele>136</ele>
        <time>2022-01-20T08:42:23Z</time>
      </trkpt>
      <trkpt lat="47.682987" lon="2.0496502">
        <ele>135</ele>
        <time>2022-01-20T08:42:24Z</time>
      </trkpt>
      <trkpt lat="47.682983" lon="2.0496671">
        <ele>135</ele>
        <time>2022-01-20T08:42:25Z</time>
      </trkpt>
      <trkpt lat="47.68298" lon="2.0496807">
        <ele>135</ele>
        <time>2022-01-20T08:42:26Z</time>
      </trkpt>
      <trkpt lat="47.682972" lon="2.049695">
        <ele>135</ele>
        <time>2022-01-20T08:42:27Z</time>
      </trkpt>
      <trkpt lat="47.682964" lon="2.0497105">
        <ele>135</ele>
        <time>2022-01-20T08:42:28Z</time>
      </trkpt>
      <trkpt lat="47.682957" lon="2.0497255">
        <ele>134</ele>
        <time>2022-01-20T08:42:29Z</time>
      </trkpt>
      <trkpt lat="47.682957" lon="2.0497384">
        <ele>134</ele>
        <time>2022-01-20T08:42:30Z</time>
      </trkpt>
      <trkpt lat="47.68295" lon="2.0497494">
        <ele>134</ele>
        <time>2022-01-20T08:42:31Z</time>
      </trkpt>
      <trkpt lat="47.682945" lon="2.0497622">
        <ele>135</ele>
        <time>2022-01-20T08:42:32Z</time>
      </trkpt>
      <trkpt lat="47.68294" lon="2.0497794">
        <ele>135</ele>
        <time>2022-01-20T08:42:33Z</time>
      </trkpt>
      <trkpt lat="47.682934" lon="2.049791">
        <ele>135</ele>
        <time>2022-01-20T08:42:34Z</time>
      </trkpt>
      <trkpt lat="47.682926" lon="2.0498025">
        <ele>135</ele>
        <time>2022-01-20T08:42:35Z</time>
      </trkpt>
      <trkpt lat="47.682922" lon="2.0498176">
        <ele>135</ele>
        <time>2022-01-20T08:42:36Z</time>
      </trkpt>
      <trkpt lat="47.68292" lon="2.0498307">
        <ele>135</ele>
        <time>2022-01-20T08:42:37Z</time>
      </trkpt>
      <trkpt lat="47.68291" lon="2.0498443">
        <ele>135</ele>
        <time>2022-01-20T08:42:38Z</time>
      </trkpt>
      <trkpt lat="47.682903" lon="2.0498579">
        <ele>135</ele>
        <time>2022-01-20T08:42:39Z</time>
      </trkpt>
      <trkpt lat="47.68289" lon="2.0498724">
        <ele>135</ele>
        <time>2022-01-20T08:42:40Z</time>
      </trkpt>
      <trkpt lat="47.682884" lon="2.0498886">
        <ele>135</ele>
        <time>2022-01-20T08:42:41Z</time>
      </trkpt>
      <trkpt lat="47.68288" lon="2.0499094">
        <ele>135</ele>
        <time>2022-01-20T08:42:42Z</time>
      </trkpt>
      <trkpt lat="47.68288" lon="2.049927">
        <ele>135</ele>
        <time>2022-01-20T08:42:43Z</time>
      </trkpt>
      <trkpt lat="47.682873" lon="2.049947">
        <ele>134</ele>
        <time>2022-01-20T08:42:44Z</time>
      </trkpt>
      <trkpt lat="47.682873" lon="2.0499637">
        <ele>134</ele>
        <time>2022-01-20T08:42:45Z</time>
      </trkpt>
      <trkpt lat="47.68287" lon="2.0499861">
        <ele>134</ele>
        <time>2022-01-20T08:42:46Z</time>
      </trkpt>
      <trkpt lat="47.682865" lon="2.050012">
        <ele>134</ele>
        <time>2022-01-20T08:42:47Z</time>
      </trkpt>
      <trkpt lat="47.68286" lon="2.0500364">
        <ele>134</ele>
        <time>2022-01-20T08:42:48Z</time>
      </trkpt>
      <trkpt lat="47.682854" lon="2.0500548">
        <ele>135</ele>
        <time>2022-01-20T08:42:49Z</time>
      </trkpt>
      <trkpt lat="47.682846" lon="2.0500662">
        <ele>135</ele>
        <time>2022-01-20T08:42:50Z</time>
      </trkpt>
      <trkpt lat="47.68284" lon="2.0500782">
        <ele>135</ele>
        <time>2022-01-20T08:42:51Z</time>
      </trkpt>
      <trkpt lat="47.68283" lon="2.0500896">
        <ele>135</ele>
        <time>2022-01-20T08:42:52Z</time>
      </trkpt>
      <trkpt lat="47.682827" lon="2.0500994">
        <ele>135</ele>
        <time>2022-01-20T08:42:53Z</time>
      </trkpt>
      <trkpt lat="47.682823" lon="2.0501208">
        <ele>135</ele>
        <time>2022-01-20T08:42:54Z</time>
      </trkpt>
      <trkpt lat="47.68282" lon="2.050141">
        <ele>134</ele>
        <time>2022-01-20T08:42:55Z</time>
      </trkpt>
      <trkpt lat="47.68281" lon="2.0501592">
        <ele>134</ele>
        <time>2022-01-20T08:42:56Z</time>
      </trkpt>
      <trkpt lat="47.682804" lon="2.050178">
        <ele>135</ele>
        <time>2022-01-20T08:42:57Z</time>
      </trkpt>
      <trkpt lat="47.6828" lon="2.0501935">
        <ele>135</ele>
        <time>2022-01-20T08:42:58Z</time>
      </trkpt>
      <trkpt lat="47.682796" lon="2.0502048">
        <ele>135</ele>
        <time>2022-01-20T08:42:59Z</time>
      </trkpt>
      <trkpt lat="47.682796" lon="2.0502222">
        <ele>135</ele>
        <time>2022-01-20T08:43:00Z</time>
      </trkpt>
      <trkpt lat="47.682793" lon="2.0502317">
        <ele>135</ele>
        <time>2022-01-20T08:43:01Z</time>
      </trkpt>
      <trkpt lat="47.682785" lon="2.0502424">
        <ele>135</ele>
        <time>2022-01-20T08:43:02Z</time>
      </trkpt>
      <trkpt lat="47.68278" lon="2.050262">
        <ele>135</ele>
        <time>2022-01-20T08:43:03Z</time>
      </trkpt>
      <trkpt lat="47.68278" lon="2.0502763">
        <ele>135</ele>
        <time>2022-01-20T08:43:04Z</time>
      </trkpt>
      <trkpt lat="47.682774" lon="2.050294">
        <ele>135</ele>
        <time>2022-01-20T08:43:05Z</time>
      </trkpt>
      <trkpt lat="47.682766" lon="2.0503104">
        <ele>135</ele>
        <time>2022-01-20T08:43:06Z</time>
      </trkpt>
      <trkpt lat="47.682762" lon="2.0503292">
        <ele>135</ele>
        <time>2022-01-20T08:43:07Z</time>
      </trkpt>
      <trkpt lat="47.68276" lon="2.0503511">
        <ele>136</ele>
        <time>2022-01-20T08:43:08Z</time>
      </trkpt>
      <trkpt lat="47.68275" lon="2.050368">
        <ele>135</ele>
        <time>2022-01-20T08:43:09Z</time>
      </trkpt>
      <trkpt lat="47.682747" lon="2.050383">
        <ele>135</ele>
        <time>2022-01-20T08:43:10Z</time>
      </trkpt>
      <trkpt lat="47.682747" lon="2.0504034">
        <ele>135</ele>
        <time>2022-01-20T08:43:11Z</time>
      </trkpt>
      <trkpt lat="47.682743" lon="2.050421">
        <ele>136</ele>
        <time>2022-01-20T08:43:12Z</time>
      </trkpt>
      <trkpt lat="47.68274" lon="2.0504386">
        <ele>136</ele>
        <time>2022-01-20T08:43:13Z</time>
      </trkpt>
      <trkpt lat="47.68273" lon="2.0504587">
        <ele>136</ele>
        <time>2022-01-20T08:43:14Z</time>
      </trkpt>
      <trkpt lat="47.682728" lon="2.0504763">
        <ele>136</ele>
        <time>2022-01-20T08:43:15Z</time>
      </trkpt>
      <trkpt lat="47.68272" lon="2.0504942">
        <ele>136</ele>
        <time>2022-01-20T08:43:16Z</time>
      </trkpt>
      <trkpt lat="47.682716" lon="2.050515">
        <ele>136</ele>
        <time>2022-01-20T08:43:17Z</time>
      </trkpt>
      <trkpt lat="47.682713" lon="2.0505352">
        <ele>136</ele>
        <time>2022-01-20T08:43:18Z</time>
      </trkpt>
      <trkpt lat="47.682705" lon="2.0505497">
        <ele>136</ele>
        <time>2022-01-20T08:43:19Z</time>
      </trkpt>
      <trkpt lat="47.682697" lon="2.0505676">
        <ele>137</ele>
        <time>2022-01-20T08:43:20Z</time>
      </trkpt>
      <trkpt lat="47.68269" lon="2.0505798">
        <ele>137</ele>
        <time>2022-01-20T08:43:21Z</time>
      </trkpt>
      <trkpt lat="47.682682" lon="2.050596">
        <ele>136</ele>
        <time>2022-01-20T08:43:22Z</time>
      </trkpt>
      <trkpt lat="47.682674" lon="2.0506096">
        <ele>136</ele>
        <time>2022-01-20T08:43:23Z</time>
      </trkpt>
      <trkpt lat="47.682667" lon="2.0506265">
        <ele>136</ele>
        <time>2022-01-20T08:43:24Z</time>
      </trkpt>
      <trkpt lat="47.68266" lon="2.050639">
        <ele>136</ele>
        <time>2022-01-20T08:43:25Z</time>
      </trkpt>
      <trkpt lat="47.682655" lon="2.0506566">
        <ele>137</ele>
        <time>2022-01-20T08:43:26Z</time>
      </trkpt>
      <trkpt lat="47.682655" lon="2.0506747">
        <ele>137</ele>
        <time>2022-01-20T08:43:27Z</time>
      </trkpt>
      <trkpt lat="47.68265" lon="2.0506907">
        <ele>137</ele>
        <time>2022-01-20T08:43:28Z</time>
      </trkpt>
      <trkpt lat="47.682644" lon="2.0507064">
        <ele>137</ele>
        <time>2022-01-20T08:43:29Z</time>
      </trkpt>
      <trkpt lat="47.682644" lon="2.050723">
        <ele>136</ele>
        <time>2022-01-20T08:43:30Z</time>
      </trkpt>
      <trkpt lat="47.68264" lon="2.0507395">
        <ele>136</ele>
        <time>2022-01-20T08:43:31Z</time>
      </trkpt>
      <trkpt lat="47.682636" lon="2.0507603">
        <ele>136</ele>
        <time>2022-01-20T08:43:32Z</time>
      </trkpt>
      <trkpt lat="47.68263" lon="2.0507796">
        <ele>136</ele>
        <time>2022-01-20T08:43:33Z</time>
      </trkpt>
      <trkpt lat="47.682625" lon="2.0507982">
        <ele>137</ele>
        <time>2022-01-20T08:43:34Z</time>
      </trkpt>
      <trkpt lat="47.682625" lon="2.0508187">
        <ele>137</ele>
        <time>2022-01-20T08:43:35Z</time>
      </trkpt>
      <trkpt lat="47.68262" lon="2.0508354">
        <ele>137</ele>
        <time>2022-01-20T08:43:36Z</time>
      </trkpt>
      <trkpt lat="47.682617" lon="2.0508442">
        <ele>137</ele>
        <time>2022-01-20T08:43:37Z</time>
      </trkpt>
      <trkpt lat="47.68261" lon="2.0508544">
        <ele>138</ele>
        <time>2022-01-20T08:43:38Z</time>
      </trkpt>
      <trkpt lat="47.682602" lon="2.0508676">
        <ele>138</ele>
        <time>2022-01-20T08:43:39Z</time>
      </trkpt>
      <trkpt lat="47.682594" lon="2.0508814">
        <ele>139</ele>
        <time>2022-01-20T08:43:40Z</time>
      </trkpt>
      <trkpt lat="47.68259" lon="2.0508964">
        <ele>139</ele>
        <time>2022-01-20T08:43:41Z</time>
      </trkpt>
      <trkpt lat="47.682583" lon="2.0509126">
        <ele>138</ele>
        <time>2022-01-20T08:43:42Z</time>
      </trkpt>
      <trkpt lat="47.68258" lon="2.0509303">
        <ele>138</ele>
        <time>2022-01-20T08:43:43Z</time>
      </trkpt>
      <trkpt lat="47.68258" lon="2.0509455">
        <ele>139</ele>
        <time>2022-01-20T08:43:44Z</time>
      </trkpt>
      <trkpt lat="47.682568" lon="2.0509741">
        <ele>138</ele>
        <time>2022-01-20T08:43:45Z</time>
      </trkpt>
      <trkpt lat="47.682564" lon="2.0509923">
        <ele>138</ele>
        <time>2022-01-20T08:43:46Z</time>
      </trkpt>
      <trkpt lat="47.682556" lon="2.0510113">
        <ele>138</ele>
        <time>2022-01-20T08:43:47Z</time>
      </trkpt>
      <trkpt lat="47.682556" lon="2.0510113">
        <ele>138</ele>
        <time>2022-01-20T08:43:47Z</time>
      </trkpt>
      <trkpt lat="47.682545" lon="2.0510454">
        <ele>138</ele>
        <time>2022-01-20T08:43:49Z</time>
      </trkpt>
      <trkpt lat="47.682537" lon="2.0510552">
        <ele>138</ele>
        <time>2022-01-20T08:43:50Z</time>
      </trkpt>
      <trkpt lat="47.68253" lon="2.0510652">
        <ele>139</ele>
        <time>2022-01-20T08:43:51Z</time>
      </trkpt>
      <trkpt lat="47.68253" lon="2.0510652">
        <ele>139</ele>
        <time>2022-01-20T08:43:51Z</time>
      </trkpt>
      <trkpt lat="47.682518" lon="2.0510902">
        <ele>139</ele>
        <time>2022-01-20T08:43:53Z</time>
      </trkpt>
      <trkpt lat="47.68251" lon="2.0510974">
        <ele>138</ele>
        <time>2022-01-20T08:43:54Z</time>
      </trkpt>
      <trkpt lat="47.682507" lon="2.0511098">
        <ele>139</ele>
        <time>2022-01-20T08:43:55Z</time>
      </trkpt>
      <trkpt lat="47.682507" lon="2.0511098">
        <ele>139</ele>
        <time>2022-01-20T08:43:55Z</time>
      </trkpt>
      <trkpt lat="47.682507" lon="2.051125">
        <ele>138</ele>
        <time>2022-01-20T08:43:57Z</time>
      </trkpt>
      <trkpt lat="47.682503" lon="2.0511324">
        <ele>138</ele>
        <time>2022-01-20T08:43:58Z</time>
      </trkpt>
      <trkpt lat="47.6825" lon="2.051141">
        <ele>138</ele>
        <time>2022-01-20T08:43:59Z</time>
      </trkpt>
      <trkpt lat="47.68249" lon="2.051151">
        <ele>138</ele>
        <time>2022-01-20T08:44:00Z</time>
      </trkpt>
      <trkpt lat="47.682487" lon="2.0511644">
        <ele>138</ele>
        <time>2022-01-20T08:44:01Z</time>
      </trkpt>
      <trkpt lat="47.68248" lon="2.0511773">
        <ele>137</ele>
        <time>2022-01-20T08:44:02Z</time>
      </trkpt>
      <trkpt lat="47.682465" lon="2.0512033">
        <ele>137</ele>
        <time>2022-01-20T08:44:03Z</time>
      </trkpt>
      <trkpt lat="47.682465" lon="2.0512033">
        <ele>137</ele>
        <time>2022-01-20T08:44:03Z</time>
      </trkpt>
      <trkpt lat="47.682457" lon="2.0512357">
        <ele>137</ele>
        <time>2022-01-20T08:44:05Z</time>
      </trkpt>
      <trkpt lat="47.68245" lon="2.0512438">
        <ele>137</ele>
        <time>2022-01-20T08:44:06Z</time>
      </trkpt>
      <trkpt lat="47.682446" lon="2.0512526">
        <ele>136</ele>
        <time>2022-01-20T08:44:07Z</time>
      </trkpt>
      <trkpt lat="47.68244" lon="2.0512698">
        <ele>136</ele>
        <time>2022-01-20T08:44:09Z</time>
      </trkpt>
      <trkpt lat="47.682434" lon="2.0512872">
        <ele>136</ele>
        <time>2022-01-20T08:44:10Z</time>
      </trkpt>
      <trkpt lat="47.68243" lon="2.051305">
        <ele>136</ele>
        <time>2022-01-20T08:44:11Z</time>
      </trkpt>
      <trkpt lat="47.682423" lon="2.0513225">
        <ele>136</ele>
        <time>2022-01-20T08:44:12Z</time>
      </trkpt>
      <trkpt lat="47.682423" lon="2.0513225">
        <ele>136</ele>
        <time>2022-01-20T08:44:12Z</time>
      </trkpt>
      <trkpt lat="47.682415" lon="2.0513577">
        <ele>136</ele>
        <time>2022-01-20T08:44:14Z</time>
      </trkpt>
      <trkpt lat="47.68241" lon="2.0513744">
        <ele>136</ele>
        <time>2022-01-20T08:44:15Z</time>
      </trkpt>
      <trkpt lat="47.682404" lon="2.0513926">
        <ele>136</ele>
        <time>2022-01-20T08:44:16Z</time>
      </trkpt>
      <trkpt lat="47.682404" lon="2.0513926">
        <ele>136</ele>
        <time>2022-01-20T08:44:16Z</time>
      </trkpt>
      <trkpt lat="47.682396" lon="2.0514138">
        <ele>136</ele>
        <time>2022-01-20T08:44:18Z</time>
      </trkpt>
      <trkpt lat="47.682377" lon="2.0514498">
        <ele>136</ele>
        <time>2022-01-20T08:44:19Z</time>
      </trkpt>
      <trkpt lat="47.682365" lon="2.0514657">
        <ele>136</ele>
        <time>2022-01-20T08:44:20Z</time>
      </trkpt>
      <trkpt lat="47.682358" lon="2.051478">
        <ele>136</ele>
        <time>2022-01-20T08:44:21Z</time>
      </trkpt>
      <trkpt lat="47.68235" lon="2.051493">
        <ele>136</ele>
        <time>2022-01-20T08:44:22Z</time>
      </trkpt>
      <trkpt lat="47.682346" lon="2.0515113">
        <ele>136</ele>
        <time>2022-01-20T08:44:23Z</time>
      </trkpt>
      <trkpt lat="47.68234" lon="2.0515323">
        <ele>137</ele>
        <time>2022-01-20T08:44:24Z</time>
      </trkpt>
      <trkpt lat="47.68234" lon="2.0515513">
        <ele>137</ele>
        <time>2022-01-20T08:44:25Z</time>
      </trkpt>
      <trkpt lat="47.68234" lon="2.051573">
        <ele>137</ele>
        <time>2022-01-20T08:44:26Z</time>
      </trkpt>
      <trkpt lat="47.682343" lon="2.0515907">
        <ele>137</ele>
        <time>2022-01-20T08:44:27Z</time>
      </trkpt>
      <trkpt lat="47.682343" lon="2.0516076">
        <ele>137</ele>
        <time>2022-01-20T08:44:28Z</time>
      </trkpt>
      <trkpt lat="47.68234" lon="2.0516272">
        <ele>137</ele>
        <time>2022-01-20T08:44:29Z</time>
      </trkpt>
      <trkpt lat="47.68234" lon="2.0516412">
        <ele>137</ele>
        <time>2022-01-20T08:44:30Z</time>
      </trkpt>
      <trkpt lat="47.68234" lon="2.0516412">
        <ele>137</ele>
        <time>2022-01-20T08:44:30Z</time>
      </trkpt>
      <trkpt lat="47.68234" lon="2.0516539">
        <ele>137</ele>
        <time>2022-01-20T08:44:32Z</time>
      </trkpt>
      <trkpt lat="47.682335" lon="2.0516646">
        <ele>137</ele>
        <time>2022-01-20T08:44:33Z</time>
      </trkpt>
      <trkpt lat="47.68233" lon="2.0516794">
        <ele>137</ele>
        <time>2022-01-20T08:44:34Z</time>
      </trkpt>
      <trkpt lat="47.68233" lon="2.0516932">
        <ele>137</ele>
        <time>2022-01-20T08:44:35Z</time>
      </trkpt>
      <trkpt lat="47.68233" lon="2.0517008">
        <ele>137</ele>
        <time>2022-01-20T08:44:36Z</time>
      </trkpt>
      <trkpt lat="47.682335" lon="2.051715">
        <ele>137</ele>
        <time>2022-01-20T08:44:37Z</time>
      </trkpt>
      <trkpt lat="47.68234" lon="2.05173">
        <ele>137</ele>
        <time>2022-01-20T08:44:38Z</time>
      </trkpt>
      <trkpt lat="47.68235" lon="2.0517576">
        <ele>137</ele>
        <time>2022-01-20T08:44:39Z</time>
      </trkpt>
      <trkpt lat="47.68235" lon="2.0517576">
        <ele>137</ele>
        <time>2022-01-20T08:44:39Z</time>
      </trkpt>
      <trkpt lat="47.682358" lon="2.0517914">
        <ele>137</ele>
        <time>2022-01-20T08:44:41Z</time>
      </trkpt>
      <trkpt lat="47.682358" lon="2.0517914">
        <ele>137</ele>
        <time>2022-01-20T08:44:41Z</time>
      </trkpt>
      <trkpt lat="47.682358" lon="2.0518107">
        <ele>138</ele>
        <time>2022-01-20T08:44:43Z</time>
      </trkpt>
      <trkpt lat="47.68236" lon="2.051836">
        <ele>138</ele>
        <time>2022-01-20T08:44:44Z</time>
      </trkpt>
      <trkpt lat="47.682365" lon="2.0518541">
        <ele>138</ele>
        <time>2022-01-20T08:44:45Z</time>
      </trkpt>
      <trkpt lat="47.68237" lon="2.0518699">
        <ele>138</ele>
        <time>2022-01-20T08:44:46Z</time>
      </trkpt>
      <trkpt lat="47.682373" lon="2.0518858">
        <ele>138</ele>
        <time>2022-01-20T08:44:47Z</time>
      </trkpt>
      <trkpt lat="47.682377" lon="2.0519018">
        <ele>139</ele>
        <time>2022-01-20T08:44:48Z</time>
      </trkpt>
      <trkpt lat="47.682377" lon="2.0519176">
        <ele>139</ele>
        <time>2022-01-20T08:44:49Z</time>
      </trkpt>
      <trkpt lat="47.682377" lon="2.0519326">
        <ele>140</ele>
        <time>2022-01-20T08:44:50Z</time>
      </trkpt>
      <trkpt lat="47.68238" lon="2.0519474">
        <ele>140</ele>
        <time>2022-01-20T08:44:51Z</time>
      </trkpt>
      <trkpt lat="47.682384" lon="2.0519612">
        <ele>140</ele>
        <time>2022-01-20T08:44:52Z</time>
      </trkpt>
      <trkpt lat="47.682392" lon="2.0519772">
        <ele>140</ele>
        <time>2022-01-20T08:44:53Z</time>
      </trkpt>
      <trkpt lat="47.682396" lon="2.0519931">
        <ele>141</ele>
        <time>2022-01-20T08:44:54Z</time>
      </trkpt>
      <trkpt lat="47.6824" lon="2.0520098">
        <ele>141</ele>
        <time>2022-01-20T08:44:55Z</time>
      </trkpt>
      <trkpt lat="47.682407" lon="2.052024">
        <ele>141</ele>
        <time>2022-01-20T08:44:56Z</time>
      </trkpt>
      <trkpt lat="47.68241" lon="2.0520358">
        <ele>140</ele>
        <time>2022-01-20T08:44:57Z</time>
      </trkpt>
      <trkpt lat="47.682415" lon="2.0520487">
        <ele>140</ele>
        <time>2022-01-20T08:44:58Z</time>
      </trkpt>
      <trkpt lat="47.682415" lon="2.0520487">
        <ele>140</ele>
        <time>2022-01-20T08:44:58Z</time>
      </trkpt>
      <trkpt lat="47.68242" lon="2.052079">
        <ele>141</ele>
        <time>2022-01-20T08:45:00Z</time>
      </trkpt>
      <trkpt lat="47.68242" lon="2.052079">
        <ele>141</ele>
        <time>2022-01-20T08:45:00Z</time>
      </trkpt>
      <trkpt lat="47.682426" lon="2.052112">
        <ele>141</ele>
        <time>2022-01-20T08:45:02Z</time>
      </trkpt>
      <trkpt lat="47.682434" lon="2.052129">
        <ele>141</ele>
        <time>2022-01-20T08:45:03Z</time>
      </trkpt>
      <trkpt lat="47.682434" lon="2.052129">
        <ele>141</ele>
        <time>2022-01-20T08:45:03Z</time>
      </trkpt>
      <trkpt lat="47.68245" lon="2.0521588">
        <ele>141</ele>
        <time>2022-01-20T08:45:05Z</time>
      </trkpt>
      <trkpt lat="47.682453" lon="2.0521688">
        <ele>141</ele>
        <time>2022-01-20T08:45:06Z</time>
      </trkpt>
      <trkpt lat="47.68246" lon="2.052181">
        <ele>141</ele>
        <time>2022-01-20T08:45:07Z</time>
      </trkpt>
      <trkpt lat="47.682465" lon="2.0521963">
        <ele>141</ele>
        <time>2022-01-20T08:45:08Z</time>
      </trkpt>
      <trkpt lat="47.68247" lon="2.052213">
        <ele>141</ele>
        <time>2022-01-20T08:45:09Z</time>
      </trkpt>
      <trkpt lat="47.682476" lon="2.0522301">
        <ele>141</ele>
        <time>2022-01-20T08:45:10Z</time>
      </trkpt>
      <trkpt lat="47.682472" lon="2.052249">
        <ele>141</ele>
        <time>2022-01-20T08:45:11Z</time>
      </trkpt>
      <trkpt lat="47.682476" lon="2.0522695">
        <ele>141</ele>
        <time>2022-01-20T08:45:12Z</time>
      </trkpt>
      <trkpt lat="47.682476" lon="2.0522878">
        <ele>141</ele>
        <time>2022-01-20T08:45:13Z</time>
      </trkpt>
      <trkpt lat="47.68248" lon="2.0523074">
        <ele>141</ele>
        <time>2022-01-20T08:45:14Z</time>
      </trkpt>
      <trkpt lat="47.68248" lon="2.0523255">
        <ele>141</ele>
        <time>2022-01-20T08:45:15Z</time>
      </trkpt>
      <trkpt lat="47.682484" lon="2.052342">
        <ele>142</ele>
        <time>2022-01-20T08:45:16Z</time>
      </trkpt>
      <trkpt lat="47.682487" lon="2.0523603">
        <ele>141</ele>
        <time>2022-01-20T08:45:17Z</time>
      </trkpt>
      <trkpt lat="47.68249" lon="2.052378">
        <ele>141</ele>
        <time>2022-01-20T08:45:18Z</time>
      </trkpt>
      <trkpt lat="47.68249" lon="2.0523942">
        <ele>141</ele>
        <time>2022-01-20T08:45:19Z</time>
      </trkpt>
      <trkpt lat="47.68249" lon="2.0524132">
        <ele>141</ele>
        <time>2022-01-20T08:45:20Z</time>
      </trkpt>
      <trkpt lat="47.68249" lon="2.0524304">
        <ele>140</ele>
        <time>2022-01-20T08:45:21Z</time>
      </trkpt>
      <trkpt lat="47.6825" lon="2.0524485">
        <ele>141</ele>
        <time>2022-01-20T08:45:22Z</time>
      </trkpt>
      <trkpt lat="47.682503" lon="2.0524654">
        <ele>141</ele>
        <time>2022-01-20T08:45:23Z</time>
      </trkpt>
      <trkpt lat="47.682507" lon="2.0524836">
        <ele>141</ele>
        <time>2022-01-20T08:45:24Z</time>
      </trkpt>
      <trkpt lat="47.682503" lon="2.052506">
        <ele>141</ele>
        <time>2022-01-20T08:45:25Z</time>
      </trkpt>
      <trkpt lat="47.682507" lon="2.0525277">
        <ele>141</ele>
        <time>2022-01-20T08:45:26Z</time>
      </trkpt>
      <trkpt lat="47.68251" lon="2.0525496">
        <ele>141</ele>
        <time>2022-01-20T08:45:27Z</time>
      </trkpt>
      <trkpt lat="47.68251" lon="2.0525677">
        <ele>141</ele>
        <time>2022-01-20T08:45:28Z</time>
      </trkpt>
      <trkpt lat="47.682514" lon="2.0525875">
        <ele>141</ele>
        <time>2022-01-20T08:45:29Z</time>
      </trkpt>
      <trkpt lat="47.682518" lon="2.0526006">
        <ele>141</ele>
        <time>2022-01-20T08:45:30Z</time>
      </trkpt>
      <trkpt lat="47.682518" lon="2.0526006">
        <ele>141</ele>
        <time>2022-01-20T08:45:30Z</time>
      </trkpt>
      <trkpt lat="47.682518" lon="2.0526357">
        <ele>141</ele>
        <time>2022-01-20T08:45:32Z</time>
      </trkpt>
      <trkpt lat="47.682518" lon="2.0526526">
        <ele>141</ele>
        <time>2022-01-20T08:45:33Z</time>
      </trkpt>
      <trkpt lat="47.68252" lon="2.052668">
        <ele>141</ele>
        <time>2022-01-20T08:45:34Z</time>
      </trkpt>
      <trkpt lat="47.68252" lon="2.0526826">
        <ele>141</ele>
        <time>2022-01-20T08:45:35Z</time>
      </trkpt>
      <trkpt lat="47.68252" lon="2.052699">
        <ele>141</ele>
        <time>2022-01-20T08:45:36Z</time>
      </trkpt>
      <trkpt lat="47.682518" lon="2.0527132">
        <ele>141</ele>
        <time>2022-01-20T08:45:37Z</time>
      </trkpt>
      <trkpt lat="47.682518" lon="2.0527298">
        <ele>141</ele>
        <time>2022-01-20T08:45:38Z</time>
      </trkpt>
      <trkpt lat="47.682518" lon="2.052745">
        <ele>141</ele>
        <time>2022-01-20T08:45:39Z</time>
      </trkpt>
      <trkpt lat="47.682514" lon="2.0527627">
        <ele>141</ele>
        <time>2022-01-20T08:45:40Z</time>
      </trkpt>
      <trkpt lat="47.68251" lon="2.0527823">
        <ele>141</ele>
        <time>2022-01-20T08:45:41Z</time>
      </trkpt>
      <trkpt lat="47.682507" lon="2.0527983">
        <ele>141</ele>
        <time>2022-01-20T08:45:42Z</time>
      </trkpt>
      <trkpt lat="47.682503" lon="2.052818">
        <ele>141</ele>
        <time>2022-01-20T08:45:43Z</time>
      </trkpt>
      <trkpt lat="47.6825" lon="2.0528386">
        <ele>141</ele>
        <time>2022-01-20T08:45:44Z</time>
      </trkpt>
      <trkpt lat="47.682495" lon="2.0528595">
        <ele>141</ele>
        <time>2022-01-20T08:45:45Z</time>
      </trkpt>
      <trkpt lat="47.68249" lon="2.052879">
        <ele>141</ele>
        <time>2022-01-20T08:45:46Z</time>
      </trkpt>
      <trkpt lat="47.68249" lon="2.052899">
        <ele>141</ele>
        <time>2022-01-20T08:45:47Z</time>
      </trkpt>
      <trkpt lat="47.682487" lon="2.0529199">
        <ele>141</ele>
        <time>2022-01-20T08:45:48Z</time>
      </trkpt>
      <trkpt lat="47.682487" lon="2.052938">
        <ele>141</ele>
        <time>2022-01-20T08:45:49Z</time>
      </trkpt>
      <trkpt lat="47.682487" lon="2.0529528">
        <ele>141</ele>
        <time>2022-01-20T08:45:50Z</time>
      </trkpt>
      <trkpt lat="47.682484" lon="2.0529678">
        <ele>141</ele>
        <time>2022-01-20T08:45:51Z</time>
      </trkpt>
      <trkpt lat="47.68248" lon="2.052982">
        <ele>141</ele>
        <time>2022-01-20T08:45:52Z</time>
      </trkpt>
      <trkpt lat="47.682476" lon="2.0529976">
        <ele>141</ele>
        <time>2022-01-20T08:45:53Z</time>
      </trkpt>
      <trkpt lat="47.682476" lon="2.0530138">
        <ele>141</ele>
        <time>2022-01-20T08:45:54Z</time>
      </trkpt>
      <trkpt lat="47.682472" lon="2.0530322">
        <ele>140</ele>
        <time>2022-01-20T08:45:55Z</time>
      </trkpt>
      <trkpt lat="47.68247" lon="2.0530467">
        <ele>140</ele>
        <time>2022-01-20T08:45:56Z</time>
      </trkpt>
      <trkpt lat="47.68247" lon="2.0530612">
        <ele>140</ele>
        <time>2022-01-20T08:45:57Z</time>
      </trkpt>
      <trkpt lat="47.68246" lon="2.053072">
        <ele>139</ele>
        <time>2022-01-20T08:45:58Z</time>
      </trkpt>
      <trkpt lat="47.682457" lon="2.0530875">
        <ele>139</ele>
        <time>2022-01-20T08:45:59Z</time>
      </trkpt>
      <trkpt lat="47.682453" lon="2.0530999">
        <ele>139</ele>
        <time>2022-01-20T08:46:00Z</time>
      </trkpt>
      <trkpt lat="47.68245" lon="2.053113">
        <ele>139</ele>
        <time>2022-01-20T08:46:01Z</time>
      </trkpt>
      <trkpt lat="47.682446" lon="2.0531287">
        <ele>139</ele>
        <time>2022-01-20T08:46:02Z</time>
      </trkpt>
      <trkpt lat="47.68244" lon="2.0531456">
        <ele>139</ele>
        <time>2022-01-20T08:46:03Z</time>
      </trkpt>
      <trkpt lat="47.682438" lon="2.0531633">
        <ele>138</ele>
        <time>2022-01-20T08:46:04Z</time>
      </trkpt>
      <trkpt lat="47.682434" lon="2.05318">
        <ele>138</ele>
        <time>2022-01-20T08:46:05Z</time>
      </trkpt>
      <trkpt lat="47.682434" lon="2.0531971">
        <ele>138</ele>
        <time>2022-01-20T08:46:06Z</time>
      </trkpt>
      <trkpt lat="47.68243" lon="2.053215">
        <ele>138</ele>
        <time>2022-01-20T08:46:07Z</time>
      </trkpt>
      <trkpt lat="47.682423" lon="2.0532303">
        <ele>138</ele>
        <time>2022-01-20T08:46:08Z</time>
      </trkpt>
      <trkpt lat="47.682423" lon="2.053245">
        <ele>138</ele>
        <time>2022-01-20T08:46:09Z</time>
      </trkpt>
      <trkpt lat="47.68242" lon="2.0532615">
        <ele>138</ele>
        <time>2022-01-20T08:46:10Z</time>
      </trkpt>
      <trkpt lat="47.682415" lon="2.0532777">
        <ele>138</ele>
        <time>2022-01-20T08:46:11Z</time>
      </trkpt>
      <trkpt lat="47.682407" lon="2.0532956">
        <ele>139</ele>
        <time>2022-01-20T08:46:12Z</time>
      </trkpt>
      <trkpt lat="47.682404" lon="2.053309">
        <ele>139</ele>
        <time>2022-01-20T08:46:13Z</time>
      </trkpt>
      <trkpt lat="47.6824" lon="2.053323">
        <ele>139</ele>
        <time>2022-01-20T08:46:14Z</time>
      </trkpt>
      <trkpt lat="47.682392" lon="2.0533373">
        <ele>139</ele>
        <time>2022-01-20T08:46:15Z</time>
      </trkpt>
      <trkpt lat="47.68239" lon="2.0533524">
        <ele>139</ele>
        <time>2022-01-20T08:46:16Z</time>
      </trkpt>
      <trkpt lat="47.682384" lon="2.053372">
        <ele>139</ele>
        <time>2022-01-20T08:46:17Z</time>
      </trkpt>
      <trkpt lat="47.68238" lon="2.0533888">
        <ele>139</ele>
        <time>2022-01-20T08:46:18Z</time>
      </trkpt>
      <trkpt lat="47.682377" lon="2.0534074">
        <ele>138</ele>
        <time>2022-01-20T08:46:19Z</time>
      </trkpt>
      <trkpt lat="47.68237" lon="2.0534244">
        <ele>138</ele>
        <time>2022-01-20T08:46:20Z</time>
      </trkpt>
      <trkpt lat="47.682365" lon="2.053443">
        <ele>139</ele>
        <time>2022-01-20T08:46:21Z</time>
      </trkpt>
      <trkpt lat="47.68236" lon="2.0534616">
        <ele>139</ele>
        <time>2022-01-20T08:46:22Z</time>
      </trkpt>
      <trkpt lat="47.68236" lon="2.053478">
        <ele>139</ele>
        <time>2022-01-20T08:46:23Z</time>
      </trkpt>
      <trkpt lat="47.682354" lon="2.0534906">
        <ele>140</ele>
        <time>2022-01-20T08:46:24Z</time>
      </trkpt>
      <trkpt lat="47.682346" lon="2.0535069">
        <ele>140</ele>
        <time>2022-01-20T08:46:25Z</time>
      </trkpt>
      <trkpt lat="47.68234" lon="2.0535219">
        <ele>140</ele>
        <time>2022-01-20T08:46:26Z</time>
      </trkpt>
      <trkpt lat="47.682335" lon="2.0535386">
        <ele>140</ele>
        <time>2022-01-20T08:46:27Z</time>
      </trkpt>
      <trkpt lat="47.68233" lon="2.0535533">
        <ele>140</ele>
        <time>2022-01-20T08:46:28Z</time>
      </trkpt>
      <trkpt lat="47.682327" lon="2.0535624">
        <ele>140</ele>
        <time>2022-01-20T08:46:29Z</time>
      </trkpt>
      <trkpt lat="47.68232" lon="2.0535812">
        <ele>140</ele>
        <time>2022-01-20T08:46:30Z</time>
      </trkpt>
      <trkpt lat="47.682316" lon="2.0535975">
        <ele>139</ele>
        <time>2022-01-20T08:46:31Z</time>
      </trkpt>
      <trkpt lat="47.68231" lon="2.0536141">
        <ele>139</ele>
        <time>2022-01-20T08:46:32Z</time>
      </trkpt>
      <trkpt lat="47.682304" lon="2.0536332">
        <ele>139</ele>
        <time>2022-01-20T08:46:33Z</time>
      </trkpt>
      <trkpt lat="47.682297" lon="2.0536497">
        <ele>139</ele>
        <time>2022-01-20T08:46:34Z</time>
      </trkpt>
      <trkpt lat="47.682293" lon="2.0536616">
        <ele>139</ele>
        <time>2022-01-20T08:46:35Z</time>
      </trkpt>
      <trkpt lat="47.682293" lon="2.0536802">
        <ele>139</ele>
        <time>2022-01-20T08:46:36Z</time>
      </trkpt>
      <trkpt lat="47.68229" lon="2.0536954">
        <ele>139</ele>
        <time>2022-01-20T08:46:37Z</time>
      </trkpt>
      <trkpt lat="47.682285" lon="2.0537095">
        <ele>139</ele>
        <time>2022-01-20T08:46:38Z</time>
      </trkpt>
      <trkpt lat="47.68228" lon="2.053726">
        <ele>139</ele>
        <time>2022-01-20T08:46:39Z</time>
      </trkpt>
      <trkpt lat="47.682278" lon="2.0537405">
        <ele>139</ele>
        <time>2022-01-20T08:46:40Z</time>
      </trkpt>
      <trkpt lat="47.682274" lon="2.0537562">
        <ele>139</ele>
        <time>2022-01-20T08:46:41Z</time>
      </trkpt>
      <trkpt lat="47.682266" lon="2.0537708">
        <ele>140</ele>
        <time>2022-01-20T08:46:42Z</time>
      </trkpt>
      <trkpt lat="47.682262" lon="2.0537813">
        <ele>140</ele>
        <time>2022-01-20T08:46:43Z</time>
      </trkpt>
      <trkpt lat="47.68226" lon="2.0537949">
        <ele>140</ele>
        <time>2022-01-20T08:46:44Z</time>
      </trkpt>
      <trkpt lat="47.68225" lon="2.0538113">
        <ele>140</ele>
        <time>2022-01-20T08:46:45Z</time>
      </trkpt>
      <trkpt lat="47.682247" lon="2.0538254">
        <ele>141</ele>
        <time>2022-01-20T08:46:46Z</time>
      </trkpt>
      <trkpt lat="47.68224" lon="2.0538428">
        <ele>141</ele>
        <time>2022-01-20T08:46:47Z</time>
      </trkpt>
      <trkpt lat="47.682236" lon="2.0538552">
        <ele>140</ele>
        <time>2022-01-20T08:46:48Z</time>
      </trkpt>
      <trkpt lat="47.68223" lon="2.0538692">
        <ele>140</ele>
        <time>2022-01-20T08:46:49Z</time>
      </trkpt>
      <trkpt lat="47.682224" lon="2.0538855">
        <ele>141</ele>
        <time>2022-01-20T08:46:50Z</time>
      </trkpt>
      <trkpt lat="47.68222" lon="2.0539024">
        <ele>141</ele>
        <time>2022-01-20T08:46:51Z</time>
      </trkpt>
      <trkpt lat="47.682217" lon="2.0539181">
        <ele>141</ele>
        <time>2022-01-20T08:46:52Z</time>
      </trkpt>
      <trkpt lat="47.682213" lon="2.0539324">
        <ele>141</ele>
        <time>2022-01-20T08:46:53Z</time>
      </trkpt>
      <trkpt lat="47.68221" lon="2.0539482">
        <ele>141</ele>
        <time>2022-01-20T08:46:54Z</time>
      </trkpt>
      <trkpt lat="47.682205" lon="2.0539649">
        <ele>141</ele>
        <time>2022-01-20T08:46:55Z</time>
      </trkpt>
      <trkpt lat="47.6822" lon="2.053978">
        <ele>141</ele>
        <time>2022-01-20T08:46:56Z</time>
      </trkpt>
      <trkpt lat="47.682198" lon="2.0539925">
        <ele>141</ele>
        <time>2022-01-20T08:46:57Z</time>
      </trkpt>
      <trkpt lat="47.682194" lon="2.054007">
        <ele>141</ele>
        <time>2022-01-20T08:46:58Z</time>
      </trkpt>
      <trkpt lat="47.682194" lon="2.0540228">
        <ele>141</ele>
        <time>2022-01-20T08:46:59Z</time>
      </trkpt>
      <trkpt lat="47.682194" lon="2.054041">
        <ele>141</ele>
        <time>2022-01-20T08:47:00Z</time>
      </trkpt>
      <trkpt lat="47.68219" lon="2.054054">
        <ele>142</ele>
        <time>2022-01-20T08:47:01Z</time>
      </trkpt>
      <trkpt lat="47.682186" lon="2.0540683">
        <ele>142</ele>
        <time>2022-01-20T08:47:02Z</time>
      </trkpt>
      <trkpt lat="47.682182" lon="2.0540843">
        <ele>142</ele>
        <time>2022-01-20T08:47:03Z</time>
      </trkpt>
      <trkpt lat="47.682182" lon="2.0540812">
        <ele>142</ele>
        <time>2022-01-20T08:47:04Z</time>
      </trkpt>
      <trkpt lat="47.68218" lon="2.0540893">
        <ele>142</ele>
        <time>2022-01-20T08:47:05Z</time>
      </trkpt>
      <trkpt lat="47.682175" lon="2.054103">
        <ele>142</ele>
        <time>2022-01-20T08:47:06Z</time>
      </trkpt>
      <trkpt lat="47.682175" lon="2.0541203">
        <ele>142</ele>
        <time>2022-01-20T08:47:07Z</time>
      </trkpt>
      <trkpt lat="47.682175" lon="2.0541391">
        <ele>142</ele>
        <time>2022-01-20T08:47:08Z</time>
      </trkpt>
      <trkpt lat="47.68218" lon="2.0541608">
        <ele>141</ele>
        <time>2022-01-20T08:47:09Z</time>
      </trkpt>
      <trkpt lat="47.682175" lon="2.054177">
        <ele>141</ele>
        <time>2022-01-20T08:47:10Z</time>
      </trkpt>
      <trkpt lat="47.682175" lon="2.0541942">
        <ele>141</ele>
        <time>2022-01-20T08:47:11Z</time>
      </trkpt>
      <trkpt lat="47.68218" lon="2.0542045">
        <ele>141</ele>
        <time>2022-01-20T08:47:12Z</time>
      </trkpt>
      <trkpt lat="47.682182" lon="2.0542228">
        <ele>141</ele>
        <time>2022-01-20T08:47:13Z</time>
      </trkpt>
      <trkpt lat="47.682182" lon="2.0542452">
        <ele>141</ele>
        <time>2022-01-20T08:47:14Z</time>
      </trkpt>
      <trkpt lat="47.682182" lon="2.0542638">
        <ele>141</ele>
        <time>2022-01-20T08:47:15Z</time>
      </trkpt>
      <trkpt lat="47.682186" lon="2.0542817">
        <ele>140</ele>
        <time>2022-01-20T08:47:16Z</time>
      </trkpt>
      <trkpt lat="47.682186" lon="2.0543008">
        <ele>140</ele>
        <time>2022-01-20T08:47:17Z</time>
      </trkpt>
      <trkpt lat="47.682186" lon="2.0543227">
        <ele>141</ele>
        <time>2022-01-20T08:47:18Z</time>
      </trkpt>
      <trkpt lat="47.682186" lon="2.054342">
        <ele>141</ele>
        <time>2022-01-20T08:47:19Z</time>
      </trkpt>
      <trkpt lat="47.68219" lon="2.0543551">
        <ele>141</ele>
        <time>2022-01-20T08:47:20Z</time>
      </trkpt>
      <trkpt lat="47.68219" lon="2.0543709">
        <ele>142</ele>
        <time>2022-01-20T08:47:21Z</time>
      </trkpt>
      <trkpt lat="47.682194" lon="2.0543883">
        <ele>142</ele>
        <time>2022-01-20T08:47:22Z</time>
      </trkpt>
      <trkpt lat="47.682194" lon="2.0544076">
        <ele>142</ele>
        <time>2022-01-20T08:47:23Z</time>
      </trkpt>
      <trkpt lat="47.682194" lon="2.0544262">
        <ele>142</ele>
        <time>2022-01-20T08:47:24Z</time>
      </trkpt>
      <trkpt lat="47.682198" lon="2.054444">
        <ele>142</ele>
        <time>2022-01-20T08:47:25Z</time>
      </trkpt>
      <trkpt lat="47.6822" lon="2.0544596">
        <ele>142</ele>
        <time>2022-01-20T08:47:26Z</time>
      </trkpt>
      <trkpt lat="47.682205" lon="2.0544715">
        <ele>141</ele>
        <time>2022-01-20T08:47:27Z</time>
      </trkpt>
      <trkpt lat="47.68221" lon="2.0544891">
        <ele>141</ele>
        <time>2022-01-20T08:47:28Z</time>
      </trkpt>
      <trkpt lat="47.682217" lon="2.0545044">
        <ele>141</ele>
        <time>2022-01-20T08:47:29Z</time>
      </trkpt>
      <trkpt lat="47.682217" lon="2.054522">
        <ele>142</ele>
        <time>2022-01-20T08:47:30Z</time>
      </trkpt>
      <trkpt lat="47.68222" lon="2.05454">
        <ele>142</ele>
        <time>2022-01-20T08:47:31Z</time>
      </trkpt>
      <trkpt lat="47.682224" lon="2.0545635">
        <ele>142</ele>
        <time>2022-01-20T08:47:32Z</time>
      </trkpt>
      <trkpt lat="47.682224" lon="2.0545845">
        <ele>142</ele>
        <time>2022-01-20T08:47:33Z</time>
      </trkpt>
      <trkpt lat="47.682228" lon="2.0546045">
        <ele>141</ele>
        <time>2022-01-20T08:47:34Z</time>
      </trkpt>
      <trkpt lat="47.682228" lon="2.0546217">
        <ele>142</ele>
        <time>2022-01-20T08:47:35Z</time>
      </trkpt>
      <trkpt lat="47.68223" lon="2.0546358">
        <ele>142</ele>
        <time>2022-01-20T08:47:36Z</time>
      </trkpt>
      <trkpt lat="47.682236" lon="2.0546525">
        <ele>141</ele>
        <time>2022-01-20T08:47:37Z</time>
      </trkpt>
      <trkpt lat="47.68224" lon="2.0546722">
        <ele>141</ele>
        <time>2022-01-20T08:47:38Z</time>
      </trkpt>
      <trkpt lat="47.682243" lon="2.0546887">
        <ele>142</ele>
        <time>2022-01-20T08:47:39Z</time>
      </trkpt>
      <trkpt lat="47.682247" lon="2.054701">
        <ele>142</ele>
        <time>2022-01-20T08:47:40Z</time>
      </trkpt>
      <trkpt lat="47.68225" lon="2.0547175">
        <ele>142</ele>
        <time>2022-01-20T08:47:41Z</time>
      </trkpt>
      <trkpt lat="47.68225" lon="2.054734">
        <ele>142</ele>
        <time>2022-01-20T08:47:42Z</time>
      </trkpt>
      <trkpt lat="47.682255" lon="2.0547507">
        <ele>142</ele>
        <time>2022-01-20T08:47:43Z</time>
      </trkpt>
      <trkpt lat="47.682262" lon="2.0547652">
        <ele>142</ele>
        <time>2022-01-20T08:47:44Z</time>
      </trkpt>
      <trkpt lat="47.682262" lon="2.0547779">
        <ele>142</ele>
        <time>2022-01-20T08:47:45Z</time>
      </trkpt>
      <trkpt lat="47.68227" lon="2.0547903">
        <ele>142</ele>
        <time>2022-01-20T08:47:46Z</time>
      </trkpt>
      <trkpt lat="47.682274" lon="2.0548007">
        <ele>141</ele>
        <time>2022-01-20T08:47:47Z</time>
      </trkpt>
      <trkpt lat="47.682278" lon="2.0548136">
        <ele>141</ele>
        <time>2022-01-20T08:47:48Z</time>
      </trkpt>
      <trkpt lat="47.68228" lon="2.0548282">
        <ele>141</ele>
        <time>2022-01-20T08:47:49Z</time>
      </trkpt>
      <trkpt lat="47.682285" lon="2.0548456">
        <ele>142</ele>
        <time>2022-01-20T08:47:50Z</time>
      </trkpt>
      <trkpt lat="47.682285" lon="2.0548615">
        <ele>142</ele>
        <time>2022-01-20T08:47:51Z</time>
      </trkpt>
      <trkpt lat="47.682293" lon="2.0548759">
        <ele>143</ele>
        <time>2022-01-20T08:47:52Z</time>
      </trkpt>
      <trkpt lat="47.682297" lon="2.0548918">
        <ele>143</ele>
        <time>2022-01-20T08:47:53Z</time>
      </trkpt>
      <trkpt lat="47.682304" lon="2.0549076">
        <ele>143</ele>
        <time>2022-01-20T08:47:54Z</time>
      </trkpt>
      <trkpt lat="47.68231" lon="2.0549214">
        <ele>143</ele>
        <time>2022-01-20T08:47:55Z</time>
      </trkpt>
      <trkpt lat="47.682316" lon="2.054934">
        <ele>143</ele>
        <time>2022-01-20T08:47:56Z</time>
      </trkpt>
      <trkpt lat="47.682323" lon="2.0549493">
        <ele>143</ele>
        <time>2022-01-20T08:47:57Z</time>
      </trkpt>
      <trkpt lat="47.68233" lon="2.0549645">
        <ele>143</ele>
        <time>2022-01-20T08:47:58Z</time>
      </trkpt>
      <trkpt lat="47.682335" lon="2.0549796">
        <ele>143</ele>
        <time>2022-01-20T08:47:59Z</time>
      </trkpt>
      <trkpt lat="47.682343" lon="2.054994">
        <ele>143</ele>
        <time>2022-01-20T08:48:00Z</time>
      </trkpt>
      <trkpt lat="47.682346" lon="2.0550098">
        <ele>143</ele>
        <time>2022-01-20T08:48:01Z</time>
      </trkpt>
      <trkpt lat="47.682354" lon="2.0550277">
        <ele>143</ele>
        <time>2022-01-20T08:48:02Z</time>
      </trkpt>
      <trkpt lat="47.68236" lon="2.0550442">
        <ele>143</ele>
        <time>2022-01-20T08:48:03Z</time>
      </trkpt>
      <trkpt lat="47.68237" lon="2.055061">
        <ele>143</ele>
        <time>2022-01-20T08:48:04Z</time>
      </trkpt>
      <trkpt lat="47.682373" lon="2.05508">
        <ele>143</ele>
        <time>2022-01-20T08:48:05Z</time>
      </trkpt>
      <trkpt lat="47.68238" lon="2.0550952">
        <ele>143</ele>
        <time>2022-01-20T08:48:06Z</time>
      </trkpt>
      <trkpt lat="47.68239" lon="2.0551102">
        <ele>143</ele>
        <time>2022-01-20T08:48:07Z</time>
      </trkpt>
      <trkpt lat="47.682392" lon="2.055127">
        <ele>143</ele>
        <time>2022-01-20T08:48:08Z</time>
      </trkpt>
      <trkpt lat="47.682396" lon="2.0551417">
        <ele>143</ele>
        <time>2022-01-20T08:48:09Z</time>
      </trkpt>
      <trkpt lat="47.6824" lon="2.0551548">
        <ele>143</ele>
        <time>2022-01-20T08:48:10Z</time>
      </trkpt>
      <trkpt lat="47.682407" lon="2.0551717">
        <ele>143</ele>
        <time>2022-01-20T08:48:11Z</time>
      </trkpt>
      <trkpt lat="47.68241" lon="2.0551882">
        <ele>143</ele>
        <time>2022-01-20T08:48:12Z</time>
      </trkpt>
      <trkpt lat="47.68242" lon="2.0552077">
        <ele>143</ele>
        <time>2022-01-20T08:48:13Z</time>
      </trkpt>
      <trkpt lat="47.68242" lon="2.0552235">
        <ele>144</ele>
        <time>2022-01-20T08:48:14Z</time>
      </trkpt>
      <trkpt lat="47.682423" lon="2.0552423">
        <ele>144</ele>
        <time>2022-01-20T08:48:15Z</time>
      </trkpt>
      <trkpt lat="47.682426" lon="2.05526">
        <ele>144</ele>
        <time>2022-01-20T08:48:16Z</time>
      </trkpt>
      <trkpt lat="47.68243" lon="2.055276">
        <ele>144</ele>
        <time>2022-01-20T08:48:17Z</time>
      </trkpt>
      <trkpt lat="47.682434" lon="2.0552924">
        <ele>143</ele>
        <time>2022-01-20T08:48:18Z</time>
      </trkpt>
      <trkpt lat="47.68244" lon="2.0553064">
        <ele>143</ele>
        <time>2022-01-20T08:48:19Z</time>
      </trkpt>
      <trkpt lat="47.68245" lon="2.0553234">
        <ele>144</ele>
        <time>2022-01-20T08:48:20Z</time>
      </trkpt>
      <trkpt lat="47.682457" lon="2.0553365">
        <ele>144</ele>
        <time>2022-01-20T08:48:21Z</time>
      </trkpt>
      <trkpt lat="47.682465" lon="2.0553515">
        <ele>144</ele>
        <time>2022-01-20T08:48:22Z</time>
      </trkpt>
      <trkpt lat="47.68247" lon="2.055371">
        <ele>144</ele>
        <time>2022-01-20T08:48:23Z</time>
      </trkpt>
      <trkpt lat="47.682476" lon="2.0553925">
        <ele>144</ele>
        <time>2022-01-20T08:48:24Z</time>
      </trkpt>
      <trkpt lat="47.68248" lon="2.0554042">
        <ele>144</ele>
        <time>2022-01-20T08:48:25Z</time>
      </trkpt>
      <trkpt lat="47.682487" lon="2.0554173">
        <ele>144</ele>
        <time>2022-01-20T08:48:26Z</time>
      </trkpt>
      <trkpt lat="47.68249" lon="2.0554333">
        <ele>144</ele>
        <time>2022-01-20T08:48:27Z</time>
      </trkpt>
      <trkpt lat="47.6825" lon="2.0554507">
        <ele>144</ele>
        <time>2022-01-20T08:48:28Z</time>
      </trkpt>
      <trkpt lat="47.682507" lon="2.055466">
        <ele>144</ele>
        <time>2022-01-20T08:48:29Z</time>
      </trkpt>
      <trkpt lat="47.68251" lon="2.055482">
        <ele>144</ele>
        <time>2022-01-20T08:48:30Z</time>
      </trkpt>
      <trkpt lat="47.682518" lon="2.0555005">
        <ele>144</ele>
        <time>2022-01-20T08:48:31Z</time>
      </trkpt>
      <trkpt lat="47.682526" lon="2.0555165">
        <ele>143</ele>
        <time>2022-01-20T08:48:32Z</time>
      </trkpt>
      <trkpt lat="47.682533" lon="2.0555315">
        <ele>144</ele>
        <time>2022-01-20T08:48:33Z</time>
      </trkpt>
      <trkpt lat="47.68254" lon="2.055545">
        <ele>143</ele>
        <time>2022-01-20T08:48:34Z</time>
      </trkpt>
      <trkpt lat="47.68255" lon="2.0555592">
        <ele>143</ele>
        <time>2022-01-20T08:48:35Z</time>
      </trkpt>
      <trkpt lat="47.682556" lon="2.055574">
        <ele>143</ele>
        <time>2022-01-20T08:48:36Z</time>
      </trkpt>
      <trkpt lat="47.68256" lon="2.0555873">
        <ele>143</ele>
        <time>2022-01-20T08:48:37Z</time>
      </trkpt>
      <trkpt lat="47.682568" lon="2.0555952">
        <ele>143</ele>
        <time>2022-01-20T08:48:38Z</time>
      </trkpt>
      <trkpt lat="47.68257" lon="2.0556064">
        <ele>143</ele>
        <time>2022-01-20T08:48:39Z</time>
      </trkpt>
      <trkpt lat="47.68258" lon="2.0556238">
        <ele>143</ele>
        <time>2022-01-20T08:48:40Z</time>
      </trkpt>
      <trkpt lat="47.68258" lon="2.0556476">
        <ele>143</ele>
        <time>2022-01-20T08:48:41Z</time>
      </trkpt>
      <trkpt lat="47.682583" lon="2.0556643">
        <ele>143</ele>
        <time>2022-01-20T08:48:42Z</time>
      </trkpt>
      <trkpt lat="47.682587" lon="2.0556798">
        <ele>142</ele>
        <time>2022-01-20T08:48:43Z</time>
      </trkpt>
      <trkpt lat="47.682594" lon="2.0556962">
        <ele>143</ele>
        <time>2022-01-20T08:48:44Z</time>
      </trkpt>
      <trkpt lat="47.682602" lon="2.055717">
        <ele>142</ele>
        <time>2022-01-20T08:48:45Z</time>
      </trkpt>
      <trkpt lat="47.682606" lon="2.0557358">
        <ele>143</ele>
        <time>2022-01-20T08:48:46Z</time>
      </trkpt>
      <trkpt lat="47.68261" lon="2.0557451">
        <ele>143</ele>
        <time>2022-01-20T08:48:47Z</time>
      </trkpt>
      <trkpt lat="47.68261" lon="2.0557601">
        <ele>143</ele>
        <time>2022-01-20T08:48:48Z</time>
      </trkpt>
      <trkpt lat="47.682613" lon="2.0557775">
        <ele>144</ele>
        <time>2022-01-20T08:48:49Z</time>
      </trkpt>
      <trkpt lat="47.682617" lon="2.0557961">
        <ele>144</ele>
        <time>2022-01-20T08:48:50Z</time>
      </trkpt>
      <trkpt lat="47.682617" lon="2.0558155">
        <ele>144</ele>
        <time>2022-01-20T08:48:51Z</time>
      </trkpt>
      <trkpt lat="47.68262" lon="2.0558352">
        <ele>144</ele>
        <time>2022-01-20T08:48:52Z</time>
      </trkpt>
      <trkpt lat="47.682625" lon="2.0558517">
        <ele>144</ele>
        <time>2022-01-20T08:48:53Z</time>
      </trkpt>
      <trkpt lat="47.68263" lon="2.0558686">
        <ele>144</ele>
        <time>2022-01-20T08:48:54Z</time>
      </trkpt>
      <trkpt lat="47.68263" lon="2.0558848">
        <ele>144</ele>
        <time>2022-01-20T08:48:55Z</time>
      </trkpt>
      <trkpt lat="47.682632" lon="2.055899">
        <ele>144</ele>
        <time>2022-01-20T08:48:56Z</time>
      </trkpt>
      <trkpt lat="47.682636" lon="2.0559113">
        <ele>144</ele>
        <time>2022-01-20T08:48:57Z</time>
      </trkpt>
      <trkpt lat="47.682644" lon="2.0559258">
        <ele>144</ele>
        <time>2022-01-20T08:48:58Z</time>
      </trkpt>
      <trkpt lat="47.68265" lon="2.0559382">
        <ele>145</ele>
        <time>2022-01-20T08:48:59Z</time>
      </trkpt>
      <trkpt lat="47.682655" lon="2.0559502">
        <ele>145</ele>
        <time>2022-01-20T08:49:00Z</time>
      </trkpt>
      <trkpt lat="47.68266" lon="2.0559652">
        <ele>145</ele>
        <time>2022-01-20T08:49:01Z</time>
      </trkpt>
      <trkpt lat="47.682667" lon="2.055985">
        <ele>146</ele>
        <time>2022-01-20T08:49:02Z</time>
      </trkpt>
      <trkpt lat="47.682667" lon="2.0560021">
        <ele>146</ele>
        <time>2022-01-20T08:49:03Z</time>
      </trkpt>
      <trkpt lat="47.68267" lon="2.0560212">
        <ele>146</ele>
        <time>2022-01-20T08:49:04Z</time>
      </trkpt>
      <trkpt lat="47.682674" lon="2.0560358">
        <ele>146</ele>
        <time>2022-01-20T08:49:05Z</time>
      </trkpt>
      <trkpt lat="47.68268" lon="2.056054">
        <ele>146</ele>
        <time>2022-01-20T08:49:06Z</time>
      </trkpt>
      <trkpt lat="47.68269" lon="2.0560727">
        <ele>146</ele>
        <time>2022-01-20T08:49:07Z</time>
      </trkpt>
      <trkpt lat="47.682693" lon="2.0560937">
        <ele>146</ele>
        <time>2022-01-20T08:49:08Z</time>
      </trkpt>
      <trkpt lat="47.682697" lon="2.0561116">
        <ele>146</ele>
        <time>2022-01-20T08:49:09Z</time>
      </trkpt>
      <trkpt lat="47.6827" lon="2.0561283">
        <ele>146</ele>
        <time>2022-01-20T08:49:10Z</time>
      </trkpt>
      <trkpt lat="47.6827" lon="2.0561419">
        <ele>146</ele>
        <time>2022-01-20T08:49:11Z</time>
      </trkpt>
      <trkpt lat="47.682705" lon="2.0561552">
        <ele>146</ele>
        <time>2022-01-20T08:49:12Z</time>
      </trkpt>
      <trkpt lat="47.68271" lon="2.0561707">
        <ele>146</ele>
        <time>2022-01-20T08:49:13Z</time>
      </trkpt>
      <trkpt lat="47.68271" lon="2.056186">
        <ele>146</ele>
        <time>2022-01-20T08:49:14Z</time>
      </trkpt>
      <trkpt lat="47.682713" lon="2.0562007">
        <ele>146</ele>
        <time>2022-01-20T08:49:15Z</time>
      </trkpt>
      <trkpt lat="47.682716" lon="2.0562143">
        <ele>147</ele>
        <time>2022-01-20T08:49:16Z</time>
      </trkpt>
      <trkpt lat="47.682716" lon="2.0562325">
        <ele>147</ele>
        <time>2022-01-20T08:49:17Z</time>
      </trkpt>
      <trkpt lat="47.682716" lon="2.0562463">
        <ele>147</ele>
        <time>2022-01-20T08:49:18Z</time>
      </trkpt>
      <trkpt lat="47.682713" lon="2.0562615">
        <ele>147</ele>
        <time>2022-01-20T08:49:19Z</time>
      </trkpt>
      <trkpt lat="47.682713" lon="2.0562792">
        <ele>147</ele>
        <time>2022-01-20T08:49:20Z</time>
      </trkpt>
      <trkpt lat="47.682713" lon="2.056296">
        <ele>147</ele>
        <time>2022-01-20T08:49:21Z</time>
      </trkpt>
      <trkpt lat="47.682713" lon="2.0563116">
        <ele>146</ele>
        <time>2022-01-20T08:49:22Z</time>
      </trkpt>
      <trkpt lat="47.682716" lon="2.0563266">
        <ele>146</ele>
        <time>2022-01-20T08:49:23Z</time>
      </trkpt>
      <trkpt lat="47.68272" lon="2.0563443">
        <ele>146</ele>
        <time>2022-01-20T08:49:24Z</time>
      </trkpt>
      <trkpt lat="47.682724" lon="2.0563602">
        <ele>146</ele>
        <time>2022-01-20T08:49:25Z</time>
      </trkpt>
      <trkpt lat="47.68273" lon="2.0563776">
        <ele>145</ele>
        <time>2022-01-20T08:49:26Z</time>
      </trkpt>
      <trkpt lat="47.68274" lon="2.0563955">
        <ele>145</ele>
        <time>2022-01-20T08:49:27Z</time>
      </trkpt>
      <trkpt lat="47.682743" lon="2.0564122">
        <ele>145</ele>
        <time>2022-01-20T08:49:28Z</time>
      </trkpt>
      <trkpt lat="47.682743" lon="2.0564272">
        <ele>145</ele>
        <time>2022-01-20T08:49:29Z</time>
      </trkpt>
      <trkpt lat="47.682747" lon="2.0564446">
        <ele>146</ele>
        <time>2022-01-20T08:49:30Z</time>
      </trkpt>
      <trkpt lat="47.682747" lon="2.0564625">
        <ele>146</ele>
        <time>2022-01-20T08:49:31Z</time>
      </trkpt>
      <trkpt lat="47.68275" lon="2.0564818">
        <ele>146</ele>
        <time>2022-01-20T08:49:32Z</time>
      </trkpt>
      <trkpt lat="47.68275" lon="2.0565028">
        <ele>146</ele>
        <time>2022-01-20T08:49:33Z</time>
      </trkpt>
      <trkpt lat="47.682755" lon="2.0565238">
        <ele>145</ele>
        <time>2022-01-20T08:49:34Z</time>
      </trkpt>
      <trkpt lat="47.682755" lon="2.0565414">
        <ele>145</ele>
        <time>2022-01-20T08:49:35Z</time>
      </trkpt>
      <trkpt lat="47.68276" lon="2.0565627">
        <ele>145</ele>
        <time>2022-01-20T08:49:36Z</time>
      </trkpt>
      <trkpt lat="47.682762" lon="2.0565846">
        <ele>145</ele>
        <time>2022-01-20T08:49:37Z</time>
      </trkpt>
      <trkpt lat="47.682762" lon="2.0566056">
        <ele>145</ele>
        <time>2022-01-20T08:49:38Z</time>
      </trkpt>
      <trkpt lat="47.682762" lon="2.0566258">
        <ele>145</ele>
        <time>2022-01-20T08:49:39Z</time>
      </trkpt>
      <trkpt lat="47.682762" lon="2.0566459">
        <ele>145</ele>
        <time>2022-01-20T08:49:40Z</time>
      </trkpt>
      <trkpt lat="47.682766" lon="2.0566657">
        <ele>145</ele>
        <time>2022-01-20T08:49:41Z</time>
      </trkpt>
      <trkpt lat="47.682766" lon="2.056683">
        <ele>145</ele>
        <time>2022-01-20T08:49:42Z</time>
      </trkpt>
      <trkpt lat="47.682766" lon="2.056701">
        <ele>145</ele>
        <time>2022-01-20T08:49:43Z</time>
      </trkpt>
      <trkpt lat="47.682766" lon="2.0567212">
        <ele>145</ele>
        <time>2022-01-20T08:49:44Z</time>
      </trkpt>
      <trkpt lat="47.682766" lon="2.0567353">
        <ele>145</ele>
        <time>2022-01-20T08:49:45Z</time>
      </trkpt>
      <trkpt lat="47.682766" lon="2.0567513">
        <ele>144</ele>
        <time>2022-01-20T08:49:46Z</time>
      </trkpt>
      <trkpt lat="47.68277" lon="2.0567713">
        <ele>145</ele>
        <time>2022-01-20T08:49:47Z</time>
      </trkpt>
      <trkpt lat="47.68277" lon="2.0567896">
        <ele>146</ele>
        <time>2022-01-20T08:49:48Z</time>
      </trkpt>
      <trkpt lat="47.68277" lon="2.0568066">
        <ele>146</ele>
        <time>2022-01-20T08:49:49Z</time>
      </trkpt>
      <trkpt lat="47.682777" lon="2.0568235">
        <ele>146</ele>
        <time>2022-01-20T08:49:50Z</time>
      </trkpt>
      <trkpt lat="47.682777" lon="2.056843">
        <ele>146</ele>
        <time>2022-01-20T08:49:51Z</time>
      </trkpt>
      <trkpt lat="47.682777" lon="2.056863">
        <ele>146</ele>
        <time>2022-01-20T08:49:52Z</time>
      </trkpt>
      <trkpt lat="47.682777" lon="2.0568788">
        <ele>145</ele>
        <time>2022-01-20T08:49:53Z</time>
      </trkpt>
      <trkpt lat="47.68278" lon="2.0568883">
        <ele>145</ele>
        <time>2022-01-20T08:49:54Z</time>
      </trkpt>
      <trkpt lat="47.682777" lon="2.0569055">
        <ele>145</ele>
        <time>2022-01-20T08:49:55Z</time>
      </trkpt>
      <trkpt lat="47.682777" lon="2.056919">
        <ele>146</ele>
        <time>2022-01-20T08:49:56Z</time>
      </trkpt>
      <trkpt lat="47.682777" lon="2.056939">
        <ele>145</ele>
        <time>2022-01-20T08:49:57Z</time>
      </trkpt>
      <trkpt lat="47.68278" lon="2.0569508">
        <ele>146</ele>
        <time>2022-01-20T08:49:58Z</time>
      </trkpt>
      <trkpt lat="47.682785" lon="2.0569646">
        <ele>145</ele>
        <time>2022-01-20T08:49:59Z</time>
      </trkpt>
      <trkpt lat="47.682785" lon="2.0569813">
        <ele>145</ele>
        <time>2022-01-20T08:50:00Z</time>
      </trkpt>
      <trkpt lat="47.682793" lon="2.0569935">
        <ele>144</ele>
        <time>2022-01-20T08:50:01Z</time>
      </trkpt>
      <trkpt lat="47.682796" lon="2.0570073">
        <ele>144</ele>
        <time>2022-01-20T08:50:02Z</time>
      </trkpt>
      <trkpt lat="47.682804" lon="2.0570245">
        <ele>144</ele>
        <time>2022-01-20T08:50:03Z</time>
      </trkpt>
      <trkpt lat="47.682808" lon="2.0570426">
        <ele>144</ele>
        <time>2022-01-20T08:50:04Z</time>
      </trkpt>
      <trkpt lat="47.68281" lon="2.057064">
        <ele>144</ele>
        <time>2022-01-20T08:50:05Z</time>
      </trkpt>
      <trkpt lat="47.682816" lon="2.0570848">
        <ele>144</ele>
        <time>2022-01-20T08:50:06Z</time>
      </trkpt>
      <trkpt lat="47.682823" lon="2.0570974">
        <ele>144</ele>
        <time>2022-01-20T08:50:07Z</time>
      </trkpt>
      <trkpt lat="47.682827" lon="2.057108">
        <ele>144</ele>
        <time>2022-01-20T08:50:08Z</time>
      </trkpt>
      <trkpt lat="47.68283" lon="2.0571256">
        <ele>144</ele>
        <time>2022-01-20T08:50:09Z</time>
      </trkpt>
      <trkpt lat="47.682835" lon="2.0571408">
        <ele>143</ele>
        <time>2022-01-20T08:50:10Z</time>
      </trkpt>
      <trkpt lat="47.68284" lon="2.0571558">
        <ele>144</ele>
        <time>2022-01-20T08:50:11Z</time>
      </trkpt>
      <trkpt lat="47.682842" lon="2.0571685">
        <ele>144</ele>
        <time>2022-01-20T08:50:12Z</time>
      </trkpt>
      <trkpt lat="47.682846" lon="2.0571854">
        <ele>144</ele>
        <time>2022-01-20T08:50:13Z</time>
      </trkpt>
      <trkpt lat="47.68285" lon="2.0572038">
        <ele>144</ele>
        <time>2022-01-20T08:50:14Z</time>
      </trkpt>
      <trkpt lat="47.682854" lon="2.0572195">
        <ele>144</ele>
        <time>2022-01-20T08:50:15Z</time>
      </trkpt>
      <trkpt lat="47.682858" lon="2.0572371">
        <ele>145</ele>
        <time>2022-01-20T08:50:16Z</time>
      </trkpt>
      <trkpt lat="47.68286" lon="2.057255">
        <ele>145</ele>
        <time>2022-01-20T08:50:17Z</time>
      </trkpt>
      <trkpt lat="47.68287" lon="2.0572698">
        <ele>145</ele>
        <time>2022-01-20T08:50:18Z</time>
      </trkpt>
      <trkpt lat="47.68287" lon="2.0572894">
        <ele>145</ele>
        <time>2022-01-20T08:50:19Z</time>
      </trkpt>
      <trkpt lat="47.682873" lon="2.0573068">
        <ele>145</ele>
        <time>2022-01-20T08:50:20Z</time>
      </trkpt>
      <trkpt lat="47.682877" lon="2.0573263">
        <ele>145</ele>
        <time>2022-01-20T08:50:21Z</time>
      </trkpt>
      <trkpt lat="47.682884" lon="2.05734">
        <ele>145</ele>
        <time>2022-01-20T08:50:22Z</time>
      </trkpt>
      <trkpt lat="47.682888" lon="2.057357">
        <ele>146</ele>
        <time>2022-01-20T08:50:23Z</time>
      </trkpt>
      <trkpt lat="47.68289" lon="2.0573719">
        <ele>146</ele>
        <time>2022-01-20T08:50:24Z</time>
      </trkpt>
      <trkpt lat="47.6829" lon="2.0573857">
        <ele>146</ele>
        <time>2022-01-20T08:50:25Z</time>
      </trkpt>
      <trkpt lat="47.682903" lon="2.0574014">
        <ele>146</ele>
        <time>2022-01-20T08:50:26Z</time>
      </trkpt>
      <trkpt lat="47.68291" lon="2.0574179">
        <ele>145</ele>
        <time>2022-01-20T08:50:27Z</time>
      </trkpt>
      <trkpt lat="47.682915" lon="2.0574338">
        <ele>146</ele>
        <time>2022-01-20T08:50:28Z</time>
      </trkpt>
      <trkpt lat="47.682922" lon="2.0574489">
        <ele>146</ele>
        <time>2022-01-20T08:50:29Z</time>
      </trkpt>
      <trkpt lat="47.682926" lon="2.0574625">
        <ele>146</ele>
        <time>2022-01-20T08:50:30Z</time>
      </trkpt>
      <trkpt lat="47.68293" lon="2.0574737">
        <ele>146</ele>
        <time>2022-01-20T08:50:31Z</time>
      </trkpt>
      <trkpt lat="47.682934" lon="2.0574791">
        <ele>146</ele>
        <time>2022-01-20T08:50:32Z</time>
      </trkpt>
      <trkpt lat="47.682938" lon="2.0574892">
        <ele>146</ele>
        <time>2022-01-20T08:50:33Z</time>
      </trkpt>
      <trkpt lat="47.682945" lon="2.057499">
        <ele>145</ele>
        <time>2022-01-20T08:50:34Z</time>
      </trkpt>
      <trkpt lat="47.682953" lon="2.057514">
        <ele>145</ele>
        <time>2022-01-20T08:50:35Z</time>
      </trkpt>
      <trkpt lat="47.68296" lon="2.05753">
        <ele>145</ele>
        <time>2022-01-20T08:50:36Z</time>
      </trkpt>
      <trkpt lat="47.682964" lon="2.0575454">
        <ele>145</ele>
        <time>2022-01-20T08:50:37Z</time>
      </trkpt>
      <trkpt lat="47.682976" lon="2.0575576">
        <ele>145</ele>
        <time>2022-01-20T08:50:38Z</time>
      </trkpt>
      <trkpt lat="47.68298" lon="2.0575683">
        <ele>146</ele>
        <time>2022-01-20T08:50:39Z</time>
      </trkpt>
      <trkpt lat="47.682983" lon="2.0575807">
        <ele>146</ele>
        <time>2022-01-20T08:50:40Z</time>
      </trkpt>
      <trkpt lat="47.68299" lon="2.057597">
        <ele>146</ele>
        <time>2022-01-20T08:50:41Z</time>
      </trkpt>
      <trkpt lat="47.682995" lon="2.0576112">
        <ele>146</ele>
        <time>2022-01-20T08:50:42Z</time>
      </trkpt>
      <trkpt lat="47.683" lon="2.0576277">
        <ele>145</ele>
        <time>2022-01-20T08:50:43Z</time>
      </trkpt>
      <trkpt lat="47.683006" lon="2.0576465">
        <ele>145</ele>
        <time>2022-01-20T08:50:44Z</time>
      </trkpt>
      <trkpt lat="47.683018" lon="2.0576682">
        <ele>146</ele>
        <time>2022-01-20T08:50:45Z</time>
      </trkpt>
      <trkpt lat="47.683025" lon="2.0576897">
        <ele>146</ele>
        <time>2022-01-20T08:50:46Z</time>
      </trkpt>
      <trkpt lat="47.683033" lon="2.0577059">
        <ele>146</ele>
        <time>2022-01-20T08:50:47Z</time>
      </trkpt>
      <trkpt lat="47.683037" lon="2.0577197">
        <ele>147</ele>
        <time>2022-01-20T08:50:48Z</time>
      </trkpt>
      <trkpt lat="47.683044" lon="2.0577343">
        <ele>147</ele>
        <time>2022-01-20T08:50:49Z</time>
      </trkpt>
      <trkpt lat="47.683056" lon="2.057745">
        <ele>147</ele>
        <time>2022-01-20T08:50:50Z</time>
      </trkpt>
      <trkpt lat="47.683064" lon="2.057759">
        <ele>147</ele>
        <time>2022-01-20T08:50:51Z</time>
      </trkpt>
      <trkpt lat="47.683067" lon="2.0577788">
        <ele>146</ele>
        <time>2022-01-20T08:50:52Z</time>
      </trkpt>
      <trkpt lat="47.683075" lon="2.0577931">
        <ele>146</ele>
        <time>2022-01-20T08:50:53Z</time>
      </trkpt>
      <trkpt lat="47.68308" lon="2.0578077">
        <ele>146</ele>
        <time>2022-01-20T08:50:54Z</time>
      </trkpt>
      <trkpt lat="47.68308" lon="2.0578225">
        <ele>146</ele>
        <time>2022-01-20T08:50:55Z</time>
      </trkpt>
      <trkpt lat="47.683083" lon="2.0578344">
        <ele>146</ele>
        <time>2022-01-20T08:50:56Z</time>
      </trkpt>
      <trkpt lat="47.683086" lon="2.0578446">
        <ele>146</ele>
        <time>2022-01-20T08:50:57Z</time>
      </trkpt>
      <trkpt lat="47.683094" lon="2.0578547">
        <ele>147</ele>
        <time>2022-01-20T08:50:58Z</time>
      </trkpt>
      <trkpt lat="47.683098" lon="2.057871">
        <ele>147</ele>
        <time>2022-01-20T08:50:59Z</time>
      </trkpt>
      <trkpt lat="47.68311" lon="2.0578887">
        <ele>147</ele>
        <time>2022-01-20T08:51:00Z</time>
      </trkpt>
      <trkpt lat="47.683117" lon="2.0579028">
        <ele>147</ele>
        <time>2022-01-20T08:51:01Z</time>
      </trkpt>
      <trkpt lat="47.68312" lon="2.0579157">
        <ele>147</ele>
        <time>2022-01-20T08:51:02Z</time>
      </trkpt>
      <trkpt lat="47.68313" lon="2.057928">
        <ele>148</ele>
        <time>2022-01-20T08:51:03Z</time>
      </trkpt>
      <trkpt lat="47.683136" lon="2.0579388">
        <ele>148</ele>
        <time>2022-01-20T08:51:04Z</time>
      </trkpt>
      <trkpt lat="47.683147" lon="2.0579476">
        <ele>148</ele>
        <time>2022-01-20T08:51:05Z</time>
      </trkpt>
      <trkpt lat="47.68315" lon="2.0579543">
        <ele>148</ele>
        <time>2022-01-20T08:51:06Z</time>
      </trkpt>
      <trkpt lat="47.68316" lon="2.0579653">
        <ele>148</ele>
        <time>2022-01-20T08:51:07Z</time>
      </trkpt>
      <trkpt lat="47.68317" lon="2.0579839">
        <ele>148</ele>
        <time>2022-01-20T08:51:08Z</time>
      </trkpt>
      <trkpt lat="47.683178" lon="2.0580027">
        <ele>148</ele>
        <time>2022-01-20T08:51:09Z</time>
      </trkpt>
      <trkpt lat="47.683186" lon="2.0580163">
        <ele>148</ele>
        <time>2022-01-20T08:51:10Z</time>
      </trkpt>
      <trkpt lat="47.683197" lon="2.0580304">
        <ele>148</ele>
        <time>2022-01-20T08:51:11Z</time>
      </trkpt>
      <trkpt lat="47.6832" lon="2.0580447">
        <ele>147</ele>
        <time>2022-01-20T08:51:12Z</time>
      </trkpt>
      <trkpt lat="47.683212" lon="2.058059">
        <ele>147</ele>
        <time>2022-01-20T08:51:13Z</time>
      </trkpt>
      <trkpt lat="47.683216" lon="2.0580723">
        <ele>147</ele>
        <time>2022-01-20T08:51:14Z</time>
      </trkpt>
      <trkpt lat="47.683228" lon="2.0580864">
        <ele>147</ele>
        <time>2022-01-20T08:51:15Z</time>
      </trkpt>
      <trkpt lat="47.68324" lon="2.0581002">
        <ele>147</ele>
        <time>2022-01-20T08:51:16Z</time>
      </trkpt>
      <trkpt lat="47.683247" lon="2.0581124">
        <ele>147</ele>
        <time>2022-01-20T08:51:17Z</time>
      </trkpt>
      <trkpt lat="47.683254" lon="2.0581248">
        <ele>147</ele>
        <time>2022-01-20T08:51:18Z</time>
      </trkpt>
      <trkpt lat="47.683258" lon="2.0581393">
        <ele>147</ele>
        <time>2022-01-20T08:51:19Z</time>
      </trkpt>
      <trkpt lat="47.683266" lon="2.0581534">
        <ele>147</ele>
        <time>2022-01-20T08:51:20Z</time>
      </trkpt>
      <trkpt lat="47.683273" lon="2.0581713">
        <ele>147</ele>
        <time>2022-01-20T08:51:21Z</time>
      </trkpt>
      <trkpt lat="47.683285" lon="2.0581863">
        <ele>147</ele>
        <time>2022-01-20T08:51:22Z</time>
      </trkpt>
      <trkpt lat="47.683292" lon="2.0581987">
        <ele>147</ele>
        <time>2022-01-20T08:51:23Z</time>
      </trkpt>
      <trkpt lat="47.683296" lon="2.0582094">
        <ele>147</ele>
        <time>2022-01-20T08:51:24Z</time>
      </trkpt>
      <trkpt lat="47.683304" lon="2.0582228">
        <ele>147</ele>
        <time>2022-01-20T08:51:25Z</time>
      </trkpt>
      <trkpt lat="47.683308" lon="2.0582387">
        <ele>147</ele>
        <time>2022-01-20T08:51:26Z</time>
      </trkpt>
      <trkpt lat="47.68332" lon="2.0582519">
        <ele>147</ele>
        <time>2022-01-20T08:51:27Z</time>
      </trkpt>
      <trkpt lat="47.683323" lon="2.058265">
        <ele>147</ele>
        <time>2022-01-20T08:51:28Z</time>
      </trkpt>
      <trkpt lat="47.68333" lon="2.058276">
        <ele>147</ele>
        <time>2022-01-20T08:51:29Z</time>
      </trkpt>
      <trkpt lat="47.683334" lon="2.0582871">
        <ele>147</ele>
        <time>2022-01-20T08:51:30Z</time>
      </trkpt>
      <trkpt lat="47.683342" lon="2.0582976">
        <ele>147</ele>
        <time>2022-01-20T08:51:31Z</time>
      </trkpt>
      <trkpt lat="47.683353" lon="2.05831">
        <ele>146</ele>
        <time>2022-01-20T08:51:32Z</time>
      </trkpt>
      <trkpt lat="47.683365" lon="2.0583212">
        <ele>146</ele>
        <time>2022-01-20T08:51:33Z</time>
      </trkpt>
      <trkpt lat="47.683372" lon="2.0583327">
        <ele>146</ele>
        <time>2022-01-20T08:51:34Z</time>
      </trkpt>
      <trkpt lat="47.683384" lon="2.0583389">
        <ele>146</ele>
        <time>2022-01-20T08:51:35Z</time>
      </trkpt>
      <trkpt lat="47.683395" lon="2.0583491">
        <ele>146</ele>
        <time>2022-01-20T08:51:36Z</time>
      </trkpt>
      <trkpt lat="47.683403" lon="2.0583613">
        <ele>146</ele>
        <time>2022-01-20T08:51:37Z</time>
      </trkpt>
      <trkpt lat="47.68341" lon="2.0583708">
        <ele>146</ele>
        <time>2022-01-20T08:51:38Z</time>
      </trkpt>
      <trkpt lat="47.68342" lon="2.0583825">
        <ele>145</ele>
        <time>2022-01-20T08:51:39Z</time>
      </trkpt>
      <trkpt lat="47.683422" lon="2.058393">
        <ele>145</ele>
        <time>2022-01-20T08:51:40Z</time>
      </trkpt>
      <trkpt lat="47.683434" lon="2.0584033">
        <ele>145</ele>
        <time>2022-01-20T08:51:41Z</time>
      </trkpt>
      <trkpt lat="47.683445" lon="2.058409">
        <ele>146</ele>
        <time>2022-01-20T08:51:42Z</time>
      </trkpt>
      <trkpt lat="47.683453" lon="2.0584173">
        <ele>145</ele>
        <time>2022-01-20T08:51:43Z</time>
      </trkpt>
      <trkpt lat="47.68346" lon="2.0584283">
        <ele>145</ele>
        <time>2022-01-20T08:51:44Z</time>
      </trkpt>
      <trkpt lat="47.68347" lon="2.0584373">
        <ele>145</ele>
        <time>2022-01-20T08:51:45Z</time>
      </trkpt>
      <trkpt lat="47.683483" lon="2.0584517">
        <ele>144</ele>
        <time>2022-01-20T08:51:46Z</time>
      </trkpt>
      <trkpt lat="47.68349" lon="2.0584621">
        <ele>145</ele>
        <time>2022-01-20T08:51:47Z</time>
      </trkpt>
      <trkpt lat="47.6835" lon="2.0584745">
        <ele>145</ele>
        <time>2022-01-20T08:51:48Z</time>
      </trkpt>
      <trkpt lat="47.68351" lon="2.0584853">
        <ele>145</ele>
        <time>2022-01-20T08:51:49Z</time>
      </trkpt>
      <trkpt lat="47.683525" lon="2.0584946">
        <ele>145</ele>
        <time>2022-01-20T08:51:50Z</time>
      </trkpt>
      <trkpt lat="47.683537" lon="2.0585058">
        <ele>145</ele>
        <time>2022-01-20T08:51:51Z</time>
      </trkpt>
      <trkpt lat="47.683548" lon="2.0585175">
        <ele>146</ele>
        <time>2022-01-20T08:51:52Z</time>
      </trkpt>
      <trkpt lat="47.68356" lon="2.0585268">
        <ele>146</ele>
        <time>2022-01-20T08:51:53Z</time>
      </trkpt>
      <trkpt lat="47.68357" lon="2.058538">
        <ele>146</ele>
        <time>2022-01-20T08:51:54Z</time>
      </trkpt>
      <trkpt lat="47.68358" lon="2.0585465">
        <ele>146</ele>
        <time>2022-01-20T08:51:55Z</time>
      </trkpt>
      <trkpt lat="47.68359" lon="2.058556">
        <ele>146</ele>
        <time>2022-01-20T08:51:56Z</time>
      </trkpt>
      <trkpt lat="47.683598" lon="2.0585647">
        <ele>146</ele>
        <time>2022-01-20T08:51:57Z</time>
      </trkpt>
      <trkpt lat="47.683605" lon="2.0585773">
        <ele>146</ele>
        <time>2022-01-20T08:51:58Z</time>
      </trkpt>
      <trkpt lat="47.683617" lon="2.0585897">
        <ele>146</ele>
        <time>2022-01-20T08:51:59Z</time>
      </trkpt>
      <trkpt lat="47.683628" lon="2.0586016">
        <ele>146</ele>
        <time>2022-01-20T08:52:00Z</time>
      </trkpt>
      <trkpt lat="47.68364" lon="2.0586126">
        <ele>146</ele>
        <time>2022-01-20T08:52:01Z</time>
      </trkpt>
      <trkpt lat="47.683647" lon="2.0586236">
        <ele>146</ele>
        <time>2022-01-20T08:52:02Z</time>
      </trkpt>
      <trkpt lat="47.683655" lon="2.0586336">
        <ele>146</ele>
        <time>2022-01-20T08:52:03Z</time>
      </trkpt>
      <trkpt lat="47.683662" lon="2.0586433">
        <ele>146</ele>
        <time>2022-01-20T08:52:04Z</time>
      </trkpt>
      <trkpt lat="47.68367" lon="2.0586581">
        <ele>146</ele>
        <time>2022-01-20T08:52:05Z</time>
      </trkpt>
      <trkpt lat="47.683678" lon="2.0586703">
        <ele>147</ele>
        <time>2022-01-20T08:52:06Z</time>
      </trkpt>
      <trkpt lat="47.683685" lon="2.0586846">
        <ele>147</ele>
        <time>2022-01-20T08:52:07Z</time>
      </trkpt>
      <trkpt lat="47.683697" lon="2.0586987">
        <ele>147</ele>
        <time>2022-01-20T08:52:08Z</time>
      </trkpt>
      <trkpt lat="47.68371" lon="2.0587118">
        <ele>147</ele>
        <time>2022-01-20T08:52:09Z</time>
      </trkpt>
      <trkpt lat="47.68372" lon="2.058722">
        <ele>147</ele>
        <time>2022-01-20T08:52:10Z</time>
      </trkpt>
      <trkpt lat="47.683727" lon="2.0587342">
        <ele>148</ele>
        <time>2022-01-20T08:52:11Z</time>
      </trkpt>
      <trkpt lat="47.683735" lon="2.058744">
        <ele>148</ele>
        <time>2022-01-20T08:52:12Z</time>
      </trkpt>
      <trkpt lat="47.683743" lon="2.0587554">
        <ele>149</ele>
        <time>2022-01-20T08:52:13Z</time>
      </trkpt>
      <trkpt lat="47.68375" lon="2.0587623">
        <ele>149</ele>
        <time>2022-01-20T08:52:14Z</time>
      </trkpt>
      <trkpt lat="47.683758" lon="2.0587773">
        <ele>149</ele>
        <time>2022-01-20T08:52:15Z</time>
      </trkpt>
      <trkpt lat="47.68376" lon="2.0587895">
        <ele>149</ele>
        <time>2022-01-20T08:52:16Z</time>
      </trkpt>
      <trkpt lat="47.68377" lon="2.0588012">
        <ele>149</ele>
        <time>2022-01-20T08:52:17Z</time>
      </trkpt>
      <trkpt lat="47.68377" lon="2.058813">
        <ele>148</ele>
        <time>2022-01-20T08:52:18Z</time>
      </trkpt>
      <trkpt lat="47.683773" lon="2.058826">
        <ele>148</ele>
        <time>2022-01-20T08:52:19Z</time>
      </trkpt>
      <trkpt lat="47.68378" lon="2.0588434">
        <ele>148</ele>
        <time>2022-01-20T08:52:20Z</time>
      </trkpt>
      <trkpt lat="47.68379" lon="2.0588603">
        <ele>148</ele>
        <time>2022-01-20T08:52:21Z</time>
      </trkpt>
      <trkpt lat="47.6838" lon="2.0588737">
        <ele>149</ele>
        <time>2022-01-20T08:52:22Z</time>
      </trkpt>
      <trkpt lat="47.68381" lon="2.0588853">
        <ele>149</ele>
        <time>2022-01-20T08:52:23Z</time>
      </trkpt>
      <trkpt lat="47.68382" lon="2.0588965">
        <ele>148</ele>
        <time>2022-01-20T08:52:24Z</time>
      </trkpt>
      <trkpt lat="47.683823" lon="2.0589113">
        <ele>148</ele>
        <time>2022-01-20T08:52:25Z</time>
      </trkpt>
      <trkpt lat="47.68382" lon="2.058922">
        <ele>148</ele>
        <time>2022-01-20T08:52:26Z</time>
      </trkpt>
      <trkpt lat="47.683823" lon="2.0589292">
        <ele>148</ele>
        <time>2022-01-20T08:52:27Z</time>
      </trkpt>
      <trkpt lat="47.68383" lon="2.0589356">
        <ele>148</ele>
        <time>2022-01-20T08:52:28Z</time>
      </trkpt>
      <trkpt lat="47.683834" lon="2.058945">
        <ele>147</ele>
        <time>2022-01-20T08:52:29Z</time>
      </trkpt>
      <trkpt lat="47.683834" lon="2.0589585">
        <ele>148</ele>
        <time>2022-01-20T08:52:30Z</time>
      </trkpt>
      <trkpt lat="47.683838" lon="2.0589757">
        <ele>148</ele>
        <time>2022-01-20T08:52:31Z</time>
      </trkpt>
      <trkpt lat="47.683846" lon="2.0589948">
        <ele>147</ele>
        <time>2022-01-20T08:52:32Z</time>
      </trkpt>
      <trkpt lat="47.68385" lon="2.0590086">
        <ele>148</ele>
        <time>2022-01-20T08:52:33Z</time>
      </trkpt>
      <trkpt lat="47.683853" lon="2.0590212">
        <ele>148</ele>
        <time>2022-01-20T08:52:34Z</time>
      </trkpt>
      <trkpt lat="47.683857" lon="2.059033">
        <ele>149</ele>
        <time>2022-01-20T08:52:35Z</time>
      </trkpt>
      <trkpt lat="47.683857" lon="2.0590396">
        <ele>149</ele>
        <time>2022-01-20T08:52:36Z</time>
      </trkpt>
      <trkpt lat="47.683857" lon="2.0590308">
        <ele>148</ele>
        <time>2022-01-20T08:52:37Z</time>
      </trkpt>
      <trkpt lat="47.683857" lon="2.059029">
        <ele>148</ele>
        <time>2022-01-20T08:52:38Z</time>
      </trkpt>
      <trkpt lat="47.683857" lon="2.0590336">
        <ele>148</ele>
        <time>2022-01-20T08:52:39Z</time>
      </trkpt>
      <trkpt lat="47.68386" lon="2.059043">
        <ele>148</ele>
        <time>2022-01-20T08:52:40Z</time>
      </trkpt>
      <trkpt lat="47.68387" lon="2.0590556">
        <ele>148</ele>
        <time>2022-01-20T08:52:41Z</time>
      </trkpt>
      <trkpt lat="47.683872" lon="2.059075">
        <ele>148</ele>
        <time>2022-01-20T08:52:42Z</time>
      </trkpt>
      <trkpt lat="47.683872" lon="2.0590916">
        <ele>148</ele>
        <time>2022-01-20T08:52:43Z</time>
      </trkpt>
      <trkpt lat="47.68388" lon="2.059105">
        <ele>149</ele>
        <time>2022-01-20T08:52:44Z</time>
      </trkpt>
      <trkpt lat="47.683887" lon="2.0591173">
        <ele>149</ele>
        <time>2022-01-20T08:52:45Z</time>
      </trkpt>
      <trkpt lat="47.68389" lon="2.0591328">
        <ele>149</ele>
        <time>2022-01-20T08:52:46Z</time>
      </trkpt>
      <trkpt lat="47.68389" lon="2.0591478">
        <ele>150</ele>
        <time>2022-01-20T08:52:47Z</time>
      </trkpt>
      <trkpt lat="47.683895" lon="2.059165">
        <ele>151</ele>
        <time>2022-01-20T08:52:48Z</time>
      </trkpt>
      <trkpt lat="47.6839" lon="2.0591793">
        <ele>151</ele>
        <time>2022-01-20T08:52:49Z</time>
      </trkpt>
      <trkpt lat="47.683903" lon="2.0591946">
        <ele>151</ele>
        <time>2022-01-20T08:52:50Z</time>
      </trkpt>
      <trkpt lat="47.68391" lon="2.0592132">
        <ele>151</ele>
        <time>2022-01-20T08:52:51Z</time>
      </trkpt>
      <trkpt lat="47.683914" lon="2.0592294">
        <ele>151</ele>
        <time>2022-01-20T08:52:52Z</time>
      </trkpt>
      <trkpt lat="47.683918" lon="2.0592465">
        <ele>151</ele>
        <time>2022-01-20T08:52:53Z</time>
      </trkpt>
      <trkpt lat="47.68392" lon="2.0592623">
        <ele>151</ele>
        <time>2022-01-20T08:52:54Z</time>
      </trkpt>
      <trkpt lat="47.683926" lon="2.059279">
        <ele>151</ele>
        <time>2022-01-20T08:52:55Z</time>
      </trkpt>
      <trkpt lat="47.68393" lon="2.0592964">
        <ele>152</ele>
        <time>2022-01-20T08:52:56Z</time>
      </trkpt>
      <trkpt lat="47.683933" lon="2.059314">
        <ele>152</ele>
        <time>2022-01-20T08:52:57Z</time>
      </trkpt>
      <trkpt lat="47.683937" lon="2.059334">
        <ele>152</ele>
        <time>2022-01-20T08:52:58Z</time>
      </trkpt>
      <trkpt lat="47.683937" lon="2.0593503">
        <ele>153</ele>
        <time>2022-01-20T08:52:59Z</time>
      </trkpt>
      <trkpt lat="47.68394" lon="2.059367">
        <ele>154</ele>
        <time>2022-01-20T08:53:00Z</time>
      </trkpt>
      <trkpt lat="47.683945" lon="2.0593822">
        <ele>153</ele>
        <time>2022-01-20T08:53:01Z</time>
      </trkpt>
      <trkpt lat="47.683945" lon="2.0593963">
        <ele>154</ele>
        <time>2022-01-20T08:53:02Z</time>
      </trkpt>
      <trkpt lat="47.683945" lon="2.0594087">
        <ele>154</ele>
        <time>2022-01-20T08:53:03Z</time>
      </trkpt>
      <trkpt lat="47.68395" lon="2.059422">
        <ele>154</ele>
        <time>2022-01-20T08:53:04Z</time>
      </trkpt>
      <trkpt lat="47.68395" lon="2.059439">
        <ele>153</ele>
        <time>2022-01-20T08:53:05Z</time>
      </trkpt>
      <trkpt lat="47.683945" lon="2.0594566">
        <ele>154</ele>
        <time>2022-01-20T08:53:06Z</time>
      </trkpt>
      <trkpt lat="47.683945" lon="2.0594752">
        <ele>153</ele>
        <time>2022-01-20T08:53:07Z</time>
      </trkpt>
      <trkpt lat="47.683945" lon="2.0594912">
        <ele>153</ele>
        <time>2022-01-20T08:53:08Z</time>
      </trkpt>
      <trkpt lat="47.68395" lon="2.0595098">
        <ele>153</ele>
        <time>2022-01-20T08:53:09Z</time>
      </trkpt>
      <trkpt lat="47.683945" lon="2.0595307">
        <ele>153</ele>
        <time>2022-01-20T08:53:10Z</time>
      </trkpt>
      <trkpt lat="47.683945" lon="2.059549">
        <ele>153</ele>
        <time>2022-01-20T08:53:11Z</time>
      </trkpt>
      <trkpt lat="47.68394" lon="2.0595634">
        <ele>154</ele>
        <time>2022-01-20T08:53:12Z</time>
      </trkpt>
      <trkpt lat="47.683937" lon="2.0595806">
        <ele>153</ele>
        <time>2022-01-20T08:53:13Z</time>
      </trkpt>
      <trkpt lat="47.68393" lon="2.0596004">
        <ele>153</ele>
        <time>2022-01-20T08:53:14Z</time>
      </trkpt>
      <trkpt lat="47.68392" lon="2.059618">
        <ele>153</ele>
        <time>2022-01-20T08:53:15Z</time>
      </trkpt>
      <trkpt lat="47.683918" lon="2.0596342">
        <ele>154</ele>
        <time>2022-01-20T08:53:16Z</time>
      </trkpt>
      <trkpt lat="47.68391" lon="2.0596514">
        <ele>153</ele>
        <time>2022-01-20T08:53:17Z</time>
      </trkpt>
      <trkpt lat="47.683903" lon="2.0596683">
        <ele>153</ele>
        <time>2022-01-20T08:53:18Z</time>
      </trkpt>
      <trkpt lat="47.6839" lon="2.05968">
        <ele>153</ele>
        <time>2022-01-20T08:53:19Z</time>
      </trkpt>
      <trkpt lat="47.68389" lon="2.0596893">
        <ele>153</ele>
        <time>2022-01-20T08:53:20Z</time>
      </trkpt>
      <trkpt lat="47.683884" lon="2.059696">
        <ele>153</ele>
        <time>2022-01-20T08:53:21Z</time>
      </trkpt>
      <trkpt lat="47.683872" lon="2.0596983">
        <ele>153</ele>
        <time>2022-01-20T08:53:22Z</time>
      </trkpt>
      <trkpt lat="47.683865" lon="2.059695">
        <ele>153</ele>
        <time>2022-01-20T08:53:23Z</time>
      </trkpt>
      <trkpt lat="47.683857" lon="2.0596952">
        <ele>153</ele>
        <time>2022-01-20T08:53:24Z</time>
      </trkpt>
      <trkpt lat="47.683857" lon="2.0596962">
        <ele>153</ele>
        <time>2022-01-20T08:53:25Z</time>
      </trkpt>
      <trkpt lat="47.683857" lon="2.059701">
        <ele>153</ele>
        <time>2022-01-20T08:53:26Z</time>
      </trkpt>
      <trkpt lat="47.683853" lon="2.059704">
        <ele>152</ele>
        <time>2022-01-20T08:53:27Z</time>
      </trkpt>
      <trkpt lat="47.68385" lon="2.0597148">
        <ele>152</ele>
        <time>2022-01-20T08:53:28Z</time>
      </trkpt>
      <trkpt lat="47.68384" lon="2.0597324">
        <ele>152</ele>
        <time>2022-01-20T08:53:29Z</time>
      </trkpt>
      <trkpt lat="47.683838" lon="2.0597372">
        <ele>152</ele>
        <time>2022-01-20T08:53:30Z</time>
      </trkpt>
      <trkpt lat="47.683838" lon="2.059737">
        <ele>152</ele>
        <time>2022-01-20T08:53:31Z</time>
      </trkpt>
      <trkpt lat="47.683838" lon="2.0597396">
        <ele>151</ele>
        <time>2022-01-20T08:53:32Z</time>
      </trkpt>
      <trkpt lat="47.68384" lon="2.0597417">
        <ele>151</ele>
        <time>2022-01-20T08:53:33Z</time>
      </trkpt>
      <trkpt lat="47.68384" lon="2.0597417">
        <ele>151</ele>
        <time>2022-01-20T08:53:34Z</time>
      </trkpt>
      <trkpt lat="47.68384" lon="2.0597417">
        <ele>151</ele>
        <time>2022-01-20T08:53:35Z</time>
      </trkpt>
      <trkpt lat="47.68383" lon="2.0597432">
        <ele>152</ele>
        <time>2022-01-20T08:53:36Z</time>
      </trkpt>
      <trkpt lat="47.68382" lon="2.0597482">
        <ele>152</ele>
        <time>2022-01-20T08:53:37Z</time>
      </trkpt>
      <trkpt lat="47.683815" lon="2.0597482">
        <ele>152</ele>
        <time>2022-01-20T08:53:38Z</time>
      </trkpt>
      <trkpt lat="47.683807" lon="2.0597486">
        <ele>152</ele>
        <time>2022-01-20T08:53:39Z</time>
      </trkpt>
      <trkpt lat="47.683804" lon="2.0597525">
        <ele>152</ele>
        <time>2022-01-20T08:53:40Z</time>
      </trkpt>
      <trkpt lat="47.6838" lon="2.0597568">
        <ele>152</ele>
        <time>2022-01-20T08:53:41Z</time>
      </trkpt>
      <trkpt lat="47.683796" lon="2.059755">
        <ele>152</ele>
        <time>2022-01-20T08:53:42Z</time>
      </trkpt>
      <trkpt lat="47.683796" lon="2.059755">
        <ele>152</ele>
        <time>2022-01-20T08:53:43Z</time>
      </trkpt>
      <trkpt lat="47.683796" lon="2.059755">
        <ele>152</ele>
        <time>2022-01-20T08:53:44Z</time>
      </trkpt>
      <trkpt lat="47.683777" lon="2.0597591">
        <ele>152</ele>
        <time>2022-01-20T08:53:45Z</time>
      </trkpt>
      <trkpt lat="47.68377" lon="2.059762">
        <ele>151</ele>
        <time>2022-01-20T08:53:46Z</time>
      </trkpt>
      <trkpt lat="47.68376" lon="2.059764">
        <ele>151</ele>
        <time>2022-01-20T08:53:47Z</time>
      </trkpt>
      <trkpt lat="47.68375" lon="2.0597677">
        <ele>151</ele>
        <time>2022-01-20T08:53:48Z</time>
      </trkpt>
      <trkpt lat="47.683743" lon="2.0597656">
        <ele>151</ele>
        <time>2022-01-20T08:53:49Z</time>
      </trkpt>
      <trkpt lat="47.683735" lon="2.0597622">
        <ele>151</ele>
        <time>2022-01-20T08:53:50Z</time>
      </trkpt>
      <trkpt lat="47.68373" lon="2.0597687">
        <ele>151</ele>
        <time>2022-01-20T08:53:51Z</time>
      </trkpt>
      <trkpt lat="47.683723" lon="2.0597713">
        <ele>150</ele>
        <time>2022-01-20T08:53:52Z</time>
      </trkpt>
      <trkpt lat="47.683723" lon="2.0597713">
        <ele>150</ele>
        <time>2022-01-20T08:53:53Z</time>
      </trkpt>
      <trkpt lat="47.683704" lon="2.0597737">
        <ele>150</ele>
        <time>2022-01-20T08:53:54Z</time>
      </trkpt>
      <trkpt lat="47.683693" lon="2.0597723">
        <ele>150</ele>
        <time>2022-01-20T08:53:55Z</time>
      </trkpt>
      <trkpt lat="47.68368" lon="2.0597723">
        <ele>151</ele>
        <time>2022-01-20T08:53:56Z</time>
      </trkpt>
      <trkpt lat="47.683674" lon="2.0597768">
        <ele>151</ele>
        <time>2022-01-20T08:53:57Z</time>
      </trkpt>
      <trkpt lat="47.68367" lon="2.0597792">
        <ele>151</ele>
        <time>2022-01-20T08:53:58Z</time>
      </trkpt>
      <trkpt lat="47.683666" lon="2.0597794">
        <ele>151</ele>
        <time>2022-01-20T08:53:59Z</time>
      </trkpt>
      <trkpt lat="47.68366" lon="2.0597782">
        <ele>151</ele>
        <time>2022-01-20T08:54:00Z</time>
      </trkpt>
      <trkpt lat="47.68366" lon="2.0597782">
        <ele>151</ele>
        <time>2022-01-20T08:54:01Z</time>
      </trkpt>
      <trkpt lat="47.68366" lon="2.0597782">
        <ele>151</ele>
        <time>2022-01-20T08:54:02Z</time>
      </trkpt>
      <trkpt lat="47.683636" lon="2.0597746">
        <ele>151</ele>
        <time>2022-01-20T08:54:03Z</time>
      </trkpt>
      <trkpt lat="47.683628" lon="2.0597801">
        <ele>151</ele>
        <time>2022-01-20T08:54:04Z</time>
      </trkpt>
      <trkpt lat="47.683617" lon="2.0597806">
        <ele>151</ele>
        <time>2022-01-20T08:54:05Z</time>
      </trkpt>
      <trkpt lat="47.683605" lon="2.059784">
        <ele>151</ele>
        <time>2022-01-20T08:54:06Z</time>
      </trkpt>
      <trkpt lat="47.683594" lon="2.059789">
        <ele>151</ele>
        <time>2022-01-20T08:54:07Z</time>
      </trkpt>
      <trkpt lat="47.683586" lon="2.0597863">
        <ele>151</ele>
        <time>2022-01-20T08:54:08Z</time>
      </trkpt>
      <trkpt lat="47.683575" lon="2.0597854">
        <ele>151</ele>
        <time>2022-01-20T08:54:09Z</time>
      </trkpt>
      <trkpt lat="47.683563" lon="2.0597873">
        <ele>151</ele>
        <time>2022-01-20T08:54:10Z</time>
      </trkpt>
      <trkpt lat="47.68355" lon="2.0597858">
        <ele>151</ele>
        <time>2022-01-20T08:54:11Z</time>
      </trkpt>
      <trkpt lat="47.683544" lon="2.0597866">
        <ele>151</ele>
        <time>2022-01-20T08:54:12Z</time>
      </trkpt>
      <trkpt lat="47.683537" lon="2.059789">
        <ele>151</ele>
        <time>2022-01-20T08:54:13Z</time>
      </trkpt>
      <trkpt lat="47.683525" lon="2.0597897">
        <ele>151</ele>
        <time>2022-01-20T08:54:14Z</time>
      </trkpt>
      <trkpt lat="47.68351" lon="2.0597968">
        <ele>151</ele>
        <time>2022-01-20T08:54:15Z</time>
      </trkpt>
      <trkpt lat="47.6835" lon="2.059805">
        <ele>151</ele>
        <time>2022-01-20T08:54:16Z</time>
      </trkpt>
      <trkpt lat="47.683487" lon="2.0598085">
        <ele>150</ele>
        <time>2022-01-20T08:54:17Z</time>
      </trkpt>
      <trkpt lat="47.683475" lon="2.0598147">
        <ele>150</ele>
        <time>2022-01-20T08:54:18Z</time>
      </trkpt>
      <trkpt lat="47.683464" lon="2.059817">
        <ele>150</ele>
        <time>2022-01-20T08:54:19Z</time>
      </trkpt>
      <trkpt lat="47.683456" lon="2.05982">
        <ele>150</ele>
        <time>2022-01-20T08:54:20Z</time>
      </trkpt>
      <trkpt lat="47.683445" lon="2.0598178">
        <ele>150</ele>
        <time>2022-01-20T08:54:21Z</time>
      </trkpt>
      <trkpt lat="47.683437" lon="2.0598156">
        <ele>150</ele>
        <time>2022-01-20T08:54:22Z</time>
      </trkpt>
      <trkpt lat="47.683426" lon="2.0598187">
        <ele>149</ele>
        <time>2022-01-20T08:54:23Z</time>
      </trkpt>
      <trkpt lat="47.683414" lon="2.0598187">
        <ele>150</ele>
        <time>2022-01-20T08:54:24Z</time>
      </trkpt>
      <trkpt lat="47.683407" lon="2.0598176">
        <ele>150</ele>
        <time>2022-01-20T08:54:25Z</time>
      </trkpt>
      <trkpt lat="47.683395" lon="2.0598152">
        <ele>150</ele>
        <time>2022-01-20T08:54:26Z</time>
      </trkpt>
      <trkpt lat="47.683388" lon="2.0598214">
        <ele>150</ele>
        <time>2022-01-20T08:54:27Z</time>
      </trkpt>
      <trkpt lat="47.68338" lon="2.059824">
        <ele>150</ele>
        <time>2022-01-20T08:54:28Z</time>
      </trkpt>
      <trkpt lat="47.68337" lon="2.059829">
        <ele>150</ele>
        <time>2022-01-20T08:54:29Z</time>
      </trkpt>
      <trkpt lat="47.68336" lon="2.0598326">
        <ele>150</ele>
        <time>2022-01-20T08:54:30Z</time>
      </trkpt>
      <trkpt lat="47.68336" lon="2.0598326">
        <ele>150</ele>
        <time>2022-01-20T08:54:31Z</time>
      </trkpt>
      <trkpt lat="47.683342" lon="2.0598395">
        <ele>150</ele>
        <time>2022-01-20T08:54:32Z</time>
      </trkpt>
      <trkpt lat="47.68333" lon="2.0598457">
        <ele>149</ele>
        <time>2022-01-20T08:54:33Z</time>
      </trkpt>
      <trkpt lat="47.68332" lon="2.0598524">
        <ele>149</ele>
        <time>2022-01-20T08:54:34Z</time>
      </trkpt>
      <trkpt lat="47.68331" lon="2.0598614">
        <ele>149</ele>
        <time>2022-01-20T08:54:35Z</time>
      </trkpt>
      <trkpt lat="47.683304" lon="2.059877">
        <ele>148</ele>
        <time>2022-01-20T08:54:36Z</time>
      </trkpt>
      <trkpt lat="47.683292" lon="2.059896">
        <ele>148</ele>
        <time>2022-01-20T08:54:37Z</time>
      </trkpt>
      <trkpt lat="47.683285" lon="2.0599105">
        <ele>147</ele>
        <time>2022-01-20T08:54:38Z</time>
      </trkpt>
      <trkpt lat="47.68328" lon="2.0599196">
        <ele>147</ele>
        <time>2022-01-20T08:54:39Z</time>
      </trkpt>
      <trkpt lat="47.683273" lon="2.0599322">
        <ele>148</ele>
        <time>2022-01-20T08:54:40Z</time>
      </trkpt>
      <trkpt lat="47.68326" lon="2.059946">
        <ele>147</ele>
        <time>2022-01-20T08:54:41Z</time>
      </trkpt>
      <trkpt lat="47.683254" lon="2.0599644">
        <ele>147</ele>
        <time>2022-01-20T08:54:42Z</time>
      </trkpt>
      <trkpt lat="47.683247" lon="2.0599742">
        <ele>147</ele>
        <time>2022-01-20T08:54:43Z</time>
      </trkpt>
      <trkpt lat="47.68324" lon="2.0599918">
        <ele>147</ele>
        <time>2022-01-20T08:54:44Z</time>
      </trkpt>
      <trkpt lat="47.68323" lon="2.0600088">
        <ele>147</ele>
        <time>2022-01-20T08:54:45Z</time>
      </trkpt>
      <trkpt lat="47.68322" lon="2.0600288">
        <ele>147</ele>
        <time>2022-01-20T08:54:46Z</time>
      </trkpt>
      <trkpt lat="47.68321" lon="2.060038">
        <ele>146</ele>
        <time>2022-01-20T08:54:47Z</time>
      </trkpt>
      <trkpt lat="47.683197" lon="2.0600507">
        <ele>147</ele>
        <time>2022-01-20T08:54:48Z</time>
      </trkpt>
      <trkpt lat="47.683186" lon="2.0600579">
        <ele>146</ele>
        <time>2022-01-20T08:54:49Z</time>
      </trkpt>
      <trkpt lat="47.683178" lon="2.0600634">
        <ele>146</ele>
        <time>2022-01-20T08:54:50Z</time>
      </trkpt>
      <trkpt lat="47.68317" lon="2.060075">
        <ele>146</ele>
        <time>2022-01-20T08:54:51Z</time>
      </trkpt>
      <trkpt lat="47.683163" lon="2.060086">
        <ele>146</ele>
        <time>2022-01-20T08:54:52Z</time>
      </trkpt>
      <trkpt lat="47.68315" lon="2.060098">
        <ele>145</ele>
        <time>2022-01-20T08:54:53Z</time>
      </trkpt>
      <trkpt lat="47.683144" lon="2.0601053">
        <ele>145</ele>
        <time>2022-01-20T08:54:54Z</time>
      </trkpt>
      <trkpt lat="47.68314" lon="2.0601132">
        <ele>145</ele>
        <time>2022-01-20T08:54:55Z</time>
      </trkpt>
      <trkpt lat="47.683136" lon="2.060121">
        <ele>145</ele>
        <time>2022-01-20T08:54:56Z</time>
      </trkpt>
      <trkpt lat="47.68313" lon="2.0601294">
        <ele>145</ele>
        <time>2022-01-20T08:54:57Z</time>
      </trkpt>
      <trkpt lat="47.683125" lon="2.060141">
        <ele>144</ele>
        <time>2022-01-20T08:54:58Z</time>
      </trkpt>
      <trkpt lat="47.683117" lon="2.0601494">
        <ele>144</ele>
        <time>2022-01-20T08:54:59Z</time>
      </trkpt>
      <trkpt lat="47.68311" lon="2.060151">
        <ele>144</ele>
        <time>2022-01-20T08:55:00Z</time>
      </trkpt>
      <trkpt lat="47.6831" lon="2.0601635">
        <ele>144</ele>
        <time>2022-01-20T08:55:01Z</time>
      </trkpt>
      <trkpt lat="47.683098" lon="2.0601811">
        <ele>143</ele>
        <time>2022-01-20T08:55:02Z</time>
      </trkpt>
      <trkpt lat="47.683098" lon="2.0602016">
        <ele>143</ele>
        <time>2022-01-20T08:55:03Z</time>
      </trkpt>
      <trkpt lat="47.683094" lon="2.0602205">
        <ele>143</ele>
        <time>2022-01-20T08:55:04Z</time>
      </trkpt>
      <trkpt lat="47.683086" lon="2.0602388">
        <ele>143</ele>
        <time>2022-01-20T08:55:05Z</time>
      </trkpt>
      <trkpt lat="47.68308" lon="2.0602524">
        <ele>143</ele>
        <time>2022-01-20T08:55:06Z</time>
      </trkpt>
      <trkpt lat="47.683075" lon="2.0602598">
        <ele>143</ele>
        <time>2022-01-20T08:55:07Z</time>
      </trkpt>
      <trkpt lat="47.68307" lon="2.0602689">
        <ele>143</ele>
        <time>2022-01-20T08:55:08Z</time>
      </trkpt>
      <trkpt lat="47.683067" lon="2.0602803">
        <ele>143</ele>
        <time>2022-01-20T08:55:09Z</time>
      </trkpt>
      <trkpt lat="47.683067" lon="2.060296">
        <ele>143</ele>
        <time>2022-01-20T08:55:10Z</time>
      </trkpt>
      <trkpt lat="47.683064" lon="2.0603082">
        <ele>143</ele>
        <time>2022-01-20T08:55:11Z</time>
      </trkpt>
      <trkpt lat="47.683064" lon="2.0603082">
        <ele>143</ele>
        <time>2022-01-20T08:55:12Z</time>
      </trkpt>
      <trkpt lat="47.683064" lon="2.0603082">
        <ele>143</ele>
        <time>2022-01-20T08:55:13Z</time>
      </trkpt>
      <trkpt lat="47.68305" lon="2.0603535">
        <ele>143</ele>
        <time>2022-01-20T08:55:14Z</time>
      </trkpt>
      <trkpt lat="47.68304" lon="2.060367">
        <ele>143</ele>
        <time>2022-01-20T08:55:15Z</time>
      </trkpt>
      <trkpt lat="47.68303" lon="2.0603812">
        <ele>143</ele>
        <time>2022-01-20T08:55:16Z</time>
      </trkpt>
      <trkpt lat="47.683018" lon="2.0604005">
        <ele>143</ele>
        <time>2022-01-20T08:55:17Z</time>
      </trkpt>
      <trkpt lat="47.683006" lon="2.0604188">
        <ele>143</ele>
        <time>2022-01-20T08:55:18Z</time>
      </trkpt>
      <trkpt lat="47.683002" lon="2.0604305">
        <ele>142</ele>
        <time>2022-01-20T08:55:19Z</time>
      </trkpt>
      <trkpt lat="47.683" lon="2.0604477">
        <ele>143</ele>
        <time>2022-01-20T08:55:20Z</time>
      </trkpt>
      <trkpt lat="47.682995" lon="2.0604603">
        <ele>143</ele>
        <time>2022-01-20T08:55:21Z</time>
      </trkpt>
      <trkpt lat="47.682995" lon="2.0604787">
        <ele>143</ele>
        <time>2022-01-20T08:55:22Z</time>
      </trkpt>
      <trkpt lat="47.68299" lon="2.0604942">
        <ele>143</ele>
        <time>2022-01-20T08:55:23Z</time>
      </trkpt>
      <trkpt lat="47.682987" lon="2.0605075">
        <ele>143</ele>
        <time>2022-01-20T08:55:24Z</time>
      </trkpt>
      <trkpt lat="47.682983" lon="2.0605276">
        <ele>144</ele>
        <time>2022-01-20T08:55:25Z</time>
      </trkpt>
      <trkpt lat="47.68298" lon="2.0605495">
        <ele>144</ele>
        <time>2022-01-20T08:55:26Z</time>
      </trkpt>
      <trkpt lat="47.68298" lon="2.0605729">
        <ele>144</ele>
        <time>2022-01-20T08:55:27Z</time>
      </trkpt>
      <trkpt lat="47.68298" lon="2.0605931">
        <ele>145</ele>
        <time>2022-01-20T08:55:28Z</time>
      </trkpt>
      <trkpt lat="47.68298" lon="2.060609">
        <ele>145</ele>
        <time>2022-01-20T08:55:29Z</time>
      </trkpt>
      <trkpt lat="47.682972" lon="2.0606244">
        <ele>146</ele>
        <time>2022-01-20T08:55:30Z</time>
      </trkpt>
      <trkpt lat="47.68297" lon="2.0606422">
        <ele>146</ele>
        <time>2022-01-20T08:55:31Z</time>
      </trkpt>
      <trkpt lat="47.682964" lon="2.0606582">
        <ele>147</ele>
        <time>2022-01-20T08:55:32Z</time>
      </trkpt>
      <trkpt lat="47.682964" lon="2.060673">
        <ele>147</ele>
        <time>2022-01-20T08:55:33Z</time>
      </trkpt>
      <trkpt lat="47.68296" lon="2.0606904">
        <ele>147</ele>
        <time>2022-01-20T08:55:34Z</time>
      </trkpt>
      <trkpt lat="47.682957" lon="2.0607028">
        <ele>148</ele>
        <time>2022-01-20T08:55:35Z</time>
      </trkpt>
      <trkpt lat="47.682953" lon="2.0607176">
        <ele>148</ele>
        <time>2022-01-20T08:55:36Z</time>
      </trkpt>
      <trkpt lat="47.68295" lon="2.060738">
        <ele>148</ele>
        <time>2022-01-20T08:55:37Z</time>
      </trkpt>
      <trkpt lat="47.68295" lon="2.0607562">
        <ele>148</ele>
        <time>2022-01-20T08:55:38Z</time>
      </trkpt>
      <trkpt lat="47.68295" lon="2.060773">
        <ele>149</ele>
        <time>2022-01-20T08:55:39Z</time>
      </trkpt>
      <trkpt lat="47.682945" lon="2.060793">
        <ele>150</ele>
        <time>2022-01-20T08:55:40Z</time>
      </trkpt>
      <trkpt lat="47.682945" lon="2.060813">
        <ele>150</ele>
        <time>2022-01-20T08:55:41Z</time>
      </trkpt>
      <trkpt lat="47.682945" lon="2.0608318">
        <ele>150</ele>
        <time>2022-01-20T08:55:42Z</time>
      </trkpt>
      <trkpt lat="47.68294" lon="2.0608518">
        <ele>151</ele>
        <time>2022-01-20T08:55:43Z</time>
      </trkpt>
      <trkpt lat="47.682938" lon="2.0608754">
        <ele>151</ele>
        <time>2022-01-20T08:55:44Z</time>
      </trkpt>
      <trkpt lat="47.682938" lon="2.0608957">
        <ele>151</ele>
        <time>2022-01-20T08:55:45Z</time>
      </trkpt>
      <trkpt lat="47.682938" lon="2.0609155">
        <ele>151</ele>
        <time>2022-01-20T08:55:46Z</time>
      </trkpt>
      <trkpt lat="47.682938" lon="2.0609312">
        <ele>151</ele>
        <time>2022-01-20T08:55:47Z</time>
      </trkpt>
      <trkpt lat="47.682938" lon="2.0609467">
        <ele>151</ele>
        <time>2022-01-20T08:55:48Z</time>
      </trkpt>
      <trkpt lat="47.682938" lon="2.0609624">
        <ele>151</ele>
        <time>2022-01-20T08:55:49Z</time>
      </trkpt>
      <trkpt lat="47.682934" lon="2.0609825">
        <ele>151</ele>
        <time>2022-01-20T08:55:50Z</time>
      </trkpt>
      <trkpt lat="47.682934" lon="2.0609987">
        <ele>151</ele>
        <time>2022-01-20T08:55:51Z</time>
      </trkpt>
      <trkpt lat="47.68293" lon="2.0610125">
        <ele>152</ele>
        <time>2022-01-20T08:55:52Z</time>
      </trkpt>
      <trkpt lat="47.682926" lon="2.0610254">
        <ele>151</ele>
        <time>2022-01-20T08:55:53Z</time>
      </trkpt>
      <trkpt lat="47.682922" lon="2.0610414">
        <ele>151</ele>
        <time>2022-01-20T08:55:54Z</time>
      </trkpt>
      <trkpt lat="47.68292" lon="2.0610611">
        <ele>152</ele>
        <time>2022-01-20T08:55:55Z</time>
      </trkpt>
      <trkpt lat="47.68292" lon="2.0610785">
        <ele>152</ele>
        <time>2022-01-20T08:55:56Z</time>
      </trkpt>
      <trkpt lat="47.68292" lon="2.0610986">
        <ele>152</ele>
        <time>2022-01-20T08:55:57Z</time>
      </trkpt>
      <trkpt lat="47.68292" lon="2.061119">
        <ele>152</ele>
        <time>2022-01-20T08:55:58Z</time>
      </trkpt>
      <trkpt lat="47.68292" lon="2.0611362">
        <ele>153</ele>
        <time>2022-01-20T08:55:59Z</time>
      </trkpt>
      <trkpt lat="47.68292" lon="2.061152">
        <ele>153</ele>
        <time>2022-01-20T08:56:00Z</time>
      </trkpt>
      <trkpt lat="47.682915" lon="2.0611691">
        <ele>153</ele>
        <time>2022-01-20T08:56:01Z</time>
      </trkpt>
      <trkpt lat="47.682915" lon="2.061188">
        <ele>153</ele>
        <time>2022-01-20T08:56:02Z</time>
      </trkpt>
      <trkpt lat="47.68291" lon="2.0612104">
        <ele>154</ele>
        <time>2022-01-20T08:56:03Z</time>
      </trkpt>
      <trkpt lat="47.682903" lon="2.0612347">
        <ele>154</ele>
        <time>2022-01-20T08:56:04Z</time>
      </trkpt>
      <trkpt lat="47.6829" lon="2.0612571">
        <ele>154</ele>
        <time>2022-01-20T08:56:05Z</time>
      </trkpt>
      <trkpt lat="47.682903" lon="2.0612736">
        <ele>153</ele>
        <time>2022-01-20T08:56:06Z</time>
      </trkpt>
      <trkpt lat="47.682903" lon="2.0612924">
        <ele>153</ele>
        <time>2022-01-20T08:56:07Z</time>
      </trkpt>
      <trkpt lat="47.6829" lon="2.061311">
        <ele>154</ele>
        <time>2022-01-20T08:56:08Z</time>
      </trkpt>
      <trkpt lat="47.6829" lon="2.0613286">
        <ele>154</ele>
        <time>2022-01-20T08:56:09Z</time>
      </trkpt>
      <trkpt lat="47.682896" lon="2.0613472">
        <ele>153</ele>
        <time>2022-01-20T08:56:10Z</time>
      </trkpt>
      <trkpt lat="47.682896" lon="2.0613627">
        <ele>153</ele>
        <time>2022-01-20T08:56:11Z</time>
      </trkpt>
      <trkpt lat="47.6829" lon="2.0613842">
        <ele>153</ele>
        <time>2022-01-20T08:56:12Z</time>
      </trkpt>
      <trkpt lat="47.6829" lon="2.0613978">
        <ele>153</ele>
        <time>2022-01-20T08:56:13Z</time>
      </trkpt>
      <trkpt lat="47.6829" lon="2.0614173">
        <ele>153</ele>
        <time>2022-01-20T08:56:14Z</time>
      </trkpt>
      <trkpt lat="47.682896" lon="2.0614338">
        <ele>153</ele>
        <time>2022-01-20T08:56:15Z</time>
      </trkpt>
      <trkpt lat="47.682896" lon="2.0614524">
        <ele>153</ele>
        <time>2022-01-20T08:56:16Z</time>
      </trkpt>
      <trkpt lat="47.68289" lon="2.061468">
        <ele>153</ele>
        <time>2022-01-20T08:56:17Z</time>
      </trkpt>
      <trkpt lat="47.682888" lon="2.0614784">
        <ele>153</ele>
        <time>2022-01-20T08:56:18Z</time>
      </trkpt>
      <trkpt lat="47.682888" lon="2.0614915">
        <ele>153</ele>
        <time>2022-01-20T08:56:19Z</time>
      </trkpt>
      <trkpt lat="47.682888" lon="2.0615096">
        <ele>154</ele>
        <time>2022-01-20T08:56:20Z</time>
      </trkpt>
      <trkpt lat="47.682888" lon="2.0615265">
        <ele>154</ele>
        <time>2022-01-20T08:56:21Z</time>
      </trkpt>
      <trkpt lat="47.682888" lon="2.0615435">
        <ele>154</ele>
        <time>2022-01-20T08:56:22Z</time>
      </trkpt>
      <trkpt lat="47.682888" lon="2.0615518">
        <ele>153</ele>
        <time>2022-01-20T08:56:23Z</time>
      </trkpt>
      <trkpt lat="47.682888" lon="2.0615642">
        <ele>153</ele>
        <time>2022-01-20T08:56:24Z</time>
      </trkpt>
      <trkpt lat="47.682884" lon="2.061583">
        <ele>153</ele>
        <time>2022-01-20T08:56:25Z</time>
      </trkpt>
      <trkpt lat="47.682884" lon="2.061599">
        <ele>152</ele>
        <time>2022-01-20T08:56:26Z</time>
      </trkpt>
      <trkpt lat="47.68288" lon="2.0616145">
        <ele>152</ele>
        <time>2022-01-20T08:56:27Z</time>
      </trkpt>
      <trkpt lat="47.68288" lon="2.0616329">
        <ele>152</ele>
        <time>2022-01-20T08:56:28Z</time>
      </trkpt>
      <trkpt lat="47.68288" lon="2.0616527">
        <ele>152</ele>
        <time>2022-01-20T08:56:29Z</time>
      </trkpt>
      <trkpt lat="47.68288" lon="2.06167">
        <ele>152</ele>
        <time>2022-01-20T08:56:30Z</time>
      </trkpt>
      <trkpt lat="47.682877" lon="2.0616925">
        <ele>151</ele>
        <time>2022-01-20T08:56:31Z</time>
      </trkpt>
      <trkpt lat="47.682877" lon="2.061708">
        <ele>152</ele>
        <time>2022-01-20T08:56:32Z</time>
      </trkpt>
      <trkpt lat="47.682873" lon="2.0617216">
        <ele>151</ele>
        <time>2022-01-20T08:56:33Z</time>
      </trkpt>
      <trkpt lat="47.68286" lon="2.0617368">
        <ele>151</ele>
        <time>2022-01-20T08:56:34Z</time>
      </trkpt>
      <trkpt lat="47.68286" lon="2.0617526">
        <ele>151</ele>
        <time>2022-01-20T08:56:35Z</time>
      </trkpt>
      <trkpt lat="47.682858" lon="2.0617714">
        <ele>150</ele>
        <time>2022-01-20T08:56:36Z</time>
      </trkpt>
      <trkpt lat="47.68285" lon="2.0617883">
        <ele>151</ele>
        <time>2022-01-20T08:56:37Z</time>
      </trkpt>
      <trkpt lat="47.682846" lon="2.0618021">
        <ele>151</ele>
        <time>2022-01-20T08:56:38Z</time>
      </trkpt>
      <trkpt lat="47.682842" lon="2.0618162">
        <ele>151</ele>
        <time>2022-01-20T08:56:39Z</time>
      </trkpt>
      <trkpt lat="47.68284" lon="2.061831">
        <ele>152</ele>
        <time>2022-01-20T08:56:40Z</time>
      </trkpt>
      <trkpt lat="47.68284" lon="2.0618443">
        <ele>152</ele>
        <time>2022-01-20T08:56:41Z</time>
      </trkpt>
      <trkpt lat="47.68284" lon="2.06186">
        <ele>152</ele>
        <time>2022-01-20T08:56:42Z</time>
      </trkpt>
      <trkpt lat="47.68284" lon="2.0618825">
        <ele>152</ele>
        <time>2022-01-20T08:56:43Z</time>
      </trkpt>
      <trkpt lat="47.682842" lon="2.0619066">
        <ele>152</ele>
        <time>2022-01-20T08:56:44Z</time>
      </trkpt>
      <trkpt lat="47.682846" lon="2.0619307">
        <ele>152</ele>
        <time>2022-01-20T08:56:45Z</time>
      </trkpt>
      <trkpt lat="47.682846" lon="2.0619497">
        <ele>152</ele>
        <time>2022-01-20T08:56:46Z</time>
      </trkpt>
      <trkpt lat="47.682854" lon="2.0619683">
        <ele>152</ele>
        <time>2022-01-20T08:56:47Z</time>
      </trkpt>
      <trkpt lat="47.682858" lon="2.0619874">
        <ele>152</ele>
        <time>2022-01-20T08:56:48Z</time>
      </trkpt>
      <trkpt lat="47.682858" lon="2.0620072">
        <ele>153</ele>
        <time>2022-01-20T08:56:49Z</time>
      </trkpt>
      <trkpt lat="47.68286" lon="2.0620291">
        <ele>152</ele>
        <time>2022-01-20T08:56:50Z</time>
      </trkpt>
      <trkpt lat="47.68286" lon="2.0620518">
        <ele>152</ele>
        <time>2022-01-20T08:56:51Z</time>
      </trkpt>
      <trkpt lat="47.68286" lon="2.062071">
        <ele>152</ele>
        <time>2022-01-20T08:56:52Z</time>
      </trkpt>
      <trkpt lat="47.68286" lon="2.0620863">
        <ele>152</ele>
        <time>2022-01-20T08:56:53Z</time>
      </trkpt>
      <trkpt lat="47.68286" lon="2.062098">
        <ele>153</ele>
        <time>2022-01-20T08:56:54Z</time>
      </trkpt>
      <trkpt lat="47.68286" lon="2.0621102">
        <ele>152</ele>
        <time>2022-01-20T08:56:55Z</time>
      </trkpt>
      <trkpt lat="47.682865" lon="2.0621264">
        <ele>153</ele>
        <time>2022-01-20T08:56:56Z</time>
      </trkpt>
      <trkpt lat="47.682865" lon="2.062146">
        <ele>153</ele>
        <time>2022-01-20T08:56:57Z</time>
      </trkpt>
      <trkpt lat="47.68287" lon="2.062168">
        <ele>153</ele>
        <time>2022-01-20T08:56:58Z</time>
      </trkpt>
      <trkpt lat="47.68287" lon="2.0621846">
        <ele>153</ele>
        <time>2022-01-20T08:56:59Z</time>
      </trkpt>
      <trkpt lat="47.682873" lon="2.0621946">
        <ele>153</ele>
        <time>2022-01-20T08:57:00Z</time>
      </trkpt>
      <trkpt lat="47.682873" lon="2.0622091">
        <ele>153</ele>
        <time>2022-01-20T08:57:01Z</time>
      </trkpt>
      <trkpt lat="47.682873" lon="2.0622299">
        <ele>153</ele>
        <time>2022-01-20T08:57:02Z</time>
      </trkpt>
      <trkpt lat="47.682873" lon="2.062246">
        <ele>153</ele>
        <time>2022-01-20T08:57:03Z</time>
      </trkpt>
      <trkpt lat="47.682873" lon="2.0622666">
        <ele>153</ele>
        <time>2022-01-20T08:57:04Z</time>
      </trkpt>
      <trkpt lat="47.682873" lon="2.0622873">
        <ele>152</ele>
        <time>2022-01-20T08:57:05Z</time>
      </trkpt>
      <trkpt lat="47.682873" lon="2.0623062">
        <ele>152</ele>
        <time>2022-01-20T08:57:06Z</time>
      </trkpt>
      <trkpt lat="47.682877" lon="2.0623217">
        <ele>151</ele>
        <time>2022-01-20T08:57:07Z</time>
      </trkpt>
      <trkpt lat="47.682877" lon="2.0623348">
        <ele>151</ele>
        <time>2022-01-20T08:57:08Z</time>
      </trkpt>
      <trkpt lat="47.682877" lon="2.0623484">
        <ele>150</ele>
        <time>2022-01-20T08:57:09Z</time>
      </trkpt>
      <trkpt lat="47.68288" lon="2.0623574">
        <ele>150</ele>
        <time>2022-01-20T08:57:10Z</time>
      </trkpt>
      <trkpt lat="47.682884" lon="2.062369">
        <ele>150</ele>
        <time>2022-01-20T08:57:11Z</time>
      </trkpt>
      <trkpt lat="47.682884" lon="2.062381">
        <ele>150</ele>
        <time>2022-01-20T08:57:12Z</time>
      </trkpt>
      <trkpt lat="47.682884" lon="2.062394">
        <ele>150</ele>
        <time>2022-01-20T08:57:13Z</time>
      </trkpt>
      <trkpt lat="47.682884" lon="2.062403">
        <ele>150</ele>
        <time>2022-01-20T08:57:14Z</time>
      </trkpt>
      <trkpt lat="47.682884" lon="2.062416">
        <ele>150</ele>
        <time>2022-01-20T08:57:15Z</time>
      </trkpt>
      <trkpt lat="47.682884" lon="2.0624268">
        <ele>150</ele>
        <time>2022-01-20T08:57:16Z</time>
      </trkpt>
      <trkpt lat="47.682884" lon="2.062443">
        <ele>149</ele>
        <time>2022-01-20T08:57:17Z</time>
      </trkpt>
      <trkpt lat="47.682884" lon="2.062457">
        <ele>149</ele>
        <time>2022-01-20T08:57:18Z</time>
      </trkpt>
      <trkpt lat="47.68288" lon="2.0624685">
        <ele>149</ele>
        <time>2022-01-20T08:57:19Z</time>
      </trkpt>
      <trkpt lat="47.68288" lon="2.0624769">
        <ele>149</ele>
        <time>2022-01-20T08:57:20Z</time>
      </trkpt>
      <trkpt lat="47.682877" lon="2.0624878">
        <ele>149</ele>
        <time>2022-01-20T08:57:21Z</time>
      </trkpt>
      <trkpt lat="47.68287" lon="2.0625021">
        <ele>149</ele>
        <time>2022-01-20T08:57:22Z</time>
      </trkpt>
      <trkpt lat="47.682865" lon="2.0625162">
        <ele>149</ele>
        <time>2022-01-20T08:57:23Z</time>
      </trkpt>
      <trkpt lat="47.68286" lon="2.0625348">
        <ele>148</ele>
        <time>2022-01-20T08:57:24Z</time>
      </trkpt>
      <trkpt lat="47.68286" lon="2.062553">
        <ele>148</ele>
        <time>2022-01-20T08:57:25Z</time>
      </trkpt>
      <trkpt lat="47.682858" lon="2.062569">
        <ele>147</ele>
        <time>2022-01-20T08:57:26Z</time>
      </trkpt>
      <trkpt lat="47.682854" lon="2.0625806">
        <ele>147</ele>
        <time>2022-01-20T08:57:27Z</time>
      </trkpt>
      <trkpt lat="47.682854" lon="2.0625956">
        <ele>147</ele>
        <time>2022-01-20T08:57:28Z</time>
      </trkpt>
      <trkpt lat="47.68285" lon="2.06261">
        <ele>147</ele>
        <time>2022-01-20T08:57:29Z</time>
      </trkpt>
      <trkpt lat="47.68285" lon="2.0626273">
        <ele>147</ele>
        <time>2022-01-20T08:57:30Z</time>
      </trkpt>
      <trkpt lat="47.68285" lon="2.0626488">
        <ele>148</ele>
        <time>2022-01-20T08:57:31Z</time>
      </trkpt>
      <trkpt lat="47.68285" lon="2.0626683">
        <ele>148</ele>
        <time>2022-01-20T08:57:32Z</time>
      </trkpt>
      <trkpt lat="47.68285" lon="2.0626867">
        <ele>148</ele>
        <time>2022-01-20T08:57:33Z</time>
      </trkpt>
      <trkpt lat="47.68285" lon="2.0627022">
        <ele>147</ele>
        <time>2022-01-20T08:57:34Z</time>
      </trkpt>
      <trkpt lat="47.68285" lon="2.0627172">
        <ele>148</ele>
        <time>2022-01-20T08:57:35Z</time>
      </trkpt>
      <trkpt lat="47.68285" lon="2.0627363">
        <ele>147</ele>
        <time>2022-01-20T08:57:36Z</time>
      </trkpt>
      <trkpt lat="47.68285" lon="2.0627565">
        <ele>147</ele>
        <time>2022-01-20T08:57:37Z</time>
      </trkpt>
      <trkpt lat="47.682846" lon="2.062776">
        <ele>147</ele>
        <time>2022-01-20T08:57:38Z</time>
      </trkpt>
      <trkpt lat="47.682846" lon="2.0627985">
        <ele>148</ele>
        <time>2022-01-20T08:57:39Z</time>
      </trkpt>
      <trkpt lat="47.682842" lon="2.0628197">
        <ele>148</ele>
        <time>2022-01-20T08:57:40Z</time>
      </trkpt>
      <trkpt lat="47.68284" lon="2.0628393">
        <ele>148</ele>
        <time>2022-01-20T08:57:41Z</time>
      </trkpt>
      <trkpt lat="47.68284" lon="2.062857">
        <ele>148</ele>
        <time>2022-01-20T08:57:42Z</time>
      </trkpt>
      <trkpt lat="47.682835" lon="2.0628765">
        <ele>148</ele>
        <time>2022-01-20T08:57:43Z</time>
      </trkpt>
      <trkpt lat="47.68283" lon="2.062891">
        <ele>148</ele>
        <time>2022-01-20T08:57:44Z</time>
      </trkpt>
      <trkpt lat="47.682827" lon="2.062909">
        <ele>148</ele>
        <time>2022-01-20T08:57:45Z</time>
      </trkpt>
      <trkpt lat="47.682823" lon="2.0629323">
        <ele>149</ele>
        <time>2022-01-20T08:57:46Z</time>
      </trkpt>
      <trkpt lat="47.68282" lon="2.0629532">
        <ele>149</ele>
        <time>2022-01-20T08:57:47Z</time>
      </trkpt>
      <trkpt lat="47.68282" lon="2.0629685">
        <ele>149</ele>
        <time>2022-01-20T08:57:48Z</time>
      </trkpt>
      <trkpt lat="47.682816" lon="2.0629797">
        <ele>149</ele>
        <time>2022-01-20T08:57:49Z</time>
      </trkpt>
      <trkpt lat="47.68281" lon="2.0629895">
        <ele>148</ele>
        <time>2022-01-20T08:57:50Z</time>
      </trkpt>
      <trkpt lat="47.68281" lon="2.0629997">
        <ele>148</ele>
        <time>2022-01-20T08:57:51Z</time>
      </trkpt>
      <trkpt lat="47.68281" lon="2.0629997">
        <ele>148</ele>
        <time>2022-01-20T08:57:52Z</time>
      </trkpt>
      <trkpt lat="47.682808" lon="2.063027">
        <ele>148</ele>
        <time>2022-01-20T08:57:53Z</time>
      </trkpt>
      <trkpt lat="47.682808" lon="2.063045">
        <ele>148</ele>
        <time>2022-01-20T08:57:54Z</time>
      </trkpt>
      <trkpt lat="47.682808" lon="2.063059">
        <ele>148</ele>
        <time>2022-01-20T08:57:55Z</time>
      </trkpt>
      <trkpt lat="47.68281" lon="2.0630724">
        <ele>148</ele>
        <time>2022-01-20T08:57:56Z</time>
      </trkpt>
      <trkpt lat="47.68281" lon="2.0630925">
        <ele>148</ele>
        <time>2022-01-20T08:57:57Z</time>
      </trkpt>
      <trkpt lat="47.682808" lon="2.063106">
        <ele>148</ele>
        <time>2022-01-20T08:57:58Z</time>
      </trkpt>
      <trkpt lat="47.682804" lon="2.0631227">
        <ele>148</ele>
        <time>2022-01-20T08:57:59Z</time>
      </trkpt>
      <trkpt lat="47.682804" lon="2.0631418">
        <ele>147</ele>
        <time>2022-01-20T08:58:00Z</time>
      </trkpt>
      <trkpt lat="47.682796" lon="2.0631595">
        <ele>148</ele>
        <time>2022-01-20T08:58:01Z</time>
      </trkpt>
      <trkpt lat="47.682793" lon="2.0631776">
        <ele>147</ele>
        <time>2022-01-20T08:58:02Z</time>
      </trkpt>
      <trkpt lat="47.68279" lon="2.0631971">
        <ele>147</ele>
        <time>2022-01-20T08:58:03Z</time>
      </trkpt>
      <trkpt lat="47.68279" lon="2.0632107">
        <ele>147</ele>
        <time>2022-01-20T08:58:04Z</time>
      </trkpt>
      <trkpt lat="47.682785" lon="2.063226">
        <ele>147</ele>
        <time>2022-01-20T08:58:05Z</time>
      </trkpt>
      <trkpt lat="47.682785" lon="2.0632422">
        <ele>147</ele>
        <time>2022-01-20T08:58:06Z</time>
      </trkpt>
      <trkpt lat="47.68278" lon="2.0632546">
        <ele>148</ele>
        <time>2022-01-20T08:58:07Z</time>
      </trkpt>
      <trkpt lat="47.682777" lon="2.0632699">
        <ele>147</ele>
        <time>2022-01-20T08:58:08Z</time>
      </trkpt>
      <trkpt lat="47.682774" lon="2.0632899">
        <ele>147</ele>
        <time>2022-01-20T08:58:09Z</time>
      </trkpt>
      <trkpt lat="47.682777" lon="2.0633082">
        <ele>147</ele>
        <time>2022-01-20T08:58:10Z</time>
      </trkpt>
      <trkpt lat="47.682777" lon="2.0633247">
        <ele>147</ele>
        <time>2022-01-20T08:58:11Z</time>
      </trkpt>
      <trkpt lat="47.682777" lon="2.0633392">
        <ele>147</ele>
        <time>2022-01-20T08:58:12Z</time>
      </trkpt>
      <trkpt lat="47.682777" lon="2.0633552">
        <ele>147</ele>
        <time>2022-01-20T08:58:13Z</time>
      </trkpt>
      <trkpt lat="47.682774" lon="2.0633678">
        <ele>146</ele>
        <time>2022-01-20T08:58:14Z</time>
      </trkpt>
      <trkpt lat="47.68277" lon="2.0633807">
        <ele>146</ele>
        <time>2022-01-20T08:58:15Z</time>
      </trkpt>
      <trkpt lat="47.682766" lon="2.0633934">
        <ele>146</ele>
        <time>2022-01-20T08:58:16Z</time>
      </trkpt>
      <trkpt lat="47.682762" lon="2.0634077">
        <ele>146</ele>
        <time>2022-01-20T08:58:17Z</time>
      </trkpt>
      <trkpt lat="47.682762" lon="2.0634077">
        <ele>146</ele>
        <time>2022-01-20T08:58:18Z</time>
      </trkpt>
      <trkpt lat="47.682755" lon="2.0634353">
        <ele>145</ele>
        <time>2022-01-20T08:58:19Z</time>
      </trkpt>
      <trkpt lat="47.682755" lon="2.0634506">
        <ele>145</ele>
        <time>2022-01-20T08:58:20Z</time>
      </trkpt>
      <trkpt lat="47.68275" lon="2.0634656">
        <ele>145</ele>
        <time>2022-01-20T08:58:21Z</time>
      </trkpt>
      <trkpt lat="47.68275" lon="2.0634818">
        <ele>145</ele>
        <time>2022-01-20T08:58:22Z</time>
      </trkpt>
      <trkpt lat="47.68275" lon="2.0634985">
        <ele>145</ele>
        <time>2022-01-20T08:58:23Z</time>
      </trkpt>
      <trkpt lat="47.68275" lon="2.063514">
        <ele>145</ele>
        <time>2022-01-20T08:58:24Z</time>
      </trkpt>
      <trkpt lat="47.682747" lon="2.063534">
        <ele>145</ele>
        <time>2022-01-20T08:58:25Z</time>
      </trkpt>
      <trkpt lat="47.682747" lon="2.06355">
        <ele>145</ele>
        <time>2022-01-20T08:58:26Z</time>
      </trkpt>
      <trkpt lat="47.682743" lon="2.063561">
        <ele>145</ele>
        <time>2022-01-20T08:58:27Z</time>
      </trkpt>
      <trkpt lat="47.682747" lon="2.0635738">
        <ele>145</ele>
        <time>2022-01-20T08:58:28Z</time>
      </trkpt>
      <trkpt lat="47.68275" lon="2.0635917">
        <ele>145</ele>
        <time>2022-01-20T08:58:29Z</time>
      </trkpt>
      <trkpt lat="47.68275" lon="2.063609">
        <ele>145</ele>
        <time>2022-01-20T08:58:30Z</time>
      </trkpt>
      <trkpt lat="47.68275" lon="2.063625">
        <ele>145</ele>
        <time>2022-01-20T08:58:31Z</time>
      </trkpt>
      <trkpt lat="47.682747" lon="2.063637">
        <ele>145</ele>
        <time>2022-01-20T08:58:32Z</time>
      </trkpt>
      <trkpt lat="47.682747" lon="2.063637">
        <ele>145</ele>
        <time>2022-01-20T08:58:33Z</time>
      </trkpt>
      <trkpt lat="47.682747" lon="2.063637">
        <ele>145</ele>
        <time>2022-01-20T08:58:34Z</time>
      </trkpt>
      <trkpt lat="47.68274" lon="2.0636697">
        <ele>145</ele>
        <time>2022-01-20T08:58:35Z</time>
      </trkpt>
      <trkpt lat="47.682735" lon="2.063682">
        <ele>145</ele>
        <time>2022-01-20T08:58:36Z</time>
      </trkpt>
      <trkpt lat="47.682735" lon="2.0637004">
        <ele>144</ele>
        <time>2022-01-20T08:58:37Z</time>
      </trkpt>
      <trkpt lat="47.68273" lon="2.0637183">
        <ele>144</ele>
        <time>2022-01-20T08:58:38Z</time>
      </trkpt>
      <trkpt lat="47.682728" lon="2.0637372">
        <ele>144</ele>
        <time>2022-01-20T08:58:39Z</time>
      </trkpt>
      <trkpt lat="47.682728" lon="2.063755">
        <ele>143</ele>
        <time>2022-01-20T08:58:40Z</time>
      </trkpt>
      <trkpt lat="47.68272" lon="2.063764">
        <ele>143</ele>
        <time>2022-01-20T08:58:41Z</time>
      </trkpt>
      <trkpt lat="47.682716" lon="2.0637794">
        <ele>143</ele>
        <time>2022-01-20T08:58:42Z</time>
      </trkpt>
      <trkpt lat="47.682716" lon="2.0637794">
        <ele>143</ele>
        <time>2022-01-20T08:58:43Z</time>
      </trkpt>
      <trkpt lat="47.682716" lon="2.0638094">
        <ele>142</ele>
        <time>2022-01-20T08:58:44Z</time>
      </trkpt>
      <trkpt lat="47.682713" lon="2.063827">
        <ele>142</ele>
        <time>2022-01-20T08:58:45Z</time>
      </trkpt>
      <trkpt lat="47.68271" lon="2.0638433">
        <ele>142</ele>
        <time>2022-01-20T08:58:46Z</time>
      </trkpt>
      <trkpt lat="47.6827" lon="2.0638592">
        <ele>142</ele>
        <time>2022-01-20T08:58:47Z</time>
      </trkpt>
      <trkpt lat="47.682693" lon="2.0638814">
        <ele>142</ele>
        <time>2022-01-20T08:58:48Z</time>
      </trkpt>
      <trkpt lat="47.682686" lon="2.063902">
        <ele>142</ele>
        <time>2022-01-20T08:58:49Z</time>
      </trkpt>
      <trkpt lat="47.68268" lon="2.0639203">
        <ele>141</ele>
        <time>2022-01-20T08:58:50Z</time>
      </trkpt>
      <trkpt lat="47.682674" lon="2.0639384">
        <ele>141</ele>
        <time>2022-01-20T08:58:51Z</time>
      </trkpt>
      <trkpt lat="47.682674" lon="2.063955">
        <ele>141</ele>
        <time>2022-01-20T08:58:52Z</time>
      </trkpt>
      <trkpt lat="47.68267" lon="2.0639708">
        <ele>141</ele>
        <time>2022-01-20T08:58:53Z</time>
      </trkpt>
      <trkpt lat="47.68267" lon="2.0639918">
        <ele>141</ele>
        <time>2022-01-20T08:58:54Z</time>
      </trkpt>
      <trkpt lat="47.682667" lon="2.064004">
        <ele>140</ele>
        <time>2022-01-20T08:58:55Z</time>
      </trkpt>
      <trkpt lat="47.682663" lon="2.0640135">
        <ele>140</ele>
        <time>2022-01-20T08:58:56Z</time>
      </trkpt>
      <trkpt lat="47.682667" lon="2.0640264">
        <ele>140</ele>
        <time>2022-01-20T08:58:57Z</time>
      </trkpt>
      <trkpt lat="47.682667" lon="2.0640435">
        <ele>140</ele>
        <time>2022-01-20T08:58:58Z</time>
      </trkpt>
      <trkpt lat="47.682663" lon="2.064059">
        <ele>139</ele>
        <time>2022-01-20T08:58:59Z</time>
      </trkpt>
      <trkpt lat="47.68266" lon="2.0640745">
        <ele>139</ele>
        <time>2022-01-20T08:59:00Z</time>
      </trkpt>
      <trkpt lat="47.682655" lon="2.0640972">
        <ele>139</ele>
        <time>2022-01-20T08:59:01Z</time>
      </trkpt>
      <trkpt lat="47.682655" lon="2.0641148">
        <ele>138</ele>
        <time>2022-01-20T08:59:02Z</time>
      </trkpt>
      <trkpt lat="47.68265" lon="2.064128">
        <ele>138</ele>
        <time>2022-01-20T08:59:03Z</time>
      </trkpt>
      <trkpt lat="47.682648" lon="2.0641434">
        <ele>138</ele>
        <time>2022-01-20T08:59:04Z</time>
      </trkpt>
      <trkpt lat="47.682648" lon="2.0641434">
        <ele>138</ele>
        <time>2022-01-20T08:59:05Z</time>
      </trkpt>
      <trkpt lat="47.682648" lon="2.0641434">
        <ele>138</ele>
        <time>2022-01-20T08:59:06Z</time>
      </trkpt>
      <trkpt lat="47.682644" lon="2.0641778">
        <ele>138</ele>
        <time>2022-01-20T08:59:07Z</time>
      </trkpt>
      <trkpt lat="47.68264" lon="2.0641956">
        <ele>138</ele>
        <time>2022-01-20T08:59:08Z</time>
      </trkpt>
      <trkpt lat="47.682636" lon="2.0642142">
        <ele>138</ele>
        <time>2022-01-20T08:59:09Z</time>
      </trkpt>
      <trkpt lat="47.682632" lon="2.0642393">
        <ele>139</ele>
        <time>2022-01-20T08:59:10Z</time>
      </trkpt>
      <trkpt lat="47.682636" lon="2.0642545">
        <ele>139</ele>
        <time>2022-01-20T08:59:11Z</time>
      </trkpt>
      <trkpt lat="47.682636" lon="2.0642705">
        <ele>139</ele>
        <time>2022-01-20T08:59:12Z</time>
      </trkpt>
      <trkpt lat="47.682636" lon="2.064284">
        <ele>139</ele>
        <time>2022-01-20T08:59:13Z</time>
      </trkpt>
      <trkpt lat="47.682636" lon="2.0643024">
        <ele>139</ele>
        <time>2022-01-20T08:59:14Z</time>
      </trkpt>
      <trkpt lat="47.68263" lon="2.0643225">
        <ele>139</ele>
        <time>2022-01-20T08:59:15Z</time>
      </trkpt>
      <trkpt lat="47.682617" lon="2.0643396">
        <ele>139</ele>
        <time>2022-01-20T08:59:16Z</time>
      </trkpt>
      <trkpt lat="47.68261" lon="2.0643523">
        <ele>139</ele>
        <time>2022-01-20T08:59:17Z</time>
      </trkpt>
      <trkpt lat="47.682602" lon="2.0643673">
        <ele>140</ele>
        <time>2022-01-20T08:59:18Z</time>
      </trkpt>
      <trkpt lat="47.68259" lon="2.0643835">
        <ele>140</ele>
        <time>2022-01-20T08:59:19Z</time>
      </trkpt>
      <trkpt lat="47.682587" lon="2.064397">
        <ele>140</ele>
        <time>2022-01-20T08:59:20Z</time>
      </trkpt>
      <trkpt lat="47.68258" lon="2.0644116">
        <ele>140</ele>
        <time>2022-01-20T08:59:21Z</time>
      </trkpt>
      <trkpt lat="47.682575" lon="2.0644274">
        <ele>140</ele>
        <time>2022-01-20T08:59:22Z</time>
      </trkpt>
      <trkpt lat="47.68257" lon="2.0644424">
        <ele>140</ele>
        <time>2022-01-20T08:59:23Z</time>
      </trkpt>
      <trkpt lat="47.682568" lon="2.0644567">
        <ele>140</ele>
        <time>2022-01-20T08:59:24Z</time>
      </trkpt>
      <trkpt lat="47.682564" lon="2.0644782">
        <ele>140</ele>
        <time>2022-01-20T08:59:25Z</time>
      </trkpt>
      <trkpt lat="47.682556" lon="2.064494">
        <ele>139</ele>
        <time>2022-01-20T08:59:26Z</time>
      </trkpt>
      <trkpt lat="47.682556" lon="2.0645049">
        <ele>139</ele>
        <time>2022-01-20T08:59:27Z</time>
      </trkpt>
      <trkpt lat="47.682552" lon="2.0645206">
        <ele>139</ele>
        <time>2022-01-20T08:59:28Z</time>
      </trkpt>
      <trkpt lat="47.68255" lon="2.0645359">
        <ele>139</ele>
        <time>2022-01-20T08:59:29Z</time>
      </trkpt>
      <trkpt lat="47.682545" lon="2.064553">
        <ele>138</ele>
        <time>2022-01-20T08:59:30Z</time>
      </trkpt>
      <trkpt lat="47.68254" lon="2.0645678">
        <ele>139</ele>
        <time>2022-01-20T08:59:31Z</time>
      </trkpt>
      <trkpt lat="47.682533" lon="2.0645854">
        <ele>139</ele>
        <time>2022-01-20T08:59:32Z</time>
      </trkpt>
      <trkpt lat="47.682526" lon="2.0646017">
        <ele>139</ele>
        <time>2022-01-20T08:59:33Z</time>
      </trkpt>
      <trkpt lat="47.682514" lon="2.064614">
        <ele>139</ele>
        <time>2022-01-20T08:59:34Z</time>
      </trkpt>
      <trkpt lat="47.682507" lon="2.064626">
        <ele>139</ele>
        <time>2022-01-20T08:59:35Z</time>
      </trkpt>
      <trkpt lat="47.6825" lon="2.0646434">
        <ele>139</ele>
        <time>2022-01-20T08:59:36Z</time>
      </trkpt>
      <trkpt lat="47.682487" lon="2.0646663">
        <ele>139</ele>
        <time>2022-01-20T08:59:37Z</time>
      </trkpt>
      <trkpt lat="47.68248" lon="2.0646849">
        <ele>139</ele>
        <time>2022-01-20T08:59:38Z</time>
      </trkpt>
      <trkpt lat="47.68247" lon="2.0647082">
        <ele>139</ele>
        <time>2022-01-20T08:59:39Z</time>
      </trkpt>
      <trkpt lat="47.68246" lon="2.0647242">
        <ele>139</ele>
        <time>2022-01-20T08:59:40Z</time>
      </trkpt>
      <trkpt lat="47.682453" lon="2.064736">
        <ele>139</ele>
        <time>2022-01-20T08:59:41Z</time>
      </trkpt>
      <trkpt lat="47.682446" lon="2.0647423">
        <ele>139</ele>
        <time>2022-01-20T08:59:42Z</time>
      </trkpt>
      <trkpt lat="47.682434" lon="2.0647542">
        <ele>139</ele>
        <time>2022-01-20T08:59:43Z</time>
      </trkpt>
      <trkpt lat="47.682426" lon="2.064766">
        <ele>139</ele>
        <time>2022-01-20T08:59:44Z</time>
      </trkpt>
      <trkpt lat="47.68242" lon="2.0647838">
        <ele>139</ele>
        <time>2022-01-20T08:59:45Z</time>
      </trkpt>
      <trkpt lat="47.68241" lon="2.0648003">
        <ele>139</ele>
        <time>2022-01-20T08:59:46Z</time>
      </trkpt>
      <trkpt lat="47.682404" lon="2.0648143">
        <ele>139</ele>
        <time>2022-01-20T08:59:47Z</time>
      </trkpt>
      <trkpt lat="47.682396" lon="2.0648296">
        <ele>139</ele>
        <time>2022-01-20T08:59:48Z</time>
      </trkpt>
      <trkpt lat="47.682384" lon="2.0648422">
        <ele>138</ele>
        <time>2022-01-20T08:59:49Z</time>
      </trkpt>
      <trkpt lat="47.682377" lon="2.064846">
        <ele>138</ele>
        <time>2022-01-20T08:59:50Z</time>
      </trkpt>
      <trkpt lat="47.68237" lon="2.0648568">
        <ele>139</ele>
        <time>2022-01-20T08:59:51Z</time>
      </trkpt>
      <trkpt lat="47.682358" lon="2.0648658">
        <ele>138</ele>
        <time>2022-01-20T08:59:52Z</time>
      </trkpt>
      <trkpt lat="47.682346" lon="2.0648732">
        <ele>138</ele>
        <time>2022-01-20T08:59:53Z</time>
      </trkpt>
      <trkpt lat="47.68234" lon="2.064885">
        <ele>139</ele>
        <time>2022-01-20T08:59:54Z</time>
      </trkpt>
      <trkpt lat="47.682343" lon="2.0648987">
        <ele>138</ele>
        <time>2022-01-20T08:59:55Z</time>
      </trkpt>
      <trkpt lat="47.682343" lon="2.0648987">
        <ele>138</ele>
        <time>2022-01-20T08:59:56Z</time>
      </trkpt>
      <trkpt lat="47.682343" lon="2.0648987">
        <ele>138</ele>
        <time>2022-01-20T08:59:57Z</time>
      </trkpt>
      <trkpt lat="47.68234" lon="2.0649276">
        <ele>139</ele>
        <time>2022-01-20T08:59:58Z</time>
      </trkpt>
      <trkpt lat="47.68234" lon="2.064936">
        <ele>140</ele>
        <time>2022-01-20T08:59:59Z</time>
      </trkpt>
      <trkpt lat="47.682335" lon="2.0649402">
        <ele>140</ele>
        <time>2022-01-20T09:00:00Z</time>
      </trkpt>
      <trkpt lat="47.682335" lon="2.0649424">
        <ele>140</ele>
        <time>2022-01-20T09:00:01Z</time>
      </trkpt>
      <trkpt lat="47.682335" lon="2.0649424">
        <ele>140</ele>
        <time>2022-01-20T09:00:01Z</time>
      </trkpt>
    </trkseg>
    <trkseg>
      <trkpt lat="47.682335" lon="2.0649424">
        <ele>140</ele>
        <time>2022-01-20T09:00:01Z</time>
      </trkpt>
      <trkpt lat="47.682346" lon="2.0650592">
        <ele>142</ele>
        <time>2022-01-20T09:00:47Z</time>
      </trkpt>
      <trkpt lat="47.682346" lon="2.065071">
        <ele>142</ele>
        <time>2022-01-20T09:00:48Z</time>
      </trkpt>
      <trkpt lat="47.682343" lon="2.0650842">
        <ele>142</ele>
        <time>2022-01-20T09:00:49Z</time>
      </trkpt>
      <trkpt lat="47.682343" lon="2.065097">
        <ele>142</ele>
        <time>2022-01-20T09:00:50Z</time>
      </trkpt>
      <trkpt lat="47.682343" lon="2.065108">
        <ele>142</ele>
        <time>2022-01-20T09:00:51Z</time>
      </trkpt>
      <trkpt lat="47.68234" lon="2.0651162">
        <ele>142</ele>
        <time>2022-01-20T09:00:52Z</time>
      </trkpt>
      <trkpt lat="47.68234" lon="2.0651162">
        <ele>142</ele>
        <time>2022-01-20T09:00:53Z</time>
      </trkpt>
      <trkpt lat="47.68234" lon="2.0651162">
        <ele>142</ele>
        <time>2022-01-20T09:00:54Z</time>
      </trkpt>
      <trkpt lat="47.68233" lon="2.0651467">
        <ele>142</ele>
        <time>2022-01-20T09:00:55Z</time>
      </trkpt>
      <trkpt lat="47.682323" lon="2.0651598">
        <ele>142</ele>
        <time>2022-01-20T09:00:56Z</time>
      </trkpt>
      <trkpt lat="47.68232" lon="2.0651696">
        <ele>142</ele>
        <time>2022-01-20T09:00:57Z</time>
      </trkpt>
      <trkpt lat="47.682316" lon="2.065173">
        <ele>142</ele>
        <time>2022-01-20T09:00:58Z</time>
      </trkpt>
      <trkpt lat="47.68232" lon="2.0651786">
        <ele>141</ele>
        <time>2022-01-20T09:00:59Z</time>
      </trkpt>
      <trkpt lat="47.68232" lon="2.065184">
        <ele>141</ele>
        <time>2022-01-20T09:01:00Z</time>
      </trkpt>
      <trkpt lat="47.68232" lon="2.0651948">
        <ele>141</ele>
        <time>2022-01-20T09:01:01Z</time>
      </trkpt>
      <trkpt lat="47.682316" lon="2.0652022">
        <ele>141</ele>
        <time>2022-01-20T09:01:02Z</time>
      </trkpt>
      <trkpt lat="47.682312" lon="2.065212">
        <ele>141</ele>
        <time>2022-01-20T09:01:03Z</time>
      </trkpt>
      <trkpt lat="47.682312" lon="2.0652308">
        <ele>141</ele>
        <time>2022-01-20T09:01:04Z</time>
      </trkpt>
      <trkpt lat="47.68231" lon="2.06525">
        <ele>142</ele>
        <time>2022-01-20T09:01:05Z</time>
      </trkpt>
      <trkpt lat="47.682304" lon="2.0652633">
        <ele>142</ele>
        <time>2022-01-20T09:01:06Z</time>
      </trkpt>
      <trkpt lat="47.682297" lon="2.0652769">
        <ele>141</ele>
        <time>2022-01-20T09:01:07Z</time>
      </trkpt>
      <trkpt lat="47.682285" lon="2.06529">
        <ele>141</ele>
        <time>2022-01-20T09:01:08Z</time>
      </trkpt>
      <trkpt lat="47.682278" lon="2.065299">
        <ele>141</ele>
        <time>2022-01-20T09:01:09Z</time>
      </trkpt>
      <trkpt lat="47.682274" lon="2.065308">
        <ele>141</ele>
        <time>2022-01-20T09:01:10Z</time>
      </trkpt>
      <trkpt lat="47.682266" lon="2.0653164">
        <ele>140</ele>
        <time>2022-01-20T09:01:11Z</time>
      </trkpt>
      <trkpt lat="47.682255" lon="2.0653257">
        <ele>140</ele>
        <time>2022-01-20T09:01:12Z</time>
      </trkpt>
      <trkpt lat="47.682247" lon="2.065333">
        <ele>139</ele>
        <time>2022-01-20T09:01:13Z</time>
      </trkpt>
      <trkpt lat="47.68224" lon="2.0653503">
        <ele>139</ele>
        <time>2022-01-20T09:01:14Z</time>
      </trkpt>
      <trkpt lat="47.682236" lon="2.0653625">
        <ele>139</ele>
        <time>2022-01-20T09:01:15Z</time>
      </trkpt>
      <trkpt lat="47.68223" lon="2.0653682">
        <ele>139</ele>
        <time>2022-01-20T09:01:16Z</time>
      </trkpt>
      <trkpt lat="47.682228" lon="2.0653746">
        <ele>139</ele>
        <time>2022-01-20T09:01:17Z</time>
      </trkpt>
      <trkpt lat="47.68222" lon="2.065379">
        <ele>139</ele>
        <time>2022-01-20T09:01:18Z</time>
      </trkpt>
      <trkpt lat="47.682217" lon="2.0653942">
        <ele>139</ele>
        <time>2022-01-20T09:01:19Z</time>
      </trkpt>
      <trkpt lat="47.682213" lon="2.065406">
        <ele>139</ele>
        <time>2022-01-20T09:01:20Z</time>
      </trkpt>
      <trkpt lat="47.682205" lon="2.0654137">
        <ele>139</ele>
        <time>2022-01-20T09:01:21Z</time>
      </trkpt>
      <trkpt lat="47.682205" lon="2.0654256">
        <ele>139</ele>
        <time>2022-01-20T09:01:22Z</time>
      </trkpt>
      <trkpt lat="47.6822" lon="2.065438">
        <ele>139</ele>
        <time>2022-01-20T09:01:23Z</time>
      </trkpt>
      <trkpt lat="47.682194" lon="2.0654464">
        <ele>139</ele>
        <time>2022-01-20T09:01:24Z</time>
      </trkpt>
      <trkpt lat="47.682194" lon="2.0654464">
        <ele>139</ele>
        <time>2022-01-20T09:01:25Z</time>
      </trkpt>
      <trkpt lat="47.682194" lon="2.0654464">
        <ele>139</ele>
        <time>2022-01-20T09:01:26Z</time>
      </trkpt>
      <trkpt lat="47.68218" lon="2.0654604">
        <ele>139</ele>
        <time>2022-01-20T09:01:27Z</time>
      </trkpt>
      <trkpt lat="47.682175" lon="2.0654645">
        <ele>140</ele>
        <time>2022-01-20T09:01:28Z</time>
      </trkpt>
      <trkpt lat="47.68218" lon="2.065471">
        <ele>141</ele>
        <time>2022-01-20T09:01:29Z</time>
      </trkpt>
      <trkpt lat="47.682186" lon="2.0654817">
        <ele>141</ele>
        <time>2022-01-20T09:01:30Z</time>
      </trkpt>
      <trkpt lat="47.682186" lon="2.065493">
        <ele>141</ele>
        <time>2022-01-20T09:01:31Z</time>
      </trkpt>
      <trkpt lat="47.682186" lon="2.0655072">
        <ele>140</ele>
        <time>2022-01-20T09:01:32Z</time>
      </trkpt>
      <trkpt lat="47.682182" lon="2.0655203">
        <ele>140</ele>
        <time>2022-01-20T09:01:33Z</time>
      </trkpt>
      <trkpt lat="47.682182" lon="2.065535">
        <ele>140</ele>
        <time>2022-01-20T09:01:34Z</time>
      </trkpt>
      <trkpt lat="47.682175" lon="2.06555">
        <ele>141</ele>
        <time>2022-01-20T09:01:35Z</time>
      </trkpt>
      <trkpt lat="47.68217" lon="2.0655675">
        <ele>140</ele>
        <time>2022-01-20T09:01:36Z</time>
      </trkpt>
      <trkpt lat="47.68216" lon="2.0655937">
        <ele>140</ele>
        <time>2022-01-20T09:01:38Z</time>
      </trkpt>
      <trkpt lat="47.68215" lon="2.065608">
        <ele>140</ele>
        <time>2022-01-20T09:01:39Z</time>
      </trkpt>
      <trkpt lat="47.682148" lon="2.0656238">
        <ele>140</ele>
        <time>2022-01-20T09:01:40Z</time>
      </trkpt>
      <trkpt lat="47.68214" lon="2.065638">
        <ele>140</ele>
        <time>2022-01-20T09:01:41Z</time>
      </trkpt>
      <trkpt lat="47.682133" lon="2.0656538">
        <ele>140</ele>
        <time>2022-01-20T09:01:42Z</time>
      </trkpt>
      <trkpt lat="47.682125" lon="2.0656693">
        <ele>140</ele>
        <time>2022-01-20T09:01:43Z</time>
      </trkpt>
      <trkpt lat="47.68212" lon="2.065685">
        <ele>140</ele>
        <time>2022-01-20T09:01:44Z</time>
      </trkpt>
      <trkpt lat="47.682114" lon="2.0657022">
        <ele>140</ele>
        <time>2022-01-20T09:01:45Z</time>
      </trkpt>
      <trkpt lat="47.682106" lon="2.065715">
        <ele>140</ele>
        <time>2022-01-20T09:01:46Z</time>
      </trkpt>
      <trkpt lat="47.6821" lon="2.0657287">
        <ele>139</ele>
        <time>2022-01-20T09:01:47Z</time>
      </trkpt>
      <trkpt lat="47.682095" lon="2.0657418">
        <ele>138</ele>
        <time>2022-01-20T09:01:48Z</time>
      </trkpt>
      <trkpt lat="47.68209" lon="2.0657516">
        <ele>138</ele>
        <time>2022-01-20T09:01:49Z</time>
      </trkpt>
      <trkpt lat="47.68209" lon="2.0657516">
        <ele>138</ele>
        <time>2022-01-20T09:01:50Z</time>
      </trkpt>
      <trkpt lat="47.68209" lon="2.0657516">
        <ele>138</ele>
        <time>2022-01-20T09:01:51Z</time>
      </trkpt>
      <trkpt lat="47.68208" lon="2.065784">
        <ele>138</ele>
        <time>2022-01-20T09:01:52Z</time>
      </trkpt>
      <trkpt lat="47.68207" lon="2.0658004">
        <ele>138</ele>
        <time>2022-01-20T09:01:53Z</time>
      </trkpt>
      <trkpt lat="47.682064" lon="2.0658176">
        <ele>138</ele>
        <time>2022-01-20T09:01:54Z</time>
      </trkpt>
      <trkpt lat="47.68206" lon="2.065835">
        <ele>138</ele>
        <time>2022-01-20T09:01:55Z</time>
      </trkpt>
      <trkpt lat="47.682056" lon="2.0658486">
        <ele>138</ele>
        <time>2022-01-20T09:01:56Z</time>
      </trkpt>
      <trkpt lat="47.68205" lon="2.0658557">
        <ele>138</ele>
        <time>2022-01-20T09:01:57Z</time>
      </trkpt>
      <trkpt lat="47.682037" lon="2.0658479">
        <ele>139</ele>
        <time>2022-01-20T09:01:58Z</time>
      </trkpt>
      <trkpt lat="47.682026" lon="2.0658422">
        <ele>140</ele>
        <time>2022-01-20T09:01:59Z</time>
      </trkpt>
      <trkpt lat="47.682026" lon="2.065845">
        <ele>140</ele>
        <time>2022-01-20T09:02:00Z</time>
      </trkpt>
      <trkpt lat="47.682026" lon="2.065845">
        <ele>140</ele>
        <time>2022-01-20T09:02:00Z</time>
      </trkpt>
    </trkseg>
    <trkseg>
      <trkpt lat="47.682026" lon="2.065845">
        <ele>140</ele>
        <time>2022-01-20T09:02:00Z</time>
      </trkpt>
      <trkpt lat="47.68196" lon="2.0658877">
        <ele>152</ele>
        <time>2022-01-20T09:02:54Z</time>
      </trkpt>
      <trkpt lat="47.681957" lon="2.0658998">
        <ele>153</ele>
        <time>2022-01-20T09:02:55Z</time>
      </trkpt>
      <trkpt lat="47.681953" lon="2.0659144">
        <ele>152</ele>
        <time>2022-01-20T09:02:56Z</time>
      </trkpt>
      <trkpt lat="47.68195" lon="2.065928">
        <ele>152</ele>
        <time>2022-01-20T09:02:57Z</time>
      </trkpt>
      <trkpt lat="47.68195" lon="2.0659356">
        <ele>151</ele>
        <time>2022-01-20T09:02:58Z</time>
      </trkpt>
      <trkpt lat="47.68195" lon="2.0659518">
        <ele>152</ele>
        <time>2022-01-20T09:02:59Z</time>
      </trkpt>
      <trkpt lat="47.681946" lon="2.065965">
        <ele>151</ele>
        <time>2022-01-20T09:03:00Z</time>
      </trkpt>
      <trkpt lat="47.681946" lon="2.0659707">
        <ele>151</ele>
        <time>2022-01-20T09:03:01Z</time>
      </trkpt>
      <trkpt lat="47.681946" lon="2.0659728">
        <ele>153</ele>
        <time>2022-01-20T09:03:02Z</time>
      </trkpt>
      <trkpt lat="47.681946" lon="2.0659728">
        <ele>153</ele>
        <time>2022-01-20T09:03:03Z</time>
      </trkpt>
      <trkpt lat="47.681946" lon="2.065976">
        <ele>152</ele>
        <time>2022-01-20T09:03:04Z</time>
      </trkpt>
      <trkpt lat="47.681946" lon="2.065976">
        <ele>152</ele>
        <time>2022-01-20T09:03:05Z</time>
      </trkpt>
      <trkpt lat="47.681946" lon="2.065976">
        <ele>152</ele>
        <time>2022-01-20T09:03:06Z</time>
      </trkpt>
      <trkpt lat="47.681946" lon="2.065976">
        <ele>152</ele>
        <time>2022-01-20T09:03:06Z</time>
      </trkpt>
    </trkseg>
    <trkseg>
      <trkpt lat="47.681946" lon="2.065976">
        <ele>152</ele>
        <time>2022-01-20T09:03:06Z</time>
      </trkpt>
      <trkpt lat="47.681896" lon="2.0661025">
        <ele>159</ele>
        <time>2022-01-20T09:13:10Z</time>
      </trkpt>
      <trkpt lat="47.681892" lon="2.066116">
        <ele>159</ele>
        <time>2022-01-20T09:13:11Z</time>
      </trkpt>
      <trkpt lat="47.681896" lon="2.066126">
        <ele>158</ele>
        <time>2022-01-20T09:13:12Z</time>
      </trkpt>
      <trkpt lat="47.681896" lon="2.0661325">
        <ele>158</ele>
        <time>2022-01-20T09:13:13Z</time>
      </trkpt>
      <trkpt lat="47.681896" lon="2.0661366">
        <ele>158</ele>
        <time>2022-01-20T09:13:14Z</time>
      </trkpt>
      <trkpt lat="47.681892" lon="2.066139">
        <ele>157</ele>
        <time>2022-01-20T09:13:15Z</time>
      </trkpt>
      <trkpt lat="47.681892" lon="2.066144">
        <ele>157</ele>
        <time>2022-01-20T09:13:16Z</time>
      </trkpt>
      <trkpt lat="47.681885" lon="2.06615">
        <ele>156</ele>
        <time>2022-01-20T09:13:17Z</time>
      </trkpt>
      <trkpt lat="47.681877" lon="2.0661619">
        <ele>156</ele>
        <time>2022-01-20T09:13:18Z</time>
      </trkpt>
      <trkpt lat="47.68188" lon="2.0661795">
        <ele>155</ele>
        <time>2022-01-20T09:13:19Z</time>
      </trkpt>
      <trkpt lat="47.68188" lon="2.0661979">
        <ele>155</ele>
        <time>2022-01-20T09:13:20Z</time>
      </trkpt>
      <trkpt lat="47.681877" lon="2.066213">
        <ele>154</ele>
        <time>2022-01-20T09:13:21Z</time>
      </trkpt>
      <trkpt lat="47.681877" lon="2.0662282">
        <ele>154</ele>
        <time>2022-01-20T09:13:22Z</time>
      </trkpt>
      <trkpt lat="47.681873" lon="2.0662363">
        <ele>153</ele>
        <time>2022-01-20T09:13:23Z</time>
      </trkpt>
      <trkpt lat="47.681873" lon="2.0662434">
        <ele>153</ele>
        <time>2022-01-20T09:13:24Z</time>
      </trkpt>
      <trkpt lat="47.68187" lon="2.0662518">
        <ele>153</ele>
        <time>2022-01-20T09:13:25Z</time>
      </trkpt>
      <trkpt lat="47.681866" lon="2.066265">
        <ele>153</ele>
        <time>2022-01-20T09:13:26Z</time>
      </trkpt>
      <trkpt lat="47.681858" lon="2.0662754">
        <ele>153</ele>
        <time>2022-01-20T09:13:27Z</time>
      </trkpt>
      <trkpt lat="47.681854" lon="2.0662866">
        <ele>153</ele>
        <time>2022-01-20T09:13:28Z</time>
      </trkpt>
      <trkpt lat="47.681847" lon="2.0662994">
        <ele>152</ele>
        <time>2022-01-20T09:13:29Z</time>
      </trkpt>
      <trkpt lat="47.681843" lon="2.066318">
        <ele>152</ele>
        <time>2022-01-20T09:13:30Z</time>
      </trkpt>
      <trkpt lat="47.68184" lon="2.0663283">
        <ele>152</ele>
        <time>2022-01-20T09:13:31Z</time>
      </trkpt>
      <trkpt lat="47.681835" lon="2.0663364">
        <ele>152</ele>
        <time>2022-01-20T09:13:32Z</time>
      </trkpt>
      <trkpt lat="47.681828" lon="2.066348">
        <ele>152</ele>
        <time>2022-01-20T09:13:33Z</time>
      </trkpt>
      <trkpt lat="47.681828" lon="2.066355">
        <ele>151</ele>
        <time>2022-01-20T09:13:34Z</time>
      </trkpt>
      <trkpt lat="47.681824" lon="2.0663626">
        <ele>151</ele>
        <time>2022-01-20T09:13:35Z</time>
      </trkpt>
      <trkpt lat="47.681824" lon="2.0663626">
        <ele>151</ele>
        <time>2022-01-20T09:13:35Z</time>
      </trkpt>
      <trkpt lat="47.681824" lon="2.0663626">
        <ele>151</ele>
        <time>2022-01-20T09:13:37Z</time>
      </trkpt>
      <trkpt lat="47.68182" lon="2.0663896">
        <ele>150</ele>
        <time>2022-01-20T09:13:38Z</time>
      </trkpt>
      <trkpt lat="47.681816" lon="2.0663986">
        <ele>150</ele>
        <time>2022-01-20T09:13:39Z</time>
      </trkpt>
      <trkpt lat="47.681805" lon="2.066406">
        <ele>150</ele>
        <time>2022-01-20T09:13:40Z</time>
      </trkpt>
      <trkpt lat="47.681797" lon="2.0664148">
        <ele>150</ele>
        <time>2022-01-20T09:13:41Z</time>
      </trkpt>
      <trkpt lat="47.681793" lon="2.0664265">
        <ele>150</ele>
        <time>2022-01-20T09:13:42Z</time>
      </trkpt>
      <trkpt lat="47.68179" lon="2.0664365">
        <ele>150</ele>
        <time>2022-01-20T09:13:43Z</time>
      </trkpt>
      <trkpt lat="47.681786" lon="2.0664408">
        <ele>150</ele>
        <time>2022-01-20T09:13:44Z</time>
      </trkpt>
      <trkpt lat="47.681778" lon="2.066448">
        <ele>150</ele>
        <time>2022-01-20T09:13:45Z</time>
      </trkpt>
      <trkpt lat="47.681767" lon="2.0664604">
        <ele>150</ele>
        <time>2022-01-20T09:13:46Z</time>
      </trkpt>
      <trkpt lat="47.68175" lon="2.0664985">
        <ele>150</ele>
        <time>2022-01-20T09:13:47Z</time>
      </trkpt>
      <trkpt lat="47.68175" lon="2.0664985">
        <ele>150</ele>
        <time>2022-01-20T09:13:47Z</time>
      </trkpt>
      <trkpt lat="47.681744" lon="2.0665112">
        <ele>149</ele>
        <time>2022-01-20T09:13:49Z</time>
      </trkpt>
      <trkpt lat="47.68174" lon="2.0665195">
        <ele>149</ele>
        <time>2022-01-20T09:13:50Z</time>
      </trkpt>
      <trkpt lat="47.68173" lon="2.0665483">
        <ele>148</ele>
        <time>2022-01-20T09:13:51Z</time>
      </trkpt>
      <trkpt lat="47.68173" lon="2.0665483">
        <ele>148</ele>
        <time>2022-01-20T09:13:51Z</time>
      </trkpt>
      <trkpt lat="47.681725" lon="2.066562">
        <ele>149</ele>
        <time>2022-01-20T09:13:54Z</time>
      </trkpt>
      <trkpt lat="47.681725" lon="2.0665758">
        <ele>149</ele>
        <time>2022-01-20T09:13:54Z</time>
      </trkpt>
      <trkpt lat="47.68172" lon="2.0665882">
        <ele>149</ele>
        <time>2022-01-20T09:13:56Z</time>
      </trkpt>
      <trkpt lat="47.681717" lon="2.066604">
        <ele>149</ele>
        <time>2022-01-20T09:13:57Z</time>
      </trkpt>
      <trkpt lat="47.681705" lon="2.0666196">
        <ele>148</ele>
        <time>2022-01-20T09:13:58Z</time>
      </trkpt>
      <trkpt lat="47.681698" lon="2.0666323">
        <ele>147</ele>
        <time>2022-01-20T09:13:59Z</time>
      </trkpt>
      <trkpt lat="47.681694" lon="2.0666454">
        <ele>147</ele>
        <time>2022-01-20T09:14:00Z</time>
      </trkpt>
      <trkpt lat="47.68169" lon="2.0666575">
        <ele>147</ele>
        <time>2022-01-20T09:14:01Z</time>
      </trkpt>
      <trkpt lat="47.68168" lon="2.0666924">
        <ele>147</ele>
        <time>2022-01-20T09:14:02Z</time>
      </trkpt>
      <trkpt lat="47.68168" lon="2.0666924">
        <ele>147</ele>
        <time>2022-01-20T09:14:02Z</time>
      </trkpt>
      <trkpt lat="47.68167" lon="2.0667036">
        <ele>147</ele>
        <time>2022-01-20T09:14:04Z</time>
      </trkpt>
      <trkpt lat="47.681664" lon="2.0667322">
        <ele>147</ele>
        <time>2022-01-20T09:14:05Z</time>
      </trkpt>
      <trkpt lat="47.68166" lon="2.0667374">
        <ele>146</ele>
        <time>2022-01-20T09:14:06Z</time>
      </trkpt>
      <trkpt lat="47.681652" lon="2.0667474">
        <ele>146</ele>
        <time>2022-01-20T09:14:07Z</time>
      </trkpt>
      <trkpt lat="47.681652" lon="2.0667474">
        <ele>146</ele>
        <time>2022-01-20T09:14:07Z</time>
      </trkpt>
      <trkpt lat="47.68165" lon="2.066759">
        <ele>146</ele>
        <time>2022-01-20T09:14:09Z</time>
      </trkpt>
      <trkpt lat="47.68165" lon="2.0667725">
        <ele>146</ele>
        <time>2022-01-20T09:14:10Z</time>
      </trkpt>
      <trkpt lat="47.681637" lon="2.0667944">
        <ele>146</ele>
        <time>2022-01-20T09:14:11Z</time>
      </trkpt>
      <trkpt lat="47.681637" lon="2.0667944">
        <ele>146</ele>
        <time>2022-01-20T09:14:11Z</time>
      </trkpt>
      <trkpt lat="47.681633" lon="2.066801">
        <ele>146</ele>
        <time>2022-01-20T09:14:13Z</time>
      </trkpt>
      <trkpt lat="47.68163" lon="2.0668118">
        <ele>146</ele>
        <time>2022-01-20T09:14:14Z</time>
      </trkpt>
      <trkpt lat="47.68162" lon="2.0668366">
        <ele>146</ele>
        <time>2022-01-20T09:14:15Z</time>
      </trkpt>
      <trkpt lat="47.681614" lon="2.066849">
        <ele>146</ele>
        <time>2022-01-20T09:14:16Z</time>
      </trkpt>
      <trkpt lat="47.681606" lon="2.0668585">
        <ele>146</ele>
        <time>2022-01-20T09:14:17Z</time>
      </trkpt>
      <trkpt lat="47.681606" lon="2.0668585">
        <ele>146</ele>
        <time>2022-01-20T09:14:17Z</time>
      </trkpt>
      <trkpt lat="47.681602" lon="2.0668702">
        <ele>146</ele>
        <time>2022-01-20T09:14:19Z</time>
      </trkpt>
      <trkpt lat="47.681595" lon="2.0668843">
        <ele>146</ele>
        <time>2022-01-20T09:14:20Z</time>
      </trkpt>
      <trkpt lat="47.68159" lon="2.0669007">
        <ele>145</ele>
        <time>2022-01-20T09:14:21Z</time>
      </trkpt>
      <trkpt lat="47.68158" lon="2.0669258">
        <ele>145</ele>
        <time>2022-01-20T09:14:22Z</time>
      </trkpt>
      <trkpt lat="47.681576" lon="2.066938">
        <ele>145</ele>
        <time>2022-01-20T09:14:23Z</time>
      </trkpt>
      <trkpt lat="47.681572" lon="2.0669482">
        <ele>144</ele>
        <time>2022-01-20T09:14:24Z</time>
      </trkpt>
      <trkpt lat="47.68157" lon="2.066961">
        <ele>144</ele>
        <time>2022-01-20T09:14:25Z</time>
      </trkpt>
      <trkpt lat="47.681564" lon="2.0669754">
        <ele>143</ele>
        <time>2022-01-20T09:14:26Z</time>
      </trkpt>
      <trkpt lat="47.681557" lon="2.06699">
        <ele>143</ele>
        <time>2022-01-20T09:14:27Z</time>
      </trkpt>
      <trkpt lat="47.681545" lon="2.0670009">
        <ele>143</ele>
        <time>2022-01-20T09:14:28Z</time>
      </trkpt>
      <trkpt lat="47.681538" lon="2.0670097">
        <ele>143</ele>
        <time>2022-01-20T09:14:29Z</time>
      </trkpt>
      <trkpt lat="47.68153" lon="2.0670266">
        <ele>143</ele>
        <time>2022-01-20T09:14:30Z</time>
      </trkpt>
      <trkpt lat="47.681522" lon="2.067039">
        <ele>143</ele>
        <time>2022-01-20T09:14:31Z</time>
      </trkpt>
      <trkpt lat="47.681522" lon="2.067039">
        <ele>143</ele>
        <time>2022-01-20T09:14:31Z</time>
      </trkpt>
      <trkpt lat="47.681515" lon="2.067055">
        <ele>143</ele>
        <time>2022-01-20T09:14:33Z</time>
      </trkpt>
      <trkpt lat="47.681496" lon="2.0670831">
        <ele>143</ele>
        <time>2022-01-20T09:14:34Z</time>
      </trkpt>
      <trkpt lat="47.68149" lon="2.0670974">
        <ele>142</ele>
        <time>2022-01-20T09:14:35Z</time>
      </trkpt>
      <trkpt lat="47.68149" lon="2.0670974">
        <ele>142</ele>
        <time>2022-01-20T09:14:35Z</time>
      </trkpt>
      <trkpt lat="47.68149" lon="2.0671165">
        <ele>142</ele>
        <time>2022-01-20T09:14:37Z</time>
      </trkpt>
      <trkpt lat="47.681488" lon="2.067133">
        <ele>142</ele>
        <time>2022-01-20T09:14:38Z</time>
      </trkpt>
      <trkpt lat="47.681484" lon="2.067155">
        <ele>141</ele>
        <time>2022-01-20T09:14:39Z</time>
      </trkpt>
      <trkpt lat="47.681477" lon="2.0671728">
        <ele>142</ele>
        <time>2022-01-20T09:14:40Z</time>
      </trkpt>
      <trkpt lat="47.681465" lon="2.0672014">
        <ele>142</ele>
        <time>2022-01-20T09:14:41Z</time>
      </trkpt>
      <trkpt lat="47.68146" lon="2.0672107">
        <ele>142</ele>
        <time>2022-01-20T09:14:42Z</time>
      </trkpt>
      <trkpt lat="47.681454" lon="2.0672193">
        <ele>142</ele>
        <time>2022-01-20T09:14:43Z</time>
      </trkpt>
      <trkpt lat="47.68145" lon="2.0672324">
        <ele>142</ele>
        <time>2022-01-20T09:14:44Z</time>
      </trkpt>
      <trkpt lat="47.68145" lon="2.0672324">
        <ele>142</ele>
        <time>2022-01-20T09:14:44Z</time>
      </trkpt>
      <trkpt lat="47.681442" lon="2.0672443">
        <ele>141</ele>
        <time>2022-01-20T09:14:46Z</time>
      </trkpt>
      <trkpt lat="47.681427" lon="2.0672567">
        <ele>141</ele>
        <time>2022-01-20T09:14:47Z</time>
      </trkpt>
      <trkpt lat="47.681423" lon="2.067273">
        <ele>141</ele>
        <time>2022-01-20T09:14:48Z</time>
      </trkpt>
      <trkpt lat="47.68142" lon="2.0672896">
        <ele>141</ele>
        <time>2022-01-20T09:14:49Z</time>
      </trkpt>
      <trkpt lat="47.681416" lon="2.0673065">
        <ele>141</ele>
        <time>2022-01-20T09:14:50Z</time>
      </trkpt>
      <trkpt lat="47.681408" lon="2.067318">
        <ele>141</ele>
        <time>2022-01-20T09:14:51Z</time>
      </trkpt>
      <trkpt lat="47.681396" lon="2.0673282">
        <ele>141</ele>
        <time>2022-01-20T09:14:52Z</time>
      </trkpt>
      <trkpt lat="47.681393" lon="2.0673392">
        <ele>141</ele>
        <time>2022-01-20T09:14:53Z</time>
      </trkpt>
      <trkpt lat="47.68139" lon="2.0673475">
        <ele>140</ele>
        <time>2022-01-20T09:14:54Z</time>
      </trkpt>
      <trkpt lat="47.68139" lon="2.0673475">
        <ele>140</ele>
        <time>2022-01-20T09:14:54Z</time>
      </trkpt>
      <trkpt lat="47.681385" lon="2.0673594">
        <ele>140</ele>
        <time>2022-01-20T09:14:56Z</time>
      </trkpt>
      <trkpt lat="47.681385" lon="2.0673785">
        <ele>140</ele>
        <time>2022-01-20T09:14:57Z</time>
      </trkpt>
      <trkpt lat="47.681374" lon="2.0674033">
        <ele>139</ele>
        <time>2022-01-20T09:14:58Z</time>
      </trkpt>
      <trkpt lat="47.681374" lon="2.0674033">
        <ele>139</ele>
        <time>2022-01-20T09:14:58Z</time>
      </trkpt>
      <trkpt lat="47.681374" lon="2.0674033">
        <ele>139</ele>
        <time>2022-01-20T09:15:00Z</time>
      </trkpt>
      <trkpt lat="47.681374" lon="2.0674033">
        <ele>139</ele>
        <time>2022-01-20T09:15:01Z</time>
      </trkpt>
      <trkpt lat="47.681355" lon="2.067456">
        <ele>139</ele>
        <time>2022-01-20T09:15:02Z</time>
      </trkpt>
      <trkpt lat="47.681347" lon="2.0674675">
        <ele>138</ele>
        <time>2022-01-20T09:15:03Z</time>
      </trkpt>
      <trkpt lat="47.68134" lon="2.0674791">
        <ele>138</ele>
        <time>2022-01-20T09:15:04Z</time>
      </trkpt>
      <trkpt lat="47.68133" lon="2.0674908">
        <ele>137</ele>
        <time>2022-01-20T09:15:05Z</time>
      </trkpt>
      <trkpt lat="47.681328" lon="2.0675077">
        <ele>137</ele>
        <time>2022-01-20T09:15:06Z</time>
      </trkpt>
      <trkpt lat="47.681328" lon="2.0675244">
        <ele>138</ele>
        <time>2022-01-20T09:15:07Z</time>
      </trkpt>
      <trkpt lat="47.681316" lon="2.067542">
        <ele>137</ele>
        <time>2022-01-20T09:15:08Z</time>
      </trkpt>
      <trkpt lat="47.681313" lon="2.0675564">
        <ele>137</ele>
        <time>2022-01-20T09:15:09Z</time>
      </trkpt>
      <trkpt lat="47.681305" lon="2.0675688">
        <ele>136</ele>
        <time>2022-01-20T09:15:10Z</time>
      </trkpt>
      <trkpt lat="47.681297" lon="2.067585">
        <ele>136</ele>
        <time>2022-01-20T09:15:11Z</time>
      </trkpt>
      <trkpt lat="47.68129" lon="2.0676067">
        <ele>135</ele>
        <time>2022-01-20T09:15:12Z</time>
      </trkpt>
      <trkpt lat="47.681286" lon="2.0676157">
        <ele>136</ele>
        <time>2022-01-20T09:15:13Z</time>
      </trkpt>
      <trkpt lat="47.681286" lon="2.0676157">
        <ele>136</ele>
        <time>2022-01-20T09:15:13Z</time>
      </trkpt>
      <trkpt lat="47.681274" lon="2.0676262">
        <ele>135</ele>
        <time>2022-01-20T09:15:15Z</time>
      </trkpt>
      <trkpt lat="47.68126" lon="2.067635">
        <ele>135</ele>
        <time>2022-01-20T09:15:16Z</time>
      </trkpt>
      <trkpt lat="47.68125" lon="2.0676491">
        <ele>135</ele>
        <time>2022-01-20T09:15:17Z</time>
      </trkpt>
      <trkpt lat="47.681244" lon="2.0676649">
        <ele>136</ele>
        <time>2022-01-20T09:15:18Z</time>
      </trkpt>
      <trkpt lat="47.681232" lon="2.0676777">
        <ele>136</ele>
        <time>2022-01-20T09:15:19Z</time>
      </trkpt>
      <trkpt lat="47.681225" lon="2.0676887">
        <ele>136</ele>
        <time>2022-01-20T09:15:20Z</time>
      </trkpt>
      <trkpt lat="47.68122" lon="2.067698">
        <ele>135</ele>
        <time>2022-01-20T09:15:21Z</time>
      </trkpt>
      <trkpt lat="47.681213" lon="2.0677128">
        <ele>135</ele>
        <time>2022-01-20T09:15:22Z</time>
      </trkpt>
      <trkpt lat="47.681202" lon="2.0677261">
        <ele>135</ele>
        <time>2022-01-20T09:15:23Z</time>
      </trkpt>
      <trkpt lat="47.681194" lon="2.0677452">
        <ele>135</ele>
        <time>2022-01-20T09:15:24Z</time>
      </trkpt>
      <trkpt lat="47.681187" lon="2.067761">
        <ele>135</ele>
        <time>2022-01-20T09:15:25Z</time>
      </trkpt>
      <trkpt lat="47.68118" lon="2.067775">
        <ele>135</ele>
        <time>2022-01-20T09:15:26Z</time>
      </trkpt>
      <trkpt lat="47.681168" lon="2.067792">
        <ele>135</ele>
        <time>2022-01-20T09:15:27Z</time>
      </trkpt>
      <trkpt lat="47.68116" lon="2.067812">
        <ele>136</ele>
        <time>2022-01-20T09:15:28Z</time>
      </trkpt>
      <trkpt lat="47.681156" lon="2.0678368">
        <ele>136</ele>
        <time>2022-01-20T09:15:29Z</time>
      </trkpt>
      <trkpt lat="47.681152" lon="2.067854">
        <ele>137</ele>
        <time>2022-01-20T09:15:30Z</time>
      </trkpt>
      <trkpt lat="47.68115" lon="2.0678666">
        <ele>137</ele>
        <time>2022-01-20T09:15:31Z</time>
      </trkpt>
      <trkpt lat="47.681145" lon="2.0678813">
        <ele>137</ele>
        <time>2022-01-20T09:15:32Z</time>
      </trkpt>
      <trkpt lat="47.681137" lon="2.067899">
        <ele>137</ele>
        <time>2022-01-20T09:15:33Z</time>
      </trkpt>
      <trkpt lat="47.68113" lon="2.0679164">
        <ele>137</ele>
        <time>2022-01-20T09:15:34Z</time>
      </trkpt>
      <trkpt lat="47.681126" lon="2.0679314">
        <ele>138</ele>
        <time>2022-01-20T09:15:35Z</time>
      </trkpt>
      <trkpt lat="47.681118" lon="2.067947">
        <ele>138</ele>
        <time>2022-01-20T09:15:36Z</time>
      </trkpt>
      <trkpt lat="47.68111" lon="2.0679605">
        <ele>138</ele>
        <time>2022-01-20T09:15:37Z</time>
      </trkpt>
      <trkpt lat="47.6811" lon="2.067975">
        <ele>139</ele>
        <time>2022-01-20T09:15:38Z</time>
      </trkpt>
      <trkpt lat="47.681095" lon="2.067991">
        <ele>139</ele>
        <time>2022-01-20T09:15:39Z</time>
      </trkpt>
      <trkpt lat="47.68109" lon="2.0680044">
        <ele>139</ele>
        <time>2022-01-20T09:15:40Z</time>
      </trkpt>
      <trkpt lat="47.681084" lon="2.068017">
        <ele>139</ele>
        <time>2022-01-20T09:15:41Z</time>
      </trkpt>
      <trkpt lat="47.681076" lon="2.0680296">
        <ele>139</ele>
        <time>2022-01-20T09:15:42Z</time>
      </trkpt>
      <trkpt lat="47.68107" lon="2.0680432">
        <ele>139</ele>
        <time>2022-01-20T09:15:43Z</time>
      </trkpt>
      <trkpt lat="47.681057" lon="2.0680559">
        <ele>139</ele>
        <time>2022-01-20T09:15:44Z</time>
      </trkpt>
      <trkpt lat="47.68105" lon="2.0680723">
        <ele>139</ele>
        <time>2022-01-20T09:15:45Z</time>
      </trkpt>
      <trkpt lat="47.68104" lon="2.0680869">
        <ele>139</ele>
        <time>2022-01-20T09:15:46Z</time>
      </trkpt>
      <trkpt lat="47.681034" lon="2.0681026">
        <ele>139</ele>
        <time>2022-01-20T09:15:47Z</time>
      </trkpt>
      <trkpt lat="47.68103" lon="2.0681195">
        <ele>139</ele>
        <time>2022-01-20T09:15:48Z</time>
      </trkpt>
      <trkpt lat="47.681023" lon="2.068135">
        <ele>140</ele>
        <time>2022-01-20T09:15:49Z</time>
      </trkpt>
      <trkpt lat="47.68101" lon="2.0681489">
        <ele>140</ele>
        <time>2022-01-20T09:15:50Z</time>
      </trkpt>
      <trkpt lat="47.681" lon="2.0681624">
        <ele>141</ele>
        <time>2022-01-20T09:15:51Z</time>
      </trkpt>
      <trkpt lat="47.680992" lon="2.0681763">
        <ele>141</ele>
        <time>2022-01-20T09:15:52Z</time>
      </trkpt>
      <trkpt lat="47.680984" lon="2.0681865">
        <ele>141</ele>
        <time>2022-01-20T09:15:53Z</time>
      </trkpt>
      <trkpt lat="47.680973" lon="2.0681984">
        <ele>142</ele>
        <time>2022-01-20T09:15:54Z</time>
      </trkpt>
      <trkpt lat="47.68096" lon="2.0682104">
        <ele>142</ele>
        <time>2022-01-20T09:15:55Z</time>
      </trkpt>
      <trkpt lat="47.680954" lon="2.0682244">
        <ele>142</ele>
        <time>2022-01-20T09:15:56Z</time>
      </trkpt>
      <trkpt lat="47.68095" lon="2.0682416">
        <ele>142</ele>
        <time>2022-01-20T09:15:57Z</time>
      </trkpt>
      <trkpt lat="47.68094" lon="2.0682623">
        <ele>142</ele>
        <time>2022-01-20T09:15:58Z</time>
      </trkpt>
      <trkpt lat="47.680927" lon="2.0682755">
        <ele>142</ele>
        <time>2022-01-20T09:15:59Z</time>
      </trkpt>
      <trkpt lat="47.680916" lon="2.068288">
        <ele>143</ele>
        <time>2022-01-20T09:16:00Z</time>
      </trkpt>
      <trkpt lat="47.68091" lon="2.0683036">
        <ele>143</ele>
        <time>2022-01-20T09:16:01Z</time>
      </trkpt>
      <trkpt lat="47.6809" lon="2.0683177">
        <ele>142</ele>
        <time>2022-01-20T09:16:02Z</time>
      </trkpt>
      <trkpt lat="47.680897" lon="2.0683331">
        <ele>142</ele>
        <time>2022-01-20T09:16:03Z</time>
      </trkpt>
      <trkpt lat="47.68089" lon="2.0683482">
        <ele>143</ele>
        <time>2022-01-20T09:16:04Z</time>
      </trkpt>
      <trkpt lat="47.68088" lon="2.0683603">
        <ele>142</ele>
        <time>2022-01-20T09:16:05Z</time>
      </trkpt>
      <trkpt lat="47.680874" lon="2.0683749">
        <ele>142</ele>
        <time>2022-01-20T09:16:06Z</time>
      </trkpt>
      <trkpt lat="47.68087" lon="2.0683904">
        <ele>142</ele>
        <time>2022-01-20T09:16:07Z</time>
      </trkpt>
      <trkpt lat="47.680866" lon="2.0684075">
        <ele>142</ele>
        <time>2022-01-20T09:16:08Z</time>
      </trkpt>
      <trkpt lat="47.68086" lon="2.0684237">
        <ele>142</ele>
        <time>2022-01-20T09:16:09Z</time>
      </trkpt>
      <trkpt lat="47.680855" lon="2.0684402">
        <ele>143</ele>
        <time>2022-01-20T09:16:10Z</time>
      </trkpt>
      <trkpt lat="47.680847" lon="2.0684524">
        <ele>143</ele>
        <time>2022-01-20T09:16:11Z</time>
      </trkpt>
      <trkpt lat="47.680836" lon="2.0684648">
        <ele>143</ele>
        <time>2022-01-20T09:16:12Z</time>
      </trkpt>
      <trkpt lat="47.680832" lon="2.0684814">
        <ele>144</ele>
        <time>2022-01-20T09:16:13Z</time>
      </trkpt>
      <trkpt lat="47.68083" lon="2.0684905">
        <ele>144</ele>
        <time>2022-01-20T09:16:14Z</time>
      </trkpt>
      <trkpt lat="47.68082" lon="2.0685012">
        <ele>144</ele>
        <time>2022-01-20T09:16:15Z</time>
      </trkpt>
      <trkpt lat="47.680813" lon="2.0685143">
        <ele>143</ele>
        <time>2022-01-20T09:16:16Z</time>
      </trkpt>
      <trkpt lat="47.68081" lon="2.0685303">
        <ele>143</ele>
        <time>2022-01-20T09:16:17Z</time>
      </trkpt>
      <trkpt lat="47.6808" lon="2.0685468">
        <ele>143</ele>
        <time>2022-01-20T09:16:18Z</time>
      </trkpt>
      <trkpt lat="47.680798" lon="2.068563">
        <ele>143</ele>
        <time>2022-01-20T09:16:19Z</time>
      </trkpt>
      <trkpt lat="47.68079" lon="2.0685797">
        <ele>143</ele>
        <time>2022-01-20T09:16:20Z</time>
      </trkpt>
      <trkpt lat="47.680786" lon="2.068598">
        <ele>143</ele>
        <time>2022-01-20T09:16:21Z</time>
      </trkpt>
      <trkpt lat="47.68078" lon="2.0686152">
        <ele>143</ele>
        <time>2022-01-20T09:16:22Z</time>
      </trkpt>
      <trkpt lat="47.68077" lon="2.0686195">
        <ele>143</ele>
        <time>2022-01-20T09:16:23Z</time>
      </trkpt>
      <trkpt lat="47.68077" lon="2.068629">
        <ele>143</ele>
        <time>2022-01-20T09:16:24Z</time>
      </trkpt>
      <trkpt lat="47.68077" lon="2.0686429">
        <ele>143</ele>
        <time>2022-01-20T09:16:25Z</time>
      </trkpt>
      <trkpt lat="47.680767" lon="2.0686593">
        <ele>143</ele>
        <time>2022-01-20T09:16:26Z</time>
      </trkpt>
      <trkpt lat="47.680763" lon="2.068677">
        <ele>143</ele>
        <time>2022-01-20T09:16:27Z</time>
      </trkpt>
      <trkpt lat="47.68076" lon="2.0686927">
        <ele>143</ele>
        <time>2022-01-20T09:16:28Z</time>
      </trkpt>
      <trkpt lat="47.680756" lon="2.0687091">
        <ele>143</ele>
        <time>2022-01-20T09:16:29Z</time>
      </trkpt>
      <trkpt lat="47.680756" lon="2.068729">
        <ele>143</ele>
        <time>2022-01-20T09:16:30Z</time>
      </trkpt>
      <trkpt lat="47.68075" lon="2.0687482">
        <ele>143</ele>
        <time>2022-01-20T09:16:31Z</time>
      </trkpt>
      <trkpt lat="47.68075" lon="2.0687673">
        <ele>143</ele>
        <time>2022-01-20T09:16:32Z</time>
      </trkpt>
      <trkpt lat="47.680748" lon="2.0687842">
        <ele>143</ele>
        <time>2022-01-20T09:16:33Z</time>
      </trkpt>
      <trkpt lat="47.68074" lon="2.0687947">
        <ele>143</ele>
        <time>2022-01-20T09:16:34Z</time>
      </trkpt>
      <trkpt lat="47.680733" lon="2.0688043">
        <ele>143</ele>
        <time>2022-01-20T09:16:35Z</time>
      </trkpt>
      <trkpt lat="47.680725" lon="2.0688174">
        <ele>143</ele>
        <time>2022-01-20T09:16:36Z</time>
      </trkpt>
      <trkpt lat="47.680717" lon="2.0688326">
        <ele>143</ele>
        <time>2022-01-20T09:16:37Z</time>
      </trkpt>
      <trkpt lat="47.68071" lon="2.0688424">
        <ele>142</ele>
        <time>2022-01-20T09:16:38Z</time>
      </trkpt>
      <trkpt lat="47.680702" lon="2.068854">
        <ele>142</ele>
        <time>2022-01-20T09:16:39Z</time>
      </trkpt>
      <trkpt lat="47.680695" lon="2.068868">
        <ele>142</ele>
        <time>2022-01-20T09:16:40Z</time>
      </trkpt>
      <trkpt lat="47.680687" lon="2.068878">
        <ele>142</ele>
        <time>2022-01-20T09:16:41Z</time>
      </trkpt>
      <trkpt lat="47.680676" lon="2.0688858">
        <ele>142</ele>
        <time>2022-01-20T09:16:42Z</time>
      </trkpt>
      <trkpt lat="47.680668" lon="2.0688903">
        <ele>142</ele>
        <time>2022-01-20T09:16:43Z</time>
      </trkpt>
      <trkpt lat="47.68066" lon="2.0688992">
        <ele>142</ele>
        <time>2022-01-20T09:16:44Z</time>
      </trkpt>
      <trkpt lat="47.680656" lon="2.0689144">
        <ele>142</ele>
        <time>2022-01-20T09:16:45Z</time>
      </trkpt>
      <trkpt lat="47.680653" lon="2.0689323">
        <ele>143</ele>
        <time>2022-01-20T09:16:46Z</time>
      </trkpt>
      <trkpt lat="47.680653" lon="2.068944">
        <ele>143</ele>
        <time>2022-01-20T09:16:47Z</time>
      </trkpt>
      <trkpt lat="47.68065" lon="2.0689588">
        <ele>143</ele>
        <time>2022-01-20T09:16:48Z</time>
      </trkpt>
      <trkpt lat="47.680645" lon="2.0689752">
        <ele>143</ele>
        <time>2022-01-20T09:16:49Z</time>
      </trkpt>
      <trkpt lat="47.68064" lon="2.0689943">
        <ele>143</ele>
        <time>2022-01-20T09:16:50Z</time>
      </trkpt>
      <trkpt lat="47.680634" lon="2.0690124">
        <ele>142</ele>
        <time>2022-01-20T09:16:51Z</time>
      </trkpt>
      <trkpt lat="47.680626" lon="2.069027">
        <ele>142</ele>
        <time>2022-01-20T09:16:52Z</time>
      </trkpt>
      <trkpt lat="47.680622" lon="2.0690453">
        <ele>142</ele>
        <time>2022-01-20T09:16:53Z</time>
      </trkpt>
      <trkpt lat="47.68062" lon="2.0690627">
        <ele>142</ele>
        <time>2022-01-20T09:16:54Z</time>
      </trkpt>
      <trkpt lat="47.680614" lon="2.0690806">
        <ele>141</ele>
        <time>2022-01-20T09:16:55Z</time>
      </trkpt>
      <trkpt lat="47.680607" lon="2.0690985">
        <ele>141</ele>
        <time>2022-01-20T09:16:56Z</time>
      </trkpt>
      <trkpt lat="47.680603" lon="2.0691104">
        <ele>141</ele>
        <time>2022-01-20T09:16:57Z</time>
      </trkpt>
      <trkpt lat="47.6806" lon="2.0691242">
        <ele>141</ele>
        <time>2022-01-20T09:16:58Z</time>
      </trkpt>
      <trkpt lat="47.680595" lon="2.069143">
        <ele>141</ele>
        <time>2022-01-20T09:16:59Z</time>
      </trkpt>
      <trkpt lat="47.68059" lon="2.069164">
        <ele>141</ele>
        <time>2022-01-20T09:17:00Z</time>
      </trkpt>
      <trkpt lat="47.680588" lon="2.0691805">
        <ele>140</ele>
        <time>2022-01-20T09:17:01Z</time>
      </trkpt>
      <trkpt lat="47.68058" lon="2.069197">
        <ele>140</ele>
        <time>2022-01-20T09:17:02Z</time>
      </trkpt>
      <trkpt lat="47.680576" lon="2.0692153">
        <ele>140</ele>
        <time>2022-01-20T09:17:03Z</time>
      </trkpt>
      <trkpt lat="47.680565" lon="2.0692341">
        <ele>140</ele>
        <time>2022-01-20T09:17:04Z</time>
      </trkpt>
      <trkpt lat="47.680553" lon="2.0692508">
        <ele>140</ele>
        <time>2022-01-20T09:17:05Z</time>
      </trkpt>
      <trkpt lat="47.680542" lon="2.0692677">
        <ele>140</ele>
        <time>2022-01-20T09:17:06Z</time>
      </trkpt>
      <trkpt lat="47.680534" lon="2.0692813">
        <ele>140</ele>
        <time>2022-01-20T09:17:07Z</time>
      </trkpt>
      <trkpt lat="47.68053" lon="2.0692973">
        <ele>140</ele>
        <time>2022-01-20T09:17:08Z</time>
      </trkpt>
      <trkpt lat="47.680523" lon="2.0693142">
        <ele>140</ele>
        <time>2022-01-20T09:17:09Z</time>
      </trkpt>
      <trkpt lat="47.68052" lon="2.0693297">
        <ele>140</ele>
        <time>2022-01-20T09:17:10Z</time>
      </trkpt>
      <trkpt lat="47.68051" lon="2.0693471">
        <ele>140</ele>
        <time>2022-01-20T09:17:11Z</time>
      </trkpt>
      <trkpt lat="47.680504" lon="2.0693643">
        <ele>140</ele>
        <time>2022-01-20T09:17:12Z</time>
      </trkpt>
      <trkpt lat="47.6805" lon="2.06938">
        <ele>140</ele>
        <time>2022-01-20T09:17:13Z</time>
      </trkpt>
      <trkpt lat="47.680492" lon="2.0693946">
        <ele>141</ele>
        <time>2022-01-20T09:17:14Z</time>
      </trkpt>
      <trkpt lat="47.68049" lon="2.0694096">
        <ele>140</ele>
        <time>2022-01-20T09:17:15Z</time>
      </trkpt>
      <trkpt lat="47.680477" lon="2.0694249">
        <ele>140</ele>
        <time>2022-01-20T09:17:16Z</time>
      </trkpt>
      <trkpt lat="47.680466" lon="2.069439">
        <ele>140</ele>
        <time>2022-01-20T09:17:17Z</time>
      </trkpt>
      <trkpt lat="47.680458" lon="2.0694528">
        <ele>140</ele>
        <time>2022-01-20T09:17:18Z</time>
      </trkpt>
      <trkpt lat="47.68045" lon="2.0694695">
        <ele>140</ele>
        <time>2022-01-20T09:17:19Z</time>
      </trkpt>
      <trkpt lat="47.680447" lon="2.0694864">
        <ele>140</ele>
        <time>2022-01-20T09:17:20Z</time>
      </trkpt>
      <trkpt lat="47.68044" lon="2.0694945">
        <ele>140</ele>
        <time>2022-01-20T09:17:21Z</time>
      </trkpt>
      <trkpt lat="47.68043" lon="2.069512">
        <ele>140</ele>
        <time>2022-01-20T09:17:22Z</time>
      </trkpt>
      <trkpt lat="47.680428" lon="2.0695264">
        <ele>140</ele>
        <time>2022-01-20T09:17:23Z</time>
      </trkpt>
      <trkpt lat="47.680416" lon="2.0695417">
        <ele>140</ele>
        <time>2022-01-20T09:17:24Z</time>
      </trkpt>
      <trkpt lat="47.680412" lon="2.0695603">
        <ele>141</ele>
        <time>2022-01-20T09:17:25Z</time>
      </trkpt>
      <trkpt lat="47.680412" lon="2.0695808">
        <ele>141</ele>
        <time>2022-01-20T09:17:26Z</time>
      </trkpt>
      <trkpt lat="47.680416" lon="2.0695982">
        <ele>141</ele>
        <time>2022-01-20T09:17:27Z</time>
      </trkpt>
      <trkpt lat="47.68042" lon="2.069615">
        <ele>142</ele>
        <time>2022-01-20T09:17:28Z</time>
      </trkpt>
      <trkpt lat="47.68042" lon="2.069629">
        <ele>142</ele>
        <time>2022-01-20T09:17:29Z</time>
      </trkpt>
      <trkpt lat="47.68042" lon="2.0696394">
        <ele>143</ele>
        <time>2022-01-20T09:17:30Z</time>
      </trkpt>
      <trkpt lat="47.68042" lon="2.0696516">
        <ele>143</ele>
        <time>2022-01-20T09:17:31Z</time>
      </trkpt>
      <trkpt lat="47.68042" lon="2.069663">
        <ele>143</ele>
        <time>2022-01-20T09:17:32Z</time>
      </trkpt>
      <trkpt lat="47.680424" lon="2.0696754">
        <ele>144</ele>
        <time>2022-01-20T09:17:33Z</time>
      </trkpt>
      <trkpt lat="47.68042" lon="2.069697">
        <ele>145</ele>
        <time>2022-01-20T09:17:34Z</time>
      </trkpt>
      <trkpt lat="47.680416" lon="2.0697105">
        <ele>146</ele>
        <time>2022-01-20T09:17:35Z</time>
      </trkpt>
      <trkpt lat="47.680412" lon="2.069728">
        <ele>146</ele>
        <time>2022-01-20T09:17:36Z</time>
      </trkpt>
      <trkpt lat="47.68041" lon="2.0697484">
        <ele>147</ele>
        <time>2022-01-20T09:17:37Z</time>
      </trkpt>
      <trkpt lat="47.680416" lon="2.069761">
        <ele>147</ele>
        <time>2022-01-20T09:17:38Z</time>
      </trkpt>
      <trkpt lat="47.68042" lon="2.069768">
        <ele>148</ele>
        <time>2022-01-20T09:17:39Z</time>
      </trkpt>
      <trkpt lat="47.680428" lon="2.0697746">
        <ele>148</ele>
        <time>2022-01-20T09:17:40Z</time>
      </trkpt>
      <trkpt lat="47.680435" lon="2.0697773">
        <ele>148</ele>
        <time>2022-01-20T09:17:41Z</time>
      </trkpt>
      <trkpt lat="47.680447" lon="2.069778">
        <ele>148</ele>
        <time>2022-01-20T09:17:42Z</time>
      </trkpt>
      <trkpt lat="47.680458" lon="2.0697813">
        <ele>148</ele>
        <time>2022-01-20T09:17:43Z</time>
      </trkpt>
      <trkpt lat="47.68047" lon="2.0697844">
        <ele>149</ele>
        <time>2022-01-20T09:17:44Z</time>
      </trkpt>
      <trkpt lat="47.680477" lon="2.0697892">
        <ele>149</ele>
        <time>2022-01-20T09:17:45Z</time>
      </trkpt>
      <trkpt lat="47.68049" lon="2.0697894">
        <ele>149</ele>
        <time>2022-01-20T09:17:46Z</time>
      </trkpt>
      <trkpt lat="47.6805" lon="2.0697904">
        <ele>149</ele>
        <time>2022-01-20T09:17:47Z</time>
      </trkpt>
      <trkpt lat="47.680508" lon="2.0697963">
        <ele>149</ele>
        <time>2022-01-20T09:17:48Z</time>
      </trkpt>
      <trkpt lat="47.680515" lon="2.0698066">
        <ele>149</ele>
        <time>2022-01-20T09:17:49Z</time>
      </trkpt>
      <trkpt lat="47.68052" lon="2.0698178">
        <ele>150</ele>
        <time>2022-01-20T09:17:50Z</time>
      </trkpt>
      <trkpt lat="47.680527" lon="2.0698252">
        <ele>150</ele>
        <time>2022-01-20T09:17:51Z</time>
      </trkpt>
      <trkpt lat="47.68054" lon="2.0698338">
        <ele>150</ele>
        <time>2022-01-20T09:17:52Z</time>
      </trkpt>
      <trkpt lat="47.680546" lon="2.069835">
        <ele>150</ele>
        <time>2022-01-20T09:17:53Z</time>
      </trkpt>
      <trkpt lat="47.680557" lon="2.0698402">
        <ele>151</ele>
        <time>2022-01-20T09:17:54Z</time>
      </trkpt>
      <trkpt lat="47.68057" lon="2.069846">
        <ele>151</ele>
        <time>2022-01-20T09:17:55Z</time>
      </trkpt>
      <trkpt lat="47.680584" lon="2.069846">
        <ele>152</ele>
        <time>2022-01-20T09:17:56Z</time>
      </trkpt>
      <trkpt lat="47.6806" lon="2.0698495">
        <ele>152</ele>
        <time>2022-01-20T09:17:57Z</time>
      </trkpt>
      <trkpt lat="47.68061" lon="2.0698547">
        <ele>152</ele>
        <time>2022-01-20T09:17:58Z</time>
      </trkpt>
      <trkpt lat="47.680622" lon="2.0698595">
        <ele>152</ele>
        <time>2022-01-20T09:17:59Z</time>
      </trkpt>
      <trkpt lat="47.680634" lon="2.0698593">
        <ele>152</ele>
        <time>2022-01-20T09:18:00Z</time>
      </trkpt>
      <trkpt lat="47.680653" lon="2.0698607">
        <ele>152</ele>
        <time>2022-01-20T09:18:01Z</time>
      </trkpt>
      <trkpt lat="47.68068" lon="2.0698729">
        <ele>153</ele>
        <time>2022-01-20T09:18:03Z</time>
      </trkpt>
      <trkpt lat="47.6807" lon="2.0698757">
        <ele>153</ele>
        <time>2022-01-20T09:18:05Z</time>
      </trkpt>
      <trkpt lat="47.680706" lon="2.0698826">
        <ele>153</ele>
        <time>2022-01-20T09:18:06Z</time>
      </trkpt>
      <trkpt lat="47.680717" lon="2.0698912">
        <ele>153</ele>
        <time>2022-01-20T09:18:07Z</time>
      </trkpt>
      <trkpt lat="47.68073" lon="2.0698977">
        <ele>153</ele>
        <time>2022-01-20T09:18:08Z</time>
      </trkpt>
      <trkpt lat="47.68074" lon="2.0699036">
        <ele>154</ele>
        <time>2022-01-20T09:18:09Z</time>
      </trkpt>
      <trkpt lat="47.68075" lon="2.0699162">
        <ele>153</ele>
        <time>2022-01-20T09:18:10Z</time>
      </trkpt>
      <trkpt lat="47.680763" lon="2.0699236">
        <ele>154</ele>
        <time>2022-01-20T09:18:11Z</time>
      </trkpt>
      <trkpt lat="47.68077" lon="2.0699296">
        <ele>154</ele>
        <time>2022-01-20T09:18:12Z</time>
      </trkpt>
      <trkpt lat="47.68078" lon="2.0699391">
        <ele>154</ele>
        <time>2022-01-20T09:18:13Z</time>
      </trkpt>
      <trkpt lat="47.680782" lon="2.069948">
        <ele>154</ele>
        <time>2022-01-20T09:18:14Z</time>
      </trkpt>
      <trkpt lat="47.68079" lon="2.0699565">
        <ele>154</ele>
        <time>2022-01-20T09:18:15Z</time>
      </trkpt>
      <trkpt lat="47.6808" lon="2.0699592">
        <ele>153</ele>
        <time>2022-01-20T09:18:16Z</time>
      </trkpt>
      <trkpt lat="47.680817" lon="2.0699613">
        <ele>153</ele>
        <time>2022-01-20T09:18:17Z</time>
      </trkpt>
      <trkpt lat="47.680824" lon="2.0699651">
        <ele>154</ele>
        <time>2022-01-20T09:18:18Z</time>
      </trkpt>
      <trkpt lat="47.680836" lon="2.0699694">
        <ele>154</ele>
        <time>2022-01-20T09:18:19Z</time>
      </trkpt>
      <trkpt lat="47.68085" lon="2.069971">
        <ele>154</ele>
        <time>2022-01-20T09:18:20Z</time>
      </trkpt>
      <trkpt lat="47.680862" lon="2.0699768">
        <ele>153</ele>
        <time>2022-01-20T09:18:21Z</time>
      </trkpt>
      <trkpt lat="47.680874" lon="2.0699828">
        <ele>154</ele>
        <time>2022-01-20T09:18:22Z</time>
      </trkpt>
      <trkpt lat="47.68089" lon="2.0699923">
        <ele>154</ele>
        <time>2022-01-20T09:18:23Z</time>
      </trkpt>
      <trkpt lat="47.680904" lon="2.0700023">
        <ele>154</ele>
        <time>2022-01-20T09:18:24Z</time>
      </trkpt>
      <trkpt lat="47.68092" lon="2.0700076">
        <ele>154</ele>
        <time>2022-01-20T09:18:25Z</time>
      </trkpt>
      <trkpt lat="47.680935" lon="2.0700135">
        <ele>154</ele>
        <time>2022-01-20T09:18:26Z</time>
      </trkpt>
      <trkpt lat="47.680946" lon="2.070017">
        <ele>154</ele>
        <time>2022-01-20T09:18:27Z</time>
      </trkpt>
      <trkpt lat="47.68096" lon="2.0700216">
        <ele>155</ele>
        <time>2022-01-20T09:18:28Z</time>
      </trkpt>
      <trkpt lat="47.680973" lon="2.0700269">
        <ele>155</ele>
        <time>2022-01-20T09:18:29Z</time>
      </trkpt>
      <trkpt lat="47.68098" lon="2.0700355">
        <ele>155</ele>
        <time>2022-01-20T09:18:30Z</time>
      </trkpt>
      <trkpt lat="47.68099" lon="2.070041">
        <ele>154</ele>
        <time>2022-01-20T09:18:31Z</time>
      </trkpt>
      <trkpt lat="47.680996" lon="2.0700476">
        <ele>154</ele>
        <time>2022-01-20T09:18:32Z</time>
      </trkpt>
      <trkpt lat="47.681004" lon="2.0700521">
        <ele>154</ele>
        <time>2022-01-20T09:18:33Z</time>
      </trkpt>
      <trkpt lat="47.68101" lon="2.0700526">
        <ele>154</ele>
        <time>2022-01-20T09:18:34Z</time>
      </trkpt>
      <trkpt lat="47.68102" lon="2.0700545">
        <ele>154</ele>
        <time>2022-01-20T09:18:35Z</time>
      </trkpt>
      <trkpt lat="47.68103" lon="2.0700512">
        <ele>154</ele>
        <time>2022-01-20T09:18:36Z</time>
      </trkpt>
      <trkpt lat="47.68104" lon="2.0700564">
        <ele>154</ele>
        <time>2022-01-20T09:18:37Z</time>
      </trkpt>
      <trkpt lat="47.681053" lon="2.0700595">
        <ele>154</ele>
        <time>2022-01-20T09:18:38Z</time>
      </trkpt>
      <trkpt lat="47.681065" lon="2.0700645">
        <ele>154</ele>
        <time>2022-01-20T09:18:39Z</time>
      </trkpt>
      <trkpt lat="47.681076" lon="2.070065">
        <ele>154</ele>
        <time>2022-01-20T09:18:40Z</time>
      </trkpt>
      <trkpt lat="47.681087" lon="2.0700715">
        <ele>154</ele>
        <time>2022-01-20T09:18:41Z</time>
      </trkpt>
      <trkpt lat="47.6811" lon="2.0700767">
        <ele>153</ele>
        <time>2022-01-20T09:18:42Z</time>
      </trkpt>
      <trkpt lat="47.681107" lon="2.070086">
        <ele>153</ele>
        <time>2022-01-20T09:18:43Z</time>
      </trkpt>
      <trkpt lat="47.681118" lon="2.0700917">
        <ele>153</ele>
        <time>2022-01-20T09:18:44Z</time>
      </trkpt>
      <trkpt lat="47.68113" lon="2.070096">
        <ele>153</ele>
        <time>2022-01-20T09:18:45Z</time>
      </trkpt>
      <trkpt lat="47.68114" lon="2.0701046">
        <ele>153</ele>
        <time>2022-01-20T09:18:46Z</time>
      </trkpt>
      <trkpt lat="47.681156" lon="2.0701106">
        <ele>153</ele>
        <time>2022-01-20T09:18:47Z</time>
      </trkpt>
      <trkpt lat="47.681168" lon="2.0701168">
        <ele>153</ele>
        <time>2022-01-20T09:18:48Z</time>
      </trkpt>
      <trkpt lat="47.681175" lon="2.07013">
        <ele>153</ele>
        <time>2022-01-20T09:18:49Z</time>
      </trkpt>
      <trkpt lat="47.681183" lon="2.0701349">
        <ele>153</ele>
        <time>2022-01-20T09:18:50Z</time>
      </trkpt>
      <trkpt lat="47.681194" lon="2.0701437">
        <ele>153</ele>
        <time>2022-01-20T09:18:51Z</time>
      </trkpt>
      <trkpt lat="47.681202" lon="2.0701566">
        <ele>153</ele>
        <time>2022-01-20T09:18:52Z</time>
      </trkpt>
      <trkpt lat="47.681213" lon="2.0701652">
        <ele>153</ele>
        <time>2022-01-20T09:18:53Z</time>
      </trkpt>
      <trkpt lat="47.68123" lon="2.0701728">
        <ele>153</ele>
        <time>2022-01-20T09:18:54Z</time>
      </trkpt>
      <trkpt lat="47.681244" lon="2.070177">
        <ele>153</ele>
        <time>2022-01-20T09:18:55Z</time>
      </trkpt>
      <trkpt lat="47.68126" lon="2.0701792">
        <ele>154</ele>
        <time>2022-01-20T09:18:56Z</time>
      </trkpt>
      <trkpt lat="47.681274" lon="2.0701783">
        <ele>154</ele>
        <time>2022-01-20T09:18:57Z</time>
      </trkpt>
      <trkpt lat="47.68129" lon="2.0701764">
        <ele>154</ele>
        <time>2022-01-20T09:18:58Z</time>
      </trkpt>
      <trkpt lat="47.681305" lon="2.0701797">
        <ele>154</ele>
        <time>2022-01-20T09:18:59Z</time>
      </trkpt>
      <trkpt lat="47.681313" lon="2.0701816">
        <ele>154</ele>
        <time>2022-01-20T09:19:00Z</time>
      </trkpt>
      <trkpt lat="47.681324" lon="2.0701845">
        <ele>154</ele>
        <time>2022-01-20T09:19:01Z</time>
      </trkpt>
      <trkpt lat="47.681335" lon="2.0701885">
        <ele>153</ele>
        <time>2022-01-20T09:19:02Z</time>
      </trkpt>
      <trkpt lat="47.68135" lon="2.07019">
        <ele>153</ele>
        <time>2022-01-20T09:19:03Z</time>
      </trkpt>
      <trkpt lat="47.681366" lon="2.0701926">
        <ele>153</ele>
        <time>2022-01-20T09:19:04Z</time>
      </trkpt>
      <trkpt lat="47.681377" lon="2.0701983">
        <ele>153</ele>
        <time>2022-01-20T09:19:05Z</time>
      </trkpt>
      <trkpt lat="47.68139" lon="2.070209">
        <ele>153</ele>
        <time>2022-01-20T09:19:06Z</time>
      </trkpt>
      <trkpt lat="47.6814" lon="2.0702248">
        <ele>153</ele>
        <time>2022-01-20T09:19:07Z</time>
      </trkpt>
      <trkpt lat="47.681408" lon="2.0702407">
        <ele>153</ele>
        <time>2022-01-20T09:19:08Z</time>
      </trkpt>
      <trkpt lat="47.681423" lon="2.0702446">
        <ele>153</ele>
        <time>2022-01-20T09:19:09Z</time>
      </trkpt>
      <trkpt lat="47.681435" lon="2.07025">
        <ele>154</ele>
        <time>2022-01-20T09:19:10Z</time>
      </trkpt>
      <trkpt lat="47.681446" lon="2.0702534">
        <ele>153</ele>
        <time>2022-01-20T09:19:11Z</time>
      </trkpt>
      <trkpt lat="47.681454" lon="2.0702603">
        <ele>153</ele>
        <time>2022-01-20T09:19:12Z</time>
      </trkpt>
      <trkpt lat="47.681465" lon="2.070265">
        <ele>153</ele>
        <time>2022-01-20T09:19:13Z</time>
      </trkpt>
      <trkpt lat="47.681477" lon="2.0702689">
        <ele>153</ele>
        <time>2022-01-20T09:19:14Z</time>
      </trkpt>
      <trkpt lat="47.681488" lon="2.070275">
        <ele>154</ele>
        <time>2022-01-20T09:19:15Z</time>
      </trkpt>
      <trkpt lat="47.681503" lon="2.070286">
        <ele>155</ele>
        <time>2022-01-20T09:19:16Z</time>
      </trkpt>
      <trkpt lat="47.681507" lon="2.0702908">
        <ele>154</ele>
        <time>2022-01-20T09:19:17Z</time>
      </trkpt>
      <trkpt lat="47.68152" lon="2.0702975">
        <ele>155</ele>
        <time>2022-01-20T09:19:18Z</time>
      </trkpt>
      <trkpt lat="47.681526" lon="2.0703032">
        <ele>155</ele>
        <time>2022-01-20T09:19:19Z</time>
      </trkpt>
      <trkpt lat="47.681534" lon="2.070308">
        <ele>154</ele>
        <time>2022-01-20T09:19:20Z</time>
      </trkpt>
      <trkpt lat="47.681545" lon="2.070315">
        <ele>154</ele>
        <time>2022-01-20T09:19:21Z</time>
      </trkpt>
      <trkpt lat="47.681557" lon="2.0703213">
        <ele>154</ele>
        <time>2022-01-20T09:19:22Z</time>
      </trkpt>
      <trkpt lat="47.681572" lon="2.0703287">
        <ele>154</ele>
        <time>2022-01-20T09:19:23Z</time>
      </trkpt>
      <trkpt lat="47.681587" lon="2.0703404">
        <ele>154</ele>
        <time>2022-01-20T09:19:24Z</time>
      </trkpt>
      <trkpt lat="47.6816" lon="2.0703464">
        <ele>154</ele>
        <time>2022-01-20T09:19:25Z</time>
      </trkpt>
      <trkpt lat="47.681614" lon="2.070356">
        <ele>154</ele>
        <time>2022-01-20T09:19:26Z</time>
      </trkpt>
      <trkpt lat="47.68162" lon="2.0703616">
        <ele>153</ele>
        <time>2022-01-20T09:19:27Z</time>
      </trkpt>
      <trkpt lat="47.68163" lon="2.0703738">
        <ele>153</ele>
        <time>2022-01-20T09:19:28Z</time>
      </trkpt>
      <trkpt lat="47.681637" lon="2.0703835">
        <ele>153</ele>
        <time>2022-01-20T09:19:29Z</time>
      </trkpt>
      <trkpt lat="47.68165" lon="2.0703943">
        <ele>154</ele>
        <time>2022-01-20T09:19:30Z</time>
      </trkpt>
      <trkpt lat="47.68166" lon="2.0703998">
        <ele>154</ele>
        <time>2022-01-20T09:19:31Z</time>
      </trkpt>
      <trkpt lat="47.68167" lon="2.0703998">
        <ele>154</ele>
        <time>2022-01-20T09:19:32Z</time>
      </trkpt>
      <trkpt lat="47.681683" lon="2.0704072">
        <ele>154</ele>
        <time>2022-01-20T09:19:33Z</time>
      </trkpt>
      <trkpt lat="47.68169" lon="2.0704195">
        <ele>153</ele>
        <time>2022-01-20T09:19:34Z</time>
      </trkpt>
      <trkpt lat="47.6817" lon="2.070432">
        <ele>153</ele>
        <time>2022-01-20T09:19:35Z</time>
      </trkpt>
      <trkpt lat="47.681717" lon="2.0704465">
        <ele>153</ele>
        <time>2022-01-20T09:19:36Z</time>
      </trkpt>
      <trkpt lat="47.68173" lon="2.070463">
        <ele>154</ele>
        <time>2022-01-20T09:19:37Z</time>
      </trkpt>
      <trkpt lat="47.68174" lon="2.0704677">
        <ele>154</ele>
        <time>2022-01-20T09:19:38Z</time>
      </trkpt>
      <trkpt lat="47.68175" lon="2.0704691">
        <ele>154</ele>
        <time>2022-01-20T09:19:39Z</time>
      </trkpt>
      <trkpt lat="47.681763" lon="2.0704796">
        <ele>154</ele>
        <time>2022-01-20T09:19:40Z</time>
      </trkpt>
      <trkpt lat="47.681774" lon="2.0704875">
        <ele>154</ele>
        <time>2022-01-20T09:19:41Z</time>
      </trkpt>
      <trkpt lat="47.681793" lon="2.0704873">
        <ele>155</ele>
        <time>2022-01-20T09:19:42Z</time>
      </trkpt>
      <trkpt lat="47.681805" lon="2.0704892">
        <ele>155</ele>
        <time>2022-01-20T09:19:43Z</time>
      </trkpt>
      <trkpt lat="47.68182" lon="2.0704904">
        <ele>154</ele>
        <time>2022-01-20T09:19:44Z</time>
      </trkpt>
      <trkpt lat="47.68183" lon="2.070493">
        <ele>154</ele>
        <time>2022-01-20T09:19:45Z</time>
      </trkpt>
      <trkpt lat="47.681843" lon="2.0704973">
        <ele>154</ele>
        <time>2022-01-20T09:19:46Z</time>
      </trkpt>
      <trkpt lat="47.68185" lon="2.070504">
        <ele>154</ele>
        <time>2022-01-20T09:19:47Z</time>
      </trkpt>
      <trkpt lat="47.68186" lon="2.070504">
        <ele>154</ele>
        <time>2022-01-20T09:19:48Z</time>
      </trkpt>
      <trkpt lat="47.681873" lon="2.0705056">
        <ele>154</ele>
        <time>2022-01-20T09:19:49Z</time>
      </trkpt>
      <trkpt lat="47.68189" lon="2.0705054">
        <ele>154</ele>
        <time>2022-01-20T09:19:50Z</time>
      </trkpt>
      <trkpt lat="47.6819" lon="2.0705104">
        <ele>153</ele>
        <time>2022-01-20T09:19:51Z</time>
      </trkpt>
      <trkpt lat="47.681908" lon="2.07052">
        <ele>153</ele>
        <time>2022-01-20T09:19:52Z</time>
      </trkpt>
      <trkpt lat="47.681923" lon="2.0705302">
        <ele>154</ele>
        <time>2022-01-20T09:19:53Z</time>
      </trkpt>
      <trkpt lat="47.681934" lon="2.070536">
        <ele>154</ele>
        <time>2022-01-20T09:19:54Z</time>
      </trkpt>
      <trkpt lat="47.68195" lon="2.0705366">
        <ele>154</ele>
        <time>2022-01-20T09:19:55Z</time>
      </trkpt>
      <trkpt lat="47.68196" lon="2.0705454">
        <ele>154</ele>
        <time>2022-01-20T09:19:56Z</time>
      </trkpt>
      <trkpt lat="47.681973" lon="2.0705528">
        <ele>154</ele>
        <time>2022-01-20T09:19:57Z</time>
      </trkpt>
      <trkpt lat="47.681988" lon="2.0705562">
        <ele>155</ele>
        <time>2022-01-20T09:19:58Z</time>
      </trkpt>
      <trkpt lat="47.681995" lon="2.0705643">
        <ele>155</ele>
        <time>2022-01-20T09:19:59Z</time>
      </trkpt>
      <trkpt lat="47.682003" lon="2.0705776">
        <ele>154</ele>
        <time>2022-01-20T09:20:00Z</time>
      </trkpt>
      <trkpt lat="47.68201" lon="2.070581">
        <ele>154</ele>
        <time>2022-01-20T09:20:01Z</time>
      </trkpt>
      <trkpt lat="47.68202" lon="2.0705826">
        <ele>154</ele>
        <time>2022-01-20T09:20:02Z</time>
      </trkpt>
      <trkpt lat="47.682026" lon="2.0705812">
        <ele>154</ele>
        <time>2022-01-20T09:20:03Z</time>
      </trkpt>
      <trkpt lat="47.682037" lon="2.0705905">
        <ele>154</ele>
        <time>2022-01-20T09:20:04Z</time>
      </trkpt>
      <trkpt lat="47.68205" lon="2.0705981">
        <ele>154</ele>
        <time>2022-01-20T09:20:05Z</time>
      </trkpt>
      <trkpt lat="47.68206" lon="2.0706055">
        <ele>154</ele>
        <time>2022-01-20T09:20:06Z</time>
      </trkpt>
      <trkpt lat="47.68207" lon="2.0706062">
        <ele>153</ele>
        <time>2022-01-20T09:20:07Z</time>
      </trkpt>
      <trkpt lat="47.682083" lon="2.0706043">
        <ele>153</ele>
        <time>2022-01-20T09:20:08Z</time>
      </trkpt>
      <trkpt lat="47.682095" lon="2.070606">
        <ele>153</ele>
        <time>2022-01-20T09:20:09Z</time>
      </trkpt>
      <trkpt lat="47.682106" lon="2.0706031">
        <ele>153</ele>
        <time>2022-01-20T09:20:10Z</time>
      </trkpt>
      <trkpt lat="47.682117" lon="2.0706117">
        <ele>154</ele>
        <time>2022-01-20T09:20:11Z</time>
      </trkpt>
      <trkpt lat="47.682125" lon="2.0706186">
        <ele>154</ele>
        <time>2022-01-20T09:20:12Z</time>
      </trkpt>
      <trkpt lat="47.682133" lon="2.0706294">
        <ele>154</ele>
        <time>2022-01-20T09:20:13Z</time>
      </trkpt>
      <trkpt lat="47.68214" lon="2.0706387">
        <ele>154</ele>
        <time>2022-01-20T09:20:14Z</time>
      </trkpt>
      <trkpt lat="47.682148" lon="2.0706456">
        <ele>154</ele>
        <time>2022-01-20T09:20:15Z</time>
      </trkpt>
      <trkpt lat="47.68216" lon="2.0706527">
        <ele>154</ele>
        <time>2022-01-20T09:20:16Z</time>
      </trkpt>
      <trkpt lat="47.682163" lon="2.0706646">
        <ele>155</ele>
        <time>2022-01-20T09:20:17Z</time>
      </trkpt>
      <trkpt lat="47.68218" lon="2.0706682">
        <ele>155</ele>
        <time>2022-01-20T09:20:18Z</time>
      </trkpt>
      <trkpt lat="47.68219" lon="2.0706742">
        <ele>154</ele>
        <time>2022-01-20T09:20:19Z</time>
      </trkpt>
      <trkpt lat="47.682198" lon="2.0706816">
        <ele>154</ele>
        <time>2022-01-20T09:20:20Z</time>
      </trkpt>
      <trkpt lat="47.6822" lon="2.0706906">
        <ele>154</ele>
        <time>2022-01-20T09:20:21Z</time>
      </trkpt>
      <trkpt lat="47.68221" lon="2.0707016">
        <ele>154</ele>
        <time>2022-01-20T09:20:22Z</time>
      </trkpt>
      <trkpt lat="47.68222" lon="2.070705">
        <ele>154</ele>
        <time>2022-01-20T09:20:23Z</time>
      </trkpt>
      <trkpt lat="47.682228" lon="2.0707135">
        <ele>154</ele>
        <time>2022-01-20T09:20:24Z</time>
      </trkpt>
      <trkpt lat="47.68224" lon="2.0707204">
        <ele>154</ele>
        <time>2022-01-20T09:20:25Z</time>
      </trkpt>
      <trkpt lat="47.68225" lon="2.070728">
        <ele>153</ele>
        <time>2022-01-20T09:20:26Z</time>
      </trkpt>
      <trkpt lat="47.682266" lon="2.0707362">
        <ele>153</ele>
        <time>2022-01-20T09:20:27Z</time>
      </trkpt>
      <trkpt lat="47.682285" lon="2.0707464">
        <ele>153</ele>
        <time>2022-01-20T09:20:28Z</time>
      </trkpt>
      <trkpt lat="47.682297" lon="2.070759">
        <ele>152</ele>
        <time>2022-01-20T09:20:29Z</time>
      </trkpt>
      <trkpt lat="47.68231" lon="2.0707626">
        <ele>153</ele>
        <time>2022-01-20T09:20:30Z</time>
      </trkpt>
      <trkpt lat="47.68232" lon="2.0707705">
        <ele>153</ele>
        <time>2022-01-20T09:20:31Z</time>
      </trkpt>
      <trkpt lat="47.68233" lon="2.0707772">
        <ele>153</ele>
        <time>2022-01-20T09:20:32Z</time>
      </trkpt>
      <trkpt lat="47.68234" lon="2.0707848">
        <ele>153</ele>
        <time>2022-01-20T09:20:33Z</time>
      </trkpt>
      <trkpt lat="47.682346" lon="2.07079">
        <ele>154</ele>
        <time>2022-01-20T09:20:34Z</time>
      </trkpt>
      <trkpt lat="47.68235" lon="2.0707963">
        <ele>154</ele>
        <time>2022-01-20T09:20:35Z</time>
      </trkpt>
      <trkpt lat="47.682358" lon="2.0708017">
        <ele>154</ele>
        <time>2022-01-20T09:20:36Z</time>
      </trkpt>
      <trkpt lat="47.682365" lon="2.0708106">
        <ele>153</ele>
        <time>2022-01-20T09:20:37Z</time>
      </trkpt>
      <trkpt lat="47.682377" lon="2.070813">
        <ele>154</ele>
        <time>2022-01-20T09:20:38Z</time>
      </trkpt>
      <trkpt lat="47.68239" lon="2.0708225">
        <ele>153</ele>
        <time>2022-01-20T09:20:39Z</time>
      </trkpt>
      <trkpt lat="47.6824" lon="2.0708253">
        <ele>154</ele>
        <time>2022-01-20T09:20:40Z</time>
      </trkpt>
      <trkpt lat="47.682407" lon="2.0708346">
        <ele>154</ele>
        <time>2022-01-20T09:20:41Z</time>
      </trkpt>
      <trkpt lat="47.68242" lon="2.070846">
        <ele>154</ele>
        <time>2022-01-20T09:20:42Z</time>
      </trkpt>
      <trkpt lat="47.682434" lon="2.0708563">
        <ele>154</ele>
        <time>2022-01-20T09:20:43Z</time>
      </trkpt>
      <trkpt lat="47.682446" lon="2.0708652">
        <ele>154</ele>
        <time>2022-01-20T09:20:44Z</time>
      </trkpt>
      <trkpt lat="47.68246" lon="2.0708673">
        <ele>154</ele>
        <time>2022-01-20T09:20:45Z</time>
      </trkpt>
      <trkpt lat="47.682476" lon="2.0708702">
        <ele>154</ele>
        <time>2022-01-20T09:20:46Z</time>
      </trkpt>
      <trkpt lat="47.682487" lon="2.0708733">
        <ele>154</ele>
        <time>2022-01-20T09:20:47Z</time>
      </trkpt>
      <trkpt lat="47.682503" lon="2.0708764">
        <ele>154</ele>
        <time>2022-01-20T09:20:48Z</time>
      </trkpt>
      <trkpt lat="47.682514" lon="2.0708814">
        <ele>154</ele>
        <time>2022-01-20T09:20:49Z</time>
      </trkpt>
      <trkpt lat="47.68252" lon="2.0708892">
        <ele>153</ele>
        <time>2022-01-20T09:20:50Z</time>
      </trkpt>
      <trkpt lat="47.682533" lon="2.0708945">
        <ele>154</ele>
        <time>2022-01-20T09:20:51Z</time>
      </trkpt>
      <trkpt lat="47.68254" lon="2.0709035">
        <ele>154</ele>
        <time>2022-01-20T09:20:52Z</time>
      </trkpt>
      <trkpt lat="47.682556" lon="2.0709152">
        <ele>154</ele>
        <time>2022-01-20T09:20:53Z</time>
      </trkpt>
      <trkpt lat="47.682568" lon="2.0709195">
        <ele>154</ele>
        <time>2022-01-20T09:20:54Z</time>
      </trkpt>
      <trkpt lat="47.682583" lon="2.070922">
        <ele>154</ele>
        <time>2022-01-20T09:20:55Z</time>
      </trkpt>
      <trkpt lat="47.682594" lon="2.070931">
        <ele>154</ele>
        <time>2022-01-20T09:20:56Z</time>
      </trkpt>
      <trkpt lat="47.682606" lon="2.0709355">
        <ele>154</ele>
        <time>2022-01-20T09:20:57Z</time>
      </trkpt>
      <trkpt lat="47.682617" lon="2.0709436">
        <ele>154</ele>
        <time>2022-01-20T09:20:58Z</time>
      </trkpt>
      <trkpt lat="47.68263" lon="2.070953">
        <ele>154</ele>
        <time>2022-01-20T09:20:59Z</time>
      </trkpt>
      <trkpt lat="47.68264" lon="2.0709608">
        <ele>154</ele>
        <time>2022-01-20T09:21:00Z</time>
      </trkpt>
      <trkpt lat="47.68265" lon="2.070963">
        <ele>154</ele>
        <time>2022-01-20T09:21:01Z</time>
      </trkpt>
      <trkpt lat="47.682663" lon="2.0709646">
        <ele>154</ele>
        <time>2022-01-20T09:21:02Z</time>
      </trkpt>
      <trkpt lat="47.682667" lon="2.0709748">
        <ele>154</ele>
        <time>2022-01-20T09:21:03Z</time>
      </trkpt>
      <trkpt lat="47.682674" lon="2.0709808">
        <ele>154</ele>
        <time>2022-01-20T09:21:04Z</time>
      </trkpt>
      <trkpt lat="47.682693" lon="2.0709844">
        <ele>154</ele>
        <time>2022-01-20T09:21:05Z</time>
      </trkpt>
      <trkpt lat="47.682713" lon="2.070989">
        <ele>156</ele>
        <time>2022-01-20T09:21:06Z</time>
      </trkpt>
      <trkpt lat="47.682747" lon="2.0709848">
        <ele>157</ele>
        <time>2022-01-20T09:21:07Z</time>
      </trkpt>
      <trkpt lat="47.682774" lon="2.0709972">
        <ele>158</ele>
        <time>2022-01-20T09:21:08Z</time>
      </trkpt>
      <trkpt lat="47.682796" lon="2.0710154">
        <ele>158</ele>
        <time>2022-01-20T09:21:09Z</time>
      </trkpt>
      <trkpt lat="47.682816" lon="2.071025">
        <ele>159</ele>
        <time>2022-01-20T09:21:10Z</time>
      </trkpt>
      <trkpt lat="47.682835" lon="2.0710323">
        <ele>160</ele>
        <time>2022-01-20T09:21:11Z</time>
      </trkpt>
      <trkpt lat="47.682846" lon="2.07104">
        <ele>161</ele>
        <time>2022-01-20T09:21:12Z</time>
      </trkpt>
      <trkpt lat="47.682858" lon="2.0710428">
        <ele>161</ele>
        <time>2022-01-20T09:21:13Z</time>
      </trkpt>
      <trkpt lat="47.682873" lon="2.0710473">
        <ele>162</ele>
        <time>2022-01-20T09:21:14Z</time>
      </trkpt>
      <trkpt lat="47.682888" lon="2.0710566">
        <ele>162</ele>
        <time>2022-01-20T09:21:15Z</time>
      </trkpt>
      <trkpt lat="47.682903" lon="2.071065">
        <ele>162</ele>
        <time>2022-01-20T09:21:16Z</time>
      </trkpt>
      <trkpt lat="47.682915" lon="2.0710695">
        <ele>162</ele>
        <time>2022-01-20T09:21:17Z</time>
      </trkpt>
      <trkpt lat="47.682922" lon="2.0710802">
        <ele>162</ele>
        <time>2022-01-20T09:21:18Z</time>
      </trkpt>
      <trkpt lat="47.68293" lon="2.0710902">
        <ele>162</ele>
        <time>2022-01-20T09:21:19Z</time>
      </trkpt>
      <trkpt lat="47.682938" lon="2.071095">
        <ele>162</ele>
        <time>2022-01-20T09:21:20Z</time>
      </trkpt>
      <trkpt lat="47.68295" lon="2.071103">
        <ele>162</ele>
        <time>2022-01-20T09:21:21Z</time>
      </trkpt>
      <trkpt lat="47.682957" lon="2.0711074">
        <ele>162</ele>
        <time>2022-01-20T09:21:22Z</time>
      </trkpt>
      <trkpt lat="47.682972" lon="2.071114">
        <ele>162</ele>
        <time>2022-01-20T09:21:23Z</time>
      </trkpt>
      <trkpt lat="47.68298" lon="2.071121">
        <ele>162</ele>
        <time>2022-01-20T09:21:24Z</time>
      </trkpt>
      <trkpt lat="47.682987" lon="2.0711267">
        <ele>162</ele>
        <time>2022-01-20T09:21:25Z</time>
      </trkpt>
      <trkpt lat="47.683" lon="2.0711358">
        <ele>163</ele>
        <time>2022-01-20T09:21:26Z</time>
      </trkpt>
      <trkpt lat="47.683006" lon="2.0711372">
        <ele>163</ele>
        <time>2022-01-20T09:21:27Z</time>
      </trkpt>
      <trkpt lat="47.683018" lon="2.0711389">
        <ele>164</ele>
        <time>2022-01-20T09:21:28Z</time>
      </trkpt>
      <trkpt lat="47.683025" lon="2.071139">
        <ele>164</ele>
        <time>2022-01-20T09:21:29Z</time>
      </trkpt>
      <trkpt lat="47.683033" lon="2.0711358">
        <ele>165</ele>
        <time>2022-01-20T09:21:30Z</time>
      </trkpt>
      <trkpt lat="47.68304" lon="2.0711403">
        <ele>165</ele>
        <time>2022-01-20T09:21:31Z</time>
      </trkpt>
      <trkpt lat="47.683052" lon="2.0711436">
        <ele>165</ele>
        <time>2022-01-20T09:21:32Z</time>
      </trkpt>
      <trkpt lat="47.68306" lon="2.0711455">
        <ele>165</ele>
        <time>2022-01-20T09:21:33Z</time>
      </trkpt>
      <trkpt lat="47.683075" lon="2.0711458">
        <ele>165</ele>
        <time>2022-01-20T09:21:34Z</time>
      </trkpt>
      <trkpt lat="47.683083" lon="2.0711553">
        <ele>165</ele>
        <time>2022-01-20T09:21:35Z</time>
      </trkpt>
      <trkpt lat="47.683094" lon="2.0711663">
        <ele>164</ele>
        <time>2022-01-20T09:21:36Z</time>
      </trkpt>
      <trkpt lat="47.6831" lon="2.0711763">
        <ele>164</ele>
        <time>2022-01-20T09:21:37Z</time>
      </trkpt>
      <trkpt lat="47.683117" lon="2.071179">
        <ele>164</ele>
        <time>2022-01-20T09:21:38Z</time>
      </trkpt>
      <trkpt lat="47.68313" lon="2.0711784">
        <ele>164</ele>
        <time>2022-01-20T09:21:39Z</time>
      </trkpt>
      <trkpt lat="47.683132" lon="2.071187">
        <ele>164</ele>
        <time>2022-01-20T09:21:40Z</time>
      </trkpt>
      <trkpt lat="47.68314" lon="2.0711951">
        <ele>164</ele>
        <time>2022-01-20T09:21:41Z</time>
      </trkpt>
      <trkpt lat="47.683147" lon="2.0712023">
        <ele>163</ele>
        <time>2022-01-20T09:21:42Z</time>
      </trkpt>
      <trkpt lat="47.68316" lon="2.0712104">
        <ele>163</ele>
        <time>2022-01-20T09:21:43Z</time>
      </trkpt>
      <trkpt lat="47.683167" lon="2.07122">
        <ele>163</ele>
        <time>2022-01-20T09:21:44Z</time>
      </trkpt>
      <trkpt lat="47.683174" lon="2.071227">
        <ele>163</ele>
        <time>2022-01-20T09:21:45Z</time>
      </trkpt>
      <trkpt lat="47.683186" lon="2.0712368">
        <ele>163</ele>
        <time>2022-01-20T09:21:46Z</time>
      </trkpt>
      <trkpt lat="47.683193" lon="2.0712497">
        <ele>162</ele>
        <time>2022-01-20T09:21:47Z</time>
      </trkpt>
      <trkpt lat="47.6832" lon="2.0712605">
        <ele>163</ele>
        <time>2022-01-20T09:21:48Z</time>
      </trkpt>
      <trkpt lat="47.68321" lon="2.0712688">
        <ele>162</ele>
        <time>2022-01-20T09:21:49Z</time>
      </trkpt>
      <trkpt lat="47.683216" lon="2.0712743">
        <ele>162</ele>
        <time>2022-01-20T09:21:50Z</time>
      </trkpt>
      <trkpt lat="47.683228" lon="2.0712833">
        <ele>162</ele>
        <time>2022-01-20T09:21:51Z</time>
      </trkpt>
      <trkpt lat="47.68324" lon="2.0712922">
        <ele>163</ele>
        <time>2022-01-20T09:21:52Z</time>
      </trkpt>
      <trkpt lat="47.68325" lon="2.0713038">
        <ele>163</ele>
        <time>2022-01-20T09:21:53Z</time>
      </trkpt>
      <trkpt lat="47.68326" lon="2.0713184">
        <ele>163</ele>
        <time>2022-01-20T09:21:54Z</time>
      </trkpt>
      <trkpt lat="47.683273" lon="2.071323">
        <ele>163</ele>
        <time>2022-01-20T09:21:55Z</time>
      </trkpt>
      <trkpt lat="47.68328" lon="2.0713289">
        <ele>162</ele>
        <time>2022-01-20T09:21:56Z</time>
      </trkpt>
      <trkpt lat="47.683285" lon="2.071342">
        <ele>163</ele>
        <time>2022-01-20T09:21:57Z</time>
      </trkpt>
      <trkpt lat="47.683292" lon="2.071348">
        <ele>163</ele>
        <time>2022-01-20T09:21:58Z</time>
      </trkpt>
      <trkpt lat="47.683308" lon="2.0713542">
        <ele>163</ele>
        <time>2022-01-20T09:21:59Z</time>
      </trkpt>
      <trkpt lat="47.683323" lon="2.0713603">
        <ele>163</ele>
        <time>2022-01-20T09:22:00Z</time>
      </trkpt>
      <trkpt lat="47.683342" lon="2.0713642">
        <ele>163</ele>
        <time>2022-01-20T09:22:01Z</time>
      </trkpt>
      <trkpt lat="47.68336" lon="2.0713706">
        <ele>164</ele>
        <time>2022-01-20T09:22:02Z</time>
      </trkpt>
      <trkpt lat="47.683372" lon="2.0713816">
        <ele>164</ele>
        <time>2022-01-20T09:22:03Z</time>
      </trkpt>
      <trkpt lat="47.68338" lon="2.0713918">
        <ele>164</ele>
        <time>2022-01-20T09:22:04Z</time>
      </trkpt>
      <trkpt lat="47.68339" lon="2.0713935">
        <ele>164</ele>
        <time>2022-01-20T09:22:05Z</time>
      </trkpt>
      <trkpt lat="47.683403" lon="2.0713997">
        <ele>164</ele>
        <time>2022-01-20T09:22:06Z</time>
      </trkpt>
      <trkpt lat="47.683414" lon="2.071393">
        <ele>164</ele>
        <time>2022-01-20T09:22:07Z</time>
      </trkpt>
      <trkpt lat="47.68343" lon="2.0713935">
        <ele>164</ele>
        <time>2022-01-20T09:22:08Z</time>
      </trkpt>
      <trkpt lat="47.68345" lon="2.0713851">
        <ele>163</ele>
        <time>2022-01-20T09:22:09Z</time>
      </trkpt>
      <trkpt lat="47.683468" lon="2.0713797">
        <ele>163</ele>
        <time>2022-01-20T09:22:10Z</time>
      </trkpt>
      <trkpt lat="47.683483" lon="2.0713842">
        <ele>163</ele>
        <time>2022-01-20T09:22:11Z</time>
      </trkpt>
      <trkpt lat="47.683495" lon="2.0713909">
        <ele>162</ele>
        <time>2022-01-20T09:22:12Z</time>
      </trkpt>
      <trkpt lat="47.683506" lon="2.0713947">
        <ele>162</ele>
        <time>2022-01-20T09:22:13Z</time>
      </trkpt>
      <trkpt lat="47.683517" lon="2.071399">
        <ele>162</ele>
        <time>2022-01-20T09:22:14Z</time>
      </trkpt>
      <trkpt lat="47.683533" lon="2.0714052">
        <ele>162</ele>
        <time>2022-01-20T09:22:15Z</time>
      </trkpt>
      <trkpt lat="47.68355" lon="2.071408">
        <ele>162</ele>
        <time>2022-01-20T09:22:16Z</time>
      </trkpt>
      <trkpt lat="47.683567" lon="2.0714116">
        <ele>162</ele>
        <time>2022-01-20T09:22:17Z</time>
      </trkpt>
      <trkpt lat="47.683575" lon="2.0714161">
        <ele>162</ele>
        <time>2022-01-20T09:22:18Z</time>
      </trkpt>
      <trkpt lat="47.68358" lon="2.0714219">
        <ele>161</ele>
        <time>2022-01-20T09:22:19Z</time>
      </trkpt>
      <trkpt lat="47.68359" lon="2.071426">
        <ele>161</ele>
        <time>2022-01-20T09:22:20Z</time>
      </trkpt>
      <trkpt lat="47.6836" lon="2.0714319">
        <ele>161</ele>
        <time>2022-01-20T09:22:21Z</time>
      </trkpt>
      <trkpt lat="47.683613" lon="2.071439">
        <ele>160</ele>
        <time>2022-01-20T09:22:22Z</time>
      </trkpt>
      <trkpt lat="47.683624" lon="2.0714483">
        <ele>160</ele>
        <time>2022-01-20T09:22:23Z</time>
      </trkpt>
      <trkpt lat="47.683636" lon="2.0714583">
        <ele>159</ele>
        <time>2022-01-20T09:22:24Z</time>
      </trkpt>
      <trkpt lat="47.68365" lon="2.0714626">
        <ele>159</ele>
        <time>2022-01-20T09:22:25Z</time>
      </trkpt>
      <trkpt lat="47.68367" lon="2.0714571">
        <ele>159</ele>
        <time>2022-01-20T09:22:26Z</time>
      </trkpt>
      <trkpt lat="47.683685" lon="2.0714521">
        <ele>159</ele>
        <time>2022-01-20T09:22:27Z</time>
      </trkpt>
      <trkpt lat="47.6837" lon="2.0714543">
        <ele>158</ele>
        <time>2022-01-20T09:22:28Z</time>
      </trkpt>
      <trkpt lat="47.683716" lon="2.0714529">
        <ele>158</ele>
        <time>2022-01-20T09:22:29Z</time>
      </trkpt>
      <trkpt lat="47.683723" lon="2.0714598">
        <ele>159</ele>
        <time>2022-01-20T09:22:30Z</time>
      </trkpt>
      <trkpt lat="47.68374" lon="2.0714605">
        <ele>159</ele>
        <time>2022-01-20T09:22:31Z</time>
      </trkpt>
      <trkpt lat="47.68375" lon="2.0714653">
        <ele>159</ele>
        <time>2022-01-20T09:22:32Z</time>
      </trkpt>
      <trkpt lat="47.683758" lon="2.071466">
        <ele>159</ele>
        <time>2022-01-20T09:22:33Z</time>
      </trkpt>
      <trkpt lat="47.68377" lon="2.0714724">
        <ele>159</ele>
        <time>2022-01-20T09:22:34Z</time>
      </trkpt>
      <trkpt lat="47.68378" lon="2.0714786">
        <ele>158</ele>
        <time>2022-01-20T09:22:35Z</time>
      </trkpt>
      <trkpt lat="47.683792" lon="2.0714815">
        <ele>158</ele>
        <time>2022-01-20T09:22:36Z</time>
      </trkpt>
      <trkpt lat="47.683807" lon="2.071488">
        <ele>158</ele>
        <time>2022-01-20T09:22:37Z</time>
      </trkpt>
      <trkpt lat="47.68382" lon="2.0714982">
        <ele>158</ele>
        <time>2022-01-20T09:22:38Z</time>
      </trkpt>
      <trkpt lat="47.68383" lon="2.0715075">
        <ele>158</ele>
        <time>2022-01-20T09:22:39Z</time>
      </trkpt>
      <trkpt lat="47.683846" lon="2.071508">
        <ele>158</ele>
        <time>2022-01-20T09:22:40Z</time>
      </trkpt>
      <trkpt lat="47.68386" lon="2.0715065">
        <ele>158</ele>
        <time>2022-01-20T09:22:41Z</time>
      </trkpt>
      <trkpt lat="47.683876" lon="2.0715115">
        <ele>158</ele>
        <time>2022-01-20T09:22:42Z</time>
      </trkpt>
      <trkpt lat="47.683887" lon="2.0715117">
        <ele>158</ele>
        <time>2022-01-20T09:22:43Z</time>
      </trkpt>
      <trkpt lat="47.683907" lon="2.071508">
        <ele>158</ele>
        <time>2022-01-20T09:22:44Z</time>
      </trkpt>
      <trkpt lat="47.68392" lon="2.0715044">
        <ele>158</ele>
        <time>2022-01-20T09:22:45Z</time>
      </trkpt>
      <trkpt lat="47.683933" lon="2.0715075">
        <ele>157</ele>
        <time>2022-01-20T09:22:46Z</time>
      </trkpt>
      <trkpt lat="47.68394" lon="2.071513">
        <ele>157</ele>
        <time>2022-01-20T09:22:47Z</time>
      </trkpt>
      <trkpt lat="47.683945" lon="2.0715241">
        <ele>157</ele>
        <time>2022-01-20T09:22:48Z</time>
      </trkpt>
      <trkpt lat="47.683956" lon="2.0715303">
        <ele>157</ele>
        <time>2022-01-20T09:22:49Z</time>
      </trkpt>
      <trkpt lat="47.683968" lon="2.071534">
        <ele>157</ele>
        <time>2022-01-20T09:22:50Z</time>
      </trkpt>
      <trkpt lat="47.683983" lon="2.071533">
        <ele>157</ele>
        <time>2022-01-20T09:22:51Z</time>
      </trkpt>
      <trkpt lat="47.683994" lon="2.0715432">
        <ele>157</ele>
        <time>2022-01-20T09:22:52Z</time>
      </trkpt>
      <trkpt lat="47.68401" lon="2.0715523">
        <ele>157</ele>
        <time>2022-01-20T09:22:53Z</time>
      </trkpt>
      <trkpt lat="47.68402" lon="2.0715532">
        <ele>157</ele>
        <time>2022-01-20T09:22:54Z</time>
      </trkpt>
      <trkpt lat="47.68403" lon="2.071558">
        <ele>156</ele>
        <time>2022-01-20T09:22:55Z</time>
      </trkpt>
      <trkpt lat="47.68404" lon="2.0715628">
        <ele>156</ele>
        <time>2022-01-20T09:22:56Z</time>
      </trkpt>
      <trkpt lat="47.68405" lon="2.0715678">
        <ele>156</ele>
        <time>2022-01-20T09:22:57Z</time>
      </trkpt>
      <trkpt lat="47.68406" lon="2.0715742">
        <ele>156</ele>
        <time>2022-01-20T09:22:58Z</time>
      </trkpt>
      <trkpt lat="47.68407" lon="2.071567">
        <ele>156</ele>
        <time>2022-01-20T09:22:59Z</time>
      </trkpt>
      <trkpt lat="47.68407" lon="2.071567">
        <ele>156</ele>
        <time>2022-01-20T09:23:00Z</time>
      </trkpt>
      <trkpt lat="47.68407" lon="2.071567">
        <ele>156</ele>
        <time>2022-01-20T09:23:01Z</time>
      </trkpt>
      <trkpt lat="47.684093" lon="2.0715592">
        <ele>156</ele>
        <time>2022-01-20T09:23:02Z</time>
      </trkpt>
      <trkpt lat="47.684093" lon="2.071564">
        <ele>156</ele>
        <time>2022-01-20T09:23:03Z</time>
      </trkpt>
      <trkpt lat="47.684093" lon="2.071564">
        <ele>156</ele>
        <time>2022-01-20T09:23:03Z</time>
      </trkpt>
    </trkseg>
    <trkseg>
      <trkpt lat="47.684093" lon="2.071564">
        <ele>156</ele>
        <time>2022-01-20T09:23:03Z</time>
      </trkpt>
      <trkpt lat="47.684208" lon="2.071529">
        <ele>162</ele>
        <time>2022-01-20T09:23:48Z</time>
      </trkpt>
      <trkpt lat="47.68421" lon="2.0715182">
        <ele>162</ele>
        <time>2022-01-20T09:23:49Z</time>
      </trkpt>
      <trkpt lat="47.68422" lon="2.0715067">
        <ele>163</ele>
        <time>2022-01-20T09:23:50Z</time>
      </trkpt>
      <trkpt lat="47.68422" lon="2.0715008">
        <ele>163</ele>
        <time>2022-01-20T09:23:51Z</time>
      </trkpt>
      <trkpt lat="47.684223" lon="2.0714972">
        <ele>163</ele>
        <time>2022-01-20T09:23:52Z</time>
      </trkpt>
      <trkpt lat="47.684223" lon="2.0714936">
        <ele>163</ele>
        <time>2022-01-20T09:23:53Z</time>
      </trkpt>
      <trkpt lat="47.684227" lon="2.0714896">
        <ele>164</ele>
        <time>2022-01-20T09:23:54Z</time>
      </trkpt>
      <trkpt lat="47.684227" lon="2.071489">
        <ele>163</ele>
        <time>2022-01-20T09:23:55Z</time>
      </trkpt>
      <trkpt lat="47.684227" lon="2.0714843">
        <ele>164</ele>
        <time>2022-01-20T09:23:56Z</time>
      </trkpt>
      <trkpt lat="47.684227" lon="2.0714695">
        <ele>163</ele>
        <time>2022-01-20T09:23:57Z</time>
      </trkpt>
      <trkpt lat="47.684223" lon="2.071458">
        <ele>163</ele>
        <time>2022-01-20T09:23:58Z</time>
      </trkpt>
      <trkpt lat="47.684223" lon="2.0714471">
        <ele>163</ele>
        <time>2022-01-20T09:23:59Z</time>
      </trkpt>
      <trkpt lat="47.68422" lon="2.0714386">
        <ele>163</ele>
        <time>2022-01-20T09:24:00Z</time>
      </trkpt>
      <trkpt lat="47.684216" lon="2.0714223">
        <ele>163</ele>
        <time>2022-01-20T09:24:01Z</time>
      </trkpt>
      <trkpt lat="47.684216" lon="2.0714128">
        <ele>163</ele>
        <time>2022-01-20T09:24:02Z</time>
      </trkpt>
      <trkpt lat="47.684216" lon="2.0714164">
        <ele>163</ele>
        <time>2022-01-20T09:24:03Z</time>
      </trkpt>
      <trkpt lat="47.68422" lon="2.0714252">
        <ele>162</ele>
        <time>2022-01-20T09:24:04Z</time>
      </trkpt>
      <trkpt lat="47.68422" lon="2.071428">
        <ele>163</ele>
        <time>2022-01-20T09:24:05Z</time>
      </trkpt>
      <trkpt lat="47.68422" lon="2.071432">
        <ele>163</ele>
        <time>2022-01-20T09:24:06Z</time>
      </trkpt>
      <trkpt lat="47.68422" lon="2.071432">
        <ele>163</ele>
        <time>2022-01-20T09:24:07Z</time>
      </trkpt>
      <trkpt lat="47.684223" lon="2.0714347">
        <ele>163</ele>
        <time>2022-01-20T09:24:08Z</time>
      </trkpt>
      <trkpt lat="47.684223" lon="2.0714343">
        <ele>163</ele>
        <time>2022-01-20T09:24:09Z</time>
      </trkpt>
      <trkpt lat="47.684223" lon="2.0714343">
        <ele>163</ele>
        <time>2022-01-20T09:24:10Z</time>
      </trkpt>
      <trkpt lat="47.684223" lon="2.0714343">
        <ele>163</ele>
        <time>2022-01-20T09:24:10Z</time>
      </trkpt>
    </trkseg>
    <trkseg>
      <trkpt lat="47.684223" lon="2.0714343">
        <ele>163</ele>
        <time>2022-01-20T09:24:10Z</time>
      </trkpt>
      <trkpt lat="47.684216" lon="2.0713632">
        <ele>164</ele>
        <time>2022-01-20T09:24:34Z</time>
      </trkpt>
      <trkpt lat="47.68421" lon="2.0713553">
        <ele>164</ele>
        <time>2022-01-20T09:24:35Z</time>
      </trkpt>
      <trkpt lat="47.684208" lon="2.071339">
        <ele>164</ele>
        <time>2022-01-20T09:24:36Z</time>
      </trkpt>
      <trkpt lat="47.684204" lon="2.0713284">
        <ele>165</ele>
        <time>2022-01-20T09:24:37Z</time>
      </trkpt>
      <trkpt lat="47.6842" lon="2.0713148">
        <ele>165</ele>
        <time>2022-01-20T09:24:38Z</time>
      </trkpt>
      <trkpt lat="47.684196" lon="2.0713015">
        <ele>166</ele>
        <time>2022-01-20T09:24:39Z</time>
      </trkpt>
      <trkpt lat="47.6842" lon="2.0712912">
        <ele>166</ele>
        <time>2022-01-20T09:24:40Z</time>
      </trkpt>
      <trkpt lat="47.6842" lon="2.071269">
        <ele>166</ele>
        <time>2022-01-20T09:24:41Z</time>
      </trkpt>
      <trkpt lat="47.6842" lon="2.07125">
        <ele>166</ele>
        <time>2022-01-20T09:24:42Z</time>
      </trkpt>
      <trkpt lat="47.6842" lon="2.0712388">
        <ele>167</ele>
        <time>2022-01-20T09:24:43Z</time>
      </trkpt>
      <trkpt lat="47.6842" lon="2.0712216">
        <ele>167</ele>
        <time>2022-01-20T09:24:44Z</time>
      </trkpt>
      <trkpt lat="47.684204" lon="2.0712051">
        <ele>168</ele>
        <time>2022-01-20T09:24:45Z</time>
      </trkpt>
      <trkpt lat="47.684204" lon="2.0711899">
        <ele>167</ele>
        <time>2022-01-20T09:24:46Z</time>
      </trkpt>
      <trkpt lat="47.684204" lon="2.0711775">
        <ele>167</ele>
        <time>2022-01-20T09:24:47Z</time>
      </trkpt>
      <trkpt lat="47.684204" lon="2.0711648">
        <ele>167</ele>
        <time>2022-01-20T09:24:48Z</time>
      </trkpt>
      <trkpt lat="47.684208" lon="2.0711436">
        <ele>167</ele>
        <time>2022-01-20T09:24:49Z</time>
      </trkpt>
      <trkpt lat="47.684204" lon="2.0711284">
        <ele>167</ele>
        <time>2022-01-20T09:24:50Z</time>
      </trkpt>
      <trkpt lat="47.6842" lon="2.07111">
        <ele>166</ele>
        <time>2022-01-20T09:24:51Z</time>
      </trkpt>
      <trkpt lat="47.68419" lon="2.0711002">
        <ele>166</ele>
        <time>2022-01-20T09:24:52Z</time>
      </trkpt>
      <trkpt lat="47.68418" lon="2.071088">
        <ele>166</ele>
        <time>2022-01-20T09:24:53Z</time>
      </trkpt>
      <trkpt lat="47.68418" lon="2.0710852">
        <ele>166</ele>
        <time>2022-01-20T09:24:54Z</time>
      </trkpt>
      <trkpt lat="47.684185" lon="2.0710714">
        <ele>167</ele>
        <time>2022-01-20T09:24:55Z</time>
      </trkpt>
      <trkpt lat="47.684185" lon="2.0710557">
        <ele>167</ele>
        <time>2022-01-20T09:24:56Z</time>
      </trkpt>
      <trkpt lat="47.684185" lon="2.0710382">
        <ele>168</ele>
        <time>2022-01-20T09:24:57Z</time>
      </trkpt>
      <trkpt lat="47.68418" lon="2.0710192">
        <ele>168</ele>
        <time>2022-01-20T09:24:58Z</time>
      </trkpt>
      <trkpt lat="47.684174" lon="2.0710053">
        <ele>170</ele>
        <time>2022-01-20T09:24:59Z</time>
      </trkpt>
      <trkpt lat="47.684166" lon="2.0709927">
        <ele>170</ele>
        <time>2022-01-20T09:25:00Z</time>
      </trkpt>
      <trkpt lat="47.68416" lon="2.0709724">
        <ele>170</ele>
        <time>2022-01-20T09:25:01Z</time>
      </trkpt>
      <trkpt lat="47.684155" lon="2.0709522">
        <ele>169</ele>
        <time>2022-01-20T09:25:02Z</time>
      </trkpt>
      <trkpt lat="47.68416" lon="2.0709364">
        <ele>168</ele>
        <time>2022-01-20T09:25:03Z</time>
      </trkpt>
      <trkpt lat="47.684155" lon="2.070922">
        <ele>168</ele>
        <time>2022-01-20T09:25:04Z</time>
      </trkpt>
      <trkpt lat="47.68416" lon="2.0709033">
        <ele>167</ele>
        <time>2022-01-20T09:25:05Z</time>
      </trkpt>
      <trkpt lat="47.684155" lon="2.0708838">
        <ele>165</ele>
        <time>2022-01-20T09:25:06Z</time>
      </trkpt>
      <trkpt lat="47.684155" lon="2.0708635">
        <ele>162</ele>
        <time>2022-01-20T09:25:07Z</time>
      </trkpt>
      <trkpt lat="47.68415" lon="2.070843">
        <ele>160</ele>
        <time>2022-01-20T09:25:08Z</time>
      </trkpt>
      <trkpt lat="47.684147" lon="2.0708206">
        <ele>161</ele>
        <time>2022-01-20T09:25:09Z</time>
      </trkpt>
      <trkpt lat="47.684143" lon="2.0707958">
        <ele>161</ele>
        <time>2022-01-20T09:25:10Z</time>
      </trkpt>
      <trkpt lat="47.684143" lon="2.0707722">
        <ele>162</ele>
        <time>2022-01-20T09:25:11Z</time>
      </trkpt>
      <trkpt lat="47.684135" lon="2.0707524">
        <ele>162</ele>
        <time>2022-01-20T09:25:12Z</time>
      </trkpt>
      <trkpt lat="47.68413" lon="2.0707376">
        <ele>162</ele>
        <time>2022-01-20T09:25:13Z</time>
      </trkpt>
      <trkpt lat="47.684128" lon="2.0707254">
        <ele>162</ele>
        <time>2022-01-20T09:25:14Z</time>
      </trkpt>
      <trkpt lat="47.684124" lon="2.070705">
        <ele>163</ele>
        <time>2022-01-20T09:25:15Z</time>
      </trkpt>
      <trkpt lat="47.68412" lon="2.0706913">
        <ele>163</ele>
        <time>2022-01-20T09:25:16Z</time>
      </trkpt>
      <trkpt lat="47.684116" lon="2.070679">
        <ele>163</ele>
        <time>2022-01-20T09:25:17Z</time>
      </trkpt>
      <trkpt lat="47.684113" lon="2.0706651">
        <ele>163</ele>
        <time>2022-01-20T09:25:18Z</time>
      </trkpt>
      <trkpt lat="47.68411" lon="2.0706425">
        <ele>164</ele>
        <time>2022-01-20T09:25:19Z</time>
      </trkpt>
      <trkpt lat="47.68411" lon="2.0706184">
        <ele>164</ele>
        <time>2022-01-20T09:25:20Z</time>
      </trkpt>
      <trkpt lat="47.68411" lon="2.070597">
        <ele>164</ele>
        <time>2022-01-20T09:25:21Z</time>
      </trkpt>
      <trkpt lat="47.684105" lon="2.0705855">
        <ele>164</ele>
        <time>2022-01-20T09:25:22Z</time>
      </trkpt>
      <trkpt lat="47.6841" lon="2.07057">
        <ele>165</ele>
        <time>2022-01-20T09:25:23Z</time>
      </trkpt>
      <trkpt lat="47.684097" lon="2.0705516">
        <ele>165</ele>
        <time>2022-01-20T09:25:24Z</time>
      </trkpt>
      <trkpt lat="47.684093" lon="2.0705407">
        <ele>165</ele>
        <time>2022-01-20T09:25:25Z</time>
      </trkpt>
      <trkpt lat="47.684093" lon="2.0705287">
        <ele>165</ele>
        <time>2022-01-20T09:25:26Z</time>
      </trkpt>
      <trkpt lat="47.68409" lon="2.0705147">
        <ele>165</ele>
        <time>2022-01-20T09:25:27Z</time>
      </trkpt>
      <trkpt lat="47.684086" lon="2.0704994">
        <ele>165</ele>
        <time>2022-01-20T09:25:28Z</time>
      </trkpt>
      <trkpt lat="47.684086" lon="2.0704877">
        <ele>166</ele>
        <time>2022-01-20T09:25:29Z</time>
      </trkpt>
      <trkpt lat="47.684086" lon="2.070475">
        <ele>166</ele>
        <time>2022-01-20T09:25:30Z</time>
      </trkpt>
      <trkpt lat="47.684086" lon="2.070453">
        <ele>167</ele>
        <time>2022-01-20T09:25:31Z</time>
      </trkpt>
      <trkpt lat="47.684082" lon="2.0704343">
        <ele>167</ele>
        <time>2022-01-20T09:25:32Z</time>
      </trkpt>
      <trkpt lat="47.684082" lon="2.0704165">
        <ele>167</ele>
        <time>2022-01-20T09:25:33Z</time>
      </trkpt>
      <trkpt lat="47.684082" lon="2.0703988">
        <ele>167</ele>
        <time>2022-01-20T09:25:34Z</time>
      </trkpt>
      <trkpt lat="47.684082" lon="2.0703802">
        <ele>167</ele>
        <time>2022-01-20T09:25:35Z</time>
      </trkpt>
      <trkpt lat="47.684082" lon="2.0703607">
        <ele>167</ele>
        <time>2022-01-20T09:25:36Z</time>
      </trkpt>
      <trkpt lat="47.684082" lon="2.0703406">
        <ele>167</ele>
        <time>2022-01-20T09:25:37Z</time>
      </trkpt>
      <trkpt lat="47.68408" lon="2.070324">
        <ele>167</ele>
        <time>2022-01-20T09:25:38Z</time>
      </trkpt>
      <trkpt lat="47.684074" lon="2.0703087">
        <ele>167</ele>
        <time>2022-01-20T09:25:39Z</time>
      </trkpt>
      <trkpt lat="47.68407" lon="2.0702953">
        <ele>168</ele>
        <time>2022-01-20T09:25:40Z</time>
      </trkpt>
      <trkpt lat="47.68407" lon="2.0702817">
        <ele>168</ele>
        <time>2022-01-20T09:25:41Z</time>
      </trkpt>
      <trkpt lat="47.684067" lon="2.0702674">
        <ele>168</ele>
        <time>2022-01-20T09:25:42Z</time>
      </trkpt>
      <trkpt lat="47.684067" lon="2.0702546">
        <ele>168</ele>
        <time>2022-01-20T09:25:43Z</time>
      </trkpt>
      <trkpt lat="47.684067" lon="2.0702395">
        <ele>168</ele>
        <time>2022-01-20T09:25:44Z</time>
      </trkpt>
      <trkpt lat="47.684063" lon="2.0702267">
        <ele>168</ele>
        <time>2022-01-20T09:25:45Z</time>
      </trkpt>
      <trkpt lat="47.68406" lon="2.0702107">
        <ele>168</ele>
        <time>2022-01-20T09:25:46Z</time>
      </trkpt>
      <trkpt lat="47.684055" lon="2.070193">
        <ele>167</ele>
        <time>2022-01-20T09:25:47Z</time>
      </trkpt>
      <trkpt lat="47.684055" lon="2.0701933">
        <ele>167</ele>
        <time>2022-01-20T09:25:48Z</time>
      </trkpt>
      <trkpt lat="47.684055" lon="2.0701835">
        <ele>167</ele>
        <time>2022-01-20T09:25:49Z</time>
      </trkpt>
      <trkpt lat="47.68405" lon="2.0701656">
        <ele>168</ele>
        <time>2022-01-20T09:25:50Z</time>
      </trkpt>
      <trkpt lat="47.684048" lon="2.070151">
        <ele>168</ele>
        <time>2022-01-20T09:25:51Z</time>
      </trkpt>
      <trkpt lat="47.684048" lon="2.0701346">
        <ele>168</ele>
        <time>2022-01-20T09:25:52Z</time>
      </trkpt>
      <trkpt lat="47.684044" lon="2.070121">
        <ele>168</ele>
        <time>2022-01-20T09:25:53Z</time>
      </trkpt>
      <trkpt lat="47.68404" lon="2.0701048">
        <ele>168</ele>
        <time>2022-01-20T09:25:54Z</time>
      </trkpt>
      <trkpt lat="47.684036" lon="2.070087">
        <ele>167</ele>
        <time>2022-01-20T09:25:55Z</time>
      </trkpt>
      <trkpt lat="47.68403" lon="2.0700676">
        <ele>167</ele>
        <time>2022-01-20T09:25:56Z</time>
      </trkpt>
      <trkpt lat="47.684025" lon="2.0700538">
        <ele>168</ele>
        <time>2022-01-20T09:25:57Z</time>
      </trkpt>
      <trkpt lat="47.684017" lon="2.07004">
        <ele>168</ele>
        <time>2022-01-20T09:25:58Z</time>
      </trkpt>
      <trkpt lat="47.684017" lon="2.070022">
        <ele>167</ele>
        <time>2022-01-20T09:25:59Z</time>
      </trkpt>
      <trkpt lat="47.684013" lon="2.0700026">
        <ele>168</ele>
        <time>2022-01-20T09:26:00Z</time>
      </trkpt>
      <trkpt lat="47.68401" lon="2.0699873">
        <ele>168</ele>
        <time>2022-01-20T09:26:01Z</time>
      </trkpt>
      <trkpt lat="47.68401" lon="2.0699651">
        <ele>167</ele>
        <time>2022-01-20T09:26:02Z</time>
      </trkpt>
      <trkpt lat="47.684002" lon="2.069945">
        <ele>167</ele>
        <time>2022-01-20T09:26:03Z</time>
      </trkpt>
      <trkpt lat="47.683994" lon="2.0699296">
        <ele>167</ele>
        <time>2022-01-20T09:26:04Z</time>
      </trkpt>
      <trkpt lat="47.68399" lon="2.0699108">
        <ele>166</ele>
        <time>2022-01-20T09:26:05Z</time>
      </trkpt>
      <trkpt lat="47.683987" lon="2.0698917">
        <ele>167</ele>
        <time>2022-01-20T09:26:06Z</time>
      </trkpt>
      <trkpt lat="47.683987" lon="2.0698705">
        <ele>167</ele>
        <time>2022-01-20T09:26:07Z</time>
      </trkpt>
      <trkpt lat="47.683983" lon="2.0698524">
        <ele>167</ele>
        <time>2022-01-20T09:26:08Z</time>
      </trkpt>
      <trkpt lat="47.68398" lon="2.0698378">
        <ele>167</ele>
        <time>2022-01-20T09:26:09Z</time>
      </trkpt>
      <trkpt lat="47.683975" lon="2.0698245">
        <ele>166</ele>
        <time>2022-01-20T09:26:10Z</time>
      </trkpt>
      <trkpt lat="47.68397" lon="2.0698078">
        <ele>166</ele>
        <time>2022-01-20T09:26:11Z</time>
      </trkpt>
      <trkpt lat="47.68397" lon="2.0697937">
        <ele>166</ele>
        <time>2022-01-20T09:26:12Z</time>
      </trkpt>
      <trkpt lat="47.683964" lon="2.0697775">
        <ele>166</ele>
        <time>2022-01-20T09:26:13Z</time>
      </trkpt>
      <trkpt lat="47.683964" lon="2.0697625">
        <ele>166</ele>
        <time>2022-01-20T09:26:14Z</time>
      </trkpt>
      <trkpt lat="47.68396" lon="2.0697465">
        <ele>166</ele>
        <time>2022-01-20T09:26:15Z</time>
      </trkpt>
      <trkpt lat="47.68396" lon="2.0697258">
        <ele>167</ele>
        <time>2022-01-20T09:26:16Z</time>
      </trkpt>
      <trkpt lat="47.683956" lon="2.0697062">
        <ele>168</ele>
        <time>2022-01-20T09:26:17Z</time>
      </trkpt>
      <trkpt lat="47.683952" lon="2.069685">
        <ele>167</ele>
        <time>2022-01-20T09:26:18Z</time>
      </trkpt>
      <trkpt lat="47.683952" lon="2.0696678">
        <ele>168</ele>
        <time>2022-01-20T09:26:19Z</time>
      </trkpt>
      <trkpt lat="47.683952" lon="2.069655">
        <ele>168</ele>
        <time>2022-01-20T09:26:20Z</time>
      </trkpt>
      <trkpt lat="47.68395" lon="2.0696423">
        <ele>168</ele>
        <time>2022-01-20T09:26:21Z</time>
      </trkpt>
      <trkpt lat="47.683945" lon="2.0696285">
        <ele>168</ele>
        <time>2022-01-20T09:26:22Z</time>
      </trkpt>
      <trkpt lat="47.683945" lon="2.069616">
        <ele>168</ele>
        <time>2022-01-20T09:26:23Z</time>
      </trkpt>
      <trkpt lat="47.68395" lon="2.0695987">
        <ele>168</ele>
        <time>2022-01-20T09:26:24Z</time>
      </trkpt>
      <trkpt lat="47.68395" lon="2.0695844">
        <ele>168</ele>
        <time>2022-01-20T09:26:25Z</time>
      </trkpt>
      <trkpt lat="47.68395" lon="2.0695672">
        <ele>168</ele>
        <time>2022-01-20T09:26:26Z</time>
      </trkpt>
      <trkpt lat="47.68395" lon="2.0695493">
        <ele>168</ele>
        <time>2022-01-20T09:26:27Z</time>
      </trkpt>
      <trkpt lat="47.683952" lon="2.069534">
        <ele>168</ele>
        <time>2022-01-20T09:26:28Z</time>
      </trkpt>
      <trkpt lat="47.68395" lon="2.0695136">
        <ele>167</ele>
        <time>2022-01-20T09:26:29Z</time>
      </trkpt>
      <trkpt lat="47.683945" lon="2.0694945">
        <ele>168</ele>
        <time>2022-01-20T09:26:30Z</time>
      </trkpt>
      <trkpt lat="47.68394" lon="2.0694745">
        <ele>168</ele>
        <time>2022-01-20T09:26:31Z</time>
      </trkpt>
      <trkpt lat="47.68394" lon="2.0694566">
        <ele>168</ele>
        <time>2022-01-20T09:26:32Z</time>
      </trkpt>
      <trkpt lat="47.68394" lon="2.069439">
        <ele>168</ele>
        <time>2022-01-20T09:26:33Z</time>
      </trkpt>
      <trkpt lat="47.68394" lon="2.0694158">
        <ele>168</ele>
        <time>2022-01-20T09:26:34Z</time>
      </trkpt>
      <trkpt lat="47.68394" lon="2.0693944">
        <ele>169</ele>
        <time>2022-01-20T09:26:35Z</time>
      </trkpt>
      <trkpt lat="47.683937" lon="2.0693753">
        <ele>170</ele>
        <time>2022-01-20T09:26:36Z</time>
      </trkpt>
      <trkpt lat="47.683933" lon="2.0693555">
        <ele>170</ele>
        <time>2022-01-20T09:26:37Z</time>
      </trkpt>
      <trkpt lat="47.68393" lon="2.0693355">
        <ele>170</ele>
        <time>2022-01-20T09:26:38Z</time>
      </trkpt>
      <trkpt lat="47.683926" lon="2.0693161">
        <ele>169</ele>
        <time>2022-01-20T09:26:39Z</time>
      </trkpt>
      <trkpt lat="47.68392" lon="2.0693007">
        <ele>169</ele>
        <time>2022-01-20T09:26:40Z</time>
      </trkpt>
      <trkpt lat="47.68392" lon="2.0692914">
        <ele>169</ele>
        <time>2022-01-20T09:26:41Z</time>
      </trkpt>
      <trkpt lat="47.683918" lon="2.0692737">
        <ele>170</ele>
        <time>2022-01-20T09:26:42Z</time>
      </trkpt>
      <trkpt lat="47.683918" lon="2.0692558">
        <ele>169</ele>
        <time>2022-01-20T09:26:43Z</time>
      </trkpt>
      <trkpt lat="47.683918" lon="2.0692444">
        <ele>169</ele>
        <time>2022-01-20T09:26:44Z</time>
      </trkpt>
      <trkpt lat="47.683918" lon="2.0692284">
        <ele>170</ele>
        <time>2022-01-20T09:26:45Z</time>
      </trkpt>
      <trkpt lat="47.683914" lon="2.069212">
        <ele>171</ele>
        <time>2022-01-20T09:26:46Z</time>
      </trkpt>
      <trkpt lat="47.68391" lon="2.0691926">
        <ele>171</ele>
        <time>2022-01-20T09:26:47Z</time>
      </trkpt>
      <trkpt lat="47.683907" lon="2.0691714">
        <ele>171</ele>
        <time>2022-01-20T09:26:48Z</time>
      </trkpt>
      <trkpt lat="47.683907" lon="2.069152">
        <ele>172</ele>
        <time>2022-01-20T09:26:49Z</time>
      </trkpt>
      <trkpt lat="47.683907" lon="2.0691383">
        <ele>172</ele>
        <time>2022-01-20T09:26:50Z</time>
      </trkpt>
      <trkpt lat="47.683907" lon="2.0691164">
        <ele>172</ele>
        <time>2022-01-20T09:26:51Z</time>
      </trkpt>
      <trkpt lat="47.683907" lon="2.0691016">
        <ele>172</ele>
        <time>2022-01-20T09:26:52Z</time>
      </trkpt>
      <trkpt lat="47.683903" lon="2.0690837">
        <ele>171</ele>
        <time>2022-01-20T09:26:53Z</time>
      </trkpt>
      <trkpt lat="47.683903" lon="2.0690746">
        <ele>171</ele>
        <time>2022-01-20T09:26:54Z</time>
      </trkpt>
      <trkpt lat="47.683903" lon="2.0690577">
        <ele>171</ele>
        <time>2022-01-20T09:26:55Z</time>
      </trkpt>
      <trkpt lat="47.683903" lon="2.0690472">
        <ele>170</ele>
        <time>2022-01-20T09:26:56Z</time>
      </trkpt>
      <trkpt lat="47.6839" lon="2.0690372">
        <ele>170</ele>
        <time>2022-01-20T09:26:57Z</time>
      </trkpt>
      <trkpt lat="47.6839" lon="2.0690255">
        <ele>170</ele>
        <time>2022-01-20T09:26:58Z</time>
      </trkpt>
      <trkpt lat="47.683895" lon="2.0690122">
        <ele>170</ele>
        <time>2022-01-20T09:26:59Z</time>
      </trkpt>
      <trkpt lat="47.683895" lon="2.0689986">
        <ele>170</ele>
        <time>2022-01-20T09:27:00Z</time>
      </trkpt>
      <trkpt lat="47.68389" lon="2.0689855">
        <ele>170</ele>
        <time>2022-01-20T09:27:01Z</time>
      </trkpt>
      <trkpt lat="47.683887" lon="2.068976">
        <ele>170</ele>
        <time>2022-01-20T09:27:02Z</time>
      </trkpt>
      <trkpt lat="47.68389" lon="2.068978">
        <ele>170</ele>
        <time>2022-01-20T09:27:03Z</time>
      </trkpt>
      <trkpt lat="47.683887" lon="2.068983">
        <ele>170</ele>
        <time>2022-01-20T09:27:04Z</time>
      </trkpt>
      <trkpt lat="47.683887" lon="2.0689812">
        <ele>170</ele>
        <time>2022-01-20T09:27:05Z</time>
      </trkpt>
      <trkpt lat="47.68389" lon="2.068987">
        <ele>170</ele>
        <time>2022-01-20T09:27:06Z</time>
      </trkpt>
      <trkpt lat="47.68389" lon="2.068987">
        <ele>170</ele>
        <time>2022-01-20T09:27:07Z</time>
      </trkpt>
      <trkpt lat="47.68389" lon="2.068987">
        <ele>170</ele>
        <time>2022-01-20T09:27:08Z</time>
      </trkpt>
      <trkpt lat="47.683884" lon="2.068958">
        <ele>169</ele>
        <time>2022-01-20T09:27:09Z</time>
      </trkpt>
      <trkpt lat="47.68388" lon="2.0689447">
        <ele>168</ele>
        <time>2022-01-20T09:27:10Z</time>
      </trkpt>
      <trkpt lat="47.68388" lon="2.0689273">
        <ele>168</ele>
        <time>2022-01-20T09:27:11Z</time>
      </trkpt>
      <trkpt lat="47.68388" lon="2.068902">
        <ele>168</ele>
        <time>2022-01-20T09:27:12Z</time>
      </trkpt>
      <trkpt lat="47.683876" lon="2.0688834">
        <ele>168</ele>
        <time>2022-01-20T09:27:13Z</time>
      </trkpt>
      <trkpt lat="47.68387" lon="2.0688694">
        <ele>168</ele>
        <time>2022-01-20T09:27:14Z</time>
      </trkpt>
      <trkpt lat="47.683865" lon="2.0688598">
        <ele>168</ele>
        <time>2022-01-20T09:27:15Z</time>
      </trkpt>
      <trkpt lat="47.68386" lon="2.068851">
        <ele>168</ele>
        <time>2022-01-20T09:27:16Z</time>
      </trkpt>
      <trkpt lat="47.683853" lon="2.0688334">
        <ele>167</ele>
        <time>2022-01-20T09:27:17Z</time>
      </trkpt>
      <trkpt lat="47.683846" lon="2.068821">
        <ele>167</ele>
        <time>2022-01-20T09:27:18Z</time>
      </trkpt>
      <trkpt lat="47.68384" lon="2.0688024">
        <ele>167</ele>
        <time>2022-01-20T09:27:19Z</time>
      </trkpt>
      <trkpt lat="47.68383" lon="2.0687845">
        <ele>167</ele>
        <time>2022-01-20T09:27:20Z</time>
      </trkpt>
      <trkpt lat="47.683826" lon="2.068776">
        <ele>167</ele>
        <time>2022-01-20T09:27:21Z</time>
      </trkpt>
      <trkpt lat="47.68382" lon="2.0687654">
        <ele>167</ele>
        <time>2022-01-20T09:27:22Z</time>
      </trkpt>
      <trkpt lat="47.683815" lon="2.0687504">
        <ele>167</ele>
        <time>2022-01-20T09:27:23Z</time>
      </trkpt>
      <trkpt lat="47.683815" lon="2.0687385">
        <ele>167</ele>
        <time>2022-01-20T09:27:24Z</time>
      </trkpt>
      <trkpt lat="47.68381" lon="2.0687191">
        <ele>167</ele>
        <time>2022-01-20T09:27:25Z</time>
      </trkpt>
      <trkpt lat="47.68381" lon="2.0687034">
        <ele>167</ele>
        <time>2022-01-20T09:27:26Z</time>
      </trkpt>
      <trkpt lat="47.683815" lon="2.0686905">
        <ele>167</ele>
        <time>2022-01-20T09:27:27Z</time>
      </trkpt>
      <trkpt lat="47.68381" lon="2.0686731">
        <ele>166</ele>
        <time>2022-01-20T09:27:28Z</time>
      </trkpt>
      <trkpt lat="47.68381" lon="2.0686557">
        <ele>166</ele>
        <time>2022-01-20T09:27:29Z</time>
      </trkpt>
      <trkpt lat="47.683815" lon="2.0686412">
        <ele>166</ele>
        <time>2022-01-20T09:27:30Z</time>
      </trkpt>
      <trkpt lat="47.68382" lon="2.068615">
        <ele>166</ele>
        <time>2022-01-20T09:27:31Z</time>
      </trkpt>
      <trkpt lat="47.683823" lon="2.0686018">
        <ele>167</ele>
        <time>2022-01-20T09:27:32Z</time>
      </trkpt>
      <trkpt lat="47.683826" lon="2.0685866">
        <ele>167</ele>
        <time>2022-01-20T09:27:33Z</time>
      </trkpt>
      <trkpt lat="47.683823" lon="2.0685706">
        <ele>167</ele>
        <time>2022-01-20T09:27:34Z</time>
      </trkpt>
      <trkpt lat="47.683815" lon="2.0685527">
        <ele>167</ele>
        <time>2022-01-20T09:27:35Z</time>
      </trkpt>
      <trkpt lat="47.683815" lon="2.068529">
        <ele>167</ele>
        <time>2022-01-20T09:27:36Z</time>
      </trkpt>
      <trkpt lat="47.683807" lon="2.0685098">
        <ele>167</ele>
        <time>2022-01-20T09:27:37Z</time>
      </trkpt>
      <trkpt lat="47.683815" lon="2.0684896">
        <ele>167</ele>
        <time>2022-01-20T09:27:38Z</time>
      </trkpt>
      <trkpt lat="47.683815" lon="2.06847">
        <ele>167</ele>
        <time>2022-01-20T09:27:39Z</time>
      </trkpt>
      <trkpt lat="47.683815" lon="2.0684571">
        <ele>166</ele>
        <time>2022-01-20T09:27:40Z</time>
      </trkpt>
      <trkpt lat="47.68381" lon="2.06844">
        <ele>167</ele>
        <time>2022-01-20T09:27:41Z</time>
      </trkpt>
      <trkpt lat="47.683807" lon="2.0684254">
        <ele>167</ele>
        <time>2022-01-20T09:27:42Z</time>
      </trkpt>
      <trkpt lat="47.6838" lon="2.068406">
        <ele>166</ele>
        <time>2022-01-20T09:27:43Z</time>
      </trkpt>
      <trkpt lat="47.6838" lon="2.0683942">
        <ele>166</ele>
        <time>2022-01-20T09:27:44Z</time>
      </trkpt>
      <trkpt lat="47.683804" lon="2.0683813">
        <ele>166</ele>
        <time>2022-01-20T09:27:45Z</time>
      </trkpt>
      <trkpt lat="47.683804" lon="2.068374">
        <ele>166</ele>
        <time>2022-01-20T09:27:46Z</time>
      </trkpt>
      <trkpt lat="47.683804" lon="2.0683687">
        <ele>165</ele>
        <time>2022-01-20T09:27:47Z</time>
      </trkpt>
      <trkpt lat="47.683804" lon="2.068362">
        <ele>165</ele>
        <time>2022-01-20T09:27:48Z</time>
      </trkpt>
      <trkpt lat="47.683804" lon="2.0683553">
        <ele>164</ele>
        <time>2022-01-20T09:27:49Z</time>
      </trkpt>
      <trkpt lat="47.683804" lon="2.0683444">
        <ele>164</ele>
        <time>2022-01-20T09:27:50Z</time>
      </trkpt>
      <trkpt lat="47.683807" lon="2.0683305">
        <ele>164</ele>
        <time>2022-01-20T09:27:51Z</time>
      </trkpt>
      <trkpt lat="47.683804" lon="2.0683153">
        <ele>163</ele>
        <time>2022-01-20T09:27:52Z</time>
      </trkpt>
      <trkpt lat="47.683804" lon="2.068307">
        <ele>163</ele>
        <time>2022-01-20T09:27:53Z</time>
      </trkpt>
      <trkpt lat="47.683796" lon="2.0682986">
        <ele>163</ele>
        <time>2022-01-20T09:27:54Z</time>
      </trkpt>
      <trkpt lat="47.683796" lon="2.0682826">
        <ele>163</ele>
        <time>2022-01-20T09:27:55Z</time>
      </trkpt>
      <trkpt lat="47.683796" lon="2.0682638">
        <ele>163</ele>
        <time>2022-01-20T09:27:56Z</time>
      </trkpt>
      <trkpt lat="47.683796" lon="2.0682468">
        <ele>163</ele>
        <time>2022-01-20T09:27:57Z</time>
      </trkpt>
      <trkpt lat="47.6838" lon="2.0682342">
        <ele>163</ele>
        <time>2022-01-20T09:27:58Z</time>
      </trkpt>
      <trkpt lat="47.683796" lon="2.0682082">
        <ele>163</ele>
        <time>2022-01-20T09:27:59Z</time>
      </trkpt>
      <trkpt lat="47.68379" lon="2.068191">
        <ele>163</ele>
        <time>2022-01-20T09:28:00Z</time>
      </trkpt>
      <trkpt lat="47.683784" lon="2.0681677">
        <ele>162</ele>
        <time>2022-01-20T09:28:01Z</time>
      </trkpt>
      <trkpt lat="47.68379" lon="2.0681584">
        <ele>162</ele>
        <time>2022-01-20T09:28:02Z</time>
      </trkpt>
      <trkpt lat="47.683792" lon="2.0681522">
        <ele>162</ele>
        <time>2022-01-20T09:28:03Z</time>
      </trkpt>
      <trkpt lat="47.683792" lon="2.0681543">
        <ele>161</ele>
        <time>2022-01-20T09:28:04Z</time>
      </trkpt>
      <trkpt lat="47.683792" lon="2.0681474">
        <ele>161</ele>
        <time>2022-01-20T09:28:05Z</time>
      </trkpt>
      <trkpt lat="47.683796" lon="2.068135">
        <ele>161</ele>
        <time>2022-01-20T09:28:06Z</time>
      </trkpt>
      <trkpt lat="47.683796" lon="2.0681155">
        <ele>160</ele>
        <time>2022-01-20T09:28:07Z</time>
      </trkpt>
      <trkpt lat="47.683796" lon="2.068098">
        <ele>160</ele>
        <time>2022-01-20T09:28:08Z</time>
      </trkpt>
      <trkpt lat="47.683796" lon="2.0680788">
        <ele>159</ele>
        <time>2022-01-20T09:28:09Z</time>
      </trkpt>
      <trkpt lat="47.6838" lon="2.0680602">
        <ele>158</ele>
        <time>2022-01-20T09:28:10Z</time>
      </trkpt>
      <trkpt lat="47.683804" lon="2.0680504">
        <ele>158</ele>
        <time>2022-01-20T09:28:11Z</time>
      </trkpt>
      <trkpt lat="47.683807" lon="2.0680406">
        <ele>158</ele>
        <time>2022-01-20T09:28:12Z</time>
      </trkpt>
      <trkpt lat="47.68381" lon="2.0680306">
        <ele>158</ele>
        <time>2022-01-20T09:28:13Z</time>
      </trkpt>
      <trkpt lat="47.683815" lon="2.068021">
        <ele>158</ele>
        <time>2022-01-20T09:28:14Z</time>
      </trkpt>
      <trkpt lat="47.683815" lon="2.0680208">
        <ele>158</ele>
        <time>2022-01-20T09:28:15Z</time>
      </trkpt>
      <trkpt lat="47.683823" lon="2.0680032">
        <ele>158</ele>
        <time>2022-01-20T09:28:16Z</time>
      </trkpt>
      <trkpt lat="47.683823" lon="2.0679843">
        <ele>158</ele>
        <time>2022-01-20T09:28:17Z</time>
      </trkpt>
      <trkpt lat="47.683823" lon="2.0679684">
        <ele>158</ele>
        <time>2022-01-20T09:28:18Z</time>
      </trkpt>
      <trkpt lat="47.68382" lon="2.067951">
        <ele>158</ele>
        <time>2022-01-20T09:28:19Z</time>
      </trkpt>
      <trkpt lat="47.68382" lon="2.0679362">
        <ele>158</ele>
        <time>2022-01-20T09:28:20Z</time>
      </trkpt>
      <trkpt lat="47.68382" lon="2.0679235">
        <ele>157</ele>
        <time>2022-01-20T09:28:21Z</time>
      </trkpt>
      <trkpt lat="47.683823" lon="2.0679088">
        <ele>157</ele>
        <time>2022-01-20T09:28:22Z</time>
      </trkpt>
      <trkpt lat="47.683823" lon="2.0679002">
        <ele>157</ele>
        <time>2022-01-20T09:28:23Z</time>
      </trkpt>
      <trkpt lat="47.68383" lon="2.0678833">
        <ele>157</ele>
        <time>2022-01-20T09:28:24Z</time>
      </trkpt>
      <trkpt lat="47.683826" lon="2.0678658">
        <ele>158</ele>
        <time>2022-01-20T09:28:25Z</time>
      </trkpt>
      <trkpt lat="47.68383" lon="2.06785">
        <ele>158</ele>
        <time>2022-01-20T09:28:26Z</time>
      </trkpt>
      <trkpt lat="47.68383" lon="2.067843">
        <ele>158</ele>
        <time>2022-01-20T09:28:27Z</time>
      </trkpt>
      <trkpt lat="47.683826" lon="2.0678234">
        <ele>158</ele>
        <time>2022-01-20T09:28:28Z</time>
      </trkpt>
      <trkpt lat="47.683826" lon="2.0678065">
        <ele>157</ele>
        <time>2022-01-20T09:28:29Z</time>
      </trkpt>
      <trkpt lat="47.683826" lon="2.067795">
        <ele>157</ele>
        <time>2022-01-20T09:28:30Z</time>
      </trkpt>
      <trkpt lat="47.68383" lon="2.0677814">
        <ele>156</ele>
        <time>2022-01-20T09:28:31Z</time>
      </trkpt>
      <trkpt lat="47.683834" lon="2.0677738">
        <ele>156</ele>
        <time>2022-01-20T09:28:32Z</time>
      </trkpt>
      <trkpt lat="47.683838" lon="2.0677538">
        <ele>156</ele>
        <time>2022-01-20T09:28:33Z</time>
      </trkpt>
      <trkpt lat="47.68384" lon="2.067739">
        <ele>156</ele>
        <time>2022-01-20T09:28:34Z</time>
      </trkpt>
      <trkpt lat="47.68385" lon="2.0677266">
        <ele>156</ele>
        <time>2022-01-20T09:28:35Z</time>
      </trkpt>
      <trkpt lat="47.683857" lon="2.0677128">
        <ele>155</ele>
        <time>2022-01-20T09:28:36Z</time>
      </trkpt>
      <trkpt lat="47.683872" lon="2.0677035">
        <ele>155</ele>
        <time>2022-01-20T09:28:37Z</time>
      </trkpt>
      <trkpt lat="47.683876" lon="2.0676916">
        <ele>155</ele>
        <time>2022-01-20T09:28:38Z</time>
      </trkpt>
      <trkpt lat="47.68388" lon="2.0676782">
        <ele>154</ele>
        <time>2022-01-20T09:28:39Z</time>
      </trkpt>
      <trkpt lat="47.683884" lon="2.0676534">
        <ele>154</ele>
        <time>2022-01-20T09:28:40Z</time>
      </trkpt>
      <trkpt lat="47.683887" lon="2.0676332">
        <ele>153</ele>
        <time>2022-01-20T09:28:41Z</time>
      </trkpt>
      <trkpt lat="47.683887" lon="2.0676126">
        <ele>153</ele>
        <time>2022-01-20T09:28:42Z</time>
      </trkpt>
      <trkpt lat="47.683887" lon="2.0675998">
        <ele>153</ele>
        <time>2022-01-20T09:28:43Z</time>
      </trkpt>
      <trkpt lat="47.68389" lon="2.0675793">
        <ele>153</ele>
        <time>2022-01-20T09:28:44Z</time>
      </trkpt>
      <trkpt lat="47.683895" lon="2.0675573">
        <ele>153</ele>
        <time>2022-01-20T09:28:45Z</time>
      </trkpt>
      <trkpt lat="47.6839" lon="2.0675373">
        <ele>153</ele>
        <time>2022-01-20T09:28:46Z</time>
      </trkpt>
      <trkpt lat="47.6839" lon="2.0675242">
        <ele>153</ele>
        <time>2022-01-20T09:28:47Z</time>
      </trkpt>
      <trkpt lat="47.6839" lon="2.067504">
        <ele>153</ele>
        <time>2022-01-20T09:28:48Z</time>
      </trkpt>
      <trkpt lat="47.6839" lon="2.0674844">
        <ele>152</ele>
        <time>2022-01-20T09:28:49Z</time>
      </trkpt>
      <trkpt lat="47.683903" lon="2.0674753">
        <ele>152</ele>
        <time>2022-01-20T09:28:50Z</time>
      </trkpt>
      <trkpt lat="47.683903" lon="2.067466">
        <ele>152</ele>
        <time>2022-01-20T09:28:51Z</time>
      </trkpt>
      <trkpt lat="47.68391" lon="2.0674508">
        <ele>152</ele>
        <time>2022-01-20T09:28:52Z</time>
      </trkpt>
      <trkpt lat="47.683914" lon="2.0674345">
        <ele>152</ele>
        <time>2022-01-20T09:28:53Z</time>
      </trkpt>
      <trkpt lat="47.68391" lon="2.0674212">
        <ele>152</ele>
        <time>2022-01-20T09:28:54Z</time>
      </trkpt>
      <trkpt lat="47.68391" lon="2.0674062">
        <ele>152</ele>
        <time>2022-01-20T09:28:55Z</time>
      </trkpt>
      <trkpt lat="47.68391" lon="2.0673819">
        <ele>152</ele>
        <time>2022-01-20T09:28:56Z</time>
      </trkpt>
      <trkpt lat="47.683914" lon="2.0673676">
        <ele>152</ele>
        <time>2022-01-20T09:28:57Z</time>
      </trkpt>
      <trkpt lat="47.683918" lon="2.0673463">
        <ele>151</ele>
        <time>2022-01-20T09:28:58Z</time>
      </trkpt>
      <trkpt lat="47.68392" lon="2.0673273">
        <ele>150</ele>
        <time>2022-01-20T09:28:59Z</time>
      </trkpt>
      <trkpt lat="47.68392" lon="2.0673044">
        <ele>150</ele>
        <time>2022-01-20T09:29:00Z</time>
      </trkpt>
      <trkpt lat="47.683933" lon="2.0672846">
        <ele>150</ele>
        <time>2022-01-20T09:29:01Z</time>
      </trkpt>
      <trkpt lat="47.683937" lon="2.0672722">
        <ele>150</ele>
        <time>2022-01-20T09:29:02Z</time>
      </trkpt>
      <trkpt lat="47.68395" lon="2.0672674">
        <ele>150</ele>
        <time>2022-01-20T09:29:03Z</time>
      </trkpt>
      <trkpt lat="47.683956" lon="2.0672538">
        <ele>150</ele>
        <time>2022-01-20T09:29:04Z</time>
      </trkpt>
      <trkpt lat="47.68396" lon="2.0672443">
        <ele>150</ele>
        <time>2022-01-20T09:29:05Z</time>
      </trkpt>
      <trkpt lat="47.683964" lon="2.0672276">
        <ele>151</ele>
        <time>2022-01-20T09:29:06Z</time>
      </trkpt>
      <trkpt lat="47.683968" lon="2.0672102">
        <ele>151</ele>
        <time>2022-01-20T09:29:07Z</time>
      </trkpt>
      <trkpt lat="47.683975" lon="2.0671904">
        <ele>152</ele>
        <time>2022-01-20T09:29:08Z</time>
      </trkpt>
      <trkpt lat="47.68398" lon="2.0671768">
        <ele>151</ele>
        <time>2022-01-20T09:29:09Z</time>
      </trkpt>
      <trkpt lat="47.683983" lon="2.0671644">
        <ele>152</ele>
        <time>2022-01-20T09:29:10Z</time>
      </trkpt>
      <trkpt lat="47.683987" lon="2.067145">
        <ele>152</ele>
        <time>2022-01-20T09:29:11Z</time>
      </trkpt>
      <trkpt lat="47.684" lon="2.0671303">
        <ele>153</ele>
        <time>2022-01-20T09:29:12Z</time>
      </trkpt>
      <trkpt lat="47.684002" lon="2.0671105">
        <ele>153</ele>
        <time>2022-01-20T09:29:13Z</time>
      </trkpt>
      <trkpt lat="47.684" lon="2.0670896">
        <ele>153</ele>
        <time>2022-01-20T09:29:14Z</time>
      </trkpt>
      <trkpt lat="47.683994" lon="2.067073">
        <ele>153</ele>
        <time>2022-01-20T09:29:15Z</time>
      </trkpt>
      <trkpt lat="47.684002" lon="2.0670447">
        <ele>153</ele>
        <time>2022-01-20T09:29:16Z</time>
      </trkpt>
      <trkpt lat="47.68401" lon="2.067037">
        <ele>152</ele>
        <time>2022-01-20T09:29:17Z</time>
      </trkpt>
      <trkpt lat="47.684017" lon="2.0670278">
        <ele>152</ele>
        <time>2022-01-20T09:29:18Z</time>
      </trkpt>
      <trkpt lat="47.684025" lon="2.0670106">
        <ele>152</ele>
        <time>2022-01-20T09:29:19Z</time>
      </trkpt>
      <trkpt lat="47.684025" lon="2.0669951">
        <ele>152</ele>
        <time>2022-01-20T09:29:20Z</time>
      </trkpt>
      <trkpt lat="47.684025" lon="2.0669787">
        <ele>152</ele>
        <time>2022-01-20T09:29:21Z</time>
      </trkpt>
      <trkpt lat="47.68403" lon="2.066961">
        <ele>152</ele>
        <time>2022-01-20T09:29:22Z</time>
      </trkpt>
      <trkpt lat="47.684032" lon="2.0669413">
        <ele>152</ele>
        <time>2022-01-20T09:29:23Z</time>
      </trkpt>
      <trkpt lat="47.684032" lon="2.0669177">
        <ele>153</ele>
        <time>2022-01-20T09:29:24Z</time>
      </trkpt>
      <trkpt lat="47.684032" lon="2.066899">
        <ele>153</ele>
        <time>2022-01-20T09:29:25Z</time>
      </trkpt>
      <trkpt lat="47.684032" lon="2.0668788">
        <ele>153</ele>
        <time>2022-01-20T09:29:26Z</time>
      </trkpt>
      <trkpt lat="47.684036" lon="2.0668628">
        <ele>153</ele>
        <time>2022-01-20T09:29:27Z</time>
      </trkpt>
      <trkpt lat="47.68404" lon="2.0668452">
        <ele>153</ele>
        <time>2022-01-20T09:29:28Z</time>
      </trkpt>
      <trkpt lat="47.684044" lon="2.0668275">
        <ele>153</ele>
        <time>2022-01-20T09:29:29Z</time>
      </trkpt>
      <trkpt lat="47.684044" lon="2.0668058">
        <ele>153</ele>
        <time>2022-01-20T09:29:30Z</time>
      </trkpt>
      <trkpt lat="47.684048" lon="2.0667849">
        <ele>153</ele>
        <time>2022-01-20T09:29:31Z</time>
      </trkpt>
      <trkpt lat="47.68406" lon="2.066772">
        <ele>153</ele>
        <time>2022-01-20T09:29:32Z</time>
      </trkpt>
      <trkpt lat="47.68406" lon="2.0667524">
        <ele>153</ele>
        <time>2022-01-20T09:29:33Z</time>
      </trkpt>
      <trkpt lat="47.684067" lon="2.066752">
        <ele>153</ele>
        <time>2022-01-20T09:29:34Z</time>
      </trkpt>
      <trkpt lat="47.68407" lon="2.0667381">
        <ele>153</ele>
        <time>2022-01-20T09:29:35Z</time>
      </trkpt>
      <trkpt lat="47.68408" lon="2.0667262">
        <ele>153</ele>
        <time>2022-01-20T09:29:36Z</time>
      </trkpt>
      <trkpt lat="47.68409" lon="2.0667262">
        <ele>152</ele>
        <time>2022-01-20T09:29:37Z</time>
      </trkpt>
      <trkpt lat="47.684093" lon="2.0667107">
        <ele>152</ele>
        <time>2022-01-20T09:29:38Z</time>
      </trkpt>
      <trkpt lat="47.684097" lon="2.0667002">
        <ele>152</ele>
        <time>2022-01-20T09:29:39Z</time>
      </trkpt>
      <trkpt lat="47.6841" lon="2.0666845">
        <ele>153</ele>
        <time>2022-01-20T09:29:40Z</time>
      </trkpt>
      <trkpt lat="47.6841" lon="2.0666752">
        <ele>153</ele>
        <time>2022-01-20T09:29:41Z</time>
      </trkpt>
      <trkpt lat="47.6841" lon="2.0666614">
        <ele>153</ele>
        <time>2022-01-20T09:29:42Z</time>
      </trkpt>
      <trkpt lat="47.6841" lon="2.0666454">
        <ele>153</ele>
        <time>2022-01-20T09:29:43Z</time>
      </trkpt>
      <trkpt lat="47.68411" lon="2.066629">
        <ele>154</ele>
        <time>2022-01-20T09:29:44Z</time>
      </trkpt>
      <trkpt lat="47.68412" lon="2.0666127">
        <ele>155</ele>
        <time>2022-01-20T09:29:45Z</time>
      </trkpt>
      <trkpt lat="47.68413" lon="2.0666013">
        <ele>155</ele>
        <time>2022-01-20T09:29:46Z</time>
      </trkpt>
      <trkpt lat="47.68414" lon="2.0665913">
        <ele>155</ele>
        <time>2022-01-20T09:29:47Z</time>
      </trkpt>
      <trkpt lat="47.684147" lon="2.066582">
        <ele>155</ele>
        <time>2022-01-20T09:29:48Z</time>
      </trkpt>
      <trkpt lat="47.684155" lon="2.0665755">
        <ele>155</ele>
        <time>2022-01-20T09:29:49Z</time>
      </trkpt>
      <trkpt lat="47.684162" lon="2.0665681">
        <ele>155</ele>
        <time>2022-01-20T09:29:50Z</time>
      </trkpt>
      <trkpt lat="47.68417" lon="2.0665567">
        <ele>155</ele>
        <time>2022-01-20T09:29:51Z</time>
      </trkpt>
      <trkpt lat="47.684177" lon="2.0665479">
        <ele>155</ele>
        <time>2022-01-20T09:29:52Z</time>
      </trkpt>
      <trkpt lat="47.68418" lon="2.0665476">
        <ele>155</ele>
        <time>2022-01-20T09:29:53Z</time>
      </trkpt>
      <trkpt lat="47.684185" lon="2.0665426">
        <ele>155</ele>
        <time>2022-01-20T09:29:54Z</time>
      </trkpt>
      <trkpt lat="47.684193" lon="2.0665362">
        <ele>155</ele>
        <time>2022-01-20T09:29:55Z</time>
      </trkpt>
      <trkpt lat="47.684196" lon="2.0665286">
        <ele>155</ele>
        <time>2022-01-20T09:29:56Z</time>
      </trkpt>
      <trkpt lat="47.684204" lon="2.0665126">
        <ele>154</ele>
        <time>2022-01-20T09:29:57Z</time>
      </trkpt>
      <trkpt lat="47.68421" lon="2.0664935">
        <ele>154</ele>
        <time>2022-01-20T09:29:58Z</time>
      </trkpt>
      <trkpt lat="47.684216" lon="2.066476">
        <ele>154</ele>
        <time>2022-01-20T09:29:59Z</time>
      </trkpt>
      <trkpt lat="47.684223" lon="2.0664628">
        <ele>153</ele>
        <time>2022-01-20T09:30:00Z</time>
      </trkpt>
      <trkpt lat="47.68423" lon="2.0664477">
        <ele>153</ele>
        <time>2022-01-20T09:30:01Z</time>
      </trkpt>
      <trkpt lat="47.68424" lon="2.0664332">
        <ele>153</ele>
        <time>2022-01-20T09:30:02Z</time>
      </trkpt>
      <trkpt lat="47.684246" lon="2.066418">
        <ele>154</ele>
        <time>2022-01-20T09:30:03Z</time>
      </trkpt>
      <trkpt lat="47.68425" lon="2.066405">
        <ele>154</ele>
        <time>2022-01-20T09:30:04Z</time>
      </trkpt>
      <trkpt lat="47.684254" lon="2.0663958">
        <ele>153</ele>
        <time>2022-01-20T09:30:05Z</time>
      </trkpt>
      <trkpt lat="47.684254" lon="2.066384">
        <ele>153</ele>
        <time>2022-01-20T09:30:06Z</time>
      </trkpt>
      <trkpt lat="47.684258" lon="2.0663729">
        <ele>153</ele>
        <time>2022-01-20T09:30:07Z</time>
      </trkpt>
      <trkpt lat="47.68426" lon="2.0663598">
        <ele>153</ele>
        <time>2022-01-20T09:30:08Z</time>
      </trkpt>
      <trkpt lat="47.68427" lon="2.0663438">
        <ele>153</ele>
        <time>2022-01-20T09:30:09Z</time>
      </trkpt>
      <trkpt lat="47.68428" lon="2.066323">
        <ele>153</ele>
        <time>2022-01-20T09:30:10Z</time>
      </trkpt>
      <trkpt lat="47.68429" lon="2.0663116">
        <ele>153</ele>
        <time>2022-01-20T09:30:11Z</time>
      </trkpt>
      <trkpt lat="47.6843" lon="2.0663042">
        <ele>153</ele>
        <time>2022-01-20T09:30:12Z</time>
      </trkpt>
      <trkpt lat="47.68431" lon="2.0662942">
        <ele>153</ele>
        <time>2022-01-20T09:30:13Z</time>
      </trkpt>
      <trkpt lat="47.68432" lon="2.0662813">
        <ele>153</ele>
        <time>2022-01-20T09:30:14Z</time>
      </trkpt>
      <trkpt lat="47.684322" lon="2.066271">
        <ele>154</ele>
        <time>2022-01-20T09:30:15Z</time>
      </trkpt>
      <trkpt lat="47.68433" lon="2.06626">
        <ele>154</ele>
        <time>2022-01-20T09:30:16Z</time>
      </trkpt>
      <trkpt lat="47.684338" lon="2.066253">
        <ele>154</ele>
        <time>2022-01-20T09:30:17Z</time>
      </trkpt>
      <trkpt lat="47.684345" lon="2.066242">
        <ele>154</ele>
        <time>2022-01-20T09:30:18Z</time>
      </trkpt>
      <trkpt lat="47.684353" lon="2.0662313">
        <ele>154</ele>
        <time>2022-01-20T09:30:19Z</time>
      </trkpt>
      <trkpt lat="47.68436" lon="2.0662227">
        <ele>155</ele>
        <time>2022-01-20T09:30:20Z</time>
      </trkpt>
      <trkpt lat="47.684364" lon="2.0662134">
        <ele>154</ele>
        <time>2022-01-20T09:30:21Z</time>
      </trkpt>
      <trkpt lat="47.684372" lon="2.0661986">
        <ele>154</ele>
        <time>2022-01-20T09:30:22Z</time>
      </trkpt>
      <trkpt lat="47.68438" lon="2.066181">
        <ele>154</ele>
        <time>2022-01-20T09:30:23Z</time>
      </trkpt>
      <trkpt lat="47.68439" lon="2.066167">
        <ele>154</ele>
        <time>2022-01-20T09:30:24Z</time>
      </trkpt>
      <trkpt lat="47.6844" lon="2.0661504">
        <ele>154</ele>
        <time>2022-01-20T09:30:25Z</time>
      </trkpt>
      <trkpt lat="47.684406" lon="2.0661368">
        <ele>154</ele>
        <time>2022-01-20T09:30:26Z</time>
      </trkpt>
      <trkpt lat="47.684414" lon="2.0661294">
        <ele>154</ele>
        <time>2022-01-20T09:30:27Z</time>
      </trkpt>
      <trkpt lat="47.684425" lon="2.0661235">
        <ele>154</ele>
        <time>2022-01-20T09:30:28Z</time>
      </trkpt>
      <trkpt lat="47.684433" lon="2.0661097">
        <ele>154</ele>
        <time>2022-01-20T09:30:29Z</time>
      </trkpt>
      <trkpt lat="47.68444" lon="2.0660987">
        <ele>154</ele>
        <time>2022-01-20T09:30:30Z</time>
      </trkpt>
      <trkpt lat="47.684444" lon="2.0660849">
        <ele>154</ele>
        <time>2022-01-20T09:30:31Z</time>
      </trkpt>
      <trkpt lat="47.684452" lon="2.0660763">
        <ele>154</ele>
        <time>2022-01-20T09:30:32Z</time>
      </trkpt>
      <trkpt lat="47.68446" lon="2.0660672">
        <ele>154</ele>
        <time>2022-01-20T09:30:33Z</time>
      </trkpt>
      <trkpt lat="47.684467" lon="2.0660543">
        <ele>153</ele>
        <time>2022-01-20T09:30:34Z</time>
      </trkpt>
      <trkpt lat="47.684475" lon="2.0660427">
        <ele>154</ele>
        <time>2022-01-20T09:30:35Z</time>
      </trkpt>
      <trkpt lat="47.684486" lon="2.066034">
        <ele>154</ele>
        <time>2022-01-20T09:30:36Z</time>
      </trkpt>
      <trkpt lat="47.684494" lon="2.0660212">
        <ele>154</ele>
        <time>2022-01-20T09:30:37Z</time>
      </trkpt>
      <trkpt lat="47.6845" lon="2.066012">
        <ele>154</ele>
        <time>2022-01-20T09:30:38Z</time>
      </trkpt>
      <trkpt lat="47.68451" lon="2.065998">
        <ele>154</ele>
        <time>2022-01-20T09:30:39Z</time>
      </trkpt>
      <trkpt lat="47.684513" lon="2.0659883">
        <ele>154</ele>
        <time>2022-01-20T09:30:40Z</time>
      </trkpt>
      <trkpt lat="47.684525" lon="2.0659742">
        <ele>154</ele>
        <time>2022-01-20T09:30:41Z</time>
      </trkpt>
      <trkpt lat="47.684532" lon="2.065964">
        <ele>154</ele>
        <time>2022-01-20T09:30:42Z</time>
      </trkpt>
      <trkpt lat="47.684544" lon="2.0659556">
        <ele>153</ele>
        <time>2022-01-20T09:30:43Z</time>
      </trkpt>
      <trkpt lat="47.68455" lon="2.06595">
        <ele>153</ele>
        <time>2022-01-20T09:30:44Z</time>
      </trkpt>
      <trkpt lat="47.684563" lon="2.0659416">
        <ele>153</ele>
        <time>2022-01-20T09:30:45Z</time>
      </trkpt>
      <trkpt lat="47.68457" lon="2.0659363">
        <ele>152</ele>
        <time>2022-01-20T09:30:46Z</time>
      </trkpt>
      <trkpt lat="47.684578" lon="2.0659318">
        <ele>152</ele>
        <time>2022-01-20T09:30:47Z</time>
      </trkpt>
      <trkpt lat="47.68459" lon="2.06592">
        <ele>153</ele>
        <time>2022-01-20T09:30:48Z</time>
      </trkpt>
      <trkpt lat="47.684597" lon="2.0659077">
        <ele>152</ele>
        <time>2022-01-20T09:30:49Z</time>
      </trkpt>
      <trkpt lat="47.684605" lon="2.065899">
        <ele>152</ele>
        <time>2022-01-20T09:30:50Z</time>
      </trkpt>
      <trkpt lat="47.68461" lon="2.065891">
        <ele>152</ele>
        <time>2022-01-20T09:30:51Z</time>
      </trkpt>
      <trkpt lat="47.684612" lon="2.065889">
        <ele>153</ele>
        <time>2022-01-20T09:30:52Z</time>
      </trkpt>
      <trkpt lat="47.68462" lon="2.0658803">
        <ele>153</ele>
        <time>2022-01-20T09:30:53Z</time>
      </trkpt>
      <trkpt lat="47.684624" lon="2.0658684">
        <ele>153</ele>
        <time>2022-01-20T09:30:54Z</time>
      </trkpt>
      <trkpt lat="47.68463" lon="2.0658545">
        <ele>153</ele>
        <time>2022-01-20T09:30:55Z</time>
      </trkpt>
      <trkpt lat="47.684635" lon="2.065843">
        <ele>153</ele>
        <time>2022-01-20T09:30:56Z</time>
      </trkpt>
      <trkpt lat="47.684643" lon="2.0658362">
        <ele>153</ele>
        <time>2022-01-20T09:30:57Z</time>
      </trkpt>
      <trkpt lat="47.68465" lon="2.0658255">
        <ele>153</ele>
        <time>2022-01-20T09:30:58Z</time>
      </trkpt>
      <trkpt lat="47.684658" lon="2.0658114">
        <ele>153</ele>
        <time>2022-01-20T09:30:59Z</time>
      </trkpt>
      <trkpt lat="47.684666" lon="2.0657954">
        <ele>153</ele>
        <time>2022-01-20T09:31:00Z</time>
      </trkpt>
      <trkpt lat="47.684673" lon="2.065782">
        <ele>153</ele>
        <time>2022-01-20T09:31:01Z</time>
      </trkpt>
      <trkpt lat="47.68468" lon="2.0657701">
        <ele>153</ele>
        <time>2022-01-20T09:31:02Z</time>
      </trkpt>
      <trkpt lat="47.68469" lon="2.0657575">
        <ele>152</ele>
        <time>2022-01-20T09:31:03Z</time>
      </trkpt>
      <trkpt lat="47.684696" lon="2.065742">
        <ele>152</ele>
        <time>2022-01-20T09:31:04Z</time>
      </trkpt>
      <trkpt lat="47.684708" lon="2.0657227">
        <ele>152</ele>
        <time>2022-01-20T09:31:05Z</time>
      </trkpt>
      <trkpt lat="47.684715" lon="2.065705">
        <ele>152</ele>
        <time>2022-01-20T09:31:06Z</time>
      </trkpt>
      <trkpt lat="47.684723" lon="2.0656893">
        <ele>152</ele>
        <time>2022-01-20T09:31:07Z</time>
      </trkpt>
      <trkpt lat="47.68473" lon="2.0656714">
        <ele>153</ele>
        <time>2022-01-20T09:31:08Z</time>
      </trkpt>
      <trkpt lat="47.684742" lon="2.065656">
        <ele>153</ele>
        <time>2022-01-20T09:31:09Z</time>
      </trkpt>
      <trkpt lat="47.68475" lon="2.0656452">
        <ele>153</ele>
        <time>2022-01-20T09:31:10Z</time>
      </trkpt>
      <trkpt lat="47.68476" lon="2.0656385">
        <ele>153</ele>
        <time>2022-01-20T09:31:11Z</time>
      </trkpt>
      <trkpt lat="47.68477" lon="2.0656235">
        <ele>153</ele>
        <time>2022-01-20T09:31:12Z</time>
      </trkpt>
      <trkpt lat="47.684776" lon="2.065609">
        <ele>153</ele>
        <time>2022-01-20T09:31:13Z</time>
      </trkpt>
      <trkpt lat="47.684784" lon="2.065594">
        <ele>154</ele>
        <time>2022-01-20T09:31:14Z</time>
      </trkpt>
      <trkpt lat="47.68479" lon="2.065579">
        <ele>154</ele>
        <time>2022-01-20T09:31:15Z</time>
      </trkpt>
      <trkpt lat="47.6848" lon="2.0655687">
        <ele>154</ele>
        <time>2022-01-20T09:31:16Z</time>
      </trkpt>
      <trkpt lat="47.68481" lon="2.0655625">
        <ele>154</ele>
        <time>2022-01-20T09:31:17Z</time>
      </trkpt>
      <trkpt lat="47.68482" lon="2.065549">
        <ele>155</ele>
        <time>2022-01-20T09:31:18Z</time>
      </trkpt>
      <trkpt lat="47.684822" lon="2.0655272">
        <ele>155</ele>
        <time>2022-01-20T09:31:19Z</time>
      </trkpt>
      <trkpt lat="47.684826" lon="2.0655107">
        <ele>155</ele>
        <time>2022-01-20T09:31:20Z</time>
      </trkpt>
      <trkpt lat="47.684834" lon="2.0654957">
        <ele>155</ele>
        <time>2022-01-20T09:31:21Z</time>
      </trkpt>
      <trkpt lat="47.68484" lon="2.0654824">
        <ele>155</ele>
        <time>2022-01-20T09:31:22Z</time>
      </trkpt>
      <trkpt lat="47.68485" lon="2.0654726">
        <ele>155</ele>
        <time>2022-01-20T09:31:23Z</time>
      </trkpt>
      <trkpt lat="47.684856" lon="2.0654545">
        <ele>155</ele>
        <time>2022-01-20T09:31:24Z</time>
      </trkpt>
      <trkpt lat="47.684864" lon="2.0654368">
        <ele>155</ele>
        <time>2022-01-20T09:31:25Z</time>
      </trkpt>
      <trkpt lat="47.68487" lon="2.0654278">
        <ele>155</ele>
        <time>2022-01-20T09:31:26Z</time>
      </trkpt>
      <trkpt lat="47.684875" lon="2.0654182">
        <ele>155</ele>
        <time>2022-01-20T09:31:27Z</time>
      </trkpt>
      <trkpt lat="47.684875" lon="2.0654016">
        <ele>155</ele>
        <time>2022-01-20T09:31:28Z</time>
      </trkpt>
      <trkpt lat="47.68488" lon="2.0653868">
        <ele>155</ele>
        <time>2022-01-20T09:31:29Z</time>
      </trkpt>
      <trkpt lat="47.684883" lon="2.0653749">
        <ele>155</ele>
        <time>2022-01-20T09:31:30Z</time>
      </trkpt>
      <trkpt lat="47.68489" lon="2.065361">
        <ele>155</ele>
        <time>2022-01-20T09:31:31Z</time>
      </trkpt>
      <trkpt lat="47.6849" lon="2.065349">
        <ele>154</ele>
        <time>2022-01-20T09:31:32Z</time>
      </trkpt>
      <trkpt lat="47.684902" lon="2.065334">
        <ele>154</ele>
        <time>2022-01-20T09:31:33Z</time>
      </trkpt>
      <trkpt lat="47.68491" lon="2.0653224">
        <ele>154</ele>
        <time>2022-01-20T09:31:34Z</time>
      </trkpt>
      <trkpt lat="47.68492" lon="2.0653086">
        <ele>154</ele>
        <time>2022-01-20T09:31:35Z</time>
      </trkpt>
      <trkpt lat="47.684925" lon="2.0652914">
        <ele>154</ele>
        <time>2022-01-20T09:31:36Z</time>
      </trkpt>
      <trkpt lat="47.684933" lon="2.065282">
        <ele>154</ele>
        <time>2022-01-20T09:31:37Z</time>
      </trkpt>
      <trkpt lat="47.68494" lon="2.0652719">
        <ele>154</ele>
        <time>2022-01-20T09:31:38Z</time>
      </trkpt>
      <trkpt lat="47.68495" lon="2.0652657">
        <ele>155</ele>
        <time>2022-01-20T09:31:39Z</time>
      </trkpt>
      <trkpt lat="47.684963" lon="2.0652604">
        <ele>155</ele>
        <time>2022-01-20T09:31:40Z</time>
      </trkpt>
      <trkpt lat="47.684975" lon="2.065257">
        <ele>156</ele>
        <time>2022-01-20T09:31:41Z</time>
      </trkpt>
      <trkpt lat="47.684986" lon="2.0652463">
        <ele>156</ele>
        <time>2022-01-20T09:31:42Z</time>
      </trkpt>
      <trkpt lat="47.684998" lon="2.065236">
        <ele>156</ele>
        <time>2022-01-20T09:31:43Z</time>
      </trkpt>
      <trkpt lat="47.685005" lon="2.0652287">
        <ele>156</ele>
        <time>2022-01-20T09:31:44Z</time>
      </trkpt>
      <trkpt lat="47.685017" lon="2.0652134">
        <ele>156</ele>
        <time>2022-01-20T09:31:45Z</time>
      </trkpt>
      <trkpt lat="47.685028" lon="2.0652046">
        <ele>157</ele>
        <time>2022-01-20T09:31:46Z</time>
      </trkpt>
      <trkpt lat="47.685036" lon="2.0651946">
        <ele>157</ele>
        <time>2022-01-20T09:31:47Z</time>
      </trkpt>
      <trkpt lat="47.685043" lon="2.0651858">
        <ele>157</ele>
        <time>2022-01-20T09:31:48Z</time>
      </trkpt>
      <trkpt lat="47.68505" lon="2.0651748">
        <ele>156</ele>
        <time>2022-01-20T09:31:49Z</time>
      </trkpt>
      <trkpt lat="47.68506" lon="2.0651658">
        <ele>156</ele>
        <time>2022-01-20T09:31:50Z</time>
      </trkpt>
      <trkpt lat="47.685066" lon="2.0651624">
        <ele>156</ele>
        <time>2022-01-20T09:31:51Z</time>
      </trkpt>
      <trkpt lat="47.685074" lon="2.065155">
        <ele>156</ele>
        <time>2022-01-20T09:31:52Z</time>
      </trkpt>
      <trkpt lat="47.685085" lon="2.0651438">
        <ele>157</ele>
        <time>2022-01-20T09:31:53Z</time>
      </trkpt>
      <trkpt lat="47.685093" lon="2.0651295">
        <ele>157</ele>
        <time>2022-01-20T09:31:54Z</time>
      </trkpt>
      <trkpt lat="47.685104" lon="2.0651171">
        <ele>157</ele>
        <time>2022-01-20T09:31:55Z</time>
      </trkpt>
      <trkpt lat="47.68511" lon="2.0651052">
        <ele>157</ele>
        <time>2022-01-20T09:31:56Z</time>
      </trkpt>
      <trkpt lat="47.685116" lon="2.0650992">
        <ele>157</ele>
        <time>2022-01-20T09:31:57Z</time>
      </trkpt>
      <trkpt lat="47.685123" lon="2.065093">
        <ele>157</ele>
        <time>2022-01-20T09:31:58Z</time>
      </trkpt>
      <trkpt lat="47.685135" lon="2.0650787">
        <ele>157</ele>
        <time>2022-01-20T09:31:59Z</time>
      </trkpt>
      <trkpt lat="47.685143" lon="2.0650692">
        <ele>157</ele>
        <time>2022-01-20T09:32:00Z</time>
      </trkpt>
      <trkpt lat="47.685154" lon="2.0650637">
        <ele>157</ele>
        <time>2022-01-20T09:32:01Z</time>
      </trkpt>
      <trkpt lat="47.68516" lon="2.0650623">
        <ele>157</ele>
        <time>2022-01-20T09:32:02Z</time>
      </trkpt>
      <trkpt lat="47.68517" lon="2.0650575">
        <ele>156</ele>
        <time>2022-01-20T09:32:03Z</time>
      </trkpt>
      <trkpt lat="47.68518" lon="2.0650475">
        <ele>157</ele>
        <time>2022-01-20T09:32:04Z</time>
      </trkpt>
      <trkpt lat="47.685184" lon="2.065036">
        <ele>157</ele>
        <time>2022-01-20T09:32:05Z</time>
      </trkpt>
      <trkpt lat="47.685192" lon="2.0650308">
        <ele>157</ele>
        <time>2022-01-20T09:32:06Z</time>
      </trkpt>
      <trkpt lat="47.685196" lon="2.0650244">
        <ele>157</ele>
        <time>2022-01-20T09:32:07Z</time>
      </trkpt>
      <trkpt lat="47.685204" lon="2.0650146">
        <ele>156</ele>
        <time>2022-01-20T09:32:08Z</time>
      </trkpt>
      <trkpt lat="47.685215" lon="2.0650027">
        <ele>156</ele>
        <time>2022-01-20T09:32:09Z</time>
      </trkpt>
      <trkpt lat="47.68522" lon="2.0649896">
        <ele>156</ele>
        <time>2022-01-20T09:32:10Z</time>
      </trkpt>
      <trkpt lat="47.685226" lon="2.0649765">
        <ele>156</ele>
        <time>2022-01-20T09:32:11Z</time>
      </trkpt>
      <trkpt lat="47.685234" lon="2.0649629">
        <ele>156</ele>
        <time>2022-01-20T09:32:12Z</time>
      </trkpt>
      <trkpt lat="47.68524" lon="2.0649536">
        <ele>156</ele>
        <time>2022-01-20T09:32:13Z</time>
      </trkpt>
      <trkpt lat="47.685246" lon="2.0649471">
        <ele>155</ele>
        <time>2022-01-20T09:32:14Z</time>
      </trkpt>
      <trkpt lat="47.685253" lon="2.0649424">
        <ele>155</ele>
        <time>2022-01-20T09:32:15Z</time>
      </trkpt>
      <trkpt lat="47.68526" lon="2.064934">
        <ele>155</ele>
        <time>2022-01-20T09:32:16Z</time>
      </trkpt>
      <trkpt lat="47.685276" lon="2.0649254">
        <ele>155</ele>
        <time>2022-01-20T09:32:17Z</time>
      </trkpt>
      <trkpt lat="47.685284" lon="2.0649142">
        <ele>155</ele>
        <time>2022-01-20T09:32:18Z</time>
      </trkpt>
      <trkpt lat="47.68529" lon="2.0649014">
        <ele>156</ele>
        <time>2022-01-20T09:32:19Z</time>
      </trkpt>
      <trkpt lat="47.685295" lon="2.0648873">
        <ele>155</ele>
        <time>2022-01-20T09:32:20Z</time>
      </trkpt>
      <trkpt lat="47.685303" lon="2.0648744">
        <ele>156</ele>
        <time>2022-01-20T09:32:21Z</time>
      </trkpt>
      <trkpt lat="47.685307" lon="2.0648644">
        <ele>155</ele>
        <time>2022-01-20T09:32:22Z</time>
      </trkpt>
      <trkpt lat="47.685318" lon="2.0648496">
        <ele>155</ele>
        <time>2022-01-20T09:32:23Z</time>
      </trkpt>
      <trkpt lat="47.68533" lon="2.0648406">
        <ele>155</ele>
        <time>2022-01-20T09:32:24Z</time>
      </trkpt>
      <trkpt lat="47.68534" lon="2.0648186">
        <ele>155</ele>
        <time>2022-01-20T09:32:25Z</time>
      </trkpt>
      <trkpt lat="47.68535" lon="2.064804">
        <ele>156</ele>
        <time>2022-01-20T09:32:26Z</time>
      </trkpt>
      <trkpt lat="47.685356" lon="2.0647902">
        <ele>156</ele>
        <time>2022-01-20T09:32:27Z</time>
      </trkpt>
      <trkpt lat="47.685364" lon="2.0647857">
        <ele>156</ele>
        <time>2022-01-20T09:32:28Z</time>
      </trkpt>
      <trkpt lat="47.685375" lon="2.064779">
        <ele>156</ele>
        <time>2022-01-20T09:32:29Z</time>
      </trkpt>
      <trkpt lat="47.68538" lon="2.064774">
        <ele>155</ele>
        <time>2022-01-20T09:32:30Z</time>
      </trkpt>
      <trkpt lat="47.685387" lon="2.0647647">
        <ele>155</ele>
        <time>2022-01-20T09:32:31Z</time>
      </trkpt>
      <trkpt lat="47.685394" lon="2.0647478">
        <ele>155</ele>
        <time>2022-01-20T09:32:32Z</time>
      </trkpt>
      <trkpt lat="47.685402" lon="2.064733">
        <ele>155</ele>
        <time>2022-01-20T09:32:33Z</time>
      </trkpt>
      <trkpt lat="47.68541" lon="2.0647173">
        <ele>155</ele>
        <time>2022-01-20T09:32:34Z</time>
      </trkpt>
      <trkpt lat="47.685417" lon="2.0647035">
        <ele>155</ele>
        <time>2022-01-20T09:32:35Z</time>
      </trkpt>
      <trkpt lat="47.685425" lon="2.064689">
        <ele>155</ele>
        <time>2022-01-20T09:32:36Z</time>
      </trkpt>
      <trkpt lat="47.68543" lon="2.0646713">
        <ele>155</ele>
        <time>2022-01-20T09:32:37Z</time>
      </trkpt>
      <trkpt lat="47.685432" lon="2.0646563">
        <ele>155</ele>
        <time>2022-01-20T09:32:38Z</time>
      </trkpt>
      <trkpt lat="47.685436" lon="2.0646448">
        <ele>155</ele>
        <time>2022-01-20T09:32:39Z</time>
      </trkpt>
      <trkpt lat="47.685444" lon="2.0646276">
        <ele>155</ele>
        <time>2022-01-20T09:32:40Z</time>
      </trkpt>
      <trkpt lat="47.685448" lon="2.0646052">
        <ele>155</ele>
        <time>2022-01-20T09:32:41Z</time>
      </trkpt>
      <trkpt lat="47.685455" lon="2.0645869">
        <ele>155</ele>
        <time>2022-01-20T09:32:42Z</time>
      </trkpt>
      <trkpt lat="47.685463" lon="2.0645642">
        <ele>155</ele>
        <time>2022-01-20T09:32:43Z</time>
      </trkpt>
      <trkpt lat="47.685467" lon="2.0645428">
        <ele>155</ele>
        <time>2022-01-20T09:32:44Z</time>
      </trkpt>
      <trkpt lat="47.685474" lon="2.0645258">
        <ele>154</ele>
        <time>2022-01-20T09:32:45Z</time>
      </trkpt>
      <trkpt lat="47.685482" lon="2.064511">
        <ele>154</ele>
        <time>2022-01-20T09:32:46Z</time>
      </trkpt>
      <trkpt lat="47.685486" lon="2.0644984">
        <ele>154</ele>
        <time>2022-01-20T09:32:47Z</time>
      </trkpt>
      <trkpt lat="47.685497" lon="2.0644844">
        <ele>153</ele>
        <time>2022-01-20T09:32:48Z</time>
      </trkpt>
      <trkpt lat="47.685505" lon="2.0644662">
        <ele>153</ele>
        <time>2022-01-20T09:32:49Z</time>
      </trkpt>
      <trkpt lat="47.685513" lon="2.06445">
        <ele>153</ele>
        <time>2022-01-20T09:32:50Z</time>
      </trkpt>
      <trkpt lat="47.68552" lon="2.06444">
        <ele>152</ele>
        <time>2022-01-20T09:32:51Z</time>
      </trkpt>
      <trkpt lat="47.685528" lon="2.064432">
        <ele>152</ele>
        <time>2022-01-20T09:32:52Z</time>
      </trkpt>
      <trkpt lat="47.685535" lon="2.064419">
        <ele>152</ele>
        <time>2022-01-20T09:32:53Z</time>
      </trkpt>
      <trkpt lat="47.685547" lon="2.0644062">
        <ele>152</ele>
        <time>2022-01-20T09:32:54Z</time>
      </trkpt>
      <trkpt lat="47.68555" lon="2.0643885">
        <ele>152</ele>
        <time>2022-01-20T09:32:55Z</time>
      </trkpt>
      <trkpt lat="47.685555" lon="2.064373">
        <ele>152</ele>
        <time>2022-01-20T09:32:56Z</time>
      </trkpt>
      <trkpt lat="47.685562" lon="2.0643618">
        <ele>152</ele>
        <time>2022-01-20T09:32:57Z</time>
      </trkpt>
      <trkpt lat="47.68557" lon="2.0643508">
        <ele>152</ele>
        <time>2022-01-20T09:32:58Z</time>
      </trkpt>
      <trkpt lat="47.685577" lon="2.0643387">
        <ele>153</ele>
        <time>2022-01-20T09:32:59Z</time>
      </trkpt>
      <trkpt lat="47.68558" lon="2.0643232">
        <ele>153</ele>
        <time>2022-01-20T09:33:00Z</time>
      </trkpt>
      <trkpt lat="47.68559" lon="2.0643063">
        <ele>153</ele>
        <time>2022-01-20T09:33:01Z</time>
      </trkpt>
      <trkpt lat="47.685593" lon="2.0642936">
        <ele>153</ele>
        <time>2022-01-20T09:33:02Z</time>
      </trkpt>
      <trkpt lat="47.685596" lon="2.0642786">
        <ele>153</ele>
        <time>2022-01-20T09:33:03Z</time>
      </trkpt>
      <trkpt lat="47.685604" lon="2.0642664">
        <ele>153</ele>
        <time>2022-01-20T09:33:04Z</time>
      </trkpt>
      <trkpt lat="47.68561" lon="2.064253">
        <ele>153</ele>
        <time>2022-01-20T09:33:05Z</time>
      </trkpt>
      <trkpt lat="47.685616" lon="2.0642376">
        <ele>154</ele>
        <time>2022-01-20T09:33:06Z</time>
      </trkpt>
      <trkpt lat="47.685623" lon="2.0642252">
        <ele>153</ele>
        <time>2022-01-20T09:33:07Z</time>
      </trkpt>
      <trkpt lat="47.685627" lon="2.064209">
        <ele>154</ele>
        <time>2022-01-20T09:33:08Z</time>
      </trkpt>
      <trkpt lat="47.685635" lon="2.0641925">
        <ele>154</ele>
        <time>2022-01-20T09:33:09Z</time>
      </trkpt>
      <trkpt lat="47.685642" lon="2.0641792">
        <ele>153</ele>
        <time>2022-01-20T09:33:10Z</time>
      </trkpt>
      <trkpt lat="47.68565" lon="2.064165">
        <ele>153</ele>
        <time>2022-01-20T09:33:11Z</time>
      </trkpt>
      <trkpt lat="47.685658" lon="2.0641487">
        <ele>154</ele>
        <time>2022-01-20T09:33:12Z</time>
      </trkpt>
      <trkpt lat="47.68566" lon="2.0641358">
        <ele>154</ele>
        <time>2022-01-20T09:33:13Z</time>
      </trkpt>
      <trkpt lat="47.68567" lon="2.0641215">
        <ele>154</ele>
        <time>2022-01-20T09:33:14Z</time>
      </trkpt>
      <trkpt lat="47.685677" lon="2.064106">
        <ele>154</ele>
        <time>2022-01-20T09:33:15Z</time>
      </trkpt>
      <trkpt lat="47.685688" lon="2.0640893">
        <ele>154</ele>
        <time>2022-01-20T09:33:16Z</time>
      </trkpt>
      <trkpt lat="47.685696" lon="2.064073">
        <ele>155</ele>
        <time>2022-01-20T09:33:17Z</time>
      </trkpt>
      <trkpt lat="47.685703" lon="2.0640633">
        <ele>154</ele>
        <time>2022-01-20T09:33:18Z</time>
      </trkpt>
      <trkpt lat="47.68571" lon="2.0640497">
        <ele>154</ele>
        <time>2022-01-20T09:33:19Z</time>
      </trkpt>
      <trkpt lat="47.685722" lon="2.064031">
        <ele>154</ele>
        <time>2022-01-20T09:33:20Z</time>
      </trkpt>
      <trkpt lat="47.685734" lon="2.0640197">
        <ele>154</ele>
        <time>2022-01-20T09:33:21Z</time>
      </trkpt>
      <trkpt lat="47.68574" lon="2.064007">
        <ele>154</ele>
        <time>2022-01-20T09:33:22Z</time>
      </trkpt>
      <trkpt lat="47.685745" lon="2.0639973">
        <ele>155</ele>
        <time>2022-01-20T09:33:23Z</time>
      </trkpt>
      <trkpt lat="47.685753" lon="2.063988">
        <ele>155</ele>
        <time>2022-01-20T09:33:24Z</time>
      </trkpt>
      <trkpt lat="47.68576" lon="2.063978">
        <ele>155</ele>
        <time>2022-01-20T09:33:25Z</time>
      </trkpt>
      <trkpt lat="47.68577" lon="2.0639591">
        <ele>155</ele>
        <time>2022-01-20T09:33:26Z</time>
      </trkpt>
      <trkpt lat="47.685776" lon="2.063945">
        <ele>155</ele>
        <time>2022-01-20T09:33:27Z</time>
      </trkpt>
      <trkpt lat="47.685787" lon="2.063932">
        <ele>155</ele>
        <time>2022-01-20T09:33:28Z</time>
      </trkpt>
      <trkpt lat="47.685795" lon="2.0639217">
        <ele>155</ele>
        <time>2022-01-20T09:33:29Z</time>
      </trkpt>
      <trkpt lat="47.685802" lon="2.0639124">
        <ele>155</ele>
        <time>2022-01-20T09:33:30Z</time>
      </trkpt>
      <trkpt lat="47.68581" lon="2.0638995">
        <ele>155</ele>
        <time>2022-01-20T09:33:31Z</time>
      </trkpt>
      <trkpt lat="47.685818" lon="2.063888">
        <ele>154</ele>
        <time>2022-01-20T09:33:32Z</time>
      </trkpt>
      <trkpt lat="47.68583" lon="2.0638795">
        <ele>154</ele>
        <time>2022-01-20T09:33:33Z</time>
      </trkpt>
      <trkpt lat="47.685837" lon="2.0638714">
        <ele>154</ele>
        <time>2022-01-20T09:33:34Z</time>
      </trkpt>
      <trkpt lat="47.68585" lon="2.0638652">
        <ele>154</ele>
        <time>2022-01-20T09:33:35Z</time>
      </trkpt>
      <trkpt lat="47.685856" lon="2.0638642">
        <ele>154</ele>
        <time>2022-01-20T09:33:36Z</time>
      </trkpt>
      <trkpt lat="47.685867" lon="2.0638561">
        <ele>153</ele>
        <time>2022-01-20T09:33:37Z</time>
      </trkpt>
      <trkpt lat="47.68587" lon="2.0638452">
        <ele>153</ele>
        <time>2022-01-20T09:33:38Z</time>
      </trkpt>
      <trkpt lat="47.68588" lon="2.063841">
        <ele>153</ele>
        <time>2022-01-20T09:33:39Z</time>
      </trkpt>
      <trkpt lat="47.685883" lon="2.0638368">
        <ele>153</ele>
        <time>2022-01-20T09:33:40Z</time>
      </trkpt>
      <trkpt lat="47.68589" lon="2.0638294">
        <ele>153</ele>
        <time>2022-01-20T09:33:41Z</time>
      </trkpt>
      <trkpt lat="47.685894" lon="2.063822">
        <ele>153</ele>
        <time>2022-01-20T09:33:42Z</time>
      </trkpt>
      <trkpt lat="47.6859" lon="2.0638096">
        <ele>153</ele>
        <time>2022-01-20T09:33:43Z</time>
      </trkpt>
      <trkpt lat="47.685913" lon="2.0638075">
        <ele>153</ele>
        <time>2022-01-20T09:33:44Z</time>
      </trkpt>
      <trkpt lat="47.685925" lon="2.0638022">
        <ele>153</ele>
        <time>2022-01-20T09:33:45Z</time>
      </trkpt>
      <trkpt lat="47.685936" lon="2.0637968">
        <ele>153</ele>
        <time>2022-01-20T09:33:46Z</time>
      </trkpt>
      <trkpt lat="47.685947" lon="2.0637913">
        <ele>153</ele>
        <time>2022-01-20T09:33:47Z</time>
      </trkpt>
      <trkpt lat="47.68596" lon="2.0637908">
        <ele>154</ele>
        <time>2022-01-20T09:33:48Z</time>
      </trkpt>
      <trkpt lat="47.68597" lon="2.0637882">
        <ele>154</ele>
        <time>2022-01-20T09:33:49Z</time>
      </trkpt>
      <trkpt lat="47.685986" lon="2.063781">
        <ele>154</ele>
        <time>2022-01-20T09:33:50Z</time>
      </trkpt>
      <trkpt lat="47.685997" lon="2.0637755">
        <ele>153</ele>
        <time>2022-01-20T09:33:51Z</time>
      </trkpt>
      <trkpt lat="47.68601" lon="2.063772">
        <ele>153</ele>
        <time>2022-01-20T09:33:52Z</time>
      </trkpt>
      <trkpt lat="47.686016" lon="2.0637662">
        <ele>153</ele>
        <time>2022-01-20T09:33:53Z</time>
      </trkpt>
      <trkpt lat="47.686024" lon="2.0637634">
        <ele>153</ele>
        <time>2022-01-20T09:33:54Z</time>
      </trkpt>
      <trkpt lat="47.686035" lon="2.0637593">
        <ele>153</ele>
        <time>2022-01-20T09:33:55Z</time>
      </trkpt>
      <trkpt lat="47.686043" lon="2.0637498">
        <ele>153</ele>
        <time>2022-01-20T09:33:56Z</time>
      </trkpt>
      <trkpt lat="47.686054" lon="2.0637436">
        <ele>153</ele>
        <time>2022-01-20T09:33:57Z</time>
      </trkpt>
      <trkpt lat="47.68606" lon="2.0637343">
        <ele>153</ele>
        <time>2022-01-20T09:33:58Z</time>
      </trkpt>
      <trkpt lat="47.686077" lon="2.0637202">
        <ele>153</ele>
        <time>2022-01-20T09:33:59Z</time>
      </trkpt>
      <trkpt lat="47.686085" lon="2.0637152">
        <ele>153</ele>
        <time>2022-01-20T09:34:00Z</time>
      </trkpt>
      <trkpt lat="47.686092" lon="2.0637105">
        <ele>153</ele>
        <time>2022-01-20T09:34:01Z</time>
      </trkpt>
      <trkpt lat="47.686096" lon="2.0637002">
        <ele>153</ele>
        <time>2022-01-20T09:34:02Z</time>
      </trkpt>
      <trkpt lat="47.686108" lon="2.0636973">
        <ele>153</ele>
        <time>2022-01-20T09:34:03Z</time>
      </trkpt>
      <trkpt lat="47.686115" lon="2.06369">
        <ele>153</ele>
        <time>2022-01-20T09:34:04Z</time>
      </trkpt>
      <trkpt lat="47.686123" lon="2.0636787">
        <ele>153</ele>
        <time>2022-01-20T09:34:05Z</time>
      </trkpt>
      <trkpt lat="47.686127" lon="2.0636683">
        <ele>153</ele>
        <time>2022-01-20T09:34:06Z</time>
      </trkpt>
      <trkpt lat="47.68614" lon="2.0636597">
        <ele>153</ele>
        <time>2022-01-20T09:34:07Z</time>
      </trkpt>
      <trkpt lat="47.68615" lon="2.0636506">
        <ele>153</ele>
        <time>2022-01-20T09:34:08Z</time>
      </trkpt>
      <trkpt lat="47.68616" lon="2.0636413">
        <ele>153</ele>
        <time>2022-01-20T09:34:09Z</time>
      </trkpt>
      <trkpt lat="47.68617" lon="2.0636396">
        <ele>153</ele>
        <time>2022-01-20T09:34:10Z</time>
      </trkpt>
      <trkpt lat="47.68618" lon="2.0636375">
        <ele>153</ele>
        <time>2022-01-20T09:34:11Z</time>
      </trkpt>
      <trkpt lat="47.686188" lon="2.0636299">
        <ele>152</ele>
        <time>2022-01-20T09:34:12Z</time>
      </trkpt>
      <trkpt lat="47.686195" lon="2.0636215">
        <ele>152</ele>
        <time>2022-01-20T09:34:13Z</time>
      </trkpt>
      <trkpt lat="47.686207" lon="2.0636103">
        <ele>152</ele>
        <time>2022-01-20T09:34:14Z</time>
      </trkpt>
      <trkpt lat="47.686214" lon="2.0636008">
        <ele>152</ele>
        <time>2022-01-20T09:34:15Z</time>
      </trkpt>
      <trkpt lat="47.686222" lon="2.0635865">
        <ele>152</ele>
        <time>2022-01-20T09:34:16Z</time>
      </trkpt>
      <trkpt lat="47.686234" lon="2.0635743">
        <ele>152</ele>
        <time>2022-01-20T09:34:17Z</time>
      </trkpt>
      <trkpt lat="47.686245" lon="2.0635707">
        <ele>152</ele>
        <time>2022-01-20T09:34:18Z</time>
      </trkpt>
      <trkpt lat="47.686253" lon="2.0635664">
        <ele>152</ele>
        <time>2022-01-20T09:34:19Z</time>
      </trkpt>
      <trkpt lat="47.68626" lon="2.0635622">
        <ele>151</ele>
        <time>2022-01-20T09:34:20Z</time>
      </trkpt>
      <trkpt lat="47.686268" lon="2.0635607">
        <ele>151</ele>
        <time>2022-01-20T09:34:21Z</time>
      </trkpt>
      <trkpt lat="47.68627" lon="2.0635576">
        <ele>151</ele>
        <time>2022-01-20T09:34:22Z</time>
      </trkpt>
      <trkpt lat="47.68628" lon="2.0635488">
        <ele>151</ele>
        <time>2022-01-20T09:34:23Z</time>
      </trkpt>
      <trkpt lat="47.68629" lon="2.063543">
        <ele>151</ele>
        <time>2022-01-20T09:34:24Z</time>
      </trkpt>
      <trkpt lat="47.6863" lon="2.063529">
        <ele>151</ele>
        <time>2022-01-20T09:34:25Z</time>
      </trkpt>
      <trkpt lat="47.686302" lon="2.0635138">
        <ele>151</ele>
        <time>2022-01-20T09:34:26Z</time>
      </trkpt>
      <trkpt lat="47.686306" lon="2.0635018">
        <ele>151</ele>
        <time>2022-01-20T09:34:27Z</time>
      </trkpt>
      <trkpt lat="47.686314" lon="2.0634875">
        <ele>151</ele>
        <time>2022-01-20T09:34:28Z</time>
      </trkpt>
      <trkpt lat="47.68632" lon="2.0634737">
        <ele>150</ele>
        <time>2022-01-20T09:34:29Z</time>
      </trkpt>
      <trkpt lat="47.686325" lon="2.0634642">
        <ele>150</ele>
        <time>2022-01-20T09:34:30Z</time>
      </trkpt>
      <trkpt lat="47.686333" lon="2.0634506">
        <ele>151</ele>
        <time>2022-01-20T09:34:31Z</time>
      </trkpt>
      <trkpt lat="47.686333" lon="2.0634506">
        <ele>151</ele>
        <time>2022-01-20T09:34:32Z</time>
      </trkpt>
      <trkpt lat="47.686333" lon="2.0634506">
        <ele>151</ele>
        <time>2022-01-20T09:34:33Z</time>
      </trkpt>
      <trkpt lat="47.686356" lon="2.0634248">
        <ele>151</ele>
        <time>2022-01-20T09:34:34Z</time>
      </trkpt>
      <trkpt lat="47.686367" lon="2.0634232">
        <ele>150</ele>
        <time>2022-01-20T09:34:35Z</time>
      </trkpt>
      <trkpt lat="47.686382" lon="2.0634255">
        <ele>150</ele>
        <time>2022-01-20T09:34:36Z</time>
      </trkpt>
      <trkpt lat="47.686394" lon="2.0634255">
        <ele>151</ele>
        <time>2022-01-20T09:34:37Z</time>
      </trkpt>
      <trkpt lat="47.686405" lon="2.0634274">
        <ele>151</ele>
        <time>2022-01-20T09:34:38Z</time>
      </trkpt>
      <trkpt lat="47.686417" lon="2.0634298">
        <ele>150</ele>
        <time>2022-01-20T09:34:39Z</time>
      </trkpt>
      <trkpt lat="47.686428" lon="2.0634234">
        <ele>150</ele>
        <time>2022-01-20T09:34:40Z</time>
      </trkpt>
      <trkpt lat="47.68644" lon="2.063422">
        <ele>150</ele>
        <time>2022-01-20T09:34:41Z</time>
      </trkpt>
      <trkpt lat="47.686447" lon="2.0634193">
        <ele>150</ele>
        <time>2022-01-20T09:34:42Z</time>
      </trkpt>
      <trkpt lat="47.686455" lon="2.0634117">
        <ele>150</ele>
        <time>2022-01-20T09:34:43Z</time>
      </trkpt>
      <trkpt lat="47.686455" lon="2.0634117">
        <ele>150</ele>
        <time>2022-01-20T09:34:44Z</time>
      </trkpt>
      <trkpt lat="47.686455" lon="2.0634117">
        <ele>150</ele>
        <time>2022-01-20T09:34:45Z</time>
      </trkpt>
      <trkpt lat="47.68648" lon="2.0634038">
        <ele>149</ele>
        <time>2022-01-20T09:34:46Z</time>
      </trkpt>
      <trkpt lat="47.686485" lon="2.0633998">
        <ele>149</ele>
        <time>2022-01-20T09:34:47Z</time>
      </trkpt>
      <trkpt lat="47.686497" lon="2.0634034">
        <ele>149</ele>
        <time>2022-01-20T09:34:48Z</time>
      </trkpt>
      <trkpt lat="47.686504" lon="2.0634036">
        <ele>149</ele>
        <time>2022-01-20T09:34:49Z</time>
      </trkpt>
      <trkpt lat="47.686512" lon="2.0633945">
        <ele>149</ele>
        <time>2022-01-20T09:34:50Z</time>
      </trkpt>
      <trkpt lat="47.68652" lon="2.063382">
        <ele>149</ele>
        <time>2022-01-20T09:34:51Z</time>
      </trkpt>
      <trkpt lat="47.68652" lon="2.063382">
        <ele>149</ele>
        <time>2022-01-20T09:34:52Z</time>
      </trkpt>
      <trkpt lat="47.68652" lon="2.063382">
        <ele>149</ele>
        <time>2022-01-20T09:34:53Z</time>
      </trkpt>
      <trkpt lat="47.686543" lon="2.0633512">
        <ele>149</ele>
        <time>2022-01-20T09:34:54Z</time>
      </trkpt>
      <trkpt lat="47.686558" lon="2.0633423">
        <ele>149</ele>
        <time>2022-01-20T09:34:55Z</time>
      </trkpt>
      <trkpt lat="47.686573" lon="2.063327">
        <ele>150</ele>
        <time>2022-01-20T09:34:56Z</time>
      </trkpt>
      <trkpt lat="47.686592" lon="2.0633144">
        <ele>150</ele>
        <time>2022-01-20T09:34:57Z</time>
      </trkpt>
      <trkpt lat="47.686623" lon="2.063298">
        <ele>150</ele>
        <time>2022-01-20T09:34:58Z</time>
      </trkpt>
      <trkpt lat="47.68664" lon="2.0632865">
        <ele>150</ele>
        <time>2022-01-20T09:34:59Z</time>
      </trkpt>
      <trkpt lat="47.686657" lon="2.0632646">
        <ele>150</ele>
        <time>2022-01-20T09:35:00Z</time>
      </trkpt>
      <trkpt lat="47.686665" lon="2.0632477">
        <ele>150</ele>
        <time>2022-01-20T09:35:01Z</time>
      </trkpt>
      <trkpt lat="47.68667" lon="2.0632255">
        <ele>150</ele>
        <time>2022-01-20T09:35:02Z</time>
      </trkpt>
      <trkpt lat="47.686672" lon="2.0632076">
        <ele>150</ele>
        <time>2022-01-20T09:35:03Z</time>
      </trkpt>
      <trkpt lat="47.68668" lon="2.0631998">
        <ele>150</ele>
        <time>2022-01-20T09:35:04Z</time>
      </trkpt>
      <trkpt lat="47.686687" lon="2.0631907">
        <ele>149</ele>
        <time>2022-01-20T09:35:05Z</time>
      </trkpt>
      <trkpt lat="47.68669" lon="2.0631814">
        <ele>150</ele>
        <time>2022-01-20T09:35:06Z</time>
      </trkpt>
      <trkpt lat="47.6867" lon="2.0631752">
        <ele>150</ele>
        <time>2022-01-20T09:35:07Z</time>
      </trkpt>
      <trkpt lat="47.686707" lon="2.0631683">
        <ele>150</ele>
        <time>2022-01-20T09:35:08Z</time>
      </trkpt>
      <trkpt lat="47.686707" lon="2.0631683">
        <ele>150</ele>
        <time>2022-01-20T09:35:09Z</time>
      </trkpt>
      <trkpt lat="47.686714" lon="2.0631456">
        <ele>149</ele>
        <time>2022-01-20T09:35:10Z</time>
      </trkpt>
      <trkpt lat="47.686714" lon="2.0631306">
        <ele>149</ele>
        <time>2022-01-20T09:35:11Z</time>
      </trkpt>
      <trkpt lat="47.686714" lon="2.0631168">
        <ele>149</ele>
        <time>2022-01-20T09:35:12Z</time>
      </trkpt>
      <trkpt lat="47.686718" lon="2.0631068">
        <ele>149</ele>
        <time>2022-01-20T09:35:13Z</time>
      </trkpt>
      <trkpt lat="47.68672" lon="2.0630918">
        <ele>149</ele>
        <time>2022-01-20T09:35:14Z</time>
      </trkpt>
      <trkpt lat="47.68672" lon="2.063065">
        <ele>150</ele>
        <time>2022-01-20T09:35:15Z</time>
      </trkpt>
      <trkpt lat="47.686718" lon="2.0630426">
        <ele>150</ele>
        <time>2022-01-20T09:35:16Z</time>
      </trkpt>
      <trkpt lat="47.686714" lon="2.063026">
        <ele>150</ele>
        <time>2022-01-20T09:35:17Z</time>
      </trkpt>
      <trkpt lat="47.686714" lon="2.0630093">
        <ele>150</ele>
        <time>2022-01-20T09:35:18Z</time>
      </trkpt>
      <trkpt lat="47.686714" lon="2.0630093">
        <ele>150</ele>
        <time>2022-01-20T09:35:19Z</time>
      </trkpt>
      <trkpt lat="47.68671" lon="2.0629687">
        <ele>150</ele>
        <time>2022-01-20T09:35:20Z</time>
      </trkpt>
      <trkpt lat="47.68671" lon="2.0629427">
        <ele>149</ele>
        <time>2022-01-20T09:35:21Z</time>
      </trkpt>
      <trkpt lat="47.686714" lon="2.0629196">
        <ele>150</ele>
        <time>2022-01-20T09:35:22Z</time>
      </trkpt>
      <trkpt lat="47.686718" lon="2.0628982">
        <ele>150</ele>
        <time>2022-01-20T09:35:23Z</time>
      </trkpt>
      <trkpt lat="47.686714" lon="2.06288">
        <ele>151</ele>
        <time>2022-01-20T09:35:24Z</time>
      </trkpt>
      <trkpt lat="47.686718" lon="2.0628545">
        <ele>151</ele>
        <time>2022-01-20T09:35:25Z</time>
      </trkpt>
      <trkpt lat="47.68672" lon="2.0628314">
        <ele>152</ele>
        <time>2022-01-20T09:35:26Z</time>
      </trkpt>
      <trkpt lat="47.686726" lon="2.0628033">
        <ele>153</ele>
        <time>2022-01-20T09:35:27Z</time>
      </trkpt>
      <trkpt lat="47.686726" lon="2.0627813">
        <ele>153</ele>
        <time>2022-01-20T09:35:28Z</time>
      </trkpt>
      <trkpt lat="47.68673" lon="2.0627596">
        <ele>153</ele>
        <time>2022-01-20T09:35:29Z</time>
      </trkpt>
      <trkpt lat="47.68673" lon="2.0627384">
        <ele>153</ele>
        <time>2022-01-20T09:35:30Z</time>
      </trkpt>
      <trkpt lat="47.686733" lon="2.0627224">
        <ele>153</ele>
        <time>2022-01-20T09:35:31Z</time>
      </trkpt>
      <trkpt lat="47.68674" lon="2.062714">
        <ele>153</ele>
        <time>2022-01-20T09:35:32Z</time>
      </trkpt>
      <trkpt lat="47.68674" lon="2.062701">
        <ele>153</ele>
        <time>2022-01-20T09:35:33Z</time>
      </trkpt>
      <trkpt lat="47.68674" lon="2.06269">
        <ele>153</ele>
        <time>2022-01-20T09:35:34Z</time>
      </trkpt>
      <trkpt lat="47.68675" lon="2.062671">
        <ele>154</ele>
        <time>2022-01-20T09:35:35Z</time>
      </trkpt>
      <trkpt lat="47.686752" lon="2.0626552">
        <ele>154</ele>
        <time>2022-01-20T09:35:36Z</time>
      </trkpt>
      <trkpt lat="47.686752" lon="2.0626428">
        <ele>154</ele>
        <time>2022-01-20T09:35:37Z</time>
      </trkpt>
      <trkpt lat="47.686752" lon="2.0626233">
        <ele>154</ele>
        <time>2022-01-20T09:35:38Z</time>
      </trkpt>
      <trkpt lat="47.686752" lon="2.0625978">
        <ele>154</ele>
        <time>2022-01-20T09:35:39Z</time>
      </trkpt>
      <trkpt lat="47.686752" lon="2.0625777">
        <ele>154</ele>
        <time>2022-01-20T09:35:40Z</time>
      </trkpt>
      <trkpt lat="47.686752" lon="2.0625517">
        <ele>154</ele>
        <time>2022-01-20T09:35:41Z</time>
      </trkpt>
      <trkpt lat="47.68675" lon="2.0625284">
        <ele>154</ele>
        <time>2022-01-20T09:35:42Z</time>
      </trkpt>
      <trkpt lat="47.68675" lon="2.0625098">
        <ele>153</ele>
        <time>2022-01-20T09:35:43Z</time>
      </trkpt>
      <trkpt lat="47.68675" lon="2.0624893">
        <ele>153</ele>
        <time>2022-01-20T09:35:44Z</time>
      </trkpt>
      <trkpt lat="47.686752" lon="2.0624726">
        <ele>154</ele>
        <time>2022-01-20T09:35:45Z</time>
      </trkpt>
      <trkpt lat="47.686752" lon="2.06246">
        <ele>154</ele>
        <time>2022-01-20T09:35:46Z</time>
      </trkpt>
      <trkpt lat="47.686752" lon="2.0624478">
        <ele>153</ele>
        <time>2022-01-20T09:35:47Z</time>
      </trkpt>
      <trkpt lat="47.686752" lon="2.0624385">
        <ele>153</ele>
        <time>2022-01-20T09:35:48Z</time>
      </trkpt>
      <trkpt lat="47.686756" lon="2.0624251">
        <ele>153</ele>
        <time>2022-01-20T09:35:49Z</time>
      </trkpt>
      <trkpt lat="47.686756" lon="2.0624108">
        <ele>154</ele>
        <time>2022-01-20T09:35:50Z</time>
      </trkpt>
      <trkpt lat="47.686756" lon="2.0624008">
        <ele>154</ele>
        <time>2022-01-20T09:35:51Z</time>
      </trkpt>
      <trkpt lat="47.686752" lon="2.062388">
        <ele>153</ele>
        <time>2022-01-20T09:35:52Z</time>
      </trkpt>
      <trkpt lat="47.686752" lon="2.0623708">
        <ele>153</ele>
        <time>2022-01-20T09:35:53Z</time>
      </trkpt>
      <trkpt lat="47.686752" lon="2.062355">
        <ele>153</ele>
        <time>2022-01-20T09:35:54Z</time>
      </trkpt>
      <trkpt lat="47.686752" lon="2.0623417">
        <ele>153</ele>
        <time>2022-01-20T09:35:55Z</time>
      </trkpt>
      <trkpt lat="47.686756" lon="2.062327">
        <ele>153</ele>
        <time>2022-01-20T09:35:56Z</time>
      </trkpt>
      <trkpt lat="47.68676" lon="2.0623047">
        <ele>153</ele>
        <time>2022-01-20T09:35:57Z</time>
      </trkpt>
      <trkpt lat="47.686764" lon="2.0622876">
        <ele>153</ele>
        <time>2022-01-20T09:35:58Z</time>
      </trkpt>
      <trkpt lat="47.686764" lon="2.0622716">
        <ele>153</ele>
        <time>2022-01-20T09:35:59Z</time>
      </trkpt>
      <trkpt lat="47.686768" lon="2.0622618">
        <ele>153</ele>
        <time>2022-01-20T09:36:00Z</time>
      </trkpt>
      <trkpt lat="47.68677" lon="2.0622435">
        <ele>153</ele>
        <time>2022-01-20T09:36:01Z</time>
      </trkpt>
      <trkpt lat="47.68677" lon="2.0622253">
        <ele>152</ele>
        <time>2022-01-20T09:36:02Z</time>
      </trkpt>
      <trkpt lat="47.68677" lon="2.0622125">
        <ele>152</ele>
        <time>2022-01-20T09:36:03Z</time>
      </trkpt>
      <trkpt lat="47.68678" lon="2.0621984">
        <ele>152</ele>
        <time>2022-01-20T09:36:04Z</time>
      </trkpt>
      <trkpt lat="47.686783" lon="2.0621848">
        <ele>152</ele>
        <time>2022-01-20T09:36:05Z</time>
      </trkpt>
      <trkpt lat="47.686787" lon="2.0621758">
        <ele>152</ele>
        <time>2022-01-20T09:36:06Z</time>
      </trkpt>
      <trkpt lat="47.686794" lon="2.062159">
        <ele>152</ele>
        <time>2022-01-20T09:36:07Z</time>
      </trkpt>
      <trkpt lat="47.686794" lon="2.062138">
        <ele>152</ele>
        <time>2022-01-20T09:36:08Z</time>
      </trkpt>
      <trkpt lat="47.686802" lon="2.0621257">
        <ele>152</ele>
        <time>2022-01-20T09:36:09Z</time>
      </trkpt>
      <trkpt lat="47.68681" lon="2.0621083">
        <ele>153</ele>
        <time>2022-01-20T09:36:10Z</time>
      </trkpt>
      <trkpt lat="47.686813" lon="2.062088">
        <ele>155</ele>
        <time>2022-01-20T09:36:11Z</time>
      </trkpt>
      <trkpt lat="47.68682" lon="2.0620728">
        <ele>155</ele>
        <time>2022-01-20T09:36:12Z</time>
      </trkpt>
      <trkpt lat="47.68682" lon="2.0620592">
        <ele>155</ele>
        <time>2022-01-20T09:36:13Z</time>
      </trkpt>
      <trkpt lat="47.686825" lon="2.0620441">
        <ele>156</ele>
        <time>2022-01-20T09:36:14Z</time>
      </trkpt>
      <trkpt lat="47.68683" lon="2.062031">
        <ele>156</ele>
        <time>2022-01-20T09:36:15Z</time>
      </trkpt>
      <trkpt lat="47.686832" lon="2.0620217">
        <ele>156</ele>
        <time>2022-01-20T09:36:16Z</time>
      </trkpt>
      <trkpt lat="47.68684" lon="2.0620058">
        <ele>156</ele>
        <time>2022-01-20T09:36:17Z</time>
      </trkpt>
      <trkpt lat="47.686848" lon="2.0619893">
        <ele>157</ele>
        <time>2022-01-20T09:36:18Z</time>
      </trkpt>
      <trkpt lat="47.686855" lon="2.0619767">
        <ele>157</ele>
        <time>2022-01-20T09:36:19Z</time>
      </trkpt>
      <trkpt lat="47.68686" lon="2.0619645">
        <ele>158</ele>
        <time>2022-01-20T09:36:20Z</time>
      </trkpt>
      <trkpt lat="47.686867" lon="2.0619504">
        <ele>159</ele>
        <time>2022-01-20T09:36:21Z</time>
      </trkpt>
      <trkpt lat="47.68687" lon="2.0619354">
        <ele>159</ele>
        <time>2022-01-20T09:36:22Z</time>
      </trkpt>
      <trkpt lat="47.68688" lon="2.061925">
        <ele>159</ele>
        <time>2022-01-20T09:36:23Z</time>
      </trkpt>
      <trkpt lat="47.686886" lon="2.061919">
        <ele>159</ele>
        <time>2022-01-20T09:36:24Z</time>
      </trkpt>
      <trkpt lat="47.68689" lon="2.0619094">
        <ele>159</ele>
        <time>2022-01-20T09:36:25Z</time>
      </trkpt>
      <trkpt lat="47.686897" lon="2.0618997">
        <ele>159</ele>
        <time>2022-01-20T09:36:26Z</time>
      </trkpt>
      <trkpt lat="47.686905" lon="2.061888">
        <ele>159</ele>
        <time>2022-01-20T09:36:27Z</time>
      </trkpt>
      <trkpt lat="47.686913" lon="2.0618775">
        <ele>159</ele>
        <time>2022-01-20T09:36:28Z</time>
      </trkpt>
      <trkpt lat="47.686916" lon="2.061865">
        <ele>159</ele>
        <time>2022-01-20T09:36:29Z</time>
      </trkpt>
      <trkpt lat="47.68692" lon="2.0618525">
        <ele>158</ele>
        <time>2022-01-20T09:36:30Z</time>
      </trkpt>
      <trkpt lat="47.68693" lon="2.0618367">
        <ele>158</ele>
        <time>2022-01-20T09:36:31Z</time>
      </trkpt>
      <trkpt lat="47.68694" lon="2.0618222">
        <ele>158</ele>
        <time>2022-01-20T09:36:32Z</time>
      </trkpt>
      <trkpt lat="47.686947" lon="2.0618067">
        <ele>158</ele>
        <time>2022-01-20T09:36:33Z</time>
      </trkpt>
      <trkpt lat="47.686954" lon="2.061792">
        <ele>158</ele>
        <time>2022-01-20T09:36:34Z</time>
      </trkpt>
      <trkpt lat="47.686962" lon="2.0617816">
        <ele>158</ele>
        <time>2022-01-20T09:36:35Z</time>
      </trkpt>
      <trkpt lat="47.686966" lon="2.061766">
        <ele>158</ele>
        <time>2022-01-20T09:36:36Z</time>
      </trkpt>
      <trkpt lat="47.68697" lon="2.0617542">
        <ele>158</ele>
        <time>2022-01-20T09:36:37Z</time>
      </trkpt>
      <trkpt lat="47.686974" lon="2.0617404">
        <ele>158</ele>
        <time>2022-01-20T09:36:38Z</time>
      </trkpt>
      <trkpt lat="47.686977" lon="2.061725">
        <ele>159</ele>
        <time>2022-01-20T09:36:39Z</time>
      </trkpt>
      <trkpt lat="47.68699" lon="2.0617168">
        <ele>159</ele>
        <time>2022-01-20T09:36:40Z</time>
      </trkpt>
      <trkpt lat="47.686996" lon="2.0617085">
        <ele>159</ele>
        <time>2022-01-20T09:36:41Z</time>
      </trkpt>
      <trkpt lat="47.687004" lon="2.0616949">
        <ele>159</ele>
        <time>2022-01-20T09:36:42Z</time>
      </trkpt>
      <trkpt lat="47.687008" lon="2.061675">
        <ele>159</ele>
        <time>2022-01-20T09:36:43Z</time>
      </trkpt>
      <trkpt lat="47.68701" lon="2.0616598">
        <ele>159</ele>
        <time>2022-01-20T09:36:44Z</time>
      </trkpt>
      <trkpt lat="47.687016" lon="2.0616462">
        <ele>159</ele>
        <time>2022-01-20T09:36:45Z</time>
      </trkpt>
      <trkpt lat="47.687016" lon="2.0616271">
        <ele>158</ele>
        <time>2022-01-20T09:36:46Z</time>
      </trkpt>
      <trkpt lat="47.687016" lon="2.061608">
        <ele>159</ele>
        <time>2022-01-20T09:36:47Z</time>
      </trkpt>
      <trkpt lat="47.68702" lon="2.0615938">
        <ele>159</ele>
        <time>2022-01-20T09:36:48Z</time>
      </trkpt>
      <trkpt lat="47.687027" lon="2.0615835">
        <ele>158</ele>
        <time>2022-01-20T09:36:49Z</time>
      </trkpt>
      <trkpt lat="47.68703" lon="2.0615692">
        <ele>158</ele>
        <time>2022-01-20T09:36:50Z</time>
      </trkpt>
      <trkpt lat="47.687035" lon="2.0615501">
        <ele>158</ele>
        <time>2022-01-20T09:36:51Z</time>
      </trkpt>
      <trkpt lat="47.68704" lon="2.0615342">
        <ele>158</ele>
        <time>2022-01-20T09:36:52Z</time>
      </trkpt>
      <trkpt lat="47.687042" lon="2.0615182">
        <ele>159</ele>
        <time>2022-01-20T09:36:53Z</time>
      </trkpt>
      <trkpt lat="47.687046" lon="2.0615041">
        <ele>159</ele>
        <time>2022-01-20T09:36:54Z</time>
      </trkpt>
      <trkpt lat="47.68705" lon="2.0614913">
        <ele>159</ele>
        <time>2022-01-20T09:36:55Z</time>
      </trkpt>
      <trkpt lat="47.68705" lon="2.0614758">
        <ele>159</ele>
        <time>2022-01-20T09:36:56Z</time>
      </trkpt>
      <trkpt lat="47.687054" lon="2.0614614">
        <ele>159</ele>
        <time>2022-01-20T09:36:57Z</time>
      </trkpt>
      <trkpt lat="47.687057" lon="2.0614483">
        <ele>159</ele>
        <time>2022-01-20T09:36:58Z</time>
      </trkpt>
      <trkpt lat="47.687065" lon="2.0614333">
        <ele>159</ele>
        <time>2022-01-20T09:36:59Z</time>
      </trkpt>
      <trkpt lat="47.687065" lon="2.061418">
        <ele>159</ele>
        <time>2022-01-20T09:37:00Z</time>
      </trkpt>
      <trkpt lat="47.687073" lon="2.0614042">
        <ele>159</ele>
        <time>2022-01-20T09:37:01Z</time>
      </trkpt>
      <trkpt lat="47.687077" lon="2.0613847">
        <ele>159</ele>
        <time>2022-01-20T09:37:02Z</time>
      </trkpt>
      <trkpt lat="47.68708" lon="2.0613697">
        <ele>159</ele>
        <time>2022-01-20T09:37:03Z</time>
      </trkpt>
      <trkpt lat="47.687084" lon="2.0613582">
        <ele>159</ele>
        <time>2022-01-20T09:37:04Z</time>
      </trkpt>
      <trkpt lat="47.68709" lon="2.0613458">
        <ele>159</ele>
        <time>2022-01-20T09:37:05Z</time>
      </trkpt>
      <trkpt lat="47.6871" lon="2.0613368">
        <ele>158</ele>
        <time>2022-01-20T09:37:06Z</time>
      </trkpt>
      <trkpt lat="47.687107" lon="2.0613213">
        <ele>158</ele>
        <time>2022-01-20T09:37:07Z</time>
      </trkpt>
      <trkpt lat="47.68711" lon="2.0613093">
        <ele>158</ele>
        <time>2022-01-20T09:37:08Z</time>
      </trkpt>
      <trkpt lat="47.687122" lon="2.061296">
        <ele>158</ele>
        <time>2022-01-20T09:37:09Z</time>
      </trkpt>
      <trkpt lat="47.68713" lon="2.0612888">
        <ele>158</ele>
        <time>2022-01-20T09:37:10Z</time>
      </trkpt>
      <trkpt lat="47.687138" lon="2.0612805">
        <ele>158</ele>
        <time>2022-01-20T09:37:11Z</time>
      </trkpt>
      <trkpt lat="47.68714" lon="2.061265">
        <ele>158</ele>
        <time>2022-01-20T09:37:12Z</time>
      </trkpt>
      <trkpt lat="47.68715" lon="2.061253">
        <ele>158</ele>
        <time>2022-01-20T09:37:13Z</time>
      </trkpt>
      <trkpt lat="47.687157" lon="2.0612438">
        <ele>159</ele>
        <time>2022-01-20T09:37:14Z</time>
      </trkpt>
      <trkpt lat="47.687164" lon="2.0612354">
        <ele>158</ele>
        <time>2022-01-20T09:37:15Z</time>
      </trkpt>
      <trkpt lat="47.687172" lon="2.0612195">
        <ele>159</ele>
        <time>2022-01-20T09:37:16Z</time>
      </trkpt>
      <trkpt lat="47.687176" lon="2.061209">
        <ele>158</ele>
        <time>2022-01-20T09:37:17Z</time>
      </trkpt>
      <trkpt lat="47.687187" lon="2.0611963">
        <ele>159</ele>
        <time>2022-01-20T09:37:18Z</time>
      </trkpt>
      <trkpt lat="47.687195" lon="2.0611901">
        <ele>159</ele>
        <time>2022-01-20T09:37:19Z</time>
      </trkpt>
      <trkpt lat="47.687202" lon="2.0611882">
        <ele>159</ele>
        <time>2022-01-20T09:37:20Z</time>
      </trkpt>
      <trkpt lat="47.68721" lon="2.0611813">
        <ele>158</ele>
        <time>2022-01-20T09:37:21Z</time>
      </trkpt>
      <trkpt lat="47.687214" lon="2.061168">
        <ele>158</ele>
        <time>2022-01-20T09:37:22Z</time>
      </trkpt>
      <trkpt lat="47.687218" lon="2.0611548">
        <ele>157</ele>
        <time>2022-01-20T09:37:23Z</time>
      </trkpt>
      <trkpt lat="47.687225" lon="2.061145">
        <ele>157</ele>
        <time>2022-01-20T09:37:24Z</time>
      </trkpt>
      <trkpt lat="47.687233" lon="2.061137">
        <ele>158</ele>
        <time>2022-01-20T09:37:25Z</time>
      </trkpt>
      <trkpt lat="47.687237" lon="2.061126">
        <ele>157</ele>
        <time>2022-01-20T09:37:26Z</time>
      </trkpt>
      <trkpt lat="47.68724" lon="2.0611184">
        <ele>157</ele>
        <time>2022-01-20T09:37:27Z</time>
      </trkpt>
      <trkpt lat="47.68725" lon="2.0611029">
        <ele>158</ele>
        <time>2022-01-20T09:37:28Z</time>
      </trkpt>
      <trkpt lat="47.687256" lon="2.061085">
        <ele>158</ele>
        <time>2022-01-20T09:37:29Z</time>
      </trkpt>
      <trkpt lat="47.687263" lon="2.0610642">
        <ele>158</ele>
        <time>2022-01-20T09:37:30Z</time>
      </trkpt>
      <trkpt lat="47.68727" lon="2.0610468">
        <ele>158</ele>
        <time>2022-01-20T09:37:31Z</time>
      </trkpt>
      <trkpt lat="47.68728" lon="2.061032">
        <ele>158</ele>
        <time>2022-01-20T09:37:32Z</time>
      </trkpt>
      <trkpt lat="47.68729" lon="2.061018">
        <ele>158</ele>
        <time>2022-01-20T09:37:33Z</time>
      </trkpt>
      <trkpt lat="47.687298" lon="2.0610015">
        <ele>158</ele>
        <time>2022-01-20T09:37:34Z</time>
      </trkpt>
      <trkpt lat="47.6873" lon="2.0609846">
        <ele>159</ele>
        <time>2022-01-20T09:37:35Z</time>
      </trkpt>
      <trkpt lat="47.68731" lon="2.060971">
        <ele>159</ele>
        <time>2022-01-20T09:37:36Z</time>
      </trkpt>
      <trkpt lat="47.687313" lon="2.0609534">
        <ele>159</ele>
        <time>2022-01-20T09:37:37Z</time>
      </trkpt>
      <trkpt lat="47.687317" lon="2.0609338">
        <ele>159</ele>
        <time>2022-01-20T09:37:38Z</time>
      </trkpt>
      <trkpt lat="47.687325" lon="2.0609183">
        <ele>159</ele>
        <time>2022-01-20T09:37:39Z</time>
      </trkpt>
      <trkpt lat="47.687332" lon="2.0608985">
        <ele>159</ele>
        <time>2022-01-20T09:37:40Z</time>
      </trkpt>
      <trkpt lat="47.68734" lon="2.0608888">
        <ele>159</ele>
        <time>2022-01-20T09:37:41Z</time>
      </trkpt>
      <trkpt lat="47.687347" lon="2.060873">
        <ele>159</ele>
        <time>2022-01-20T09:37:42Z</time>
      </trkpt>
      <trkpt lat="47.687355" lon="2.0608578">
        <ele>159</ele>
        <time>2022-01-20T09:37:43Z</time>
      </trkpt>
      <trkpt lat="47.687363" lon="2.0608513">
        <ele>160</ele>
        <time>2022-01-20T09:37:44Z</time>
      </trkpt>
      <trkpt lat="47.687366" lon="2.06084">
        <ele>160</ele>
        <time>2022-01-20T09:37:45Z</time>
      </trkpt>
      <trkpt lat="47.687374" lon="2.0608277">
        <ele>160</ele>
        <time>2022-01-20T09:37:46Z</time>
      </trkpt>
      <trkpt lat="47.687378" lon="2.0608163">
        <ele>160</ele>
        <time>2022-01-20T09:37:47Z</time>
      </trkpt>
      <trkpt lat="47.687386" lon="2.0607996">
        <ele>160</ele>
        <time>2022-01-20T09:37:48Z</time>
      </trkpt>
      <trkpt lat="47.68739" lon="2.0607858">
        <ele>161</ele>
        <time>2022-01-20T09:37:49Z</time>
      </trkpt>
      <trkpt lat="47.687397" lon="2.060771">
        <ele>161</ele>
        <time>2022-01-20T09:37:50Z</time>
      </trkpt>
      <trkpt lat="47.6874" lon="2.0607502">
        <ele>162</ele>
        <time>2022-01-20T09:37:51Z</time>
      </trkpt>
      <trkpt lat="47.68741" lon="2.060732">
        <ele>162</ele>
        <time>2022-01-20T09:37:52Z</time>
      </trkpt>
      <trkpt lat="47.687412" lon="2.0607176">
        <ele>162</ele>
        <time>2022-01-20T09:37:53Z</time>
      </trkpt>
      <trkpt lat="47.687424" lon="2.0607057">
        <ele>162</ele>
        <time>2022-01-20T09:37:54Z</time>
      </trkpt>
      <trkpt lat="47.68743" lon="2.0606928">
        <ele>162</ele>
        <time>2022-01-20T09:37:55Z</time>
      </trkpt>
      <trkpt lat="47.687435" lon="2.060678">
        <ele>162</ele>
        <time>2022-01-20T09:37:56Z</time>
      </trkpt>
      <trkpt lat="47.687443" lon="2.060659">
        <ele>163</ele>
        <time>2022-01-20T09:37:57Z</time>
      </trkpt>
      <trkpt lat="47.68745" lon="2.0606406">
        <ele>163</ele>
        <time>2022-01-20T09:37:58Z</time>
      </trkpt>
      <trkpt lat="47.687454" lon="2.060623">
        <ele>163</ele>
        <time>2022-01-20T09:37:59Z</time>
      </trkpt>
      <trkpt lat="47.68746" lon="2.0606072">
        <ele>163</ele>
        <time>2022-01-20T09:38:00Z</time>
      </trkpt>
      <trkpt lat="47.68747" lon="2.0605896">
        <ele>163</ele>
        <time>2022-01-20T09:38:01Z</time>
      </trkpt>
      <trkpt lat="47.687477" lon="2.0605783">
        <ele>164</ele>
        <time>2022-01-20T09:38:02Z</time>
      </trkpt>
      <trkpt lat="47.687485" lon="2.060563">
        <ele>164</ele>
        <time>2022-01-20T09:38:03Z</time>
      </trkpt>
      <trkpt lat="47.687492" lon="2.0605488">
        <ele>164</ele>
        <time>2022-01-20T09:38:04Z</time>
      </trkpt>
      <trkpt lat="47.6875" lon="2.0605397">
        <ele>163</ele>
        <time>2022-01-20T09:38:05Z</time>
      </trkpt>
      <trkpt lat="47.687508" lon="2.0605285">
        <ele>163</ele>
        <time>2022-01-20T09:38:06Z</time>
      </trkpt>
      <trkpt lat="47.687515" lon="2.0605118">
        <ele>163</ele>
        <time>2022-01-20T09:38:07Z</time>
      </trkpt>
      <trkpt lat="47.687523" lon="2.0604987">
        <ele>163</ele>
        <time>2022-01-20T09:38:08Z</time>
      </trkpt>
      <trkpt lat="47.68753" lon="2.060484">
        <ele>163</ele>
        <time>2022-01-20T09:38:09Z</time>
      </trkpt>
      <trkpt lat="47.68754" lon="2.0604687">
        <ele>164</ele>
        <time>2022-01-20T09:38:10Z</time>
      </trkpt>
      <trkpt lat="47.68755" lon="2.0604572">
        <ele>163</ele>
        <time>2022-01-20T09:38:11Z</time>
      </trkpt>
      <trkpt lat="47.687557" lon="2.0604458">
        <ele>164</ele>
        <time>2022-01-20T09:38:12Z</time>
      </trkpt>
      <trkpt lat="47.68757" lon="2.0604346">
        <ele>164</ele>
        <time>2022-01-20T09:38:13Z</time>
      </trkpt>
      <trkpt lat="47.687576" lon="2.0604196">
        <ele>164</ele>
        <time>2022-01-20T09:38:14Z</time>
      </trkpt>
      <trkpt lat="47.68758" lon="2.0604074">
        <ele>164</ele>
        <time>2022-01-20T09:38:15Z</time>
      </trkpt>
      <trkpt lat="47.687588" lon="2.0603974">
        <ele>164</ele>
        <time>2022-01-20T09:38:16Z</time>
      </trkpt>
      <trkpt lat="47.68759" lon="2.0603793">
        <ele>164</ele>
        <time>2022-01-20T09:38:17Z</time>
      </trkpt>
      <trkpt lat="47.6876" lon="2.0603614">
        <ele>165</ele>
        <time>2022-01-20T09:38:18Z</time>
      </trkpt>
      <trkpt lat="47.687603" lon="2.0603426">
        <ele>166</ele>
        <time>2022-01-20T09:38:19Z</time>
      </trkpt>
      <trkpt lat="47.687607" lon="2.0603266">
        <ele>166</ele>
        <time>2022-01-20T09:38:20Z</time>
      </trkpt>
      <trkpt lat="47.687614" lon="2.060308">
        <ele>166</ele>
        <time>2022-01-20T09:38:21Z</time>
      </trkpt>
      <trkpt lat="47.687622" lon="2.0602937">
        <ele>167</ele>
        <time>2022-01-20T09:38:22Z</time>
      </trkpt>
      <trkpt lat="47.68763" lon="2.060283">
        <ele>167</ele>
        <time>2022-01-20T09:38:23Z</time>
      </trkpt>
      <trkpt lat="47.687634" lon="2.060271">
        <ele>167</ele>
        <time>2022-01-20T09:38:24Z</time>
      </trkpt>
      <trkpt lat="47.68764" lon="2.0602558">
        <ele>168</ele>
        <time>2022-01-20T09:38:25Z</time>
      </trkpt>
      <trkpt lat="47.68765" lon="2.0602415">
        <ele>168</ele>
        <time>2022-01-20T09:38:26Z</time>
      </trkpt>
      <trkpt lat="47.687656" lon="2.060231">
        <ele>168</ele>
        <time>2022-01-20T09:38:27Z</time>
      </trkpt>
      <trkpt lat="47.68766" lon="2.0602179">
        <ele>168</ele>
        <time>2022-01-20T09:38:28Z</time>
      </trkpt>
      <trkpt lat="47.687664" lon="2.0602014">
        <ele>168</ele>
        <time>2022-01-20T09:38:29Z</time>
      </trkpt>
      <trkpt lat="47.687668" lon="2.0601866">
        <ele>168</ele>
        <time>2022-01-20T09:38:30Z</time>
      </trkpt>
      <trkpt lat="47.68767" lon="2.060173">
        <ele>168</ele>
        <time>2022-01-20T09:38:31Z</time>
      </trkpt>
      <trkpt lat="47.687675" lon="2.0601604">
        <ele>168</ele>
        <time>2022-01-20T09:38:32Z</time>
      </trkpt>
      <trkpt lat="47.68768" lon="2.0601442">
        <ele>168</ele>
        <time>2022-01-20T09:38:33Z</time>
      </trkpt>
      <trkpt lat="47.68768" lon="2.0601215">
        <ele>168</ele>
        <time>2022-01-20T09:38:34Z</time>
      </trkpt>
      <trkpt lat="47.687675" lon="2.060105">
        <ele>168</ele>
        <time>2022-01-20T09:38:35Z</time>
      </trkpt>
      <trkpt lat="47.68767" lon="2.060076">
        <ele>168</ele>
        <time>2022-01-20T09:38:36Z</time>
      </trkpt>
      <trkpt lat="47.687664" lon="2.0600336">
        <ele>167</ele>
        <time>2022-01-20T09:38:38Z</time>
      </trkpt>
      <trkpt lat="47.687675" lon="2.0600214">
        <ele>167</ele>
        <time>2022-01-20T09:38:40Z</time>
      </trkpt>
      <trkpt lat="47.687683" lon="2.060014">
        <ele>167</ele>
        <time>2022-01-20T09:38:41Z</time>
      </trkpt>
      <trkpt lat="47.68769" lon="2.0600066">
        <ele>167</ele>
        <time>2022-01-20T09:38:42Z</time>
      </trkpt>
      <trkpt lat="47.687706" lon="2.0599942">
        <ele>167</ele>
        <time>2022-01-20T09:38:43Z</time>
      </trkpt>
      <trkpt lat="47.687714" lon="2.0599864">
        <ele>167</ele>
        <time>2022-01-20T09:38:44Z</time>
      </trkpt>
      <trkpt lat="47.68772" lon="2.0599716">
        <ele>167</ele>
        <time>2022-01-20T09:38:45Z</time>
      </trkpt>
      <trkpt lat="47.68773" lon="2.0599644">
        <ele>167</ele>
        <time>2022-01-20T09:38:46Z</time>
      </trkpt>
      <trkpt lat="47.687737" lon="2.0599604">
        <ele>167</ele>
        <time>2022-01-20T09:38:47Z</time>
      </trkpt>
      <trkpt lat="47.687737" lon="2.0599499">
        <ele>167</ele>
        <time>2022-01-20T09:38:48Z</time>
      </trkpt>
      <trkpt lat="47.687748" lon="2.0599427">
        <ele>167</ele>
        <time>2022-01-20T09:38:49Z</time>
      </trkpt>
      <trkpt lat="47.687756" lon="2.0599337">
        <ele>166</ele>
        <time>2022-01-20T09:38:50Z</time>
      </trkpt>
      <trkpt lat="47.68776" lon="2.0599182">
        <ele>166</ele>
        <time>2022-01-20T09:38:51Z</time>
      </trkpt>
      <trkpt lat="47.687767" lon="2.0599031">
        <ele>166</ele>
        <time>2022-01-20T09:38:52Z</time>
      </trkpt>
      <trkpt lat="47.68778" lon="2.059894">
        <ele>166</ele>
        <time>2022-01-20T09:38:53Z</time>
      </trkpt>
      <trkpt lat="47.687786" lon="2.0598824">
        <ele>167</ele>
        <time>2022-01-20T09:38:54Z</time>
      </trkpt>
      <trkpt lat="47.687798" lon="2.0598748">
        <ele>167</ele>
        <time>2022-01-20T09:38:55Z</time>
      </trkpt>
      <trkpt lat="47.687805" lon="2.0598614">
        <ele>166</ele>
        <time>2022-01-20T09:38:56Z</time>
      </trkpt>
      <trkpt lat="47.687813" lon="2.0598476">
        <ele>166</ele>
        <time>2022-01-20T09:38:57Z</time>
      </trkpt>
      <trkpt lat="47.68782" lon="2.059837">
        <ele>165</ele>
        <time>2022-01-20T09:38:58Z</time>
      </trkpt>
      <trkpt lat="47.687824" lon="2.0598235">
        <ele>165</ele>
        <time>2022-01-20T09:38:59Z</time>
      </trkpt>
      <trkpt lat="47.687828" lon="2.059807">
        <ele>165</ele>
        <time>2022-01-20T09:39:00Z</time>
      </trkpt>
      <trkpt lat="47.687836" lon="2.059783">
        <ele>165</ele>
        <time>2022-01-20T09:39:01Z</time>
      </trkpt>
      <trkpt lat="47.687843" lon="2.0597615">
        <ele>165</ele>
        <time>2022-01-20T09:39:02Z</time>
      </trkpt>
      <trkpt lat="47.687847" lon="2.0597508">
        <ele>165</ele>
        <time>2022-01-20T09:39:03Z</time>
      </trkpt>
      <trkpt lat="47.68785" lon="2.0597382">
        <ele>164</ele>
        <time>2022-01-20T09:39:04Z</time>
      </trkpt>
      <trkpt lat="47.68786" lon="2.0597286">
        <ele>164</ele>
        <time>2022-01-20T09:39:05Z</time>
      </trkpt>
      <trkpt lat="47.68786" lon="2.0597122">
        <ele>165</ele>
        <time>2022-01-20T09:39:06Z</time>
      </trkpt>
      <trkpt lat="47.687866" lon="2.059693">
        <ele>165</ele>
        <time>2022-01-20T09:39:07Z</time>
      </trkpt>
      <trkpt lat="47.687874" lon="2.0596702">
        <ele>165</ele>
        <time>2022-01-20T09:39:08Z</time>
      </trkpt>
      <trkpt lat="47.687878" lon="2.0596495">
        <ele>164</ele>
        <time>2022-01-20T09:39:09Z</time>
      </trkpt>
      <trkpt lat="47.687878" lon="2.0596347">
        <ele>164</ele>
        <time>2022-01-20T09:39:10Z</time>
      </trkpt>
      <trkpt lat="47.687885" lon="2.059622">
        <ele>165</ele>
        <time>2022-01-20T09:39:11Z</time>
      </trkpt>
      <trkpt lat="47.68789" lon="2.0596068">
        <ele>165</ele>
        <time>2022-01-20T09:39:12Z</time>
      </trkpt>
      <trkpt lat="47.6879" lon="2.0595908">
        <ele>165</ele>
        <time>2022-01-20T09:39:13Z</time>
      </trkpt>
      <trkpt lat="47.68791" lon="2.0595796">
        <ele>165</ele>
        <time>2022-01-20T09:39:14Z</time>
      </trkpt>
      <trkpt lat="47.687916" lon="2.0595613">
        <ele>165</ele>
        <time>2022-01-20T09:39:15Z</time>
      </trkpt>
      <trkpt lat="47.687923" lon="2.0595481">
        <ele>165</ele>
        <time>2022-01-20T09:39:16Z</time>
      </trkpt>
      <trkpt lat="47.687935" lon="2.0595365">
        <ele>165</ele>
        <time>2022-01-20T09:39:17Z</time>
      </trkpt>
      <trkpt lat="47.687943" lon="2.0595229">
        <ele>165</ele>
        <time>2022-01-20T09:39:18Z</time>
      </trkpt>
      <trkpt lat="47.68795" lon="2.0595098">
        <ele>165</ele>
        <time>2022-01-20T09:39:19Z</time>
      </trkpt>
      <trkpt lat="47.687954" lon="2.0594954">
        <ele>165</ele>
        <time>2022-01-20T09:39:20Z</time>
      </trkpt>
      <trkpt lat="47.68796" lon="2.0594845">
        <ele>165</ele>
        <time>2022-01-20T09:39:21Z</time>
      </trkpt>
      <trkpt lat="47.68797" lon="2.0594683">
        <ele>165</ele>
        <time>2022-01-20T09:39:22Z</time>
      </trkpt>
      <trkpt lat="47.687973" lon="2.0594504">
        <ele>165</ele>
        <time>2022-01-20T09:39:23Z</time>
      </trkpt>
      <trkpt lat="47.68798" lon="2.059434">
        <ele>165</ele>
        <time>2022-01-20T09:39:24Z</time>
      </trkpt>
      <trkpt lat="47.687984" lon="2.059427">
        <ele>165</ele>
        <time>2022-01-20T09:39:25Z</time>
      </trkpt>
      <trkpt lat="47.687992" lon="2.0594122">
        <ele>165</ele>
        <time>2022-01-20T09:39:26Z</time>
      </trkpt>
      <trkpt lat="47.688" lon="2.0593987">
        <ele>165</ele>
        <time>2022-01-20T09:39:27Z</time>
      </trkpt>
      <trkpt lat="47.688004" lon="2.059388">
        <ele>165</ele>
        <time>2022-01-20T09:39:28Z</time>
      </trkpt>
      <trkpt lat="47.688007" lon="2.0593727">
        <ele>165</ele>
        <time>2022-01-20T09:39:29Z</time>
      </trkpt>
      <trkpt lat="47.688015" lon="2.0593665">
        <ele>165</ele>
        <time>2022-01-20T09:39:30Z</time>
      </trkpt>
      <trkpt lat="47.688023" lon="2.0593553">
        <ele>164</ele>
        <time>2022-01-20T09:39:31Z</time>
      </trkpt>
      <trkpt lat="47.68803" lon="2.0593374">
        <ele>164</ele>
        <time>2022-01-20T09:39:32Z</time>
      </trkpt>
      <trkpt lat="47.688038" lon="2.059319">
        <ele>164</ele>
        <time>2022-01-20T09:39:33Z</time>
      </trkpt>
      <trkpt lat="47.68804" lon="2.059302">
        <ele>165</ele>
        <time>2022-01-20T09:39:34Z</time>
      </trkpt>
      <trkpt lat="47.68805" lon="2.0592852">
        <ele>165</ele>
        <time>2022-01-20T09:39:35Z</time>
      </trkpt>
      <trkpt lat="47.688057" lon="2.0592763">
        <ele>165</ele>
        <time>2022-01-20T09:39:36Z</time>
      </trkpt>
      <trkpt lat="47.688065" lon="2.0592651">
        <ele>165</ele>
        <time>2022-01-20T09:39:37Z</time>
      </trkpt>
      <trkpt lat="47.688076" lon="2.0592527">
        <ele>165</ele>
        <time>2022-01-20T09:39:38Z</time>
      </trkpt>
      <trkpt lat="47.688087" lon="2.0592384">
        <ele>164</ele>
        <time>2022-01-20T09:39:39Z</time>
      </trkpt>
      <trkpt lat="47.6881" lon="2.0592244">
        <ele>165</ele>
        <time>2022-01-20T09:39:40Z</time>
      </trkpt>
      <trkpt lat="47.688107" lon="2.0592122">
        <ele>165</ele>
        <time>2022-01-20T09:39:41Z</time>
      </trkpt>
      <trkpt lat="47.688118" lon="2.0592036">
        <ele>165</ele>
        <time>2022-01-20T09:39:42Z</time>
      </trkpt>
      <trkpt lat="47.688126" lon="2.0591936">
        <ele>165</ele>
        <time>2022-01-20T09:39:43Z</time>
      </trkpt>
      <trkpt lat="47.688133" lon="2.0591838">
        <ele>164</ele>
        <time>2022-01-20T09:39:44Z</time>
      </trkpt>
      <trkpt lat="47.688145" lon="2.059173">
        <ele>165</ele>
        <time>2022-01-20T09:39:45Z</time>
      </trkpt>
      <trkpt lat="47.68815" lon="2.0591576">
        <ele>165</ele>
        <time>2022-01-20T09:39:46Z</time>
      </trkpt>
      <trkpt lat="47.688156" lon="2.0591426">
        <ele>165</ele>
        <time>2022-01-20T09:39:47Z</time>
      </trkpt>
      <trkpt lat="47.68816" lon="2.0591233">
        <ele>165</ele>
        <time>2022-01-20T09:39:48Z</time>
      </trkpt>
      <trkpt lat="47.688164" lon="2.0591033">
        <ele>165</ele>
        <time>2022-01-20T09:39:49Z</time>
      </trkpt>
      <trkpt lat="47.68817" lon="2.0590825">
        <ele>165</ele>
        <time>2022-01-20T09:39:50Z</time>
      </trkpt>
      <trkpt lat="47.68818" lon="2.0590706">
        <ele>165</ele>
        <time>2022-01-20T09:39:51Z</time>
      </trkpt>
      <trkpt lat="47.688187" lon="2.0590582">
        <ele>166</ele>
        <time>2022-01-20T09:39:52Z</time>
      </trkpt>
      <trkpt lat="47.688194" lon="2.0590441">
        <ele>166</ele>
        <time>2022-01-20T09:39:53Z</time>
      </trkpt>
      <trkpt lat="47.6882" lon="2.0590317">
        <ele>166</ele>
        <time>2022-01-20T09:39:54Z</time>
      </trkpt>
      <trkpt lat="47.688213" lon="2.0590246">
        <ele>166</ele>
        <time>2022-01-20T09:39:55Z</time>
      </trkpt>
      <trkpt lat="47.68822" lon="2.059012">
        <ele>167</ele>
        <time>2022-01-20T09:39:56Z</time>
      </trkpt>
      <trkpt lat="47.68823" lon="2.0589967">
        <ele>166</ele>
        <time>2022-01-20T09:39:57Z</time>
      </trkpt>
      <trkpt lat="47.68824" lon="2.0589845">
        <ele>167</ele>
        <time>2022-01-20T09:39:58Z</time>
      </trkpt>
      <trkpt lat="47.688248" lon="2.0589695">
        <ele>166</ele>
        <time>2022-01-20T09:39:59Z</time>
      </trkpt>
      <trkpt lat="47.688255" lon="2.0589554">
        <ele>167</ele>
        <time>2022-01-20T09:40:00Z</time>
      </trkpt>
      <trkpt lat="47.688263" lon="2.0589345">
        <ele>167</ele>
        <time>2022-01-20T09:40:01Z</time>
      </trkpt>
      <trkpt lat="47.68827" lon="2.0589206">
        <ele>167</ele>
        <time>2022-01-20T09:40:02Z</time>
      </trkpt>
      <trkpt lat="47.688274" lon="2.058904">
        <ele>168</ele>
        <time>2022-01-20T09:40:03Z</time>
      </trkpt>
      <trkpt lat="47.688282" lon="2.0588853">
        <ele>168</ele>
        <time>2022-01-20T09:40:04Z</time>
      </trkpt>
      <trkpt lat="47.688286" lon="2.0588698">
        <ele>168</ele>
        <time>2022-01-20T09:40:05Z</time>
      </trkpt>
      <trkpt lat="47.68829" lon="2.0588534">
        <ele>168</ele>
        <time>2022-01-20T09:40:06Z</time>
      </trkpt>
      <trkpt lat="47.688297" lon="2.0588353">
        <ele>168</ele>
        <time>2022-01-20T09:40:07Z</time>
      </trkpt>
      <trkpt lat="47.6883" lon="2.0588145">
        <ele>168</ele>
        <time>2022-01-20T09:40:08Z</time>
      </trkpt>
      <trkpt lat="47.68831" lon="2.0587976">
        <ele>167</ele>
        <time>2022-01-20T09:40:09Z</time>
      </trkpt>
      <trkpt lat="47.688316" lon="2.0587869">
        <ele>167</ele>
        <time>2022-01-20T09:40:10Z</time>
      </trkpt>
      <trkpt lat="47.688324" lon="2.0587783">
        <ele>167</ele>
        <time>2022-01-20T09:40:11Z</time>
      </trkpt>
      <trkpt lat="47.68833" lon="2.0587635">
        <ele>167</ele>
        <time>2022-01-20T09:40:12Z</time>
      </trkpt>
      <trkpt lat="47.68834" lon="2.058749">
        <ele>167</ele>
        <time>2022-01-20T09:40:13Z</time>
      </trkpt>
      <trkpt lat="47.688347" lon="2.0587378">
        <ele>166</ele>
        <time>2022-01-20T09:40:14Z</time>
      </trkpt>
      <trkpt lat="47.68835" lon="2.0587213">
        <ele>166</ele>
        <time>2022-01-20T09:40:15Z</time>
      </trkpt>
      <trkpt lat="47.688354" lon="2.0587022">
        <ele>166</ele>
        <time>2022-01-20T09:40:16Z</time>
      </trkpt>
      <trkpt lat="47.68836" lon="2.0586834">
        <ele>166</ele>
        <time>2022-01-20T09:40:17Z</time>
      </trkpt>
      <trkpt lat="47.688366" lon="2.0586662">
        <ele>166</ele>
        <time>2022-01-20T09:40:18Z</time>
      </trkpt>
      <trkpt lat="47.688366" lon="2.0586405">
        <ele>166</ele>
        <time>2022-01-20T09:40:19Z</time>
      </trkpt>
      <trkpt lat="47.68837" lon="2.0586214">
        <ele>166</ele>
        <time>2022-01-20T09:40:20Z</time>
      </trkpt>
      <trkpt lat="47.688374" lon="2.0586028">
        <ele>166</ele>
        <time>2022-01-20T09:40:21Z</time>
      </trkpt>
      <trkpt lat="47.688377" lon="2.058588">
        <ele>165</ele>
        <time>2022-01-20T09:40:22Z</time>
      </trkpt>
      <trkpt lat="47.688385" lon="2.058569">
        <ele>166</ele>
        <time>2022-01-20T09:40:23Z</time>
      </trkpt>
      <trkpt lat="47.68839" lon="2.0585535">
        <ele>166</ele>
        <time>2022-01-20T09:40:24Z</time>
      </trkpt>
      <trkpt lat="47.688393" lon="2.05854">
        <ele>166</ele>
        <time>2022-01-20T09:40:25Z</time>
      </trkpt>
      <trkpt lat="47.688404" lon="2.058526">
        <ele>166</ele>
        <time>2022-01-20T09:40:26Z</time>
      </trkpt>
      <trkpt lat="47.68841" lon="2.05851">
        <ele>166</ele>
        <time>2022-01-20T09:40:27Z</time>
      </trkpt>
      <trkpt lat="47.688423" lon="2.0584939">
        <ele>166</ele>
        <time>2022-01-20T09:40:28Z</time>
      </trkpt>
      <trkpt lat="47.68843" lon="2.0584774">
        <ele>166</ele>
        <time>2022-01-20T09:40:29Z</time>
      </trkpt>
      <trkpt lat="47.688442" lon="2.0584612">
        <ele>166</ele>
        <time>2022-01-20T09:40:30Z</time>
      </trkpt>
      <trkpt lat="47.68845" lon="2.058451">
        <ele>166</ele>
        <time>2022-01-20T09:40:31Z</time>
      </trkpt>
      <trkpt lat="47.688457" lon="2.058435">
        <ele>166</ele>
        <time>2022-01-20T09:40:32Z</time>
      </trkpt>
      <trkpt lat="47.688465" lon="2.0584261">
        <ele>165</ele>
        <time>2022-01-20T09:40:33Z</time>
      </trkpt>
      <trkpt lat="47.688473" lon="2.0584142">
        <ele>166</ele>
        <time>2022-01-20T09:40:34Z</time>
      </trkpt>
      <trkpt lat="47.688477" lon="2.0583978">
        <ele>166</ele>
        <time>2022-01-20T09:40:35Z</time>
      </trkpt>
      <trkpt lat="47.68848" lon="2.0583794">
        <ele>165</ele>
        <time>2022-01-20T09:40:36Z</time>
      </trkpt>
      <trkpt lat="47.688488" lon="2.0583665">
        <ele>165</ele>
        <time>2022-01-20T09:40:37Z</time>
      </trkpt>
      <trkpt lat="47.688496" lon="2.0583541">
        <ele>165</ele>
        <time>2022-01-20T09:40:38Z</time>
      </trkpt>
      <trkpt lat="47.688507" lon="2.0583382">
        <ele>165</ele>
        <time>2022-01-20T09:40:39Z</time>
      </trkpt>
      <trkpt lat="47.688515" lon="2.058325">
        <ele>165</ele>
        <time>2022-01-20T09:40:40Z</time>
      </trkpt>
      <trkpt lat="47.68852" lon="2.0583096">
        <ele>166</ele>
        <time>2022-01-20T09:40:41Z</time>
      </trkpt>
      <trkpt lat="47.688522" lon="2.0582983">
        <ele>166</ele>
        <time>2022-01-20T09:40:42Z</time>
      </trkpt>
      <trkpt lat="47.688526" lon="2.058284">
        <ele>166</ele>
        <time>2022-01-20T09:40:43Z</time>
      </trkpt>
      <trkpt lat="47.68853" lon="2.0582714">
        <ele>166</ele>
        <time>2022-01-20T09:40:44Z</time>
      </trkpt>
      <trkpt lat="47.688538" lon="2.0582628">
        <ele>165</ele>
        <time>2022-01-20T09:40:45Z</time>
      </trkpt>
      <trkpt lat="47.68854" lon="2.0582488">
        <ele>165</ele>
        <time>2022-01-20T09:40:46Z</time>
      </trkpt>
      <trkpt lat="47.68855" lon="2.0582337">
        <ele>164</ele>
        <time>2022-01-20T09:40:47Z</time>
      </trkpt>
      <trkpt lat="47.688557" lon="2.0582144">
        <ele>164</ele>
        <time>2022-01-20T09:40:48Z</time>
      </trkpt>
      <trkpt lat="47.688564" lon="2.0581965">
        <ele>165</ele>
        <time>2022-01-20T09:40:49Z</time>
      </trkpt>
      <trkpt lat="47.68857" lon="2.0581794">
        <ele>164</ele>
        <time>2022-01-20T09:40:50Z</time>
      </trkpt>
      <trkpt lat="47.688572" lon="2.0581653">
        <ele>164</ele>
        <time>2022-01-20T09:40:51Z</time>
      </trkpt>
      <trkpt lat="47.68858" lon="2.0581458">
        <ele>164</ele>
        <time>2022-01-20T09:40:52Z</time>
      </trkpt>
      <trkpt lat="47.688587" lon="2.0581305">
        <ele>164</ele>
        <time>2022-01-20T09:40:53Z</time>
      </trkpt>
      <trkpt lat="47.688595" lon="2.0581193">
        <ele>164</ele>
        <time>2022-01-20T09:40:54Z</time>
      </trkpt>
      <trkpt lat="47.6886" lon="2.058104">
        <ele>164</ele>
        <time>2022-01-20T09:40:55Z</time>
      </trkpt>
      <trkpt lat="47.688602" lon="2.058084">
        <ele>164</ele>
        <time>2022-01-20T09:40:56Z</time>
      </trkpt>
      <trkpt lat="47.688602" lon="2.058065">
        <ele>164</ele>
        <time>2022-01-20T09:40:57Z</time>
      </trkpt>
      <trkpt lat="47.688606" lon="2.058053">
        <ele>164</ele>
        <time>2022-01-20T09:40:58Z</time>
      </trkpt>
      <trkpt lat="47.688614" lon="2.0580425">
        <ele>164</ele>
        <time>2022-01-20T09:40:59Z</time>
      </trkpt>
      <trkpt lat="47.688618" lon="2.058034">
        <ele>164</ele>
        <time>2022-01-20T09:41:00Z</time>
      </trkpt>
      <trkpt lat="47.688618" lon="2.058034">
        <ele>164</ele>
        <time>2022-01-20T09:41:01Z</time>
      </trkpt>
      <trkpt lat="47.68863" lon="2.0580227">
        <ele>163</ele>
        <time>2022-01-20T09:41:02Z</time>
      </trkpt>
      <trkpt lat="47.688637" lon="2.058009">
        <ele>163</ele>
        <time>2022-01-20T09:41:03Z</time>
      </trkpt>
      <trkpt lat="47.68865" lon="2.0579991">
        <ele>163</ele>
        <time>2022-01-20T09:41:04Z</time>
      </trkpt>
      <trkpt lat="47.688652" lon="2.0579858">
        <ele>162</ele>
        <time>2022-01-20T09:41:05Z</time>
      </trkpt>
      <trkpt lat="47.68866" lon="2.0579717">
        <ele>163</ele>
        <time>2022-01-20T09:41:06Z</time>
      </trkpt>
      <trkpt lat="47.68866" lon="2.057958">
        <ele>163</ele>
        <time>2022-01-20T09:41:07Z</time>
      </trkpt>
      <trkpt lat="47.688667" lon="2.057946">
        <ele>163</ele>
        <time>2022-01-20T09:41:08Z</time>
      </trkpt>
      <trkpt lat="47.688675" lon="2.0579257">
        <ele>163</ele>
        <time>2022-01-20T09:41:09Z</time>
      </trkpt>
      <trkpt lat="47.68868" lon="2.057914">
        <ele>163</ele>
        <time>2022-01-20T09:41:10Z</time>
      </trkpt>
      <trkpt lat="47.688683" lon="2.0579052">
        <ele>163</ele>
        <time>2022-01-20T09:41:11Z</time>
      </trkpt>
      <trkpt lat="47.68869" lon="2.057898">
        <ele>163</ele>
        <time>2022-01-20T09:41:12Z</time>
      </trkpt>
      <trkpt lat="47.688698" lon="2.057886">
        <ele>163</ele>
        <time>2022-01-20T09:41:13Z</time>
      </trkpt>
      <trkpt lat="47.6887" lon="2.0578709">
        <ele>163</ele>
        <time>2022-01-20T09:41:14Z</time>
      </trkpt>
      <trkpt lat="47.68871" lon="2.0578597">
        <ele>163</ele>
        <time>2022-01-20T09:41:15Z</time>
      </trkpt>
      <trkpt lat="47.688717" lon="2.0578496">
        <ele>163</ele>
        <time>2022-01-20T09:41:16Z</time>
      </trkpt>
      <trkpt lat="47.688725" lon="2.0578365">
        <ele>163</ele>
        <time>2022-01-20T09:41:17Z</time>
      </trkpt>
      <trkpt lat="47.688732" lon="2.0578246">
        <ele>163</ele>
        <time>2022-01-20T09:41:18Z</time>
      </trkpt>
      <trkpt lat="47.688736" lon="2.057814">
        <ele>164</ele>
        <time>2022-01-20T09:41:19Z</time>
      </trkpt>
      <trkpt lat="47.68874" lon="2.0578017">
        <ele>164</ele>
        <time>2022-01-20T09:41:20Z</time>
      </trkpt>
      <trkpt lat="47.68874" lon="2.0578017">
        <ele>164</ele>
        <time>2022-01-20T09:41:21Z</time>
      </trkpt>
      <trkpt lat="47.688747" lon="2.0577805">
        <ele>164</ele>
        <time>2022-01-20T09:41:22Z</time>
      </trkpt>
      <trkpt lat="47.688755" lon="2.0577672">
        <ele>164</ele>
        <time>2022-01-20T09:41:23Z</time>
      </trkpt>
      <trkpt lat="47.68876" lon="2.0577574">
        <ele>164</ele>
        <time>2022-01-20T09:41:24Z</time>
      </trkpt>
      <trkpt lat="47.688766" lon="2.0577464">
        <ele>163</ele>
        <time>2022-01-20T09:41:25Z</time>
      </trkpt>
      <trkpt lat="47.68877" lon="2.0577285">
        <ele>163</ele>
        <time>2022-01-20T09:41:26Z</time>
      </trkpt>
      <trkpt lat="47.688778" lon="2.0577075">
        <ele>163</ele>
        <time>2022-01-20T09:41:27Z</time>
      </trkpt>
      <trkpt lat="47.688786" lon="2.0576897">
        <ele>163</ele>
        <time>2022-01-20T09:41:28Z</time>
      </trkpt>
      <trkpt lat="47.688793" lon="2.0576723">
        <ele>162</ele>
        <time>2022-01-20T09:41:29Z</time>
      </trkpt>
      <trkpt lat="47.688805" lon="2.0576525">
        <ele>161</ele>
        <time>2022-01-20T09:41:30Z</time>
      </trkpt>
      <trkpt lat="47.688805" lon="2.0576315">
        <ele>161</ele>
        <time>2022-01-20T09:41:31Z</time>
      </trkpt>
      <trkpt lat="47.688812" lon="2.0576134">
        <ele>161</ele>
        <time>2022-01-20T09:41:32Z</time>
      </trkpt>
      <trkpt lat="47.68882" lon="2.0575945">
        <ele>160</ele>
        <time>2022-01-20T09:41:33Z</time>
      </trkpt>
      <trkpt lat="47.688828" lon="2.057581">
        <ele>160</ele>
        <time>2022-01-20T09:41:34Z</time>
      </trkpt>
      <trkpt lat="47.68883" lon="2.0575595">
        <ele>161</ele>
        <time>2022-01-20T09:41:35Z</time>
      </trkpt>
      <trkpt lat="47.68883" lon="2.0575414">
        <ele>161</ele>
        <time>2022-01-20T09:41:36Z</time>
      </trkpt>
      <trkpt lat="47.688835" lon="2.0575216">
        <ele>161</ele>
        <time>2022-01-20T09:41:38Z</time>
      </trkpt>
      <trkpt lat="47.68884" lon="2.0575018">
        <ele>161</ele>
        <time>2022-01-20T09:41:38Z</time>
      </trkpt>
      <trkpt lat="47.688843" lon="2.0574741">
        <ele>161</ele>
        <time>2022-01-20T09:41:40Z</time>
      </trkpt>
      <trkpt lat="47.688847" lon="2.0574503">
        <ele>161</ele>
        <time>2022-01-20T09:41:41Z</time>
      </trkpt>
      <trkpt lat="47.68885" lon="2.0574276">
        <ele>161</ele>
        <time>2022-01-20T09:41:42Z</time>
      </trkpt>
      <trkpt lat="47.688854" lon="2.0574086">
        <ele>161</ele>
        <time>2022-01-20T09:41:43Z</time>
      </trkpt>
      <trkpt lat="47.688854" lon="2.0573854">
        <ele>162</ele>
        <time>2022-01-20T09:41:44Z</time>
      </trkpt>
      <trkpt lat="47.688854" lon="2.057369">
        <ele>162</ele>
        <time>2022-01-20T09:41:45Z</time>
      </trkpt>
      <trkpt lat="47.688858" lon="2.0573452">
        <ele>162</ele>
        <time>2022-01-20T09:41:46Z</time>
      </trkpt>
      <trkpt lat="47.68886" lon="2.0573275">
        <ele>162</ele>
        <time>2022-01-20T09:41:47Z</time>
      </trkpt>
      <trkpt lat="47.688866" lon="2.057282">
        <ele>162</ele>
        <time>2022-01-20T09:41:48Z</time>
      </trkpt>
      <trkpt lat="47.68887" lon="2.0572562">
        <ele>163</ele>
        <time>2022-01-20T09:41:49Z</time>
      </trkpt>
      <trkpt lat="47.68887" lon="2.0572562">
        <ele>163</ele>
        <time>2022-01-20T09:41:49Z</time>
      </trkpt>
      <trkpt lat="47.688873" lon="2.057235">
        <ele>163</ele>
        <time>2022-01-20T09:41:51Z</time>
      </trkpt>
      <trkpt lat="47.688877" lon="2.057213">
        <ele>163</ele>
        <time>2022-01-20T09:41:52Z</time>
      </trkpt>
      <trkpt lat="47.688877" lon="2.0571938">
        <ele>163</ele>
        <time>2022-01-20T09:41:53Z</time>
      </trkpt>
      <trkpt lat="47.68888" lon="2.0571737">
        <ele>163</ele>
        <time>2022-01-20T09:41:54Z</time>
      </trkpt>
      <trkpt lat="47.688885" lon="2.0571496">
        <ele>163</ele>
        <time>2022-01-20T09:41:55Z</time>
      </trkpt>
      <trkpt lat="47.688885" lon="2.0571296">
        <ele>163</ele>
        <time>2022-01-20T09:41:56Z</time>
      </trkpt>
      <trkpt lat="47.68889" lon="2.0571043">
        <ele>163</ele>
        <time>2022-01-20T09:41:57Z</time>
      </trkpt>
      <trkpt lat="47.688896" lon="2.0570705">
        <ele>163</ele>
        <time>2022-01-20T09:41:58Z</time>
      </trkpt>
      <trkpt lat="47.688896" lon="2.0570705">
        <ele>163</ele>
        <time>2022-01-20T09:41:58Z</time>
      </trkpt>
      <trkpt lat="47.688896" lon="2.0570526">
        <ele>163</ele>
        <time>2022-01-20T09:42:00Z</time>
      </trkpt>
      <trkpt lat="47.6889" lon="2.0570176">
        <ele>163</ele>
        <time>2022-01-20T09:42:01Z</time>
      </trkpt>
      <trkpt lat="47.688904" lon="2.0569997">
        <ele>164</ele>
        <time>2022-01-20T09:42:02Z</time>
      </trkpt>
      <trkpt lat="47.688904" lon="2.0569997">
        <ele>164</ele>
        <time>2022-01-20T09:42:02Z</time>
      </trkpt>
      <trkpt lat="47.688908" lon="2.0569613">
        <ele>164</ele>
        <time>2022-01-20T09:42:04Z</time>
      </trkpt>
      <trkpt lat="47.688908" lon="2.0569613">
        <ele>164</ele>
        <time>2022-01-20T09:42:04Z</time>
      </trkpt>
      <trkpt lat="47.688908" lon="2.0569415">
        <ele>164</ele>
        <time>2022-01-20T09:42:06Z</time>
      </trkpt>
      <trkpt lat="47.688904" lon="2.0569253">
        <ele>164</ele>
        <time>2022-01-20T09:42:07Z</time>
      </trkpt>
      <trkpt lat="47.688904" lon="2.0569127">
        <ele>164</ele>
        <time>2022-01-20T09:42:08Z</time>
      </trkpt>
      <trkpt lat="47.688904" lon="2.0568895">
        <ele>164</ele>
        <time>2022-01-20T09:42:09Z</time>
      </trkpt>
      <trkpt lat="47.688904" lon="2.056876">
        <ele>164</ele>
        <time>2022-01-20T09:42:10Z</time>
      </trkpt>
      <trkpt lat="47.688908" lon="2.056861">
        <ele>164</ele>
        <time>2022-01-20T09:42:11Z</time>
      </trkpt>
      <trkpt lat="47.688908" lon="2.0568469">
        <ele>164</ele>
        <time>2022-01-20T09:42:12Z</time>
      </trkpt>
      <trkpt lat="47.688908" lon="2.0568259">
        <ele>164</ele>
        <time>2022-01-20T09:42:13Z</time>
      </trkpt>
      <trkpt lat="47.688908" lon="2.0568259">
        <ele>164</ele>
        <time>2022-01-20T09:42:13Z</time>
      </trkpt>
      <trkpt lat="47.68891" lon="2.0568166">
        <ele>164</ele>
        <time>2022-01-20T09:42:15Z</time>
      </trkpt>
      <trkpt lat="47.68891" lon="2.0568166">
        <ele>164</ele>
        <time>2022-01-20T09:42:16Z</time>
      </trkpt>
      <trkpt lat="47.68891" lon="2.0568166">
        <ele>164</ele>
        <time>2022-01-20T09:42:17Z</time>
      </trkpt>
      <trkpt lat="47.688908" lon="2.056778">
        <ele>164</ele>
        <time>2022-01-20T09:42:18Z</time>
      </trkpt>
      <trkpt lat="47.688908" lon="2.0567527">
        <ele>165</ele>
        <time>2022-01-20T09:42:19Z</time>
      </trkpt>
      <trkpt lat="47.688904" lon="2.056735">
        <ele>166</ele>
        <time>2022-01-20T09:42:20Z</time>
      </trkpt>
      <trkpt lat="47.688904" lon="2.0567348">
        <ele>166</ele>
        <time>2022-01-20T09:42:21Z</time>
      </trkpt>
      <trkpt lat="47.688904" lon="2.056734">
        <ele>166</ele>
        <time>2022-01-20T09:42:22Z</time>
      </trkpt>
      <trkpt lat="47.688904" lon="2.0567334">
        <ele>166</ele>
        <time>2022-01-20T09:42:23Z</time>
      </trkpt>
      <trkpt lat="47.688904" lon="2.0567334">
        <ele>166</ele>
        <time>2022-01-20T09:42:23Z</time>
      </trkpt>
    </trkseg>
    <trkseg>
      <trkpt lat="47.688904" lon="2.0567334">
        <ele>166</ele>
        <time>2022-01-20T09:42:23Z</time>
      </trkpt>
      <trkpt lat="47.688866" lon="2.0565202">
        <ele>169</ele>
        <time>2022-01-20T09:43:54Z</time>
      </trkpt>
      <trkpt lat="47.68886" lon="2.0565064">
        <ele>170</ele>
        <time>2022-01-20T09:43:55Z</time>
      </trkpt>
      <trkpt lat="47.688858" lon="2.0565">
        <ele>170</ele>
        <time>2022-01-20T09:43:56Z</time>
      </trkpt>
      <trkpt lat="47.68886" lon="2.0564969">
        <ele>170</ele>
        <time>2022-01-20T09:43:57Z</time>
      </trkpt>
      <trkpt lat="47.688858" lon="2.056497">
        <ele>170</ele>
        <time>2022-01-20T09:43:58Z</time>
      </trkpt>
      <trkpt lat="47.688858" lon="2.056497">
        <ele>170</ele>
        <time>2022-01-20T09:43:58Z</time>
      </trkpt>
    </trkseg>
    <trkseg>
      <trkpt lat="47.688858" lon="2.056497">
        <ele>170</ele>
        <time>2022-01-20T09:43:58Z</time>
      </trkpt>
      <trkpt lat="47.688877" lon="2.0564566">
        <ele>168</ele>
        <time>2022-01-20T09:44:30Z</time>
      </trkpt>
      <trkpt lat="47.688877" lon="2.0564523">
        <ele>168</ele>
        <time>2022-01-20T09:44:31Z</time>
      </trkpt>
      <trkpt lat="47.688885" lon="2.0564322">
        <ele>168</ele>
        <time>2022-01-20T09:44:32Z</time>
      </trkpt>
      <trkpt lat="47.688885" lon="2.0564249">
        <ele>167</ele>
        <time>2022-01-20T09:44:33Z</time>
      </trkpt>
      <trkpt lat="47.688892" lon="2.0564184">
        <ele>167</ele>
        <time>2022-01-20T09:44:34Z</time>
      </trkpt>
      <trkpt lat="47.688892" lon="2.0564063">
        <ele>167</ele>
        <time>2022-01-20T09:44:35Z</time>
      </trkpt>
      <trkpt lat="47.688892" lon="2.0563948">
        <ele>167</ele>
        <time>2022-01-20T09:44:36Z</time>
      </trkpt>
      <trkpt lat="47.6889" lon="2.0563817">
        <ele>166</ele>
        <time>2022-01-20T09:44:37Z</time>
      </trkpt>
      <trkpt lat="47.6889" lon="2.0563674">
        <ele>167</ele>
        <time>2022-01-20T09:44:38Z</time>
      </trkpt>
      <trkpt lat="47.688904" lon="2.056352">
        <ele>167</ele>
        <time>2022-01-20T09:44:39Z</time>
      </trkpt>
      <trkpt lat="47.6889" lon="2.056339">
        <ele>167</ele>
        <time>2022-01-20T09:44:40Z</time>
      </trkpt>
      <trkpt lat="47.688904" lon="2.0563242">
        <ele>168</ele>
        <time>2022-01-20T09:44:41Z</time>
      </trkpt>
      <trkpt lat="47.688908" lon="2.0563169">
        <ele>168</ele>
        <time>2022-01-20T09:44:42Z</time>
      </trkpt>
      <trkpt lat="47.688908" lon="2.0563061">
        <ele>168</ele>
        <time>2022-01-20T09:44:43Z</time>
      </trkpt>
      <trkpt lat="47.688908" lon="2.0563061">
        <ele>168</ele>
        <time>2022-01-20T09:44:44Z</time>
      </trkpt>
      <trkpt lat="47.688915" lon="2.0562944">
        <ele>167</ele>
        <time>2022-01-20T09:44:45Z</time>
      </trkpt>
      <trkpt lat="47.688915" lon="2.0562947">
        <ele>167</ele>
        <time>2022-01-20T09:44:46Z</time>
      </trkpt>
      <trkpt lat="47.688915" lon="2.0562866">
        <ele>167</ele>
        <time>2022-01-20T09:44:47Z</time>
      </trkpt>
      <trkpt lat="47.68892" lon="2.0562785">
        <ele>167</ele>
        <time>2022-01-20T09:44:48Z</time>
      </trkpt>
      <trkpt lat="47.688927" lon="2.056265">
        <ele>168</ele>
        <time>2022-01-20T09:44:49Z</time>
      </trkpt>
      <trkpt lat="47.688934" lon="2.0562615">
        <ele>168</ele>
        <time>2022-01-20T09:44:50Z</time>
      </trkpt>
      <trkpt lat="47.68894" lon="2.0562544">
        <ele>167</ele>
        <time>2022-01-20T09:44:51Z</time>
      </trkpt>
      <trkpt lat="47.688946" lon="2.0562441">
        <ele>167</ele>
        <time>2022-01-20T09:44:52Z</time>
      </trkpt>
      <trkpt lat="47.688957" lon="2.0562272">
        <ele>167</ele>
        <time>2022-01-20T09:44:53Z</time>
      </trkpt>
      <trkpt lat="47.68896" lon="2.0562181">
        <ele>167</ele>
        <time>2022-01-20T09:44:54Z</time>
      </trkpt>
      <trkpt lat="47.68897" lon="2.0562093">
        <ele>167</ele>
        <time>2022-01-20T09:44:55Z</time>
      </trkpt>
      <trkpt lat="47.68897" lon="2.0562034">
        <ele>168</ele>
        <time>2022-01-20T09:44:56Z</time>
      </trkpt>
      <trkpt lat="47.688972" lon="2.0561883">
        <ele>168</ele>
        <time>2022-01-20T09:44:57Z</time>
      </trkpt>
      <trkpt lat="47.688976" lon="2.0561798">
        <ele>167</ele>
        <time>2022-01-20T09:44:58Z</time>
      </trkpt>
      <trkpt lat="47.688984" lon="2.0561707">
        <ele>167</ele>
        <time>2022-01-20T09:44:59Z</time>
      </trkpt>
      <trkpt lat="47.688988" lon="2.0561626">
        <ele>167</ele>
        <time>2022-01-20T09:45:00Z</time>
      </trkpt>
      <trkpt lat="47.689" lon="2.0561497">
        <ele>166</ele>
        <time>2022-01-20T09:45:01Z</time>
      </trkpt>
      <trkpt lat="47.689014" lon="2.0561352">
        <ele>166</ele>
        <time>2022-01-20T09:45:02Z</time>
      </trkpt>
      <trkpt lat="47.689022" lon="2.056125">
        <ele>166</ele>
        <time>2022-01-20T09:45:03Z</time>
      </trkpt>
      <trkpt lat="47.689026" lon="2.0561132">
        <ele>166</ele>
        <time>2022-01-20T09:45:04Z</time>
      </trkpt>
      <trkpt lat="47.68903" lon="2.056096">
        <ele>165</ele>
        <time>2022-01-20T09:45:05Z</time>
      </trkpt>
      <trkpt lat="47.689034" lon="2.0560756">
        <ele>165</ele>
        <time>2022-01-20T09:45:06Z</time>
      </trkpt>
      <trkpt lat="47.689037" lon="2.056057">
        <ele>166</ele>
        <time>2022-01-20T09:45:07Z</time>
      </trkpt>
      <trkpt lat="47.689037" lon="2.0560398">
        <ele>166</ele>
        <time>2022-01-20T09:45:08Z</time>
      </trkpt>
      <trkpt lat="47.68904" lon="2.0560331">
        <ele>166</ele>
        <time>2022-01-20T09:45:09Z</time>
      </trkpt>
      <trkpt lat="47.689045" lon="2.0560224">
        <ele>165</ele>
        <time>2022-01-20T09:45:10Z</time>
      </trkpt>
      <trkpt lat="47.689053" lon="2.056017">
        <ele>165</ele>
        <time>2022-01-20T09:45:11Z</time>
      </trkpt>
      <trkpt lat="47.68906" lon="2.056011">
        <ele>166</ele>
        <time>2022-01-20T09:45:12Z</time>
      </trkpt>
      <trkpt lat="47.689068" lon="2.0560076">
        <ele>166</ele>
        <time>2022-01-20T09:45:13Z</time>
      </trkpt>
      <trkpt lat="47.68907" lon="2.055998">
        <ele>165</ele>
        <time>2022-01-20T09:45:14Z</time>
      </trkpt>
      <trkpt lat="47.68908" lon="2.0559795">
        <ele>165</ele>
        <time>2022-01-20T09:45:15Z</time>
      </trkpt>
      <trkpt lat="47.689095" lon="2.0559633">
        <ele>165</ele>
        <time>2022-01-20T09:45:16Z</time>
      </trkpt>
      <trkpt lat="47.689106" lon="2.0559516">
        <ele>164</ele>
        <time>2022-01-20T09:45:17Z</time>
      </trkpt>
      <trkpt lat="47.689117" lon="2.0559459">
        <ele>164</ele>
        <time>2022-01-20T09:45:18Z</time>
      </trkpt>
      <trkpt lat="47.689125" lon="2.055934">
        <ele>163</ele>
        <time>2022-01-20T09:45:19Z</time>
      </trkpt>
      <trkpt lat="47.689133" lon="2.0559185">
        <ele>163</ele>
        <time>2022-01-20T09:45:20Z</time>
      </trkpt>
      <trkpt lat="47.689144" lon="2.0559063">
        <ele>163</ele>
        <time>2022-01-20T09:45:21Z</time>
      </trkpt>
      <trkpt lat="47.689156" lon="2.0558949">
        <ele>163</ele>
        <time>2022-01-20T09:45:22Z</time>
      </trkpt>
      <trkpt lat="47.689163" lon="2.0558863">
        <ele>163</ele>
        <time>2022-01-20T09:45:23Z</time>
      </trkpt>
      <trkpt lat="47.689167" lon="2.0558836">
        <ele>163</ele>
        <time>2022-01-20T09:45:24Z</time>
      </trkpt>
      <trkpt lat="47.689167" lon="2.0558805">
        <ele>163</ele>
        <time>2022-01-20T09:45:25Z</time>
      </trkpt>
      <trkpt lat="47.689163" lon="2.0558686">
        <ele>163</ele>
        <time>2022-01-20T09:45:26Z</time>
      </trkpt>
      <trkpt lat="47.689167" lon="2.0558536">
        <ele>162</ele>
        <time>2022-01-20T09:45:27Z</time>
      </trkpt>
      <trkpt lat="47.689167" lon="2.0558429">
        <ele>162</ele>
        <time>2022-01-20T09:45:28Z</time>
      </trkpt>
      <trkpt lat="47.689167" lon="2.0558429">
        <ele>162</ele>
        <time>2022-01-20T09:45:29Z</time>
      </trkpt>
      <trkpt lat="47.689182" lon="2.0558293">
        <ele>162</ele>
        <time>2022-01-20T09:45:30Z</time>
      </trkpt>
      <trkpt lat="47.68919" lon="2.055816">
        <ele>162</ele>
        <time>2022-01-20T09:45:31Z</time>
      </trkpt>
      <trkpt lat="47.689198" lon="2.0558004">
        <ele>162</ele>
        <time>2022-01-20T09:45:32Z</time>
      </trkpt>
      <trkpt lat="47.68921" lon="2.0557828">
        <ele>161</ele>
        <time>2022-01-20T09:45:33Z</time>
      </trkpt>
      <trkpt lat="47.689217" lon="2.0557718">
        <ele>161</ele>
        <time>2022-01-20T09:45:34Z</time>
      </trkpt>
      <trkpt lat="47.689224" lon="2.0557628">
        <ele>161</ele>
        <time>2022-01-20T09:45:35Z</time>
      </trkpt>
      <trkpt lat="47.68924" lon="2.0557563">
        <ele>161</ele>
        <time>2022-01-20T09:45:36Z</time>
      </trkpt>
      <trkpt lat="47.68925" lon="2.0557446">
        <ele>161</ele>
        <time>2022-01-20T09:45:37Z</time>
      </trkpt>
      <trkpt lat="47.68926" lon="2.0557353">
        <ele>161</ele>
        <time>2022-01-20T09:45:38Z</time>
      </trkpt>
      <trkpt lat="47.68927" lon="2.0557241">
        <ele>161</ele>
        <time>2022-01-20T09:45:39Z</time>
      </trkpt>
      <trkpt lat="47.689274" lon="2.0557168">
        <ele>161</ele>
        <time>2022-01-20T09:45:40Z</time>
      </trkpt>
      <trkpt lat="47.68928" lon="2.055708">
        <ele>160</ele>
        <time>2022-01-20T09:45:41Z</time>
      </trkpt>
      <trkpt lat="47.68929" lon="2.0556965">
        <ele>160</ele>
        <time>2022-01-20T09:45:42Z</time>
      </trkpt>
      <trkpt lat="47.689297" lon="2.0556936">
        <ele>160</ele>
        <time>2022-01-20T09:45:43Z</time>
      </trkpt>
      <trkpt lat="47.6893" lon="2.0556846">
        <ele>159</ele>
        <time>2022-01-20T09:45:44Z</time>
      </trkpt>
      <trkpt lat="47.68931" lon="2.0556765">
        <ele>159</ele>
        <time>2022-01-20T09:45:45Z</time>
      </trkpt>
      <trkpt lat="47.68932" lon="2.0556712">
        <ele>159</ele>
        <time>2022-01-20T09:45:46Z</time>
      </trkpt>
      <trkpt lat="47.68933" lon="2.0556662">
        <ele>159</ele>
        <time>2022-01-20T09:45:47Z</time>
      </trkpt>
      <trkpt lat="47.689335" lon="2.05565">
        <ele>159</ele>
        <time>2022-01-20T09:45:48Z</time>
      </trkpt>
      <trkpt lat="47.689342" lon="2.0556476">
        <ele>159</ele>
        <time>2022-01-20T09:45:49Z</time>
      </trkpt>
      <trkpt lat="47.689354" lon="2.0556397">
        <ele>159</ele>
        <time>2022-01-20T09:45:50Z</time>
      </trkpt>
      <trkpt lat="47.68936" lon="2.05563">
        <ele>158</ele>
        <time>2022-01-20T09:45:51Z</time>
      </trkpt>
      <trkpt lat="47.689373" lon="2.055626">
        <ele>158</ele>
        <time>2022-01-20T09:45:52Z</time>
      </trkpt>
      <trkpt lat="47.68938" lon="2.055624">
        <ele>158</ele>
        <time>2022-01-20T09:45:53Z</time>
      </trkpt>
      <trkpt lat="47.689384" lon="2.0556176">
        <ele>158</ele>
        <time>2022-01-20T09:45:54Z</time>
      </trkpt>
      <trkpt lat="47.689384" lon="2.055615">
        <ele>159</ele>
        <time>2022-01-20T09:45:55Z</time>
      </trkpt>
      <trkpt lat="47.689384" lon="2.055615">
        <ele>159</ele>
        <time>2022-01-20T09:45:56Z</time>
      </trkpt>
      <trkpt lat="47.689384" lon="2.055615">
        <ele>159</ele>
        <time>2022-01-20T09:45:57Z</time>
      </trkpt>
      <trkpt lat="47.689407" lon="2.0556054">
        <ele>159</ele>
        <time>2022-01-20T09:45:58Z</time>
      </trkpt>
      <trkpt lat="47.689415" lon="2.0556006">
        <ele>159</ele>
        <time>2022-01-20T09:45:59Z</time>
      </trkpt>
      <trkpt lat="47.68942" lon="2.055593">
        <ele>158</ele>
        <time>2022-01-20T09:46:00Z</time>
      </trkpt>
      <trkpt lat="47.689426" lon="2.0555844">
        <ele>158</ele>
        <time>2022-01-20T09:46:01Z</time>
      </trkpt>
      <trkpt lat="47.689426" lon="2.0555844">
        <ele>158</ele>
        <time>2022-01-20T09:46:02Z</time>
      </trkpt>
      <trkpt lat="47.68944" lon="2.055567">
        <ele>158</ele>
        <time>2022-01-20T09:46:03Z</time>
      </trkpt>
      <trkpt lat="47.689453" lon="2.0555525">
        <ele>158</ele>
        <time>2022-01-20T09:46:04Z</time>
      </trkpt>
      <trkpt lat="47.689465" lon="2.0555472">
        <ele>158</ele>
        <time>2022-01-20T09:46:05Z</time>
      </trkpt>
      <trkpt lat="47.689472" lon="2.0555391">
        <ele>158</ele>
        <time>2022-01-20T09:46:06Z</time>
      </trkpt>
      <trkpt lat="47.689484" lon="2.0555341">
        <ele>158</ele>
        <time>2022-01-20T09:46:07Z</time>
      </trkpt>
      <trkpt lat="47.689495" lon="2.055533">
        <ele>158</ele>
        <time>2022-01-20T09:46:08Z</time>
      </trkpt>
      <trkpt lat="47.689507" lon="2.055537">
        <ele>158</ele>
        <time>2022-01-20T09:46:09Z</time>
      </trkpt>
      <trkpt lat="47.689518" lon="2.0555315">
        <ele>158</ele>
        <time>2022-01-20T09:46:10Z</time>
      </trkpt>
      <trkpt lat="47.68953" lon="2.0555234">
        <ele>158</ele>
        <time>2022-01-20T09:46:11Z</time>
      </trkpt>
      <trkpt lat="47.689537" lon="2.0555103">
        <ele>158</ele>
        <time>2022-01-20T09:46:12Z</time>
      </trkpt>
      <trkpt lat="47.68955" lon="2.0554998">
        <ele>158</ele>
        <time>2022-01-20T09:46:13Z</time>
      </trkpt>
      <trkpt lat="47.689556" lon="2.055485">
        <ele>158</ele>
        <time>2022-01-20T09:46:14Z</time>
      </trkpt>
      <trkpt lat="47.689568" lon="2.05547">
        <ele>158</ele>
        <time>2022-01-20T09:46:15Z</time>
      </trkpt>
      <trkpt lat="47.68958" lon="2.0554605">
        <ele>158</ele>
        <time>2022-01-20T09:46:16Z</time>
      </trkpt>
      <trkpt lat="47.689594" lon="2.0554473">
        <ele>159</ele>
        <time>2022-01-20T09:46:17Z</time>
      </trkpt>
      <trkpt lat="47.6896" lon="2.0554373">
        <ele>159</ele>
        <time>2022-01-20T09:46:18Z</time>
      </trkpt>
      <trkpt lat="47.689613" lon="2.0554335">
        <ele>159</ele>
        <time>2022-01-20T09:46:19Z</time>
      </trkpt>
      <trkpt lat="47.689625" lon="2.0554287">
        <ele>159</ele>
        <time>2022-01-20T09:46:20Z</time>
      </trkpt>
      <trkpt lat="47.689636" lon="2.0554283">
        <ele>160</ele>
        <time>2022-01-20T09:46:21Z</time>
      </trkpt>
      <trkpt lat="47.689648" lon="2.0554233">
        <ele>160</ele>
        <time>2022-01-20T09:46:22Z</time>
      </trkpt>
      <trkpt lat="47.689663" lon="2.0554183">
        <ele>160</ele>
        <time>2022-01-20T09:46:23Z</time>
      </trkpt>
      <trkpt lat="47.68968" lon="2.055415">
        <ele>161</ele>
        <time>2022-01-20T09:46:24Z</time>
      </trkpt>
      <trkpt lat="47.689686" lon="2.055412">
        <ele>161</ele>
        <time>2022-01-20T09:46:25Z</time>
      </trkpt>
      <trkpt lat="47.6897" lon="2.0553982">
        <ele>161</ele>
        <time>2022-01-20T09:46:26Z</time>
      </trkpt>
      <trkpt lat="47.68971" lon="2.0553951">
        <ele>162</ele>
        <time>2022-01-20T09:46:27Z</time>
      </trkpt>
      <trkpt lat="47.68972" lon="2.0553885">
        <ele>161</ele>
        <time>2022-01-20T09:46:28Z</time>
      </trkpt>
      <trkpt lat="47.689735" lon="2.055379">
        <ele>161</ele>
        <time>2022-01-20T09:46:29Z</time>
      </trkpt>
      <trkpt lat="47.689747" lon="2.0553713">
        <ele>161</ele>
        <time>2022-01-20T09:46:30Z</time>
      </trkpt>
      <trkpt lat="47.689762" lon="2.0553694">
        <ele>161</ele>
        <time>2022-01-20T09:46:31Z</time>
      </trkpt>
      <trkpt lat="47.689777" lon="2.0553653">
        <ele>162</ele>
        <time>2022-01-20T09:46:32Z</time>
      </trkpt>
      <trkpt lat="47.68979" lon="2.055364">
        <ele>162</ele>
        <time>2022-01-20T09:46:33Z</time>
      </trkpt>
      <trkpt lat="47.689804" lon="2.0553603">
        <ele>163</ele>
        <time>2022-01-20T09:46:34Z</time>
      </trkpt>
      <trkpt lat="47.68982" lon="2.055359">
        <ele>163</ele>
        <time>2022-01-20T09:46:35Z</time>
      </trkpt>
      <trkpt lat="47.68984" lon="2.0553563">
        <ele>163</ele>
        <time>2022-01-20T09:46:36Z</time>
      </trkpt>
      <trkpt lat="47.68985" lon="2.055349">
        <ele>163</ele>
        <time>2022-01-20T09:46:37Z</time>
      </trkpt>
      <trkpt lat="47.689857" lon="2.0553358">
        <ele>163</ele>
        <time>2022-01-20T09:46:38Z</time>
      </trkpt>
      <trkpt lat="47.68987" lon="2.055323">
        <ele>163</ele>
        <time>2022-01-20T09:46:39Z</time>
      </trkpt>
      <trkpt lat="47.689877" lon="2.0553117">
        <ele>163</ele>
        <time>2022-01-20T09:46:40Z</time>
      </trkpt>
      <trkpt lat="47.689884" lon="2.055296">
        <ele>163</ele>
        <time>2022-01-20T09:46:41Z</time>
      </trkpt>
      <trkpt lat="47.68989" lon="2.0552816">
        <ele>163</ele>
        <time>2022-01-20T09:46:42Z</time>
      </trkpt>
      <trkpt lat="47.6899" lon="2.0552785">
        <ele>163</ele>
        <time>2022-01-20T09:46:43Z</time>
      </trkpt>
      <trkpt lat="47.68991" lon="2.0552754">
        <ele>162</ele>
        <time>2022-01-20T09:46:44Z</time>
      </trkpt>
      <trkpt lat="47.689922" lon="2.0552688">
        <ele>162</ele>
        <time>2022-01-20T09:46:45Z</time>
      </trkpt>
      <trkpt lat="47.689934" lon="2.0552645">
        <ele>162</ele>
        <time>2022-01-20T09:46:46Z</time>
      </trkpt>
      <trkpt lat="47.68994" lon="2.0552554">
        <ele>162</ele>
        <time>2022-01-20T09:46:47Z</time>
      </trkpt>
      <trkpt lat="47.68995" lon="2.0552437">
        <ele>162</ele>
        <time>2022-01-20T09:46:48Z</time>
      </trkpt>
      <trkpt lat="47.68996" lon="2.055235">
        <ele>162</ele>
        <time>2022-01-20T09:46:49Z</time>
      </trkpt>
      <trkpt lat="47.689972" lon="2.0552227">
        <ele>161</ele>
        <time>2022-01-20T09:46:50Z</time>
      </trkpt>
      <trkpt lat="47.689983" lon="2.0552142">
        <ele>161</ele>
        <time>2022-01-20T09:46:51Z</time>
      </trkpt>
      <trkpt lat="47.689995" lon="2.0552042">
        <ele>161</ele>
        <time>2022-01-20T09:46:52Z</time>
      </trkpt>
      <trkpt lat="47.690006" lon="2.055193">
        <ele>162</ele>
        <time>2022-01-20T09:46:53Z</time>
      </trkpt>
      <trkpt lat="47.690025" lon="2.0551841">
        <ele>162</ele>
        <time>2022-01-20T09:46:54Z</time>
      </trkpt>
      <trkpt lat="47.690037" lon="2.0551763">
        <ele>162</ele>
        <time>2022-01-20T09:46:55Z</time>
      </trkpt>
      <trkpt lat="47.690052" lon="2.0551717">
        <ele>162</ele>
        <time>2022-01-20T09:46:56Z</time>
      </trkpt>
      <trkpt lat="47.690063" lon="2.055167">
        <ele>162</ele>
        <time>2022-01-20T09:46:57Z</time>
      </trkpt>
      <trkpt lat="47.690075" lon="2.0551608">
        <ele>162</ele>
        <time>2022-01-20T09:46:58Z</time>
      </trkpt>
      <trkpt lat="47.690083" lon="2.0551534">
        <ele>162</ele>
        <time>2022-01-20T09:46:59Z</time>
      </trkpt>
      <trkpt lat="47.690094" lon="2.0551484">
        <ele>162</ele>
        <time>2022-01-20T09:47:00Z</time>
      </trkpt>
      <trkpt lat="47.690105" lon="2.0551379">
        <ele>162</ele>
        <time>2022-01-20T09:47:01Z</time>
      </trkpt>
      <trkpt lat="47.690117" lon="2.0551248">
        <ele>162</ele>
        <time>2022-01-20T09:47:02Z</time>
      </trkpt>
      <trkpt lat="47.69013" lon="2.05511">
        <ele>162</ele>
        <time>2022-01-20T09:47:03Z</time>
      </trkpt>
      <trkpt lat="47.690136" lon="2.0550916">
        <ele>162</ele>
        <time>2022-01-20T09:47:04Z</time>
      </trkpt>
      <trkpt lat="47.690147" lon="2.0550807">
        <ele>162</ele>
        <time>2022-01-20T09:47:05Z</time>
      </trkpt>
      <trkpt lat="47.69016" lon="2.0550692">
        <ele>163</ele>
        <time>2022-01-20T09:47:06Z</time>
      </trkpt>
      <trkpt lat="47.69017" lon="2.055058">
        <ele>163</ele>
        <time>2022-01-20T09:47:07Z</time>
      </trkpt>
      <trkpt lat="47.690178" lon="2.0550447">
        <ele>163</ele>
        <time>2022-01-20T09:47:08Z</time>
      </trkpt>
      <trkpt lat="47.690186" lon="2.0550287">
        <ele>162</ele>
        <time>2022-01-20T09:47:09Z</time>
      </trkpt>
      <trkpt lat="47.690197" lon="2.0550184">
        <ele>162</ele>
        <time>2022-01-20T09:47:10Z</time>
      </trkpt>
      <trkpt lat="47.690205" lon="2.0550034">
        <ele>162</ele>
        <time>2022-01-20T09:47:11Z</time>
      </trkpt>
      <trkpt lat="47.690216" lon="2.0549958">
        <ele>162</ele>
        <time>2022-01-20T09:47:12Z</time>
      </trkpt>
      <trkpt lat="47.690228" lon="2.0549893">
        <ele>163</ele>
        <time>2022-01-20T09:47:13Z</time>
      </trkpt>
      <trkpt lat="47.69024" lon="2.0549822">
        <ele>163</ele>
        <time>2022-01-20T09:47:14Z</time>
      </trkpt>
      <trkpt lat="47.690247" lon="2.0549722">
        <ele>163</ele>
        <time>2022-01-20T09:47:15Z</time>
      </trkpt>
      <trkpt lat="47.690254" lon="2.0549574">
        <ele>162</ele>
        <time>2022-01-20T09:47:16Z</time>
      </trkpt>
      <trkpt lat="47.69026" lon="2.054946">
        <ele>163</ele>
        <time>2022-01-20T09:47:17Z</time>
      </trkpt>
      <trkpt lat="47.690273" lon="2.0549297">
        <ele>163</ele>
        <time>2022-01-20T09:47:18Z</time>
      </trkpt>
      <trkpt lat="47.69028" lon="2.0549185">
        <ele>163</ele>
        <time>2022-01-20T09:47:19Z</time>
      </trkpt>
      <trkpt lat="47.69029" lon="2.0549018">
        <ele>163</ele>
        <time>2022-01-20T09:47:20Z</time>
      </trkpt>
      <trkpt lat="47.690296" lon="2.054889">
        <ele>163</ele>
        <time>2022-01-20T09:47:21Z</time>
      </trkpt>
      <trkpt lat="47.690308" lon="2.0548778">
        <ele>163</ele>
        <time>2022-01-20T09:47:22Z</time>
      </trkpt>
      <trkpt lat="47.690315" lon="2.0548627">
        <ele>163</ele>
        <time>2022-01-20T09:47:23Z</time>
      </trkpt>
      <trkpt lat="47.690323" lon="2.0548432">
        <ele>164</ele>
        <time>2022-01-20T09:47:24Z</time>
      </trkpt>
      <trkpt lat="47.69033" lon="2.0548258">
        <ele>164</ele>
        <time>2022-01-20T09:47:25Z</time>
      </trkpt>
      <trkpt lat="47.69034" lon="2.0548043">
        <ele>165</ele>
        <time>2022-01-20T09:47:26Z</time>
      </trkpt>
      <trkpt lat="47.690346" lon="2.0547893">
        <ele>165</ele>
        <time>2022-01-20T09:47:27Z</time>
      </trkpt>
      <trkpt lat="47.69035" lon="2.0547745">
        <ele>165</ele>
        <time>2022-01-20T09:47:28Z</time>
      </trkpt>
      <trkpt lat="47.690357" lon="2.0547602">
        <ele>165</ele>
        <time>2022-01-20T09:47:29Z</time>
      </trkpt>
      <trkpt lat="47.690365" lon="2.0547485">
        <ele>165</ele>
        <time>2022-01-20T09:47:30Z</time>
      </trkpt>
      <trkpt lat="47.690372" lon="2.0547357">
        <ele>165</ele>
        <time>2022-01-20T09:47:31Z</time>
      </trkpt>
      <trkpt lat="47.690384" lon="2.0547245">
        <ele>165</ele>
        <time>2022-01-20T09:47:32Z</time>
      </trkpt>
      <trkpt lat="47.69039" lon="2.0547109">
        <ele>164</ele>
        <time>2022-01-20T09:47:33Z</time>
      </trkpt>
      <trkpt lat="47.6904" lon="2.054696">
        <ele>164</ele>
        <time>2022-01-20T09:47:34Z</time>
      </trkpt>
      <trkpt lat="47.690407" lon="2.0546803">
        <ele>164</ele>
        <time>2022-01-20T09:47:35Z</time>
      </trkpt>
      <trkpt lat="47.69042" lon="2.0546656">
        <ele>164</ele>
        <time>2022-01-20T09:47:36Z</time>
      </trkpt>
      <trkpt lat="47.690426" lon="2.0546517">
        <ele>164</ele>
        <time>2022-01-20T09:47:37Z</time>
      </trkpt>
      <trkpt lat="47.690434" lon="2.0546439">
        <ele>164</ele>
        <time>2022-01-20T09:47:38Z</time>
      </trkpt>
      <trkpt lat="47.690445" lon="2.0546317">
        <ele>164</ele>
        <time>2022-01-20T09:47:39Z</time>
      </trkpt>
      <trkpt lat="47.690453" lon="2.0546181">
        <ele>164</ele>
        <time>2022-01-20T09:47:40Z</time>
      </trkpt>
      <trkpt lat="47.69046" lon="2.0546072">
        <ele>163</ele>
        <time>2022-01-20T09:47:41Z</time>
      </trkpt>
      <trkpt lat="47.69047" lon="2.0545962">
        <ele>163</ele>
        <time>2022-01-20T09:47:42Z</time>
      </trkpt>
      <trkpt lat="47.69048" lon="2.0545871">
        <ele>164</ele>
        <time>2022-01-20T09:47:43Z</time>
      </trkpt>
      <trkpt lat="47.69049" lon="2.0545826">
        <ele>163</ele>
        <time>2022-01-20T09:47:44Z</time>
      </trkpt>
      <trkpt lat="47.690495" lon="2.0545685">
        <ele>163</ele>
        <time>2022-01-20T09:47:45Z</time>
      </trkpt>
      <trkpt lat="47.690506" lon="2.054562">
        <ele>163</ele>
        <time>2022-01-20T09:47:46Z</time>
      </trkpt>
      <trkpt lat="47.69051" lon="2.0545473">
        <ele>163</ele>
        <time>2022-01-20T09:47:47Z</time>
      </trkpt>
      <trkpt lat="47.690514" lon="2.0545323">
        <ele>163</ele>
        <time>2022-01-20T09:47:48Z</time>
      </trkpt>
      <trkpt lat="47.690517" lon="2.054517">
        <ele>163</ele>
        <time>2022-01-20T09:47:49Z</time>
      </trkpt>
      <trkpt lat="47.690525" lon="2.0545087">
        <ele>163</ele>
        <time>2022-01-20T09:47:50Z</time>
      </trkpt>
      <trkpt lat="47.690533" lon="2.0544953">
        <ele>163</ele>
        <time>2022-01-20T09:47:51Z</time>
      </trkpt>
      <trkpt lat="47.690544" lon="2.0544841">
        <ele>162</ele>
        <time>2022-01-20T09:47:52Z</time>
      </trkpt>
      <trkpt lat="47.69056" lon="2.054473">
        <ele>163</ele>
        <time>2022-01-20T09:47:53Z</time>
      </trkpt>
      <trkpt lat="47.69057" lon="2.0544598">
        <ele>162</ele>
        <time>2022-01-20T09:47:54Z</time>
      </trkpt>
      <trkpt lat="47.690582" lon="2.054449">
        <ele>162</ele>
        <time>2022-01-20T09:47:55Z</time>
      </trkpt>
      <trkpt lat="47.690594" lon="2.0544307">
        <ele>162</ele>
        <time>2022-01-20T09:47:56Z</time>
      </trkpt>
      <trkpt lat="47.6906" lon="2.0544143">
        <ele>162</ele>
        <time>2022-01-20T09:47:57Z</time>
      </trkpt>
      <trkpt lat="47.69061" lon="2.0544">
        <ele>162</ele>
        <time>2022-01-20T09:47:58Z</time>
      </trkpt>
      <trkpt lat="47.69062" lon="2.0543945">
        <ele>163</ele>
        <time>2022-01-20T09:47:59Z</time>
      </trkpt>
      <trkpt lat="47.690628" lon="2.054388">
        <ele>163</ele>
        <time>2022-01-20T09:48:00Z</time>
      </trkpt>
      <trkpt lat="47.69064" lon="2.0543773">
        <ele>163</ele>
        <time>2022-01-20T09:48:01Z</time>
      </trkpt>
      <trkpt lat="47.690647" lon="2.054368">
        <ele>163</ele>
        <time>2022-01-20T09:48:02Z</time>
      </trkpt>
      <trkpt lat="47.690655" lon="2.054361">
        <ele>163</ele>
        <time>2022-01-20T09:48:03Z</time>
      </trkpt>
      <trkpt lat="47.690662" lon="2.0543485">
        <ele>163</ele>
        <time>2022-01-20T09:48:04Z</time>
      </trkpt>
      <trkpt lat="47.69067" lon="2.0543344">
        <ele>163</ele>
        <time>2022-01-20T09:48:05Z</time>
      </trkpt>
      <trkpt lat="47.690678" lon="2.054321">
        <ele>163</ele>
        <time>2022-01-20T09:48:06Z</time>
      </trkpt>
      <trkpt lat="47.690685" lon="2.0543075">
        <ele>163</ele>
        <time>2022-01-20T09:48:07Z</time>
      </trkpt>
      <trkpt lat="47.69069" lon="2.054294">
        <ele>164</ele>
        <time>2022-01-20T09:48:08Z</time>
      </trkpt>
      <trkpt lat="47.690697" lon="2.054282">
        <ele>164</ele>
        <time>2022-01-20T09:48:09Z</time>
      </trkpt>
      <trkpt lat="47.690704" lon="2.0542724">
        <ele>164</ele>
        <time>2022-01-20T09:48:10Z</time>
      </trkpt>
      <trkpt lat="47.690712" lon="2.0542564">
        <ele>164</ele>
        <time>2022-01-20T09:48:11Z</time>
      </trkpt>
      <trkpt lat="47.690723" lon="2.0542433">
        <ele>165</ele>
        <time>2022-01-20T09:48:12Z</time>
      </trkpt>
      <trkpt lat="47.69073" lon="2.0542293">
        <ele>165</ele>
        <time>2022-01-20T09:48:13Z</time>
      </trkpt>
      <trkpt lat="47.690742" lon="2.0542192">
        <ele>165</ele>
        <time>2022-01-20T09:48:14Z</time>
      </trkpt>
      <trkpt lat="47.69075" lon="2.0542061">
        <ele>165</ele>
        <time>2022-01-20T09:48:15Z</time>
      </trkpt>
      <trkpt lat="47.690754" lon="2.0541956">
        <ele>165</ele>
        <time>2022-01-20T09:48:16Z</time>
      </trkpt>
      <trkpt lat="47.69076" lon="2.0541847">
        <ele>165</ele>
        <time>2022-01-20T09:48:17Z</time>
      </trkpt>
      <trkpt lat="47.69077" lon="2.0541697">
        <ele>165</ele>
        <time>2022-01-20T09:48:18Z</time>
      </trkpt>
      <trkpt lat="47.690777" lon="2.054155">
        <ele>165</ele>
        <time>2022-01-20T09:48:19Z</time>
      </trkpt>
      <trkpt lat="47.690784" lon="2.054145">
        <ele>166</ele>
        <time>2022-01-20T09:48:20Z</time>
      </trkpt>
      <trkpt lat="47.690792" lon="2.0541334">
        <ele>166</ele>
        <time>2022-01-20T09:48:21Z</time>
      </trkpt>
      <trkpt lat="47.690804" lon="2.0541246">
        <ele>166</ele>
        <time>2022-01-20T09:48:22Z</time>
      </trkpt>
      <trkpt lat="47.69081" lon="2.0541143">
        <ele>166</ele>
        <time>2022-01-20T09:48:23Z</time>
      </trkpt>
      <trkpt lat="47.69082" lon="2.054106">
        <ele>166</ele>
        <time>2022-01-20T09:48:24Z</time>
      </trkpt>
      <trkpt lat="47.690823" lon="2.0540912">
        <ele>166</ele>
        <time>2022-01-20T09:48:25Z</time>
      </trkpt>
      <trkpt lat="47.69083" lon="2.0540771">
        <ele>166</ele>
        <time>2022-01-20T09:48:26Z</time>
      </trkpt>
      <trkpt lat="47.690838" lon="2.0540657">
        <ele>166</ele>
        <time>2022-01-20T09:48:27Z</time>
      </trkpt>
      <trkpt lat="47.690845" lon="2.0540576">
        <ele>166</ele>
        <time>2022-01-20T09:48:28Z</time>
      </trkpt>
      <trkpt lat="47.690853" lon="2.0540495">
        <ele>166</ele>
        <time>2022-01-20T09:48:29Z</time>
      </trkpt>
      <trkpt lat="47.690857" lon="2.0540414">
        <ele>166</ele>
        <time>2022-01-20T09:48:30Z</time>
      </trkpt>
      <trkpt lat="47.690865" lon="2.0540283">
        <ele>166</ele>
        <time>2022-01-20T09:48:31Z</time>
      </trkpt>
      <trkpt lat="47.69087" lon="2.0540159">
        <ele>166</ele>
        <time>2022-01-20T09:48:32Z</time>
      </trkpt>
      <trkpt lat="47.69088" lon="2.054005">
        <ele>166</ele>
        <time>2022-01-20T09:48:33Z</time>
      </trkpt>
      <trkpt lat="47.690887" lon="2.0539932">
        <ele>166</ele>
        <time>2022-01-20T09:48:34Z</time>
      </trkpt>
      <trkpt lat="47.6909" lon="2.0539827">
        <ele>166</ele>
        <time>2022-01-20T09:48:35Z</time>
      </trkpt>
      <trkpt lat="47.69091" lon="2.0539706">
        <ele>166</ele>
        <time>2022-01-20T09:48:36Z</time>
      </trkpt>
      <trkpt lat="47.690918" lon="2.0539565">
        <ele>166</ele>
        <time>2022-01-20T09:48:37Z</time>
      </trkpt>
      <trkpt lat="47.690926" lon="2.0539455">
        <ele>166</ele>
        <time>2022-01-20T09:48:38Z</time>
      </trkpt>
      <trkpt lat="47.69093" lon="2.0539346">
        <ele>166</ele>
        <time>2022-01-20T09:48:39Z</time>
      </trkpt>
      <trkpt lat="47.690937" lon="2.053928">
        <ele>166</ele>
        <time>2022-01-20T09:48:40Z</time>
      </trkpt>
      <trkpt lat="47.690945" lon="2.0539253">
        <ele>166</ele>
        <time>2022-01-20T09:48:41Z</time>
      </trkpt>
      <trkpt lat="47.690952" lon="2.053911">
        <ele>166</ele>
        <time>2022-01-20T09:48:42Z</time>
      </trkpt>
      <trkpt lat="47.69096" lon="2.053906">
        <ele>166</ele>
        <time>2022-01-20T09:48:43Z</time>
      </trkpt>
      <trkpt lat="47.690968" lon="2.0538898">
        <ele>166</ele>
        <time>2022-01-20T09:48:44Z</time>
      </trkpt>
      <trkpt lat="47.690975" lon="2.0538802">
        <ele>166</ele>
        <time>2022-01-20T09:48:45Z</time>
      </trkpt>
      <trkpt lat="47.690983" lon="2.0538676">
        <ele>166</ele>
        <time>2022-01-20T09:48:46Z</time>
      </trkpt>
      <trkpt lat="47.690987" lon="2.0538552">
        <ele>165</ele>
        <time>2022-01-20T09:48:47Z</time>
      </trkpt>
      <trkpt lat="47.690998" lon="2.0538454">
        <ele>165</ele>
        <time>2022-01-20T09:48:48Z</time>
      </trkpt>
      <trkpt lat="47.691" lon="2.053833">
        <ele>165</ele>
        <time>2022-01-20T09:48:49Z</time>
      </trkpt>
      <trkpt lat="47.691006" lon="2.0538228">
        <ele>165</ele>
        <time>2022-01-20T09:48:50Z</time>
      </trkpt>
      <trkpt lat="47.69101" lon="2.053806">
        <ele>165</ele>
        <time>2022-01-20T09:48:51Z</time>
      </trkpt>
      <trkpt lat="47.691017" lon="2.0537894">
        <ele>165</ele>
        <time>2022-01-20T09:48:52Z</time>
      </trkpt>
      <trkpt lat="47.691025" lon="2.053773">
        <ele>165</ele>
        <time>2022-01-20T09:48:53Z</time>
      </trkpt>
      <trkpt lat="47.691032" lon="2.0537615">
        <ele>164</ele>
        <time>2022-01-20T09:48:54Z</time>
      </trkpt>
      <trkpt lat="47.691036" lon="2.053751">
        <ele>164</ele>
        <time>2022-01-20T09:48:55Z</time>
      </trkpt>
      <trkpt lat="47.691044" lon="2.0537407">
        <ele>164</ele>
        <time>2022-01-20T09:48:56Z</time>
      </trkpt>
      <trkpt lat="47.691055" lon="2.0537324">
        <ele>164</ele>
        <time>2022-01-20T09:48:57Z</time>
      </trkpt>
      <trkpt lat="47.691063" lon="2.0537217">
        <ele>164</ele>
        <time>2022-01-20T09:48:58Z</time>
      </trkpt>
      <trkpt lat="47.691067" lon="2.0537105">
        <ele>165</ele>
        <time>2022-01-20T09:48:59Z</time>
      </trkpt>
      <trkpt lat="47.69108" lon="2.0537">
        <ele>165</ele>
        <time>2022-01-20T09:49:00Z</time>
      </trkpt>
      <trkpt lat="47.69109" lon="2.0536883">
        <ele>165</ele>
        <time>2022-01-20T09:49:01Z</time>
      </trkpt>
      <trkpt lat="47.691097" lon="2.0536742">
        <ele>164</ele>
        <time>2022-01-20T09:49:02Z</time>
      </trkpt>
      <trkpt lat="47.691105" lon="2.0536697">
        <ele>164</ele>
        <time>2022-01-20T09:49:03Z</time>
      </trkpt>
      <trkpt lat="47.691113" lon="2.053665">
        <ele>164</ele>
        <time>2022-01-20T09:49:04Z</time>
      </trkpt>
      <trkpt lat="47.69112" lon="2.0536547">
        <ele>165</ele>
        <time>2022-01-20T09:49:05Z</time>
      </trkpt>
      <trkpt lat="47.691128" lon="2.0536535">
        <ele>164</ele>
        <time>2022-01-20T09:49:06Z</time>
      </trkpt>
      <trkpt lat="47.69114" lon="2.0536468">
        <ele>164</ele>
        <time>2022-01-20T09:49:07Z</time>
      </trkpt>
      <trkpt lat="47.69115" lon="2.053636">
        <ele>164</ele>
        <time>2022-01-20T09:49:08Z</time>
      </trkpt>
      <trkpt lat="47.691162" lon="2.0536292">
        <ele>164</ele>
        <time>2022-01-20T09:49:09Z</time>
      </trkpt>
      <trkpt lat="47.69117" lon="2.05362">
        <ele>164</ele>
        <time>2022-01-20T09:49:10Z</time>
      </trkpt>
      <trkpt lat="47.69118" lon="2.053607">
        <ele>164</ele>
        <time>2022-01-20T09:49:11Z</time>
      </trkpt>
      <trkpt lat="47.69119" lon="2.0535998">
        <ele>164</ele>
        <time>2022-01-20T09:49:12Z</time>
      </trkpt>
      <trkpt lat="47.691196" lon="2.0535855">
        <ele>163</ele>
        <time>2022-01-20T09:49:13Z</time>
      </trkpt>
      <trkpt lat="47.691204" lon="2.0535755">
        <ele>163</ele>
        <time>2022-01-20T09:49:14Z</time>
      </trkpt>
      <trkpt lat="47.691216" lon="2.0535655">
        <ele>163</ele>
        <time>2022-01-20T09:49:15Z</time>
      </trkpt>
      <trkpt lat="47.691223" lon="2.053553">
        <ele>163</ele>
        <time>2022-01-20T09:49:16Z</time>
      </trkpt>
      <trkpt lat="47.69123" lon="2.053545">
        <ele>163</ele>
        <time>2022-01-20T09:49:17Z</time>
      </trkpt>
      <trkpt lat="47.69124" lon="2.0535383">
        <ele>163</ele>
        <time>2022-01-20T09:49:18Z</time>
      </trkpt>
      <trkpt lat="47.691242" lon="2.0535326">
        <ele>163</ele>
        <time>2022-01-20T09:49:19Z</time>
      </trkpt>
      <trkpt lat="47.69125" lon="2.0535195">
        <ele>164</ele>
        <time>2022-01-20T09:49:20Z</time>
      </trkpt>
      <trkpt lat="47.69126" lon="2.0535107">
        <ele>163</ele>
        <time>2022-01-20T09:49:21Z</time>
      </trkpt>
      <trkpt lat="47.691273" lon="2.0535">
        <ele>163</ele>
        <time>2022-01-20T09:49:22Z</time>
      </trkpt>
      <trkpt lat="47.691284" lon="2.0534909">
        <ele>163</ele>
        <time>2022-01-20T09:49:23Z</time>
      </trkpt>
      <trkpt lat="47.69129" lon="2.0534852">
        <ele>163</ele>
        <time>2022-01-20T09:49:24Z</time>
      </trkpt>
      <trkpt lat="47.691296" lon="2.0534832">
        <ele>163</ele>
        <time>2022-01-20T09:49:25Z</time>
      </trkpt>
      <trkpt lat="47.691303" lon="2.0534797">
        <ele>163</ele>
        <time>2022-01-20T09:49:26Z</time>
      </trkpt>
      <trkpt lat="47.691315" lon="2.0534713">
        <ele>163</ele>
        <time>2022-01-20T09:49:27Z</time>
      </trkpt>
      <trkpt lat="47.691326" lon="2.0534554">
        <ele>163</ele>
        <time>2022-01-20T09:49:28Z</time>
      </trkpt>
      <trkpt lat="47.69133" lon="2.0534456">
        <ele>163</ele>
        <time>2022-01-20T09:49:29Z</time>
      </trkpt>
      <trkpt lat="47.691334" lon="2.053436">
        <ele>163</ele>
        <time>2022-01-20T09:49:30Z</time>
      </trkpt>
      <trkpt lat="47.69134" lon="2.0534272">
        <ele>163</ele>
        <time>2022-01-20T09:49:31Z</time>
      </trkpt>
      <trkpt lat="47.691357" lon="2.0534163">
        <ele>163</ele>
        <time>2022-01-20T09:49:32Z</time>
      </trkpt>
      <trkpt lat="47.691372" lon="2.0534081">
        <ele>163</ele>
        <time>2022-01-20T09:49:33Z</time>
      </trkpt>
      <trkpt lat="47.691383" lon="2.0534017">
        <ele>163</ele>
        <time>2022-01-20T09:49:34Z</time>
      </trkpt>
      <trkpt lat="47.69139" lon="2.053393">
        <ele>163</ele>
        <time>2022-01-20T09:49:35Z</time>
      </trkpt>
      <trkpt lat="47.691406" lon="2.0533853">
        <ele>162</ele>
        <time>2022-01-20T09:49:36Z</time>
      </trkpt>
      <trkpt lat="47.691414" lon="2.053377">
        <ele>162</ele>
        <time>2022-01-20T09:49:37Z</time>
      </trkpt>
      <trkpt lat="47.691425" lon="2.053374">
        <ele>163</ele>
        <time>2022-01-20T09:49:38Z</time>
      </trkpt>
      <trkpt lat="47.691433" lon="2.0533688">
        <ele>163</ele>
        <time>2022-01-20T09:49:39Z</time>
      </trkpt>
      <trkpt lat="47.691444" lon="2.053353">
        <ele>163</ele>
        <time>2022-01-20T09:49:40Z</time>
      </trkpt>
      <trkpt lat="47.69145" lon="2.053339">
        <ele>163</ele>
        <time>2022-01-20T09:49:41Z</time>
      </trkpt>
      <trkpt lat="47.691456" lon="2.053329">
        <ele>163</ele>
        <time>2022-01-20T09:49:42Z</time>
      </trkpt>
      <trkpt lat="47.691467" lon="2.0533113">
        <ele>163</ele>
        <time>2022-01-20T09:49:43Z</time>
      </trkpt>
      <trkpt lat="47.691475" lon="2.0532982">
        <ele>163</ele>
        <time>2022-01-20T09:49:44Z</time>
      </trkpt>
      <trkpt lat="47.691483" lon="2.05328">
        <ele>163</ele>
        <time>2022-01-20T09:49:45Z</time>
      </trkpt>
      <trkpt lat="47.69149" lon="2.0532703">
        <ele>163</ele>
        <time>2022-01-20T09:49:46Z</time>
      </trkpt>
      <trkpt lat="47.691494" lon="2.0532603">
        <ele>163</ele>
        <time>2022-01-20T09:49:47Z</time>
      </trkpt>
      <trkpt lat="47.6915" lon="2.0532515">
        <ele>163</ele>
        <time>2022-01-20T09:49:48Z</time>
      </trkpt>
      <trkpt lat="47.691513" lon="2.0532413">
        <ele>163</ele>
        <time>2022-01-20T09:49:49Z</time>
      </trkpt>
      <trkpt lat="47.69152" lon="2.053232">
        <ele>163</ele>
        <time>2022-01-20T09:49:50Z</time>
      </trkpt>
      <trkpt lat="47.69153" lon="2.0532198">
        <ele>163</ele>
        <time>2022-01-20T09:49:51Z</time>
      </trkpt>
      <trkpt lat="47.69154" lon="2.0532086">
        <ele>163</ele>
        <time>2022-01-20T09:49:52Z</time>
      </trkpt>
      <trkpt lat="47.69155" lon="2.0532002">
        <ele>162</ele>
        <time>2022-01-20T09:49:53Z</time>
      </trkpt>
      <trkpt lat="47.691563" lon="2.0531836">
        <ele>162</ele>
        <time>2022-01-20T09:49:54Z</time>
      </trkpt>
      <trkpt lat="47.691578" lon="2.0531702">
        <ele>161</ele>
        <time>2022-01-20T09:49:55Z</time>
      </trkpt>
      <trkpt lat="47.69159" lon="2.0531626">
        <ele>161</ele>
        <time>2022-01-20T09:49:56Z</time>
      </trkpt>
      <trkpt lat="47.6916" lon="2.0531466">
        <ele>161</ele>
        <time>2022-01-20T09:49:57Z</time>
      </trkpt>
      <trkpt lat="47.69161" lon="2.0531402">
        <ele>161</ele>
        <time>2022-01-20T09:49:58Z</time>
      </trkpt>
      <trkpt lat="47.69162" lon="2.0531387">
        <ele>161</ele>
        <time>2022-01-20T09:49:59Z</time>
      </trkpt>
      <trkpt lat="47.691628" lon="2.0531325">
        <ele>160</ele>
        <time>2022-01-20T09:50:00Z</time>
      </trkpt>
      <trkpt lat="47.691635" lon="2.0531232">
        <ele>160</ele>
        <time>2022-01-20T09:50:01Z</time>
      </trkpt>
      <trkpt lat="47.691647" lon="2.053116">
        <ele>161</ele>
        <time>2022-01-20T09:50:02Z</time>
      </trkpt>
      <trkpt lat="47.691654" lon="2.0531065">
        <ele>161</ele>
        <time>2022-01-20T09:50:03Z</time>
      </trkpt>
      <trkpt lat="47.691666" lon="2.0530982">
        <ele>161</ele>
        <time>2022-01-20T09:50:04Z</time>
      </trkpt>
      <trkpt lat="47.69168" lon="2.0530963">
        <ele>161</ele>
        <time>2022-01-20T09:50:05Z</time>
      </trkpt>
      <trkpt lat="47.691692" lon="2.0530841">
        <ele>161</ele>
        <time>2022-01-20T09:50:06Z</time>
      </trkpt>
      <trkpt lat="47.691704" lon="2.053079">
        <ele>161</ele>
        <time>2022-01-20T09:50:07Z</time>
      </trkpt>
      <trkpt lat="47.69171" lon="2.0530608">
        <ele>162</ele>
        <time>2022-01-20T09:50:08Z</time>
      </trkpt>
      <trkpt lat="47.691723" lon="2.0530503">
        <ele>162</ele>
        <time>2022-01-20T09:50:09Z</time>
      </trkpt>
      <trkpt lat="47.69173" lon="2.053038">
        <ele>162</ele>
        <time>2022-01-20T09:50:10Z</time>
      </trkpt>
      <trkpt lat="47.691742" lon="2.053023">
        <ele>162</ele>
        <time>2022-01-20T09:50:11Z</time>
      </trkpt>
      <trkpt lat="47.691753" lon="2.0530133">
        <ele>162</ele>
        <time>2022-01-20T09:50:12Z</time>
      </trkpt>
      <trkpt lat="47.691765" lon="2.053002">
        <ele>162</ele>
        <time>2022-01-20T09:50:13Z</time>
      </trkpt>
      <trkpt lat="47.69178" lon="2.0529885">
        <ele>161</ele>
        <time>2022-01-20T09:50:14Z</time>
      </trkpt>
      <trkpt lat="47.6918" lon="2.0529745">
        <ele>161</ele>
        <time>2022-01-20T09:50:15Z</time>
      </trkpt>
      <trkpt lat="47.691814" lon="2.0529609">
        <ele>161</ele>
        <time>2022-01-20T09:50:16Z</time>
      </trkpt>
      <trkpt lat="47.691822" lon="2.0529466">
        <ele>161</ele>
        <time>2022-01-20T09:50:17Z</time>
      </trkpt>
      <trkpt lat="47.691833" lon="2.0529373">
        <ele>162</ele>
        <time>2022-01-20T09:50:18Z</time>
      </trkpt>
      <trkpt lat="47.691837" lon="2.0529315">
        <ele>161</ele>
        <time>2022-01-20T09:50:19Z</time>
      </trkpt>
      <trkpt lat="47.69185" lon="2.0529203">
        <ele>161</ele>
        <time>2022-01-20T09:50:20Z</time>
      </trkpt>
      <trkpt lat="47.69186" lon="2.0529118">
        <ele>161</ele>
        <time>2022-01-20T09:50:21Z</time>
      </trkpt>
      <trkpt lat="47.69187" lon="2.0529082">
        <ele>161</ele>
        <time>2022-01-20T09:50:22Z</time>
      </trkpt>
      <trkpt lat="47.691883" lon="2.0528991">
        <ele>161</ele>
        <time>2022-01-20T09:50:23Z</time>
      </trkpt>
      <trkpt lat="47.691895" lon="2.0528905">
        <ele>161</ele>
        <time>2022-01-20T09:50:24Z</time>
      </trkpt>
      <trkpt lat="47.691906" lon="2.0528831">
        <ele>161</ele>
        <time>2022-01-20T09:50:25Z</time>
      </trkpt>
      <trkpt lat="47.691917" lon="2.0528743">
        <ele>161</ele>
        <time>2022-01-20T09:50:26Z</time>
      </trkpt>
      <trkpt lat="47.691925" lon="2.0528724">
        <ele>161</ele>
        <time>2022-01-20T09:50:27Z</time>
      </trkpt>
      <trkpt lat="47.691933" lon="2.0528653">
        <ele>161</ele>
        <time>2022-01-20T09:50:28Z</time>
      </trkpt>
      <trkpt lat="47.691944" lon="2.052854">
        <ele>161</ele>
        <time>2022-01-20T09:50:29Z</time>
      </trkpt>
      <trkpt lat="47.691948" lon="2.0528433">
        <ele>161</ele>
        <time>2022-01-20T09:50:30Z</time>
      </trkpt>
      <trkpt lat="47.691956" lon="2.0528314">
        <ele>161</ele>
        <time>2022-01-20T09:50:31Z</time>
      </trkpt>
      <trkpt lat="47.69197" lon="2.0528271">
        <ele>161</ele>
        <time>2022-01-20T09:50:32Z</time>
      </trkpt>
      <trkpt lat="47.69198" lon="2.0528216">
        <ele>162</ele>
        <time>2022-01-20T09:50:33Z</time>
      </trkpt>
      <trkpt lat="47.69199" lon="2.052813">
        <ele>162</ele>
        <time>2022-01-20T09:50:34Z</time>
      </trkpt>
      <trkpt lat="47.692005" lon="2.0528073">
        <ele>162</ele>
        <time>2022-01-20T09:50:35Z</time>
      </trkpt>
      <trkpt lat="47.692013" lon="2.0527992">
        <ele>163</ele>
        <time>2022-01-20T09:50:36Z</time>
      </trkpt>
      <trkpt lat="47.69202" lon="2.0527892">
        <ele>163</ele>
        <time>2022-01-20T09:50:37Z</time>
      </trkpt>
      <trkpt lat="47.692028" lon="2.052779">
        <ele>163</ele>
        <time>2022-01-20T09:50:38Z</time>
      </trkpt>
      <trkpt lat="47.69204" lon="2.052769">
        <ele>163</ele>
        <time>2022-01-20T09:50:39Z</time>
      </trkpt>
      <trkpt lat="47.692047" lon="2.0527534">
        <ele>164</ele>
        <time>2022-01-20T09:50:40Z</time>
      </trkpt>
      <trkpt lat="47.69205" lon="2.0527406">
        <ele>164</ele>
        <time>2022-01-20T09:50:41Z</time>
      </trkpt>
      <trkpt lat="47.692055" lon="2.0527258">
        <ele>163</ele>
        <time>2022-01-20T09:50:42Z</time>
      </trkpt>
      <trkpt lat="47.69206" lon="2.0527105">
        <ele>163</ele>
        <time>2022-01-20T09:50:43Z</time>
      </trkpt>
      <trkpt lat="47.692062" lon="2.0526958">
        <ele>163</ele>
        <time>2022-01-20T09:50:44Z</time>
      </trkpt>
      <trkpt lat="47.692062" lon="2.0526776">
        <ele>164</ele>
        <time>2022-01-20T09:50:45Z</time>
      </trkpt>
      <trkpt lat="47.692066" lon="2.0526607">
        <ele>164</ele>
        <time>2022-01-20T09:50:46Z</time>
      </trkpt>
      <trkpt lat="47.69207" lon="2.052646">
        <ele>164</ele>
        <time>2022-01-20T09:50:47Z</time>
      </trkpt>
      <trkpt lat="47.692074" lon="2.052631">
        <ele>165</ele>
        <time>2022-01-20T09:50:48Z</time>
      </trkpt>
      <trkpt lat="47.692078" lon="2.0526116">
        <ele>165</ele>
        <time>2022-01-20T09:50:49Z</time>
      </trkpt>
      <trkpt lat="47.692078" lon="2.0525982">
        <ele>165</ele>
        <time>2022-01-20T09:50:50Z</time>
      </trkpt>
      <trkpt lat="47.69208" lon="2.0525799">
        <ele>166</ele>
        <time>2022-01-20T09:50:51Z</time>
      </trkpt>
      <trkpt lat="47.69208" lon="2.0525644">
        <ele>167</ele>
        <time>2022-01-20T09:50:52Z</time>
      </trkpt>
      <trkpt lat="47.692085" lon="2.0525477">
        <ele>167</ele>
        <time>2022-01-20T09:50:53Z</time>
      </trkpt>
      <trkpt lat="47.692085" lon="2.0525334">
        <ele>167</ele>
        <time>2022-01-20T09:50:54Z</time>
      </trkpt>
      <trkpt lat="47.692085" lon="2.0525231">
        <ele>167</ele>
        <time>2022-01-20T09:50:55Z</time>
      </trkpt>
      <trkpt lat="47.692085" lon="2.0525107">
        <ele>167</ele>
        <time>2022-01-20T09:50:56Z</time>
      </trkpt>
      <trkpt lat="47.692085" lon="2.0525134">
        <ele>167</ele>
        <time>2022-01-20T09:50:57Z</time>
      </trkpt>
      <trkpt lat="47.692085" lon="2.0525088">
        <ele>167</ele>
        <time>2022-01-20T09:50:58Z</time>
      </trkpt>
      <trkpt lat="47.69209" lon="2.052496">
        <ele>167</ele>
        <time>2022-01-20T09:50:59Z</time>
      </trkpt>
      <trkpt lat="47.692093" lon="2.0524757">
        <ele>167</ele>
        <time>2022-01-20T09:51:00Z</time>
      </trkpt>
      <trkpt lat="47.6921" lon="2.0524645">
        <ele>167</ele>
        <time>2022-01-20T09:51:01Z</time>
      </trkpt>
      <trkpt lat="47.692104" lon="2.0524502">
        <ele>167</ele>
        <time>2022-01-20T09:51:02Z</time>
      </trkpt>
      <trkpt lat="47.692112" lon="2.052434">
        <ele>166</ele>
        <time>2022-01-20T09:51:03Z</time>
      </trkpt>
      <trkpt lat="47.692116" lon="2.052421">
        <ele>167</ele>
        <time>2022-01-20T09:51:04Z</time>
      </trkpt>
      <trkpt lat="47.692123" lon="2.0524044">
        <ele>166</ele>
        <time>2022-01-20T09:51:05Z</time>
      </trkpt>
      <trkpt lat="47.692127" lon="2.052381">
        <ele>166</ele>
        <time>2022-01-20T09:51:06Z</time>
      </trkpt>
      <trkpt lat="47.69213" lon="2.0523608">
        <ele>166</ele>
        <time>2022-01-20T09:51:07Z</time>
      </trkpt>
      <trkpt lat="47.692135" lon="2.0523438">
        <ele>166</ele>
        <time>2022-01-20T09:51:08Z</time>
      </trkpt>
      <trkpt lat="47.692135" lon="2.0523255">
        <ele>166</ele>
        <time>2022-01-20T09:51:09Z</time>
      </trkpt>
      <trkpt lat="47.69213" lon="2.0523078">
        <ele>166</ele>
        <time>2022-01-20T09:51:10Z</time>
      </trkpt>
      <trkpt lat="47.692135" lon="2.0522969">
        <ele>166</ele>
        <time>2022-01-20T09:51:11Z</time>
      </trkpt>
      <trkpt lat="47.692142" lon="2.052277">
        <ele>167</ele>
        <time>2022-01-20T09:51:12Z</time>
      </trkpt>
      <trkpt lat="47.692146" lon="2.0522609">
        <ele>167</ele>
        <time>2022-01-20T09:51:13Z</time>
      </trkpt>
      <trkpt lat="47.692142" lon="2.052245">
        <ele>167</ele>
        <time>2022-01-20T09:51:14Z</time>
      </trkpt>
      <trkpt lat="47.69214" lon="2.0522306">
        <ele>167</ele>
        <time>2022-01-20T09:51:15Z</time>
      </trkpt>
      <trkpt lat="47.692135" lon="2.0522149">
        <ele>168</ele>
        <time>2022-01-20T09:51:16Z</time>
      </trkpt>
      <trkpt lat="47.692127" lon="2.0522013">
        <ele>168</ele>
        <time>2022-01-20T09:51:17Z</time>
      </trkpt>
      <trkpt lat="47.692127" lon="2.0521884">
        <ele>169</ele>
        <time>2022-01-20T09:51:18Z</time>
      </trkpt>
      <trkpt lat="47.692127" lon="2.0521746">
        <ele>168</ele>
        <time>2022-01-20T09:51:19Z</time>
      </trkpt>
      <trkpt lat="47.692127" lon="2.052157">
        <ele>168</ele>
        <time>2022-01-20T09:51:20Z</time>
      </trkpt>
      <trkpt lat="47.69213" lon="2.052143">
        <ele>168</ele>
        <time>2022-01-20T09:51:21Z</time>
      </trkpt>
      <trkpt lat="47.69213" lon="2.0521262">
        <ele>168</ele>
        <time>2022-01-20T09:51:22Z</time>
      </trkpt>
      <trkpt lat="47.69213" lon="2.0521095">
        <ele>169</ele>
        <time>2022-01-20T09:51:23Z</time>
      </trkpt>
      <trkpt lat="47.69213" lon="2.052095">
        <ele>169</ele>
        <time>2022-01-20T09:51:24Z</time>
      </trkpt>
      <trkpt lat="47.692142" lon="2.0520766">
        <ele>168</ele>
        <time>2022-01-20T09:51:25Z</time>
      </trkpt>
      <trkpt lat="47.69215" lon="2.0520577">
        <ele>169</ele>
        <time>2022-01-20T09:51:26Z</time>
      </trkpt>
      <trkpt lat="47.692154" lon="2.0520332">
        <ele>169</ele>
        <time>2022-01-20T09:51:27Z</time>
      </trkpt>
      <trkpt lat="47.692158" lon="2.0520124">
        <ele>169</ele>
        <time>2022-01-20T09:51:28Z</time>
      </trkpt>
      <trkpt lat="47.692158" lon="2.0519898">
        <ele>169</ele>
        <time>2022-01-20T09:51:29Z</time>
      </trkpt>
      <trkpt lat="47.69216" lon="2.0519738">
        <ele>169</ele>
        <time>2022-01-20T09:51:30Z</time>
      </trkpt>
      <trkpt lat="47.692165" lon="2.0519612">
        <ele>169</ele>
        <time>2022-01-20T09:51:31Z</time>
      </trkpt>
      <trkpt lat="47.69217" lon="2.0519497">
        <ele>169</ele>
        <time>2022-01-20T09:51:32Z</time>
      </trkpt>
      <trkpt lat="47.692173" lon="2.0519302">
        <ele>169</ele>
        <time>2022-01-20T09:51:33Z</time>
      </trkpt>
      <trkpt lat="47.692173" lon="2.0519106">
        <ele>170</ele>
        <time>2022-01-20T09:51:34Z</time>
      </trkpt>
      <trkpt lat="47.69217" lon="2.0518956">
        <ele>170</ele>
        <time>2022-01-20T09:51:35Z</time>
      </trkpt>
      <trkpt lat="47.69217" lon="2.0518773">
        <ele>170</ele>
        <time>2022-01-20T09:51:36Z</time>
      </trkpt>
      <trkpt lat="47.69217" lon="2.0518608">
        <ele>170</ele>
        <time>2022-01-20T09:51:37Z</time>
      </trkpt>
      <trkpt lat="47.692173" lon="2.051834">
        <ele>170</ele>
        <time>2022-01-20T09:51:38Z</time>
      </trkpt>
      <trkpt lat="47.692173" lon="2.051812">
        <ele>170</ele>
        <time>2022-01-20T09:51:39Z</time>
      </trkpt>
      <trkpt lat="47.69218" lon="2.0517952">
        <ele>170</ele>
        <time>2022-01-20T09:51:40Z</time>
      </trkpt>
      <trkpt lat="47.692184" lon="2.0517795">
        <ele>170</ele>
        <time>2022-01-20T09:51:41Z</time>
      </trkpt>
      <trkpt lat="47.692184" lon="2.0517702">
        <ele>170</ele>
        <time>2022-01-20T09:51:42Z</time>
      </trkpt>
      <trkpt lat="47.692184" lon="2.051763">
        <ele>170</ele>
        <time>2022-01-20T09:51:43Z</time>
      </trkpt>
      <trkpt lat="47.69219" lon="2.0517464">
        <ele>170</ele>
        <time>2022-01-20T09:51:44Z</time>
      </trkpt>
      <trkpt lat="47.692192" lon="2.0517323">
        <ele>171</ele>
        <time>2022-01-20T09:51:45Z</time>
      </trkpt>
      <trkpt lat="47.692196" lon="2.0517166">
        <ele>171</ele>
        <time>2022-01-20T09:51:46Z</time>
      </trkpt>
      <trkpt lat="47.692196" lon="2.051701">
        <ele>172</ele>
        <time>2022-01-20T09:51:47Z</time>
      </trkpt>
      <trkpt lat="47.6922" lon="2.051684">
        <ele>172</ele>
        <time>2022-01-20T09:51:48Z</time>
      </trkpt>
      <trkpt lat="47.692204" lon="2.051669">
        <ele>172</ele>
        <time>2022-01-20T09:51:49Z</time>
      </trkpt>
      <trkpt lat="47.692207" lon="2.0516484">
        <ele>172</ele>
        <time>2022-01-20T09:51:50Z</time>
      </trkpt>
      <trkpt lat="47.692215" lon="2.0516324">
        <ele>173</ele>
        <time>2022-01-20T09:51:51Z</time>
      </trkpt>
      <trkpt lat="47.69222" lon="2.0516174">
        <ele>172</ele>
        <time>2022-01-20T09:51:52Z</time>
      </trkpt>
      <trkpt lat="47.69222" lon="2.0516024">
        <ele>172</ele>
        <time>2022-01-20T09:51:53Z</time>
      </trkpt>
      <trkpt lat="47.692223" lon="2.051591">
        <ele>172</ele>
        <time>2022-01-20T09:51:54Z</time>
      </trkpt>
      <trkpt lat="47.69222" lon="2.0515711">
        <ele>172</ele>
        <time>2022-01-20T09:51:55Z</time>
      </trkpt>
      <trkpt lat="47.69222" lon="2.0515513">
        <ele>172</ele>
        <time>2022-01-20T09:51:56Z</time>
      </trkpt>
      <trkpt lat="47.69222" lon="2.0515316">
        <ele>172</ele>
        <time>2022-01-20T09:51:57Z</time>
      </trkpt>
      <trkpt lat="47.69222" lon="2.0515099">
        <ele>172</ele>
        <time>2022-01-20T09:51:58Z</time>
      </trkpt>
      <trkpt lat="47.692223" lon="2.0514884">
        <ele>172</ele>
        <time>2022-01-20T09:51:59Z</time>
      </trkpt>
      <trkpt lat="47.69222" lon="2.0514753">
        <ele>172</ele>
        <time>2022-01-20T09:52:00Z</time>
      </trkpt>
      <trkpt lat="47.69223" lon="2.0514545">
        <ele>172</ele>
        <time>2022-01-20T09:52:01Z</time>
      </trkpt>
      <trkpt lat="47.692238" lon="2.0514295">
        <ele>171</ele>
        <time>2022-01-20T09:52:02Z</time>
      </trkpt>
      <trkpt lat="47.692238" lon="2.0514097">
        <ele>171</ele>
        <time>2022-01-20T09:52:03Z</time>
      </trkpt>
      <trkpt lat="47.69224" lon="2.0513918">
        <ele>171</ele>
        <time>2022-01-20T09:52:04Z</time>
      </trkpt>
      <trkpt lat="47.692245" lon="2.0513752">
        <ele>171</ele>
        <time>2022-01-20T09:52:05Z</time>
      </trkpt>
      <trkpt lat="47.692245" lon="2.05136">
        <ele>171</ele>
        <time>2022-01-20T09:52:06Z</time>
      </trkpt>
      <trkpt lat="47.692245" lon="2.051339">
        <ele>172</ele>
        <time>2022-01-20T09:52:07Z</time>
      </trkpt>
      <trkpt lat="47.69225" lon="2.051323">
        <ele>172</ele>
        <time>2022-01-20T09:52:08Z</time>
      </trkpt>
      <trkpt lat="47.69225" lon="2.0513058">
        <ele>172</ele>
        <time>2022-01-20T09:52:09Z</time>
      </trkpt>
      <trkpt lat="47.69225" lon="2.0512903">
        <ele>173</ele>
        <time>2022-01-20T09:52:10Z</time>
      </trkpt>
      <trkpt lat="47.69225" lon="2.0512722">
        <ele>173</ele>
        <time>2022-01-20T09:52:11Z</time>
      </trkpt>
      <trkpt lat="47.692253" lon="2.0512552">
        <ele>173</ele>
        <time>2022-01-20T09:52:12Z</time>
      </trkpt>
      <trkpt lat="47.69225" lon="2.0512428">
        <ele>173</ele>
        <time>2022-01-20T09:52:13Z</time>
      </trkpt>
      <trkpt lat="47.692245" lon="2.0512385">
        <ele>172</ele>
        <time>2022-01-20T09:52:14Z</time>
      </trkpt>
      <trkpt lat="47.692238" lon="2.0512328">
        <ele>172</ele>
        <time>2022-01-20T09:52:15Z</time>
      </trkpt>
      <trkpt lat="47.69223" lon="2.051229">
        <ele>172</ele>
        <time>2022-01-20T09:52:16Z</time>
      </trkpt>
      <trkpt lat="47.692226" lon="2.0512276">
        <ele>172</ele>
        <time>2022-01-20T09:52:17Z</time>
      </trkpt>
      <trkpt lat="47.692226" lon="2.0512242">
        <ele>171</ele>
        <time>2022-01-20T09:52:18Z</time>
      </trkpt>
      <trkpt lat="47.692226" lon="2.0512264">
        <ele>171</ele>
        <time>2022-01-20T09:52:19Z</time>
      </trkpt>
      <trkpt lat="47.692226" lon="2.0512264">
        <ele>171</ele>
        <time>2022-01-20T09:52:20Z</time>
      </trkpt>
      <trkpt lat="47.692226" lon="2.0512264">
        <ele>171</ele>
        <time>2022-01-20T09:52:20Z</time>
      </trkpt>
    </trkseg>
    <trkseg>
      <trkpt lat="47.692226" lon="2.0512264">
        <ele>171</ele>
        <time>2022-01-20T09:52:20Z</time>
      </trkpt>
      <trkpt lat="47.69225" lon="2.0511935">
        <ele>168</ele>
        <time>2022-01-20T09:53:10Z</time>
      </trkpt>
      <trkpt lat="47.69225" lon="2.05118">
        <ele>169</ele>
        <time>2022-01-20T09:53:11Z</time>
      </trkpt>
      <trkpt lat="47.692257" lon="2.0511553">
        <ele>169</ele>
        <time>2022-01-20T09:53:12Z</time>
      </trkpt>
      <trkpt lat="47.692265" lon="2.0511286">
        <ele>169</ele>
        <time>2022-01-20T09:53:13Z</time>
      </trkpt>
      <trkpt lat="47.692276" lon="2.051102">
        <ele>169</ele>
        <time>2022-01-20T09:53:14Z</time>
      </trkpt>
      <trkpt lat="47.69228" lon="2.0510826">
        <ele>169</ele>
        <time>2022-01-20T09:53:15Z</time>
      </trkpt>
      <trkpt lat="47.69228" lon="2.051063">
        <ele>169</ele>
        <time>2022-01-20T09:53:16Z</time>
      </trkpt>
      <trkpt lat="47.692284" lon="2.0510325">
        <ele>169</ele>
        <time>2022-01-20T09:53:17Z</time>
      </trkpt>
      <trkpt lat="47.692284" lon="2.0510018">
        <ele>168</ele>
        <time>2022-01-20T09:53:18Z</time>
      </trkpt>
      <trkpt lat="47.692284" lon="2.0509799">
        <ele>169</ele>
        <time>2022-01-20T09:53:19Z</time>
      </trkpt>
      <trkpt lat="47.692287" lon="2.0509598">
        <ele>169</ele>
        <time>2022-01-20T09:53:20Z</time>
      </trkpt>
      <trkpt lat="47.69229" lon="2.050939">
        <ele>168</ele>
        <time>2022-01-20T09:53:21Z</time>
      </trkpt>
      <trkpt lat="47.692295" lon="2.0509164">
        <ele>169</ele>
        <time>2022-01-20T09:53:22Z</time>
      </trkpt>
      <trkpt lat="47.6923" lon="2.0508986">
        <ele>168</ele>
        <time>2022-01-20T09:53:23Z</time>
      </trkpt>
      <trkpt lat="47.692303" lon="2.0508814">
        <ele>168</ele>
        <time>2022-01-20T09:53:24Z</time>
      </trkpt>
      <trkpt lat="47.692307" lon="2.0508657">
        <ele>168</ele>
        <time>2022-01-20T09:53:25Z</time>
      </trkpt>
      <trkpt lat="47.69231" lon="2.0508473">
        <ele>168</ele>
        <time>2022-01-20T09:53:26Z</time>
      </trkpt>
      <trkpt lat="47.692307" lon="2.050826">
        <ele>168</ele>
        <time>2022-01-20T09:53:27Z</time>
      </trkpt>
      <trkpt lat="47.69231" lon="2.0508087">
        <ele>169</ele>
        <time>2022-01-20T09:53:28Z</time>
      </trkpt>
      <trkpt lat="47.69231" lon="2.0507917">
        <ele>169</ele>
        <time>2022-01-20T09:53:29Z</time>
      </trkpt>
      <trkpt lat="47.692314" lon="2.0507722">
        <ele>169</ele>
        <time>2022-01-20T09:53:30Z</time>
      </trkpt>
      <trkpt lat="47.692314" lon="2.0507548">
        <ele>169</ele>
        <time>2022-01-20T09:53:31Z</time>
      </trkpt>
      <trkpt lat="47.692318" lon="2.0507374">
        <ele>169</ele>
        <time>2022-01-20T09:53:32Z</time>
      </trkpt>
      <trkpt lat="47.69232" lon="2.050723">
        <ele>169</ele>
        <time>2022-01-20T09:53:33Z</time>
      </trkpt>
      <trkpt lat="47.69232" lon="2.0507078">
        <ele>169</ele>
        <time>2022-01-20T09:53:34Z</time>
      </trkpt>
      <trkpt lat="47.692326" lon="2.0506935">
        <ele>169</ele>
        <time>2022-01-20T09:53:35Z</time>
      </trkpt>
      <trkpt lat="47.69232" lon="2.050687">
        <ele>170</ele>
        <time>2022-01-20T09:53:36Z</time>
      </trkpt>
      <trkpt lat="47.692314" lon="2.0506835">
        <ele>170</ele>
        <time>2022-01-20T09:53:37Z</time>
      </trkpt>
      <trkpt lat="47.692314" lon="2.0506713">
        <ele>171</ele>
        <time>2022-01-20T09:53:38Z</time>
      </trkpt>
      <trkpt lat="47.692314" lon="2.0506566">
        <ele>171</ele>
        <time>2022-01-20T09:53:39Z</time>
      </trkpt>
      <trkpt lat="47.692318" lon="2.0506415">
        <ele>171</ele>
        <time>2022-01-20T09:53:40Z</time>
      </trkpt>
      <trkpt lat="47.692318" lon="2.0506241">
        <ele>172</ele>
        <time>2022-01-20T09:53:41Z</time>
      </trkpt>
      <trkpt lat="47.69232" lon="2.0506034">
        <ele>171</ele>
        <time>2022-01-20T09:53:42Z</time>
      </trkpt>
      <trkpt lat="47.692333" lon="2.0505877">
        <ele>171</ele>
        <time>2022-01-20T09:53:43Z</time>
      </trkpt>
      <trkpt lat="47.69234" lon="2.0505722">
        <ele>172</ele>
        <time>2022-01-20T09:53:44Z</time>
      </trkpt>
      <trkpt lat="47.69235" lon="2.0505595">
        <ele>171</ele>
        <time>2022-01-20T09:53:45Z</time>
      </trkpt>
      <trkpt lat="47.692356" lon="2.0505474">
        <ele>171</ele>
        <time>2022-01-20T09:53:46Z</time>
      </trkpt>
      <trkpt lat="47.69236" lon="2.0505285">
        <ele>171</ele>
        <time>2022-01-20T09:53:47Z</time>
      </trkpt>
      <trkpt lat="47.692364" lon="2.0505087">
        <ele>171</ele>
        <time>2022-01-20T09:53:48Z</time>
      </trkpt>
      <trkpt lat="47.692368" lon="2.0504932">
        <ele>171</ele>
        <time>2022-01-20T09:53:49Z</time>
      </trkpt>
      <trkpt lat="47.692368" lon="2.050474">
        <ele>171</ele>
        <time>2022-01-20T09:53:50Z</time>
      </trkpt>
      <trkpt lat="47.692368" lon="2.050462">
        <ele>171</ele>
        <time>2022-01-20T09:53:51Z</time>
      </trkpt>
      <trkpt lat="47.692375" lon="2.0504456">
        <ele>171</ele>
        <time>2022-01-20T09:53:52Z</time>
      </trkpt>
      <trkpt lat="47.69238" lon="2.0504308">
        <ele>171</ele>
        <time>2022-01-20T09:53:53Z</time>
      </trkpt>
      <trkpt lat="47.692387" lon="2.0504148">
        <ele>171</ele>
        <time>2022-01-20T09:53:54Z</time>
      </trkpt>
      <trkpt lat="47.69239" lon="2.050405">
        <ele>171</ele>
        <time>2022-01-20T09:53:55Z</time>
      </trkpt>
      <trkpt lat="47.692398" lon="2.0503926">
        <ele>171</ele>
        <time>2022-01-20T09:53:56Z</time>
      </trkpt>
      <trkpt lat="47.6924" lon="2.050378">
        <ele>171</ele>
        <time>2022-01-20T09:53:57Z</time>
      </trkpt>
      <trkpt lat="47.692406" lon="2.0503612">
        <ele>172</ele>
        <time>2022-01-20T09:53:58Z</time>
      </trkpt>
      <trkpt lat="47.692406" lon="2.0503452">
        <ele>172</ele>
        <time>2022-01-20T09:53:59Z</time>
      </trkpt>
      <trkpt lat="47.69241" lon="2.0503244">
        <ele>172</ele>
        <time>2022-01-20T09:54:00Z</time>
      </trkpt>
      <trkpt lat="47.69241" lon="2.050309">
        <ele>172</ele>
        <time>2022-01-20T09:54:01Z</time>
      </trkpt>
      <trkpt lat="47.692413" lon="2.0502894">
        <ele>172</ele>
        <time>2022-01-20T09:54:02Z</time>
      </trkpt>
      <trkpt lat="47.692417" lon="2.050275">
        <ele>171</ele>
        <time>2022-01-20T09:54:03Z</time>
      </trkpt>
      <trkpt lat="47.692413" lon="2.0502548">
        <ele>172</ele>
        <time>2022-01-20T09:54:04Z</time>
      </trkpt>
      <trkpt lat="47.692417" lon="2.0502388">
        <ele>171</ele>
        <time>2022-01-20T09:54:05Z</time>
      </trkpt>
      <trkpt lat="47.69242" lon="2.0502193">
        <ele>172</ele>
        <time>2022-01-20T09:54:06Z</time>
      </trkpt>
      <trkpt lat="47.692425" lon="2.0502052">
        <ele>171</ele>
        <time>2022-01-20T09:54:07Z</time>
      </trkpt>
      <trkpt lat="47.69243" lon="2.0501838">
        <ele>171</ele>
        <time>2022-01-20T09:54:08Z</time>
      </trkpt>
      <trkpt lat="47.692432" lon="2.0501623">
        <ele>171</ele>
        <time>2022-01-20T09:54:09Z</time>
      </trkpt>
      <trkpt lat="47.692436" lon="2.0501437">
        <ele>171</ele>
        <time>2022-01-20T09:54:10Z</time>
      </trkpt>
      <trkpt lat="47.69244" lon="2.0501237">
        <ele>170</ele>
        <time>2022-01-20T09:54:11Z</time>
      </trkpt>
      <trkpt lat="47.69244" lon="2.0501027">
        <ele>170</ele>
        <time>2022-01-20T09:54:12Z</time>
      </trkpt>
      <trkpt lat="47.692444" lon="2.0500793">
        <ele>169</ele>
        <time>2022-01-20T09:54:13Z</time>
      </trkpt>
      <trkpt lat="47.692448" lon="2.050058">
        <ele>169</ele>
        <time>2022-01-20T09:54:14Z</time>
      </trkpt>
      <trkpt lat="47.69245" lon="2.0500386">
        <ele>169</ele>
        <time>2022-01-20T09:54:15Z</time>
      </trkpt>
      <trkpt lat="47.692455" lon="2.0500152">
        <ele>169</ele>
        <time>2022-01-20T09:54:16Z</time>
      </trkpt>
      <trkpt lat="47.69245" lon="2.049997">
        <ele>169</ele>
        <time>2022-01-20T09:54:17Z</time>
      </trkpt>
      <trkpt lat="47.69245" lon="2.0499752">
        <ele>169</ele>
        <time>2022-01-20T09:54:18Z</time>
      </trkpt>
      <trkpt lat="47.69245" lon="2.0499575">
        <ele>169</ele>
        <time>2022-01-20T09:54:19Z</time>
      </trkpt>
      <trkpt lat="47.692455" lon="2.0499375">
        <ele>169</ele>
        <time>2022-01-20T09:54:20Z</time>
      </trkpt>
      <trkpt lat="47.69245" lon="2.0499125">
        <ele>169</ele>
        <time>2022-01-20T09:54:21Z</time>
      </trkpt>
      <trkpt lat="47.692455" lon="2.0498862">
        <ele>169</ele>
        <time>2022-01-20T09:54:22Z</time>
      </trkpt>
      <trkpt lat="47.69246" lon="2.0498626">
        <ele>169</ele>
        <time>2022-01-20T09:54:23Z</time>
      </trkpt>
      <trkpt lat="47.692463" lon="2.049841">
        <ele>169</ele>
        <time>2022-01-20T09:54:24Z</time>
      </trkpt>
      <trkpt lat="47.692467" lon="2.049825">
        <ele>169</ele>
        <time>2022-01-20T09:54:25Z</time>
      </trkpt>
      <trkpt lat="47.69247" lon="2.0498047">
        <ele>169</ele>
        <time>2022-01-20T09:54:26Z</time>
      </trkpt>
      <trkpt lat="47.692474" lon="2.0497854">
        <ele>169</ele>
        <time>2022-01-20T09:54:27Z</time>
      </trkpt>
      <trkpt lat="47.69248" lon="2.0497692">
        <ele>169</ele>
        <time>2022-01-20T09:54:28Z</time>
      </trkpt>
      <trkpt lat="47.692482" lon="2.0497522">
        <ele>169</ele>
        <time>2022-01-20T09:54:29Z</time>
      </trkpt>
      <trkpt lat="47.692482" lon="2.0497286">
        <ele>169</ele>
        <time>2022-01-20T09:54:30Z</time>
      </trkpt>
      <trkpt lat="47.692482" lon="2.049706">
        <ele>169</ele>
        <time>2022-01-20T09:54:31Z</time>
      </trkpt>
      <trkpt lat="47.692482" lon="2.0496848">
        <ele>169</ele>
        <time>2022-01-20T09:54:32Z</time>
      </trkpt>
      <trkpt lat="47.692486" lon="2.0496552">
        <ele>169</ele>
        <time>2022-01-20T09:54:33Z</time>
      </trkpt>
      <trkpt lat="47.692493" lon="2.0496316">
        <ele>169</ele>
        <time>2022-01-20T09:54:34Z</time>
      </trkpt>
      <trkpt lat="47.692493" lon="2.0496056">
        <ele>169</ele>
        <time>2022-01-20T09:54:35Z</time>
      </trkpt>
      <trkpt lat="47.692497" lon="2.0495877">
        <ele>168</ele>
        <time>2022-01-20T09:54:36Z</time>
      </trkpt>
      <trkpt lat="47.692497" lon="2.0495663">
        <ele>169</ele>
        <time>2022-01-20T09:54:37Z</time>
      </trkpt>
      <trkpt lat="47.6925" lon="2.0495403">
        <ele>168</ele>
        <time>2022-01-20T09:54:38Z</time>
      </trkpt>
      <trkpt lat="47.69251" lon="2.049513">
        <ele>168</ele>
        <time>2022-01-20T09:54:39Z</time>
      </trkpt>
      <trkpt lat="47.692513" lon="2.049489">
        <ele>169</ele>
        <time>2022-01-20T09:54:40Z</time>
      </trkpt>
      <trkpt lat="47.692513" lon="2.049461">
        <ele>169</ele>
        <time>2022-01-20T09:54:41Z</time>
      </trkpt>
      <trkpt lat="47.692513" lon="2.0494328">
        <ele>169</ele>
        <time>2022-01-20T09:54:42Z</time>
      </trkpt>
      <trkpt lat="47.69252" lon="2.049407">
        <ele>169</ele>
        <time>2022-01-20T09:54:43Z</time>
      </trkpt>
      <trkpt lat="47.692528" lon="2.0493836">
        <ele>169</ele>
        <time>2022-01-20T09:54:44Z</time>
      </trkpt>
      <trkpt lat="47.69253" lon="2.0493577">
        <ele>169</ele>
        <time>2022-01-20T09:54:45Z</time>
      </trkpt>
      <trkpt lat="47.69253" lon="2.049325">
        <ele>169</ele>
        <time>2022-01-20T09:54:46Z</time>
      </trkpt>
      <trkpt lat="47.69253" lon="2.0492969">
        <ele>169</ele>
        <time>2022-01-20T09:54:47Z</time>
      </trkpt>
      <trkpt lat="47.692535" lon="2.0492702">
        <ele>168</ele>
        <time>2022-01-20T09:54:48Z</time>
      </trkpt>
      <trkpt lat="47.692535" lon="2.049247">
        <ele>168</ele>
        <time>2022-01-20T09:54:49Z</time>
      </trkpt>
      <trkpt lat="47.692535" lon="2.0492206">
        <ele>168</ele>
        <time>2022-01-20T09:54:50Z</time>
      </trkpt>
      <trkpt lat="47.692535" lon="2.0491934">
        <ele>168</ele>
        <time>2022-01-20T09:54:51Z</time>
      </trkpt>
      <trkpt lat="47.692535" lon="2.0491652">
        <ele>168</ele>
        <time>2022-01-20T09:54:52Z</time>
      </trkpt>
      <trkpt lat="47.692535" lon="2.0491412">
        <ele>168</ele>
        <time>2022-01-20T09:54:53Z</time>
      </trkpt>
      <trkpt lat="47.69254" lon="2.049116">
        <ele>168</ele>
        <time>2022-01-20T09:54:54Z</time>
      </trkpt>
      <trkpt lat="47.69254" lon="2.049088">
        <ele>168</ele>
        <time>2022-01-20T09:54:55Z</time>
      </trkpt>
      <trkpt lat="47.69254" lon="2.0490596">
        <ele>169</ele>
        <time>2022-01-20T09:54:56Z</time>
      </trkpt>
      <trkpt lat="47.692543" lon="2.0490403">
        <ele>169</ele>
        <time>2022-01-20T09:54:57Z</time>
      </trkpt>
      <trkpt lat="47.692543" lon="2.0490234">
        <ele>169</ele>
        <time>2022-01-20T09:54:58Z</time>
      </trkpt>
      <trkpt lat="47.692547" lon="2.0490005">
        <ele>169</ele>
        <time>2022-01-20T09:54:59Z</time>
      </trkpt>
      <trkpt lat="47.69255" lon="2.0489783">
        <ele>169</ele>
        <time>2022-01-20T09:55:00Z</time>
      </trkpt>
      <trkpt lat="47.69255" lon="2.0489583">
        <ele>169</ele>
        <time>2022-01-20T09:55:01Z</time>
      </trkpt>
      <trkpt lat="47.692554" lon="2.0489368">
        <ele>170</ele>
        <time>2022-01-20T09:55:02Z</time>
      </trkpt>
      <trkpt lat="47.69256" lon="2.0489187">
        <ele>170</ele>
        <time>2022-01-20T09:55:03Z</time>
      </trkpt>
      <trkpt lat="47.69256" lon="2.048902">
        <ele>169</ele>
        <time>2022-01-20T09:55:04Z</time>
      </trkpt>
      <trkpt lat="47.692562" lon="2.0488813">
        <ele>170</ele>
        <time>2022-01-20T09:55:05Z</time>
      </trkpt>
      <trkpt lat="47.692566" lon="2.0488594">
        <ele>170</ele>
        <time>2022-01-20T09:55:06Z</time>
      </trkpt>
      <trkpt lat="47.69257" lon="2.048838">
        <ele>170</ele>
        <time>2022-01-20T09:55:07Z</time>
      </trkpt>
      <trkpt lat="47.692574" lon="2.0488174">
        <ele>170</ele>
        <time>2022-01-20T09:55:08Z</time>
      </trkpt>
      <trkpt lat="47.692577" lon="2.0487983">
        <ele>170</ele>
        <time>2022-01-20T09:55:09Z</time>
      </trkpt>
      <trkpt lat="47.692585" lon="2.0487816">
        <ele>170</ele>
        <time>2022-01-20T09:55:10Z</time>
      </trkpt>
      <trkpt lat="47.692585" lon="2.0487602">
        <ele>170</ele>
        <time>2022-01-20T09:55:11Z</time>
      </trkpt>
      <trkpt lat="47.692585" lon="2.0487392">
        <ele>170</ele>
        <time>2022-01-20T09:55:12Z</time>
      </trkpt>
      <trkpt lat="47.69258" lon="2.0487149">
        <ele>171</ele>
        <time>2022-01-20T09:55:13Z</time>
      </trkpt>
      <trkpt lat="47.692585" lon="2.0486915">
        <ele>172</ele>
        <time>2022-01-20T09:55:14Z</time>
      </trkpt>
      <trkpt lat="47.692585" lon="2.0486665">
        <ele>172</ele>
        <time>2022-01-20T09:55:15Z</time>
      </trkpt>
      <trkpt lat="47.692585" lon="2.0486405">
        <ele>173</ele>
        <time>2022-01-20T09:55:16Z</time>
      </trkpt>
      <trkpt lat="47.692585" lon="2.0486202">
        <ele>172</ele>
        <time>2022-01-20T09:55:17Z</time>
      </trkpt>
      <trkpt lat="47.69259" lon="2.048598">
        <ele>172</ele>
        <time>2022-01-20T09:55:18Z</time>
      </trkpt>
      <trkpt lat="47.692593" lon="2.0485754">
        <ele>173</ele>
        <time>2022-01-20T09:55:19Z</time>
      </trkpt>
      <trkpt lat="47.692596" lon="2.0485547">
        <ele>172</ele>
        <time>2022-01-20T09:55:20Z</time>
      </trkpt>
      <trkpt lat="47.692604" lon="2.0485373">
        <ele>172</ele>
        <time>2022-01-20T09:55:21Z</time>
      </trkpt>
      <trkpt lat="47.692608" lon="2.0485184">
        <ele>172</ele>
        <time>2022-01-20T09:55:22Z</time>
      </trkpt>
      <trkpt lat="47.692616" lon="2.0484996">
        <ele>172</ele>
        <time>2022-01-20T09:55:23Z</time>
      </trkpt>
      <trkpt lat="47.69262" lon="2.0484715">
        <ele>172</ele>
        <time>2022-01-20T09:55:24Z</time>
      </trkpt>
      <trkpt lat="47.69262" lon="2.0484433">
        <ele>172</ele>
        <time>2022-01-20T09:55:25Z</time>
      </trkpt>
      <trkpt lat="47.692623" lon="2.048415">
        <ele>173</ele>
        <time>2022-01-20T09:55:26Z</time>
      </trkpt>
      <trkpt lat="47.69262" lon="2.0483885">
        <ele>173</ele>
        <time>2022-01-20T09:55:27Z</time>
      </trkpt>
      <trkpt lat="47.692623" lon="2.0483658">
        <ele>173</ele>
        <time>2022-01-20T09:55:28Z</time>
      </trkpt>
      <trkpt lat="47.69262" lon="2.048341">
        <ele>173</ele>
        <time>2022-01-20T09:55:29Z</time>
      </trkpt>
      <trkpt lat="47.69261" lon="2.048312">
        <ele>173</ele>
        <time>2022-01-20T09:55:30Z</time>
      </trkpt>
      <trkpt lat="47.692608" lon="2.0482886">
        <ele>173</ele>
        <time>2022-01-20T09:55:31Z</time>
      </trkpt>
      <trkpt lat="47.692608" lon="2.0482645">
        <ele>173</ele>
        <time>2022-01-20T09:55:32Z</time>
      </trkpt>
      <trkpt lat="47.692608" lon="2.0482438">
        <ele>173</ele>
        <time>2022-01-20T09:55:33Z</time>
      </trkpt>
      <trkpt lat="47.69261" lon="2.0482264">
        <ele>173</ele>
        <time>2022-01-20T09:55:34Z</time>
      </trkpt>
      <trkpt lat="47.692616" lon="2.048211">
        <ele>173</ele>
        <time>2022-01-20T09:55:35Z</time>
      </trkpt>
      <trkpt lat="47.692616" lon="2.04819">
        <ele>173</ele>
        <time>2022-01-20T09:55:36Z</time>
      </trkpt>
      <trkpt lat="47.69262" lon="2.0481646">
        <ele>173</ele>
        <time>2022-01-20T09:55:37Z</time>
      </trkpt>
      <trkpt lat="47.692623" lon="2.0481393">
        <ele>173</ele>
        <time>2022-01-20T09:55:38Z</time>
      </trkpt>
      <trkpt lat="47.692627" lon="2.0481148">
        <ele>173</ele>
        <time>2022-01-20T09:55:39Z</time>
      </trkpt>
      <trkpt lat="47.69263" lon="2.0480936">
        <ele>173</ele>
        <time>2022-01-20T09:55:40Z</time>
      </trkpt>
      <trkpt lat="47.69263" lon="2.048072">
        <ele>173</ele>
        <time>2022-01-20T09:55:41Z</time>
      </trkpt>
      <trkpt lat="47.692635" lon="2.0480535">
        <ele>173</ele>
        <time>2022-01-20T09:55:42Z</time>
      </trkpt>
      <trkpt lat="47.692642" lon="2.0480332">
        <ele>172</ele>
        <time>2022-01-20T09:55:43Z</time>
      </trkpt>
      <trkpt lat="47.692646" lon="2.0480099">
        <ele>172</ele>
        <time>2022-01-20T09:55:44Z</time>
      </trkpt>
      <trkpt lat="47.69265" lon="2.0479908">
        <ele>172</ele>
        <time>2022-01-20T09:55:45Z</time>
      </trkpt>
      <trkpt lat="47.692654" lon="2.047974">
        <ele>172</ele>
        <time>2022-01-20T09:55:46Z</time>
      </trkpt>
      <trkpt lat="47.692654" lon="2.0479546">
        <ele>173</ele>
        <time>2022-01-20T09:55:47Z</time>
      </trkpt>
      <trkpt lat="47.692657" lon="2.0479376">
        <ele>173</ele>
        <time>2022-01-20T09:55:48Z</time>
      </trkpt>
      <trkpt lat="47.69266" lon="2.047922">
        <ele>173</ele>
        <time>2022-01-20T09:55:49Z</time>
      </trkpt>
      <trkpt lat="47.69266" lon="2.047904">
        <ele>173</ele>
        <time>2022-01-20T09:55:50Z</time>
      </trkpt>
      <trkpt lat="47.692665" lon="2.0478864">
        <ele>173</ele>
        <time>2022-01-20T09:55:51Z</time>
      </trkpt>
      <trkpt lat="47.692665" lon="2.0478702">
        <ele>173</ele>
        <time>2022-01-20T09:55:52Z</time>
      </trkpt>
      <trkpt lat="47.692665" lon="2.0478523">
        <ele>173</ele>
        <time>2022-01-20T09:55:53Z</time>
      </trkpt>
      <trkpt lat="47.69267" lon="2.0478323">
        <ele>173</ele>
        <time>2022-01-20T09:55:54Z</time>
      </trkpt>
      <trkpt lat="47.692673" lon="2.0478156">
        <ele>173</ele>
        <time>2022-01-20T09:55:55Z</time>
      </trkpt>
      <trkpt lat="47.692673" lon="2.0477946">
        <ele>173</ele>
        <time>2022-01-20T09:55:56Z</time>
      </trkpt>
      <trkpt lat="47.692673" lon="2.0477781">
        <ele>173</ele>
        <time>2022-01-20T09:55:57Z</time>
      </trkpt>
      <trkpt lat="47.692677" lon="2.0477626">
        <ele>173</ele>
        <time>2022-01-20T09:55:58Z</time>
      </trkpt>
      <trkpt lat="47.69268" lon="2.047747">
        <ele>173</ele>
        <time>2022-01-20T09:55:59Z</time>
      </trkpt>
      <trkpt lat="47.692684" lon="2.0477355">
        <ele>173</ele>
        <time>2022-01-20T09:56:00Z</time>
      </trkpt>
      <trkpt lat="47.692684" lon="2.0477211">
        <ele>173</ele>
        <time>2022-01-20T09:56:01Z</time>
      </trkpt>
      <trkpt lat="47.692688" lon="2.0477064">
        <ele>173</ele>
        <time>2022-01-20T09:56:02Z</time>
      </trkpt>
      <trkpt lat="47.692688" lon="2.0476885">
        <ele>173</ele>
        <time>2022-01-20T09:56:03Z</time>
      </trkpt>
      <trkpt lat="47.69269" lon="2.0476804">
        <ele>173</ele>
        <time>2022-01-20T09:56:04Z</time>
      </trkpt>
      <trkpt lat="47.692696" lon="2.0476744">
        <ele>173</ele>
        <time>2022-01-20T09:56:05Z</time>
      </trkpt>
      <trkpt lat="47.692703" lon="2.0476625">
        <ele>173</ele>
        <time>2022-01-20T09:56:06Z</time>
      </trkpt>
      <trkpt lat="47.692707" lon="2.0476491">
        <ele>173</ele>
        <time>2022-01-20T09:56:07Z</time>
      </trkpt>
      <trkpt lat="47.69271" lon="2.0476274">
        <ele>173</ele>
        <time>2022-01-20T09:56:08Z</time>
      </trkpt>
      <trkpt lat="47.692715" lon="2.0476117">
        <ele>173</ele>
        <time>2022-01-20T09:56:09Z</time>
      </trkpt>
      <trkpt lat="47.692715" lon="2.0476">
        <ele>173</ele>
        <time>2022-01-20T09:56:10Z</time>
      </trkpt>
      <trkpt lat="47.692715" lon="2.047585">
        <ele>173</ele>
        <time>2022-01-20T09:56:11Z</time>
      </trkpt>
      <trkpt lat="47.692715" lon="2.0475752">
        <ele>173</ele>
        <time>2022-01-20T09:56:12Z</time>
      </trkpt>
      <trkpt lat="47.69272" lon="2.0475664">
        <ele>173</ele>
        <time>2022-01-20T09:56:13Z</time>
      </trkpt>
      <trkpt lat="47.692715" lon="2.0475552">
        <ele>173</ele>
        <time>2022-01-20T09:56:14Z</time>
      </trkpt>
      <trkpt lat="47.692722" lon="2.0475364">
        <ele>173</ele>
        <time>2022-01-20T09:56:15Z</time>
      </trkpt>
      <trkpt lat="47.69273" lon="2.04752">
        <ele>173</ele>
        <time>2022-01-20T09:56:16Z</time>
      </trkpt>
      <trkpt lat="47.692734" lon="2.0475035">
        <ele>172</ele>
        <time>2022-01-20T09:56:17Z</time>
      </trkpt>
      <trkpt lat="47.692734" lon="2.0474868">
        <ele>172</ele>
        <time>2022-01-20T09:56:18Z</time>
      </trkpt>
      <trkpt lat="47.692734" lon="2.0474706">
        <ele>172</ele>
        <time>2022-01-20T09:56:19Z</time>
      </trkpt>
      <trkpt lat="47.69273" lon="2.0474555">
        <ele>172</ele>
        <time>2022-01-20T09:56:20Z</time>
      </trkpt>
      <trkpt lat="47.69273" lon="2.047447">
        <ele>172</ele>
        <time>2022-01-20T09:56:21Z</time>
      </trkpt>
      <trkpt lat="47.692726" lon="2.0474336">
        <ele>172</ele>
        <time>2022-01-20T09:56:22Z</time>
      </trkpt>
      <trkpt lat="47.69273" lon="2.0474195">
        <ele>171</ele>
        <time>2022-01-20T09:56:23Z</time>
      </trkpt>
      <trkpt lat="47.692734" lon="2.0474057">
        <ele>171</ele>
        <time>2022-01-20T09:56:24Z</time>
      </trkpt>
      <trkpt lat="47.692734" lon="2.047393">
        <ele>171</ele>
        <time>2022-01-20T09:56:25Z</time>
      </trkpt>
      <trkpt lat="47.692734" lon="2.047378">
        <ele>171</ele>
        <time>2022-01-20T09:56:26Z</time>
      </trkpt>
      <trkpt lat="47.69274" lon="2.0473597">
        <ele>171</ele>
        <time>2022-01-20T09:56:27Z</time>
      </trkpt>
      <trkpt lat="47.692745" lon="2.0473404">
        <ele>171</ele>
        <time>2022-01-20T09:56:28Z</time>
      </trkpt>
      <trkpt lat="47.692745" lon="2.0473223">
        <ele>171</ele>
        <time>2022-01-20T09:56:29Z</time>
      </trkpt>
      <trkpt lat="47.692745" lon="2.047307">
        <ele>171</ele>
        <time>2022-01-20T09:56:30Z</time>
      </trkpt>
      <trkpt lat="47.692745" lon="2.04729">
        <ele>171</ele>
        <time>2022-01-20T09:56:31Z</time>
      </trkpt>
      <trkpt lat="47.69275" lon="2.047273">
        <ele>171</ele>
        <time>2022-01-20T09:56:32Z</time>
      </trkpt>
      <trkpt lat="47.692753" lon="2.0472572">
        <ele>171</ele>
        <time>2022-01-20T09:56:33Z</time>
      </trkpt>
      <trkpt lat="47.692757" lon="2.0472386">
        <ele>171</ele>
        <time>2022-01-20T09:56:34Z</time>
      </trkpt>
      <trkpt lat="47.692757" lon="2.0472274">
        <ele>171</ele>
        <time>2022-01-20T09:56:35Z</time>
      </trkpt>
      <trkpt lat="47.692764" lon="2.0472102">
        <ele>171</ele>
        <time>2022-01-20T09:56:36Z</time>
      </trkpt>
      <trkpt lat="47.69277" lon="2.047192">
        <ele>171</ele>
        <time>2022-01-20T09:56:37Z</time>
      </trkpt>
      <trkpt lat="47.692776" lon="2.0471733">
        <ele>171</ele>
        <time>2022-01-20T09:56:38Z</time>
      </trkpt>
      <trkpt lat="47.69278" lon="2.0471575">
        <ele>171</ele>
        <time>2022-01-20T09:56:39Z</time>
      </trkpt>
      <trkpt lat="47.692783" lon="2.0471435">
        <ele>171</ele>
        <time>2022-01-20T09:56:40Z</time>
      </trkpt>
      <trkpt lat="47.692783" lon="2.0471306">
        <ele>171</ele>
        <time>2022-01-20T09:56:41Z</time>
      </trkpt>
      <trkpt lat="47.692783" lon="2.047118">
        <ele>171</ele>
        <time>2022-01-20T09:56:42Z</time>
      </trkpt>
      <trkpt lat="47.692787" lon="2.0471048">
        <ele>171</ele>
        <time>2022-01-20T09:56:43Z</time>
      </trkpt>
      <trkpt lat="47.692795" lon="2.047089">
        <ele>171</ele>
        <time>2022-01-20T09:56:44Z</time>
      </trkpt>
      <trkpt lat="47.6928" lon="2.0470784">
        <ele>171</ele>
        <time>2022-01-20T09:56:45Z</time>
      </trkpt>
      <trkpt lat="47.692802" lon="2.047066">
        <ele>171</ele>
        <time>2022-01-20T09:56:46Z</time>
      </trkpt>
      <trkpt lat="47.692806" lon="2.0470495">
        <ele>171</ele>
        <time>2022-01-20T09:56:47Z</time>
      </trkpt>
      <trkpt lat="47.692806" lon="2.0470333">
        <ele>171</ele>
        <time>2022-01-20T09:56:48Z</time>
      </trkpt>
      <trkpt lat="47.69281" lon="2.04702">
        <ele>171</ele>
        <time>2022-01-20T09:56:49Z</time>
      </trkpt>
      <trkpt lat="47.692814" lon="2.0470052">
        <ele>172</ele>
        <time>2022-01-20T09:56:50Z</time>
      </trkpt>
      <trkpt lat="47.69281" lon="2.0469873">
        <ele>172</ele>
        <time>2022-01-20T09:56:51Z</time>
      </trkpt>
      <trkpt lat="47.69281" lon="2.0469763">
        <ele>172</ele>
        <time>2022-01-20T09:56:52Z</time>
      </trkpt>
      <trkpt lat="47.69281" lon="2.046963">
        <ele>172</ele>
        <time>2022-01-20T09:56:53Z</time>
      </trkpt>
      <trkpt lat="47.692814" lon="2.0469515">
        <ele>172</ele>
        <time>2022-01-20T09:56:54Z</time>
      </trkpt>
      <trkpt lat="47.69282" lon="2.046929">
        <ele>171</ele>
        <time>2022-01-20T09:56:55Z</time>
      </trkpt>
      <trkpt lat="47.692818" lon="2.0469103">
        <ele>171</ele>
        <time>2022-01-20T09:56:56Z</time>
      </trkpt>
      <trkpt lat="47.692814" lon="2.0468962">
        <ele>171</ele>
        <time>2022-01-20T09:56:57Z</time>
      </trkpt>
      <trkpt lat="47.692814" lon="2.04688">
        <ele>171</ele>
        <time>2022-01-20T09:56:58Z</time>
      </trkpt>
      <trkpt lat="47.692818" lon="2.0468626">
        <ele>171</ele>
        <time>2022-01-20T09:56:59Z</time>
      </trkpt>
      <trkpt lat="47.69282" lon="2.0468512">
        <ele>171</ele>
        <time>2022-01-20T09:57:00Z</time>
      </trkpt>
      <trkpt lat="47.69282" lon="2.0468354">
        <ele>171</ele>
        <time>2022-01-20T09:57:01Z</time>
      </trkpt>
      <trkpt lat="47.69282" lon="2.046824">
        <ele>171</ele>
        <time>2022-01-20T09:57:02Z</time>
      </trkpt>
      <trkpt lat="47.69282" lon="2.0468104">
        <ele>171</ele>
        <time>2022-01-20T09:57:03Z</time>
      </trkpt>
      <trkpt lat="47.69282" lon="2.0467947">
        <ele>172</ele>
        <time>2022-01-20T09:57:04Z</time>
      </trkpt>
      <trkpt lat="47.69282" lon="2.0467765">
        <ele>172</ele>
        <time>2022-01-20T09:57:05Z</time>
      </trkpt>
      <trkpt lat="47.69283" lon="2.0467591">
        <ele>173</ele>
        <time>2022-01-20T09:57:06Z</time>
      </trkpt>
      <trkpt lat="47.692837" lon="2.0467367">
        <ele>173</ele>
        <time>2022-01-20T09:57:07Z</time>
      </trkpt>
      <trkpt lat="47.692844" lon="2.0467246">
        <ele>172</ele>
        <time>2022-01-20T09:57:08Z</time>
      </trkpt>
      <trkpt lat="47.692844" lon="2.0467103">
        <ele>172</ele>
        <time>2022-01-20T09:57:09Z</time>
      </trkpt>
      <trkpt lat="47.692852" lon="2.0466955">
        <ele>171</ele>
        <time>2022-01-20T09:57:10Z</time>
      </trkpt>
      <trkpt lat="47.69285" lon="2.0466864">
        <ele>172</ele>
        <time>2022-01-20T09:57:11Z</time>
      </trkpt>
      <trkpt lat="47.69285" lon="2.0466864">
        <ele>172</ele>
        <time>2022-01-20T09:57:12Z</time>
      </trkpt>
      <trkpt lat="47.692852" lon="2.0466588">
        <ele>172</ele>
        <time>2022-01-20T09:57:13Z</time>
      </trkpt>
      <trkpt lat="47.692852" lon="2.0466492">
        <ele>172</ele>
        <time>2022-01-20T09:57:14Z</time>
      </trkpt>
      <trkpt lat="47.692856" lon="2.0466344">
        <ele>171</ele>
        <time>2022-01-20T09:57:15Z</time>
      </trkpt>
      <trkpt lat="47.692856" lon="2.0466156">
        <ele>171</ele>
        <time>2022-01-20T09:57:16Z</time>
      </trkpt>
      <trkpt lat="47.692856" lon="2.046596">
        <ele>172</ele>
        <time>2022-01-20T09:57:17Z</time>
      </trkpt>
      <trkpt lat="47.692856" lon="2.0465794">
        <ele>171</ele>
        <time>2022-01-20T09:57:18Z</time>
      </trkpt>
      <trkpt lat="47.692856" lon="2.0465598">
        <ele>171</ele>
        <time>2022-01-20T09:57:19Z</time>
      </trkpt>
      <trkpt lat="47.692856" lon="2.0465424">
        <ele>172</ele>
        <time>2022-01-20T09:57:20Z</time>
      </trkpt>
      <trkpt lat="47.692852" lon="2.0465217">
        <ele>172</ele>
        <time>2022-01-20T09:57:21Z</time>
      </trkpt>
      <trkpt lat="47.69285" lon="2.046505">
        <ele>172</ele>
        <time>2022-01-20T09:57:22Z</time>
      </trkpt>
      <trkpt lat="47.692852" lon="2.0464854">
        <ele>172</ele>
        <time>2022-01-20T09:57:23Z</time>
      </trkpt>
      <trkpt lat="47.692852" lon="2.046466">
        <ele>172</ele>
        <time>2022-01-20T09:57:24Z</time>
      </trkpt>
      <trkpt lat="47.692852" lon="2.0464458">
        <ele>172</ele>
        <time>2022-01-20T09:57:25Z</time>
      </trkpt>
      <trkpt lat="47.692852" lon="2.04643">
        <ele>172</ele>
        <time>2022-01-20T09:57:26Z</time>
      </trkpt>
      <trkpt lat="47.692856" lon="2.046412">
        <ele>172</ele>
        <time>2022-01-20T09:57:27Z</time>
      </trkpt>
      <trkpt lat="47.692852" lon="2.0463953">
        <ele>172</ele>
        <time>2022-01-20T09:57:28Z</time>
      </trkpt>
      <trkpt lat="47.692852" lon="2.0463743">
        <ele>172</ele>
        <time>2022-01-20T09:57:29Z</time>
      </trkpt>
      <trkpt lat="47.692856" lon="2.0463555">
        <ele>172</ele>
        <time>2022-01-20T09:57:30Z</time>
      </trkpt>
      <trkpt lat="47.69286" lon="2.0463383">
        <ele>172</ele>
        <time>2022-01-20T09:57:31Z</time>
      </trkpt>
      <trkpt lat="47.692863" lon="2.0463161">
        <ele>172</ele>
        <time>2022-01-20T09:57:32Z</time>
      </trkpt>
      <trkpt lat="47.692867" lon="2.0462954">
        <ele>172</ele>
        <time>2022-01-20T09:57:33Z</time>
      </trkpt>
      <trkpt lat="47.69287" lon="2.0462747">
        <ele>172</ele>
        <time>2022-01-20T09:57:34Z</time>
      </trkpt>
      <trkpt lat="47.692875" lon="2.0462594">
        <ele>172</ele>
        <time>2022-01-20T09:57:35Z</time>
      </trkpt>
      <trkpt lat="47.692883" lon="2.0462434">
        <ele>172</ele>
        <time>2022-01-20T09:57:36Z</time>
      </trkpt>
      <trkpt lat="47.692886" lon="2.0462253">
        <ele>172</ele>
        <time>2022-01-20T09:57:37Z</time>
      </trkpt>
      <trkpt lat="47.692886" lon="2.046207">
        <ele>172</ele>
        <time>2022-01-20T09:57:38Z</time>
      </trkpt>
      <trkpt lat="47.692886" lon="2.0461879">
        <ele>172</ele>
        <time>2022-01-20T09:57:39Z</time>
      </trkpt>
      <trkpt lat="47.692883" lon="2.0461688">
        <ele>172</ele>
        <time>2022-01-20T09:57:40Z</time>
      </trkpt>
      <trkpt lat="47.692883" lon="2.0461488">
        <ele>172</ele>
        <time>2022-01-20T09:57:41Z</time>
      </trkpt>
      <trkpt lat="47.692886" lon="2.0461364">
        <ele>172</ele>
        <time>2022-01-20T09:57:42Z</time>
      </trkpt>
      <trkpt lat="47.69289" lon="2.0461285">
        <ele>172</ele>
        <time>2022-01-20T09:57:43Z</time>
      </trkpt>
      <trkpt lat="47.69289" lon="2.0461085">
        <ele>172</ele>
        <time>2022-01-20T09:57:44Z</time>
      </trkpt>
      <trkpt lat="47.692898" lon="2.0460956">
        <ele>172</ele>
        <time>2022-01-20T09:57:45Z</time>
      </trkpt>
      <trkpt lat="47.692905" lon="2.0460808">
        <ele>173</ele>
        <time>2022-01-20T09:57:46Z</time>
      </trkpt>
      <trkpt lat="47.692913" lon="2.04606">
        <ele>173</ele>
        <time>2022-01-20T09:57:47Z</time>
      </trkpt>
      <trkpt lat="47.692917" lon="2.046045">
        <ele>173</ele>
        <time>2022-01-20T09:57:48Z</time>
      </trkpt>
      <trkpt lat="47.69292" lon="2.0460284">
        <ele>173</ele>
        <time>2022-01-20T09:57:49Z</time>
      </trkpt>
      <trkpt lat="47.692924" lon="2.0460093">
        <ele>173</ele>
        <time>2022-01-20T09:57:50Z</time>
      </trkpt>
      <trkpt lat="47.692932" lon="2.0459845">
        <ele>173</ele>
        <time>2022-01-20T09:57:51Z</time>
      </trkpt>
      <trkpt lat="47.692932" lon="2.0459645">
        <ele>173</ele>
        <time>2022-01-20T09:57:52Z</time>
      </trkpt>
      <trkpt lat="47.692932" lon="2.0459492">
        <ele>174</ele>
        <time>2022-01-20T09:57:53Z</time>
      </trkpt>
      <trkpt lat="47.69293" lon="2.0459306">
        <ele>174</ele>
        <time>2022-01-20T09:57:54Z</time>
      </trkpt>
      <trkpt lat="47.69293" lon="2.0459113">
        <ele>174</ele>
        <time>2022-01-20T09:57:55Z</time>
      </trkpt>
      <trkpt lat="47.692924" lon="2.0458882">
        <ele>174</ele>
        <time>2022-01-20T09:57:56Z</time>
      </trkpt>
      <trkpt lat="47.692924" lon="2.0458663">
        <ele>174</ele>
        <time>2022-01-20T09:57:57Z</time>
      </trkpt>
      <trkpt lat="47.69293" lon="2.0458415">
        <ele>175</ele>
        <time>2022-01-20T09:57:58Z</time>
      </trkpt>
      <trkpt lat="47.692936" lon="2.0458152">
        <ele>174</ele>
        <time>2022-01-20T09:57:59Z</time>
      </trkpt>
      <trkpt lat="47.692944" lon="2.0457978">
        <ele>174</ele>
        <time>2022-01-20T09:58:00Z</time>
      </trkpt>
      <trkpt lat="47.692947" lon="2.0457788">
        <ele>174</ele>
        <time>2022-01-20T09:58:01Z</time>
      </trkpt>
      <trkpt lat="47.69295" lon="2.045757">
        <ele>173</ele>
        <time>2022-01-20T09:58:02Z</time>
      </trkpt>
      <trkpt lat="47.69295" lon="2.0457346">
        <ele>174</ele>
        <time>2022-01-20T09:58:03Z</time>
      </trkpt>
      <trkpt lat="47.69295" lon="2.045719">
        <ele>173</ele>
        <time>2022-01-20T09:58:04Z</time>
      </trkpt>
      <trkpt lat="47.69295" lon="2.0457013">
        <ele>173</ele>
        <time>2022-01-20T09:58:05Z</time>
      </trkpt>
      <trkpt lat="47.692947" lon="2.0456812">
        <ele>173</ele>
        <time>2022-01-20T09:58:06Z</time>
      </trkpt>
      <trkpt lat="47.692947" lon="2.0456614">
        <ele>173</ele>
        <time>2022-01-20T09:58:07Z</time>
      </trkpt>
      <trkpt lat="47.692947" lon="2.0456483">
        <ele>173</ele>
        <time>2022-01-20T09:58:08Z</time>
      </trkpt>
      <trkpt lat="47.692944" lon="2.0456364">
        <ele>173</ele>
        <time>2022-01-20T09:58:09Z</time>
      </trkpt>
      <trkpt lat="47.692944" lon="2.0456245">
        <ele>173</ele>
        <time>2022-01-20T09:58:10Z</time>
      </trkpt>
      <trkpt lat="47.692947" lon="2.045615">
        <ele>173</ele>
        <time>2022-01-20T09:58:11Z</time>
      </trkpt>
      <trkpt lat="47.692955" lon="2.045605">
        <ele>173</ele>
        <time>2022-01-20T09:58:12Z</time>
      </trkpt>
      <trkpt lat="47.69296" lon="2.0455947">
        <ele>174</ele>
        <time>2022-01-20T09:58:13Z</time>
      </trkpt>
      <trkpt lat="47.692963" lon="2.0455825">
        <ele>174</ele>
        <time>2022-01-20T09:58:14Z</time>
      </trkpt>
      <trkpt lat="47.692963" lon="2.0455654">
        <ele>174</ele>
        <time>2022-01-20T09:58:15Z</time>
      </trkpt>
      <trkpt lat="47.692966" lon="2.0455523">
        <ele>174</ele>
        <time>2022-01-20T09:58:16Z</time>
      </trkpt>
      <trkpt lat="47.69297" lon="2.0455406">
        <ele>174</ele>
        <time>2022-01-20T09:58:17Z</time>
      </trkpt>
      <trkpt lat="47.69297" lon="2.0455284">
        <ele>174</ele>
        <time>2022-01-20T09:58:18Z</time>
      </trkpt>
      <trkpt lat="47.692978" lon="2.0455167">
        <ele>174</ele>
        <time>2022-01-20T09:58:19Z</time>
      </trkpt>
      <trkpt lat="47.69298" lon="2.0455081">
        <ele>174</ele>
        <time>2022-01-20T09:58:20Z</time>
      </trkpt>
      <trkpt lat="47.692986" lon="2.0454955">
        <ele>174</ele>
        <time>2022-01-20T09:58:21Z</time>
      </trkpt>
      <trkpt lat="47.69299" lon="2.0454834">
        <ele>174</ele>
        <time>2022-01-20T09:58:22Z</time>
      </trkpt>
      <trkpt lat="47.69299" lon="2.0454717">
        <ele>174</ele>
        <time>2022-01-20T09:58:23Z</time>
      </trkpt>
      <trkpt lat="47.69299" lon="2.0454586">
        <ele>174</ele>
        <time>2022-01-20T09:58:24Z</time>
      </trkpt>
      <trkpt lat="47.69299" lon="2.045442">
        <ele>174</ele>
        <time>2022-01-20T09:58:25Z</time>
      </trkpt>
      <trkpt lat="47.692993" lon="2.045425">
        <ele>174</ele>
        <time>2022-01-20T09:58:26Z</time>
      </trkpt>
      <trkpt lat="47.692993" lon="2.0454047">
        <ele>174</ele>
        <time>2022-01-20T09:58:27Z</time>
      </trkpt>
      <trkpt lat="47.692997" lon="2.0453827">
        <ele>174</ele>
        <time>2022-01-20T09:58:28Z</time>
      </trkpt>
      <trkpt lat="47.693" lon="2.0453708">
        <ele>174</ele>
        <time>2022-01-20T09:58:29Z</time>
      </trkpt>
      <trkpt lat="47.693005" lon="2.0453572">
        <ele>173</ele>
        <time>2022-01-20T09:58:30Z</time>
      </trkpt>
      <trkpt lat="47.69301" lon="2.0453415">
        <ele>173</ele>
        <time>2022-01-20T09:58:31Z</time>
      </trkpt>
      <trkpt lat="47.693005" lon="2.0453274">
        <ele>173</ele>
        <time>2022-01-20T09:58:32Z</time>
      </trkpt>
      <trkpt lat="47.693" lon="2.0453136">
        <ele>172</ele>
        <time>2022-01-20T09:58:33Z</time>
      </trkpt>
      <trkpt lat="47.692997" lon="2.0452964">
        <ele>173</ele>
        <time>2022-01-20T09:58:34Z</time>
      </trkpt>
      <trkpt lat="47.692997" lon="2.0452821">
        <ele>173</ele>
        <time>2022-01-20T09:58:35Z</time>
      </trkpt>
      <trkpt lat="47.692993" lon="2.0452673">
        <ele>173</ele>
        <time>2022-01-20T09:58:36Z</time>
      </trkpt>
      <trkpt lat="47.692993" lon="2.0452554">
        <ele>172</ele>
        <time>2022-01-20T09:58:37Z</time>
      </trkpt>
      <trkpt lat="47.692997" lon="2.0452454">
        <ele>172</ele>
        <time>2022-01-20T09:58:38Z</time>
      </trkpt>
      <trkpt lat="47.692997" lon="2.0452454">
        <ele>172</ele>
        <time>2022-01-20T09:58:39Z</time>
      </trkpt>
      <trkpt lat="47.692997" lon="2.0452454">
        <ele>172</ele>
        <time>2022-01-20T09:58:40Z</time>
      </trkpt>
      <trkpt lat="47.69301" lon="2.04522">
        <ele>172</ele>
        <time>2022-01-20T09:58:41Z</time>
      </trkpt>
      <trkpt lat="47.693012" lon="2.0452113">
        <ele>172</ele>
        <time>2022-01-20T09:58:42Z</time>
      </trkpt>
      <trkpt lat="47.693016" lon="2.045197">
        <ele>172</ele>
        <time>2022-01-20T09:58:43Z</time>
      </trkpt>
      <trkpt lat="47.69302" lon="2.0451777">
        <ele>171</ele>
        <time>2022-01-20T09:58:44Z</time>
      </trkpt>
      <trkpt lat="47.69302" lon="2.0451572">
        <ele>171</ele>
        <time>2022-01-20T09:58:45Z</time>
      </trkpt>
      <trkpt lat="47.693024" lon="2.0451367">
        <ele>171</ele>
        <time>2022-01-20T09:58:46Z</time>
      </trkpt>
      <trkpt lat="47.693027" lon="2.045118">
        <ele>171</ele>
        <time>2022-01-20T09:58:47Z</time>
      </trkpt>
      <trkpt lat="47.693027" lon="2.0451093">
        <ele>170</ele>
        <time>2022-01-20T09:58:48Z</time>
      </trkpt>
      <trkpt lat="47.69303" lon="2.0451064">
        <ele>170</ele>
        <time>2022-01-20T09:58:49Z</time>
      </trkpt>
      <trkpt lat="47.69303" lon="2.0450938">
        <ele>170</ele>
        <time>2022-01-20T09:58:50Z</time>
      </trkpt>
      <trkpt lat="47.693035" lon="2.0450814">
        <ele>170</ele>
        <time>2022-01-20T09:58:51Z</time>
      </trkpt>
      <trkpt lat="47.69304" lon="2.0450654">
        <ele>170</ele>
        <time>2022-01-20T09:58:52Z</time>
      </trkpt>
      <trkpt lat="47.693047" lon="2.0450487">
        <ele>170</ele>
        <time>2022-01-20T09:58:53Z</time>
      </trkpt>
      <trkpt lat="47.693054" lon="2.0450351">
        <ele>170</ele>
        <time>2022-01-20T09:58:54Z</time>
      </trkpt>
      <trkpt lat="47.693058" lon="2.0450177">
        <ele>170</ele>
        <time>2022-01-20T09:58:55Z</time>
      </trkpt>
      <trkpt lat="47.69306" lon="2.0450099">
        <ele>170</ele>
        <time>2022-01-20T09:58:56Z</time>
      </trkpt>
      <trkpt lat="47.693066" lon="2.045003">
        <ele>170</ele>
        <time>2022-01-20T09:58:57Z</time>
      </trkpt>
      <trkpt lat="47.693077" lon="2.044996">
        <ele>170</ele>
        <time>2022-01-20T09:58:58Z</time>
      </trkpt>
      <trkpt lat="47.693085" lon="2.0449817">
        <ele>170</ele>
        <time>2022-01-20T09:58:59Z</time>
      </trkpt>
      <trkpt lat="47.69309" lon="2.0449657">
        <ele>170</ele>
        <time>2022-01-20T09:59:00Z</time>
      </trkpt>
      <trkpt lat="47.6931" lon="2.0449433">
        <ele>170</ele>
        <time>2022-01-20T09:59:01Z</time>
      </trkpt>
      <trkpt lat="47.693108" lon="2.044921">
        <ele>170</ele>
        <time>2022-01-20T09:59:02Z</time>
      </trkpt>
      <trkpt lat="47.69311" lon="2.0449052">
        <ele>170</ele>
        <time>2022-01-20T09:59:03Z</time>
      </trkpt>
      <trkpt lat="47.69312" lon="2.0448906">
        <ele>171</ele>
        <time>2022-01-20T09:59:04Z</time>
      </trkpt>
      <trkpt lat="47.693127" lon="2.0448797">
        <ele>170</ele>
        <time>2022-01-20T09:59:05Z</time>
      </trkpt>
      <trkpt lat="47.69313" lon="2.0448608">
        <ele>170</ele>
        <time>2022-01-20T09:59:06Z</time>
      </trkpt>
      <trkpt lat="47.693134" lon="2.0448427">
        <ele>170</ele>
        <time>2022-01-20T09:59:07Z</time>
      </trkpt>
      <trkpt lat="47.69314" lon="2.0448327">
        <ele>170</ele>
        <time>2022-01-20T09:59:08Z</time>
      </trkpt>
      <trkpt lat="47.693146" lon="2.0448234">
        <ele>170</ele>
        <time>2022-01-20T09:59:09Z</time>
      </trkpt>
      <trkpt lat="47.69315" lon="2.0448182">
        <ele>170</ele>
        <time>2022-01-20T09:59:10Z</time>
      </trkpt>
      <trkpt lat="47.693157" lon="2.0448074">
        <ele>170</ele>
        <time>2022-01-20T09:59:11Z</time>
      </trkpt>
      <trkpt lat="47.69316" lon="2.044794">
        <ele>170</ele>
        <time>2022-01-20T09:59:12Z</time>
      </trkpt>
      <trkpt lat="47.693165" lon="2.0447805">
        <ele>170</ele>
        <time>2022-01-20T09:59:13Z</time>
      </trkpt>
      <trkpt lat="47.693172" lon="2.0447602">
        <ele>170</ele>
        <time>2022-01-20T09:59:14Z</time>
      </trkpt>
      <trkpt lat="47.69318" lon="2.0447464">
        <ele>170</ele>
        <time>2022-01-20T09:59:15Z</time>
      </trkpt>
      <trkpt lat="47.69319" lon="2.0447412">
        <ele>170</ele>
        <time>2022-01-20T09:59:16Z</time>
      </trkpt>
      <trkpt lat="47.693195" lon="2.0447383">
        <ele>170</ele>
        <time>2022-01-20T09:59:17Z</time>
      </trkpt>
      <trkpt lat="47.6932" lon="2.0447278">
        <ele>169</ele>
        <time>2022-01-20T09:59:18Z</time>
      </trkpt>
      <trkpt lat="47.6932" lon="2.0447114">
        <ele>170</ele>
        <time>2022-01-20T09:59:19Z</time>
      </trkpt>
      <trkpt lat="47.6932" lon="2.0446968">
        <ele>169</ele>
        <time>2022-01-20T09:59:20Z</time>
      </trkpt>
      <trkpt lat="47.693203" lon="2.0446818">
        <ele>169</ele>
        <time>2022-01-20T09:59:21Z</time>
      </trkpt>
      <trkpt lat="47.693207" lon="2.0446675">
        <ele>168</ele>
        <time>2022-01-20T09:59:22Z</time>
      </trkpt>
      <trkpt lat="47.693207" lon="2.0446544">
        <ele>168</ele>
        <time>2022-01-20T09:59:23Z</time>
      </trkpt>
      <trkpt lat="47.69321" lon="2.044643">
        <ele>168</ele>
        <time>2022-01-20T09:59:24Z</time>
      </trkpt>
      <trkpt lat="47.693207" lon="2.0446222">
        <ele>168</ele>
        <time>2022-01-20T09:59:25Z</time>
      </trkpt>
      <trkpt lat="47.69321" lon="2.0445695">
        <ele>168</ele>
        <time>2022-01-20T09:59:26Z</time>
      </trkpt>
      <trkpt lat="47.69321" lon="2.0445194">
        <ele>169</ele>
        <time>2022-01-20T09:59:27Z</time>
      </trkpt>
      <trkpt lat="47.693214" lon="2.0444891">
        <ele>169</ele>
        <time>2022-01-20T09:59:28Z</time>
      </trkpt>
      <trkpt lat="47.693214" lon="2.044467">
        <ele>168</ele>
        <time>2022-01-20T09:59:29Z</time>
      </trkpt>
      <trkpt lat="47.693226" lon="2.044444">
        <ele>169</ele>
        <time>2022-01-20T09:59:30Z</time>
      </trkpt>
      <trkpt lat="47.693233" lon="2.0444264">
        <ele>169</ele>
        <time>2022-01-20T09:59:31Z</time>
      </trkpt>
      <trkpt lat="47.69323" lon="2.0444052">
        <ele>169</ele>
        <time>2022-01-20T09:59:32Z</time>
      </trkpt>
      <trkpt lat="47.693233" lon="2.0443902">
        <ele>169</ele>
        <time>2022-01-20T09:59:33Z</time>
      </trkpt>
      <trkpt lat="47.693237" lon="2.0443718">
        <ele>169</ele>
        <time>2022-01-20T09:59:34Z</time>
      </trkpt>
      <trkpt lat="47.69324" lon="2.0443604">
        <ele>169</ele>
        <time>2022-01-20T09:59:35Z</time>
      </trkpt>
      <trkpt lat="47.69325" lon="2.0443463">
        <ele>170</ele>
        <time>2022-01-20T09:59:36Z</time>
      </trkpt>
      <trkpt lat="47.69326" lon="2.0443244">
        <ele>170</ele>
        <time>2022-01-20T09:59:37Z</time>
      </trkpt>
      <trkpt lat="47.693264" lon="2.0443048">
        <ele>170</ele>
        <time>2022-01-20T09:59:38Z</time>
      </trkpt>
      <trkpt lat="47.69327" lon="2.044293">
        <ele>170</ele>
        <time>2022-01-20T09:59:39Z</time>
      </trkpt>
      <trkpt lat="47.693275" lon="2.0442798">
        <ele>170</ele>
        <time>2022-01-20T09:59:40Z</time>
      </trkpt>
      <trkpt lat="47.693275" lon="2.0442662">
        <ele>170</ele>
        <time>2022-01-20T09:59:41Z</time>
      </trkpt>
      <trkpt lat="47.69328" lon="2.0442514">
        <ele>169</ele>
        <time>2022-01-20T09:59:42Z</time>
      </trkpt>
      <trkpt lat="47.693287" lon="2.0442429">
        <ele>169</ele>
        <time>2022-01-20T09:59:43Z</time>
      </trkpt>
      <trkpt lat="47.693295" lon="2.044225">
        <ele>169</ele>
        <time>2022-01-20T09:59:44Z</time>
      </trkpt>
      <trkpt lat="47.693302" lon="2.0442083">
        <ele>169</ele>
        <time>2022-01-20T09:59:45Z</time>
      </trkpt>
      <trkpt lat="47.693306" lon="2.0441937">
        <ele>168</ele>
        <time>2022-01-20T09:59:46Z</time>
      </trkpt>
      <trkpt lat="47.693306" lon="2.0441844">
        <ele>169</ele>
        <time>2022-01-20T09:59:47Z</time>
      </trkpt>
      <trkpt lat="47.693306" lon="2.0441656">
        <ele>169</ele>
        <time>2022-01-20T09:59:48Z</time>
      </trkpt>
      <trkpt lat="47.693306" lon="2.0441651">
        <ele>169</ele>
        <time>2022-01-20T09:59:49Z</time>
      </trkpt>
      <trkpt lat="47.693306" lon="2.044165">
        <ele>169</ele>
        <time>2022-01-20T09:59:50Z</time>
      </trkpt>
      <trkpt lat="47.693302" lon="2.0441513">
        <ele>169</ele>
        <time>2022-01-20T09:59:51Z</time>
      </trkpt>
      <trkpt lat="47.693306" lon="2.044134">
        <ele>170</ele>
        <time>2022-01-20T09:59:52Z</time>
      </trkpt>
      <trkpt lat="47.693314" lon="2.0441165">
        <ele>170</ele>
        <time>2022-01-20T09:59:53Z</time>
      </trkpt>
      <trkpt lat="47.69332" lon="2.044098">
        <ele>169</ele>
        <time>2022-01-20T09:59:54Z</time>
      </trkpt>
      <trkpt lat="47.69332" lon="2.0440755">
        <ele>169</ele>
        <time>2022-01-20T09:59:55Z</time>
      </trkpt>
      <trkpt lat="47.69333" lon="2.0440598">
        <ele>169</ele>
        <time>2022-01-20T09:59:56Z</time>
      </trkpt>
      <trkpt lat="47.693333" lon="2.0440395">
        <ele>169</ele>
        <time>2022-01-20T09:59:57Z</time>
      </trkpt>
      <trkpt lat="47.693336" lon="2.0440216">
        <ele>169</ele>
        <time>2022-01-20T09:59:58Z</time>
      </trkpt>
      <trkpt lat="47.69334" lon="2.044002">
        <ele>169</ele>
        <time>2022-01-20T09:59:59Z</time>
      </trkpt>
      <trkpt lat="47.693348" lon="2.043983">
        <ele>169</ele>
        <time>2022-01-20T10:00:00Z</time>
      </trkpt>
      <trkpt lat="47.693356" lon="2.043965">
        <ele>170</ele>
        <time>2022-01-20T10:00:01Z</time>
      </trkpt>
      <trkpt lat="47.693363" lon="2.0439582">
        <ele>170</ele>
        <time>2022-01-20T10:00:02Z</time>
      </trkpt>
      <trkpt lat="47.693367" lon="2.0439456">
        <ele>169</ele>
        <time>2022-01-20T10:00:03Z</time>
      </trkpt>
      <trkpt lat="47.69337" lon="2.0439322">
        <ele>169</ele>
        <time>2022-01-20T10:00:04Z</time>
      </trkpt>
      <trkpt lat="47.693375" lon="2.043915">
        <ele>169</ele>
        <time>2022-01-20T10:00:05Z</time>
      </trkpt>
      <trkpt lat="47.693382" lon="2.0439026">
        <ele>169</ele>
        <time>2022-01-20T10:00:06Z</time>
      </trkpt>
      <trkpt lat="47.693386" lon="2.0438912">
        <ele>169</ele>
        <time>2022-01-20T10:00:07Z</time>
      </trkpt>
      <trkpt lat="47.69339" lon="2.043883">
        <ele>168</ele>
        <time>2022-01-20T10:00:08Z</time>
      </trkpt>
      <trkpt lat="47.693394" lon="2.0438664">
        <ele>168</ele>
        <time>2022-01-20T10:00:09Z</time>
      </trkpt>
      <trkpt lat="47.693398" lon="2.0438507">
        <ele>168</ele>
        <time>2022-01-20T10:00:10Z</time>
      </trkpt>
      <trkpt lat="47.69341" lon="2.0438392">
        <ele>168</ele>
        <time>2022-01-20T10:00:11Z</time>
      </trkpt>
      <trkpt lat="47.693417" lon="2.043829">
        <ele>168</ele>
        <time>2022-01-20T10:00:12Z</time>
      </trkpt>
      <trkpt lat="47.69342" lon="2.04382">
        <ele>168</ele>
        <time>2022-01-20T10:00:13Z</time>
      </trkpt>
      <trkpt lat="47.693428" lon="2.0438104">
        <ele>169</ele>
        <time>2022-01-20T10:00:14Z</time>
      </trkpt>
      <trkpt lat="47.69344" lon="2.0438066">
        <ele>169</ele>
        <time>2022-01-20T10:00:15Z</time>
      </trkpt>
      <trkpt lat="47.693447" lon="2.0437982">
        <ele>169</ele>
        <time>2022-01-20T10:00:16Z</time>
      </trkpt>
      <trkpt lat="47.693455" lon="2.0437884">
        <ele>169</ele>
        <time>2022-01-20T10:00:17Z</time>
      </trkpt>
      <trkpt lat="47.69346" lon="2.0437765">
        <ele>169</ele>
        <time>2022-01-20T10:00:18Z</time>
      </trkpt>
      <trkpt lat="47.693462" lon="2.0437634">
        <ele>170</ele>
        <time>2022-01-20T10:00:19Z</time>
      </trkpt>
      <trkpt lat="47.693466" lon="2.04375">
        <ele>170</ele>
        <time>2022-01-20T10:00:20Z</time>
      </trkpt>
      <trkpt lat="47.69347" lon="2.0437343">
        <ele>170</ele>
        <time>2022-01-20T10:00:21Z</time>
      </trkpt>
      <trkpt lat="47.693478" lon="2.0437195">
        <ele>169</ele>
        <time>2022-01-20T10:00:22Z</time>
      </trkpt>
      <trkpt lat="47.69348" lon="2.0436885">
        <ele>169</ele>
        <time>2022-01-20T10:00:23Z</time>
      </trkpt>
      <trkpt lat="47.69348" lon="2.043663">
        <ele>168</ele>
        <time>2022-01-20T10:00:24Z</time>
      </trkpt>
      <trkpt lat="47.69348" lon="2.043634">
        <ele>168</ele>
        <time>2022-01-20T10:00:25Z</time>
      </trkpt>
      <trkpt lat="47.69348" lon="2.0436065">
        <ele>168</ele>
        <time>2022-01-20T10:00:26Z</time>
      </trkpt>
      <trkpt lat="47.69349" lon="2.0435922">
        <ele>167</ele>
        <time>2022-01-20T10:00:27Z</time>
      </trkpt>
      <trkpt lat="47.693497" lon="2.043579">
        <ele>168</ele>
        <time>2022-01-20T10:00:28Z</time>
      </trkpt>
      <trkpt lat="47.6935" lon="2.0435603">
        <ele>168</ele>
        <time>2022-01-20T10:00:29Z</time>
      </trkpt>
      <trkpt lat="47.69351" lon="2.0435429">
        <ele>168</ele>
        <time>2022-01-20T10:00:30Z</time>
      </trkpt>
      <trkpt lat="47.69351" lon="2.0435266">
        <ele>168</ele>
        <time>2022-01-20T10:00:31Z</time>
      </trkpt>
      <trkpt lat="47.693512" lon="2.0435138">
        <ele>168</ele>
        <time>2022-01-20T10:00:32Z</time>
      </trkpt>
      <trkpt lat="47.69352" lon="2.043495">
        <ele>169</ele>
        <time>2022-01-20T10:00:33Z</time>
      </trkpt>
      <trkpt lat="47.693523" lon="2.0434783">
        <ele>169</ele>
        <time>2022-01-20T10:00:34Z</time>
      </trkpt>
      <trkpt lat="47.69353" lon="2.043466">
        <ele>169</ele>
        <time>2022-01-20T10:00:35Z</time>
      </trkpt>
      <trkpt lat="47.693535" lon="2.0434604">
        <ele>168</ele>
        <time>2022-01-20T10:00:36Z</time>
      </trkpt>
      <trkpt lat="47.693535" lon="2.0434456">
        <ele>168</ele>
        <time>2022-01-20T10:00:37Z</time>
      </trkpt>
      <trkpt lat="47.69354" lon="2.043436">
        <ele>168</ele>
        <time>2022-01-20T10:00:38Z</time>
      </trkpt>
      <trkpt lat="47.693546" lon="2.0434237">
        <ele>168</ele>
        <time>2022-01-20T10:00:39Z</time>
      </trkpt>
      <trkpt lat="47.693554" lon="2.0434077">
        <ele>168</ele>
        <time>2022-01-20T10:00:40Z</time>
      </trkpt>
      <trkpt lat="47.69356" lon="2.0433898">
        <ele>168</ele>
        <time>2022-01-20T10:00:41Z</time>
      </trkpt>
      <trkpt lat="47.693573" lon="2.0433748">
        <ele>168</ele>
        <time>2022-01-20T10:00:42Z</time>
      </trkpt>
      <trkpt lat="47.69358" lon="2.0433562">
        <ele>168</ele>
        <time>2022-01-20T10:00:43Z</time>
      </trkpt>
      <trkpt lat="47.693584" lon="2.0433443">
        <ele>168</ele>
        <time>2022-01-20T10:00:44Z</time>
      </trkpt>
      <trkpt lat="47.693584" lon="2.0433366">
        <ele>168</ele>
        <time>2022-01-20T10:00:45Z</time>
      </trkpt>
      <trkpt lat="47.69359" lon="2.0433247">
        <ele>168</ele>
        <time>2022-01-20T10:00:46Z</time>
      </trkpt>
      <trkpt lat="47.69359" lon="2.0433104">
        <ele>168</ele>
        <time>2022-01-20T10:00:47Z</time>
      </trkpt>
      <trkpt lat="47.69359" lon="2.043301">
        <ele>167</ele>
        <time>2022-01-20T10:00:48Z</time>
      </trkpt>
      <trkpt lat="47.693596" lon="2.0432882">
        <ele>167</ele>
        <time>2022-01-20T10:00:49Z</time>
      </trkpt>
      <trkpt lat="47.6936" lon="2.0432787">
        <ele>167</ele>
        <time>2022-01-20T10:00:50Z</time>
      </trkpt>
      <trkpt lat="47.693607" lon="2.0432658">
        <ele>166</ele>
        <time>2022-01-20T10:00:51Z</time>
      </trkpt>
      <trkpt lat="47.693615" lon="2.043252">
        <ele>166</ele>
        <time>2022-01-20T10:00:52Z</time>
      </trkpt>
      <trkpt lat="47.693623" lon="2.0432405">
        <ele>166</ele>
        <time>2022-01-20T10:00:53Z</time>
      </trkpt>
      <trkpt lat="47.693626" lon="2.0432262">
        <ele>165</ele>
        <time>2022-01-20T10:00:54Z</time>
      </trkpt>
      <trkpt lat="47.69363" lon="2.0432124">
        <ele>166</ele>
        <time>2022-01-20T10:00:55Z</time>
      </trkpt>
      <trkpt lat="47.693638" lon="2.0431933">
        <ele>166</ele>
        <time>2022-01-20T10:00:56Z</time>
      </trkpt>
      <trkpt lat="47.69364" lon="2.0431757">
        <ele>166</ele>
        <time>2022-01-20T10:00:57Z</time>
      </trkpt>
      <trkpt lat="47.693645" lon="2.0431676">
        <ele>166</ele>
        <time>2022-01-20T10:00:58Z</time>
      </trkpt>
      <trkpt lat="47.693645" lon="2.0431523">
        <ele>165</ele>
        <time>2022-01-20T10:00:59Z</time>
      </trkpt>
      <trkpt lat="47.693653" lon="2.043137">
        <ele>167</ele>
        <time>2022-01-20T10:01:00Z</time>
      </trkpt>
      <trkpt lat="47.69366" lon="2.0431242">
        <ele>167</ele>
        <time>2022-01-20T10:01:01Z</time>
      </trkpt>
      <trkpt lat="47.69367" lon="2.0431137">
        <ele>168</ele>
        <time>2022-01-20T10:01:02Z</time>
      </trkpt>
      <trkpt lat="47.693676" lon="2.0431015">
        <ele>168</ele>
        <time>2022-01-20T10:01:03Z</time>
      </trkpt>
      <trkpt lat="47.693684" lon="2.0430841">
        <ele>168</ele>
        <time>2022-01-20T10:01:04Z</time>
      </trkpt>
      <trkpt lat="47.693684" lon="2.0430698">
        <ele>168</ele>
        <time>2022-01-20T10:01:05Z</time>
      </trkpt>
      <trkpt lat="47.69369" lon="2.0430548">
        <ele>168</ele>
        <time>2022-01-20T10:01:06Z</time>
      </trkpt>
      <trkpt lat="47.693703" lon="2.0430403">
        <ele>168</ele>
        <time>2022-01-20T10:01:07Z</time>
      </trkpt>
      <trkpt lat="47.693707" lon="2.04303">
        <ele>168</ele>
        <time>2022-01-20T10:01:08Z</time>
      </trkpt>
      <trkpt lat="47.693714" lon="2.0430143">
        <ele>168</ele>
        <time>2022-01-20T10:01:09Z</time>
      </trkpt>
      <trkpt lat="47.693726" lon="2.043001">
        <ele>168</ele>
        <time>2022-01-20T10:01:10Z</time>
      </trkpt>
      <trkpt lat="47.69373" lon="2.0429912">
        <ele>168</ele>
        <time>2022-01-20T10:01:11Z</time>
      </trkpt>
      <trkpt lat="47.693737" lon="2.0429816">
        <ele>168</ele>
        <time>2022-01-20T10:01:12Z</time>
      </trkpt>
      <trkpt lat="47.69374" lon="2.042971">
        <ele>168</ele>
        <time>2022-01-20T10:01:13Z</time>
      </trkpt>
      <trkpt lat="47.69375" lon="2.0429616">
        <ele>169</ele>
        <time>2022-01-20T10:01:14Z</time>
      </trkpt>
      <trkpt lat="47.693752" lon="2.042947">
        <ele>169</ele>
        <time>2022-01-20T10:01:15Z</time>
      </trkpt>
      <trkpt lat="47.693752" lon="2.0429301">
        <ele>168</ele>
        <time>2022-01-20T10:01:16Z</time>
      </trkpt>
      <trkpt lat="47.69376" lon="2.042915">
        <ele>168</ele>
        <time>2022-01-20T10:01:17Z</time>
      </trkpt>
      <trkpt lat="47.693768" lon="2.0429027">
        <ele>167</ele>
        <time>2022-01-20T10:01:18Z</time>
      </trkpt>
      <trkpt lat="47.69377" lon="2.0428853">
        <ele>167</ele>
        <time>2022-01-20T10:01:19Z</time>
      </trkpt>
      <trkpt lat="47.69378" lon="2.0428717">
        <ele>167</ele>
        <time>2022-01-20T10:01:20Z</time>
      </trkpt>
      <trkpt lat="47.693787" lon="2.042865">
        <ele>166</ele>
        <time>2022-01-20T10:01:21Z</time>
      </trkpt>
      <trkpt lat="47.69379" lon="2.0428548">
        <ele>166</ele>
        <time>2022-01-20T10:01:22Z</time>
      </trkpt>
      <trkpt lat="47.693806" lon="2.0428445">
        <ele>166</ele>
        <time>2022-01-20T10:01:23Z</time>
      </trkpt>
      <trkpt lat="47.693813" lon="2.0428329">
        <ele>167</ele>
        <time>2022-01-20T10:01:24Z</time>
      </trkpt>
      <trkpt lat="47.69382" lon="2.0428245">
        <ele>167</ele>
        <time>2022-01-20T10:01:25Z</time>
      </trkpt>
      <trkpt lat="47.69383" lon="2.042811">
        <ele>168</ele>
        <time>2022-01-20T10:01:26Z</time>
      </trkpt>
      <trkpt lat="47.693836" lon="2.042798">
        <ele>168</ele>
        <time>2022-01-20T10:01:27Z</time>
      </trkpt>
      <trkpt lat="47.69384" lon="2.042787">
        <ele>168</ele>
        <time>2022-01-20T10:01:28Z</time>
      </trkpt>
      <trkpt lat="47.693848" lon="2.0427752">
        <ele>168</ele>
        <time>2022-01-20T10:01:29Z</time>
      </trkpt>
      <trkpt lat="47.693855" lon="2.0427628">
        <ele>168</ele>
        <time>2022-01-20T10:01:30Z</time>
      </trkpt>
      <trkpt lat="47.693863" lon="2.0427494">
        <ele>168</ele>
        <time>2022-01-20T10:01:31Z</time>
      </trkpt>
      <trkpt lat="47.69387" lon="2.042735">
        <ele>168</ele>
        <time>2022-01-20T10:01:32Z</time>
      </trkpt>
      <trkpt lat="47.693882" lon="2.0427237">
        <ele>169</ele>
        <time>2022-01-20T10:01:33Z</time>
      </trkpt>
      <trkpt lat="47.693886" lon="2.0427127">
        <ele>169</ele>
        <time>2022-01-20T10:01:34Z</time>
      </trkpt>
      <trkpt lat="47.69389" lon="2.0427039">
        <ele>169</ele>
        <time>2022-01-20T10:01:35Z</time>
      </trkpt>
      <trkpt lat="47.693897" lon="2.042692">
        <ele>169</ele>
        <time>2022-01-20T10:01:36Z</time>
      </trkpt>
      <trkpt lat="47.693905" lon="2.042678">
        <ele>170</ele>
        <time>2022-01-20T10:01:37Z</time>
      </trkpt>
      <trkpt lat="47.69391" lon="2.042664">
        <ele>170</ele>
        <time>2022-01-20T10:01:38Z</time>
      </trkpt>
      <trkpt lat="47.69392" lon="2.042654">
        <ele>170</ele>
        <time>2022-01-20T10:01:39Z</time>
      </trkpt>
      <trkpt lat="47.69393" lon="2.0426457">
        <ele>170</ele>
        <time>2022-01-20T10:01:40Z</time>
      </trkpt>
      <trkpt lat="47.693943" lon="2.0426326">
        <ele>170</ele>
        <time>2022-01-20T10:01:41Z</time>
      </trkpt>
      <trkpt lat="47.69395" lon="2.0426264">
        <ele>170</ele>
        <time>2022-01-20T10:01:42Z</time>
      </trkpt>
      <trkpt lat="47.69396" lon="2.0426104">
        <ele>170</ele>
        <time>2022-01-20T10:01:43Z</time>
      </trkpt>
      <trkpt lat="47.693966" lon="2.042596">
        <ele>169</ele>
        <time>2022-01-20T10:01:44Z</time>
      </trkpt>
      <trkpt lat="47.693974" lon="2.0425854">
        <ele>169</ele>
        <time>2022-01-20T10:01:45Z</time>
      </trkpt>
      <trkpt lat="47.693985" lon="2.0425694">
        <ele>170</ele>
        <time>2022-01-20T10:01:46Z</time>
      </trkpt>
      <trkpt lat="47.693993" lon="2.0425608">
        <ele>170</ele>
        <time>2022-01-20T10:01:47Z</time>
      </trkpt>
      <trkpt lat="47.694" lon="2.0425467">
        <ele>170</ele>
        <time>2022-01-20T10:01:48Z</time>
      </trkpt>
      <trkpt lat="47.694008" lon="2.042531">
        <ele>170</ele>
        <time>2022-01-20T10:01:49Z</time>
      </trkpt>
      <trkpt lat="47.694016" lon="2.042518">
        <ele>170</ele>
        <time>2022-01-20T10:01:50Z</time>
      </trkpt>
      <trkpt lat="47.694023" lon="2.0425067">
        <ele>170</ele>
        <time>2022-01-20T10:01:51Z</time>
      </trkpt>
      <trkpt lat="47.69403" lon="2.042491">
        <ele>171</ele>
        <time>2022-01-20T10:01:52Z</time>
      </trkpt>
      <trkpt lat="47.69404" lon="2.0424807">
        <ele>170</ele>
        <time>2022-01-20T10:01:53Z</time>
      </trkpt>
      <trkpt lat="47.694046" lon="2.0424695">
        <ele>170</ele>
        <time>2022-01-20T10:01:54Z</time>
      </trkpt>
      <trkpt lat="47.69405" lon="2.0424597">
        <ele>170</ele>
        <time>2022-01-20T10:01:55Z</time>
      </trkpt>
      <trkpt lat="47.694054" lon="2.0424428">
        <ele>170</ele>
        <time>2022-01-20T10:01:56Z</time>
      </trkpt>
      <trkpt lat="47.694057" lon="2.042428">
        <ele>170</ele>
        <time>2022-01-20T10:01:57Z</time>
      </trkpt>
      <trkpt lat="47.69407" lon="2.0424118">
        <ele>171</ele>
        <time>2022-01-20T10:01:58Z</time>
      </trkpt>
      <trkpt lat="47.694073" lon="2.0423987">
        <ele>171</ele>
        <time>2022-01-20T10:01:59Z</time>
      </trkpt>
      <trkpt lat="47.69408" lon="2.0423846">
        <ele>171</ele>
        <time>2022-01-20T10:02:00Z</time>
      </trkpt>
      <trkpt lat="47.694084" lon="2.0423663">
        <ele>171</ele>
        <time>2022-01-20T10:02:01Z</time>
      </trkpt>
      <trkpt lat="47.694088" lon="2.0423484">
        <ele>171</ele>
        <time>2022-01-20T10:02:02Z</time>
      </trkpt>
      <trkpt lat="47.694096" lon="2.0423334">
        <ele>170</ele>
        <time>2022-01-20T10:02:03Z</time>
      </trkpt>
      <trkpt lat="47.6941" lon="2.0423179">
        <ele>170</ele>
        <time>2022-01-20T10:02:04Z</time>
      </trkpt>
      <trkpt lat="47.694103" lon="2.0423038">
        <ele>169</ele>
        <time>2022-01-20T10:02:05Z</time>
      </trkpt>
      <trkpt lat="47.694107" lon="2.0422919">
        <ele>170</ele>
        <time>2022-01-20T10:02:06Z</time>
      </trkpt>
      <trkpt lat="47.69412" lon="2.042283">
        <ele>170</ele>
        <time>2022-01-20T10:02:07Z</time>
      </trkpt>
      <trkpt lat="47.694126" lon="2.042275">
        <ele>170</ele>
        <time>2022-01-20T10:02:08Z</time>
      </trkpt>
      <trkpt lat="47.69413" lon="2.0422642">
        <ele>170</ele>
        <time>2022-01-20T10:02:09Z</time>
      </trkpt>
      <trkpt lat="47.694138" lon="2.0422552">
        <ele>170</ele>
        <time>2022-01-20T10:02:10Z</time>
      </trkpt>
      <trkpt lat="47.694145" lon="2.04225">
        <ele>170</ele>
        <time>2022-01-20T10:02:11Z</time>
      </trkpt>
      <trkpt lat="47.694153" lon="2.042238">
        <ele>171</ele>
        <time>2022-01-20T10:02:12Z</time>
      </trkpt>
      <trkpt lat="47.69416" lon="2.042222">
        <ele>171</ele>
        <time>2022-01-20T10:02:13Z</time>
      </trkpt>
      <trkpt lat="47.69417" lon="2.0422058">
        <ele>171</ele>
        <time>2022-01-20T10:02:14Z</time>
      </trkpt>
      <trkpt lat="47.694176" lon="2.0421915">
        <ele>171</ele>
        <time>2022-01-20T10:02:15Z</time>
      </trkpt>
      <trkpt lat="47.69418" lon="2.042175">
        <ele>171</ele>
        <time>2022-01-20T10:02:16Z</time>
      </trkpt>
      <trkpt lat="47.694183" lon="2.04216">
        <ele>171</ele>
        <time>2022-01-20T10:02:17Z</time>
      </trkpt>
      <trkpt lat="47.694187" lon="2.0421493">
        <ele>171</ele>
        <time>2022-01-20T10:02:18Z</time>
      </trkpt>
      <trkpt lat="47.6942" lon="2.0421393">
        <ele>171</ele>
        <time>2022-01-20T10:02:19Z</time>
      </trkpt>
      <trkpt lat="47.694206" lon="2.0421333">
        <ele>171</ele>
        <time>2022-01-20T10:02:20Z</time>
      </trkpt>
      <trkpt lat="47.694214" lon="2.0421257">
        <ele>171</ele>
        <time>2022-01-20T10:02:21Z</time>
      </trkpt>
      <trkpt lat="47.694225" lon="2.042119">
        <ele>171</ele>
        <time>2022-01-20T10:02:22Z</time>
      </trkpt>
      <trkpt lat="47.694233" lon="2.042104">
        <ele>171</ele>
        <time>2022-01-20T10:02:23Z</time>
      </trkpt>
      <trkpt lat="47.694244" lon="2.0420918">
        <ele>171</ele>
        <time>2022-01-20T10:02:24Z</time>
      </trkpt>
      <trkpt lat="47.694252" lon="2.0420804">
        <ele>172</ele>
        <time>2022-01-20T10:02:25Z</time>
      </trkpt>
      <trkpt lat="47.694256" lon="2.0420694">
        <ele>172</ele>
        <time>2022-01-20T10:02:26Z</time>
      </trkpt>
      <trkpt lat="47.694263" lon="2.0420573">
        <ele>172</ele>
        <time>2022-01-20T10:02:27Z</time>
      </trkpt>
      <trkpt lat="47.694263" lon="2.0420442">
        <ele>172</ele>
        <time>2022-01-20T10:02:28Z</time>
      </trkpt>
      <trkpt lat="47.694263" lon="2.0420306">
        <ele>172</ele>
        <time>2022-01-20T10:02:29Z</time>
      </trkpt>
      <trkpt lat="47.694267" lon="2.0420256">
        <ele>172</ele>
        <time>2022-01-20T10:02:30Z</time>
      </trkpt>
      <trkpt lat="47.694267" lon="2.04201">
        <ele>172</ele>
        <time>2022-01-20T10:02:31Z</time>
      </trkpt>
      <trkpt lat="47.694275" lon="2.0419972">
        <ele>173</ele>
        <time>2022-01-20T10:02:32Z</time>
      </trkpt>
      <trkpt lat="47.694283" lon="2.0419855">
        <ele>173</ele>
        <time>2022-01-20T10:02:33Z</time>
      </trkpt>
      <trkpt lat="47.69429" lon="2.0419729">
        <ele>173</ele>
        <time>2022-01-20T10:02:34Z</time>
      </trkpt>
      <trkpt lat="47.69429" lon="2.0419512">
        <ele>173</ele>
        <time>2022-01-20T10:02:35Z</time>
      </trkpt>
      <trkpt lat="47.694294" lon="2.0419304">
        <ele>172</ele>
        <time>2022-01-20T10:02:36Z</time>
      </trkpt>
      <trkpt lat="47.69429" lon="2.0419078">
        <ele>172</ele>
        <time>2022-01-20T10:02:37Z</time>
      </trkpt>
      <trkpt lat="47.694294" lon="2.0418906">
        <ele>172</ele>
        <time>2022-01-20T10:02:38Z</time>
      </trkpt>
      <trkpt lat="47.694298" lon="2.0418718">
        <ele>172</ele>
        <time>2022-01-20T10:02:39Z</time>
      </trkpt>
      <trkpt lat="47.694305" lon="2.041857">
        <ele>172</ele>
        <time>2022-01-20T10:02:40Z</time>
      </trkpt>
      <trkpt lat="47.694313" lon="2.0418384">
        <ele>173</ele>
        <time>2022-01-20T10:02:41Z</time>
      </trkpt>
      <trkpt lat="47.694317" lon="2.0418253">
        <ele>172</ele>
        <time>2022-01-20T10:02:42Z</time>
      </trkpt>
      <trkpt lat="47.694313" lon="2.041812">
        <ele>172</ele>
        <time>2022-01-20T10:02:43Z</time>
      </trkpt>
      <trkpt lat="47.69431" lon="2.041799">
        <ele>172</ele>
        <time>2022-01-20T10:02:44Z</time>
      </trkpt>
      <trkpt lat="47.694313" lon="2.041783">
        <ele>172</ele>
        <time>2022-01-20T10:02:45Z</time>
      </trkpt>
      <trkpt lat="47.694317" lon="2.0417657">
        <ele>172</ele>
        <time>2022-01-20T10:02:46Z</time>
      </trkpt>
      <trkpt lat="47.69432" lon="2.0417497">
        <ele>172</ele>
        <time>2022-01-20T10:02:47Z</time>
      </trkpt>
      <trkpt lat="47.69433" lon="2.0417385">
        <ele>172</ele>
        <time>2022-01-20T10:02:48Z</time>
      </trkpt>
      <trkpt lat="47.694332" lon="2.041723">
        <ele>172</ele>
        <time>2022-01-20T10:02:49Z</time>
      </trkpt>
      <trkpt lat="47.694332" lon="2.0417137">
        <ele>173</ele>
        <time>2022-01-20T10:02:50Z</time>
      </trkpt>
      <trkpt lat="47.694332" lon="2.0417016">
        <ele>172</ele>
        <time>2022-01-20T10:02:51Z</time>
      </trkpt>
      <trkpt lat="47.694336" lon="2.0416942">
        <ele>172</ele>
        <time>2022-01-20T10:02:52Z</time>
      </trkpt>
      <trkpt lat="47.69434" lon="2.0416868">
        <ele>172</ele>
        <time>2022-01-20T10:02:53Z</time>
      </trkpt>
      <trkpt lat="47.694344" lon="2.041673">
        <ele>172</ele>
        <time>2022-01-20T10:02:54Z</time>
      </trkpt>
      <trkpt lat="47.694347" lon="2.0416563">
        <ele>171</ele>
        <time>2022-01-20T10:02:55Z</time>
      </trkpt>
      <trkpt lat="47.694347" lon="2.041642">
        <ele>171</ele>
        <time>2022-01-20T10:02:56Z</time>
      </trkpt>
      <trkpt lat="47.694344" lon="2.041621">
        <ele>170</ele>
        <time>2022-01-20T10:02:57Z</time>
      </trkpt>
      <trkpt lat="47.694344" lon="2.0416012">
        <ele>170</ele>
        <time>2022-01-20T10:02:58Z</time>
      </trkpt>
      <trkpt lat="47.694344" lon="2.0415857">
        <ele>169</ele>
        <time>2022-01-20T10:02:59Z</time>
      </trkpt>
      <trkpt lat="47.694344" lon="2.041572">
        <ele>169</ele>
        <time>2022-01-20T10:03:00Z</time>
      </trkpt>
      <trkpt lat="47.694347" lon="2.0415537">
        <ele>169</ele>
        <time>2022-01-20T10:03:01Z</time>
      </trkpt>
      <trkpt lat="47.694347" lon="2.0415332">
        <ele>168</ele>
        <time>2022-01-20T10:03:02Z</time>
      </trkpt>
      <trkpt lat="47.694344" lon="2.0415115">
        <ele>168</ele>
        <time>2022-01-20T10:03:03Z</time>
      </trkpt>
      <trkpt lat="47.694347" lon="2.0414953">
        <ele>168</ele>
        <time>2022-01-20T10:03:04Z</time>
      </trkpt>
      <trkpt lat="47.694347" lon="2.0414753">
        <ele>168</ele>
        <time>2022-01-20T10:03:05Z</time>
      </trkpt>
      <trkpt lat="47.694355" lon="2.0414557">
        <ele>168</ele>
        <time>2022-01-20T10:03:06Z</time>
      </trkpt>
      <trkpt lat="47.69436" lon="2.0414393">
        <ele>168</ele>
        <time>2022-01-20T10:03:07Z</time>
      </trkpt>
      <trkpt lat="47.694366" lon="2.0414264">
        <ele>169</ele>
        <time>2022-01-20T10:03:08Z</time>
      </trkpt>
      <trkpt lat="47.694366" lon="2.0414064">
        <ele>169</ele>
        <time>2022-01-20T10:03:09Z</time>
      </trkpt>
      <trkpt lat="47.69436" lon="2.041392">
        <ele>169</ele>
        <time>2022-01-20T10:03:10Z</time>
      </trkpt>
      <trkpt lat="47.694363" lon="2.0413768">
        <ele>169</ele>
        <time>2022-01-20T10:03:11Z</time>
      </trkpt>
      <trkpt lat="47.694366" lon="2.0413618">
        <ele>168</ele>
        <time>2022-01-20T10:03:12Z</time>
      </trkpt>
      <trkpt lat="47.694366" lon="2.0413582">
        <ele>169</ele>
        <time>2022-01-20T10:03:13Z</time>
      </trkpt>
      <trkpt lat="47.694363" lon="2.0413504">
        <ele>169</ele>
        <time>2022-01-20T10:03:14Z</time>
      </trkpt>
      <trkpt lat="47.69436" lon="2.0413353">
        <ele>169</ele>
        <time>2022-01-20T10:03:15Z</time>
      </trkpt>
      <trkpt lat="47.69436" lon="2.041317">
        <ele>169</ele>
        <time>2022-01-20T10:03:16Z</time>
      </trkpt>
      <trkpt lat="47.69436" lon="2.041299">
        <ele>169</ele>
        <time>2022-01-20T10:03:17Z</time>
      </trkpt>
      <trkpt lat="47.694363" lon="2.0412786">
        <ele>169</ele>
        <time>2022-01-20T10:03:18Z</time>
      </trkpt>
      <trkpt lat="47.69436" lon="2.041252">
        <ele>170</ele>
        <time>2022-01-20T10:03:19Z</time>
      </trkpt>
      <trkpt lat="47.69436" lon="2.0412304">
        <ele>170</ele>
        <time>2022-01-20T10:03:20Z</time>
      </trkpt>
      <trkpt lat="47.69436" lon="2.0412169">
        <ele>170</ele>
        <time>2022-01-20T10:03:21Z</time>
      </trkpt>
      <trkpt lat="47.694363" lon="2.0412028">
        <ele>170</ele>
        <time>2022-01-20T10:03:22Z</time>
      </trkpt>
      <trkpt lat="47.694366" lon="2.0411792">
        <ele>170</ele>
        <time>2022-01-20T10:03:23Z</time>
      </trkpt>
      <trkpt lat="47.69437" lon="2.041162">
        <ele>170</ele>
        <time>2022-01-20T10:03:24Z</time>
      </trkpt>
      <trkpt lat="47.69437" lon="2.04115">
        <ele>171</ele>
        <time>2022-01-20T10:03:25Z</time>
      </trkpt>
      <trkpt lat="47.694366" lon="2.0411344">
        <ele>172</ele>
        <time>2022-01-20T10:03:26Z</time>
      </trkpt>
      <trkpt lat="47.694366" lon="2.0411167">
        <ele>172</ele>
        <time>2022-01-20T10:03:27Z</time>
      </trkpt>
      <trkpt lat="47.69437" lon="2.0411046">
        <ele>172</ele>
        <time>2022-01-20T10:03:28Z</time>
      </trkpt>
      <trkpt lat="47.694374" lon="2.041092">
        <ele>172</ele>
        <time>2022-01-20T10:03:29Z</time>
      </trkpt>
      <trkpt lat="47.694378" lon="2.0410764">
        <ele>172</ele>
        <time>2022-01-20T10:03:30Z</time>
      </trkpt>
      <trkpt lat="47.69438" lon="2.0410635">
        <ele>172</ele>
        <time>2022-01-20T10:03:31Z</time>
      </trkpt>
      <trkpt lat="47.69439" lon="2.0410535">
        <ele>171</ele>
        <time>2022-01-20T10:03:32Z</time>
      </trkpt>
      <trkpt lat="47.694393" lon="2.041041">
        <ele>171</ele>
        <time>2022-01-20T10:03:33Z</time>
      </trkpt>
      <trkpt lat="47.6944" lon="2.0410268">
        <ele>171</ele>
        <time>2022-01-20T10:03:34Z</time>
      </trkpt>
      <trkpt lat="47.694405" lon="2.0410094">
        <ele>171</ele>
        <time>2022-01-20T10:03:35Z</time>
      </trkpt>
      <trkpt lat="47.694405" lon="2.0409925">
        <ele>171</ele>
        <time>2022-01-20T10:03:36Z</time>
      </trkpt>
      <trkpt lat="47.694405" lon="2.0409744">
        <ele>170</ele>
        <time>2022-01-20T10:03:37Z</time>
      </trkpt>
      <trkpt lat="47.6944" lon="2.0409582">
        <ele>171</ele>
        <time>2022-01-20T10:03:38Z</time>
      </trkpt>
      <trkpt lat="47.694393" lon="2.0409448">
        <ele>171</ele>
        <time>2022-01-20T10:03:39Z</time>
      </trkpt>
      <trkpt lat="47.69439" lon="2.0409245">
        <ele>171</ele>
        <time>2022-01-20T10:03:40Z</time>
      </trkpt>
      <trkpt lat="47.694386" lon="2.0409021">
        <ele>170</ele>
        <time>2022-01-20T10:03:41Z</time>
      </trkpt>
      <trkpt lat="47.694386" lon="2.0408869">
        <ele>171</ele>
        <time>2022-01-20T10:03:42Z</time>
      </trkpt>
      <trkpt lat="47.694386" lon="2.0408719">
        <ele>171</ele>
        <time>2022-01-20T10:03:43Z</time>
      </trkpt>
      <trkpt lat="47.69438" lon="2.040857">
        <ele>171</ele>
        <time>2022-01-20T10:03:44Z</time>
      </trkpt>
      <trkpt lat="47.69438" lon="2.0408425">
        <ele>171</ele>
        <time>2022-01-20T10:03:45Z</time>
      </trkpt>
      <trkpt lat="47.694378" lon="2.0408268">
        <ele>171</ele>
        <time>2022-01-20T10:03:46Z</time>
      </trkpt>
      <trkpt lat="47.694378" lon="2.0408084">
        <ele>171</ele>
        <time>2022-01-20T10:03:47Z</time>
      </trkpt>
      <trkpt lat="47.694378" lon="2.0407944">
        <ele>171</ele>
        <time>2022-01-20T10:03:48Z</time>
      </trkpt>
      <trkpt lat="47.69438" lon="2.0407784">
        <ele>170</ele>
        <time>2022-01-20T10:03:49Z</time>
      </trkpt>
      <trkpt lat="47.69438" lon="2.0407634">
        <ele>171</ele>
        <time>2022-01-20T10:03:50Z</time>
      </trkpt>
      <trkpt lat="47.69438" lon="2.040751">
        <ele>171</ele>
        <time>2022-01-20T10:03:51Z</time>
      </trkpt>
      <trkpt lat="47.694378" lon="2.040731">
        <ele>171</ele>
        <time>2022-01-20T10:03:52Z</time>
      </trkpt>
      <trkpt lat="47.694374" lon="2.0407124">
        <ele>171</ele>
        <time>2022-01-20T10:03:53Z</time>
      </trkpt>
      <trkpt lat="47.694374" lon="2.0407062">
        <ele>171</ele>
        <time>2022-01-20T10:03:54Z</time>
      </trkpt>
      <trkpt lat="47.694374" lon="2.0406954">
        <ele>171</ele>
        <time>2022-01-20T10:03:55Z</time>
      </trkpt>
      <trkpt lat="47.69437" lon="2.0406814">
        <ele>171</ele>
        <time>2022-01-20T10:03:56Z</time>
      </trkpt>
      <trkpt lat="47.69437" lon="2.0406663">
        <ele>171</ele>
        <time>2022-01-20T10:03:57Z</time>
      </trkpt>
      <trkpt lat="47.69437" lon="2.0406482">
        <ele>171</ele>
        <time>2022-01-20T10:03:58Z</time>
      </trkpt>
      <trkpt lat="47.694374" lon="2.04063">
        <ele>171</ele>
        <time>2022-01-20T10:03:59Z</time>
      </trkpt>
      <trkpt lat="47.694374" lon="2.0406146">
        <ele>171</ele>
        <time>2022-01-20T10:04:00Z</time>
      </trkpt>
      <trkpt lat="47.694374" lon="2.0405965">
        <ele>171</ele>
        <time>2022-01-20T10:04:01Z</time>
      </trkpt>
      <trkpt lat="47.694378" lon="2.0405807">
        <ele>171</ele>
        <time>2022-01-20T10:04:02Z</time>
      </trkpt>
      <trkpt lat="47.694374" lon="2.0405705">
        <ele>170</ele>
        <time>2022-01-20T10:04:03Z</time>
      </trkpt>
      <trkpt lat="47.694374" lon="2.0405607">
        <ele>170</ele>
        <time>2022-01-20T10:04:04Z</time>
      </trkpt>
      <trkpt lat="47.694374" lon="2.0405517">
        <ele>171</ele>
        <time>2022-01-20T10:04:05Z</time>
      </trkpt>
      <trkpt lat="47.694378" lon="2.0405395">
        <ele>171</ele>
        <time>2022-01-20T10:04:06Z</time>
      </trkpt>
      <trkpt lat="47.694378" lon="2.040528">
        <ele>170</ele>
        <time>2022-01-20T10:04:07Z</time>
      </trkpt>
      <trkpt lat="47.694378" lon="2.0405095">
        <ele>170</ele>
        <time>2022-01-20T10:04:08Z</time>
      </trkpt>
      <trkpt lat="47.694378" lon="2.0404906">
        <ele>170</ele>
        <time>2022-01-20T10:04:09Z</time>
      </trkpt>
      <trkpt lat="47.694374" lon="2.040468">
        <ele>170</ele>
        <time>2022-01-20T10:04:10Z</time>
      </trkpt>
      <trkpt lat="47.694378" lon="2.0404434">
        <ele>170</ele>
        <time>2022-01-20T10:04:11Z</time>
      </trkpt>
      <trkpt lat="47.694378" lon="2.0404227">
        <ele>170</ele>
        <time>2022-01-20T10:04:12Z</time>
      </trkpt>
      <trkpt lat="47.694378" lon="2.0404022">
        <ele>170</ele>
        <time>2022-01-20T10:04:13Z</time>
      </trkpt>
      <trkpt lat="47.694378" lon="2.0403807">
        <ele>170</ele>
        <time>2022-01-20T10:04:14Z</time>
      </trkpt>
      <trkpt lat="47.694378" lon="2.0403574">
        <ele>170</ele>
        <time>2022-01-20T10:04:15Z</time>
      </trkpt>
      <trkpt lat="47.694374" lon="2.0403402">
        <ele>170</ele>
        <time>2022-01-20T10:04:16Z</time>
      </trkpt>
      <trkpt lat="47.69437" lon="2.0403216">
        <ele>170</ele>
        <time>2022-01-20T10:04:17Z</time>
      </trkpt>
      <trkpt lat="47.694366" lon="2.0403004">
        <ele>170</ele>
        <time>2022-01-20T10:04:18Z</time>
      </trkpt>
      <trkpt lat="47.694363" lon="2.0402746">
        <ele>170</ele>
        <time>2022-01-20T10:04:19Z</time>
      </trkpt>
      <trkpt lat="47.69436" lon="2.0402598">
        <ele>170</ele>
        <time>2022-01-20T10:04:20Z</time>
      </trkpt>
      <trkpt lat="47.694355" lon="2.0402486">
        <ele>170</ele>
        <time>2022-01-20T10:04:21Z</time>
      </trkpt>
      <trkpt lat="47.694355" lon="2.040233">
        <ele>170</ele>
        <time>2022-01-20T10:04:22Z</time>
      </trkpt>
      <trkpt lat="47.694355" lon="2.0402174">
        <ele>171</ele>
        <time>2022-01-20T10:04:23Z</time>
      </trkpt>
      <trkpt lat="47.69435" lon="2.0402014">
        <ele>171</ele>
        <time>2022-01-20T10:04:24Z</time>
      </trkpt>
      <trkpt lat="47.694344" lon="2.0401883">
        <ele>170</ele>
        <time>2022-01-20T10:04:25Z</time>
      </trkpt>
      <trkpt lat="47.694336" lon="2.0401695">
        <ele>170</ele>
        <time>2022-01-20T10:04:26Z</time>
      </trkpt>
      <trkpt lat="47.694336" lon="2.0401504">
        <ele>170</ele>
        <time>2022-01-20T10:04:27Z</time>
      </trkpt>
      <trkpt lat="47.694332" lon="2.04013">
        <ele>170</ele>
        <time>2022-01-20T10:04:28Z</time>
      </trkpt>
      <trkpt lat="47.694332" lon="2.040119">
        <ele>170</ele>
        <time>2022-01-20T10:04:29Z</time>
      </trkpt>
      <trkpt lat="47.694332" lon="2.0401068">
        <ele>170</ele>
        <time>2022-01-20T10:04:30Z</time>
      </trkpt>
      <trkpt lat="47.694324" lon="2.040092">
        <ele>170</ele>
        <time>2022-01-20T10:04:31Z</time>
      </trkpt>
      <trkpt lat="47.69432" lon="2.040083">
        <ele>169</ele>
        <time>2022-01-20T10:04:32Z</time>
      </trkpt>
      <trkpt lat="47.694313" lon="2.0400717">
        <ele>169</ele>
        <time>2022-01-20T10:04:33Z</time>
      </trkpt>
      <trkpt lat="47.69431" lon="2.0400577">
        <ele>169</ele>
        <time>2022-01-20T10:04:34Z</time>
      </trkpt>
      <trkpt lat="47.694305" lon="2.040046">
        <ele>170</ele>
        <time>2022-01-20T10:04:35Z</time>
      </trkpt>
      <trkpt lat="47.694305" lon="2.040029">
        <ele>170</ele>
        <time>2022-01-20T10:04:36Z</time>
      </trkpt>
      <trkpt lat="47.6943" lon="2.0400133">
        <ele>170</ele>
        <time>2022-01-20T10:04:37Z</time>
      </trkpt>
      <trkpt lat="47.6943" lon="2.0399978">
        <ele>170</ele>
        <time>2022-01-20T10:04:38Z</time>
      </trkpt>
      <trkpt lat="47.6943" lon="2.039985">
        <ele>170</ele>
        <time>2022-01-20T10:04:39Z</time>
      </trkpt>
      <trkpt lat="47.6943" lon="2.0399668">
        <ele>170</ele>
        <time>2022-01-20T10:04:40Z</time>
      </trkpt>
      <trkpt lat="47.694298" lon="2.0399532">
        <ele>169</ele>
        <time>2022-01-20T10:04:41Z</time>
      </trkpt>
      <trkpt lat="47.6943" lon="2.0399308">
        <ele>170</ele>
        <time>2022-01-20T10:04:42Z</time>
      </trkpt>
      <trkpt lat="47.6943" lon="2.0399127">
        <ele>170</ele>
        <time>2022-01-20T10:04:43Z</time>
      </trkpt>
      <trkpt lat="47.694305" lon="2.039888">
        <ele>169</ele>
        <time>2022-01-20T10:04:44Z</time>
      </trkpt>
      <trkpt lat="47.6943" lon="2.03988">
        <ele>169</ele>
        <time>2022-01-20T10:04:45Z</time>
      </trkpt>
      <trkpt lat="47.694298" lon="2.039863">
        <ele>170</ele>
        <time>2022-01-20T10:04:46Z</time>
      </trkpt>
      <trkpt lat="47.694294" lon="2.039846">
        <ele>170</ele>
        <time>2022-01-20T10:04:47Z</time>
      </trkpt>
      <trkpt lat="47.694286" lon="2.0398335">
        <ele>169</ele>
        <time>2022-01-20T10:04:48Z</time>
      </trkpt>
      <trkpt lat="47.694283" lon="2.0398202">
        <ele>170</ele>
        <time>2022-01-20T10:04:49Z</time>
      </trkpt>
      <trkpt lat="47.694283" lon="2.0398097">
        <ele>169</ele>
        <time>2022-01-20T10:04:50Z</time>
      </trkpt>
      <trkpt lat="47.694283" lon="2.039795">
        <ele>170</ele>
        <time>2022-01-20T10:04:51Z</time>
      </trkpt>
      <trkpt lat="47.694283" lon="2.0397785">
        <ele>170</ele>
        <time>2022-01-20T10:04:52Z</time>
      </trkpt>
      <trkpt lat="47.694283" lon="2.0397594">
        <ele>170</ele>
        <time>2022-01-20T10:04:53Z</time>
      </trkpt>
      <trkpt lat="47.69428" lon="2.0397391">
        <ele>171</ele>
        <time>2022-01-20T10:04:54Z</time>
      </trkpt>
      <trkpt lat="47.69428" lon="2.0397239">
        <ele>171</ele>
        <time>2022-01-20T10:04:55Z</time>
      </trkpt>
      <trkpt lat="47.694275" lon="2.0397074">
        <ele>170</ele>
        <time>2022-01-20T10:04:56Z</time>
      </trkpt>
      <trkpt lat="47.69428" lon="2.0396845">
        <ele>171</ele>
        <time>2022-01-20T10:04:57Z</time>
      </trkpt>
      <trkpt lat="47.694275" lon="2.0396643">
        <ele>171</ele>
        <time>2022-01-20T10:04:58Z</time>
      </trkpt>
      <trkpt lat="47.69427" lon="2.0396435">
        <ele>171</ele>
        <time>2022-01-20T10:04:59Z</time>
      </trkpt>
      <trkpt lat="47.69427" lon="2.0396223">
        <ele>171</ele>
        <time>2022-01-20T10:05:00Z</time>
      </trkpt>
      <trkpt lat="47.694275" lon="2.039602">
        <ele>171</ele>
        <time>2022-01-20T10:05:01Z</time>
      </trkpt>
      <trkpt lat="47.69427" lon="2.0395849">
        <ele>170</ele>
        <time>2022-01-20T10:05:02Z</time>
      </trkpt>
      <trkpt lat="47.694267" lon="2.0395653">
        <ele>170</ele>
        <time>2022-01-20T10:05:03Z</time>
      </trkpt>
      <trkpt lat="47.694267" lon="2.0395474">
        <ele>171</ele>
        <time>2022-01-20T10:05:04Z</time>
      </trkpt>
      <trkpt lat="47.694263" lon="2.039535">
        <ele>171</ele>
        <time>2022-01-20T10:05:05Z</time>
      </trkpt>
      <trkpt lat="47.694263" lon="2.039525">
        <ele>170</ele>
        <time>2022-01-20T10:05:06Z</time>
      </trkpt>
      <trkpt lat="47.694263" lon="2.0395103">
        <ele>171</ele>
        <time>2022-01-20T10:05:07Z</time>
      </trkpt>
      <trkpt lat="47.694263" lon="2.0395021">
        <ele>171</ele>
        <time>2022-01-20T10:05:08Z</time>
      </trkpt>
      <trkpt lat="47.69426" lon="2.0394852">
        <ele>171</ele>
        <time>2022-01-20T10:05:09Z</time>
      </trkpt>
      <trkpt lat="47.694252" lon="2.0394633">
        <ele>171</ele>
        <time>2022-01-20T10:05:10Z</time>
      </trkpt>
      <trkpt lat="47.69426" lon="2.0394642">
        <ele>171</ele>
        <time>2022-01-20T10:05:11Z</time>
      </trkpt>
      <trkpt lat="47.694267" lon="2.0394714">
        <ele>171</ele>
        <time>2022-01-20T10:05:12Z</time>
      </trkpt>
      <trkpt lat="47.694267" lon="2.0394716">
        <ele>171</ele>
        <time>2022-01-20T10:05:13Z</time>
      </trkpt>
      <trkpt lat="47.694267" lon="2.0394711">
        <ele>171</ele>
        <time>2022-01-20T10:05:14Z</time>
      </trkpt>
      <trkpt lat="47.694263" lon="2.039471">
        <ele>171</ele>
        <time>2022-01-20T10:05:15Z</time>
      </trkpt>
      <trkpt lat="47.694263" lon="2.039471">
        <ele>171</ele>
        <time>2022-01-20T10:05:15Z</time>
      </trkpt>
    </trkseg>
    <trkseg>
      <trkpt lat="47.694263" lon="2.039471">
        <ele>171</ele>
        <time>2022-01-20T10:05:15Z</time>
      </trkpt>
      <trkpt lat="47.694244" lon="2.039375">
        <ele>170</ele>
        <time>2022-01-20T10:05:30Z</time>
      </trkpt>
      <trkpt lat="47.69424" lon="2.039359">
        <ele>170</ele>
        <time>2022-01-20T10:05:31Z</time>
      </trkpt>
      <trkpt lat="47.69424" lon="2.0393555">
        <ele>170</ele>
        <time>2022-01-20T10:05:32Z</time>
      </trkpt>
      <trkpt lat="47.69423" lon="2.0393577">
        <ele>171</ele>
        <time>2022-01-20T10:05:33Z</time>
      </trkpt>
      <trkpt lat="47.694225" lon="2.0393515">
        <ele>171</ele>
        <time>2022-01-20T10:05:34Z</time>
      </trkpt>
      <trkpt lat="47.694225" lon="2.0393403">
        <ele>171</ele>
        <time>2022-01-20T10:05:35Z</time>
      </trkpt>
      <trkpt lat="47.694225" lon="2.0393274">
        <ele>170</ele>
        <time>2022-01-20T10:05:36Z</time>
      </trkpt>
      <trkpt lat="47.694225" lon="2.0393152">
        <ele>171</ele>
        <time>2022-01-20T10:05:37Z</time>
      </trkpt>
      <trkpt lat="47.694225" lon="2.039301">
        <ele>171</ele>
        <time>2022-01-20T10:05:38Z</time>
      </trkpt>
      <trkpt lat="47.69423" lon="2.0392861">
        <ele>171</ele>
        <time>2022-01-20T10:05:39Z</time>
      </trkpt>
      <trkpt lat="47.69423" lon="2.0392737">
        <ele>171</ele>
        <time>2022-01-20T10:05:40Z</time>
      </trkpt>
      <trkpt lat="47.69423" lon="2.039264">
        <ele>170</ele>
        <time>2022-01-20T10:05:41Z</time>
      </trkpt>
      <trkpt lat="47.694233" lon="2.0392468">
        <ele>170</ele>
        <time>2022-01-20T10:05:42Z</time>
      </trkpt>
      <trkpt lat="47.694237" lon="2.0392318">
        <ele>170</ele>
        <time>2022-01-20T10:05:43Z</time>
      </trkpt>
      <trkpt lat="47.69424" lon="2.0392106">
        <ele>170</ele>
        <time>2022-01-20T10:05:44Z</time>
      </trkpt>
      <trkpt lat="47.694244" lon="2.0391905">
        <ele>169</ele>
        <time>2022-01-20T10:05:45Z</time>
      </trkpt>
      <trkpt lat="47.694244" lon="2.0391676">
        <ele>169</ele>
        <time>2022-01-20T10:05:46Z</time>
      </trkpt>
      <trkpt lat="47.694244" lon="2.039148">
        <ele>169</ele>
        <time>2022-01-20T10:05:47Z</time>
      </trkpt>
      <trkpt lat="47.69425" lon="2.0391312">
        <ele>168</ele>
        <time>2022-01-20T10:05:48Z</time>
      </trkpt>
      <trkpt lat="47.694252" lon="2.0391185">
        <ele>168</ele>
        <time>2022-01-20T10:05:49Z</time>
      </trkpt>
      <trkpt lat="47.69426" lon="2.0391057">
        <ele>167</ele>
        <time>2022-01-20T10:05:50Z</time>
      </trkpt>
      <trkpt lat="47.694263" lon="2.0390944">
        <ele>167</ele>
        <time>2022-01-20T10:05:51Z</time>
      </trkpt>
      <trkpt lat="47.694263" lon="2.0390773">
        <ele>167</ele>
        <time>2022-01-20T10:05:52Z</time>
      </trkpt>
      <trkpt lat="47.694263" lon="2.03906">
        <ele>167</ele>
        <time>2022-01-20T10:05:53Z</time>
      </trkpt>
      <trkpt lat="47.69426" lon="2.0390468">
        <ele>167</ele>
        <time>2022-01-20T10:05:54Z</time>
      </trkpt>
      <trkpt lat="47.694256" lon="2.0390298">
        <ele>167</ele>
        <time>2022-01-20T10:05:55Z</time>
      </trkpt>
      <trkpt lat="47.694252" lon="2.039009">
        <ele>168</ele>
        <time>2022-01-20T10:05:56Z</time>
      </trkpt>
      <trkpt lat="47.694256" lon="2.0389943">
        <ele>168</ele>
        <time>2022-01-20T10:05:57Z</time>
      </trkpt>
      <trkpt lat="47.69426" lon="2.0389857">
        <ele>168</ele>
        <time>2022-01-20T10:05:58Z</time>
      </trkpt>
      <trkpt lat="47.69426" lon="2.0389707">
        <ele>169</ele>
        <time>2022-01-20T10:05:59Z</time>
      </trkpt>
      <trkpt lat="47.694263" lon="2.038953">
        <ele>169</ele>
        <time>2022-01-20T10:06:00Z</time>
      </trkpt>
      <trkpt lat="47.694263" lon="2.0389361">
        <ele>169</ele>
        <time>2022-01-20T10:06:01Z</time>
      </trkpt>
      <trkpt lat="47.694267" lon="2.0389154">
        <ele>169</ele>
        <time>2022-01-20T10:06:02Z</time>
      </trkpt>
      <trkpt lat="47.69427" lon="2.0388954">
        <ele>170</ele>
        <time>2022-01-20T10:06:03Z</time>
      </trkpt>
      <trkpt lat="47.69427" lon="2.038875">
        <ele>170</ele>
        <time>2022-01-20T10:06:04Z</time>
      </trkpt>
      <trkpt lat="47.694275" lon="2.0388656">
        <ele>170</ele>
        <time>2022-01-20T10:06:05Z</time>
      </trkpt>
      <trkpt lat="47.69428" lon="2.038861">
        <ele>170</ele>
        <time>2022-01-20T10:06:06Z</time>
      </trkpt>
      <trkpt lat="47.69428" lon="2.0388498">
        <ele>171</ele>
        <time>2022-01-20T10:06:07Z</time>
      </trkpt>
      <trkpt lat="47.69428" lon="2.0388381">
        <ele>171</ele>
        <time>2022-01-20T10:06:08Z</time>
      </trkpt>
      <trkpt lat="47.694283" lon="2.038827">
        <ele>171</ele>
        <time>2022-01-20T10:06:09Z</time>
      </trkpt>
      <trkpt lat="47.694286" lon="2.0388138">
        <ele>171</ele>
        <time>2022-01-20T10:06:10Z</time>
      </trkpt>
      <trkpt lat="47.69429" lon="2.0387928">
        <ele>171</ele>
        <time>2022-01-20T10:06:11Z</time>
      </trkpt>
      <trkpt lat="47.69429" lon="2.038773">
        <ele>171</ele>
        <time>2022-01-20T10:06:12Z</time>
      </trkpt>
      <trkpt lat="47.694286" lon="2.0387568">
        <ele>171</ele>
        <time>2022-01-20T10:06:13Z</time>
      </trkpt>
      <trkpt lat="47.694286" lon="2.0387385">
        <ele>170</ele>
        <time>2022-01-20T10:06:14Z</time>
      </trkpt>
      <trkpt lat="47.69429" lon="2.0387208">
        <ele>170</ele>
        <time>2022-01-20T10:06:15Z</time>
      </trkpt>
      <trkpt lat="47.69429" lon="2.038707">
        <ele>169</ele>
        <time>2022-01-20T10:06:16Z</time>
      </trkpt>
      <trkpt lat="47.69429" lon="2.038687">
        <ele>169</ele>
        <time>2022-01-20T10:06:17Z</time>
      </trkpt>
      <trkpt lat="47.69429" lon="2.0386653">
        <ele>169</ele>
        <time>2022-01-20T10:06:18Z</time>
      </trkpt>
      <trkpt lat="47.694286" lon="2.0386462">
        <ele>169</ele>
        <time>2022-01-20T10:06:19Z</time>
      </trkpt>
      <trkpt lat="47.694286" lon="2.0386279">
        <ele>169</ele>
        <time>2022-01-20T10:06:20Z</time>
      </trkpt>
      <trkpt lat="47.69429" lon="2.0386102">
        <ele>169</ele>
        <time>2022-01-20T10:06:21Z</time>
      </trkpt>
      <trkpt lat="47.694294" lon="2.0385978">
        <ele>169</ele>
        <time>2022-01-20T10:06:22Z</time>
      </trkpt>
      <trkpt lat="47.694294" lon="2.0385864">
        <ele>170</ele>
        <time>2022-01-20T10:06:23Z</time>
      </trkpt>
      <trkpt lat="47.694294" lon="2.0385656">
        <ele>169</ele>
        <time>2022-01-20T10:06:24Z</time>
      </trkpt>
      <trkpt lat="47.694294" lon="2.038553">
        <ele>169</ele>
        <time>2022-01-20T10:06:25Z</time>
      </trkpt>
      <trkpt lat="47.694294" lon="2.038558">
        <ele>168</ele>
        <time>2022-01-20T10:06:26Z</time>
      </trkpt>
      <trkpt lat="47.69429" lon="2.038561">
        <ele>168</ele>
        <time>2022-01-20T10:06:27Z</time>
      </trkpt>
      <trkpt lat="47.69429" lon="2.038561">
        <ele>168</ele>
        <time>2022-01-20T10:06:28Z</time>
      </trkpt>
      <trkpt lat="47.69429" lon="2.0385575">
        <ele>168</ele>
        <time>2022-01-20T10:06:29Z</time>
      </trkpt>
      <trkpt lat="47.69429" lon="2.0385427">
        <ele>168</ele>
        <time>2022-01-20T10:06:30Z</time>
      </trkpt>
      <trkpt lat="47.694294" lon="2.038522">
        <ele>168</ele>
        <time>2022-01-20T10:06:31Z</time>
      </trkpt>
      <trkpt lat="47.694298" lon="2.0385027">
        <ele>168</ele>
        <time>2022-01-20T10:06:32Z</time>
      </trkpt>
      <trkpt lat="47.694298" lon="2.0384896">
        <ele>168</ele>
        <time>2022-01-20T10:06:33Z</time>
      </trkpt>
      <trkpt lat="47.6943" lon="2.038479">
        <ele>169</ele>
        <time>2022-01-20T10:06:34Z</time>
      </trkpt>
      <trkpt lat="47.69431" lon="2.03847">
        <ele>169</ele>
        <time>2022-01-20T10:06:35Z</time>
      </trkpt>
      <trkpt lat="47.694313" lon="2.038462">
        <ele>169</ele>
        <time>2022-01-20T10:06:36Z</time>
      </trkpt>
      <trkpt lat="47.694317" lon="2.038462">
        <ele>169</ele>
        <time>2022-01-20T10:06:37Z</time>
      </trkpt>
      <trkpt lat="47.69432" lon="2.038456">
        <ele>169</ele>
        <time>2022-01-20T10:06:38Z</time>
      </trkpt>
      <trkpt lat="47.694324" lon="2.0384438">
        <ele>169</ele>
        <time>2022-01-20T10:06:39Z</time>
      </trkpt>
      <trkpt lat="47.694332" lon="2.0384352">
        <ele>169</ele>
        <time>2022-01-20T10:06:40Z</time>
      </trkpt>
      <trkpt lat="47.694336" lon="2.0384257">
        <ele>169</ele>
        <time>2022-01-20T10:06:41Z</time>
      </trkpt>
      <trkpt lat="47.694344" lon="2.0384164">
        <ele>169</ele>
        <time>2022-01-20T10:06:42Z</time>
      </trkpt>
      <trkpt lat="47.69435" lon="2.0384073">
        <ele>169</ele>
        <time>2022-01-20T10:06:43Z</time>
      </trkpt>
      <trkpt lat="47.69435" lon="2.03839">
        <ele>168</ele>
        <time>2022-01-20T10:06:44Z</time>
      </trkpt>
      <trkpt lat="47.694355" lon="2.0383778">
        <ele>168</ele>
        <time>2022-01-20T10:06:45Z</time>
      </trkpt>
      <trkpt lat="47.694355" lon="2.0383675">
        <ele>168</ele>
        <time>2022-01-20T10:06:46Z</time>
      </trkpt>
      <trkpt lat="47.694366" lon="2.0383573">
        <ele>168</ele>
        <time>2022-01-20T10:06:47Z</time>
      </trkpt>
      <trkpt lat="47.69437" lon="2.0383422">
        <ele>168</ele>
        <time>2022-01-20T10:06:48Z</time>
      </trkpt>
      <trkpt lat="47.694378" lon="2.0383286">
        <ele>168</ele>
        <time>2022-01-20T10:06:49Z</time>
      </trkpt>
      <trkpt lat="47.694386" lon="2.0383148">
        <ele>167</ele>
        <time>2022-01-20T10:06:50Z</time>
      </trkpt>
      <trkpt lat="47.69439" lon="2.0383">
        <ele>167</ele>
        <time>2022-01-20T10:06:51Z</time>
      </trkpt>
      <trkpt lat="47.69439" lon="2.0382879">
        <ele>167</ele>
        <time>2022-01-20T10:06:52Z</time>
      </trkpt>
      <trkpt lat="47.694393" lon="2.0382707">
        <ele>167</ele>
        <time>2022-01-20T10:06:53Z</time>
      </trkpt>
      <trkpt lat="47.694397" lon="2.0382576">
        <ele>167</ele>
        <time>2022-01-20T10:06:54Z</time>
      </trkpt>
      <trkpt lat="47.694405" lon="2.0382473">
        <ele>166</ele>
        <time>2022-01-20T10:06:55Z</time>
      </trkpt>
      <trkpt lat="47.69441" lon="2.0382347">
        <ele>166</ele>
        <time>2022-01-20T10:06:56Z</time>
      </trkpt>
      <trkpt lat="47.694412" lon="2.0382195">
        <ele>166</ele>
        <time>2022-01-20T10:06:57Z</time>
      </trkpt>
      <trkpt lat="47.69442" lon="2.0382018">
        <ele>166</ele>
        <time>2022-01-20T10:06:58Z</time>
      </trkpt>
      <trkpt lat="47.694427" lon="2.0381923">
        <ele>166</ele>
        <time>2022-01-20T10:06:59Z</time>
      </trkpt>
      <trkpt lat="47.69444" lon="2.038183">
        <ele>166</ele>
        <time>2022-01-20T10:07:00Z</time>
      </trkpt>
      <trkpt lat="47.694443" lon="2.0381675">
        <ele>166</ele>
        <time>2022-01-20T10:07:01Z</time>
      </trkpt>
      <trkpt lat="47.694443" lon="2.0381486">
        <ele>166</ele>
        <time>2022-01-20T10:07:02Z</time>
      </trkpt>
      <trkpt lat="47.69445" lon="2.0381377">
        <ele>166</ele>
        <time>2022-01-20T10:07:03Z</time>
      </trkpt>
      <trkpt lat="47.694458" lon="2.0381267">
        <ele>166</ele>
        <time>2022-01-20T10:07:04Z</time>
      </trkpt>
      <trkpt lat="47.694466" lon="2.038115">
        <ele>165</ele>
        <time>2022-01-20T10:07:05Z</time>
      </trkpt>
      <trkpt lat="47.694473" lon="2.0381005">
        <ele>166</ele>
        <time>2022-01-20T10:07:06Z</time>
      </trkpt>
      <trkpt lat="47.694485" lon="2.0380795">
        <ele>165</ele>
        <time>2022-01-20T10:07:07Z</time>
      </trkpt>
      <trkpt lat="47.694496" lon="2.0380716">
        <ele>166</ele>
        <time>2022-01-20T10:07:08Z</time>
      </trkpt>
      <trkpt lat="47.694504" lon="2.0380511">
        <ele>166</ele>
        <time>2022-01-20T10:07:09Z</time>
      </trkpt>
      <trkpt lat="47.694515" lon="2.0380397">
        <ele>166</ele>
        <time>2022-01-20T10:07:10Z</time>
      </trkpt>
      <trkpt lat="47.694527" lon="2.0380335">
        <ele>166</ele>
        <time>2022-01-20T10:07:11Z</time>
      </trkpt>
      <trkpt lat="47.694534" lon="2.0380278">
        <ele>165</ele>
        <time>2022-01-20T10:07:12Z</time>
      </trkpt>
      <trkpt lat="47.694542" lon="2.0380204">
        <ele>165</ele>
        <time>2022-01-20T10:07:13Z</time>
      </trkpt>
      <trkpt lat="47.69455" lon="2.0380096">
        <ele>165</ele>
        <time>2022-01-20T10:07:14Z</time>
      </trkpt>
      <trkpt lat="47.69456" lon="2.038007">
        <ele>165</ele>
        <time>2022-01-20T10:07:15Z</time>
      </trkpt>
      <trkpt lat="47.694565" lon="2.0380034">
        <ele>166</ele>
        <time>2022-01-20T10:07:16Z</time>
      </trkpt>
      <trkpt lat="47.69456" lon="2.0379922">
        <ele>166</ele>
        <time>2022-01-20T10:07:17Z</time>
      </trkpt>
      <trkpt lat="47.694557" lon="2.0379913">
        <ele>166</ele>
        <time>2022-01-20T10:07:18Z</time>
      </trkpt>
      <trkpt lat="47.694557" lon="2.0379913">
        <ele>166</ele>
        <time>2022-01-20T10:07:18Z</time>
      </trkpt>
    </trkseg>
    <trkseg>
      <trkpt lat="47.694557" lon="2.0379913">
        <ele>166</ele>
        <time>2022-01-20T10:07:18Z</time>
      </trkpt>
      <trkpt lat="47.69458" lon="2.037884">
        <ele>165</ele>
        <time>2022-01-20T10:07:30Z</time>
      </trkpt>
      <trkpt lat="47.69459" lon="2.0378668">
        <ele>164</ele>
        <time>2022-01-20T10:07:31Z</time>
      </trkpt>
      <trkpt lat="47.694603" lon="2.0378544">
        <ele>164</ele>
        <time>2022-01-20T10:07:32Z</time>
      </trkpt>
      <trkpt lat="47.69461" lon="2.0378456">
        <ele>164</ele>
        <time>2022-01-20T10:07:33Z</time>
      </trkpt>
      <trkpt lat="47.69462" lon="2.0378406">
        <ele>163</ele>
        <time>2022-01-20T10:07:34Z</time>
      </trkpt>
      <trkpt lat="47.694622" lon="2.0378299">
        <ele>163</ele>
        <time>2022-01-20T10:07:35Z</time>
      </trkpt>
      <trkpt lat="47.694633" lon="2.0378125">
        <ele>164</ele>
        <time>2022-01-20T10:07:36Z</time>
      </trkpt>
      <trkpt lat="47.69464" lon="2.0378056">
        <ele>164</ele>
        <time>2022-01-20T10:07:37Z</time>
      </trkpt>
      <trkpt lat="47.694645" lon="2.0377886">
        <ele>164</ele>
        <time>2022-01-20T10:07:38Z</time>
      </trkpt>
      <trkpt lat="47.69465" lon="2.0377717">
        <ele>165</ele>
        <time>2022-01-20T10:07:39Z</time>
      </trkpt>
      <trkpt lat="47.694656" lon="2.0377545">
        <ele>165</ele>
        <time>2022-01-20T10:07:40Z</time>
      </trkpt>
      <trkpt lat="47.694664" lon="2.037739">
        <ele>165</ele>
        <time>2022-01-20T10:07:41Z</time>
      </trkpt>
      <trkpt lat="47.69467" lon="2.0377285">
        <ele>165</ele>
        <time>2022-01-20T10:07:42Z</time>
      </trkpt>
      <trkpt lat="47.694683" lon="2.0377212">
        <ele>165</ele>
        <time>2022-01-20T10:07:43Z</time>
      </trkpt>
      <trkpt lat="47.69469" lon="2.037709">
        <ele>164</ele>
        <time>2022-01-20T10:07:44Z</time>
      </trkpt>
      <trkpt lat="47.6947" lon="2.03769">
        <ele>164</ele>
        <time>2022-01-20T10:07:45Z</time>
      </trkpt>
      <trkpt lat="47.694706" lon="2.0376728">
        <ele>164</ele>
        <time>2022-01-20T10:07:46Z</time>
      </trkpt>
      <trkpt lat="47.694714" lon="2.0376606">
        <ele>164</ele>
        <time>2022-01-20T10:07:47Z</time>
      </trkpt>
      <trkpt lat="47.694725" lon="2.0376458">
        <ele>164</ele>
        <time>2022-01-20T10:07:48Z</time>
      </trkpt>
      <trkpt lat="47.694733" lon="2.037631">
        <ele>164</ele>
        <time>2022-01-20T10:07:49Z</time>
      </trkpt>
      <trkpt lat="47.69474" lon="2.0376153">
        <ele>164</ele>
        <time>2022-01-20T10:07:50Z</time>
      </trkpt>
      <trkpt lat="47.694748" lon="2.037604">
        <ele>164</ele>
        <time>2022-01-20T10:07:51Z</time>
      </trkpt>
      <trkpt lat="47.694756" lon="2.037595">
        <ele>164</ele>
        <time>2022-01-20T10:07:52Z</time>
      </trkpt>
      <trkpt lat="47.694763" lon="2.0375836">
        <ele>164</ele>
        <time>2022-01-20T10:07:53Z</time>
      </trkpt>
      <trkpt lat="47.69477" lon="2.0375733">
        <ele>164</ele>
        <time>2022-01-20T10:07:54Z</time>
      </trkpt>
      <trkpt lat="47.694782" lon="2.0375657">
        <ele>164</ele>
        <time>2022-01-20T10:07:55Z</time>
      </trkpt>
      <trkpt lat="47.69479" lon="2.0375533">
        <ele>164</ele>
        <time>2022-01-20T10:07:56Z</time>
      </trkpt>
      <trkpt lat="47.694798" lon="2.0375376">
        <ele>164</ele>
        <time>2022-01-20T10:07:57Z</time>
      </trkpt>
      <trkpt lat="47.69481" lon="2.0375197">
        <ele>165</ele>
        <time>2022-01-20T10:07:58Z</time>
      </trkpt>
      <trkpt lat="47.694813" lon="2.037509">
        <ele>165</ele>
        <time>2022-01-20T10:07:59Z</time>
      </trkpt>
      <trkpt lat="47.69482" lon="2.0374966">
        <ele>165</ele>
        <time>2022-01-20T10:08:00Z</time>
      </trkpt>
      <trkpt lat="47.69483" lon="2.0374887">
        <ele>165</ele>
        <time>2022-01-20T10:08:01Z</time>
      </trkpt>
      <trkpt lat="47.694843" lon="2.0374742">
        <ele>166</ele>
        <time>2022-01-20T10:08:02Z</time>
      </trkpt>
      <trkpt lat="47.694855" lon="2.0374584">
        <ele>166</ele>
        <time>2022-01-20T10:08:03Z</time>
      </trkpt>
      <trkpt lat="47.694862" lon="2.03744">
        <ele>166</ele>
        <time>2022-01-20T10:08:04Z</time>
      </trkpt>
      <trkpt lat="47.69487" lon="2.0374346">
        <ele>166</ele>
        <time>2022-01-20T10:08:05Z</time>
      </trkpt>
      <trkpt lat="47.69487" lon="2.0374277">
        <ele>165</ele>
        <time>2022-01-20T10:08:06Z</time>
      </trkpt>
      <trkpt lat="47.694866" lon="2.037414">
        <ele>166</ele>
        <time>2022-01-20T10:08:07Z</time>
      </trkpt>
      <trkpt lat="47.694866" lon="2.0374064">
        <ele>166</ele>
        <time>2022-01-20T10:08:08Z</time>
      </trkpt>
      <trkpt lat="47.694866" lon="2.0374055">
        <ele>166</ele>
        <time>2022-01-20T10:08:09Z</time>
      </trkpt>
      <trkpt lat="47.694866" lon="2.0374055">
        <ele>166</ele>
        <time>2022-01-20T10:08:09Z</time>
      </trkpt>
    </trkseg>
    <trkseg>
      <trkpt lat="47.694885" lon="2.0373425">
        <ele>165</ele>
        <time>2022-01-20T10:08:16Z</time>
      </trkpt>
      <trkpt lat="47.694893" lon="2.0373306">
        <ele>165</ele>
        <time>2022-01-20T10:08:17Z</time>
      </trkpt>
      <trkpt lat="47.6949" lon="2.0373218">
        <ele>165</ele>
        <time>2022-01-20T10:08:18Z</time>
      </trkpt>
      <trkpt lat="47.69491" lon="2.0373125">
        <ele>165</ele>
        <time>2022-01-20T10:08:19Z</time>
      </trkpt>
      <trkpt lat="47.694912" lon="2.0373077">
        <ele>165</ele>
        <time>2022-01-20T10:08:20Z</time>
      </trkpt>
      <trkpt lat="47.69492" lon="2.0372977">
        <ele>165</ele>
        <time>2022-01-20T10:08:21Z</time>
      </trkpt>
      <trkpt lat="47.694923" lon="2.0372813">
        <ele>164</ele>
        <time>2022-01-20T10:08:22Z</time>
      </trkpt>
      <trkpt lat="47.694927" lon="2.037269">
        <ele>164</ele>
        <time>2022-01-20T10:08:23Z</time>
      </trkpt>
      <trkpt lat="47.694935" lon="2.037253">
        <ele>163</ele>
        <time>2022-01-20T10:08:24Z</time>
      </trkpt>
      <trkpt lat="47.694942" lon="2.037231">
        <ele>163</ele>
        <time>2022-01-20T10:08:25Z</time>
      </trkpt>
      <trkpt lat="47.69495" lon="2.037208">
        <ele>163</ele>
        <time>2022-01-20T10:08:26Z</time>
      </trkpt>
      <trkpt lat="47.694954" lon="2.0371938">
        <ele>163</ele>
        <time>2022-01-20T10:08:27Z</time>
      </trkpt>
      <trkpt lat="47.69496" lon="2.0371785">
        <ele>163</ele>
        <time>2022-01-20T10:08:28Z</time>
      </trkpt>
      <trkpt lat="47.69497" lon="2.037167">
        <ele>163</ele>
        <time>2022-01-20T10:08:29Z</time>
      </trkpt>
      <trkpt lat="47.694977" lon="2.0371606">
        <ele>162</ele>
        <time>2022-01-20T10:08:30Z</time>
      </trkpt>
      <trkpt lat="47.694984" lon="2.0371468">
        <ele>162</ele>
        <time>2022-01-20T10:08:31Z</time>
      </trkpt>
      <trkpt lat="47.694992" lon="2.0371337">
        <ele>162</ele>
        <time>2022-01-20T10:08:32Z</time>
      </trkpt>
      <trkpt lat="47.695" lon="2.0371184">
        <ele>163</ele>
        <time>2022-01-20T10:08:33Z</time>
      </trkpt>
      <trkpt lat="47.695007" lon="2.0371072">
        <ele>163</ele>
        <time>2022-01-20T10:08:34Z</time>
      </trkpt>
      <trkpt lat="47.69501" lon="2.0370972">
        <ele>163</ele>
        <time>2022-01-20T10:08:35Z</time>
      </trkpt>
      <trkpt lat="47.69502" lon="2.037082">
        <ele>163</ele>
        <time>2022-01-20T10:08:36Z</time>
      </trkpt>
      <trkpt lat="47.695026" lon="2.0370693">
        <ele>163</ele>
        <time>2022-01-20T10:08:37Z</time>
      </trkpt>
      <trkpt lat="47.695034" lon="2.0370576">
        <ele>163</ele>
        <time>2022-01-20T10:08:38Z</time>
      </trkpt>
      <trkpt lat="47.695038" lon="2.0370433">
        <ele>162</ele>
        <time>2022-01-20T10:08:39Z</time>
      </trkpt>
      <trkpt lat="47.69505" lon="2.0370333">
        <ele>162</ele>
        <time>2022-01-20T10:08:40Z</time>
      </trkpt>
      <trkpt lat="47.695057" lon="2.0370288">
        <ele>162</ele>
        <time>2022-01-20T10:08:41Z</time>
      </trkpt>
      <trkpt lat="47.695057" lon="2.0370288">
        <ele>162</ele>
        <time>2022-01-20T10:08:42Z</time>
      </trkpt>
      <trkpt lat="47.695057" lon="2.0370288">
        <ele>162</ele>
        <time>2022-01-20T10:08:43Z</time>
      </trkpt>
      <trkpt lat="47.695072" lon="2.0370119">
        <ele>163</ele>
        <time>2022-01-20T10:08:44Z</time>
      </trkpt>
      <trkpt lat="47.695076" lon="2.0370023">
        <ele>163</ele>
        <time>2022-01-20T10:08:45Z</time>
      </trkpt>
      <trkpt lat="47.695084" lon="2.0369952">
        <ele>164</ele>
        <time>2022-01-20T10:08:46Z</time>
      </trkpt>
      <trkpt lat="47.695087" lon="2.036985">
        <ele>163</ele>
        <time>2022-01-20T10:08:47Z</time>
      </trkpt>
      <trkpt lat="47.695087" lon="2.0369732">
        <ele>163</ele>
        <time>2022-01-20T10:08:48Z</time>
      </trkpt>
      <trkpt lat="47.69509" lon="2.0369568">
        <ele>163</ele>
        <time>2022-01-20T10:08:49Z</time>
      </trkpt>
      <trkpt lat="47.695095" lon="2.0369394">
        <ele>164</ele>
        <time>2022-01-20T10:08:50Z</time>
      </trkpt>
      <trkpt lat="47.6951" lon="2.0369225">
        <ele>163</ele>
        <time>2022-01-20T10:08:51Z</time>
      </trkpt>
      <trkpt lat="47.695107" lon="2.0369084">
        <ele>163</ele>
        <time>2022-01-20T10:08:52Z</time>
      </trkpt>
      <trkpt lat="47.69511" lon="2.0368986">
        <ele>163</ele>
        <time>2022-01-20T10:08:53Z</time>
      </trkpt>
      <trkpt lat="47.695114" lon="2.0368958">
        <ele>163</ele>
        <time>2022-01-20T10:08:54Z</time>
      </trkpt>
      <trkpt lat="47.695114" lon="2.0368872">
        <ele>162</ele>
        <time>2022-01-20T10:08:56Z</time>
      </trkpt>
      <trkpt lat="47.695118" lon="2.036874">
        <ele>162</ele>
        <time>2022-01-20T10:08:57Z</time>
      </trkpt>
      <trkpt lat="47.69512" lon="2.0368667">
        <ele>162</ele>
        <time>2022-01-20T10:08:58Z</time>
      </trkpt>
      <trkpt lat="47.695126" lon="2.0368552">
        <ele>162</ele>
        <time>2022-01-20T10:08:59Z</time>
      </trkpt>
      <trkpt lat="47.695126" lon="2.036839">
        <ele>162</ele>
        <time>2022-01-20T10:09:00Z</time>
      </trkpt>
      <trkpt lat="47.695137" lon="2.0368233">
        <ele>162</ele>
        <time>2022-01-20T10:09:01Z</time>
      </trkpt>
      <trkpt lat="47.695137" lon="2.0368233">
        <ele>162</ele>
        <time>2022-01-20T10:09:01Z</time>
      </trkpt>
      <trkpt lat="47.695145" lon="2.0368114">
        <ele>162</ele>
        <time>2022-01-20T10:09:03Z</time>
      </trkpt>
      <trkpt lat="47.695152" lon="2.036798">
        <ele>161</ele>
        <time>2022-01-20T10:09:04Z</time>
      </trkpt>
      <trkpt lat="47.695164" lon="2.0367808">
        <ele>162</ele>
        <time>2022-01-20T10:09:05Z</time>
      </trkpt>
      <trkpt lat="47.69517" lon="2.0367682">
        <ele>163</ele>
        <time>2022-01-20T10:09:06Z</time>
      </trkpt>
      <trkpt lat="47.695183" lon="2.0367513">
        <ele>163</ele>
        <time>2022-01-20T10:09:07Z</time>
      </trkpt>
      <trkpt lat="47.695194" lon="2.0367422">
        <ele>164</ele>
        <time>2022-01-20T10:09:08Z</time>
      </trkpt>
      <trkpt lat="47.695213" lon="2.036718">
        <ele>164</ele>
        <time>2022-01-20T10:09:09Z</time>
      </trkpt>
      <trkpt lat="47.695213" lon="2.036718">
        <ele>164</ele>
        <time>2022-01-20T10:09:09Z</time>
      </trkpt>
      <trkpt lat="47.69522" lon="2.0366964">
        <ele>165</ele>
        <time>2022-01-20T10:09:11Z</time>
      </trkpt>
      <trkpt lat="47.69523" lon="2.0366805">
        <ele>164</ele>
        <time>2022-01-20T10:09:12Z</time>
      </trkpt>
      <trkpt lat="47.69524" lon="2.0366483">
        <ele>164</ele>
        <time>2022-01-20T10:09:13Z</time>
      </trkpt>
      <trkpt lat="47.695248" lon="2.0366316">
        <ele>164</ele>
        <time>2022-01-20T10:09:14Z</time>
      </trkpt>
      <trkpt lat="47.695248" lon="2.0366316">
        <ele>164</ele>
        <time>2022-01-20T10:09:14Z</time>
      </trkpt>
      <trkpt lat="47.695255" lon="2.0366204">
        <ele>164</ele>
        <time>2022-01-20T10:09:16Z</time>
      </trkpt>
      <trkpt lat="47.69526" lon="2.036609">
        <ele>164</ele>
        <time>2022-01-20T10:09:17Z</time>
      </trkpt>
      <trkpt lat="47.695267" lon="2.0365994">
        <ele>164</ele>
        <time>2022-01-20T10:09:18Z</time>
      </trkpt>
      <trkpt lat="47.695274" lon="2.0365913">
        <ele>164</ele>
        <time>2022-01-20T10:09:19Z</time>
      </trkpt>
      <trkpt lat="47.69528" lon="2.0365832">
        <ele>164</ele>
        <time>2022-01-20T10:09:20Z</time>
      </trkpt>
      <trkpt lat="47.695286" lon="2.0365782">
        <ele>164</ele>
        <time>2022-01-20T10:09:21Z</time>
      </trkpt>
      <trkpt lat="47.69529" lon="2.0365703">
        <ele>164</ele>
        <time>2022-01-20T10:09:22Z</time>
      </trkpt>
      <trkpt lat="47.6953" lon="2.036568">
        <ele>163</ele>
        <time>2022-01-20T10:09:23Z</time>
      </trkpt>
      <trkpt lat="47.69531" lon="2.0365736">
        <ele>163</ele>
        <time>2022-01-20T10:09:24Z</time>
      </trkpt>
      <trkpt lat="47.69531" lon="2.0365858">
        <ele>163</ele>
        <time>2022-01-20T10:09:25Z</time>
      </trkpt>
      <trkpt lat="47.69531" lon="2.0365858">
        <ele>163</ele>
        <time>2022-01-20T10:09:25Z</time>
      </trkpt>
      <trkpt lat="47.69531" lon="2.0365858">
        <ele>163</ele>
        <time>2022-01-20T10:09:25Z</time>
      </trkpt>
    </trkseg>
    <trkseg>
      <trkpt lat="47.69531" lon="2.0365858">
        <ele>163</ele>
        <time>2022-01-20T10:09:25Z</time>
      </trkpt>
      <trkpt lat="47.69534" lon="2.036528">
        <ele>162</ele>
        <time>2022-01-20T10:09:33Z</time>
      </trkpt>
      <trkpt lat="47.695347" lon="2.0365133">
        <ele>162</ele>
        <time>2022-01-20T10:09:34Z</time>
      </trkpt>
      <trkpt lat="47.69535" lon="2.0364983">
        <ele>162</ele>
        <time>2022-01-20T10:09:35Z</time>
      </trkpt>
      <trkpt lat="47.695362" lon="2.0364738">
        <ele>161</ele>
        <time>2022-01-20T10:09:36Z</time>
      </trkpt>
      <trkpt lat="47.69537" lon="2.0364633">
        <ele>161</ele>
        <time>2022-01-20T10:09:37Z</time>
      </trkpt>
      <trkpt lat="47.69537" lon="2.0364633">
        <ele>161</ele>
        <time>2022-01-20T10:09:37Z</time>
      </trkpt>
      <trkpt lat="47.69539" lon="2.0364416">
        <ele>162</ele>
        <time>2022-01-20T10:09:39Z</time>
      </trkpt>
      <trkpt lat="47.695393" lon="2.036425">
        <ele>163</ele>
        <time>2022-01-20T10:09:40Z</time>
      </trkpt>
      <trkpt lat="47.695404" lon="2.0364149">
        <ele>163</ele>
        <time>2022-01-20T10:09:41Z</time>
      </trkpt>
      <trkpt lat="47.69541" lon="2.0363986">
        <ele>164</ele>
        <time>2022-01-20T10:09:42Z</time>
      </trkpt>
      <trkpt lat="47.695415" lon="2.0363836">
        <ele>163</ele>
        <time>2022-01-20T10:09:43Z</time>
      </trkpt>
      <trkpt lat="47.69542" lon="2.0363667">
        <ele>164</ele>
        <time>2022-01-20T10:09:44Z</time>
      </trkpt>
      <trkpt lat="47.69542" lon="2.0363514">
        <ele>164</ele>
        <time>2022-01-20T10:09:45Z</time>
      </trkpt>
      <trkpt lat="47.69542" lon="2.0363421">
        <ele>165</ele>
        <time>2022-01-20T10:09:46Z</time>
      </trkpt>
      <trkpt lat="47.695423" lon="2.0363271">
        <ele>165</ele>
        <time>2022-01-20T10:09:47Z</time>
      </trkpt>
      <trkpt lat="47.695427" lon="2.036312">
        <ele>165</ele>
        <time>2022-01-20T10:09:48Z</time>
      </trkpt>
      <trkpt lat="47.695435" lon="2.0362914">
        <ele>165</ele>
        <time>2022-01-20T10:09:49Z</time>
      </trkpt>
      <trkpt lat="47.695435" lon="2.0362914">
        <ele>165</ele>
        <time>2022-01-20T10:09:49Z</time>
      </trkpt>
      <trkpt lat="47.695446" lon="2.0362577">
        <ele>165</ele>
        <time>2022-01-20T10:09:51Z</time>
      </trkpt>
      <trkpt lat="47.695454" lon="2.0362427">
        <ele>165</ele>
        <time>2022-01-20T10:09:52Z</time>
      </trkpt>
      <trkpt lat="47.695457" lon="2.0362303">
        <ele>164</ele>
        <time>2022-01-20T10:09:53Z</time>
      </trkpt>
      <trkpt lat="47.695465" lon="2.0362132">
        <ele>164</ele>
        <time>2022-01-20T10:09:54Z</time>
      </trkpt>
      <trkpt lat="47.69547" lon="2.0362036">
        <ele>164</ele>
        <time>2022-01-20T10:09:55Z</time>
      </trkpt>
      <trkpt lat="47.695473" lon="2.036191">
        <ele>164</ele>
        <time>2022-01-20T10:09:56Z</time>
      </trkpt>
      <trkpt lat="47.695477" lon="2.0361807">
        <ele>164</ele>
        <time>2022-01-20T10:09:57Z</time>
      </trkpt>
      <trkpt lat="47.695484" lon="2.0361652">
        <ele>164</ele>
        <time>2022-01-20T10:09:58Z</time>
      </trkpt>
      <trkpt lat="47.69549" lon="2.0361476">
        <ele>163</ele>
        <time>2022-01-20T10:09:59Z</time>
      </trkpt>
      <trkpt lat="47.695496" lon="2.036132">
        <ele>163</ele>
        <time>2022-01-20T10:10:00Z</time>
      </trkpt>
      <trkpt lat="47.6955" lon="2.0361164">
        <ele>163</ele>
        <time>2022-01-20T10:10:01Z</time>
      </trkpt>
      <trkpt lat="47.695507" lon="2.0361044">
        <ele>163</ele>
        <time>2022-01-20T10:10:02Z</time>
      </trkpt>
      <trkpt lat="47.695515" lon="2.036088">
        <ele>163</ele>
        <time>2022-01-20T10:10:03Z</time>
      </trkpt>
      <trkpt lat="47.69552" lon="2.0360708">
        <ele>163</ele>
        <time>2022-01-20T10:10:04Z</time>
      </trkpt>
      <trkpt lat="47.695526" lon="2.0360572">
        <ele>164</ele>
        <time>2022-01-20T10:10:05Z</time>
      </trkpt>
      <trkpt lat="47.69553" lon="2.0360444">
        <ele>164</ele>
        <time>2022-01-20T10:10:06Z</time>
      </trkpt>
      <trkpt lat="47.695534" lon="2.0360312">
        <ele>164</ele>
        <time>2022-01-20T10:10:07Z</time>
      </trkpt>
      <trkpt lat="47.695538" lon="2.0360165">
        <ele>164</ele>
        <time>2022-01-20T10:10:08Z</time>
      </trkpt>
      <trkpt lat="47.69554" lon="2.0359936">
        <ele>164</ele>
        <time>2022-01-20T10:10:09Z</time>
      </trkpt>
      <trkpt lat="47.69555" lon="2.0359724">
        <ele>164</ele>
        <time>2022-01-20T10:10:10Z</time>
      </trkpt>
      <trkpt lat="47.695553" lon="2.0359583">
        <ele>163</ele>
        <time>2022-01-20T10:10:11Z</time>
      </trkpt>
      <trkpt lat="47.695557" lon="2.0359433">
        <ele>163</ele>
        <time>2022-01-20T10:10:12Z</time>
      </trkpt>
      <trkpt lat="47.69556" lon="2.035928">
        <ele>163</ele>
        <time>2022-01-20T10:10:13Z</time>
      </trkpt>
      <trkpt lat="47.695564" lon="2.0359128">
        <ele>163</ele>
        <time>2022-01-20T10:10:14Z</time>
      </trkpt>
      <trkpt lat="47.695568" lon="2.0358958">
        <ele>163</ele>
        <time>2022-01-20T10:10:15Z</time>
      </trkpt>
      <trkpt lat="47.695568" lon="2.0358796">
        <ele>163</ele>
        <time>2022-01-20T10:10:16Z</time>
      </trkpt>
      <trkpt lat="47.69557" lon="2.0358658">
        <ele>163</ele>
        <time>2022-01-20T10:10:17Z</time>
      </trkpt>
      <trkpt lat="47.69557" lon="2.0358586">
        <ele>163</ele>
        <time>2022-01-20T10:10:18Z</time>
      </trkpt>
      <trkpt lat="47.695576" lon="2.0358596">
        <ele>162</ele>
        <time>2022-01-20T10:10:19Z</time>
      </trkpt>
      <trkpt lat="47.695576" lon="2.0358543">
        <ele>162</ele>
        <time>2022-01-20T10:10:20Z</time>
      </trkpt>
      <trkpt lat="47.695576" lon="2.0358543">
        <ele>162</ele>
        <time>2022-01-20T10:10:21Z</time>
      </trkpt>
      <trkpt lat="47.695576" lon="2.0358543">
        <ele>162</ele>
        <time>2022-01-20T10:10:22Z</time>
      </trkpt>
      <trkpt lat="47.695576" lon="2.0358543">
        <ele>162</ele>
        <time>2022-01-20T10:10:23Z</time>
      </trkpt>
      <trkpt lat="47.695576" lon="2.0358543">
        <ele>162</ele>
        <time>2022-01-20T10:10:24Z</time>
      </trkpt>
      <trkpt lat="47.695576" lon="2.0358543">
        <ele>162</ele>
        <time>2022-01-20T10:10:24Z</time>
      </trkpt>
    </trkseg>
    <trkseg>
      <trkpt lat="47.695576" lon="2.0358543">
        <ele>162</ele>
        <time>2022-01-20T10:10:24Z</time>
      </trkpt>
      <trkpt lat="47.69558" lon="2.0356674">
        <ele>165</ele>
        <time>2022-01-20T10:11:37Z</time>
      </trkpt>
      <trkpt lat="47.69558" lon="2.0356524">
        <ele>165</ele>
        <time>2022-01-20T10:11:38Z</time>
      </trkpt>
      <trkpt lat="47.695583" lon="2.0356407">
        <ele>166</ele>
        <time>2022-01-20T10:11:39Z</time>
      </trkpt>
      <trkpt lat="47.695587" lon="2.0356305">
        <ele>166</ele>
        <time>2022-01-20T10:11:40Z</time>
      </trkpt>
      <trkpt lat="47.69559" lon="2.0356128">
        <ele>167</ele>
        <time>2022-01-20T10:11:41Z</time>
      </trkpt>
      <trkpt lat="47.695595" lon="2.0355985">
        <ele>167</ele>
        <time>2022-01-20T10:11:42Z</time>
      </trkpt>
      <trkpt lat="47.695602" lon="2.035587">
        <ele>166</ele>
        <time>2022-01-20T10:11:43Z</time>
      </trkpt>
      <trkpt lat="47.69561" lon="2.0355785">
        <ele>167</ele>
        <time>2022-01-20T10:11:44Z</time>
      </trkpt>
      <trkpt lat="47.695614" lon="2.0355625">
        <ele>167</ele>
        <time>2022-01-20T10:11:45Z</time>
      </trkpt>
      <trkpt lat="47.69562" lon="2.0355444">
        <ele>167</ele>
        <time>2022-01-20T10:11:46Z</time>
      </trkpt>
      <trkpt lat="47.69563" lon="2.035533">
        <ele>167</ele>
        <time>2022-01-20T10:11:47Z</time>
      </trkpt>
      <trkpt lat="47.69565" lon="2.0355253">
        <ele>167</ele>
        <time>2022-01-20T10:11:48Z</time>
      </trkpt>
      <trkpt lat="47.69566" lon="2.035516">
        <ele>167</ele>
        <time>2022-01-20T10:11:49Z</time>
      </trkpt>
      <trkpt lat="47.695663" lon="2.0355067">
        <ele>167</ele>
        <time>2022-01-20T10:11:50Z</time>
      </trkpt>
      <trkpt lat="47.695667" lon="2.0354974">
        <ele>167</ele>
        <time>2022-01-20T10:11:51Z</time>
      </trkpt>
      <trkpt lat="47.69567" lon="2.035482">
        <ele>167</ele>
        <time>2022-01-20T10:11:52Z</time>
      </trkpt>
      <trkpt lat="47.69568" lon="2.035472">
        <ele>166</ele>
        <time>2022-01-20T10:11:53Z</time>
      </trkpt>
      <trkpt lat="47.695683" lon="2.0354595">
        <ele>166</ele>
        <time>2022-01-20T10:11:54Z</time>
      </trkpt>
      <trkpt lat="47.69569" lon="2.0354471">
        <ele>166</ele>
        <time>2022-01-20T10:11:55Z</time>
      </trkpt>
      <trkpt lat="47.695694" lon="2.0354352">
        <ele>166</ele>
        <time>2022-01-20T10:11:56Z</time>
      </trkpt>
      <trkpt lat="47.6957" lon="2.0354278">
        <ele>166</ele>
        <time>2022-01-20T10:11:57Z</time>
      </trkpt>
      <trkpt lat="47.6957" lon="2.0354142">
        <ele>166</ele>
        <time>2022-01-20T10:11:58Z</time>
      </trkpt>
      <trkpt lat="47.6957" lon="2.0354006">
        <ele>166</ele>
        <time>2022-01-20T10:11:59Z</time>
      </trkpt>
      <trkpt lat="47.695705" lon="2.0353827">
        <ele>166</ele>
        <time>2022-01-20T10:12:00Z</time>
      </trkpt>
      <trkpt lat="47.69571" lon="2.0353715">
        <ele>166</ele>
        <time>2022-01-20T10:12:01Z</time>
      </trkpt>
      <trkpt lat="47.695717" lon="2.0353575">
        <ele>166</ele>
        <time>2022-01-20T10:12:02Z</time>
      </trkpt>
      <trkpt lat="47.695717" lon="2.0353441">
        <ele>166</ele>
        <time>2022-01-20T10:12:03Z</time>
      </trkpt>
      <trkpt lat="47.69572" lon="2.0353322">
        <ele>166</ele>
        <time>2022-01-20T10:12:04Z</time>
      </trkpt>
      <trkpt lat="47.69573" lon="2.0353193">
        <ele>166</ele>
        <time>2022-01-20T10:12:05Z</time>
      </trkpt>
      <trkpt lat="47.695736" lon="2.0353017">
        <ele>167</ele>
        <time>2022-01-20T10:12:06Z</time>
      </trkpt>
      <trkpt lat="47.69574" lon="2.0352912">
        <ele>167</ele>
        <time>2022-01-20T10:12:07Z</time>
      </trkpt>
      <trkpt lat="47.695744" lon="2.0352802">
        <ele>167</ele>
        <time>2022-01-20T10:12:08Z</time>
      </trkpt>
      <trkpt lat="47.695747" lon="2.035271">
        <ele>167</ele>
        <time>2022-01-20T10:12:09Z</time>
      </trkpt>
      <trkpt lat="47.69575" lon="2.0352602">
        <ele>167</ele>
        <time>2022-01-20T10:12:10Z</time>
      </trkpt>
      <trkpt lat="47.695763" lon="2.0352492">
        <ele>168</ele>
        <time>2022-01-20T10:12:11Z</time>
      </trkpt>
      <trkpt lat="47.69577" lon="2.0352328">
        <ele>168</ele>
        <time>2022-01-20T10:12:12Z</time>
      </trkpt>
      <trkpt lat="47.695774" lon="2.0352204">
        <ele>168</ele>
        <time>2022-01-20T10:12:13Z</time>
      </trkpt>
      <trkpt lat="47.695778" lon="2.0352113">
        <ele>168</ele>
        <time>2022-01-20T10:12:14Z</time>
      </trkpt>
      <trkpt lat="47.695778" lon="2.0352056">
        <ele>168</ele>
        <time>2022-01-20T10:12:15Z</time>
      </trkpt>
      <trkpt lat="47.69578" lon="2.035193">
        <ele>169</ele>
        <time>2022-01-20T10:12:16Z</time>
      </trkpt>
      <trkpt lat="47.69578" lon="2.0351768">
        <ele>169</ele>
        <time>2022-01-20T10:12:17Z</time>
      </trkpt>
      <trkpt lat="47.695786" lon="2.0351624">
        <ele>169</ele>
        <time>2022-01-20T10:12:18Z</time>
      </trkpt>
      <trkpt lat="47.695793" lon="2.0351477">
        <ele>169</ele>
        <time>2022-01-20T10:12:19Z</time>
      </trkpt>
      <trkpt lat="47.695797" lon="2.035133">
        <ele>169</ele>
        <time>2022-01-20T10:12:20Z</time>
      </trkpt>
      <trkpt lat="47.69581" lon="2.035119">
        <ele>169</ele>
        <time>2022-01-20T10:12:21Z</time>
      </trkpt>
      <trkpt lat="47.695816" lon="2.0351045">
        <ele>168</ele>
        <time>2022-01-20T10:12:22Z</time>
      </trkpt>
      <trkpt lat="47.69582" lon="2.0350857">
        <ele>168</ele>
        <time>2022-01-20T10:12:23Z</time>
      </trkpt>
      <trkpt lat="47.695824" lon="2.0350673">
        <ele>168</ele>
        <time>2022-01-20T10:12:24Z</time>
      </trkpt>
      <trkpt lat="47.695827" lon="2.0350468">
        <ele>168</ele>
        <time>2022-01-20T10:12:25Z</time>
      </trkpt>
      <trkpt lat="47.695827" lon="2.0350313">
        <ele>168</ele>
        <time>2022-01-20T10:12:26Z</time>
      </trkpt>
      <trkpt lat="47.69583" lon="2.0350187">
        <ele>168</ele>
        <time>2022-01-20T10:12:27Z</time>
      </trkpt>
      <trkpt lat="47.695835" lon="2.0350063">
        <ele>168</ele>
        <time>2022-01-20T10:12:28Z</time>
      </trkpt>
      <trkpt lat="47.695835" lon="2.0349958">
        <ele>168</ele>
        <time>2022-01-20T10:12:29Z</time>
      </trkpt>
      <trkpt lat="47.69584" lon="2.034991">
        <ele>169</ele>
        <time>2022-01-20T10:12:30Z</time>
      </trkpt>
      <trkpt lat="47.69584" lon="2.0349877">
        <ele>169</ele>
        <time>2022-01-20T10:12:31Z</time>
      </trkpt>
      <trkpt lat="47.695847" lon="2.0349872">
        <ele>169</ele>
        <time>2022-01-20T10:12:32Z</time>
      </trkpt>
      <trkpt lat="47.695854" lon="2.0349808">
        <ele>169</ele>
        <time>2022-01-20T10:12:33Z</time>
      </trkpt>
      <trkpt lat="47.69586" lon="2.034975">
        <ele>169</ele>
        <time>2022-01-20T10:12:34Z</time>
      </trkpt>
      <trkpt lat="47.69587" lon="2.0349667">
        <ele>168</ele>
        <time>2022-01-20T10:12:35Z</time>
      </trkpt>
      <trkpt lat="47.695873" lon="2.034961">
        <ele>168</ele>
        <time>2022-01-20T10:12:36Z</time>
      </trkpt>
      <trkpt lat="47.69588" lon="2.0349507">
        <ele>168</ele>
        <time>2022-01-20T10:12:37Z</time>
      </trkpt>
      <trkpt lat="47.69589" lon="2.0349405">
        <ele>168</ele>
        <time>2022-01-20T10:12:38Z</time>
      </trkpt>
      <trkpt lat="47.695892" lon="2.0349271">
        <ele>168</ele>
        <time>2022-01-20T10:12:39Z</time>
      </trkpt>
      <trkpt lat="47.6959" lon="2.0349202">
        <ele>168</ele>
        <time>2022-01-20T10:12:40Z</time>
      </trkpt>
      <trkpt lat="47.695908" lon="2.0349238">
        <ele>169</ele>
        <time>2022-01-20T10:12:41Z</time>
      </trkpt>
      <trkpt lat="47.69591" lon="2.0349233">
        <ele>168</ele>
        <time>2022-01-20T10:12:42Z</time>
      </trkpt>
      <trkpt lat="47.695915" lon="2.03492">
        <ele>168</ele>
        <time>2022-01-20T10:12:43Z</time>
      </trkpt>
      <trkpt lat="47.695915" lon="2.03492">
        <ele>168</ele>
        <time>2022-01-20T10:12:44Z</time>
      </trkpt>
      <trkpt lat="47.695927" lon="2.034907">
        <ele>169</ele>
        <time>2022-01-20T10:12:45Z</time>
      </trkpt>
      <trkpt lat="47.695934" lon="2.0348945">
        <ele>168</ele>
        <time>2022-01-20T10:12:46Z</time>
      </trkpt>
      <trkpt lat="47.695942" lon="2.0348866">
        <ele>169</ele>
        <time>2022-01-20T10:12:47Z</time>
      </trkpt>
      <trkpt lat="47.69595" lon="2.0348816">
        <ele>169</ele>
        <time>2022-01-20T10:12:48Z</time>
      </trkpt>
      <trkpt lat="47.695957" lon="2.0348675">
        <ele>169</ele>
        <time>2022-01-20T10:12:49Z</time>
      </trkpt>
      <trkpt lat="47.695972" lon="2.0348566">
        <ele>168</ele>
        <time>2022-01-20T10:12:50Z</time>
      </trkpt>
      <trkpt lat="47.695984" lon="2.0348465">
        <ele>169</ele>
        <time>2022-01-20T10:12:51Z</time>
      </trkpt>
      <trkpt lat="47.695995" lon="2.0348394">
        <ele>170</ele>
        <time>2022-01-20T10:12:52Z</time>
      </trkpt>
      <trkpt lat="47.696003" lon="2.0348341">
        <ele>170</ele>
        <time>2022-01-20T10:12:53Z</time>
      </trkpt>
      <trkpt lat="47.69601" lon="2.0348256">
        <ele>170</ele>
        <time>2022-01-20T10:12:54Z</time>
      </trkpt>
      <trkpt lat="47.69602" lon="2.034827">
        <ele>170</ele>
        <time>2022-01-20T10:12:55Z</time>
      </trkpt>
      <trkpt lat="47.696026" lon="2.0348277">
        <ele>170</ele>
        <time>2022-01-20T10:12:56Z</time>
      </trkpt>
      <trkpt lat="47.69604" lon="2.0348253">
        <ele>170</ele>
        <time>2022-01-20T10:12:57Z</time>
      </trkpt>
      <trkpt lat="47.69605" lon="2.034819">
        <ele>169</ele>
        <time>2022-01-20T10:12:58Z</time>
      </trkpt>
      <trkpt lat="47.69606" lon="2.0348108">
        <ele>169</ele>
        <time>2022-01-20T10:12:59Z</time>
      </trkpt>
      <trkpt lat="47.696068" lon="2.034807">
        <ele>169</ele>
        <time>2022-01-20T10:13:00Z</time>
      </trkpt>
      <trkpt lat="47.69608" lon="2.0348074">
        <ele>169</ele>
        <time>2022-01-20T10:13:01Z</time>
      </trkpt>
      <trkpt lat="47.69609" lon="2.0348039">
        <ele>169</ele>
        <time>2022-01-20T10:13:02Z</time>
      </trkpt>
      <trkpt lat="47.6961" lon="2.034798">
        <ele>170</ele>
        <time>2022-01-20T10:13:03Z</time>
      </trkpt>
      <trkpt lat="47.696106" lon="2.0347903">
        <ele>170</ele>
        <time>2022-01-20T10:13:04Z</time>
      </trkpt>
      <trkpt lat="47.69611" lon="2.0347776">
        <ele>171</ele>
        <time>2022-01-20T10:13:05Z</time>
      </trkpt>
      <trkpt lat="47.696114" lon="2.0347633">
        <ele>171</ele>
        <time>2022-01-20T10:13:06Z</time>
      </trkpt>
      <trkpt lat="47.69612" lon="2.0347548">
        <ele>171</ele>
        <time>2022-01-20T10:13:07Z</time>
      </trkpt>
      <trkpt lat="47.69613" lon="2.0347455">
        <ele>171</ele>
        <time>2022-01-20T10:13:08Z</time>
      </trkpt>
      <trkpt lat="47.696136" lon="2.0347424">
        <ele>172</ele>
        <time>2022-01-20T10:13:09Z</time>
      </trkpt>
      <trkpt lat="47.696148" lon="2.0347316">
        <ele>172</ele>
        <time>2022-01-20T10:13:10Z</time>
      </trkpt>
      <trkpt lat="47.696156" lon="2.0347276">
        <ele>172</ele>
        <time>2022-01-20T10:13:11Z</time>
      </trkpt>
      <trkpt lat="47.696163" lon="2.0347233">
        <ele>172</ele>
        <time>2022-01-20T10:13:12Z</time>
      </trkpt>
      <trkpt lat="47.69617" lon="2.0347228">
        <ele>172</ele>
        <time>2022-01-20T10:13:13Z</time>
      </trkpt>
      <trkpt lat="47.69618" lon="2.0347233">
        <ele>172</ele>
        <time>2022-01-20T10:13:14Z</time>
      </trkpt>
      <trkpt lat="47.69619" lon="2.0347226">
        <ele>172</ele>
        <time>2022-01-20T10:13:15Z</time>
      </trkpt>
      <trkpt lat="47.6962" lon="2.03472">
        <ele>172</ele>
        <time>2022-01-20T10:13:16Z</time>
      </trkpt>
      <trkpt lat="47.696213" lon="2.034719">
        <ele>172</ele>
        <time>2022-01-20T10:13:17Z</time>
      </trkpt>
      <trkpt lat="47.696224" lon="2.0347204">
        <ele>172</ele>
        <time>2022-01-20T10:13:18Z</time>
      </trkpt>
      <trkpt lat="47.69623" lon="2.0347195">
        <ele>172</ele>
        <time>2022-01-20T10:13:19Z</time>
      </trkpt>
      <trkpt lat="47.696243" lon="2.0347128">
        <ele>172</ele>
        <time>2022-01-20T10:13:20Z</time>
      </trkpt>
      <trkpt lat="47.696247" lon="2.0347016">
        <ele>172</ele>
        <time>2022-01-20T10:13:21Z</time>
      </trkpt>
      <trkpt lat="47.696255" lon="2.0346947">
        <ele>172</ele>
        <time>2022-01-20T10:13:22Z</time>
      </trkpt>
      <trkpt lat="47.696262" lon="2.0346966">
        <ele>171</ele>
        <time>2022-01-20T10:13:23Z</time>
      </trkpt>
      <trkpt lat="47.696274" lon="2.0346973">
        <ele>171</ele>
        <time>2022-01-20T10:13:24Z</time>
      </trkpt>
      <trkpt lat="47.696285" lon="2.0346942">
        <ele>171</ele>
        <time>2022-01-20T10:13:25Z</time>
      </trkpt>
      <trkpt lat="47.696297" lon="2.0346918">
        <ele>171</ele>
        <time>2022-01-20T10:13:26Z</time>
      </trkpt>
      <trkpt lat="47.696304" lon="2.0346882">
        <ele>170</ele>
        <time>2022-01-20T10:13:27Z</time>
      </trkpt>
      <trkpt lat="47.696312" lon="2.0346854">
        <ele>170</ele>
        <time>2022-01-20T10:13:28Z</time>
      </trkpt>
      <trkpt lat="47.696316" lon="2.0346832">
        <ele>170</ele>
        <time>2022-01-20T10:13:29Z</time>
      </trkpt>
      <trkpt lat="47.696323" lon="2.0346727">
        <ele>170</ele>
        <time>2022-01-20T10:13:30Z</time>
      </trkpt>
      <trkpt lat="47.696335" lon="2.0346653">
        <ele>171</ele>
        <time>2022-01-20T10:13:31Z</time>
      </trkpt>
      <trkpt lat="47.69635" lon="2.0346553">
        <ele>170</ele>
        <time>2022-01-20T10:13:32Z</time>
      </trkpt>
      <trkpt lat="47.696365" lon="2.0346541">
        <ele>170</ele>
        <time>2022-01-20T10:13:33Z</time>
      </trkpt>
      <trkpt lat="47.696377" lon="2.0346527">
        <ele>170</ele>
        <time>2022-01-20T10:13:34Z</time>
      </trkpt>
      <trkpt lat="47.696384" lon="2.0346496">
        <ele>170</ele>
        <time>2022-01-20T10:13:35Z</time>
      </trkpt>
      <trkpt lat="47.696392" lon="2.0346458">
        <ele>169</ele>
        <time>2022-01-20T10:13:36Z</time>
      </trkpt>
      <trkpt lat="47.696404" lon="2.034643">
        <ele>170</ele>
        <time>2022-01-20T10:13:37Z</time>
      </trkpt>
      <trkpt lat="47.69641" lon="2.0346382">
        <ele>170</ele>
        <time>2022-01-20T10:13:38Z</time>
      </trkpt>
      <trkpt lat="47.69642" lon="2.03463">
        <ele>169</ele>
        <time>2022-01-20T10:13:39Z</time>
      </trkpt>
      <trkpt lat="47.69643" lon="2.0346205">
        <ele>169</ele>
        <time>2022-01-20T10:13:40Z</time>
      </trkpt>
      <trkpt lat="47.69644" lon="2.0346162">
        <ele>169</ele>
        <time>2022-01-20T10:13:41Z</time>
      </trkpt>
      <trkpt lat="47.696457" lon="2.0346148">
        <ele>170</ele>
        <time>2022-01-20T10:13:42Z</time>
      </trkpt>
      <trkpt lat="47.696465" lon="2.0346048">
        <ele>169</ele>
        <time>2022-01-20T10:13:43Z</time>
      </trkpt>
      <trkpt lat="47.696476" lon="2.0346014">
        <ele>169</ele>
        <time>2022-01-20T10:13:44Z</time>
      </trkpt>
      <trkpt lat="47.696484" lon="2.034597">
        <ele>169</ele>
        <time>2022-01-20T10:13:45Z</time>
      </trkpt>
      <trkpt lat="47.69649" lon="2.0345936">
        <ele>169</ele>
        <time>2022-01-20T10:13:46Z</time>
      </trkpt>
      <trkpt lat="47.6965" lon="2.0345857">
        <ele>169</ele>
        <time>2022-01-20T10:13:47Z</time>
      </trkpt>
      <trkpt lat="47.69651" lon="2.0345836">
        <ele>169</ele>
        <time>2022-01-20T10:13:48Z</time>
      </trkpt>
      <trkpt lat="47.696518" lon="2.0345802">
        <ele>169</ele>
        <time>2022-01-20T10:13:49Z</time>
      </trkpt>
      <trkpt lat="47.696526" lon="2.034578">
        <ele>168</ele>
        <time>2022-01-20T10:13:50Z</time>
      </trkpt>
      <trkpt lat="47.69653" lon="2.0345778">
        <ele>168</ele>
        <time>2022-01-20T10:13:51Z</time>
      </trkpt>
      <trkpt lat="47.696526" lon="2.0345755">
        <ele>168</ele>
        <time>2022-01-20T10:13:52Z</time>
      </trkpt>
      <trkpt lat="47.69653" lon="2.0345654">
        <ele>168</ele>
        <time>2022-01-20T10:13:53Z</time>
      </trkpt>
      <trkpt lat="47.69654" lon="2.0345592">
        <ele>168</ele>
        <time>2022-01-20T10:13:54Z</time>
      </trkpt>
      <trkpt lat="47.696545" lon="2.0345469">
        <ele>168</ele>
        <time>2022-01-20T10:13:55Z</time>
      </trkpt>
      <trkpt lat="47.696552" lon="2.0345337">
        <ele>168</ele>
        <time>2022-01-20T10:13:56Z</time>
      </trkpt>
      <trkpt lat="47.696564" lon="2.0345218">
        <ele>168</ele>
        <time>2022-01-20T10:13:57Z</time>
      </trkpt>
      <trkpt lat="47.69657" lon="2.0345054">
        <ele>169</ele>
        <time>2022-01-20T10:13:58Z</time>
      </trkpt>
      <trkpt lat="47.69658" lon="2.0344872">
        <ele>169</ele>
        <time>2022-01-20T10:13:59Z</time>
      </trkpt>
      <trkpt lat="47.696587" lon="2.0344696">
        <ele>169</ele>
        <time>2022-01-20T10:14:00Z</time>
      </trkpt>
      <trkpt lat="47.696598" lon="2.0344596">
        <ele>168</ele>
        <time>2022-01-20T10:14:01Z</time>
      </trkpt>
      <trkpt lat="47.6966" lon="2.034446">
        <ele>168</ele>
        <time>2022-01-20T10:14:02Z</time>
      </trkpt>
      <trkpt lat="47.69661" lon="2.0344396">
        <ele>167</ele>
        <time>2022-01-20T10:14:03Z</time>
      </trkpt>
      <trkpt lat="47.696617" lon="2.0344226">
        <ele>167</ele>
        <time>2022-01-20T10:14:04Z</time>
      </trkpt>
      <trkpt lat="47.696625" lon="2.0344048">
        <ele>167</ele>
        <time>2022-01-20T10:14:05Z</time>
      </trkpt>
      <trkpt lat="47.69663" lon="2.034387">
        <ele>168</ele>
        <time>2022-01-20T10:14:06Z</time>
      </trkpt>
      <trkpt lat="47.696636" lon="2.034374">
        <ele>168</ele>
        <time>2022-01-20T10:14:07Z</time>
      </trkpt>
      <trkpt lat="47.696636" lon="2.0343597">
        <ele>168</ele>
        <time>2022-01-20T10:14:08Z</time>
      </trkpt>
      <trkpt lat="47.696644" lon="2.0343478">
        <ele>168</ele>
        <time>2022-01-20T10:14:09Z</time>
      </trkpt>
      <trkpt lat="47.696644" lon="2.034338">
        <ele>168</ele>
        <time>2022-01-20T10:14:10Z</time>
      </trkpt>
      <trkpt lat="47.696648" lon="2.0343263">
        <ele>168</ele>
        <time>2022-01-20T10:14:11Z</time>
      </trkpt>
      <trkpt lat="47.696648" lon="2.0343134">
        <ele>168</ele>
        <time>2022-01-20T10:14:12Z</time>
      </trkpt>
      <trkpt lat="47.69665" lon="2.0342963">
        <ele>167</ele>
        <time>2022-01-20T10:14:13Z</time>
      </trkpt>
      <trkpt lat="47.696655" lon="2.0342815">
        <ele>168</ele>
        <time>2022-01-20T10:14:14Z</time>
      </trkpt>
      <trkpt lat="47.696663" lon="2.034267">
        <ele>168</ele>
        <time>2022-01-20T10:14:15Z</time>
      </trkpt>
      <trkpt lat="47.696667" lon="2.0342515">
        <ele>168</ele>
        <time>2022-01-20T10:14:16Z</time>
      </trkpt>
      <trkpt lat="47.69667" lon="2.0342386">
        <ele>168</ele>
        <time>2022-01-20T10:14:17Z</time>
      </trkpt>
      <trkpt lat="47.69667" lon="2.0342386">
        <ele>168</ele>
        <time>2022-01-20T10:14:18Z</time>
      </trkpt>
      <trkpt lat="47.69667" lon="2.0342386">
        <ele>168</ele>
        <time>2022-01-20T10:14:19Z</time>
      </trkpt>
      <trkpt lat="47.69668" lon="2.0342238">
        <ele>168</ele>
        <time>2022-01-20T10:14:20Z</time>
      </trkpt>
      <trkpt lat="47.69668" lon="2.034219">
        <ele>168</ele>
        <time>2022-01-20T10:14:21Z</time>
      </trkpt>
      <trkpt lat="47.696682" lon="2.0342119">
        <ele>168</ele>
        <time>2022-01-20T10:14:22Z</time>
      </trkpt>
      <trkpt lat="47.696682" lon="2.0342038">
        <ele>168</ele>
        <time>2022-01-20T10:14:23Z</time>
      </trkpt>
      <trkpt lat="47.696682" lon="2.0342038">
        <ele>168</ele>
        <time>2022-01-20T10:14:23Z</time>
      </trkpt>
    </trkseg>
    <trkseg>
      <trkpt lat="47.696682" lon="2.0342038">
        <ele>168</ele>
        <time>2022-01-20T10:14:23Z</time>
      </trkpt>
      <trkpt lat="47.696693" lon="2.0341399">
        <ele>168</ele>
        <time>2022-01-20T10:14:29Z</time>
      </trkpt>
      <trkpt lat="47.696693" lon="2.0341399">
        <ele>168</ele>
        <time>2022-01-20T10:14:30Z</time>
      </trkpt>
      <trkpt lat="47.696693" lon="2.0341399">
        <ele>168</ele>
        <time>2022-01-20T10:14:31Z</time>
      </trkpt>
      <trkpt lat="47.696705" lon="2.034122">
        <ele>168</ele>
        <time>2022-01-20T10:14:32Z</time>
      </trkpt>
      <trkpt lat="47.696712" lon="2.0341215">
        <ele>168</ele>
        <time>2022-01-20T10:14:33Z</time>
      </trkpt>
      <trkpt lat="47.69672" lon="2.034112">
        <ele>167</ele>
        <time>2022-01-20T10:14:34Z</time>
      </trkpt>
      <trkpt lat="47.696724" lon="2.0340977">
        <ele>167</ele>
        <time>2022-01-20T10:14:35Z</time>
      </trkpt>
      <trkpt lat="47.696728" lon="2.0340855">
        <ele>167</ele>
        <time>2022-01-20T10:14:36Z</time>
      </trkpt>
      <trkpt lat="47.69673" lon="2.0340714">
        <ele>167</ele>
        <time>2022-01-20T10:14:37Z</time>
      </trkpt>
      <trkpt lat="47.69673" lon="2.0340714">
        <ele>167</ele>
        <time>2022-01-20T10:14:38Z</time>
      </trkpt>
      <trkpt lat="47.696735" lon="2.0340486">
        <ele>167</ele>
        <time>2022-01-20T10:14:39Z</time>
      </trkpt>
      <trkpt lat="47.69673" lon="2.034034">
        <ele>167</ele>
        <time>2022-01-20T10:14:40Z</time>
      </trkpt>
      <trkpt lat="47.69673" lon="2.034018">
        <ele>167</ele>
        <time>2022-01-20T10:14:41Z</time>
      </trkpt>
      <trkpt lat="47.69673" lon="2.034003">
        <ele>167</ele>
        <time>2022-01-20T10:14:42Z</time>
      </trkpt>
      <trkpt lat="47.69673" lon="2.0339887">
        <ele>167</ele>
        <time>2022-01-20T10:14:43Z</time>
      </trkpt>
      <trkpt lat="47.69673" lon="2.0339727">
        <ele>167</ele>
        <time>2022-01-20T10:14:44Z</time>
      </trkpt>
      <trkpt lat="47.696728" lon="2.0339575">
        <ele>167</ele>
        <time>2022-01-20T10:14:45Z</time>
      </trkpt>
      <trkpt lat="47.69673" lon="2.0339582">
        <ele>167</ele>
        <time>2022-01-20T10:14:46Z</time>
      </trkpt>
      <trkpt lat="47.69673" lon="2.0339491">
        <ele>167</ele>
        <time>2022-01-20T10:14:47Z</time>
      </trkpt>
      <trkpt lat="47.696724" lon="2.0339363">
        <ele>167</ele>
        <time>2022-01-20T10:14:48Z</time>
      </trkpt>
      <trkpt lat="47.696716" lon="2.0339162">
        <ele>168</ele>
        <time>2022-01-20T10:14:49Z</time>
      </trkpt>
      <trkpt lat="47.69672" lon="2.033905">
        <ele>168</ele>
        <time>2022-01-20T10:14:50Z</time>
      </trkpt>
      <trkpt lat="47.696716" lon="2.0338922">
        <ele>168</ele>
        <time>2022-01-20T10:14:51Z</time>
      </trkpt>
      <trkpt lat="47.69672" lon="2.0338793">
        <ele>169</ele>
        <time>2022-01-20T10:14:52Z</time>
      </trkpt>
      <trkpt lat="47.69672" lon="2.0338674">
        <ele>169</ele>
        <time>2022-01-20T10:14:53Z</time>
      </trkpt>
      <trkpt lat="47.696716" lon="2.033858">
        <ele>169</ele>
        <time>2022-01-20T10:14:54Z</time>
      </trkpt>
      <trkpt lat="47.69671" lon="2.0338457">
        <ele>170</ele>
        <time>2022-01-20T10:14:55Z</time>
      </trkpt>
      <trkpt lat="47.69671" lon="2.0338275">
        <ele>169</ele>
        <time>2022-01-20T10:14:56Z</time>
      </trkpt>
      <trkpt lat="47.696716" lon="2.0338087">
        <ele>169</ele>
        <time>2022-01-20T10:14:57Z</time>
      </trkpt>
      <trkpt lat="47.696716" lon="2.0337849">
        <ele>169</ele>
        <time>2022-01-20T10:14:58Z</time>
      </trkpt>
      <trkpt lat="47.696716" lon="2.0337708">
        <ele>169</ele>
        <time>2022-01-20T10:14:59Z</time>
      </trkpt>
      <trkpt lat="47.69672" lon="2.0337574">
        <ele>169</ele>
        <time>2022-01-20T10:15:00Z</time>
      </trkpt>
      <trkpt lat="47.696724" lon="2.0337389">
        <ele>168</ele>
        <time>2022-01-20T10:15:01Z</time>
      </trkpt>
      <trkpt lat="47.696724" lon="2.0337212">
        <ele>168</ele>
        <time>2022-01-20T10:15:02Z</time>
      </trkpt>
      <trkpt lat="47.696728" lon="2.033705">
        <ele>168</ele>
        <time>2022-01-20T10:15:03Z</time>
      </trkpt>
      <trkpt lat="47.696728" lon="2.033688">
        <ele>168</ele>
        <time>2022-01-20T10:15:04Z</time>
      </trkpt>
      <trkpt lat="47.696728" lon="2.033671">
        <ele>167</ele>
        <time>2022-01-20T10:15:05Z</time>
      </trkpt>
      <trkpt lat="47.696724" lon="2.0336545">
        <ele>167</ele>
        <time>2022-01-20T10:15:06Z</time>
      </trkpt>
      <trkpt lat="47.696724" lon="2.0336423">
        <ele>166</ele>
        <time>2022-01-20T10:15:07Z</time>
      </trkpt>
      <trkpt lat="47.696728" lon="2.0336275">
        <ele>166</ele>
        <time>2022-01-20T10:15:08Z</time>
      </trkpt>
      <trkpt lat="47.696728" lon="2.0336094">
        <ele>166</ele>
        <time>2022-01-20T10:15:09Z</time>
      </trkpt>
      <trkpt lat="47.696728" lon="2.0336125">
        <ele>166</ele>
        <time>2022-01-20T10:15:10Z</time>
      </trkpt>
      <trkpt lat="47.69673" lon="2.0336044">
        <ele>166</ele>
        <time>2022-01-20T10:15:11Z</time>
      </trkpt>
      <trkpt lat="47.69674" lon="2.033593">
        <ele>166</ele>
        <time>2022-01-20T10:15:12Z</time>
      </trkpt>
      <trkpt lat="47.69674" lon="2.033593">
        <ele>166</ele>
        <time>2022-01-20T10:15:13Z</time>
      </trkpt>
      <trkpt lat="47.69674" lon="2.033593">
        <ele>166</ele>
        <time>2022-01-20T10:15:14Z</time>
      </trkpt>
      <trkpt lat="47.69675" lon="2.0335555">
        <ele>166</ele>
        <time>2022-01-20T10:15:15Z</time>
      </trkpt>
      <trkpt lat="47.69675" lon="2.0335422">
        <ele>166</ele>
        <time>2022-01-20T10:15:16Z</time>
      </trkpt>
      <trkpt lat="47.696754" lon="2.0335279">
        <ele>167</ele>
        <time>2022-01-20T10:15:17Z</time>
      </trkpt>
      <trkpt lat="47.696754" lon="2.0335088">
        <ele>166</ele>
        <time>2022-01-20T10:15:18Z</time>
      </trkpt>
      <trkpt lat="47.69675" lon="2.0334895">
        <ele>167</ele>
        <time>2022-01-20T10:15:19Z</time>
      </trkpt>
      <trkpt lat="47.69675" lon="2.0334716">
        <ele>167</ele>
        <time>2022-01-20T10:15:20Z</time>
      </trkpt>
      <trkpt lat="47.696754" lon="2.0334485">
        <ele>167</ele>
        <time>2022-01-20T10:15:21Z</time>
      </trkpt>
      <trkpt lat="47.69675" lon="2.0334241">
        <ele>167</ele>
        <time>2022-01-20T10:15:22Z</time>
      </trkpt>
      <trkpt lat="47.696747" lon="2.033405">
        <ele>168</ele>
        <time>2022-01-20T10:15:23Z</time>
      </trkpt>
      <trkpt lat="47.696743" lon="2.0333843">
        <ele>168</ele>
        <time>2022-01-20T10:15:24Z</time>
      </trkpt>
      <trkpt lat="47.696743" lon="2.0333652">
        <ele>168</ele>
        <time>2022-01-20T10:15:25Z</time>
      </trkpt>
      <trkpt lat="47.696747" lon="2.0333474">
        <ele>168</ele>
        <time>2022-01-20T10:15:26Z</time>
      </trkpt>
      <trkpt lat="47.696747" lon="2.0333252">
        <ele>168</ele>
        <time>2022-01-20T10:15:27Z</time>
      </trkpt>
      <trkpt lat="47.69675" lon="2.0333023">
        <ele>168</ele>
        <time>2022-01-20T10:15:28Z</time>
      </trkpt>
      <trkpt lat="47.69675" lon="2.0332859">
        <ele>168</ele>
        <time>2022-01-20T10:15:29Z</time>
      </trkpt>
      <trkpt lat="47.69675" lon="2.0332665">
        <ele>168</ele>
        <time>2022-01-20T10:15:30Z</time>
      </trkpt>
      <trkpt lat="47.69675" lon="2.0332446">
        <ele>168</ele>
        <time>2022-01-20T10:15:31Z</time>
      </trkpt>
      <trkpt lat="47.696754" lon="2.0332263">
        <ele>168</ele>
        <time>2022-01-20T10:15:32Z</time>
      </trkpt>
      <trkpt lat="47.696754" lon="2.033208">
        <ele>168</ele>
        <time>2022-01-20T10:15:33Z</time>
      </trkpt>
      <trkpt lat="47.69676" lon="2.0331914">
        <ele>168</ele>
        <time>2022-01-20T10:15:34Z</time>
      </trkpt>
      <trkpt lat="47.69676" lon="2.03318">
        <ele>168</ele>
        <time>2022-01-20T10:15:35Z</time>
      </trkpt>
      <trkpt lat="47.69676" lon="2.0331647">
        <ele>168</ele>
        <time>2022-01-20T10:15:36Z</time>
      </trkpt>
      <trkpt lat="47.696754" lon="2.0331495">
        <ele>168</ele>
        <time>2022-01-20T10:15:37Z</time>
      </trkpt>
      <trkpt lat="47.696754" lon="2.033134">
        <ele>168</ele>
        <time>2022-01-20T10:15:38Z</time>
      </trkpt>
      <trkpt lat="47.696754" lon="2.0331123">
        <ele>168</ele>
        <time>2022-01-20T10:15:39Z</time>
      </trkpt>
      <trkpt lat="47.69676" lon="2.03309">
        <ele>167</ele>
        <time>2022-01-20T10:15:40Z</time>
      </trkpt>
      <trkpt lat="47.696762" lon="2.0330706">
        <ele>167</ele>
        <time>2022-01-20T10:15:41Z</time>
      </trkpt>
      <trkpt lat="47.696766" lon="2.033053">
        <ele>167</ele>
        <time>2022-01-20T10:15:42Z</time>
      </trkpt>
      <trkpt lat="47.696766" lon="2.033035">
        <ele>167</ele>
        <time>2022-01-20T10:15:43Z</time>
      </trkpt>
      <trkpt lat="47.69677" lon="2.0330172">
        <ele>166</ele>
        <time>2022-01-20T10:15:44Z</time>
      </trkpt>
      <trkpt lat="47.69677" lon="2.0330029">
        <ele>166</ele>
        <time>2022-01-20T10:15:45Z</time>
      </trkpt>
      <trkpt lat="47.696766" lon="2.0329874">
        <ele>167</ele>
        <time>2022-01-20T10:15:46Z</time>
      </trkpt>
      <trkpt lat="47.696762" lon="2.0329735">
        <ele>167</ele>
        <time>2022-01-20T10:15:47Z</time>
      </trkpt>
      <trkpt lat="47.696762" lon="2.0329583">
        <ele>167</ele>
        <time>2022-01-20T10:15:48Z</time>
      </trkpt>
      <trkpt lat="47.69677" lon="2.032944">
        <ele>167</ele>
        <time>2022-01-20T10:15:49Z</time>
      </trkpt>
      <trkpt lat="47.696774" lon="2.0329401">
        <ele>166</ele>
        <time>2022-01-20T10:15:50Z</time>
      </trkpt>
      <trkpt lat="47.69678" lon="2.0329356">
        <ele>165</ele>
        <time>2022-01-20T10:15:51Z</time>
      </trkpt>
      <trkpt lat="47.69679" lon="2.03292">
        <ele>165</ele>
        <time>2022-01-20T10:15:52Z</time>
      </trkpt>
      <trkpt lat="47.69679" lon="2.0329049">
        <ele>165</ele>
        <time>2022-01-20T10:15:53Z</time>
      </trkpt>
      <trkpt lat="47.696793" lon="2.032882">
        <ele>164</ele>
        <time>2022-01-20T10:15:54Z</time>
      </trkpt>
      <trkpt lat="47.696793" lon="2.0328622">
        <ele>164</ele>
        <time>2022-01-20T10:15:55Z</time>
      </trkpt>
      <trkpt lat="47.69679" lon="2.0328488">
        <ele>164</ele>
        <time>2022-01-20T10:15:56Z</time>
      </trkpt>
      <trkpt lat="47.696785" lon="2.032832">
        <ele>164</ele>
        <time>2022-01-20T10:15:57Z</time>
      </trkpt>
      <trkpt lat="47.69678" lon="2.0328217">
        <ele>164</ele>
        <time>2022-01-20T10:15:58Z</time>
      </trkpt>
      <trkpt lat="47.69678" lon="2.0328052">
        <ele>164</ele>
        <time>2022-01-20T10:15:59Z</time>
      </trkpt>
      <trkpt lat="47.69678" lon="2.0327885">
        <ele>164</ele>
        <time>2022-01-20T10:16:00Z</time>
      </trkpt>
      <trkpt lat="47.69678" lon="2.0327678">
        <ele>165</ele>
        <time>2022-01-20T10:16:01Z</time>
      </trkpt>
      <trkpt lat="47.696777" lon="2.0327523">
        <ele>165</ele>
        <time>2022-01-20T10:16:02Z</time>
      </trkpt>
      <trkpt lat="47.696777" lon="2.0327358">
        <ele>165</ele>
        <time>2022-01-20T10:16:03Z</time>
      </trkpt>
      <trkpt lat="47.696774" lon="2.0327206">
        <ele>165</ele>
        <time>2022-01-20T10:16:04Z</time>
      </trkpt>
      <trkpt lat="47.696766" lon="2.032702">
        <ele>165</ele>
        <time>2022-01-20T10:16:05Z</time>
      </trkpt>
      <trkpt lat="47.696762" lon="2.0326853">
        <ele>166</ele>
        <time>2022-01-20T10:16:06Z</time>
      </trkpt>
      <trkpt lat="47.69676" lon="2.032671">
        <ele>166</ele>
        <time>2022-01-20T10:16:07Z</time>
      </trkpt>
      <trkpt lat="47.69676" lon="2.032657">
        <ele>166</ele>
        <time>2022-01-20T10:16:08Z</time>
      </trkpt>
      <trkpt lat="47.696754" lon="2.0326424">
        <ele>166</ele>
        <time>2022-01-20T10:16:09Z</time>
      </trkpt>
      <trkpt lat="47.69675" lon="2.0326235">
        <ele>166</ele>
        <time>2022-01-20T10:16:10Z</time>
      </trkpt>
      <trkpt lat="47.69675" lon="2.0326073">
        <ele>167</ele>
        <time>2022-01-20T10:16:11Z</time>
      </trkpt>
      <trkpt lat="47.69675" lon="2.0325904">
        <ele>168</ele>
        <time>2022-01-20T10:16:12Z</time>
      </trkpt>
      <trkpt lat="47.69675" lon="2.032578">
        <ele>168</ele>
        <time>2022-01-20T10:16:13Z</time>
      </trkpt>
      <trkpt lat="47.696754" lon="2.032567">
        <ele>168</ele>
        <time>2022-01-20T10:16:14Z</time>
      </trkpt>
      <trkpt lat="47.69675" lon="2.0325518">
        <ele>169</ele>
        <time>2022-01-20T10:16:15Z</time>
      </trkpt>
      <trkpt lat="47.696754" lon="2.032537">
        <ele>169</ele>
        <time>2022-01-20T10:16:16Z</time>
      </trkpt>
      <trkpt lat="47.696754" lon="2.032521">
        <ele>170</ele>
        <time>2022-01-20T10:16:17Z</time>
      </trkpt>
      <trkpt lat="47.69676" lon="2.032507">
        <ele>170</ele>
        <time>2022-01-20T10:16:18Z</time>
      </trkpt>
      <trkpt lat="47.69675" lon="2.032491">
        <ele>170</ele>
        <time>2022-01-20T10:16:19Z</time>
      </trkpt>
      <trkpt lat="47.69675" lon="2.0324767">
        <ele>171</ele>
        <time>2022-01-20T10:16:20Z</time>
      </trkpt>
      <trkpt lat="47.69675" lon="2.0324621">
        <ele>170</ele>
        <time>2022-01-20T10:16:21Z</time>
      </trkpt>
      <trkpt lat="47.69675" lon="2.03245">
        <ele>171</ele>
        <time>2022-01-20T10:16:22Z</time>
      </trkpt>
      <trkpt lat="47.696747" lon="2.0324411">
        <ele>171</ele>
        <time>2022-01-20T10:16:23Z</time>
      </trkpt>
      <trkpt lat="47.696747" lon="2.0324297">
        <ele>171</ele>
        <time>2022-01-20T10:16:24Z</time>
      </trkpt>
      <trkpt lat="47.696747" lon="2.0324156">
        <ele>171</ele>
        <time>2022-01-20T10:16:25Z</time>
      </trkpt>
      <trkpt lat="47.696747" lon="2.032396">
        <ele>170</ele>
        <time>2022-01-20T10:16:26Z</time>
      </trkpt>
      <trkpt lat="47.696747" lon="2.0323796">
        <ele>171</ele>
        <time>2022-01-20T10:16:27Z</time>
      </trkpt>
      <trkpt lat="47.696747" lon="2.0323632">
        <ele>171</ele>
        <time>2022-01-20T10:16:28Z</time>
      </trkpt>
      <trkpt lat="47.69675" lon="2.0323522">
        <ele>171</ele>
        <time>2022-01-20T10:16:29Z</time>
      </trkpt>
      <trkpt lat="47.696754" lon="2.0323403">
        <ele>170</ele>
        <time>2022-01-20T10:16:30Z</time>
      </trkpt>
      <trkpt lat="47.696754" lon="2.0323255">
        <ele>170</ele>
        <time>2022-01-20T10:16:31Z</time>
      </trkpt>
      <trkpt lat="47.696754" lon="2.0323067">
        <ele>170</ele>
        <time>2022-01-20T10:16:32Z</time>
      </trkpt>
      <trkpt lat="47.696754" lon="2.032289">
        <ele>170</ele>
        <time>2022-01-20T10:16:33Z</time>
      </trkpt>
      <trkpt lat="47.69676" lon="2.0322733">
        <ele>169</ele>
        <time>2022-01-20T10:16:34Z</time>
      </trkpt>
      <trkpt lat="47.696762" lon="2.032258">
        <ele>169</ele>
        <time>2022-01-20T10:16:35Z</time>
      </trkpt>
      <trkpt lat="47.696766" lon="2.0322413">
        <ele>169</ele>
        <time>2022-01-20T10:16:36Z</time>
      </trkpt>
      <trkpt lat="47.69677" lon="2.032224">
        <ele>169</ele>
        <time>2022-01-20T10:16:37Z</time>
      </trkpt>
      <trkpt lat="47.696774" lon="2.0322058">
        <ele>169</ele>
        <time>2022-01-20T10:16:38Z</time>
      </trkpt>
      <trkpt lat="47.69678" lon="2.0321896">
        <ele>169</ele>
        <time>2022-01-20T10:16:39Z</time>
      </trkpt>
      <trkpt lat="47.69679" lon="2.0321732">
        <ele>169</ele>
        <time>2022-01-20T10:16:40Z</time>
      </trkpt>
      <trkpt lat="47.696793" lon="2.0321567">
        <ele>169</ele>
        <time>2022-01-20T10:16:41Z</time>
      </trkpt>
      <trkpt lat="47.696793" lon="2.0321398">
        <ele>169</ele>
        <time>2022-01-20T10:16:42Z</time>
      </trkpt>
      <trkpt lat="47.6968" lon="2.032128">
        <ele>169</ele>
        <time>2022-01-20T10:16:43Z</time>
      </trkpt>
      <trkpt lat="47.696804" lon="2.0321138">
        <ele>169</ele>
        <time>2022-01-20T10:16:44Z</time>
      </trkpt>
      <trkpt lat="47.696815" lon="2.032102">
        <ele>169</ele>
        <time>2022-01-20T10:16:45Z</time>
      </trkpt>
      <trkpt lat="47.69682" lon="2.032089">
        <ele>168</ele>
        <time>2022-01-20T10:16:46Z</time>
      </trkpt>
      <trkpt lat="47.696823" lon="2.032073">
        <ele>168</ele>
        <time>2022-01-20T10:16:47Z</time>
      </trkpt>
      <trkpt lat="47.696827" lon="2.0320659">
        <ele>168</ele>
        <time>2022-01-20T10:16:48Z</time>
      </trkpt>
      <trkpt lat="47.696827" lon="2.0320544">
        <ele>168</ele>
        <time>2022-01-20T10:16:49Z</time>
      </trkpt>
      <trkpt lat="47.696827" lon="2.0320458">
        <ele>168</ele>
        <time>2022-01-20T10:16:50Z</time>
      </trkpt>
      <trkpt lat="47.696827" lon="2.032034">
        <ele>167</ele>
        <time>2022-01-20T10:16:51Z</time>
      </trkpt>
      <trkpt lat="47.696835" lon="2.0320168">
        <ele>167</ele>
        <time>2022-01-20T10:16:52Z</time>
      </trkpt>
      <trkpt lat="47.696835" lon="2.0320039">
        <ele>167</ele>
        <time>2022-01-20T10:16:53Z</time>
      </trkpt>
      <trkpt lat="47.696842" lon="2.0319874">
        <ele>167</ele>
        <time>2022-01-20T10:16:54Z</time>
      </trkpt>
      <trkpt lat="47.696846" lon="2.0319676">
        <ele>167</ele>
        <time>2022-01-20T10:16:55Z</time>
      </trkpt>
      <trkpt lat="47.696854" lon="2.0319498">
        <ele>167</ele>
        <time>2022-01-20T10:16:56Z</time>
      </trkpt>
      <trkpt lat="47.69686" lon="2.0319345">
        <ele>167</ele>
        <time>2022-01-20T10:16:57Z</time>
      </trkpt>
      <trkpt lat="47.69687" lon="2.0319116">
        <ele>167</ele>
        <time>2022-01-20T10:16:58Z</time>
      </trkpt>
      <trkpt lat="47.696873" lon="2.0318944">
        <ele>166</ele>
        <time>2022-01-20T10:16:59Z</time>
      </trkpt>
      <trkpt lat="47.69688" lon="2.0318797">
        <ele>166</ele>
        <time>2022-01-20T10:17:00Z</time>
      </trkpt>
      <trkpt lat="47.696884" lon="2.0318687">
        <ele>167</ele>
        <time>2022-01-20T10:17:01Z</time>
      </trkpt>
      <trkpt lat="47.69689" lon="2.0318522">
        <ele>166</ele>
        <time>2022-01-20T10:17:02Z</time>
      </trkpt>
      <trkpt lat="47.6969" lon="2.0318334">
        <ele>166</ele>
        <time>2022-01-20T10:17:03Z</time>
      </trkpt>
      <trkpt lat="47.696907" lon="2.0318174">
        <ele>165</ele>
        <time>2022-01-20T10:17:04Z</time>
      </trkpt>
      <trkpt lat="47.696915" lon="2.0318074">
        <ele>165</ele>
        <time>2022-01-20T10:17:05Z</time>
      </trkpt>
      <trkpt lat="47.696922" lon="2.0317938">
        <ele>165</ele>
        <time>2022-01-20T10:17:06Z</time>
      </trkpt>
      <trkpt lat="47.69693" lon="2.0317857">
        <ele>164</ele>
        <time>2022-01-20T10:17:07Z</time>
      </trkpt>
      <trkpt lat="47.696934" lon="2.0317779">
        <ele>165</ele>
        <time>2022-01-20T10:17:08Z</time>
      </trkpt>
      <trkpt lat="47.696938" lon="2.0317614">
        <ele>165</ele>
        <time>2022-01-20T10:17:09Z</time>
      </trkpt>
      <trkpt lat="47.696938" lon="2.0317445">
        <ele>164</ele>
        <time>2022-01-20T10:17:10Z</time>
      </trkpt>
      <trkpt lat="47.69694" lon="2.0317354">
        <ele>164</ele>
        <time>2022-01-20T10:17:11Z</time>
      </trkpt>
      <trkpt lat="47.69695" lon="2.0317228">
        <ele>164</ele>
        <time>2022-01-20T10:17:12Z</time>
      </trkpt>
      <trkpt lat="47.696957" lon="2.0317101">
        <ele>164</ele>
        <time>2022-01-20T10:17:13Z</time>
      </trkpt>
      <trkpt lat="47.696964" lon="2.031698">
        <ele>164</ele>
        <time>2022-01-20T10:17:14Z</time>
      </trkpt>
      <trkpt lat="47.69697" lon="2.0316858">
        <ele>164</ele>
        <time>2022-01-20T10:17:15Z</time>
      </trkpt>
      <trkpt lat="47.696976" lon="2.031672">
        <ele>163</ele>
        <time>2022-01-20T10:17:16Z</time>
      </trkpt>
      <trkpt lat="47.696983" lon="2.0316577">
        <ele>163</ele>
        <time>2022-01-20T10:17:17Z</time>
      </trkpt>
      <trkpt lat="47.69699" lon="2.031639">
        <ele>163</ele>
        <time>2022-01-20T10:17:18Z</time>
      </trkpt>
      <trkpt lat="47.697" lon="2.0316212">
        <ele>163</ele>
        <time>2022-01-20T10:17:19Z</time>
      </trkpt>
      <trkpt lat="47.697002" lon="2.0316045">
        <ele>163</ele>
        <time>2022-01-20T10:17:20Z</time>
      </trkpt>
      <trkpt lat="47.697006" lon="2.0315938">
        <ele>163</ele>
        <time>2022-01-20T10:17:21Z</time>
      </trkpt>
      <trkpt lat="47.697006" lon="2.0315804">
        <ele>163</ele>
        <time>2022-01-20T10:17:22Z</time>
      </trkpt>
      <trkpt lat="47.697014" lon="2.031571">
        <ele>163</ele>
        <time>2022-01-20T10:17:23Z</time>
      </trkpt>
      <trkpt lat="47.697018" lon="2.03156">
        <ele>163</ele>
        <time>2022-01-20T10:17:24Z</time>
      </trkpt>
      <trkpt lat="47.697025" lon="2.0315497">
        <ele>163</ele>
        <time>2022-01-20T10:17:25Z</time>
      </trkpt>
      <trkpt lat="47.697025" lon="2.0315497">
        <ele>163</ele>
        <time>2022-01-20T10:17:26Z</time>
      </trkpt>
      <trkpt lat="47.697025" lon="2.0315497">
        <ele>163</ele>
        <time>2022-01-20T10:17:27Z</time>
      </trkpt>
      <trkpt lat="47.697037" lon="2.0315232">
        <ele>162</ele>
        <time>2022-01-20T10:17:28Z</time>
      </trkpt>
      <trkpt lat="47.69704" lon="2.03151">
        <ele>162</ele>
        <time>2022-01-20T10:17:29Z</time>
      </trkpt>
      <trkpt lat="47.69705" lon="2.0315022">
        <ele>162</ele>
        <time>2022-01-20T10:17:30Z</time>
      </trkpt>
      <trkpt lat="47.697052" lon="2.031494">
        <ele>162</ele>
        <time>2022-01-20T10:17:31Z</time>
      </trkpt>
      <trkpt lat="47.69706" lon="2.0314882">
        <ele>162</ele>
        <time>2022-01-20T10:17:32Z</time>
      </trkpt>
      <trkpt lat="47.697063" lon="2.0314796">
        <ele>162</ele>
        <time>2022-01-20T10:17:33Z</time>
      </trkpt>
      <trkpt lat="47.69707" lon="2.0314684">
        <ele>162</ele>
        <time>2022-01-20T10:17:34Z</time>
      </trkpt>
      <trkpt lat="47.69708" lon="2.0314596">
        <ele>162</ele>
        <time>2022-01-20T10:17:35Z</time>
      </trkpt>
      <trkpt lat="47.697083" lon="2.031451">
        <ele>162</ele>
        <time>2022-01-20T10:17:36Z</time>
      </trkpt>
      <trkpt lat="47.697086" lon="2.031441">
        <ele>162</ele>
        <time>2022-01-20T10:17:37Z</time>
      </trkpt>
      <trkpt lat="47.69709" lon="2.0314312">
        <ele>161</ele>
        <time>2022-01-20T10:17:38Z</time>
      </trkpt>
      <trkpt lat="47.697094" lon="2.0314255">
        <ele>161</ele>
        <time>2022-01-20T10:17:39Z</time>
      </trkpt>
      <trkpt lat="47.697094" lon="2.031412">
        <ele>161</ele>
        <time>2022-01-20T10:17:40Z</time>
      </trkpt>
      <trkpt lat="47.697098" lon="2.0314">
        <ele>161</ele>
        <time>2022-01-20T10:17:41Z</time>
      </trkpt>
      <trkpt lat="47.697105" lon="2.0313826">
        <ele>162</ele>
        <time>2022-01-20T10:17:42Z</time>
      </trkpt>
      <trkpt lat="47.69711" lon="2.0313673">
        <ele>162</ele>
        <time>2022-01-20T10:17:43Z</time>
      </trkpt>
      <trkpt lat="47.697113" lon="2.0313535">
        <ele>162</ele>
        <time>2022-01-20T10:17:44Z</time>
      </trkpt>
      <trkpt lat="47.697117" lon="2.0313406">
        <ele>161</ele>
        <time>2022-01-20T10:17:45Z</time>
      </trkpt>
      <trkpt lat="47.69712" lon="2.031327">
        <ele>161</ele>
        <time>2022-01-20T10:17:46Z</time>
      </trkpt>
      <trkpt lat="47.69712" lon="2.0313096">
        <ele>161</ele>
        <time>2022-01-20T10:17:47Z</time>
      </trkpt>
      <trkpt lat="47.69712" lon="2.0313096">
        <ele>161</ele>
        <time>2022-01-20T10:17:48Z</time>
      </trkpt>
      <trkpt lat="47.69712" lon="2.0313096">
        <ele>161</ele>
        <time>2022-01-20T10:17:49Z</time>
      </trkpt>
      <trkpt lat="47.697124" lon="2.0312762">
        <ele>161</ele>
        <time>2022-01-20T10:17:50Z</time>
      </trkpt>
      <trkpt lat="47.69713" lon="2.0312612">
        <ele>161</ele>
        <time>2022-01-20T10:17:51Z</time>
      </trkpt>
      <trkpt lat="47.697132" lon="2.031242">
        <ele>161</ele>
        <time>2022-01-20T10:17:52Z</time>
      </trkpt>
      <trkpt lat="47.697136" lon="2.0312266">
        <ele>161</ele>
        <time>2022-01-20T10:17:53Z</time>
      </trkpt>
      <trkpt lat="47.697144" lon="2.0312164">
        <ele>162</ele>
        <time>2022-01-20T10:17:54Z</time>
      </trkpt>
      <trkpt lat="47.697147" lon="2.031206">
        <ele>161</ele>
        <time>2022-01-20T10:17:55Z</time>
      </trkpt>
      <trkpt lat="47.697155" lon="2.0311975">
        <ele>162</ele>
        <time>2022-01-20T10:17:56Z</time>
      </trkpt>
      <trkpt lat="47.697155" lon="2.031188">
        <ele>162</ele>
        <time>2022-01-20T10:17:57Z</time>
      </trkpt>
      <trkpt lat="47.697155" lon="2.031188">
        <ele>162</ele>
        <time>2022-01-20T10:17:58Z</time>
      </trkpt>
      <trkpt lat="47.697155" lon="2.031188">
        <ele>162</ele>
        <time>2022-01-20T10:17:59Z</time>
      </trkpt>
      <trkpt lat="47.69716" lon="2.0311692">
        <ele>162</ele>
        <time>2022-01-20T10:18:00Z</time>
      </trkpt>
      <trkpt lat="47.69717" lon="2.0311596">
        <ele>163</ele>
        <time>2022-01-20T10:18:01Z</time>
      </trkpt>
      <trkpt lat="47.69718" lon="2.0311363">
        <ele>163</ele>
        <time>2022-01-20T10:18:02Z</time>
      </trkpt>
      <trkpt lat="47.69719" lon="2.0311155">
        <ele>162</ele>
        <time>2022-01-20T10:18:03Z</time>
      </trkpt>
      <trkpt lat="47.697193" lon="2.0311034">
        <ele>162</ele>
        <time>2022-01-20T10:18:04Z</time>
      </trkpt>
      <trkpt lat="47.697197" lon="2.0310926">
        <ele>162</ele>
        <time>2022-01-20T10:18:05Z</time>
      </trkpt>
      <trkpt lat="47.6972" lon="2.03108">
        <ele>162</ele>
        <time>2022-01-20T10:18:06Z</time>
      </trkpt>
      <trkpt lat="47.697205" lon="2.0310655">
        <ele>162</ele>
        <time>2022-01-20T10:18:07Z</time>
      </trkpt>
      <trkpt lat="47.69721" lon="2.0310519">
        <ele>161</ele>
        <time>2022-01-20T10:18:08Z</time>
      </trkpt>
      <trkpt lat="47.697212" lon="2.0310342">
        <ele>161</ele>
        <time>2022-01-20T10:18:09Z</time>
      </trkpt>
      <trkpt lat="47.697212" lon="2.0310187">
        <ele>161</ele>
        <time>2022-01-20T10:18:10Z</time>
      </trkpt>
      <trkpt lat="47.697216" lon="2.0309947">
        <ele>161</ele>
        <time>2022-01-20T10:18:11Z</time>
      </trkpt>
      <trkpt lat="47.69722" lon="2.030971">
        <ele>161</ele>
        <time>2022-01-20T10:18:12Z</time>
      </trkpt>
      <trkpt lat="47.69722" lon="2.0309474">
        <ele>161</ele>
        <time>2022-01-20T10:18:13Z</time>
      </trkpt>
      <trkpt lat="47.697224" lon="2.030924">
        <ele>162</ele>
        <time>2022-01-20T10:18:14Z</time>
      </trkpt>
      <trkpt lat="47.697227" lon="2.0309083">
        <ele>161</ele>
        <time>2022-01-20T10:18:15Z</time>
      </trkpt>
      <trkpt lat="47.69723" lon="2.0308926">
        <ele>161</ele>
        <time>2022-01-20T10:18:16Z</time>
      </trkpt>
      <trkpt lat="47.697235" lon="2.0308726">
        <ele>161</ele>
        <time>2022-01-20T10:18:17Z</time>
      </trkpt>
      <trkpt lat="47.697235" lon="2.0308497">
        <ele>161</ele>
        <time>2022-01-20T10:18:18Z</time>
      </trkpt>
      <trkpt lat="47.69724" lon="2.030826">
        <ele>161</ele>
        <time>2022-01-20T10:18:19Z</time>
      </trkpt>
      <trkpt lat="47.69724" lon="2.0307992">
        <ele>161</ele>
        <time>2022-01-20T10:18:20Z</time>
      </trkpt>
      <trkpt lat="47.697243" lon="2.03077">
        <ele>161</ele>
        <time>2022-01-20T10:18:21Z</time>
      </trkpt>
      <trkpt lat="47.697243" lon="2.0307455">
        <ele>161</ele>
        <time>2022-01-20T10:18:22Z</time>
      </trkpt>
      <trkpt lat="47.69725" lon="2.030721">
        <ele>162</ele>
        <time>2022-01-20T10:18:23Z</time>
      </trkpt>
      <trkpt lat="47.69725" lon="2.0307019">
        <ele>162</ele>
        <time>2022-01-20T10:18:24Z</time>
      </trkpt>
      <trkpt lat="47.697254" lon="2.0306847">
        <ele>162</ele>
        <time>2022-01-20T10:18:25Z</time>
      </trkpt>
      <trkpt lat="47.69725" lon="2.030677">
        <ele>161</ele>
        <time>2022-01-20T10:18:26Z</time>
      </trkpt>
      <trkpt lat="47.697254" lon="2.0306642">
        <ele>161</ele>
        <time>2022-01-20T10:18:27Z</time>
      </trkpt>
      <trkpt lat="47.697254" lon="2.030651">
        <ele>161</ele>
        <time>2022-01-20T10:18:28Z</time>
      </trkpt>
      <trkpt lat="47.69726" lon="2.0306375">
        <ele>161</ele>
        <time>2022-01-20T10:18:29Z</time>
      </trkpt>
      <trkpt lat="47.697266" lon="2.0306227">
        <ele>161</ele>
        <time>2022-01-20T10:18:30Z</time>
      </trkpt>
      <trkpt lat="47.69727" lon="2.0306087">
        <ele>161</ele>
        <time>2022-01-20T10:18:31Z</time>
      </trkpt>
      <trkpt lat="47.697273" lon="2.0305908">
        <ele>161</ele>
        <time>2022-01-20T10:18:32Z</time>
      </trkpt>
      <trkpt lat="47.697273" lon="2.0305774">
        <ele>161</ele>
        <time>2022-01-20T10:18:33Z</time>
      </trkpt>
      <trkpt lat="47.697273" lon="2.030561">
        <ele>161</ele>
        <time>2022-01-20T10:18:34Z</time>
      </trkpt>
      <trkpt lat="47.697273" lon="2.030543">
        <ele>162</ele>
        <time>2022-01-20T10:18:35Z</time>
      </trkpt>
      <trkpt lat="47.697273" lon="2.030526">
        <ele>161</ele>
        <time>2022-01-20T10:18:36Z</time>
      </trkpt>
      <trkpt lat="47.697277" lon="2.0305061">
        <ele>161</ele>
        <time>2022-01-20T10:18:37Z</time>
      </trkpt>
      <trkpt lat="47.697285" lon="2.030486">
        <ele>162</ele>
        <time>2022-01-20T10:18:38Z</time>
      </trkpt>
      <trkpt lat="47.69729" lon="2.0304668">
        <ele>162</ele>
        <time>2022-01-20T10:18:39Z</time>
      </trkpt>
      <trkpt lat="47.69729" lon="2.0304487">
        <ele>162</ele>
        <time>2022-01-20T10:18:40Z</time>
      </trkpt>
      <trkpt lat="47.69729" lon="2.0304294">
        <ele>162</ele>
        <time>2022-01-20T10:18:41Z</time>
      </trkpt>
      <trkpt lat="47.697292" lon="2.0304158">
        <ele>162</ele>
        <time>2022-01-20T10:18:42Z</time>
      </trkpt>
      <trkpt lat="47.697292" lon="2.0303938">
        <ele>161</ele>
        <time>2022-01-20T10:18:43Z</time>
      </trkpt>
      <trkpt lat="47.697292" lon="2.0303721">
        <ele>162</ele>
        <time>2022-01-20T10:18:44Z</time>
      </trkpt>
      <trkpt lat="47.697296" lon="2.0303526">
        <ele>162</ele>
        <time>2022-01-20T10:18:45Z</time>
      </trkpt>
      <trkpt lat="47.697296" lon="2.030333">
        <ele>162</ele>
        <time>2022-01-20T10:18:46Z</time>
      </trkpt>
      <trkpt lat="47.697296" lon="2.030312">
        <ele>162</ele>
        <time>2022-01-20T10:18:47Z</time>
      </trkpt>
      <trkpt lat="47.697296" lon="2.0302916">
        <ele>162</ele>
        <time>2022-01-20T10:18:48Z</time>
      </trkpt>
      <trkpt lat="47.6973" lon="2.0302749">
        <ele>163</ele>
        <time>2022-01-20T10:18:49Z</time>
      </trkpt>
      <trkpt lat="47.6973" lon="2.03026">
        <ele>162</ele>
        <time>2022-01-20T10:18:50Z</time>
      </trkpt>
      <trkpt lat="47.697308" lon="2.0302377">
        <ele>162</ele>
        <time>2022-01-20T10:18:51Z</time>
      </trkpt>
      <trkpt lat="47.697315" lon="2.0302157">
        <ele>162</ele>
        <time>2022-01-20T10:18:52Z</time>
      </trkpt>
      <trkpt lat="47.69732" lon="2.030199">
        <ele>162</ele>
        <time>2022-01-20T10:18:53Z</time>
      </trkpt>
      <trkpt lat="47.697323" lon="2.0301871">
        <ele>162</ele>
        <time>2022-01-20T10:18:54Z</time>
      </trkpt>
      <trkpt lat="47.697323" lon="2.0301766">
        <ele>163</ele>
        <time>2022-01-20T10:18:55Z</time>
      </trkpt>
      <trkpt lat="47.69732" lon="2.0301642">
        <ele>163</ele>
        <time>2022-01-20T10:18:56Z</time>
      </trkpt>
      <trkpt lat="47.69732" lon="2.0301511">
        <ele>163</ele>
        <time>2022-01-20T10:18:57Z</time>
      </trkpt>
      <trkpt lat="47.69732" lon="2.0301373">
        <ele>162</ele>
        <time>2022-01-20T10:18:58Z</time>
      </trkpt>
      <trkpt lat="47.69732" lon="2.0301194">
        <ele>162</ele>
        <time>2022-01-20T10:18:59Z</time>
      </trkpt>
      <trkpt lat="47.69732" lon="2.0301027">
        <ele>162</ele>
        <time>2022-01-20T10:19:00Z</time>
      </trkpt>
      <trkpt lat="47.697315" lon="2.0300884">
        <ele>161</ele>
        <time>2022-01-20T10:19:01Z</time>
      </trkpt>
      <trkpt lat="47.69731" lon="2.030072">
        <ele>162</ele>
        <time>2022-01-20T10:19:02Z</time>
      </trkpt>
      <trkpt lat="47.697315" lon="2.0300512">
        <ele>161</ele>
        <time>2022-01-20T10:19:03Z</time>
      </trkpt>
      <trkpt lat="47.697315" lon="2.030032">
        <ele>161</ele>
        <time>2022-01-20T10:19:04Z</time>
      </trkpt>
      <trkpt lat="47.69732" lon="2.0300143">
        <ele>161</ele>
        <time>2022-01-20T10:19:05Z</time>
      </trkpt>
      <trkpt lat="47.697327" lon="2.0299969">
        <ele>161</ele>
        <time>2022-01-20T10:19:06Z</time>
      </trkpt>
      <trkpt lat="47.697327" lon="2.029981">
        <ele>161</ele>
        <time>2022-01-20T10:19:07Z</time>
      </trkpt>
      <trkpt lat="47.69733" lon="2.0299597">
        <ele>161</ele>
        <time>2022-01-20T10:19:08Z</time>
      </trkpt>
      <trkpt lat="47.69733" lon="2.029943">
        <ele>161</ele>
        <time>2022-01-20T10:19:09Z</time>
      </trkpt>
      <trkpt lat="47.697334" lon="2.0299213">
        <ele>161</ele>
        <time>2022-01-20T10:19:10Z</time>
      </trkpt>
      <trkpt lat="47.69734" lon="2.029903">
        <ele>161</ele>
        <time>2022-01-20T10:19:11Z</time>
      </trkpt>
      <trkpt lat="47.69734" lon="2.029884">
        <ele>161</ele>
        <time>2022-01-20T10:19:12Z</time>
      </trkpt>
      <trkpt lat="47.697342" lon="2.0298667">
        <ele>161</ele>
        <time>2022-01-20T10:19:13Z</time>
      </trkpt>
      <trkpt lat="47.69734" lon="2.0298524">
        <ele>161</ele>
        <time>2022-01-20T10:19:14Z</time>
      </trkpt>
      <trkpt lat="47.69734" lon="2.029839">
        <ele>161</ele>
        <time>2022-01-20T10:19:15Z</time>
      </trkpt>
      <trkpt lat="47.697346" lon="2.0298195">
        <ele>160</ele>
        <time>2022-01-20T10:19:16Z</time>
      </trkpt>
      <trkpt lat="47.697357" lon="2.0297968">
        <ele>160</ele>
        <time>2022-01-20T10:19:17Z</time>
      </trkpt>
      <trkpt lat="47.69736" lon="2.029787">
        <ele>159</ele>
        <time>2022-01-20T10:19:18Z</time>
      </trkpt>
      <trkpt lat="47.69737" lon="2.02977">
        <ele>158</ele>
        <time>2022-01-20T10:19:19Z</time>
      </trkpt>
      <trkpt lat="47.697372" lon="2.029756">
        <ele>159</ele>
        <time>2022-01-20T10:19:20Z</time>
      </trkpt>
      <trkpt lat="47.697376" lon="2.0297399">
        <ele>159</ele>
        <time>2022-01-20T10:19:21Z</time>
      </trkpt>
      <trkpt lat="47.697384" lon="2.0297244">
        <ele>159</ele>
        <time>2022-01-20T10:19:22Z</time>
      </trkpt>
      <trkpt lat="47.697388" lon="2.0297022">
        <ele>159</ele>
        <time>2022-01-20T10:19:23Z</time>
      </trkpt>
      <trkpt lat="47.697388" lon="2.0296798">
        <ele>159</ele>
        <time>2022-01-20T10:19:24Z</time>
      </trkpt>
      <trkpt lat="47.69739" lon="2.029659">
        <ele>158</ele>
        <time>2022-01-20T10:19:25Z</time>
      </trkpt>
      <trkpt lat="47.697395" lon="2.0296352">
        <ele>159</ele>
        <time>2022-01-20T10:19:26Z</time>
      </trkpt>
      <trkpt lat="47.697395" lon="2.0296175">
        <ele>159</ele>
        <time>2022-01-20T10:19:27Z</time>
      </trkpt>
      <trkpt lat="47.6974" lon="2.0296042">
        <ele>159</ele>
        <time>2022-01-20T10:19:28Z</time>
      </trkpt>
      <trkpt lat="47.697403" lon="2.0295918">
        <ele>159</ele>
        <time>2022-01-20T10:19:29Z</time>
      </trkpt>
      <trkpt lat="47.69741" lon="2.029581">
        <ele>159</ele>
        <time>2022-01-20T10:19:30Z</time>
      </trkpt>
      <trkpt lat="47.697414" lon="2.0295668">
        <ele>159</ele>
        <time>2022-01-20T10:19:31Z</time>
      </trkpt>
      <trkpt lat="47.69742" lon="2.029548">
        <ele>159</ele>
        <time>2022-01-20T10:19:32Z</time>
      </trkpt>
      <trkpt lat="47.697426" lon="2.029532">
        <ele>159</ele>
        <time>2022-01-20T10:19:33Z</time>
      </trkpt>
      <trkpt lat="47.697426" lon="2.029516">
        <ele>159</ele>
        <time>2022-01-20T10:19:34Z</time>
      </trkpt>
      <trkpt lat="47.697433" lon="2.0294945">
        <ele>159</ele>
        <time>2022-01-20T10:19:35Z</time>
      </trkpt>
      <trkpt lat="47.697437" lon="2.0294776">
        <ele>159</ele>
        <time>2022-01-20T10:19:36Z</time>
      </trkpt>
      <trkpt lat="47.69744" lon="2.0294678">
        <ele>159</ele>
        <time>2022-01-20T10:19:37Z</time>
      </trkpt>
      <trkpt lat="47.697445" lon="2.0294623">
        <ele>159</ele>
        <time>2022-01-20T10:19:38Z</time>
      </trkpt>
      <trkpt lat="47.69745" lon="2.02945">
        <ele>159</ele>
        <time>2022-01-20T10:19:39Z</time>
      </trkpt>
      <trkpt lat="47.697456" lon="2.0294445">
        <ele>158</ele>
        <time>2022-01-20T10:19:40Z</time>
      </trkpt>
      <trkpt lat="47.69746" lon="2.0294256">
        <ele>159</ele>
        <time>2022-01-20T10:19:41Z</time>
      </trkpt>
      <trkpt lat="47.697464" lon="2.0294073">
        <ele>160</ele>
        <time>2022-01-20T10:19:42Z</time>
      </trkpt>
      <trkpt lat="47.697464" lon="2.0293882">
        <ele>160</ele>
        <time>2022-01-20T10:19:43Z</time>
      </trkpt>
      <trkpt lat="47.697468" lon="2.029367">
        <ele>160</ele>
        <time>2022-01-20T10:19:44Z</time>
      </trkpt>
      <trkpt lat="47.697468" lon="2.0293474">
        <ele>159</ele>
        <time>2022-01-20T10:19:45Z</time>
      </trkpt>
      <trkpt lat="47.697468" lon="2.029329">
        <ele>159</ele>
        <time>2022-01-20T10:19:46Z</time>
      </trkpt>
      <trkpt lat="47.697464" lon="2.0293114">
        <ele>159</ele>
        <time>2022-01-20T10:19:47Z</time>
      </trkpt>
      <trkpt lat="47.697464" lon="2.0292888">
        <ele>159</ele>
        <time>2022-01-20T10:19:48Z</time>
      </trkpt>
      <trkpt lat="47.697468" lon="2.0292733">
        <ele>159</ele>
        <time>2022-01-20T10:19:49Z</time>
      </trkpt>
      <trkpt lat="47.69747" lon="2.0292535">
        <ele>159</ele>
        <time>2022-01-20T10:19:50Z</time>
      </trkpt>
      <trkpt lat="47.697475" lon="2.0292401">
        <ele>158</ele>
        <time>2022-01-20T10:19:51Z</time>
      </trkpt>
      <trkpt lat="47.69747" lon="2.029222">
        <ele>158</ele>
        <time>2022-01-20T10:19:52Z</time>
      </trkpt>
      <trkpt lat="47.697475" lon="2.0292046">
        <ele>158</ele>
        <time>2022-01-20T10:19:53Z</time>
      </trkpt>
      <trkpt lat="47.69748" lon="2.0291884">
        <ele>158</ele>
        <time>2022-01-20T10:19:54Z</time>
      </trkpt>
      <trkpt lat="47.697483" lon="2.0291703">
        <ele>158</ele>
        <time>2022-01-20T10:19:55Z</time>
      </trkpt>
      <trkpt lat="47.69748" lon="2.0291576">
        <ele>157</ele>
        <time>2022-01-20T10:19:56Z</time>
      </trkpt>
      <trkpt lat="47.69748" lon="2.0291433">
        <ele>156</ele>
        <time>2022-01-20T10:19:57Z</time>
      </trkpt>
      <trkpt lat="47.697483" lon="2.0291245">
        <ele>156</ele>
        <time>2022-01-20T10:19:58Z</time>
      </trkpt>
      <trkpt lat="47.697487" lon="2.0291016">
        <ele>156</ele>
        <time>2022-01-20T10:19:59Z</time>
      </trkpt>
      <trkpt lat="47.697487" lon="2.0290833">
        <ele>156</ele>
        <time>2022-01-20T10:20:00Z</time>
      </trkpt>
      <trkpt lat="47.69749" lon="2.0290623">
        <ele>155</ele>
        <time>2022-01-20T10:20:01Z</time>
      </trkpt>
      <trkpt lat="47.697495" lon="2.029041">
        <ele>156</ele>
        <time>2022-01-20T10:20:02Z</time>
      </trkpt>
      <trkpt lat="47.697495" lon="2.0290208">
        <ele>156</ele>
        <time>2022-01-20T10:20:03Z</time>
      </trkpt>
      <trkpt lat="47.697495" lon="2.0289948">
        <ele>156</ele>
        <time>2022-01-20T10:20:04Z</time>
      </trkpt>
      <trkpt lat="47.6975" lon="2.028973">
        <ele>155</ele>
        <time>2022-01-20T10:20:05Z</time>
      </trkpt>
      <trkpt lat="47.6975" lon="2.0289538">
        <ele>155</ele>
        <time>2022-01-20T10:20:06Z</time>
      </trkpt>
      <trkpt lat="47.697502" lon="2.028936">
        <ele>155</ele>
        <time>2022-01-20T10:20:07Z</time>
      </trkpt>
      <trkpt lat="47.697506" lon="2.0289187">
        <ele>156</ele>
        <time>2022-01-20T10:20:08Z</time>
      </trkpt>
      <trkpt lat="47.69751" lon="2.028906">
        <ele>156</ele>
        <time>2022-01-20T10:20:09Z</time>
      </trkpt>
      <trkpt lat="47.697514" lon="2.028893">
        <ele>156</ele>
        <time>2022-01-20T10:20:10Z</time>
      </trkpt>
      <trkpt lat="47.697517" lon="2.0288763">
        <ele>156</ele>
        <time>2022-01-20T10:20:11Z</time>
      </trkpt>
      <trkpt lat="47.69752" lon="2.0288582">
        <ele>156</ele>
        <time>2022-01-20T10:20:12Z</time>
      </trkpt>
      <trkpt lat="47.697525" lon="2.0288396">
        <ele>156</ele>
        <time>2022-01-20T10:20:13Z</time>
      </trkpt>
      <trkpt lat="47.697525" lon="2.0288208">
        <ele>156</ele>
        <time>2022-01-20T10:20:14Z</time>
      </trkpt>
      <trkpt lat="47.69753" lon="2.028804">
        <ele>156</ele>
        <time>2022-01-20T10:20:15Z</time>
      </trkpt>
      <trkpt lat="47.69753" lon="2.028785">
        <ele>157</ele>
        <time>2022-01-20T10:20:16Z</time>
      </trkpt>
      <trkpt lat="47.697533" lon="2.028762">
        <ele>156</ele>
        <time>2022-01-20T10:20:17Z</time>
      </trkpt>
      <trkpt lat="47.697536" lon="2.0287426">
        <ele>157</ele>
        <time>2022-01-20T10:20:18Z</time>
      </trkpt>
      <trkpt lat="47.69754" lon="2.0287282">
        <ele>156</ele>
        <time>2022-01-20T10:20:19Z</time>
      </trkpt>
      <trkpt lat="47.697544" lon="2.028709">
        <ele>156</ele>
        <time>2022-01-20T10:20:20Z</time>
      </trkpt>
      <trkpt lat="47.697548" lon="2.0286891">
        <ele>157</ele>
        <time>2022-01-20T10:20:21Z</time>
      </trkpt>
      <trkpt lat="47.69755" lon="2.028673">
        <ele>157</ele>
        <time>2022-01-20T10:20:22Z</time>
      </trkpt>
      <trkpt lat="47.697556" lon="2.0286572">
        <ele>157</ele>
        <time>2022-01-20T10:20:23Z</time>
      </trkpt>
      <trkpt lat="47.69756" lon="2.028642">
        <ele>157</ele>
        <time>2022-01-20T10:20:24Z</time>
      </trkpt>
      <trkpt lat="47.697563" lon="2.0286229">
        <ele>157</ele>
        <time>2022-01-20T10:20:25Z</time>
      </trkpt>
      <trkpt lat="47.697567" lon="2.0286036">
        <ele>157</ele>
        <time>2022-01-20T10:20:26Z</time>
      </trkpt>
      <trkpt lat="47.69757" lon="2.0285885">
        <ele>157</ele>
        <time>2022-01-20T10:20:27Z</time>
      </trkpt>
      <trkpt lat="47.69757" lon="2.0285695">
        <ele>157</ele>
        <time>2022-01-20T10:20:28Z</time>
      </trkpt>
      <trkpt lat="47.697575" lon="2.0285492">
        <ele>158</ele>
        <time>2022-01-20T10:20:29Z</time>
      </trkpt>
      <trkpt lat="47.69757" lon="2.0285306">
        <ele>158</ele>
        <time>2022-01-20T10:20:30Z</time>
      </trkpt>
      <trkpt lat="47.697575" lon="2.0285134">
        <ele>158</ele>
        <time>2022-01-20T10:20:31Z</time>
      </trkpt>
      <trkpt lat="47.697575" lon="2.028498">
        <ele>158</ele>
        <time>2022-01-20T10:20:32Z</time>
      </trkpt>
      <trkpt lat="47.697582" lon="2.0284796">
        <ele>158</ele>
        <time>2022-01-20T10:20:33Z</time>
      </trkpt>
      <trkpt lat="47.697586" lon="2.0284612">
        <ele>159</ele>
        <time>2022-01-20T10:20:34Z</time>
      </trkpt>
      <trkpt lat="47.69759" lon="2.0284486">
        <ele>159</ele>
        <time>2022-01-20T10:20:35Z</time>
      </trkpt>
      <trkpt lat="47.697594" lon="2.028434">
        <ele>158</ele>
        <time>2022-01-20T10:20:36Z</time>
      </trkpt>
      <trkpt lat="47.697598" lon="2.0284188">
        <ele>158</ele>
        <time>2022-01-20T10:20:37Z</time>
      </trkpt>
      <trkpt lat="47.697605" lon="2.0284092">
        <ele>158</ele>
        <time>2022-01-20T10:20:38Z</time>
      </trkpt>
      <trkpt lat="47.69761" lon="2.0283985">
        <ele>158</ele>
        <time>2022-01-20T10:20:39Z</time>
      </trkpt>
      <trkpt lat="47.697613" lon="2.0283844">
        <ele>158</ele>
        <time>2022-01-20T10:20:40Z</time>
      </trkpt>
      <trkpt lat="47.697617" lon="2.0283675">
        <ele>158</ele>
        <time>2022-01-20T10:20:41Z</time>
      </trkpt>
      <trkpt lat="47.69762" lon="2.0283496">
        <ele>158</ele>
        <time>2022-01-20T10:20:42Z</time>
      </trkpt>
      <trkpt lat="47.697624" lon="2.0283298">
        <ele>159</ele>
        <time>2022-01-20T10:20:43Z</time>
      </trkpt>
      <trkpt lat="47.697624" lon="2.0283127">
        <ele>159</ele>
        <time>2022-01-20T10:20:44Z</time>
      </trkpt>
      <trkpt lat="47.697628" lon="2.028297">
        <ele>159</ele>
        <time>2022-01-20T10:20:45Z</time>
      </trkpt>
      <trkpt lat="47.69763" lon="2.028278">
        <ele>158</ele>
        <time>2022-01-20T10:20:46Z</time>
      </trkpt>
      <trkpt lat="47.697636" lon="2.0282605">
        <ele>158</ele>
        <time>2022-01-20T10:20:47Z</time>
      </trkpt>
      <trkpt lat="47.697643" lon="2.0282457">
        <ele>157</ele>
        <time>2022-01-20T10:20:48Z</time>
      </trkpt>
      <trkpt lat="47.697647" lon="2.0282295">
        <ele>157</ele>
        <time>2022-01-20T10:20:49Z</time>
      </trkpt>
      <trkpt lat="47.69765" lon="2.0282183">
        <ele>158</ele>
        <time>2022-01-20T10:20:50Z</time>
      </trkpt>
      <trkpt lat="47.69766" lon="2.028206">
        <ele>158</ele>
        <time>2022-01-20T10:20:51Z</time>
      </trkpt>
      <trkpt lat="47.69766" lon="2.0281916">
        <ele>158</ele>
        <time>2022-01-20T10:20:52Z</time>
      </trkpt>
      <trkpt lat="47.697662" lon="2.0281725">
        <ele>158</ele>
        <time>2022-01-20T10:20:53Z</time>
      </trkpt>
      <trkpt lat="47.697666" lon="2.0281549">
        <ele>158</ele>
        <time>2022-01-20T10:20:54Z</time>
      </trkpt>
      <trkpt lat="47.697674" lon="2.028133">
        <ele>158</ele>
        <time>2022-01-20T10:20:55Z</time>
      </trkpt>
      <trkpt lat="47.697678" lon="2.0281136">
        <ele>158</ele>
        <time>2022-01-20T10:20:56Z</time>
      </trkpt>
      <trkpt lat="47.697678" lon="2.028097">
        <ele>158</ele>
        <time>2022-01-20T10:20:57Z</time>
      </trkpt>
      <trkpt lat="47.697678" lon="2.028079">
        <ele>158</ele>
        <time>2022-01-20T10:20:58Z</time>
      </trkpt>
      <trkpt lat="47.69768" lon="2.028061">
        <ele>158</ele>
        <time>2022-01-20T10:20:59Z</time>
      </trkpt>
      <trkpt lat="47.69768" lon="2.0280433">
        <ele>158</ele>
        <time>2022-01-20T10:21:00Z</time>
      </trkpt>
      <trkpt lat="47.69768" lon="2.0280242">
        <ele>158</ele>
        <time>2022-01-20T10:21:01Z</time>
      </trkpt>
      <trkpt lat="47.697685" lon="2.0280092">
        <ele>158</ele>
        <time>2022-01-20T10:21:02Z</time>
      </trkpt>
      <trkpt lat="47.69769" lon="2.0279894">
        <ele>159</ele>
        <time>2022-01-20T10:21:03Z</time>
      </trkpt>
      <trkpt lat="47.697693" lon="2.0279675">
        <ele>158</ele>
        <time>2022-01-20T10:21:04Z</time>
      </trkpt>
      <trkpt lat="47.697697" lon="2.027946">
        <ele>158</ele>
        <time>2022-01-20T10:21:05Z</time>
      </trkpt>
      <trkpt lat="47.697697" lon="2.0279284">
        <ele>158</ele>
        <time>2022-01-20T10:21:06Z</time>
      </trkpt>
      <trkpt lat="47.6977" lon="2.0279098">
        <ele>158</ele>
        <time>2022-01-20T10:21:07Z</time>
      </trkpt>
      <trkpt lat="47.69771" lon="2.027894">
        <ele>158</ele>
        <time>2022-01-20T10:21:08Z</time>
      </trkpt>
      <trkpt lat="47.697712" lon="2.0278754">
        <ele>159</ele>
        <time>2022-01-20T10:21:09Z</time>
      </trkpt>
      <trkpt lat="47.697716" lon="2.0278563">
        <ele>159</ele>
        <time>2022-01-20T10:21:10Z</time>
      </trkpt>
      <trkpt lat="47.697716" lon="2.0278387">
        <ele>159</ele>
        <time>2022-01-20T10:21:11Z</time>
      </trkpt>
      <trkpt lat="47.697723" lon="2.027822">
        <ele>159</ele>
        <time>2022-01-20T10:21:12Z</time>
      </trkpt>
      <trkpt lat="47.697727" lon="2.0278108">
        <ele>159</ele>
        <time>2022-01-20T10:21:13Z</time>
      </trkpt>
      <trkpt lat="47.69773" lon="2.0277958">
        <ele>159</ele>
        <time>2022-01-20T10:21:14Z</time>
      </trkpt>
      <trkpt lat="47.697735" lon="2.0277836">
        <ele>159</ele>
        <time>2022-01-20T10:21:15Z</time>
      </trkpt>
      <trkpt lat="47.69774" lon="2.0277712">
        <ele>159</ele>
        <time>2022-01-20T10:21:16Z</time>
      </trkpt>
      <trkpt lat="47.697735" lon="2.0277567">
        <ele>159</ele>
        <time>2022-01-20T10:21:17Z</time>
      </trkpt>
      <trkpt lat="47.697735" lon="2.0277379">
        <ele>159</ele>
        <time>2022-01-20T10:21:18Z</time>
      </trkpt>
      <trkpt lat="47.697735" lon="2.0277166">
        <ele>159</ele>
        <time>2022-01-20T10:21:19Z</time>
      </trkpt>
      <trkpt lat="47.69774" lon="2.0276966">
        <ele>159</ele>
        <time>2022-01-20T10:21:20Z</time>
      </trkpt>
      <trkpt lat="47.697742" lon="2.0276763">
        <ele>158</ele>
        <time>2022-01-20T10:21:21Z</time>
      </trkpt>
      <trkpt lat="47.69775" lon="2.027654">
        <ele>158</ele>
        <time>2022-01-20T10:21:22Z</time>
      </trkpt>
      <trkpt lat="47.697754" lon="2.0276303">
        <ele>158</ele>
        <time>2022-01-20T10:21:23Z</time>
      </trkpt>
      <trkpt lat="47.697758" lon="2.0276105">
        <ele>159</ele>
        <time>2022-01-20T10:21:24Z</time>
      </trkpt>
      <trkpt lat="47.69776" lon="2.0275888">
        <ele>159</ele>
        <time>2022-01-20T10:21:25Z</time>
      </trkpt>
      <trkpt lat="47.697765" lon="2.027574">
        <ele>159</ele>
        <time>2022-01-20T10:21:26Z</time>
      </trkpt>
      <trkpt lat="47.69777" lon="2.0275612">
        <ele>158</ele>
        <time>2022-01-20T10:21:27Z</time>
      </trkpt>
      <trkpt lat="47.697777" lon="2.0275407">
        <ele>159</ele>
        <time>2022-01-20T10:21:28Z</time>
      </trkpt>
      <trkpt lat="47.69778" lon="2.0275226">
        <ele>159</ele>
        <time>2022-01-20T10:21:29Z</time>
      </trkpt>
      <trkpt lat="47.69778" lon="2.0275052">
        <ele>160</ele>
        <time>2022-01-20T10:21:30Z</time>
      </trkpt>
      <trkpt lat="47.69779" lon="2.02749">
        <ele>160</ele>
        <time>2022-01-20T10:21:31Z</time>
      </trkpt>
      <trkpt lat="47.697792" lon="2.0274684">
        <ele>160</ele>
        <time>2022-01-20T10:21:32Z</time>
      </trkpt>
      <trkpt lat="47.697792" lon="2.0274513">
        <ele>160</ele>
        <time>2022-01-20T10:21:33Z</time>
      </trkpt>
      <trkpt lat="47.697792" lon="2.0274303">
        <ele>160</ele>
        <time>2022-01-20T10:21:34Z</time>
      </trkpt>
      <trkpt lat="47.697792" lon="2.0274086">
        <ele>160</ele>
        <time>2022-01-20T10:21:35Z</time>
      </trkpt>
      <trkpt lat="47.697792" lon="2.0273902">
        <ele>160</ele>
        <time>2022-01-20T10:21:36Z</time>
      </trkpt>
      <trkpt lat="47.6978" lon="2.0273764">
        <ele>160</ele>
        <time>2022-01-20T10:21:37Z</time>
      </trkpt>
      <trkpt lat="47.697803" lon="2.0273607">
        <ele>161</ele>
        <time>2022-01-20T10:21:38Z</time>
      </trkpt>
      <trkpt lat="47.697803" lon="2.0273442">
        <ele>161</ele>
        <time>2022-01-20T10:21:39Z</time>
      </trkpt>
      <trkpt lat="47.697807" lon="2.0273252">
        <ele>162</ele>
        <time>2022-01-20T10:21:40Z</time>
      </trkpt>
      <trkpt lat="47.697807" lon="2.0273101">
        <ele>162</ele>
        <time>2022-01-20T10:21:41Z</time>
      </trkpt>
      <trkpt lat="47.697807" lon="2.027294">
        <ele>162</ele>
        <time>2022-01-20T10:21:42Z</time>
      </trkpt>
      <trkpt lat="47.69781" lon="2.027278">
        <ele>161</ele>
        <time>2022-01-20T10:21:43Z</time>
      </trkpt>
      <trkpt lat="47.69782" lon="2.0272624">
        <ele>162</ele>
        <time>2022-01-20T10:21:44Z</time>
      </trkpt>
      <trkpt lat="47.69782" lon="2.0272448">
        <ele>162</ele>
        <time>2022-01-20T10:21:45Z</time>
      </trkpt>
      <trkpt lat="47.697823" lon="2.0272334">
        <ele>162</ele>
        <time>2022-01-20T10:21:46Z</time>
      </trkpt>
      <trkpt lat="47.69783" lon="2.02722">
        <ele>162</ele>
        <time>2022-01-20T10:21:47Z</time>
      </trkpt>
      <trkpt lat="47.69783" lon="2.0272038">
        <ele>162</ele>
        <time>2022-01-20T10:21:48Z</time>
      </trkpt>
      <trkpt lat="47.697834" lon="2.0271854">
        <ele>162</ele>
        <time>2022-01-20T10:21:49Z</time>
      </trkpt>
      <trkpt lat="47.697838" lon="2.0271704">
        <ele>163</ele>
        <time>2022-01-20T10:21:50Z</time>
      </trkpt>
      <trkpt lat="47.69784" lon="2.0271559">
        <ele>163</ele>
        <time>2022-01-20T10:21:51Z</time>
      </trkpt>
      <trkpt lat="47.697845" lon="2.0271358">
        <ele>163</ele>
        <time>2022-01-20T10:21:52Z</time>
      </trkpt>
      <trkpt lat="47.697845" lon="2.0271168">
        <ele>163</ele>
        <time>2022-01-20T10:21:53Z</time>
      </trkpt>
      <trkpt lat="47.697845" lon="2.027099">
        <ele>163</ele>
        <time>2022-01-20T10:21:54Z</time>
      </trkpt>
      <trkpt lat="47.69785" lon="2.0270896">
        <ele>162</ele>
        <time>2022-01-20T10:21:55Z</time>
      </trkpt>
      <trkpt lat="47.69785" lon="2.027078">
        <ele>162</ele>
        <time>2022-01-20T10:21:56Z</time>
      </trkpt>
      <trkpt lat="47.697857" lon="2.0270684">
        <ele>162</ele>
        <time>2022-01-20T10:21:57Z</time>
      </trkpt>
      <trkpt lat="47.69786" lon="2.0270543">
        <ele>162</ele>
        <time>2022-01-20T10:21:58Z</time>
      </trkpt>
      <trkpt lat="47.697865" lon="2.0270422">
        <ele>162</ele>
        <time>2022-01-20T10:21:59Z</time>
      </trkpt>
      <trkpt lat="47.69787" lon="2.027029">
        <ele>162</ele>
        <time>2022-01-20T10:22:00Z</time>
      </trkpt>
      <trkpt lat="47.69787" lon="2.0270097">
        <ele>161</ele>
        <time>2022-01-20T10:22:01Z</time>
      </trkpt>
      <trkpt lat="47.69787" lon="2.0269902">
        <ele>161</ele>
        <time>2022-01-20T10:22:02Z</time>
      </trkpt>
      <trkpt lat="47.69787" lon="2.0269694">
        <ele>160</ele>
        <time>2022-01-20T10:22:03Z</time>
      </trkpt>
      <trkpt lat="47.697872" lon="2.026951">
        <ele>160</ele>
        <time>2022-01-20T10:22:04Z</time>
      </trkpt>
      <trkpt lat="47.697872" lon="2.0269363">
        <ele>160</ele>
        <time>2022-01-20T10:22:05Z</time>
      </trkpt>
      <trkpt lat="47.697872" lon="2.0269268">
        <ele>160</ele>
        <time>2022-01-20T10:22:06Z</time>
      </trkpt>
      <trkpt lat="47.697876" lon="2.0269134">
        <ele>160</ele>
        <time>2022-01-20T10:22:07Z</time>
      </trkpt>
      <trkpt lat="47.697884" lon="2.0268989">
        <ele>160</ele>
        <time>2022-01-20T10:22:08Z</time>
      </trkpt>
      <trkpt lat="47.69789" lon="2.0268855">
        <ele>159</ele>
        <time>2022-01-20T10:22:09Z</time>
      </trkpt>
      <trkpt lat="47.697895" lon="2.026873">
        <ele>159</ele>
        <time>2022-01-20T10:22:10Z</time>
      </trkpt>
      <trkpt lat="47.6979" lon="2.0268614">
        <ele>160</ele>
        <time>2022-01-20T10:22:11Z</time>
      </trkpt>
      <trkpt lat="47.697903" lon="2.0268466">
        <ele>160</ele>
        <time>2022-01-20T10:22:12Z</time>
      </trkpt>
      <trkpt lat="47.697906" lon="2.0268323">
        <ele>160</ele>
        <time>2022-01-20T10:22:13Z</time>
      </trkpt>
      <trkpt lat="47.69791" lon="2.0268133">
        <ele>160</ele>
        <time>2022-01-20T10:22:14Z</time>
      </trkpt>
      <trkpt lat="47.697914" lon="2.0268037">
        <ele>160</ele>
        <time>2022-01-20T10:22:15Z</time>
      </trkpt>
      <trkpt lat="47.697914" lon="2.0267897">
        <ele>160</ele>
        <time>2022-01-20T10:22:16Z</time>
      </trkpt>
      <trkpt lat="47.697918" lon="2.0267715">
        <ele>160</ele>
        <time>2022-01-20T10:22:17Z</time>
      </trkpt>
      <trkpt lat="47.69792" lon="2.0267522">
        <ele>160</ele>
        <time>2022-01-20T10:22:18Z</time>
      </trkpt>
      <trkpt lat="47.697926" lon="2.0267346">
        <ele>160</ele>
        <time>2022-01-20T10:22:19Z</time>
      </trkpt>
      <trkpt lat="47.69793" lon="2.0267143">
        <ele>160</ele>
        <time>2022-01-20T10:22:20Z</time>
      </trkpt>
      <trkpt lat="47.697933" lon="2.0266964">
        <ele>160</ele>
        <time>2022-01-20T10:22:21Z</time>
      </trkpt>
      <trkpt lat="47.697933" lon="2.026679">
        <ele>160</ele>
        <time>2022-01-20T10:22:22Z</time>
      </trkpt>
      <trkpt lat="47.697933" lon="2.0266662">
        <ele>159</ele>
        <time>2022-01-20T10:22:23Z</time>
      </trkpt>
      <trkpt lat="47.697933" lon="2.026648">
        <ele>159</ele>
        <time>2022-01-20T10:22:24Z</time>
      </trkpt>
      <trkpt lat="47.697937" lon="2.0266314">
        <ele>159</ele>
        <time>2022-01-20T10:22:25Z</time>
      </trkpt>
      <trkpt lat="47.697937" lon="2.0266194">
        <ele>159</ele>
        <time>2022-01-20T10:22:26Z</time>
      </trkpt>
      <trkpt lat="47.69794" lon="2.026613">
        <ele>159</ele>
        <time>2022-01-20T10:22:27Z</time>
      </trkpt>
      <trkpt lat="47.69794" lon="2.0265954">
        <ele>159</ele>
        <time>2022-01-20T10:22:28Z</time>
      </trkpt>
      <trkpt lat="47.69795" lon="2.0265806">
        <ele>159</ele>
        <time>2022-01-20T10:22:29Z</time>
      </trkpt>
      <trkpt lat="47.697952" lon="2.026571">
        <ele>159</ele>
        <time>2022-01-20T10:22:30Z</time>
      </trkpt>
      <trkpt lat="47.697956" lon="2.0265596">
        <ele>159</ele>
        <time>2022-01-20T10:22:31Z</time>
      </trkpt>
      <trkpt lat="47.69796" lon="2.0265424">
        <ele>159</ele>
        <time>2022-01-20T10:22:32Z</time>
      </trkpt>
      <trkpt lat="47.697964" lon="2.0265257">
        <ele>160</ele>
        <time>2022-01-20T10:22:33Z</time>
      </trkpt>
      <trkpt lat="47.697968" lon="2.0265088">
        <ele>160</ele>
        <time>2022-01-20T10:22:34Z</time>
      </trkpt>
      <trkpt lat="47.69797" lon="2.0264883">
        <ele>160</ele>
        <time>2022-01-20T10:22:35Z</time>
      </trkpt>
      <trkpt lat="47.697975" lon="2.026468">
        <ele>160</ele>
        <time>2022-01-20T10:22:36Z</time>
      </trkpt>
      <trkpt lat="47.697983" lon="2.0264506">
        <ele>160</ele>
        <time>2022-01-20T10:22:37Z</time>
      </trkpt>
      <trkpt lat="47.69799" lon="2.0264282">
        <ele>160</ele>
        <time>2022-01-20T10:22:38Z</time>
      </trkpt>
      <trkpt lat="47.697994" lon="2.0264096">
        <ele>160</ele>
        <time>2022-01-20T10:22:39Z</time>
      </trkpt>
      <trkpt lat="47.697998" lon="2.0263891">
        <ele>160</ele>
        <time>2022-01-20T10:22:40Z</time>
      </trkpt>
      <trkpt lat="47.698" lon="2.0263722">
        <ele>160</ele>
        <time>2022-01-20T10:22:41Z</time>
      </trkpt>
      <trkpt lat="47.698006" lon="2.0263588">
        <ele>160</ele>
        <time>2022-01-20T10:22:42Z</time>
      </trkpt>
      <trkpt lat="47.698006" lon="2.0263453">
        <ele>160</ele>
        <time>2022-01-20T10:22:43Z</time>
      </trkpt>
      <trkpt lat="47.69801" lon="2.0263298">
        <ele>160</ele>
        <time>2022-01-20T10:22:44Z</time>
      </trkpt>
      <trkpt lat="47.698013" lon="2.0263114">
        <ele>160</ele>
        <time>2022-01-20T10:22:45Z</time>
      </trkpt>
      <trkpt lat="47.698017" lon="2.0262897">
        <ele>159</ele>
        <time>2022-01-20T10:22:46Z</time>
      </trkpt>
      <trkpt lat="47.69802" lon="2.0262725">
        <ele>159</ele>
        <time>2022-01-20T10:22:47Z</time>
      </trkpt>
      <trkpt lat="47.698025" lon="2.026254">
        <ele>159</ele>
        <time>2022-01-20T10:22:48Z</time>
      </trkpt>
      <trkpt lat="47.69803" lon="2.0262427">
        <ele>159</ele>
        <time>2022-01-20T10:22:49Z</time>
      </trkpt>
      <trkpt lat="47.69803" lon="2.0262294">
        <ele>159</ele>
        <time>2022-01-20T10:22:50Z</time>
      </trkpt>
      <trkpt lat="47.69803" lon="2.0262144">
        <ele>159</ele>
        <time>2022-01-20T10:22:51Z</time>
      </trkpt>
      <trkpt lat="47.698032" lon="2.0261993">
        <ele>159</ele>
        <time>2022-01-20T10:22:52Z</time>
      </trkpt>
      <trkpt lat="47.698036" lon="2.0261815">
        <ele>159</ele>
        <time>2022-01-20T10:22:53Z</time>
      </trkpt>
      <trkpt lat="47.69804" lon="2.0261586">
        <ele>160</ele>
        <time>2022-01-20T10:22:54Z</time>
      </trkpt>
      <trkpt lat="47.698044" lon="2.0261393">
        <ele>160</ele>
        <time>2022-01-20T10:22:55Z</time>
      </trkpt>
      <trkpt lat="47.698048" lon="2.0261197">
        <ele>160</ele>
        <time>2022-01-20T10:22:56Z</time>
      </trkpt>
      <trkpt lat="47.69805" lon="2.0260983">
        <ele>160</ele>
        <time>2022-01-20T10:22:57Z</time>
      </trkpt>
      <trkpt lat="47.698055" lon="2.026075">
        <ele>159</ele>
        <time>2022-01-20T10:22:58Z</time>
      </trkpt>
      <trkpt lat="47.698055" lon="2.026058">
        <ele>159</ele>
        <time>2022-01-20T10:22:59Z</time>
      </trkpt>
      <trkpt lat="47.698063" lon="2.026043">
        <ele>160</ele>
        <time>2022-01-20T10:23:00Z</time>
      </trkpt>
      <trkpt lat="47.69807" lon="2.026027">
        <ele>160</ele>
        <time>2022-01-20T10:23:01Z</time>
      </trkpt>
      <trkpt lat="47.698074" lon="2.0260134">
        <ele>160</ele>
        <time>2022-01-20T10:23:02Z</time>
      </trkpt>
      <trkpt lat="47.69808" lon="2.0259957">
        <ele>161</ele>
        <time>2022-01-20T10:23:03Z</time>
      </trkpt>
      <trkpt lat="47.698082" lon="2.0259767">
        <ele>160</ele>
        <time>2022-01-20T10:23:04Z</time>
      </trkpt>
      <trkpt lat="47.698082" lon="2.0259602">
        <ele>161</ele>
        <time>2022-01-20T10:23:05Z</time>
      </trkpt>
      <trkpt lat="47.698086" lon="2.0259485">
        <ele>161</ele>
        <time>2022-01-20T10:23:06Z</time>
      </trkpt>
      <trkpt lat="47.69809" lon="2.025928">
        <ele>161</ele>
        <time>2022-01-20T10:23:07Z</time>
      </trkpt>
      <trkpt lat="47.69809" lon="2.025914">
        <ele>161</ele>
        <time>2022-01-20T10:23:08Z</time>
      </trkpt>
      <trkpt lat="47.698093" lon="2.0258975">
        <ele>161</ele>
        <time>2022-01-20T10:23:09Z</time>
      </trkpt>
      <trkpt lat="47.698097" lon="2.0258846">
        <ele>162</ele>
        <time>2022-01-20T10:23:10Z</time>
      </trkpt>
      <trkpt lat="47.698097" lon="2.0258694">
        <ele>161</ele>
        <time>2022-01-20T10:23:11Z</time>
      </trkpt>
      <trkpt lat="47.6981" lon="2.0258543">
        <ele>161</ele>
        <time>2022-01-20T10:23:12Z</time>
      </trkpt>
      <trkpt lat="47.6981" lon="2.0258377">
        <ele>161</ele>
        <time>2022-01-20T10:23:13Z</time>
      </trkpt>
      <trkpt lat="47.69811" lon="2.0258217">
        <ele>162</ele>
        <time>2022-01-20T10:23:14Z</time>
      </trkpt>
      <trkpt lat="47.698112" lon="2.025808">
        <ele>162</ele>
        <time>2022-01-20T10:23:15Z</time>
      </trkpt>
      <trkpt lat="47.698116" lon="2.025791">
        <ele>162</ele>
        <time>2022-01-20T10:23:16Z</time>
      </trkpt>
      <trkpt lat="47.69812" lon="2.0257745">
        <ele>162</ele>
        <time>2022-01-20T10:23:17Z</time>
      </trkpt>
      <trkpt lat="47.698124" lon="2.025755">
        <ele>162</ele>
        <time>2022-01-20T10:23:18Z</time>
      </trkpt>
      <trkpt lat="47.698128" lon="2.0257356">
        <ele>162</ele>
        <time>2022-01-20T10:23:19Z</time>
      </trkpt>
      <trkpt lat="47.69813" lon="2.0257194">
        <ele>162</ele>
        <time>2022-01-20T10:23:20Z</time>
      </trkpt>
      <trkpt lat="47.698135" lon="2.025702">
        <ele>162</ele>
        <time>2022-01-20T10:23:21Z</time>
      </trkpt>
      <trkpt lat="47.69814" lon="2.0256827">
        <ele>162</ele>
        <time>2022-01-20T10:23:22Z</time>
      </trkpt>
      <trkpt lat="47.698143" lon="2.0256636">
        <ele>162</ele>
        <time>2022-01-20T10:23:23Z</time>
      </trkpt>
      <trkpt lat="47.698147" lon="2.0256429">
        <ele>162</ele>
        <time>2022-01-20T10:23:24Z</time>
      </trkpt>
      <trkpt lat="47.69815" lon="2.0256248">
        <ele>162</ele>
        <time>2022-01-20T10:23:25Z</time>
      </trkpt>
      <trkpt lat="47.69815" lon="2.0256102">
        <ele>162</ele>
        <time>2022-01-20T10:23:26Z</time>
      </trkpt>
      <trkpt lat="47.698154" lon="2.0255961">
        <ele>162</ele>
        <time>2022-01-20T10:23:27Z</time>
      </trkpt>
      <trkpt lat="47.698162" lon="2.02558">
        <ele>162</ele>
        <time>2022-01-20T10:23:28Z</time>
      </trkpt>
      <trkpt lat="47.698166" lon="2.0255647">
        <ele>162</ele>
        <time>2022-01-20T10:23:29Z</time>
      </trkpt>
      <trkpt lat="47.69817" lon="2.0255485">
        <ele>162</ele>
        <time>2022-01-20T10:23:30Z</time>
      </trkpt>
      <trkpt lat="47.698174" lon="2.0255368">
        <ele>162</ele>
        <time>2022-01-20T10:23:31Z</time>
      </trkpt>
      <trkpt lat="47.698177" lon="2.0255225">
        <ele>162</ele>
        <time>2022-01-20T10:23:32Z</time>
      </trkpt>
      <trkpt lat="47.698177" lon="2.025507">
        <ele>162</ele>
        <time>2022-01-20T10:23:33Z</time>
      </trkpt>
      <trkpt lat="47.69818" lon="2.0254898">
        <ele>163</ele>
        <time>2022-01-20T10:23:34Z</time>
      </trkpt>
      <trkpt lat="47.698185" lon="2.0254738">
        <ele>163</ele>
        <time>2022-01-20T10:23:35Z</time>
      </trkpt>
      <trkpt lat="47.69819" lon="2.0254583">
        <ele>163</ele>
        <time>2022-01-20T10:23:36Z</time>
      </trkpt>
      <trkpt lat="47.698193" lon="2.025442">
        <ele>163</ele>
        <time>2022-01-20T10:23:37Z</time>
      </trkpt>
      <trkpt lat="47.698196" lon="2.0254257">
        <ele>162</ele>
        <time>2022-01-20T10:23:38Z</time>
      </trkpt>
      <trkpt lat="47.6982" lon="2.0254092">
        <ele>163</ele>
        <time>2022-01-20T10:23:39Z</time>
      </trkpt>
      <trkpt lat="47.698204" lon="2.0253968">
        <ele>163</ele>
        <time>2022-01-20T10:23:40Z</time>
      </trkpt>
      <trkpt lat="47.698208" lon="2.0253878">
        <ele>163</ele>
        <time>2022-01-20T10:23:41Z</time>
      </trkpt>
      <trkpt lat="47.698208" lon="2.0253758">
        <ele>163</ele>
        <time>2022-01-20T10:23:42Z</time>
      </trkpt>
      <trkpt lat="47.698208" lon="2.0253575">
        <ele>162</ele>
        <time>2022-01-20T10:23:43Z</time>
      </trkpt>
      <trkpt lat="47.69821" lon="2.025343">
        <ele>162</ele>
        <time>2022-01-20T10:23:44Z</time>
      </trkpt>
      <trkpt lat="47.698215" lon="2.025331">
        <ele>162</ele>
        <time>2022-01-20T10:23:45Z</time>
      </trkpt>
      <trkpt lat="47.698227" lon="2.025322">
        <ele>162</ele>
        <time>2022-01-20T10:23:46Z</time>
      </trkpt>
      <trkpt lat="47.69823" lon="2.025312">
        <ele>162</ele>
        <time>2022-01-20T10:23:47Z</time>
      </trkpt>
      <trkpt lat="47.698235" lon="2.0252979">
        <ele>162</ele>
        <time>2022-01-20T10:23:48Z</time>
      </trkpt>
      <trkpt lat="47.69824" lon="2.0252864">
        <ele>161</ele>
        <time>2022-01-20T10:23:49Z</time>
      </trkpt>
      <trkpt lat="47.698246" lon="2.025277">
        <ele>162</ele>
        <time>2022-01-20T10:23:50Z</time>
      </trkpt>
      <trkpt lat="47.69825" lon="2.0252671">
        <ele>162</ele>
        <time>2022-01-20T10:23:51Z</time>
      </trkpt>
      <trkpt lat="47.698254" lon="2.0252526">
        <ele>162</ele>
        <time>2022-01-20T10:23:52Z</time>
      </trkpt>
      <trkpt lat="47.698254" lon="2.0252354">
        <ele>162</ele>
        <time>2022-01-20T10:23:53Z</time>
      </trkpt>
      <trkpt lat="47.698257" lon="2.0252192">
        <ele>162</ele>
        <time>2022-01-20T10:23:54Z</time>
      </trkpt>
      <trkpt lat="47.698265" lon="2.025205">
        <ele>161</ele>
        <time>2022-01-20T10:23:55Z</time>
      </trkpt>
      <trkpt lat="47.698273" lon="2.0251923">
        <ele>161</ele>
        <time>2022-01-20T10:23:56Z</time>
      </trkpt>
      <trkpt lat="47.698277" lon="2.025176">
        <ele>160</ele>
        <time>2022-01-20T10:23:57Z</time>
      </trkpt>
      <trkpt lat="47.69828" lon="2.0251532">
        <ele>160</ele>
        <time>2022-01-20T10:23:58Z</time>
      </trkpt>
      <trkpt lat="47.698284" lon="2.025131">
        <ele>160</ele>
        <time>2022-01-20T10:23:59Z</time>
      </trkpt>
      <trkpt lat="47.698284" lon="2.025106">
        <ele>159</ele>
        <time>2022-01-20T10:24:00Z</time>
      </trkpt>
      <trkpt lat="47.69829" lon="2.0250826">
        <ele>160</ele>
        <time>2022-01-20T10:24:01Z</time>
      </trkpt>
      <trkpt lat="47.69829" lon="2.0250661">
        <ele>160</ele>
        <time>2022-01-20T10:24:02Z</time>
      </trkpt>
      <trkpt lat="47.698296" lon="2.0250485">
        <ele>160</ele>
        <time>2022-01-20T10:24:03Z</time>
      </trkpt>
      <trkpt lat="47.698296" lon="2.0250323">
        <ele>160</ele>
        <time>2022-01-20T10:24:04Z</time>
      </trkpt>
      <trkpt lat="47.698296" lon="2.025015">
        <ele>160</ele>
        <time>2022-01-20T10:24:05Z</time>
      </trkpt>
      <trkpt lat="47.698296" lon="2.0250013">
        <ele>160</ele>
        <time>2022-01-20T10:24:06Z</time>
      </trkpt>
      <trkpt lat="47.6983" lon="2.0249894">
        <ele>159</ele>
        <time>2022-01-20T10:24:07Z</time>
      </trkpt>
      <trkpt lat="47.698303" lon="2.0249803">
        <ele>159</ele>
        <time>2022-01-20T10:24:08Z</time>
      </trkpt>
      <trkpt lat="47.698303" lon="2.0249672">
        <ele>159</ele>
        <time>2022-01-20T10:24:09Z</time>
      </trkpt>
      <trkpt lat="47.698303" lon="2.0249503">
        <ele>159</ele>
        <time>2022-01-20T10:24:10Z</time>
      </trkpt>
      <trkpt lat="47.698303" lon="2.0249324">
        <ele>159</ele>
        <time>2022-01-20T10:24:11Z</time>
      </trkpt>
      <trkpt lat="47.6983" lon="2.0249207">
        <ele>159</ele>
        <time>2022-01-20T10:24:12Z</time>
      </trkpt>
      <trkpt lat="47.6983" lon="2.024908">
        <ele>159</ele>
        <time>2022-01-20T10:24:13Z</time>
      </trkpt>
      <trkpt lat="47.698296" lon="2.02489">
        <ele>158</ele>
        <time>2022-01-20T10:24:14Z</time>
      </trkpt>
      <trkpt lat="47.6983" lon="2.0248787">
        <ele>158</ele>
        <time>2022-01-20T10:24:15Z</time>
      </trkpt>
      <trkpt lat="47.6983" lon="2.0248654">
        <ele>158</ele>
        <time>2022-01-20T10:24:16Z</time>
      </trkpt>
      <trkpt lat="47.698296" lon="2.0248518">
        <ele>158</ele>
        <time>2022-01-20T10:24:17Z</time>
      </trkpt>
      <trkpt lat="47.698296" lon="2.024841">
        <ele>157</ele>
        <time>2022-01-20T10:24:18Z</time>
      </trkpt>
      <trkpt lat="47.698296" lon="2.0248246">
        <ele>157</ele>
        <time>2022-01-20T10:24:19Z</time>
      </trkpt>
      <trkpt lat="47.69829" lon="2.024808">
        <ele>157</ele>
        <time>2022-01-20T10:24:20Z</time>
      </trkpt>
      <trkpt lat="47.698296" lon="2.0247889">
        <ele>157</ele>
        <time>2022-01-20T10:24:21Z</time>
      </trkpt>
      <trkpt lat="47.6983" lon="2.0247726">
        <ele>158</ele>
        <time>2022-01-20T10:24:22Z</time>
      </trkpt>
      <trkpt lat="47.6983" lon="2.0247524">
        <ele>157</ele>
        <time>2022-01-20T10:24:23Z</time>
      </trkpt>
      <trkpt lat="47.6983" lon="2.024735">
        <ele>157</ele>
        <time>2022-01-20T10:24:24Z</time>
      </trkpt>
      <trkpt lat="47.6983" lon="2.024718">
        <ele>157</ele>
        <time>2022-01-20T10:24:25Z</time>
      </trkpt>
      <trkpt lat="47.6983" lon="2.0247018">
        <ele>158</ele>
        <time>2022-01-20T10:24:26Z</time>
      </trkpt>
      <trkpt lat="47.6983" lon="2.0246863">
        <ele>158</ele>
        <time>2022-01-20T10:24:27Z</time>
      </trkpt>
      <trkpt lat="47.6983" lon="2.0246725">
        <ele>158</ele>
        <time>2022-01-20T10:24:28Z</time>
      </trkpt>
      <trkpt lat="47.6983" lon="2.024655">
        <ele>158</ele>
        <time>2022-01-20T10:24:29Z</time>
      </trkpt>
      <trkpt lat="47.6983" lon="2.0246387">
        <ele>158</ele>
        <time>2022-01-20T10:24:30Z</time>
      </trkpt>
      <trkpt lat="47.6983" lon="2.0246224">
        <ele>158</ele>
        <time>2022-01-20T10:24:31Z</time>
      </trkpt>
      <trkpt lat="47.6983" lon="2.024604">
        <ele>158</ele>
        <time>2022-01-20T10:24:32Z</time>
      </trkpt>
      <trkpt lat="47.6983" lon="2.0245876">
        <ele>158</ele>
        <time>2022-01-20T10:24:33Z</time>
      </trkpt>
      <trkpt lat="47.6983" lon="2.024574">
        <ele>158</ele>
        <time>2022-01-20T10:24:34Z</time>
      </trkpt>
      <trkpt lat="47.698307" lon="2.024556">
        <ele>158</ele>
        <time>2022-01-20T10:24:35Z</time>
      </trkpt>
      <trkpt lat="47.69831" lon="2.024539">
        <ele>158</ele>
        <time>2022-01-20T10:24:36Z</time>
      </trkpt>
      <trkpt lat="47.698315" lon="2.0245209">
        <ele>159</ele>
        <time>2022-01-20T10:24:37Z</time>
      </trkpt>
      <trkpt lat="47.698322" lon="2.0245047">
        <ele>159</ele>
        <time>2022-01-20T10:24:38Z</time>
      </trkpt>
      <trkpt lat="47.698326" lon="2.0244884">
        <ele>158</ele>
        <time>2022-01-20T10:24:39Z</time>
      </trkpt>
      <trkpt lat="47.69833" lon="2.024472">
        <ele>158</ele>
        <time>2022-01-20T10:24:40Z</time>
      </trkpt>
      <trkpt lat="47.69833" lon="2.024455">
        <ele>158</ele>
        <time>2022-01-20T10:24:41Z</time>
      </trkpt>
      <trkpt lat="47.69833" lon="2.0244389">
        <ele>158</ele>
        <time>2022-01-20T10:24:42Z</time>
      </trkpt>
      <trkpt lat="47.69833" lon="2.0244193">
        <ele>158</ele>
        <time>2022-01-20T10:24:43Z</time>
      </trkpt>
      <trkpt lat="47.698334" lon="2.0244038">
        <ele>158</ele>
        <time>2022-01-20T10:24:44Z</time>
      </trkpt>
      <trkpt lat="47.698334" lon="2.0243888">
        <ele>158</ele>
        <time>2022-01-20T10:24:45Z</time>
      </trkpt>
      <trkpt lat="47.698334" lon="2.0243683">
        <ele>157</ele>
        <time>2022-01-20T10:24:46Z</time>
      </trkpt>
      <trkpt lat="47.698338" lon="2.0243456">
        <ele>157</ele>
        <time>2022-01-20T10:24:47Z</time>
      </trkpt>
      <trkpt lat="47.698338" lon="2.0243235">
        <ele>158</ele>
        <time>2022-01-20T10:24:48Z</time>
      </trkpt>
      <trkpt lat="47.69834" lon="2.0243003">
        <ele>158</ele>
        <time>2022-01-20T10:24:49Z</time>
      </trkpt>
      <trkpt lat="47.69834" lon="2.0242841">
        <ele>159</ele>
        <time>2022-01-20T10:24:50Z</time>
      </trkpt>
      <trkpt lat="47.69835" lon="2.0242631">
        <ele>159</ele>
        <time>2022-01-20T10:24:51Z</time>
      </trkpt>
      <trkpt lat="47.69835" lon="2.02424">
        <ele>159</ele>
        <time>2022-01-20T10:24:52Z</time>
      </trkpt>
      <trkpt lat="47.69835" lon="2.0242214">
        <ele>159</ele>
        <time>2022-01-20T10:24:53Z</time>
      </trkpt>
      <trkpt lat="47.698353" lon="2.0242016">
        <ele>159</ele>
        <time>2022-01-20T10:24:54Z</time>
      </trkpt>
      <trkpt lat="47.698357" lon="2.0241857">
        <ele>159</ele>
        <time>2022-01-20T10:24:55Z</time>
      </trkpt>
      <trkpt lat="47.698357" lon="2.0241694">
        <ele>159</ele>
        <time>2022-01-20T10:24:56Z</time>
      </trkpt>
      <trkpt lat="47.698357" lon="2.0241544">
        <ele>159</ele>
        <time>2022-01-20T10:24:57Z</time>
      </trkpt>
      <trkpt lat="47.698357" lon="2.0241377">
        <ele>159</ele>
        <time>2022-01-20T10:24:58Z</time>
      </trkpt>
      <trkpt lat="47.69836" lon="2.0241227">
        <ele>159</ele>
        <time>2022-01-20T10:24:59Z</time>
      </trkpt>
      <trkpt lat="47.698364" lon="2.024107">
        <ele>159</ele>
        <time>2022-01-20T10:25:00Z</time>
      </trkpt>
      <trkpt lat="47.698364" lon="2.0240896">
        <ele>159</ele>
        <time>2022-01-20T10:25:01Z</time>
      </trkpt>
      <trkpt lat="47.698364" lon="2.0240736">
        <ele>159</ele>
        <time>2022-01-20T10:25:02Z</time>
      </trkpt>
      <trkpt lat="47.698364" lon="2.0240614">
        <ele>159</ele>
        <time>2022-01-20T10:25:03Z</time>
      </trkpt>
      <trkpt lat="47.698368" lon="2.0240495">
        <ele>159</ele>
        <time>2022-01-20T10:25:04Z</time>
      </trkpt>
      <trkpt lat="47.698368" lon="2.0240395">
        <ele>159</ele>
        <time>2022-01-20T10:25:05Z</time>
      </trkpt>
      <trkpt lat="47.698368" lon="2.0240297">
        <ele>159</ele>
        <time>2022-01-20T10:25:06Z</time>
      </trkpt>
      <trkpt lat="47.698364" lon="2.0240235">
        <ele>160</ele>
        <time>2022-01-20T10:25:07Z</time>
      </trkpt>
      <trkpt lat="47.698368" lon="2.024018">
        <ele>160</ele>
        <time>2022-01-20T10:25:08Z</time>
      </trkpt>
      <trkpt lat="47.69837" lon="2.024005">
        <ele>160</ele>
        <time>2022-01-20T10:25:09Z</time>
      </trkpt>
      <trkpt lat="47.698376" lon="2.0239916">
        <ele>160</ele>
        <time>2022-01-20T10:25:10Z</time>
      </trkpt>
      <trkpt lat="47.698376" lon="2.0239818">
        <ele>159</ele>
        <time>2022-01-20T10:25:11Z</time>
      </trkpt>
      <trkpt lat="47.698376" lon="2.0239687">
        <ele>160</ele>
        <time>2022-01-20T10:25:12Z</time>
      </trkpt>
      <trkpt lat="47.698376" lon="2.02395">
        <ele>159</ele>
        <time>2022-01-20T10:25:13Z</time>
      </trkpt>
      <trkpt lat="47.698376" lon="2.02393">
        <ele>159</ele>
        <time>2022-01-20T10:25:14Z</time>
      </trkpt>
      <trkpt lat="47.69837" lon="2.0239124">
        <ele>158</ele>
        <time>2022-01-20T10:25:15Z</time>
      </trkpt>
      <trkpt lat="47.69838" lon="2.0238924">
        <ele>157</ele>
        <time>2022-01-20T10:25:16Z</time>
      </trkpt>
      <trkpt lat="47.69838" lon="2.0238705">
        <ele>156</ele>
        <time>2022-01-20T10:25:17Z</time>
      </trkpt>
      <trkpt lat="47.69838" lon="2.0238497">
        <ele>156</ele>
        <time>2022-01-20T10:25:18Z</time>
      </trkpt>
      <trkpt lat="47.69838" lon="2.023832">
        <ele>155</ele>
        <time>2022-01-20T10:25:19Z</time>
      </trkpt>
      <trkpt lat="47.69838" lon="2.0238168">
        <ele>155</ele>
        <time>2022-01-20T10:25:20Z</time>
      </trkpt>
      <trkpt lat="47.69837" lon="2.023796">
        <ele>155</ele>
        <time>2022-01-20T10:25:21Z</time>
      </trkpt>
      <trkpt lat="47.698364" lon="2.0237813">
        <ele>155</ele>
        <time>2022-01-20T10:25:22Z</time>
      </trkpt>
      <trkpt lat="47.698353" lon="2.0237665">
        <ele>156</ele>
        <time>2022-01-20T10:25:23Z</time>
      </trkpt>
      <trkpt lat="47.698345" lon="2.0237567">
        <ele>156</ele>
        <time>2022-01-20T10:25:24Z</time>
      </trkpt>
      <trkpt lat="47.698334" lon="2.023745">
        <ele>157</ele>
        <time>2022-01-20T10:25:25Z</time>
      </trkpt>
      <trkpt lat="47.698326" lon="2.0237367">
        <ele>157</ele>
        <time>2022-01-20T10:25:26Z</time>
      </trkpt>
      <trkpt lat="47.698315" lon="2.0237284">
        <ele>158</ele>
        <time>2022-01-20T10:25:27Z</time>
      </trkpt>
      <trkpt lat="47.698303" lon="2.02372">
        <ele>158</ele>
        <time>2022-01-20T10:25:28Z</time>
      </trkpt>
      <trkpt lat="47.69829" lon="2.0237124">
        <ele>158</ele>
        <time>2022-01-20T10:25:29Z</time>
      </trkpt>
      <trkpt lat="47.698284" lon="2.0237038">
        <ele>159</ele>
        <time>2022-01-20T10:25:30Z</time>
      </trkpt>
      <trkpt lat="47.698277" lon="2.0237033">
        <ele>159</ele>
        <time>2022-01-20T10:25:31Z</time>
      </trkpt>
      <trkpt lat="47.698265" lon="2.023701">
        <ele>159</ele>
        <time>2022-01-20T10:25:32Z</time>
      </trkpt>
      <trkpt lat="47.698254" lon="2.0236967">
        <ele>159</ele>
        <time>2022-01-20T10:25:33Z</time>
      </trkpt>
      <trkpt lat="47.698246" lon="2.0236905">
        <ele>159</ele>
        <time>2022-01-20T10:25:34Z</time>
      </trkpt>
      <trkpt lat="47.698235" lon="2.0236826">
        <ele>159</ele>
        <time>2022-01-20T10:25:35Z</time>
      </trkpt>
      <trkpt lat="47.698223" lon="2.0236742">
        <ele>159</ele>
        <time>2022-01-20T10:25:36Z</time>
      </trkpt>
      <trkpt lat="47.69821" lon="2.0236723">
        <ele>159</ele>
        <time>2022-01-20T10:25:37Z</time>
      </trkpt>
      <trkpt lat="47.6982" lon="2.0236695">
        <ele>159</ele>
        <time>2022-01-20T10:25:38Z</time>
      </trkpt>
      <trkpt lat="47.69819" lon="2.0236673">
        <ele>159</ele>
        <time>2022-01-20T10:25:39Z</time>
      </trkpt>
      <trkpt lat="47.69818" lon="2.023662">
        <ele>159</ele>
        <time>2022-01-20T10:25:40Z</time>
      </trkpt>
      <trkpt lat="47.698166" lon="2.0236561">
        <ele>159</ele>
        <time>2022-01-20T10:25:41Z</time>
      </trkpt>
      <trkpt lat="47.69816" lon="2.0236468">
        <ele>160</ele>
        <time>2022-01-20T10:25:42Z</time>
      </trkpt>
      <trkpt lat="47.69815" lon="2.0236373">
        <ele>159</ele>
        <time>2022-01-20T10:25:43Z</time>
      </trkpt>
      <trkpt lat="47.69814" lon="2.0236292">
        <ele>159</ele>
        <time>2022-01-20T10:25:44Z</time>
      </trkpt>
      <trkpt lat="47.69813" lon="2.0236259">
        <ele>159</ele>
        <time>2022-01-20T10:25:45Z</time>
      </trkpt>
      <trkpt lat="47.69813" lon="2.0236282">
        <ele>159</ele>
        <time>2022-01-20T10:25:46Z</time>
      </trkpt>
      <trkpt lat="47.69813" lon="2.0236318">
        <ele>159</ele>
        <time>2022-01-20T10:25:47Z</time>
      </trkpt>
      <trkpt lat="47.698124" lon="2.0236354">
        <ele>159</ele>
        <time>2022-01-20T10:25:48Z</time>
      </trkpt>
      <trkpt lat="47.69811" lon="2.0236428">
        <ele>160</ele>
        <time>2022-01-20T10:25:49Z</time>
      </trkpt>
      <trkpt lat="47.698097" lon="2.023647">
        <ele>160</ele>
        <time>2022-01-20T10:25:50Z</time>
      </trkpt>
      <trkpt lat="47.698086" lon="2.0236456">
        <ele>160</ele>
        <time>2022-01-20T10:25:51Z</time>
      </trkpt>
      <trkpt lat="47.698074" lon="2.0236413">
        <ele>160</ele>
        <time>2022-01-20T10:25:52Z</time>
      </trkpt>
      <trkpt lat="47.698063" lon="2.0236435">
        <ele>160</ele>
        <time>2022-01-20T10:25:53Z</time>
      </trkpt>
      <trkpt lat="47.69805" lon="2.0236437">
        <ele>160</ele>
        <time>2022-01-20T10:25:54Z</time>
      </trkpt>
      <trkpt lat="47.698044" lon="2.023641">
        <ele>159</ele>
        <time>2022-01-20T10:25:55Z</time>
      </trkpt>
      <trkpt lat="47.698032" lon="2.0236402">
        <ele>159</ele>
        <time>2022-01-20T10:25:56Z</time>
      </trkpt>
      <trkpt lat="47.69803" lon="2.0236382">
        <ele>159</ele>
        <time>2022-01-20T10:25:57Z</time>
      </trkpt>
      <trkpt lat="47.698017" lon="2.0236323">
        <ele>158</ele>
        <time>2022-01-20T10:25:58Z</time>
      </trkpt>
      <trkpt lat="47.698013" lon="2.0236268">
        <ele>159</ele>
        <time>2022-01-20T10:25:59Z</time>
      </trkpt>
      <trkpt lat="47.698006" lon="2.0236268">
        <ele>159</ele>
        <time>2022-01-20T10:26:00Z</time>
      </trkpt>
      <trkpt lat="47.697998" lon="2.0236306">
        <ele>159</ele>
        <time>2022-01-20T10:26:01Z</time>
      </trkpt>
      <trkpt lat="47.697987" lon="2.0236368">
        <ele>158</ele>
        <time>2022-01-20T10:26:02Z</time>
      </trkpt>
      <trkpt lat="47.69798" lon="2.0236416">
        <ele>158</ele>
        <time>2022-01-20T10:26:03Z</time>
      </trkpt>
      <trkpt lat="47.69797" lon="2.0236468">
        <ele>158</ele>
        <time>2022-01-20T10:26:04Z</time>
      </trkpt>
      <trkpt lat="47.697952" lon="2.0236566">
        <ele>158</ele>
        <time>2022-01-20T10:26:05Z</time>
      </trkpt>
      <trkpt lat="47.697937" lon="2.0236557">
        <ele>157</ele>
        <time>2022-01-20T10:26:06Z</time>
      </trkpt>
      <trkpt lat="47.69792" lon="2.0236495">
        <ele>157</ele>
        <time>2022-01-20T10:26:07Z</time>
      </trkpt>
      <trkpt lat="47.697914" lon="2.0236423">
        <ele>158</ele>
        <time>2022-01-20T10:26:08Z</time>
      </trkpt>
      <trkpt lat="47.6979" lon="2.0236392">
        <ele>158</ele>
        <time>2022-01-20T10:26:09Z</time>
      </trkpt>
      <trkpt lat="47.697884" lon="2.0236375">
        <ele>158</ele>
        <time>2022-01-20T10:26:10Z</time>
      </trkpt>
      <trkpt lat="47.697876" lon="2.0236363">
        <ele>158</ele>
        <time>2022-01-20T10:26:11Z</time>
      </trkpt>
      <trkpt lat="47.69787" lon="2.023638">
        <ele>158</ele>
        <time>2022-01-20T10:26:12Z</time>
      </trkpt>
      <trkpt lat="47.69786" lon="2.0236416">
        <ele>159</ele>
        <time>2022-01-20T10:26:13Z</time>
      </trkpt>
      <trkpt lat="47.697853" lon="2.02364">
        <ele>159</ele>
        <time>2022-01-20T10:26:14Z</time>
      </trkpt>
      <trkpt lat="47.697845" lon="2.023639">
        <ele>160</ele>
        <time>2022-01-20T10:26:15Z</time>
      </trkpt>
      <trkpt lat="47.697838" lon="2.02364">
        <ele>160</ele>
        <time>2022-01-20T10:26:16Z</time>
      </trkpt>
      <trkpt lat="47.697826" lon="2.0236397">
        <ele>160</ele>
        <time>2022-01-20T10:26:17Z</time>
      </trkpt>
      <trkpt lat="47.69782" lon="2.0236397">
        <ele>161</ele>
        <time>2022-01-20T10:26:18Z</time>
      </trkpt>
      <trkpt lat="47.69782" lon="2.0236368">
        <ele>161</ele>
        <time>2022-01-20T10:26:19Z</time>
      </trkpt>
      <trkpt lat="47.697815" lon="2.023636">
        <ele>161</ele>
        <time>2022-01-20T10:26:20Z</time>
      </trkpt>
      <trkpt lat="47.697803" lon="2.0236337">
        <ele>161</ele>
        <time>2022-01-20T10:26:21Z</time>
      </trkpt>
      <trkpt lat="47.697792" lon="2.0236306">
        <ele>161</ele>
        <time>2022-01-20T10:26:22Z</time>
      </trkpt>
      <trkpt lat="47.69778" lon="2.0236335">
        <ele>161</ele>
        <time>2022-01-20T10:26:23Z</time>
      </trkpt>
      <trkpt lat="47.697773" lon="2.0236394">
        <ele>161</ele>
        <time>2022-01-20T10:26:24Z</time>
      </trkpt>
      <trkpt lat="47.697765" lon="2.0236456">
        <ele>161</ele>
        <time>2022-01-20T10:26:25Z</time>
      </trkpt>
      <trkpt lat="47.697754" lon="2.0236504">
        <ele>160</ele>
        <time>2022-01-20T10:26:26Z</time>
      </trkpt>
      <trkpt lat="47.69774" lon="2.0236497">
        <ele>160</ele>
        <time>2022-01-20T10:26:27Z</time>
      </trkpt>
      <trkpt lat="47.697727" lon="2.02365">
        <ele>161</ele>
        <time>2022-01-20T10:26:28Z</time>
      </trkpt>
      <trkpt lat="47.697712" lon="2.0236564">
        <ele>160</ele>
        <time>2022-01-20T10:26:29Z</time>
      </trkpt>
      <trkpt lat="47.697697" lon="2.0236537">
        <ele>160</ele>
        <time>2022-01-20T10:26:30Z</time>
      </trkpt>
      <trkpt lat="47.69768" lon="2.0236545">
        <ele>160</ele>
        <time>2022-01-20T10:26:31Z</time>
      </trkpt>
      <trkpt lat="47.697674" lon="2.0236552">
        <ele>159</ele>
        <time>2022-01-20T10:26:32Z</time>
      </trkpt>
      <trkpt lat="47.697666" lon="2.023658">
        <ele>159</ele>
        <time>2022-01-20T10:26:33Z</time>
      </trkpt>
      <trkpt lat="47.69766" lon="2.023658">
        <ele>160</ele>
        <time>2022-01-20T10:26:34Z</time>
      </trkpt>
      <trkpt lat="47.69765" lon="2.023655">
        <ele>160</ele>
        <time>2022-01-20T10:26:35Z</time>
      </trkpt>
      <trkpt lat="47.69764" lon="2.023657">
        <ele>160</ele>
        <time>2022-01-20T10:26:36Z</time>
      </trkpt>
      <trkpt lat="47.697628" lon="2.0236592">
        <ele>160</ele>
        <time>2022-01-20T10:26:37Z</time>
      </trkpt>
      <trkpt lat="47.69762" lon="2.0236633">
        <ele>160</ele>
        <time>2022-01-20T10:26:38Z</time>
      </trkpt>
      <trkpt lat="47.697605" lon="2.0236678">
        <ele>160</ele>
        <time>2022-01-20T10:26:39Z</time>
      </trkpt>
      <trkpt lat="47.69759" lon="2.0236719">
        <ele>160</ele>
        <time>2022-01-20T10:26:40Z</time>
      </trkpt>
      <trkpt lat="47.697575" lon="2.023674">
        <ele>160</ele>
        <time>2022-01-20T10:26:41Z</time>
      </trkpt>
      <trkpt lat="47.69756" lon="2.023675">
        <ele>160</ele>
        <time>2022-01-20T10:26:42Z</time>
      </trkpt>
      <trkpt lat="47.697548" lon="2.023677">
        <ele>160</ele>
        <time>2022-01-20T10:26:43Z</time>
      </trkpt>
      <trkpt lat="47.697536" lon="2.0236795">
        <ele>159</ele>
        <time>2022-01-20T10:26:44Z</time>
      </trkpt>
      <trkpt lat="47.69753" lon="2.0236826">
        <ele>159</ele>
        <time>2022-01-20T10:26:45Z</time>
      </trkpt>
      <trkpt lat="47.697517" lon="2.0236838">
        <ele>159</ele>
        <time>2022-01-20T10:26:46Z</time>
      </trkpt>
      <trkpt lat="47.697506" lon="2.0236819">
        <ele>159</ele>
        <time>2022-01-20T10:26:47Z</time>
      </trkpt>
      <trkpt lat="47.697495" lon="2.0236819">
        <ele>159</ele>
        <time>2022-01-20T10:26:48Z</time>
      </trkpt>
      <trkpt lat="47.697483" lon="2.0236816">
        <ele>159</ele>
        <time>2022-01-20T10:26:49Z</time>
      </trkpt>
      <trkpt lat="47.69747" lon="2.0236793">
        <ele>160</ele>
        <time>2022-01-20T10:26:50Z</time>
      </trkpt>
      <trkpt lat="47.697464" lon="2.0236802">
        <ele>160</ele>
        <time>2022-01-20T10:26:51Z</time>
      </trkpt>
      <trkpt lat="47.697456" lon="2.0236819">
        <ele>160</ele>
        <time>2022-01-20T10:26:52Z</time>
      </trkpt>
      <trkpt lat="47.697445" lon="2.0236795">
        <ele>160</ele>
        <time>2022-01-20T10:26:53Z</time>
      </trkpt>
      <trkpt lat="47.69743" lon="2.0236797">
        <ele>161</ele>
        <time>2022-01-20T10:26:54Z</time>
      </trkpt>
      <trkpt lat="47.69742" lon="2.02368">
        <ele>160</ele>
        <time>2022-01-20T10:26:55Z</time>
      </trkpt>
      <trkpt lat="47.697407" lon="2.0236826">
        <ele>160</ele>
        <time>2022-01-20T10:26:56Z</time>
      </trkpt>
      <trkpt lat="47.6974" lon="2.0236783">
        <ele>161</ele>
        <time>2022-01-20T10:26:57Z</time>
      </trkpt>
      <trkpt lat="47.697384" lon="2.0236802">
        <ele>161</ele>
        <time>2022-01-20T10:26:58Z</time>
      </trkpt>
      <trkpt lat="47.697372" lon="2.0236797">
        <ele>161</ele>
        <time>2022-01-20T10:26:59Z</time>
      </trkpt>
      <trkpt lat="47.697365" lon="2.0236776">
        <ele>161</ele>
        <time>2022-01-20T10:27:00Z</time>
      </trkpt>
      <trkpt lat="47.697357" lon="2.0236788">
        <ele>161</ele>
        <time>2022-01-20T10:27:01Z</time>
      </trkpt>
      <trkpt lat="47.697346" lon="2.0236852">
        <ele>161</ele>
        <time>2022-01-20T10:27:02Z</time>
      </trkpt>
      <trkpt lat="47.697334" lon="2.0236876">
        <ele>161</ele>
        <time>2022-01-20T10:27:03Z</time>
      </trkpt>
      <trkpt lat="47.697323" lon="2.0236902">
        <ele>161</ele>
        <time>2022-01-20T10:27:04Z</time>
      </trkpt>
      <trkpt lat="47.69731" lon="2.023692">
        <ele>161</ele>
        <time>2022-01-20T10:27:05Z</time>
      </trkpt>
      <trkpt lat="47.6973" lon="2.0236952">
        <ele>161</ele>
        <time>2022-01-20T10:27:06Z</time>
      </trkpt>
      <trkpt lat="47.69729" lon="2.0236998">
        <ele>161</ele>
        <time>2022-01-20T10:27:07Z</time>
      </trkpt>
      <trkpt lat="47.697273" lon="2.023702">
        <ele>161</ele>
        <time>2022-01-20T10:27:08Z</time>
      </trkpt>
      <trkpt lat="47.69726" lon="2.023708">
        <ele>162</ele>
        <time>2022-01-20T10:27:09Z</time>
      </trkpt>
      <trkpt lat="47.697243" lon="2.0237107">
        <ele>162</ele>
        <time>2022-01-20T10:27:10Z</time>
      </trkpt>
      <trkpt lat="47.697227" lon="2.0237117">
        <ele>162</ele>
        <time>2022-01-20T10:27:11Z</time>
      </trkpt>
      <trkpt lat="47.697216" lon="2.0237122">
        <ele>163</ele>
        <time>2022-01-20T10:27:12Z</time>
      </trkpt>
      <trkpt lat="47.697205" lon="2.0237188">
        <ele>163</ele>
        <time>2022-01-20T10:27:13Z</time>
      </trkpt>
      <trkpt lat="47.697193" lon="2.0237162">
        <ele>164</ele>
        <time>2022-01-20T10:27:14Z</time>
      </trkpt>
      <trkpt lat="47.69718" lon="2.023716">
        <ele>164</ele>
        <time>2022-01-20T10:27:15Z</time>
      </trkpt>
      <trkpt lat="47.697174" lon="2.023718">
        <ele>164</ele>
        <time>2022-01-20T10:27:16Z</time>
      </trkpt>
      <trkpt lat="47.69716" lon="2.023715">
        <ele>164</ele>
        <time>2022-01-20T10:27:17Z</time>
      </trkpt>
      <trkpt lat="47.697144" lon="2.0237143">
        <ele>164</ele>
        <time>2022-01-20T10:27:18Z</time>
      </trkpt>
      <trkpt lat="47.69713" lon="2.0237203">
        <ele>164</ele>
        <time>2022-01-20T10:27:19Z</time>
      </trkpt>
      <trkpt lat="47.697117" lon="2.023726">
        <ele>164</ele>
        <time>2022-01-20T10:27:20Z</time>
      </trkpt>
      <trkpt lat="47.6971" lon="2.0237267">
        <ele>164</ele>
        <time>2022-01-20T10:27:21Z</time>
      </trkpt>
      <trkpt lat="47.697094" lon="2.0237274">
        <ele>164</ele>
        <time>2022-01-20T10:27:22Z</time>
      </trkpt>
      <trkpt lat="47.697094" lon="2.0237284">
        <ele>164</ele>
        <time>2022-01-20T10:27:23Z</time>
      </trkpt>
      <trkpt lat="47.697086" lon="2.0237377">
        <ele>163</ele>
        <time>2022-01-20T10:27:24Z</time>
      </trkpt>
      <trkpt lat="47.697067" lon="2.0237434">
        <ele>163</ele>
        <time>2022-01-20T10:27:25Z</time>
      </trkpt>
      <trkpt lat="47.697052" lon="2.023746">
        <ele>163</ele>
        <time>2022-01-20T10:27:26Z</time>
      </trkpt>
      <trkpt lat="47.69704" lon="2.023747">
        <ele>164</ele>
        <time>2022-01-20T10:27:27Z</time>
      </trkpt>
      <trkpt lat="47.69703" lon="2.0237458">
        <ele>164</ele>
        <time>2022-01-20T10:27:28Z</time>
      </trkpt>
      <trkpt lat="47.697014" lon="2.0237448">
        <ele>164</ele>
        <time>2022-01-20T10:27:29Z</time>
      </trkpt>
      <trkpt lat="47.697" lon="2.0237482">
        <ele>164</ele>
        <time>2022-01-20T10:27:30Z</time>
      </trkpt>
      <trkpt lat="47.696987" lon="2.0237467">
        <ele>164</ele>
        <time>2022-01-20T10:27:31Z</time>
      </trkpt>
      <trkpt lat="47.69698" lon="2.023749">
        <ele>164</ele>
        <time>2022-01-20T10:27:32Z</time>
      </trkpt>
      <trkpt lat="47.696968" lon="2.02375">
        <ele>164</ele>
        <time>2022-01-20T10:27:33Z</time>
      </trkpt>
      <trkpt lat="47.696957" lon="2.0237527">
        <ele>164</ele>
        <time>2022-01-20T10:27:34Z</time>
      </trkpt>
      <trkpt lat="47.69695" lon="2.0237603">
        <ele>164</ele>
        <time>2022-01-20T10:27:35Z</time>
      </trkpt>
      <trkpt lat="47.696934" lon="2.0237668">
        <ele>163</ele>
        <time>2022-01-20T10:27:36Z</time>
      </trkpt>
      <trkpt lat="47.69692" lon="2.0237725">
        <ele>163</ele>
        <time>2022-01-20T10:27:37Z</time>
      </trkpt>
      <trkpt lat="47.696907" lon="2.023779">
        <ele>163</ele>
        <time>2022-01-20T10:27:38Z</time>
      </trkpt>
      <trkpt lat="47.696907" lon="2.0237775">
        <ele>162</ele>
        <time>2022-01-20T10:27:39Z</time>
      </trkpt>
      <trkpt lat="47.6969" lon="2.0237849">
        <ele>162</ele>
        <time>2022-01-20T10:27:40Z</time>
      </trkpt>
      <trkpt lat="47.696888" lon="2.0237966">
        <ele>162</ele>
        <time>2022-01-20T10:27:41Z</time>
      </trkpt>
      <trkpt lat="47.69687" lon="2.0237985">
        <ele>162</ele>
        <time>2022-01-20T10:27:42Z</time>
      </trkpt>
      <trkpt lat="47.696857" lon="2.023804">
        <ele>162</ele>
        <time>2022-01-20T10:27:43Z</time>
      </trkpt>
      <trkpt lat="47.69685" lon="2.0238078">
        <ele>162</ele>
        <time>2022-01-20T10:27:44Z</time>
      </trkpt>
      <trkpt lat="47.69684" lon="2.0238142">
        <ele>162</ele>
        <time>2022-01-20T10:27:45Z</time>
      </trkpt>
      <trkpt lat="47.69684" lon="2.0238242">
        <ele>162</ele>
        <time>2022-01-20T10:27:46Z</time>
      </trkpt>
      <trkpt lat="47.69684" lon="2.0238242">
        <ele>162</ele>
        <time>2022-01-20T10:27:47Z</time>
      </trkpt>
      <trkpt lat="47.69683" lon="2.023823">
        <ele>162</ele>
        <time>2022-01-20T10:27:48Z</time>
      </trkpt>
      <trkpt lat="47.696823" lon="2.0238242">
        <ele>163</ele>
        <time>2022-01-20T10:27:49Z</time>
      </trkpt>
      <trkpt lat="47.69682" lon="2.0238247">
        <ele>163</ele>
        <time>2022-01-20T10:27:50Z</time>
      </trkpt>
      <trkpt lat="47.696808" lon="2.0238261">
        <ele>162</ele>
        <time>2022-01-20T10:27:51Z</time>
      </trkpt>
      <trkpt lat="47.69679" lon="2.023829">
        <ele>162</ele>
        <time>2022-01-20T10:27:52Z</time>
      </trkpt>
      <trkpt lat="47.696774" lon="2.023832">
        <ele>162</ele>
        <time>2022-01-20T10:27:53Z</time>
      </trkpt>
      <trkpt lat="47.69676" lon="2.023832">
        <ele>161</ele>
        <time>2022-01-20T10:27:54Z</time>
      </trkpt>
      <trkpt lat="47.696747" lon="2.0238333">
        <ele>162</ele>
        <time>2022-01-20T10:27:55Z</time>
      </trkpt>
      <trkpt lat="47.696728" lon="2.0238335">
        <ele>162</ele>
        <time>2022-01-20T10:27:56Z</time>
      </trkpt>
      <trkpt lat="47.696716" lon="2.0238385">
        <ele>161</ele>
        <time>2022-01-20T10:27:57Z</time>
      </trkpt>
      <trkpt lat="47.696705" lon="2.02384">
        <ele>161</ele>
        <time>2022-01-20T10:27:58Z</time>
      </trkpt>
      <trkpt lat="47.696697" lon="2.0238445">
        <ele>161</ele>
        <time>2022-01-20T10:27:59Z</time>
      </trkpt>
      <trkpt lat="47.696686" lon="2.023848">
        <ele>162</ele>
        <time>2022-01-20T10:28:00Z</time>
      </trkpt>
      <trkpt lat="47.696674" lon="2.023857">
        <ele>162</ele>
        <time>2022-01-20T10:28:01Z</time>
      </trkpt>
      <trkpt lat="47.696663" lon="2.0238667">
        <ele>162</ele>
        <time>2022-01-20T10:28:02Z</time>
      </trkpt>
      <trkpt lat="47.69665" lon="2.0238707">
        <ele>162</ele>
        <time>2022-01-20T10:28:03Z</time>
      </trkpt>
      <trkpt lat="47.69664" lon="2.0238745">
        <ele>162</ele>
        <time>2022-01-20T10:28:04Z</time>
      </trkpt>
      <trkpt lat="47.696625" lon="2.0238788">
        <ele>162</ele>
        <time>2022-01-20T10:28:05Z</time>
      </trkpt>
      <trkpt lat="47.696613" lon="2.0238848">
        <ele>163</ele>
        <time>2022-01-20T10:28:06Z</time>
      </trkpt>
      <trkpt lat="47.6966" lon="2.0238872">
        <ele>163</ele>
        <time>2022-01-20T10:28:07Z</time>
      </trkpt>
      <trkpt lat="47.696594" lon="2.0238962">
        <ele>163</ele>
        <time>2022-01-20T10:28:08Z</time>
      </trkpt>
      <trkpt lat="47.696583" lon="2.0239036">
        <ele>163</ele>
        <time>2022-01-20T10:28:09Z</time>
      </trkpt>
      <trkpt lat="47.696575" lon="2.02391">
        <ele>162</ele>
        <time>2022-01-20T10:28:10Z</time>
      </trkpt>
      <trkpt lat="47.696564" lon="2.0239165">
        <ele>162</ele>
        <time>2022-01-20T10:28:11Z</time>
      </trkpt>
      <trkpt lat="47.696552" lon="2.0239177">
        <ele>162</ele>
        <time>2022-01-20T10:28:12Z</time>
      </trkpt>
      <trkpt lat="47.69654" lon="2.0239196">
        <ele>163</ele>
        <time>2022-01-20T10:28:13Z</time>
      </trkpt>
      <trkpt lat="47.69653" lon="2.0239208">
        <ele>163</ele>
        <time>2022-01-20T10:28:14Z</time>
      </trkpt>
      <trkpt lat="47.69652" lon="2.0239246">
        <ele>163</ele>
        <time>2022-01-20T10:28:15Z</time>
      </trkpt>
      <trkpt lat="47.69651" lon="2.0239286">
        <ele>163</ele>
        <time>2022-01-20T10:28:16Z</time>
      </trkpt>
      <trkpt lat="47.6965" lon="2.0239358">
        <ele>163</ele>
        <time>2022-01-20T10:28:17Z</time>
      </trkpt>
      <trkpt lat="47.696495" lon="2.0239363">
        <ele>163</ele>
        <time>2022-01-20T10:28:18Z</time>
      </trkpt>
      <trkpt lat="47.69649" lon="2.023935">
        <ele>163</ele>
        <time>2022-01-20T10:28:19Z</time>
      </trkpt>
      <trkpt lat="47.696487" lon="2.0239418">
        <ele>163</ele>
        <time>2022-01-20T10:28:20Z</time>
      </trkpt>
      <trkpt lat="47.696472" lon="2.0239484">
        <ele>162</ele>
        <time>2022-01-20T10:28:21Z</time>
      </trkpt>
      <trkpt lat="47.69646" lon="2.023955">
        <ele>162</ele>
        <time>2022-01-20T10:28:22Z</time>
      </trkpt>
      <trkpt lat="47.696457" lon="2.0239582">
        <ele>162</ele>
        <time>2022-01-20T10:28:23Z</time>
      </trkpt>
      <trkpt lat="47.696445" lon="2.023961">
        <ele>162</ele>
        <time>2022-01-20T10:28:24Z</time>
      </trkpt>
      <trkpt lat="47.696438" lon="2.0239632">
        <ele>162</ele>
        <time>2022-01-20T10:28:25Z</time>
      </trkpt>
      <trkpt lat="47.69643" lon="2.023967">
        <ele>163</ele>
        <time>2022-01-20T10:28:26Z</time>
      </trkpt>
      <trkpt lat="47.696426" lon="2.0239735">
        <ele>163</ele>
        <time>2022-01-20T10:28:27Z</time>
      </trkpt>
      <trkpt lat="47.69642" lon="2.0239837">
        <ele>163</ele>
        <time>2022-01-20T10:28:28Z</time>
      </trkpt>
      <trkpt lat="47.696415" lon="2.0239937">
        <ele>163</ele>
        <time>2022-01-20T10:28:29Z</time>
      </trkpt>
      <trkpt lat="47.696415" lon="2.0240002">
        <ele>163</ele>
        <time>2022-01-20T10:28:30Z</time>
      </trkpt>
      <trkpt lat="47.69641" lon="2.0240133">
        <ele>163</ele>
        <time>2022-01-20T10:28:31Z</time>
      </trkpt>
      <trkpt lat="47.696407" lon="2.024022">
        <ele>163</ele>
        <time>2022-01-20T10:28:32Z</time>
      </trkpt>
      <trkpt lat="47.696407" lon="2.0240338">
        <ele>162</ele>
        <time>2022-01-20T10:28:33Z</time>
      </trkpt>
      <trkpt lat="47.696404" lon="2.0240524">
        <ele>162</ele>
        <time>2022-01-20T10:28:34Z</time>
      </trkpt>
      <trkpt lat="47.696404" lon="2.024069">
        <ele>161</ele>
        <time>2022-01-20T10:28:35Z</time>
      </trkpt>
      <trkpt lat="47.696404" lon="2.0240855">
        <ele>161</ele>
        <time>2022-01-20T10:28:36Z</time>
      </trkpt>
      <trkpt lat="47.696404" lon="2.024106">
        <ele>161</ele>
        <time>2022-01-20T10:28:37Z</time>
      </trkpt>
      <trkpt lat="47.696407" lon="2.0241234">
        <ele>161</ele>
        <time>2022-01-20T10:28:38Z</time>
      </trkpt>
      <trkpt lat="47.69641" lon="2.0241385">
        <ele>162</ele>
        <time>2022-01-20T10:28:39Z</time>
      </trkpt>
      <trkpt lat="47.696415" lon="2.0241551">
        <ele>162</ele>
        <time>2022-01-20T10:28:40Z</time>
      </trkpt>
      <trkpt lat="47.69642" lon="2.0241709">
        <ele>162</ele>
        <time>2022-01-20T10:28:41Z</time>
      </trkpt>
      <trkpt lat="47.696423" lon="2.0241823">
        <ele>163</ele>
        <time>2022-01-20T10:28:42Z</time>
      </trkpt>
      <trkpt lat="47.696426" lon="2.0241973">
        <ele>163</ele>
        <time>2022-01-20T10:28:43Z</time>
      </trkpt>
      <trkpt lat="47.696426" lon="2.024216">
        <ele>163</ele>
        <time>2022-01-20T10:28:44Z</time>
      </trkpt>
      <trkpt lat="47.696434" lon="2.0242298">
        <ele>163</ele>
        <time>2022-01-20T10:28:45Z</time>
      </trkpt>
      <trkpt lat="47.69644" lon="2.0242445">
        <ele>163</ele>
        <time>2022-01-20T10:28:46Z</time>
      </trkpt>
      <trkpt lat="47.696445" lon="2.02426">
        <ele>163</ele>
        <time>2022-01-20T10:28:47Z</time>
      </trkpt>
      <trkpt lat="47.696453" lon="2.0242772">
        <ele>163</ele>
        <time>2022-01-20T10:28:48Z</time>
      </trkpt>
      <trkpt lat="47.69646" lon="2.0242982">
        <ele>163</ele>
        <time>2022-01-20T10:28:49Z</time>
      </trkpt>
      <trkpt lat="47.696465" lon="2.0243118">
        <ele>163</ele>
        <time>2022-01-20T10:28:50Z</time>
      </trkpt>
      <trkpt lat="47.696472" lon="2.0243266">
        <ele>163</ele>
        <time>2022-01-20T10:28:51Z</time>
      </trkpt>
      <trkpt lat="47.696472" lon="2.024344">
        <ele>162</ele>
        <time>2022-01-20T10:28:52Z</time>
      </trkpt>
      <trkpt lat="47.696476" lon="2.0243647">
        <ele>163</ele>
        <time>2022-01-20T10:28:53Z</time>
      </trkpt>
      <trkpt lat="47.69648" lon="2.0243824">
        <ele>163</ele>
        <time>2022-01-20T10:28:54Z</time>
      </trkpt>
      <trkpt lat="47.696484" lon="2.0244021">
        <ele>163</ele>
        <time>2022-01-20T10:28:55Z</time>
      </trkpt>
      <trkpt lat="47.696487" lon="2.0244217">
        <ele>163</ele>
        <time>2022-01-20T10:28:56Z</time>
      </trkpt>
      <trkpt lat="47.696487" lon="2.0244377">
        <ele>163</ele>
        <time>2022-01-20T10:28:57Z</time>
      </trkpt>
      <trkpt lat="47.696495" lon="2.02446">
        <ele>162</ele>
        <time>2022-01-20T10:28:58Z</time>
      </trkpt>
      <trkpt lat="47.696495" lon="2.0244787">
        <ele>162</ele>
        <time>2022-01-20T10:28:59Z</time>
      </trkpt>
      <trkpt lat="47.6965" lon="2.0244975">
        <ele>162</ele>
        <time>2022-01-20T10:29:00Z</time>
      </trkpt>
      <trkpt lat="47.6965" lon="2.0245166">
        <ele>162</ele>
        <time>2022-01-20T10:29:01Z</time>
      </trkpt>
      <trkpt lat="47.6965" lon="2.0245326">
        <ele>162</ele>
        <time>2022-01-20T10:29:02Z</time>
      </trkpt>
      <trkpt lat="47.696507" lon="2.0245495">
        <ele>162</ele>
        <time>2022-01-20T10:29:03Z</time>
      </trkpt>
      <trkpt lat="47.696514" lon="2.024563">
        <ele>162</ele>
        <time>2022-01-20T10:29:04Z</time>
      </trkpt>
      <trkpt lat="47.696518" lon="2.0245845">
        <ele>162</ele>
        <time>2022-01-20T10:29:05Z</time>
      </trkpt>
      <trkpt lat="47.69652" lon="2.0246015">
        <ele>162</ele>
        <time>2022-01-20T10:29:06Z</time>
      </trkpt>
      <trkpt lat="47.696526" lon="2.0246172">
        <ele>162</ele>
        <time>2022-01-20T10:29:07Z</time>
      </trkpt>
      <trkpt lat="47.696533" lon="2.024639">
        <ele>162</ele>
        <time>2022-01-20T10:29:08Z</time>
      </trkpt>
      <trkpt lat="47.696533" lon="2.0246603">
        <ele>162</ele>
        <time>2022-01-20T10:29:09Z</time>
      </trkpt>
      <trkpt lat="47.69654" lon="2.0246787">
        <ele>162</ele>
        <time>2022-01-20T10:29:10Z</time>
      </trkpt>
      <trkpt lat="47.696552" lon="2.0246928">
        <ele>162</ele>
        <time>2022-01-20T10:29:11Z</time>
      </trkpt>
      <trkpt lat="47.69656" lon="2.0247042">
        <ele>162</ele>
        <time>2022-01-20T10:29:12Z</time>
      </trkpt>
      <trkpt lat="47.69657" lon="2.0247145">
        <ele>163</ele>
        <time>2022-01-20T10:29:13Z</time>
      </trkpt>
      <trkpt lat="47.69658" lon="2.0247314">
        <ele>162</ele>
        <time>2022-01-20T10:29:14Z</time>
      </trkpt>
      <trkpt lat="47.696587" lon="2.0247488">
        <ele>162</ele>
        <time>2022-01-20T10:29:15Z</time>
      </trkpt>
      <trkpt lat="47.696594" lon="2.0247645">
        <ele>162</ele>
        <time>2022-01-20T10:29:16Z</time>
      </trkpt>
      <trkpt lat="47.696598" lon="2.0247793">
        <ele>162</ele>
        <time>2022-01-20T10:29:17Z</time>
      </trkpt>
      <trkpt lat="47.696606" lon="2.0247967">
        <ele>162</ele>
        <time>2022-01-20T10:29:18Z</time>
      </trkpt>
      <trkpt lat="47.696613" lon="2.024817">
        <ele>162</ele>
        <time>2022-01-20T10:29:19Z</time>
      </trkpt>
      <trkpt lat="47.69662" lon="2.0248356">
        <ele>162</ele>
        <time>2022-01-20T10:29:20Z</time>
      </trkpt>
      <trkpt lat="47.696632" lon="2.0248504">
        <ele>162</ele>
        <time>2022-01-20T10:29:21Z</time>
      </trkpt>
      <trkpt lat="47.69664" lon="2.0248613">
        <ele>162</ele>
        <time>2022-01-20T10:29:22Z</time>
      </trkpt>
      <trkpt lat="47.696644" lon="2.0248716">
        <ele>162</ele>
        <time>2022-01-20T10:29:23Z</time>
      </trkpt>
      <trkpt lat="47.696655" lon="2.0248835">
        <ele>162</ele>
        <time>2022-01-20T10:29:24Z</time>
      </trkpt>
      <trkpt lat="47.696663" lon="2.0248952">
        <ele>163</ele>
        <time>2022-01-20T10:29:25Z</time>
      </trkpt>
      <trkpt lat="47.696667" lon="2.0249045">
        <ele>163</ele>
        <time>2022-01-20T10:29:26Z</time>
      </trkpt>
      <trkpt lat="47.696667" lon="2.0249104">
        <ele>163</ele>
        <time>2022-01-20T10:29:27Z</time>
      </trkpt>
      <trkpt lat="47.696667" lon="2.024911">
        <ele>163</ele>
        <time>2022-01-20T10:29:28Z</time>
      </trkpt>
      <trkpt lat="47.696667" lon="2.0249107">
        <ele>163</ele>
        <time>2022-01-20T10:29:29Z</time>
      </trkpt>
      <trkpt lat="47.696667" lon="2.0249107">
        <ele>163</ele>
        <time>2022-01-20T10:29:30Z</time>
      </trkpt>
      <trkpt lat="47.696667" lon="2.0249107">
        <ele>163</ele>
        <time>2022-01-20T10:29:30Z</time>
      </trkpt>
    </trkseg>
    <trkseg>
      <trkpt lat="47.696667" lon="2.0249107">
        <ele>163</ele>
        <time>2022-01-20T10:29:30Z</time>
      </trkpt>
    </trkseg>
  </trk>
</gpx>